<?xml version="1.0" encoding="UTF-8"?>
<gpx creator="fabulator:gpx-builder" version="1.1" xmlns="http://www.topografix.com/GPX/1/1" xmlns:xsi="http://www.w3.org/2001/XMLSchema-instance" xsi:schemaLocation="http://www.topografix.com/GPX/1/1 http://www.topografix.com/GPX/1/1/gpx.xsd http://www.garmin.com/xmlschemas/TrackPointExtension/v2 https://www8.garmin.com/xmlschemas/TrackPointExtensionv2.xsd http://www.garmin.com/xmlschemas/GpxExtensions/v3 https://www8.garmin.com/xmlschemas/GpxExtensions/v3/GpxExtensionsv3.xsd" xmlns:gpxtpx="http://www.garmin.com/xmlschemas/TrackPointExtension/v2" xmlns:gpxx="http://www.garmin.com/xmlschemas/GpxExtensions/v3">
  <metadata>
    <name>Volandoo Hike</name>
    <author>
      <link href="https://volandoo.com/pilots">
        <text>https://volandoo.com/pilots</text>
      </link>
    </author>
    <link href="https://volandoo.com/tracks">
      <text>https://volandoo.com/tracks</text>
    </link>
    <time>2024-03-30T11:44:18.000Z</time>
  </metadata>
  <trk>
    <trkseg>
      <trkpt lat="28.235416666666666" lon="-16.435966666666666">
        <ele>795</ele>
        <time>2024-03-30T11:44:18.000Z</time>
      </trkpt>
      <trkpt lat="28.235483333333335" lon="-16.435866666666666">
        <ele>799</ele>
        <time>2024-03-30T11:44:21.000Z</time>
      </trkpt>
      <trkpt lat="28.235566666666667" lon="-16.435816666666668">
        <ele>801</ele>
        <time>2024-03-30T11:44:22.000Z</time>
      </trkpt>
      <trkpt lat="28.235616666666665" lon="-16.4358">
        <ele>799</ele>
        <time>2024-03-30T11:44:23.000Z</time>
      </trkpt>
      <trkpt lat="28.235716666666665" lon="-16.435766666666666">
        <ele>796</ele>
        <time>2024-03-30T11:44:24.000Z</time>
      </trkpt>
      <trkpt lat="28.235833333333332" lon="-16.435716666666668">
        <ele>792</ele>
        <time>2024-03-30T11:44:25.000Z</time>
      </trkpt>
      <trkpt lat="28.23595" lon="-16.435683333333333">
        <ele>790</ele>
        <time>2024-03-30T11:44:26.000Z</time>
      </trkpt>
      <trkpt lat="28.236066666666666" lon="-16.43563333333333">
        <ele>789</ele>
        <time>2024-03-30T11:44:27.000Z</time>
      </trkpt>
      <trkpt lat="28.236216666666667" lon="-16.4356">
        <ele>791</ele>
        <time>2024-03-30T11:44:28.000Z</time>
      </trkpt>
      <trkpt lat="28.23635" lon="-16.435616666666668">
        <ele>795</ele>
        <time>2024-03-30T11:44:29.000Z</time>
      </trkpt>
      <trkpt lat="28.23645" lon="-16.435666666666666">
        <ele>798</ele>
        <time>2024-03-30T11:44:30.000Z</time>
      </trkpt>
      <trkpt lat="28.236516666666667" lon="-16.43575">
        <ele>800</ele>
        <time>2024-03-30T11:44:31.000Z</time>
      </trkpt>
      <trkpt lat="28.236583333333332" lon="-16.43585">
        <ele>800</ele>
        <time>2024-03-30T11:44:32.000Z</time>
      </trkpt>
      <trkpt lat="28.236633333333334" lon="-16.43595">
        <ele>799</ele>
        <time>2024-03-30T11:44:33.000Z</time>
      </trkpt>
      <trkpt lat="28.2367" lon="-16.436066666666665">
        <ele>800</ele>
        <time>2024-03-30T11:44:34.000Z</time>
      </trkpt>
      <trkpt lat="28.236766666666668" lon="-16.4362">
        <ele>801</ele>
        <time>2024-03-30T11:44:35.000Z</time>
      </trkpt>
      <trkpt lat="28.236783333333335" lon="-16.43635">
        <ele>802</ele>
        <time>2024-03-30T11:44:36.000Z</time>
      </trkpt>
      <trkpt lat="28.236783333333335" lon="-16.436483333333335">
        <ele>803</ele>
        <time>2024-03-30T11:44:37.000Z</time>
      </trkpt>
      <trkpt lat="28.236783333333335" lon="-16.4366">
        <ele>805</ele>
        <time>2024-03-30T11:44:38.000Z</time>
      </trkpt>
      <trkpt lat="28.236783333333335" lon="-16.436716666666666">
        <ele>807</ele>
        <time>2024-03-30T11:44:39.000Z</time>
      </trkpt>
      <trkpt lat="28.236766666666668" lon="-16.436816666666665">
        <ele>809</ele>
        <time>2024-03-30T11:44:40.000Z</time>
      </trkpt>
      <trkpt lat="28.236733333333333" lon="-16.436916666666665">
        <ele>809</ele>
        <time>2024-03-30T11:44:41.000Z</time>
      </trkpt>
      <trkpt lat="28.2367" lon="-16.437033333333332">
        <ele>809</ele>
        <time>2024-03-30T11:44:42.000Z</time>
      </trkpt>
      <trkpt lat="28.23665" lon="-16.437133333333332">
        <ele>810</ele>
        <time>2024-03-30T11:44:43.000Z</time>
      </trkpt>
      <trkpt lat="28.23655" lon="-16.4372">
        <ele>813</ele>
        <time>2024-03-30T11:44:44.000Z</time>
      </trkpt>
      <trkpt lat="28.236466666666665" lon="-16.437216666666668">
        <ele>816</ele>
        <time>2024-03-30T11:44:45.000Z</time>
      </trkpt>
      <trkpt lat="28.2364" lon="-16.4372">
        <ele>819</ele>
        <time>2024-03-30T11:44:46.000Z</time>
      </trkpt>
      <trkpt lat="28.236366666666665" lon="-16.437166666666666">
        <ele>821</ele>
        <time>2024-03-30T11:44:47.000Z</time>
      </trkpt>
      <trkpt lat="28.236333333333334" lon="-16.437116666666668">
        <ele>822</ele>
        <time>2024-03-30T11:44:48.000Z</time>
      </trkpt>
      <trkpt lat="28.23635" lon="-16.437066666666666">
        <ele>824</ele>
        <time>2024-03-30T11:44:49.000Z</time>
      </trkpt>
      <trkpt lat="28.236383333333333" lon="-16.43701666666667">
        <ele>825</ele>
        <time>2024-03-30T11:44:50.000Z</time>
      </trkpt>
      <trkpt lat="28.236433333333334" lon="-16.43695">
        <ele>827</ele>
        <time>2024-03-30T11:44:51.000Z</time>
      </trkpt>
      <trkpt lat="28.236516666666667" lon="-16.4369">
        <ele>828</ele>
        <time>2024-03-30T11:44:52.000Z</time>
      </trkpt>
      <trkpt lat="28.23665" lon="-16.4369">
        <ele>829</ele>
        <time>2024-03-30T11:44:53.000Z</time>
      </trkpt>
      <trkpt lat="28.236766666666668" lon="-16.436933333333332">
        <ele>831</ele>
        <time>2024-03-30T11:44:54.000Z</time>
      </trkpt>
      <trkpt lat="28.2369" lon="-16.437">
        <ele>833</ele>
        <time>2024-03-30T11:44:55.000Z</time>
      </trkpt>
      <trkpt lat="28.236983333333335" lon="-16.437116666666668">
        <ele>836</ele>
        <time>2024-03-30T11:44:56.000Z</time>
      </trkpt>
      <trkpt lat="28.237033333333333" lon="-16.43723333333333">
        <ele>837</ele>
        <time>2024-03-30T11:44:57.000Z</time>
      </trkpt>
      <trkpt lat="28.23705" lon="-16.437366666666666">
        <ele>838</ele>
        <time>2024-03-30T11:44:58.000Z</time>
      </trkpt>
      <trkpt lat="28.237016666666666" lon="-16.437466666666666">
        <ele>838</ele>
        <time>2024-03-30T11:44:59.000Z</time>
      </trkpt>
      <trkpt lat="28.236983333333335" lon="-16.43755">
        <ele>839</ele>
        <time>2024-03-30T11:45:00.000Z</time>
      </trkpt>
      <trkpt lat="28.236916666666666" lon="-16.437633333333334">
        <ele>841</ele>
        <time>2024-03-30T11:45:01.000Z</time>
      </trkpt>
      <trkpt lat="28.23685" lon="-16.437683333333332">
        <ele>843</ele>
        <time>2024-03-30T11:45:02.000Z</time>
      </trkpt>
      <trkpt lat="28.236783333333335" lon="-16.4377">
        <ele>845</ele>
        <time>2024-03-30T11:45:03.000Z</time>
      </trkpt>
      <trkpt lat="28.236733333333333" lon="-16.4377">
        <ele>846</ele>
        <time>2024-03-30T11:45:04.000Z</time>
      </trkpt>
      <trkpt lat="28.236683333333332" lon="-16.437666666666665">
        <ele>847</ele>
        <time>2024-03-30T11:45:05.000Z</time>
      </trkpt>
      <trkpt lat="28.23665" lon="-16.4376">
        <ele>847</ele>
        <time>2024-03-30T11:45:06.000Z</time>
      </trkpt>
      <trkpt lat="28.236666666666668" lon="-16.437516666666667">
        <ele>849</ele>
        <time>2024-03-30T11:45:07.000Z</time>
      </trkpt>
      <trkpt lat="28.2367" lon="-16.437466666666666">
        <ele>852</ele>
        <time>2024-03-30T11:45:08.000Z</time>
      </trkpt>
      <trkpt lat="28.236766666666668" lon="-16.437416666666667">
        <ele>856</ele>
        <time>2024-03-30T11:45:09.000Z</time>
      </trkpt>
      <trkpt lat="28.236833333333333" lon="-16.437383333333333">
        <ele>858</ele>
        <time>2024-03-30T11:45:10.000Z</time>
      </trkpt>
      <trkpt lat="28.236933333333333" lon="-16.437383333333333">
        <ele>860</ele>
        <time>2024-03-30T11:45:11.000Z</time>
      </trkpt>
      <trkpt lat="28.237066666666667" lon="-16.437383333333333">
        <ele>862</ele>
        <time>2024-03-30T11:45:12.000Z</time>
      </trkpt>
      <trkpt lat="28.237166666666667" lon="-16.43745">
        <ele>865</ele>
        <time>2024-03-30T11:45:13.000Z</time>
      </trkpt>
      <trkpt lat="28.23725" lon="-16.437566666666665">
        <ele>867</ele>
        <time>2024-03-30T11:45:14.000Z</time>
      </trkpt>
      <trkpt lat="28.2373" lon="-16.4377">
        <ele>869</ele>
        <time>2024-03-30T11:45:15.000Z</time>
      </trkpt>
      <trkpt lat="28.23731666666667" lon="-16.437816666666667">
        <ele>870</ele>
        <time>2024-03-30T11:45:16.000Z</time>
      </trkpt>
      <trkpt lat="28.237283333333334" lon="-16.4379">
        <ele>870</ele>
        <time>2024-03-30T11:45:17.000Z</time>
      </trkpt>
      <trkpt lat="28.237233333333332" lon="-16.437966666666668">
        <ele>871</ele>
        <time>2024-03-30T11:45:18.000Z</time>
      </trkpt>
      <trkpt lat="28.23715" lon="-16.438016666666666">
        <ele>872</ele>
        <time>2024-03-30T11:45:19.000Z</time>
      </trkpt>
      <trkpt lat="28.237083333333334" lon="-16.438033333333333">
        <ele>873</ele>
        <time>2024-03-30T11:45:20.000Z</time>
      </trkpt>
      <trkpt lat="28.237016666666666" lon="-16.438016666666666">
        <ele>874</ele>
        <time>2024-03-30T11:45:21.000Z</time>
      </trkpt>
      <trkpt lat="28.236966666666667" lon="-16.43798333333333">
        <ele>874</ele>
        <time>2024-03-30T11:45:22.000Z</time>
      </trkpt>
      <trkpt lat="28.236933333333333" lon="-16.437933333333334">
        <ele>874</ele>
        <time>2024-03-30T11:45:23.000Z</time>
      </trkpt>
      <trkpt lat="28.236916666666666" lon="-16.437866666666668">
        <ele>875</ele>
        <time>2024-03-30T11:45:24.000Z</time>
      </trkpt>
      <trkpt lat="28.236916666666666" lon="-16.4378">
        <ele>876</ele>
        <time>2024-03-30T11:45:25.000Z</time>
      </trkpt>
      <trkpt lat="28.236933333333333" lon="-16.437733333333334">
        <ele>879</ele>
        <time>2024-03-30T11:45:26.000Z</time>
      </trkpt>
      <trkpt lat="28.236983333333335" lon="-16.437666666666665">
        <ele>882</ele>
        <time>2024-03-30T11:45:27.000Z</time>
      </trkpt>
      <trkpt lat="28.23705" lon="-16.437633333333334">
        <ele>885</ele>
        <time>2024-03-30T11:45:28.000Z</time>
      </trkpt>
      <trkpt lat="28.23715" lon="-16.4376">
        <ele>885</ele>
        <time>2024-03-30T11:45:29.000Z</time>
      </trkpt>
      <trkpt lat="28.23725" lon="-16.437616666666667">
        <ele>886</ele>
        <time>2024-03-30T11:45:30.000Z</time>
      </trkpt>
      <trkpt lat="28.237366666666667" lon="-16.43765">
        <ele>887</ele>
        <time>2024-03-30T11:45:31.000Z</time>
      </trkpt>
      <trkpt lat="28.237466666666666" lon="-16.4377">
        <ele>889</ele>
        <time>2024-03-30T11:45:32.000Z</time>
      </trkpt>
      <trkpt lat="28.237566666666666" lon="-16.437783333333332">
        <ele>891</ele>
        <time>2024-03-30T11:45:33.000Z</time>
      </trkpt>
      <trkpt lat="28.23765" lon="-16.4379">
        <ele>892</ele>
        <time>2024-03-30T11:45:34.000Z</time>
      </trkpt>
      <trkpt lat="28.237683333333333" lon="-16.438033333333333">
        <ele>894</ele>
        <time>2024-03-30T11:45:35.000Z</time>
      </trkpt>
      <trkpt lat="28.237683333333333" lon="-16.43815">
        <ele>896</ele>
        <time>2024-03-30T11:45:36.000Z</time>
      </trkpt>
      <trkpt lat="28.23765" lon="-16.43825">
        <ele>898</ele>
        <time>2024-03-30T11:45:37.000Z</time>
      </trkpt>
      <trkpt lat="28.237616666666668" lon="-16.438316666666665">
        <ele>900</ele>
        <time>2024-03-30T11:45:38.000Z</time>
      </trkpt>
      <trkpt lat="28.237566666666666" lon="-16.43835">
        <ele>900</ele>
        <time>2024-03-30T11:45:39.000Z</time>
      </trkpt>
      <trkpt lat="28.2375" lon="-16.438366666666667">
        <ele>900</ele>
        <time>2024-03-30T11:45:40.000Z</time>
      </trkpt>
      <trkpt lat="28.237433333333332" lon="-16.438366666666667">
        <ele>899</ele>
        <time>2024-03-30T11:45:41.000Z</time>
      </trkpt>
      <trkpt lat="28.237366666666667" lon="-16.438333333333333">
        <ele>898</ele>
        <time>2024-03-30T11:45:42.000Z</time>
      </trkpt>
      <trkpt lat="28.23731666666667" lon="-16.438266666666667">
        <ele>898</ele>
        <time>2024-03-30T11:45:43.000Z</time>
      </trkpt>
      <trkpt lat="28.237266666666667" lon="-16.438216666666666">
        <ele>899</ele>
        <time>2024-03-30T11:45:44.000Z</time>
      </trkpt>
      <trkpt lat="28.237233333333332" lon="-16.43815">
        <ele>901</ele>
        <time>2024-03-30T11:45:45.000Z</time>
      </trkpt>
      <trkpt lat="28.237216666666665" lon="-16.4381">
        <ele>902</ele>
        <time>2024-03-30T11:45:46.000Z</time>
      </trkpt>
      <trkpt lat="28.237216666666665" lon="-16.43805">
        <ele>903</ele>
        <time>2024-03-30T11:45:47.000Z</time>
      </trkpt>
      <trkpt lat="28.237233333333332" lon="-16.437966666666668">
        <ele>904</ele>
        <time>2024-03-30T11:45:48.000Z</time>
      </trkpt>
      <trkpt lat="28.2373" lon="-16.437883333333332">
        <ele>905</ele>
        <time>2024-03-30T11:45:49.000Z</time>
      </trkpt>
      <trkpt lat="28.237366666666667" lon="-16.437816666666667">
        <ele>907</ele>
        <time>2024-03-30T11:45:50.000Z</time>
      </trkpt>
      <trkpt lat="28.237433333333332" lon="-16.43776666666667">
        <ele>909</ele>
        <time>2024-03-30T11:45:51.000Z</time>
      </trkpt>
      <trkpt lat="28.237516666666668" lon="-16.437733333333334">
        <ele>910</ele>
        <time>2024-03-30T11:45:52.000Z</time>
      </trkpt>
      <trkpt lat="28.237616666666668" lon="-16.437716666666667">
        <ele>912</ele>
        <time>2024-03-30T11:45:53.000Z</time>
      </trkpt>
      <trkpt lat="28.237716666666667" lon="-16.437733333333334">
        <ele>912</ele>
        <time>2024-03-30T11:45:54.000Z</time>
      </trkpt>
      <trkpt lat="28.237833333333334" lon="-16.437783333333332">
        <ele>913</ele>
        <time>2024-03-30T11:45:55.000Z</time>
      </trkpt>
      <trkpt lat="28.237916666666667" lon="-16.437866666666668">
        <ele>914</ele>
        <time>2024-03-30T11:45:56.000Z</time>
      </trkpt>
      <trkpt lat="28.238" lon="-16.437966666666668">
        <ele>915</ele>
        <time>2024-03-30T11:45:57.000Z</time>
      </trkpt>
      <trkpt lat="28.23806666666667" lon="-16.438066666666668">
        <ele>917</ele>
        <time>2024-03-30T11:45:58.000Z</time>
      </trkpt>
      <trkpt lat="28.2381" lon="-16.438183333333335">
        <ele>918</ele>
        <time>2024-03-30T11:45:59.000Z</time>
      </trkpt>
      <trkpt lat="28.238133333333334" lon="-16.4383">
        <ele>919</ele>
        <time>2024-03-30T11:46:00.000Z</time>
      </trkpt>
      <trkpt lat="28.23815" lon="-16.438416666666665">
        <ele>921</ele>
        <time>2024-03-30T11:46:01.000Z</time>
      </trkpt>
      <trkpt lat="28.238133333333334" lon="-16.438516666666665">
        <ele>923</ele>
        <time>2024-03-30T11:46:02.000Z</time>
      </trkpt>
      <trkpt lat="28.238083333333332" lon="-16.4386">
        <ele>925</ele>
        <time>2024-03-30T11:46:03.000Z</time>
      </trkpt>
      <trkpt lat="28.238033333333334" lon="-16.43865">
        <ele>926</ele>
        <time>2024-03-30T11:46:04.000Z</time>
      </trkpt>
      <trkpt lat="28.23795" lon="-16.438666666666666">
        <ele>927</ele>
        <time>2024-03-30T11:46:05.000Z</time>
      </trkpt>
      <trkpt lat="28.237883333333333" lon="-16.43865">
        <ele>926</ele>
        <time>2024-03-30T11:46:06.000Z</time>
      </trkpt>
      <trkpt lat="28.237833333333334" lon="-16.438633333333332">
        <ele>926</ele>
        <time>2024-03-30T11:46:07.000Z</time>
      </trkpt>
      <trkpt lat="28.237783333333333" lon="-16.4386">
        <ele>926</ele>
        <time>2024-03-30T11:46:08.000Z</time>
      </trkpt>
      <trkpt lat="28.237733333333335" lon="-16.43855">
        <ele>926</ele>
        <time>2024-03-30T11:46:09.000Z</time>
      </trkpt>
      <trkpt lat="28.237683333333333" lon="-16.4385">
        <ele>926</ele>
        <time>2024-03-30T11:46:10.000Z</time>
      </trkpt>
      <trkpt lat="28.23765" lon="-16.438433333333332">
        <ele>927</ele>
        <time>2024-03-30T11:46:11.000Z</time>
      </trkpt>
      <trkpt lat="28.237633333333335" lon="-16.43835">
        <ele>927</ele>
        <time>2024-03-30T11:46:12.000Z</time>
      </trkpt>
      <trkpt lat="28.237616666666668" lon="-16.438266666666667">
        <ele>929</ele>
        <time>2024-03-30T11:46:13.000Z</time>
      </trkpt>
      <trkpt lat="28.237616666666668" lon="-16.438183333333335">
        <ele>931</ele>
        <time>2024-03-30T11:46:14.000Z</time>
      </trkpt>
      <trkpt lat="28.23765" lon="-16.438116666666666">
        <ele>933</ele>
        <time>2024-03-30T11:46:15.000Z</time>
      </trkpt>
      <trkpt lat="28.2377" lon="-16.43805">
        <ele>934</ele>
        <time>2024-03-30T11:46:16.000Z</time>
      </trkpt>
      <trkpt lat="28.237783333333333" lon="-16.43798333333333">
        <ele>936</ele>
        <time>2024-03-30T11:46:17.000Z</time>
      </trkpt>
      <trkpt lat="28.237883333333333" lon="-16.437966666666668">
        <ele>937</ele>
        <time>2024-03-30T11:46:18.000Z</time>
      </trkpt>
      <trkpt lat="28.237983333333332" lon="-16.437966666666668">
        <ele>939</ele>
        <time>2024-03-30T11:46:19.000Z</time>
      </trkpt>
      <trkpt lat="28.238083333333332" lon="-16.438033333333333">
        <ele>939</ele>
        <time>2024-03-30T11:46:20.000Z</time>
      </trkpt>
      <trkpt lat="28.23815" lon="-16.438116666666666">
        <ele>939</ele>
        <time>2024-03-30T11:46:21.000Z</time>
      </trkpt>
      <trkpt lat="28.238233333333334" lon="-16.438216666666666">
        <ele>939</ele>
        <time>2024-03-30T11:46:22.000Z</time>
      </trkpt>
      <trkpt lat="28.238266666666668" lon="-16.438316666666665">
        <ele>940</ele>
        <time>2024-03-30T11:46:23.000Z</time>
      </trkpt>
      <trkpt lat="28.2383" lon="-16.438433333333332">
        <ele>941</ele>
        <time>2024-03-30T11:46:24.000Z</time>
      </trkpt>
      <trkpt lat="28.238333333333333" lon="-16.43855">
        <ele>942</ele>
        <time>2024-03-30T11:46:25.000Z</time>
      </trkpt>
      <trkpt lat="28.23835" lon="-16.438666666666666">
        <ele>944</ele>
        <time>2024-03-30T11:46:26.000Z</time>
      </trkpt>
      <trkpt lat="28.238366666666668" lon="-16.438766666666666">
        <ele>946</ele>
        <time>2024-03-30T11:46:27.000Z</time>
      </trkpt>
      <trkpt lat="28.238366666666668" lon="-16.43885">
        <ele>947</ele>
        <time>2024-03-30T11:46:28.000Z</time>
      </trkpt>
      <trkpt lat="28.238333333333333" lon="-16.438916666666668">
        <ele>947</ele>
        <time>2024-03-30T11:46:29.000Z</time>
      </trkpt>
      <trkpt lat="28.23828333333333" lon="-16.438966666666666">
        <ele>947</ele>
        <time>2024-03-30T11:46:30.000Z</time>
      </trkpt>
      <trkpt lat="28.238216666666666" lon="-16.439">
        <ele>947</ele>
        <time>2024-03-30T11:46:31.000Z</time>
      </trkpt>
      <trkpt lat="28.238133333333334" lon="-16.439033333333334">
        <ele>948</ele>
        <time>2024-03-30T11:46:32.000Z</time>
      </trkpt>
      <trkpt lat="28.238083333333332" lon="-16.439033333333334">
        <ele>948</ele>
        <time>2024-03-30T11:46:33.000Z</time>
      </trkpt>
      <trkpt lat="28.238033333333334" lon="-16.439016666666667">
        <ele>947</ele>
        <time>2024-03-30T11:46:34.000Z</time>
      </trkpt>
      <trkpt lat="28.237966666666665" lon="-16.438983333333333">
        <ele>947</ele>
        <time>2024-03-30T11:46:35.000Z</time>
      </trkpt>
      <trkpt lat="28.237916666666667" lon="-16.438916666666668">
        <ele>946</ele>
        <time>2024-03-30T11:46:36.000Z</time>
      </trkpt>
      <trkpt lat="28.237883333333333" lon="-16.438833333333335">
        <ele>946</ele>
        <time>2024-03-30T11:46:37.000Z</time>
      </trkpt>
      <trkpt lat="28.237866666666665" lon="-16.43875">
        <ele>946</ele>
        <time>2024-03-30T11:46:38.000Z</time>
      </trkpt>
      <trkpt lat="28.237866666666665" lon="-16.438666666666666">
        <ele>947</ele>
        <time>2024-03-30T11:46:39.000Z</time>
      </trkpt>
      <trkpt lat="28.237866666666665" lon="-16.438583333333334">
        <ele>947</ele>
        <time>2024-03-30T11:46:40.000Z</time>
      </trkpt>
      <trkpt lat="28.237883333333333" lon="-16.438516666666665">
        <ele>949</ele>
        <time>2024-03-30T11:46:41.000Z</time>
      </trkpt>
      <trkpt lat="28.237933333333334" lon="-16.438433333333332">
        <ele>950</ele>
        <time>2024-03-30T11:46:42.000Z</time>
      </trkpt>
      <trkpt lat="28.238" lon="-16.438366666666667">
        <ele>950</ele>
        <time>2024-03-30T11:46:43.000Z</time>
      </trkpt>
      <trkpt lat="28.2381" lon="-16.438316666666665">
        <ele>951</ele>
        <time>2024-03-30T11:46:44.000Z</time>
      </trkpt>
      <trkpt lat="28.2382" lon="-16.4383">
        <ele>953</ele>
        <time>2024-03-30T11:46:45.000Z</time>
      </trkpt>
      <trkpt lat="28.238266666666668" lon="-16.438316666666665">
        <ele>954</ele>
        <time>2024-03-30T11:46:46.000Z</time>
      </trkpt>
      <trkpt lat="28.238333333333333" lon="-16.438366666666667">
        <ele>953</ele>
        <time>2024-03-30T11:46:47.000Z</time>
      </trkpt>
      <trkpt lat="28.238383333333335" lon="-16.43845">
        <ele>951</ele>
        <time>2024-03-30T11:46:48.000Z</time>
      </trkpt>
      <trkpt lat="28.23845" lon="-16.43855">
        <ele>950</ele>
        <time>2024-03-30T11:46:49.000Z</time>
      </trkpt>
      <trkpt lat="28.238516666666666" lon="-16.438666666666666">
        <ele>949</ele>
        <time>2024-03-30T11:46:50.000Z</time>
      </trkpt>
      <trkpt lat="28.23855" lon="-16.4388">
        <ele>949</ele>
        <time>2024-03-30T11:46:51.000Z</time>
      </trkpt>
      <trkpt lat="28.2386" lon="-16.438933333333335">
        <ele>948</ele>
        <time>2024-03-30T11:46:52.000Z</time>
      </trkpt>
      <trkpt lat="28.238633333333333" lon="-16.439083333333333">
        <ele>948</ele>
        <time>2024-03-30T11:46:53.000Z</time>
      </trkpt>
      <trkpt lat="28.238683333333334" lon="-16.4392">
        <ele>950</ele>
        <time>2024-03-30T11:46:54.000Z</time>
      </trkpt>
      <trkpt lat="28.238733333333332" lon="-16.439316666666667">
        <ele>951</ele>
        <time>2024-03-30T11:46:55.000Z</time>
      </trkpt>
      <trkpt lat="28.23875" lon="-16.439433333333334">
        <ele>952</ele>
        <time>2024-03-30T11:46:56.000Z</time>
      </trkpt>
      <trkpt lat="28.238766666666667" lon="-16.439533333333333">
        <ele>952</ele>
        <time>2024-03-30T11:46:57.000Z</time>
      </trkpt>
      <trkpt lat="28.238783333333334" lon="-16.439633333333333">
        <ele>952</ele>
        <time>2024-03-30T11:46:58.000Z</time>
      </trkpt>
      <trkpt lat="28.238783333333334" lon="-16.439716666666666">
        <ele>951</ele>
        <time>2024-03-30T11:46:59.000Z</time>
      </trkpt>
      <trkpt lat="28.2388" lon="-16.439816666666665">
        <ele>950</ele>
        <time>2024-03-30T11:47:00.000Z</time>
      </trkpt>
      <trkpt lat="28.238816666666665" lon="-16.439916666666665">
        <ele>949</ele>
        <time>2024-03-30T11:47:01.000Z</time>
      </trkpt>
      <trkpt lat="28.238866666666667" lon="-16.440033333333332">
        <ele>948</ele>
        <time>2024-03-30T11:47:02.000Z</time>
      </trkpt>
      <trkpt lat="28.238933333333332" lon="-16.44015">
        <ele>948</ele>
        <time>2024-03-30T11:47:03.000Z</time>
      </trkpt>
      <trkpt lat="28.239" lon="-16.44025">
        <ele>948</ele>
        <time>2024-03-30T11:47:04.000Z</time>
      </trkpt>
      <trkpt lat="28.239083333333333" lon="-16.44035">
        <ele>948</ele>
        <time>2024-03-30T11:47:05.000Z</time>
      </trkpt>
      <trkpt lat="28.239166666666666" lon="-16.44045">
        <ele>948</ele>
        <time>2024-03-30T11:47:06.000Z</time>
      </trkpt>
      <trkpt lat="28.239233333333335" lon="-16.44055">
        <ele>948</ele>
        <time>2024-03-30T11:47:07.000Z</time>
      </trkpt>
      <trkpt lat="28.239283333333333" lon="-16.440666666666665">
        <ele>949</ele>
        <time>2024-03-30T11:47:08.000Z</time>
      </trkpt>
      <trkpt lat="28.239333333333335" lon="-16.440766666666665">
        <ele>950</ele>
        <time>2024-03-30T11:47:09.000Z</time>
      </trkpt>
      <trkpt lat="28.239383333333333" lon="-16.44086666666667">
        <ele>951</ele>
        <time>2024-03-30T11:47:10.000Z</time>
      </trkpt>
      <trkpt lat="28.239433333333334" lon="-16.44095">
        <ele>953</ele>
        <time>2024-03-30T11:47:11.000Z</time>
      </trkpt>
      <trkpt lat="28.239483333333332" lon="-16.441033333333333">
        <ele>953</ele>
        <time>2024-03-30T11:47:12.000Z</time>
      </trkpt>
      <trkpt lat="28.239516666666667" lon="-16.441116666666666">
        <ele>953</ele>
        <time>2024-03-30T11:47:13.000Z</time>
      </trkpt>
      <trkpt lat="28.23955" lon="-16.441216666666666">
        <ele>952</ele>
        <time>2024-03-30T11:47:14.000Z</time>
      </trkpt>
      <trkpt lat="28.239566666666665" lon="-16.441316666666665">
        <ele>950</ele>
        <time>2024-03-30T11:47:15.000Z</time>
      </trkpt>
      <trkpt lat="28.2396" lon="-16.441416666666665">
        <ele>949</ele>
        <time>2024-03-30T11:47:16.000Z</time>
      </trkpt>
      <trkpt lat="28.23965" lon="-16.441516666666665">
        <ele>948</ele>
        <time>2024-03-30T11:47:17.000Z</time>
      </trkpt>
      <trkpt lat="28.2397" lon="-16.44161666666667">
        <ele>946</ele>
        <time>2024-03-30T11:47:18.000Z</time>
      </trkpt>
      <trkpt lat="28.23978333333333" lon="-16.4417">
        <ele>945</ele>
        <time>2024-03-30T11:47:19.000Z</time>
      </trkpt>
      <trkpt lat="28.239833333333333" lon="-16.441783333333333">
        <ele>944</ele>
        <time>2024-03-30T11:47:20.000Z</time>
      </trkpt>
      <trkpt lat="28.239883333333335" lon="-16.441883333333333">
        <ele>942</ele>
        <time>2024-03-30T11:47:21.000Z</time>
      </trkpt>
      <trkpt lat="28.23995" lon="-16.442">
        <ele>941</ele>
        <time>2024-03-30T11:47:22.000Z</time>
      </trkpt>
      <trkpt lat="28.24" lon="-16.442116666666667">
        <ele>940</ele>
        <time>2024-03-30T11:47:23.000Z</time>
      </trkpt>
      <trkpt lat="28.240066666666667" lon="-16.442216666666667">
        <ele>939</ele>
        <time>2024-03-30T11:47:24.000Z</time>
      </trkpt>
      <trkpt lat="28.240133333333333" lon="-16.442316666666667">
        <ele>938</ele>
        <time>2024-03-30T11:47:25.000Z</time>
      </trkpt>
      <trkpt lat="28.2402" lon="-16.442416666666666">
        <ele>936</ele>
        <time>2024-03-30T11:47:26.000Z</time>
      </trkpt>
      <trkpt lat="28.24025" lon="-16.442516666666666">
        <ele>935</ele>
        <time>2024-03-30T11:47:27.000Z</time>
      </trkpt>
      <trkpt lat="28.240316666666665" lon="-16.442616666666666">
        <ele>933</ele>
        <time>2024-03-30T11:47:28.000Z</time>
      </trkpt>
      <trkpt lat="28.240366666666667" lon="-16.442733333333333">
        <ele>932</ele>
        <time>2024-03-30T11:47:29.000Z</time>
      </trkpt>
      <trkpt lat="28.24041666666667" lon="-16.44285">
        <ele>932</ele>
        <time>2024-03-30T11:47:30.000Z</time>
      </trkpt>
      <trkpt lat="28.240483333333334" lon="-16.44295">
        <ele>933</ele>
        <time>2024-03-30T11:47:31.000Z</time>
      </trkpt>
      <trkpt lat="28.24053333333333" lon="-16.443016666666665">
        <ele>933</ele>
        <time>2024-03-30T11:47:32.000Z</time>
      </trkpt>
      <trkpt lat="28.240583333333333" lon="-16.4431">
        <ele>932</ele>
        <time>2024-03-30T11:47:33.000Z</time>
      </trkpt>
      <trkpt lat="28.240633333333335" lon="-16.443183333333334">
        <ele>930</ele>
        <time>2024-03-30T11:47:34.000Z</time>
      </trkpt>
      <trkpt lat="28.240683333333333" lon="-16.443283333333333">
        <ele>928</ele>
        <time>2024-03-30T11:47:35.000Z</time>
      </trkpt>
      <trkpt lat="28.240733333333335" lon="-16.4434">
        <ele>928</ele>
        <time>2024-03-30T11:47:36.000Z</time>
      </trkpt>
      <trkpt lat="28.2408" lon="-16.4435">
        <ele>928</ele>
        <time>2024-03-30T11:47:37.000Z</time>
      </trkpt>
      <trkpt lat="28.240866666666665" lon="-16.443583333333333">
        <ele>928</ele>
        <time>2024-03-30T11:47:38.000Z</time>
      </trkpt>
      <trkpt lat="28.240933333333334" lon="-16.443683333333333">
        <ele>929</ele>
        <time>2024-03-30T11:47:39.000Z</time>
      </trkpt>
      <trkpt lat="28.241" lon="-16.443766666666665">
        <ele>928</ele>
        <time>2024-03-30T11:47:40.000Z</time>
      </trkpt>
      <trkpt lat="28.241066666666665" lon="-16.44385">
        <ele>928</ele>
        <time>2024-03-30T11:47:41.000Z</time>
      </trkpt>
      <trkpt lat="28.241116666666667" lon="-16.443933333333334">
        <ele>927</ele>
        <time>2024-03-30T11:47:42.000Z</time>
      </trkpt>
      <trkpt lat="28.241183333333332" lon="-16.444033333333334">
        <ele>927</ele>
        <time>2024-03-30T11:47:43.000Z</time>
      </trkpt>
      <trkpt lat="28.241233333333334" lon="-16.444133333333333">
        <ele>927</ele>
        <time>2024-03-30T11:47:44.000Z</time>
      </trkpt>
      <trkpt lat="28.24128333333333" lon="-16.444233333333333">
        <ele>926</ele>
        <time>2024-03-30T11:47:45.000Z</time>
      </trkpt>
      <trkpt lat="28.241333333333333" lon="-16.44435">
        <ele>926</ele>
        <time>2024-03-30T11:47:46.000Z</time>
      </trkpt>
      <trkpt lat="28.241383333333335" lon="-16.444433333333333">
        <ele>926</ele>
        <time>2024-03-30T11:47:47.000Z</time>
      </trkpt>
      <trkpt lat="28.241433333333333" lon="-16.444533333333332">
        <ele>925</ele>
        <time>2024-03-30T11:47:48.000Z</time>
      </trkpt>
      <trkpt lat="28.241483333333335" lon="-16.44465">
        <ele>925</ele>
        <time>2024-03-30T11:47:49.000Z</time>
      </trkpt>
      <trkpt lat="28.241533333333333" lon="-16.444766666666666">
        <ele>925</ele>
        <time>2024-03-30T11:47:50.000Z</time>
      </trkpt>
      <trkpt lat="28.241583333333335" lon="-16.444866666666666">
        <ele>925</ele>
        <time>2024-03-30T11:47:51.000Z</time>
      </trkpt>
      <trkpt lat="28.24165" lon="-16.444966666666666">
        <ele>924</ele>
        <time>2024-03-30T11:47:52.000Z</time>
      </trkpt>
      <trkpt lat="28.241716666666665" lon="-16.445066666666666">
        <ele>922</ele>
        <time>2024-03-30T11:47:53.000Z</time>
      </trkpt>
      <trkpt lat="28.241766666666667" lon="-16.4452">
        <ele>920</ele>
        <time>2024-03-30T11:47:54.000Z</time>
      </trkpt>
      <trkpt lat="28.241816666666665" lon="-16.44535">
        <ele>919</ele>
        <time>2024-03-30T11:47:55.000Z</time>
      </trkpt>
      <trkpt lat="28.241833333333332" lon="-16.445483333333332">
        <ele>919</ele>
        <time>2024-03-30T11:47:56.000Z</time>
      </trkpt>
      <trkpt lat="28.241866666666667" lon="-16.445616666666666">
        <ele>920</ele>
        <time>2024-03-30T11:47:57.000Z</time>
      </trkpt>
      <trkpt lat="28.2419" lon="-16.445733333333333">
        <ele>922</ele>
        <time>2024-03-30T11:47:58.000Z</time>
      </trkpt>
      <trkpt lat="28.24195" lon="-16.44585">
        <ele>923</ele>
        <time>2024-03-30T11:47:59.000Z</time>
      </trkpt>
      <trkpt lat="28.242" lon="-16.44595">
        <ele>924</ele>
        <time>2024-03-30T11:48:00.000Z</time>
      </trkpt>
      <trkpt lat="28.24203333333333" lon="-16.44605">
        <ele>924</ele>
        <time>2024-03-30T11:48:01.000Z</time>
      </trkpt>
      <trkpt lat="28.242066666666666" lon="-16.446166666666667">
        <ele>924</ele>
        <time>2024-03-30T11:48:02.000Z</time>
      </trkpt>
      <trkpt lat="28.2421" lon="-16.446283333333334">
        <ele>924</ele>
        <time>2024-03-30T11:48:03.000Z</time>
      </trkpt>
      <trkpt lat="28.242133333333335" lon="-16.4464">
        <ele>924</ele>
        <time>2024-03-30T11:48:04.000Z</time>
      </trkpt>
      <trkpt lat="28.242166666666666" lon="-16.446533333333335">
        <ele>925</ele>
        <time>2024-03-30T11:48:05.000Z</time>
      </trkpt>
      <trkpt lat="28.2422" lon="-16.446649999999998">
        <ele>926</ele>
        <time>2024-03-30T11:48:06.000Z</time>
      </trkpt>
      <trkpt lat="28.24225" lon="-16.446766666666665">
        <ele>927</ele>
        <time>2024-03-30T11:48:07.000Z</time>
      </trkpt>
      <trkpt lat="28.242283333333333" lon="-16.446866666666665">
        <ele>928</ele>
        <time>2024-03-30T11:48:08.000Z</time>
      </trkpt>
      <trkpt lat="28.24235" lon="-16.44695">
        <ele>928</ele>
        <time>2024-03-30T11:48:09.000Z</time>
      </trkpt>
      <trkpt lat="28.24245" lon="-16.447033333333334">
        <ele>929</ele>
        <time>2024-03-30T11:48:10.000Z</time>
      </trkpt>
      <trkpt lat="28.242533333333334" lon="-16.447133333333333">
        <ele>931</ele>
        <time>2024-03-30T11:48:11.000Z</time>
      </trkpt>
      <trkpt lat="28.2426" lon="-16.447216666666666">
        <ele>932</ele>
        <time>2024-03-30T11:48:12.000Z</time>
      </trkpt>
      <trkpt lat="28.24265" lon="-16.447333333333333">
        <ele>932</ele>
        <time>2024-03-30T11:48:13.000Z</time>
      </trkpt>
      <trkpt lat="28.24265" lon="-16.44745">
        <ele>931</ele>
        <time>2024-03-30T11:48:14.000Z</time>
      </trkpt>
      <trkpt lat="28.242616666666667" lon="-16.447566666666667">
        <ele>930</ele>
        <time>2024-03-30T11:48:15.000Z</time>
      </trkpt>
      <trkpt lat="28.242566666666665" lon="-16.44765">
        <ele>931</ele>
        <time>2024-03-30T11:48:16.000Z</time>
      </trkpt>
      <trkpt lat="28.2425" lon="-16.44771666666667">
        <ele>931</ele>
        <time>2024-03-30T11:48:17.000Z</time>
      </trkpt>
      <trkpt lat="28.242433333333334" lon="-16.447733333333332">
        <ele>932</ele>
        <time>2024-03-30T11:48:18.000Z</time>
      </trkpt>
      <trkpt lat="28.242366666666666" lon="-16.447733333333332">
        <ele>933</ele>
        <time>2024-03-30T11:48:19.000Z</time>
      </trkpt>
      <trkpt lat="28.242333333333335" lon="-16.44771666666667">
        <ele>933</ele>
        <time>2024-03-30T11:48:20.000Z</time>
      </trkpt>
      <trkpt lat="28.242283333333333" lon="-16.447683333333334">
        <ele>933</ele>
        <time>2024-03-30T11:48:21.000Z</time>
      </trkpt>
      <trkpt lat="28.24225" lon="-16.447633333333332">
        <ele>933</ele>
        <time>2024-03-30T11:48:22.000Z</time>
      </trkpt>
      <trkpt lat="28.242266666666666" lon="-16.447566666666667">
        <ele>934</ele>
        <time>2024-03-30T11:48:23.000Z</time>
      </trkpt>
      <trkpt lat="28.242316666666667" lon="-16.4475">
        <ele>935</ele>
        <time>2024-03-30T11:48:24.000Z</time>
      </trkpt>
      <trkpt lat="28.242383333333333" lon="-16.447433333333333">
        <ele>936</ele>
        <time>2024-03-30T11:48:25.000Z</time>
      </trkpt>
      <trkpt lat="28.242466666666665" lon="-16.447383333333335">
        <ele>938</ele>
        <time>2024-03-30T11:48:26.000Z</time>
      </trkpt>
      <trkpt lat="28.24255" lon="-16.44735">
        <ele>940</ele>
        <time>2024-03-30T11:48:27.000Z</time>
      </trkpt>
      <trkpt lat="28.24265" lon="-16.447333333333333">
        <ele>942</ele>
        <time>2024-03-30T11:48:28.000Z</time>
      </trkpt>
      <trkpt lat="28.242766666666668" lon="-16.447333333333333">
        <ele>943</ele>
        <time>2024-03-30T11:48:29.000Z</time>
      </trkpt>
      <trkpt lat="28.24288333333333" lon="-16.44735">
        <ele>944</ele>
        <time>2024-03-30T11:48:30.000Z</time>
      </trkpt>
      <trkpt lat="28.242983333333335" lon="-16.44735">
        <ele>946</ele>
        <time>2024-03-30T11:48:31.000Z</time>
      </trkpt>
      <trkpt lat="28.243083333333335" lon="-16.447316666666666">
        <ele>946</ele>
        <time>2024-03-30T11:48:32.000Z</time>
      </trkpt>
      <trkpt lat="28.243133333333333" lon="-16.44725">
        <ele>946</ele>
        <time>2024-03-30T11:48:33.000Z</time>
      </trkpt>
      <trkpt lat="28.24315" lon="-16.447166666666668">
        <ele>945</ele>
        <time>2024-03-30T11:48:34.000Z</time>
      </trkpt>
      <trkpt lat="28.243133333333333" lon="-16.4471">
        <ele>945</ele>
        <time>2024-03-30T11:48:35.000Z</time>
      </trkpt>
      <trkpt lat="28.243066666666667" lon="-16.44708333333333">
        <ele>944</ele>
        <time>2024-03-30T11:48:36.000Z</time>
      </trkpt>
      <trkpt lat="28.242983333333335" lon="-16.4471">
        <ele>943</ele>
        <time>2024-03-30T11:48:37.000Z</time>
      </trkpt>
      <trkpt lat="28.242916666666666" lon="-16.447166666666668">
        <ele>942</ele>
        <time>2024-03-30T11:48:38.000Z</time>
      </trkpt>
      <trkpt lat="28.242866666666668" lon="-16.447233333333333">
        <ele>942</ele>
        <time>2024-03-30T11:48:39.000Z</time>
      </trkpt>
      <trkpt lat="28.242833333333333" lon="-16.44735">
        <ele>943</ele>
        <time>2024-03-30T11:48:40.000Z</time>
      </trkpt>
      <trkpt lat="28.242866666666668" lon="-16.447466666666667">
        <ele>944</ele>
        <time>2024-03-30T11:48:41.000Z</time>
      </trkpt>
      <trkpt lat="28.242916666666666" lon="-16.4476">
        <ele>944</ele>
        <time>2024-03-30T11:48:42.000Z</time>
      </trkpt>
      <trkpt lat="28.242983333333335" lon="-16.44771666666667">
        <ele>945</ele>
        <time>2024-03-30T11:48:43.000Z</time>
      </trkpt>
      <trkpt lat="28.243083333333335" lon="-16.4478">
        <ele>947</ele>
        <time>2024-03-30T11:48:44.000Z</time>
      </trkpt>
      <trkpt lat="28.2432" lon="-16.447816666666668">
        <ele>948</ele>
        <time>2024-03-30T11:48:45.000Z</time>
      </trkpt>
      <trkpt lat="28.243333333333332" lon="-16.4478">
        <ele>949</ele>
        <time>2024-03-30T11:48:46.000Z</time>
      </trkpt>
      <trkpt lat="28.243433333333332" lon="-16.44775">
        <ele>949</ele>
        <time>2024-03-30T11:48:47.000Z</time>
      </trkpt>
      <trkpt lat="28.243483333333334" lon="-16.447683333333334">
        <ele>950</ele>
        <time>2024-03-30T11:48:48.000Z</time>
      </trkpt>
      <trkpt lat="28.243516666666668" lon="-16.4476">
        <ele>949</ele>
        <time>2024-03-30T11:48:49.000Z</time>
      </trkpt>
      <trkpt lat="28.243483333333334" lon="-16.447533333333332">
        <ele>947</ele>
        <time>2024-03-30T11:48:50.000Z</time>
      </trkpt>
      <trkpt lat="28.24341666666667" lon="-16.4475">
        <ele>945</ele>
        <time>2024-03-30T11:48:51.000Z</time>
      </trkpt>
      <trkpt lat="28.243333333333332" lon="-16.447483333333334">
        <ele>946</ele>
        <time>2024-03-30T11:48:52.000Z</time>
      </trkpt>
      <trkpt lat="28.243283333333334" lon="-16.447516666666665">
        <ele>946</ele>
        <time>2024-03-30T11:48:53.000Z</time>
      </trkpt>
      <trkpt lat="28.243216666666665" lon="-16.44755">
        <ele>946</ele>
        <time>2024-03-30T11:48:54.000Z</time>
      </trkpt>
      <trkpt lat="28.243183333333334" lon="-16.447616666666665">
        <ele>945</ele>
        <time>2024-03-30T11:48:55.000Z</time>
      </trkpt>
      <trkpt lat="28.24315" lon="-16.4477">
        <ele>945</ele>
        <time>2024-03-30T11:48:56.000Z</time>
      </trkpt>
      <trkpt lat="28.243133333333333" lon="-16.4478">
        <ele>946</ele>
        <time>2024-03-30T11:48:57.000Z</time>
      </trkpt>
      <trkpt lat="28.243133333333333" lon="-16.447933333333335">
        <ele>947</ele>
        <time>2024-03-30T11:48:58.000Z</time>
      </trkpt>
      <trkpt lat="28.243166666666667" lon="-16.44805">
        <ele>949</ele>
        <time>2024-03-30T11:48:59.000Z</time>
      </trkpt>
      <trkpt lat="28.243216666666665" lon="-16.448166666666665">
        <ele>951</ele>
        <time>2024-03-30T11:49:00.000Z</time>
      </trkpt>
      <trkpt lat="28.243283333333334" lon="-16.44825">
        <ele>954</ele>
        <time>2024-03-30T11:49:01.000Z</time>
      </trkpt>
      <trkpt lat="28.243333333333332" lon="-16.448333333333334">
        <ele>955</ele>
        <time>2024-03-30T11:49:02.000Z</time>
      </trkpt>
      <trkpt lat="28.243433333333332" lon="-16.448383333333332">
        <ele>957</ele>
        <time>2024-03-30T11:49:03.000Z</time>
      </trkpt>
      <trkpt lat="28.243516666666668" lon="-16.448383333333332">
        <ele>957</ele>
        <time>2024-03-30T11:49:04.000Z</time>
      </trkpt>
      <trkpt lat="28.243616666666668" lon="-16.44835">
        <ele>957</ele>
        <time>2024-03-30T11:49:05.000Z</time>
      </trkpt>
      <trkpt lat="28.2437" lon="-16.448266666666665">
        <ele>959</ele>
        <time>2024-03-30T11:49:06.000Z</time>
      </trkpt>
      <trkpt lat="28.2437" lon="-16.448183333333333">
        <ele>959</ele>
        <time>2024-03-30T11:49:07.000Z</time>
      </trkpt>
      <trkpt lat="28.243666666666666" lon="-16.448116666666667">
        <ele>961</ele>
        <time>2024-03-30T11:49:08.000Z</time>
      </trkpt>
      <trkpt lat="28.2436" lon="-16.448066666666666">
        <ele>963</ele>
        <time>2024-03-30T11:49:09.000Z</time>
      </trkpt>
      <trkpt lat="28.243533333333332" lon="-16.44805">
        <ele>963</ele>
        <time>2024-03-30T11:49:10.000Z</time>
      </trkpt>
      <trkpt lat="28.243466666666666" lon="-16.448083333333333">
        <ele>965</ele>
        <time>2024-03-30T11:49:11.000Z</time>
      </trkpt>
      <trkpt lat="28.2434" lon="-16.448133333333335">
        <ele>966</ele>
        <time>2024-03-30T11:49:12.000Z</time>
      </trkpt>
      <trkpt lat="28.24335" lon="-16.448216666666667">
        <ele>966</ele>
        <time>2024-03-30T11:49:13.000Z</time>
      </trkpt>
      <trkpt lat="28.243316666666665" lon="-16.448316666666667">
        <ele>965</ele>
        <time>2024-03-30T11:49:14.000Z</time>
      </trkpt>
      <trkpt lat="28.2433" lon="-16.44845">
        <ele>965</ele>
        <time>2024-03-30T11:49:15.000Z</time>
      </trkpt>
      <trkpt lat="28.243283333333334" lon="-16.448583333333332">
        <ele>967</ele>
        <time>2024-03-30T11:49:16.000Z</time>
      </trkpt>
      <trkpt lat="28.2433" lon="-16.448716666666666">
        <ele>970</ele>
        <time>2024-03-30T11:49:17.000Z</time>
      </trkpt>
      <trkpt lat="28.243333333333332" lon="-16.448816666666666">
        <ele>973</ele>
        <time>2024-03-30T11:49:18.000Z</time>
      </trkpt>
      <trkpt lat="28.2434" lon="-16.4489">
        <ele>975</ele>
        <time>2024-03-30T11:49:19.000Z</time>
      </trkpt>
      <trkpt lat="28.243483333333334" lon="-16.44895">
        <ele>976</ele>
        <time>2024-03-30T11:49:20.000Z</time>
      </trkpt>
      <trkpt lat="28.2436" lon="-16.448966666666667">
        <ele>977</ele>
        <time>2024-03-30T11:49:21.000Z</time>
      </trkpt>
      <trkpt lat="28.2437" lon="-16.44895">
        <ele>978</ele>
        <time>2024-03-30T11:49:22.000Z</time>
      </trkpt>
      <trkpt lat="28.243766666666666" lon="-16.4489">
        <ele>979</ele>
        <time>2024-03-30T11:49:23.000Z</time>
      </trkpt>
      <trkpt lat="28.243783333333333" lon="-16.448816666666666">
        <ele>981</ele>
        <time>2024-03-30T11:49:24.000Z</time>
      </trkpt>
      <trkpt lat="28.243783333333333" lon="-16.448733333333333">
        <ele>984</ele>
        <time>2024-03-30T11:49:25.000Z</time>
      </trkpt>
      <trkpt lat="28.24375" lon="-16.448666666666668">
        <ele>986</ele>
        <time>2024-03-30T11:49:26.000Z</time>
      </trkpt>
      <trkpt lat="28.243683333333333" lon="-16.44865">
        <ele>986</ele>
        <time>2024-03-30T11:49:27.000Z</time>
      </trkpt>
      <trkpt lat="28.243583333333333" lon="-16.4487">
        <ele>986</ele>
        <time>2024-03-30T11:49:28.000Z</time>
      </trkpt>
      <trkpt lat="28.243516666666668" lon="-16.4488">
        <ele>987</ele>
        <time>2024-03-30T11:49:29.000Z</time>
      </trkpt>
      <trkpt lat="28.243483333333334" lon="-16.44895">
        <ele>989</ele>
        <time>2024-03-30T11:49:30.000Z</time>
      </trkpt>
      <trkpt lat="28.243483333333334" lon="-16.449083333333334">
        <ele>992</ele>
        <time>2024-03-30T11:49:31.000Z</time>
      </trkpt>
      <trkpt lat="28.243516666666668" lon="-16.449183333333334">
        <ele>994</ele>
        <time>2024-03-30T11:49:32.000Z</time>
      </trkpt>
      <trkpt lat="28.243583333333333" lon="-16.449266666666666">
        <ele>995</ele>
        <time>2024-03-30T11:49:33.000Z</time>
      </trkpt>
      <trkpt lat="28.243683333333333" lon="-16.449316666666668">
        <ele>996</ele>
        <time>2024-03-30T11:49:34.000Z</time>
      </trkpt>
      <trkpt lat="28.243766666666666" lon="-16.44935">
        <ele>996</ele>
        <time>2024-03-30T11:49:35.000Z</time>
      </trkpt>
      <trkpt lat="28.243866666666666" lon="-16.449366666666666">
        <ele>999</ele>
        <time>2024-03-30T11:49:36.000Z</time>
      </trkpt>
      <trkpt lat="28.243966666666665" lon="-16.449333333333332">
        <ele>1000</ele>
        <time>2024-03-30T11:49:37.000Z</time>
      </trkpt>
      <trkpt lat="28.244016666666667" lon="-16.449266666666666">
        <ele>1001</ele>
        <time>2024-03-30T11:49:38.000Z</time>
      </trkpt>
      <trkpt lat="28.244033333333334" lon="-16.449166666666667">
        <ele>1001</ele>
        <time>2024-03-30T11:49:39.000Z</time>
      </trkpt>
      <trkpt lat="28.244016666666667" lon="-16.449083333333334">
        <ele>1004</ele>
        <time>2024-03-30T11:49:40.000Z</time>
      </trkpt>
      <trkpt lat="28.24395" lon="-16.449">
        <ele>1006</ele>
        <time>2024-03-30T11:49:41.000Z</time>
      </trkpt>
      <trkpt lat="28.243866666666666" lon="-16.448983333333334">
        <ele>1006</ele>
        <time>2024-03-30T11:49:42.000Z</time>
      </trkpt>
      <trkpt lat="28.2438" lon="-16.449033333333333">
        <ele>1007</ele>
        <time>2024-03-30T11:49:43.000Z</time>
      </trkpt>
      <trkpt lat="28.243733333333335" lon="-16.4491">
        <ele>1008</ele>
        <time>2024-03-30T11:49:44.000Z</time>
      </trkpt>
      <trkpt lat="28.243666666666666" lon="-16.449183333333334">
        <ele>1010</ele>
        <time>2024-03-30T11:49:45.000Z</time>
      </trkpt>
      <trkpt lat="28.243616666666668" lon="-16.44925">
        <ele>1014</ele>
        <time>2024-03-30T11:49:46.000Z</time>
      </trkpt>
      <trkpt lat="28.243583333333333" lon="-16.449316666666668">
        <ele>1017</ele>
        <time>2024-03-30T11:49:47.000Z</time>
      </trkpt>
      <trkpt lat="28.243566666666666" lon="-16.449383333333333">
        <ele>1018</ele>
        <time>2024-03-30T11:49:48.000Z</time>
      </trkpt>
      <trkpt lat="28.24355" lon="-16.4495">
        <ele>1019</ele>
        <time>2024-03-30T11:49:49.000Z</time>
      </trkpt>
      <trkpt lat="28.243566666666666" lon="-16.449616666666667">
        <ele>1020</ele>
        <time>2024-03-30T11:49:50.000Z</time>
      </trkpt>
      <trkpt lat="28.2436" lon="-16.44975">
        <ele>1021</ele>
        <time>2024-03-30T11:49:51.000Z</time>
      </trkpt>
      <trkpt lat="28.24365" lon="-16.449866666666665">
        <ele>1024</ele>
        <time>2024-03-30T11:49:52.000Z</time>
      </trkpt>
      <trkpt lat="28.243733333333335" lon="-16.449933333333334">
        <ele>1025</ele>
        <time>2024-03-30T11:49:53.000Z</time>
      </trkpt>
      <trkpt lat="28.243833333333335" lon="-16.44996666666667">
        <ele>1024</ele>
        <time>2024-03-30T11:49:54.000Z</time>
      </trkpt>
      <trkpt lat="28.243933333333334" lon="-16.44996666666667">
        <ele>1025</ele>
        <time>2024-03-30T11:49:55.000Z</time>
      </trkpt>
      <trkpt lat="28.24405" lon="-16.449933333333334">
        <ele>1029</ele>
        <time>2024-03-30T11:49:56.000Z</time>
      </trkpt>
      <trkpt lat="28.2441" lon="-16.449883333333332">
        <ele>1031</ele>
        <time>2024-03-30T11:49:57.000Z</time>
      </trkpt>
      <trkpt lat="28.244116666666667" lon="-16.449783333333333">
        <ele>1031</ele>
        <time>2024-03-30T11:49:58.000Z</time>
      </trkpt>
      <trkpt lat="28.244083333333332" lon="-16.449716666666667">
        <ele>1032</ele>
        <time>2024-03-30T11:49:59.000Z</time>
      </trkpt>
      <trkpt lat="28.244033333333334" lon="-16.449666666666666">
        <ele>1034</ele>
        <time>2024-03-30T11:50:00.000Z</time>
      </trkpt>
      <trkpt lat="28.24395" lon="-16.44965">
        <ele>1036</ele>
        <time>2024-03-30T11:50:01.000Z</time>
      </trkpt>
      <trkpt lat="28.243883333333333" lon="-16.449683333333333">
        <ele>1038</ele>
        <time>2024-03-30T11:50:02.000Z</time>
      </trkpt>
      <trkpt lat="28.243833333333335" lon="-16.449733333333334">
        <ele>1040</ele>
        <time>2024-03-30T11:50:03.000Z</time>
      </trkpt>
      <trkpt lat="28.243783333333333" lon="-16.4498">
        <ele>1041</ele>
        <time>2024-03-30T11:50:04.000Z</time>
      </trkpt>
      <trkpt lat="28.243766666666666" lon="-16.449883333333332">
        <ele>1042</ele>
        <time>2024-03-30T11:50:05.000Z</time>
      </trkpt>
      <trkpt lat="28.24375" lon="-16.449983333333332">
        <ele>1042</ele>
        <time>2024-03-30T11:50:06.000Z</time>
      </trkpt>
      <trkpt lat="28.243783333333333" lon="-16.4501">
        <ele>1042</ele>
        <time>2024-03-30T11:50:07.000Z</time>
      </trkpt>
      <trkpt lat="28.24385" lon="-16.450216666666666">
        <ele>1042</ele>
        <time>2024-03-30T11:50:08.000Z</time>
      </trkpt>
      <trkpt lat="28.243916666666667" lon="-16.4503">
        <ele>1042</ele>
        <time>2024-03-30T11:50:09.000Z</time>
      </trkpt>
      <trkpt lat="28.244016666666667" lon="-16.45035">
        <ele>1042</ele>
        <time>2024-03-30T11:50:10.000Z</time>
      </trkpt>
      <trkpt lat="28.244133333333334" lon="-16.450366666666667">
        <ele>1044</ele>
        <time>2024-03-30T11:50:11.000Z</time>
      </trkpt>
      <trkpt lat="28.244233333333334" lon="-16.45035">
        <ele>1045</ele>
        <time>2024-03-30T11:50:12.000Z</time>
      </trkpt>
      <trkpt lat="28.244283333333332" lon="-16.450283333333335">
        <ele>1047</ele>
        <time>2024-03-30T11:50:13.000Z</time>
      </trkpt>
      <trkpt lat="28.244316666666666" lon="-16.4502">
        <ele>1048</ele>
        <time>2024-03-30T11:50:14.000Z</time>
      </trkpt>
      <trkpt lat="28.244316666666666" lon="-16.450133333333333">
        <ele>1051</ele>
        <time>2024-03-30T11:50:15.000Z</time>
      </trkpt>
      <trkpt lat="28.244266666666668" lon="-16.450066666666668">
        <ele>1054</ele>
        <time>2024-03-30T11:50:16.000Z</time>
      </trkpt>
      <trkpt lat="28.244233333333334" lon="-16.450066666666668">
        <ele>1055</ele>
        <time>2024-03-30T11:50:17.000Z</time>
      </trkpt>
      <trkpt lat="28.24416666666667" lon="-16.450066666666668">
        <ele>1056</ele>
        <time>2024-03-30T11:50:18.000Z</time>
      </trkpt>
      <trkpt lat="28.244116666666667" lon="-16.450116666666666">
        <ele>1057</ele>
        <time>2024-03-30T11:50:19.000Z</time>
      </trkpt>
      <trkpt lat="28.244083333333332" lon="-16.4502">
        <ele>1057</ele>
        <time>2024-03-30T11:50:20.000Z</time>
      </trkpt>
      <trkpt lat="28.244083333333332" lon="-16.450333333333333">
        <ele>1057</ele>
        <time>2024-03-30T11:50:21.000Z</time>
      </trkpt>
      <trkpt lat="28.2441" lon="-16.45045">
        <ele>1058</ele>
        <time>2024-03-30T11:50:22.000Z</time>
      </trkpt>
      <trkpt lat="28.244133333333334" lon="-16.450583333333334">
        <ele>1059</ele>
        <time>2024-03-30T11:50:23.000Z</time>
      </trkpt>
      <trkpt lat="28.24416666666667" lon="-16.450716666666665">
        <ele>1060</ele>
        <time>2024-03-30T11:50:24.000Z</time>
      </trkpt>
      <trkpt lat="28.244183333333332" lon="-16.45085">
        <ele>1062</ele>
        <time>2024-03-30T11:50:25.000Z</time>
      </trkpt>
      <trkpt lat="28.2442" lon="-16.450966666666666">
        <ele>1064</ele>
        <time>2024-03-30T11:50:26.000Z</time>
      </trkpt>
      <trkpt lat="28.244216666666667" lon="-16.451083333333333">
        <ele>1065</ele>
        <time>2024-03-30T11:50:27.000Z</time>
      </trkpt>
      <trkpt lat="28.244233333333334" lon="-16.451183333333333">
        <ele>1067</ele>
        <time>2024-03-30T11:50:28.000Z</time>
      </trkpt>
      <trkpt lat="28.244266666666668" lon="-16.4513">
        <ele>1067</ele>
        <time>2024-03-30T11:50:29.000Z</time>
      </trkpt>
      <trkpt lat="28.244333333333334" lon="-16.4514">
        <ele>1067</ele>
        <time>2024-03-30T11:50:30.000Z</time>
      </trkpt>
      <trkpt lat="28.244416666666666" lon="-16.45146666666667">
        <ele>1066</ele>
        <time>2024-03-30T11:50:31.000Z</time>
      </trkpt>
      <trkpt lat="28.244533333333333" lon="-16.451533333333334">
        <ele>1066</ele>
        <time>2024-03-30T11:50:32.000Z</time>
      </trkpt>
      <trkpt lat="28.24465" lon="-16.45155">
        <ele>1067</ele>
        <time>2024-03-30T11:50:33.000Z</time>
      </trkpt>
      <trkpt lat="28.24475" lon="-16.451516666666667">
        <ele>1068</ele>
        <time>2024-03-30T11:50:34.000Z</time>
      </trkpt>
      <trkpt lat="28.244816666666665" lon="-16.45146666666667">
        <ele>1069</ele>
        <time>2024-03-30T11:50:35.000Z</time>
      </trkpt>
      <trkpt lat="28.244833333333332" lon="-16.4514">
        <ele>1070</ele>
        <time>2024-03-30T11:50:36.000Z</time>
      </trkpt>
      <trkpt lat="28.244816666666665" lon="-16.451333333333334">
        <ele>1071</ele>
        <time>2024-03-30T11:50:37.000Z</time>
      </trkpt>
      <trkpt lat="28.244783333333334" lon="-16.45125">
        <ele>1072</ele>
        <time>2024-03-30T11:50:38.000Z</time>
      </trkpt>
      <trkpt lat="28.244733333333333" lon="-16.451216666666667">
        <ele>1073</ele>
        <time>2024-03-30T11:50:39.000Z</time>
      </trkpt>
      <trkpt lat="28.244683333333334" lon="-16.4512">
        <ele>1074</ele>
        <time>2024-03-30T11:50:40.000Z</time>
      </trkpt>
      <trkpt lat="28.24465" lon="-16.451216666666667">
        <ele>1075</ele>
        <time>2024-03-30T11:50:41.000Z</time>
      </trkpt>
      <trkpt lat="28.244566666666667" lon="-16.45125">
        <ele>1076</ele>
        <time>2024-03-30T11:50:42.000Z</time>
      </trkpt>
      <trkpt lat="28.2445" lon="-16.451333333333334">
        <ele>1076</ele>
        <time>2024-03-30T11:50:43.000Z</time>
      </trkpt>
      <trkpt lat="28.244433333333333" lon="-16.451433333333334">
        <ele>1077</ele>
        <time>2024-03-30T11:50:44.000Z</time>
      </trkpt>
      <trkpt lat="28.244416666666666" lon="-16.451583333333332">
        <ele>1079</ele>
        <time>2024-03-30T11:50:45.000Z</time>
      </trkpt>
      <trkpt lat="28.244433333333333" lon="-16.451716666666666">
        <ele>1082</ele>
        <time>2024-03-30T11:50:46.000Z</time>
      </trkpt>
      <trkpt lat="28.244483333333335" lon="-16.451833333333333">
        <ele>1083</ele>
        <time>2024-03-30T11:50:47.000Z</time>
      </trkpt>
      <trkpt lat="28.24455" lon="-16.451933333333333">
        <ele>1082</ele>
        <time>2024-03-30T11:50:48.000Z</time>
      </trkpt>
      <trkpt lat="28.24465" lon="-16.452016666666665">
        <ele>1082</ele>
        <time>2024-03-30T11:50:49.000Z</time>
      </trkpt>
      <trkpt lat="28.24475" lon="-16.452066666666667">
        <ele>1083</ele>
        <time>2024-03-30T11:50:50.000Z</time>
      </trkpt>
      <trkpt lat="28.244866666666667" lon="-16.452083333333334">
        <ele>1083</ele>
        <time>2024-03-30T11:50:51.000Z</time>
      </trkpt>
      <trkpt lat="28.244983333333334" lon="-16.452066666666667">
        <ele>1084</ele>
        <time>2024-03-30T11:50:52.000Z</time>
      </trkpt>
      <trkpt lat="28.245066666666666" lon="-16.452016666666665">
        <ele>1086</ele>
        <time>2024-03-30T11:50:53.000Z</time>
      </trkpt>
      <trkpt lat="28.24513333333333" lon="-16.451933333333333">
        <ele>1087</ele>
        <time>2024-03-30T11:50:54.000Z</time>
      </trkpt>
      <trkpt lat="28.2452" lon="-16.451866666666668">
        <ele>1089</ele>
        <time>2024-03-30T11:50:55.000Z</time>
      </trkpt>
      <trkpt lat="28.24525" lon="-16.4518">
        <ele>1093</ele>
        <time>2024-03-30T11:50:56.000Z</time>
      </trkpt>
      <trkpt lat="28.245283333333333" lon="-16.451733333333333">
        <ele>1096</ele>
        <time>2024-03-30T11:50:57.000Z</time>
      </trkpt>
      <trkpt lat="28.245316666666668" lon="-16.45168333333333">
        <ele>1099</ele>
        <time>2024-03-30T11:50:58.000Z</time>
      </trkpt>
      <trkpt lat="28.245316666666668" lon="-16.451633333333334">
        <ele>1100</ele>
        <time>2024-03-30T11:50:59.000Z</time>
      </trkpt>
      <trkpt lat="28.245283333333333" lon="-16.451583333333332">
        <ele>1100</ele>
        <time>2024-03-30T11:51:00.000Z</time>
      </trkpt>
      <trkpt lat="28.245216666666668" lon="-16.45156666666667">
        <ele>1099</ele>
        <time>2024-03-30T11:51:01.000Z</time>
      </trkpt>
      <trkpt lat="28.24513333333333" lon="-16.45156666666667">
        <ele>1099</ele>
        <time>2024-03-30T11:51:02.000Z</time>
      </trkpt>
      <trkpt lat="28.24505" lon="-16.451633333333334">
        <ele>1099</ele>
        <time>2024-03-30T11:51:03.000Z</time>
      </trkpt>
      <trkpt lat="28.244983333333334" lon="-16.451716666666666">
        <ele>1101</ele>
        <time>2024-03-30T11:51:04.000Z</time>
      </trkpt>
      <trkpt lat="28.24495" lon="-16.451816666666666">
        <ele>1102</ele>
        <time>2024-03-30T11:51:05.000Z</time>
      </trkpt>
      <trkpt lat="28.244983333333334" lon="-16.451966666666667">
        <ele>1101</ele>
        <time>2024-03-30T11:51:06.000Z</time>
      </trkpt>
      <trkpt lat="28.245066666666666" lon="-16.452083333333334">
        <ele>1099</ele>
        <time>2024-03-30T11:51:07.000Z</time>
      </trkpt>
      <trkpt lat="28.245166666666666" lon="-16.452166666666667">
        <ele>1099</ele>
        <time>2024-03-30T11:51:08.000Z</time>
      </trkpt>
      <trkpt lat="28.245283333333333" lon="-16.452216666666665">
        <ele>1102</ele>
        <time>2024-03-30T11:51:09.000Z</time>
      </trkpt>
      <trkpt lat="28.245383333333333" lon="-16.45225">
        <ele>1104</ele>
        <time>2024-03-30T11:51:10.000Z</time>
      </trkpt>
      <trkpt lat="28.245466666666665" lon="-16.45225">
        <ele>1108</ele>
        <time>2024-03-30T11:51:11.000Z</time>
      </trkpt>
      <trkpt lat="28.245533333333334" lon="-16.452233333333332">
        <ele>1110</ele>
        <time>2024-03-30T11:51:12.000Z</time>
      </trkpt>
      <trkpt lat="28.245566666666665" lon="-16.4522">
        <ele>1111</ele>
        <time>2024-03-30T11:51:13.000Z</time>
      </trkpt>
      <trkpt lat="28.245616666666667" lon="-16.452116666666665">
        <ele>1111</ele>
        <time>2024-03-30T11:51:14.000Z</time>
      </trkpt>
      <trkpt lat="28.245633333333334" lon="-16.45205">
        <ele>1111</ele>
        <time>2024-03-30T11:51:15.000Z</time>
      </trkpt>
      <trkpt lat="28.245616666666667" lon="-16.451966666666667">
        <ele>1112</ele>
        <time>2024-03-30T11:51:16.000Z</time>
      </trkpt>
      <trkpt lat="28.245566666666665" lon="-16.4519">
        <ele>1114</ele>
        <time>2024-03-30T11:51:17.000Z</time>
      </trkpt>
      <trkpt lat="28.245466666666665" lon="-16.451883333333335">
        <ele>1114</ele>
        <time>2024-03-30T11:51:18.000Z</time>
      </trkpt>
      <trkpt lat="28.245366666666666" lon="-16.45195">
        <ele>1115</ele>
        <time>2024-03-30T11:51:19.000Z</time>
      </trkpt>
      <trkpt lat="28.2453" lon="-16.452016666666665">
        <ele>1116</ele>
        <time>2024-03-30T11:51:20.000Z</time>
      </trkpt>
      <trkpt lat="28.24525" lon="-16.452116666666665">
        <ele>1116</ele>
        <time>2024-03-30T11:51:21.000Z</time>
      </trkpt>
      <trkpt lat="28.245216666666668" lon="-16.452216666666665">
        <ele>1117</ele>
        <time>2024-03-30T11:51:22.000Z</time>
      </trkpt>
      <trkpt lat="28.245216666666668" lon="-16.45231666666667">
        <ele>1118</ele>
        <time>2024-03-30T11:51:23.000Z</time>
      </trkpt>
      <trkpt lat="28.245216666666668" lon="-16.452416666666668">
        <ele>1118</ele>
        <time>2024-03-30T11:51:24.000Z</time>
      </trkpt>
      <trkpt lat="28.245233333333335" lon="-16.45255">
        <ele>1118</ele>
        <time>2024-03-30T11:51:25.000Z</time>
      </trkpt>
      <trkpt lat="28.245266666666666" lon="-16.4527">
        <ele>1118</ele>
        <time>2024-03-30T11:51:26.000Z</time>
      </trkpt>
      <trkpt lat="28.245333333333335" lon="-16.452833333333334">
        <ele>1119</ele>
        <time>2024-03-30T11:51:27.000Z</time>
      </trkpt>
      <trkpt lat="28.2454" lon="-16.452933333333334">
        <ele>1121</ele>
        <time>2024-03-30T11:51:28.000Z</time>
      </trkpt>
      <trkpt lat="28.245483333333333" lon="-16.453">
        <ele>1122</ele>
        <time>2024-03-30T11:51:29.000Z</time>
      </trkpt>
      <trkpt lat="28.245566666666665" lon="-16.453016666666667">
        <ele>1121</ele>
        <time>2024-03-30T11:51:30.000Z</time>
      </trkpt>
      <trkpt lat="28.245666666666665" lon="-16.453">
        <ele>1121</ele>
        <time>2024-03-30T11:51:31.000Z</time>
      </trkpt>
      <trkpt lat="28.245733333333334" lon="-16.45295">
        <ele>1122</ele>
        <time>2024-03-30T11:51:32.000Z</time>
      </trkpt>
      <trkpt lat="28.245783333333332" lon="-16.452866666666665">
        <ele>1123</ele>
        <time>2024-03-30T11:51:33.000Z</time>
      </trkpt>
      <trkpt lat="28.245783333333332" lon="-16.452766666666665">
        <ele>1124</ele>
        <time>2024-03-30T11:51:34.000Z</time>
      </trkpt>
      <trkpt lat="28.245783333333332" lon="-16.4527">
        <ele>1126</ele>
        <time>2024-03-30T11:51:35.000Z</time>
      </trkpt>
      <trkpt lat="28.245733333333334" lon="-16.45265">
        <ele>1128</ele>
        <time>2024-03-30T11:51:36.000Z</time>
      </trkpt>
      <trkpt lat="28.245683333333332" lon="-16.4526">
        <ele>1128</ele>
        <time>2024-03-30T11:51:37.000Z</time>
      </trkpt>
      <trkpt lat="28.24565" lon="-16.45255">
        <ele>1129</ele>
        <time>2024-03-30T11:51:38.000Z</time>
      </trkpt>
      <trkpt lat="28.2456" lon="-16.452516666666668">
        <ele>1129</ele>
        <time>2024-03-30T11:51:39.000Z</time>
      </trkpt>
      <trkpt lat="28.245533333333334" lon="-16.452483333333333">
        <ele>1129</ele>
        <time>2024-03-30T11:51:40.000Z</time>
      </trkpt>
      <trkpt lat="28.245466666666665" lon="-16.4525">
        <ele>1129</ele>
        <time>2024-03-30T11:51:41.000Z</time>
      </trkpt>
      <trkpt lat="28.245383333333333" lon="-16.45255">
        <ele>1129</ele>
        <time>2024-03-30T11:51:42.000Z</time>
      </trkpt>
      <trkpt lat="28.245316666666668" lon="-16.452616666666668">
        <ele>1128</ele>
        <time>2024-03-30T11:51:43.000Z</time>
      </trkpt>
      <trkpt lat="28.245266666666666" lon="-16.4527">
        <ele>1128</ele>
        <time>2024-03-30T11:51:44.000Z</time>
      </trkpt>
      <trkpt lat="28.245233333333335" lon="-16.452816666666667">
        <ele>1128</ele>
        <time>2024-03-30T11:51:45.000Z</time>
      </trkpt>
      <trkpt lat="28.2452" lon="-16.452933333333334">
        <ele>1129</ele>
        <time>2024-03-30T11:51:46.000Z</time>
      </trkpt>
      <trkpt lat="28.245183333333333" lon="-16.45306666666667">
        <ele>1130</ele>
        <time>2024-03-30T11:51:47.000Z</time>
      </trkpt>
      <trkpt lat="28.245183333333333" lon="-16.4532">
        <ele>1130</ele>
        <time>2024-03-30T11:51:48.000Z</time>
      </trkpt>
      <trkpt lat="28.245183333333333" lon="-16.453333333333333">
        <ele>1131</ele>
        <time>2024-03-30T11:51:49.000Z</time>
      </trkpt>
      <trkpt lat="28.245183333333333" lon="-16.45345">
        <ele>1133</ele>
        <time>2024-03-30T11:51:50.000Z</time>
      </trkpt>
      <trkpt lat="28.2452" lon="-16.453566666666667">
        <ele>1134</ele>
        <time>2024-03-30T11:51:51.000Z</time>
      </trkpt>
      <trkpt lat="28.245216666666668" lon="-16.453683333333334">
        <ele>1135</ele>
        <time>2024-03-30T11:51:52.000Z</time>
      </trkpt>
      <trkpt lat="28.245216666666668" lon="-16.45381666666667">
        <ele>1136</ele>
        <time>2024-03-30T11:51:53.000Z</time>
      </trkpt>
      <trkpt lat="28.245233333333335" lon="-16.45395">
        <ele>1136</ele>
        <time>2024-03-30T11:51:54.000Z</time>
      </trkpt>
      <trkpt lat="28.245233333333335" lon="-16.454083333333333">
        <ele>1138</ele>
        <time>2024-03-30T11:51:55.000Z</time>
      </trkpt>
      <trkpt lat="28.245233333333335" lon="-16.454216666666667">
        <ele>1141</ele>
        <time>2024-03-30T11:51:56.000Z</time>
      </trkpt>
      <trkpt lat="28.24525" lon="-16.454316666666667">
        <ele>1144</ele>
        <time>2024-03-30T11:51:57.000Z</time>
      </trkpt>
      <trkpt lat="28.245233333333335" lon="-16.454416666666667">
        <ele>1146</ele>
        <time>2024-03-30T11:51:58.000Z</time>
      </trkpt>
      <trkpt lat="28.2452" lon="-16.4545">
        <ele>1147</ele>
        <time>2024-03-30T11:51:59.000Z</time>
      </trkpt>
      <trkpt lat="28.24515" lon="-16.45456666666667">
        <ele>1148</ele>
        <time>2024-03-30T11:52:00.000Z</time>
      </trkpt>
      <trkpt lat="28.245066666666666" lon="-16.454583333333332">
        <ele>1147</ele>
        <time>2024-03-30T11:52:01.000Z</time>
      </trkpt>
      <trkpt lat="28.244966666666667" lon="-16.45456666666667">
        <ele>1147</ele>
        <time>2024-03-30T11:52:02.000Z</time>
      </trkpt>
      <trkpt lat="28.24491666666667" lon="-16.4545">
        <ele>1147</ele>
        <time>2024-03-30T11:52:03.000Z</time>
      </trkpt>
      <trkpt lat="28.24491666666667" lon="-16.454433333333334">
        <ele>1148</ele>
        <time>2024-03-30T11:52:04.000Z</time>
      </trkpt>
      <trkpt lat="28.244966666666667" lon="-16.454366666666665">
        <ele>1150</ele>
        <time>2024-03-30T11:52:05.000Z</time>
      </trkpt>
      <trkpt lat="28.245033333333332" lon="-16.454333333333334">
        <ele>1152</ele>
        <time>2024-03-30T11:52:06.000Z</time>
      </trkpt>
      <trkpt lat="28.2451" lon="-16.4543">
        <ele>1152</ele>
        <time>2024-03-30T11:52:07.000Z</time>
      </trkpt>
      <trkpt lat="28.245183333333333" lon="-16.4543">
        <ele>1151</ele>
        <time>2024-03-30T11:52:08.000Z</time>
      </trkpt>
      <trkpt lat="28.2453" lon="-16.454316666666667">
        <ele>1151</ele>
        <time>2024-03-30T11:52:09.000Z</time>
      </trkpt>
      <trkpt lat="28.2454" lon="-16.454333333333334">
        <ele>1151</ele>
        <time>2024-03-30T11:52:10.000Z</time>
      </trkpt>
      <trkpt lat="28.2455" lon="-16.4544">
        <ele>1151</ele>
        <time>2024-03-30T11:52:11.000Z</time>
      </trkpt>
      <trkpt lat="28.245583333333332" lon="-16.454516666666667">
        <ele>1153</ele>
        <time>2024-03-30T11:52:12.000Z</time>
      </trkpt>
      <trkpt lat="28.245666666666665" lon="-16.454633333333334">
        <ele>1155</ele>
        <time>2024-03-30T11:52:13.000Z</time>
      </trkpt>
      <trkpt lat="28.2457" lon="-16.45475">
        <ele>1159</ele>
        <time>2024-03-30T11:52:14.000Z</time>
      </trkpt>
      <trkpt lat="28.245733333333334" lon="-16.454866666666668">
        <ele>1162</ele>
        <time>2024-03-30T11:52:15.000Z</time>
      </trkpt>
      <trkpt lat="28.245716666666667" lon="-16.454966666666667">
        <ele>1163</ele>
        <time>2024-03-30T11:52:16.000Z</time>
      </trkpt>
      <trkpt lat="28.245666666666665" lon="-16.45505">
        <ele>1163</ele>
        <time>2024-03-30T11:52:17.000Z</time>
      </trkpt>
      <trkpt lat="28.2456" lon="-16.455133333333333">
        <ele>1164</ele>
        <time>2024-03-30T11:52:18.000Z</time>
      </trkpt>
      <trkpt lat="28.245516666666667" lon="-16.4552">
        <ele>1166</ele>
        <time>2024-03-30T11:52:19.000Z</time>
      </trkpt>
      <trkpt lat="28.245433333333335" lon="-16.455216666666665">
        <ele>1168</ele>
        <time>2024-03-30T11:52:20.000Z</time>
      </trkpt>
      <trkpt lat="28.245383333333333" lon="-16.455183333333334">
        <ele>1168</ele>
        <time>2024-03-30T11:52:21.000Z</time>
      </trkpt>
      <trkpt lat="28.245366666666666" lon="-16.455116666666665">
        <ele>1168</ele>
        <time>2024-03-30T11:52:22.000Z</time>
      </trkpt>
      <trkpt lat="28.2454" lon="-16.455016666666666">
        <ele>1169</ele>
        <time>2024-03-30T11:52:23.000Z</time>
      </trkpt>
      <trkpt lat="28.245483333333333" lon="-16.454966666666667">
        <ele>1172</ele>
        <time>2024-03-30T11:52:24.000Z</time>
      </trkpt>
      <trkpt lat="28.245566666666665" lon="-16.454933333333333">
        <ele>1174</ele>
        <time>2024-03-30T11:52:25.000Z</time>
      </trkpt>
      <trkpt lat="28.245683333333332" lon="-16.454966666666667">
        <ele>1175</ele>
        <time>2024-03-30T11:52:26.000Z</time>
      </trkpt>
      <trkpt lat="28.24576666666667" lon="-16.455033333333333">
        <ele>1176</ele>
        <time>2024-03-30T11:52:27.000Z</time>
      </trkpt>
      <trkpt lat="28.245833333333334" lon="-16.455133333333333">
        <ele>1178</ele>
        <time>2024-03-30T11:52:28.000Z</time>
      </trkpt>
      <trkpt lat="28.245866666666668" lon="-16.45525">
        <ele>1180</ele>
        <time>2024-03-30T11:52:29.000Z</time>
      </trkpt>
      <trkpt lat="28.245866666666668" lon="-16.455366666666666">
        <ele>1181</ele>
        <time>2024-03-30T11:52:30.000Z</time>
      </trkpt>
      <trkpt lat="28.24585" lon="-16.455483333333333">
        <ele>1183</ele>
        <time>2024-03-30T11:52:31.000Z</time>
      </trkpt>
      <trkpt lat="28.2458" lon="-16.455566666666666">
        <ele>1184</ele>
        <time>2024-03-30T11:52:32.000Z</time>
      </trkpt>
      <trkpt lat="28.245733333333334" lon="-16.455633333333335">
        <ele>1185</ele>
        <time>2024-03-30T11:52:33.000Z</time>
      </trkpt>
      <trkpt lat="28.245633333333334" lon="-16.455666666666666">
        <ele>1184</ele>
        <time>2024-03-30T11:52:34.000Z</time>
      </trkpt>
      <trkpt lat="28.24555" lon="-16.455633333333335">
        <ele>1183</ele>
        <time>2024-03-30T11:52:35.000Z</time>
      </trkpt>
      <trkpt lat="28.2455" lon="-16.455583333333333">
        <ele>1184</ele>
        <time>2024-03-30T11:52:36.000Z</time>
      </trkpt>
      <trkpt lat="28.2455" lon="-16.4555">
        <ele>1185</ele>
        <time>2024-03-30T11:52:37.000Z</time>
      </trkpt>
      <trkpt lat="28.245533333333334" lon="-16.455433333333332">
        <ele>1186</ele>
        <time>2024-03-30T11:52:38.000Z</time>
      </trkpt>
      <trkpt lat="28.245583333333332" lon="-16.455366666666666">
        <ele>1189</ele>
        <time>2024-03-30T11:52:39.000Z</time>
      </trkpt>
      <trkpt lat="28.24565" lon="-16.455333333333332">
        <ele>1192</ele>
        <time>2024-03-30T11:52:40.000Z</time>
      </trkpt>
      <trkpt lat="28.245716666666667" lon="-16.45531666666667">
        <ele>1193</ele>
        <time>2024-03-30T11:52:41.000Z</time>
      </trkpt>
      <trkpt lat="28.245816666666666" lon="-16.45535">
        <ele>1193</ele>
        <time>2024-03-30T11:52:42.000Z</time>
      </trkpt>
      <trkpt lat="28.245916666666666" lon="-16.4554">
        <ele>1193</ele>
        <time>2024-03-30T11:52:43.000Z</time>
      </trkpt>
      <trkpt lat="28.246016666666666" lon="-16.455483333333333">
        <ele>1196</ele>
        <time>2024-03-30T11:52:44.000Z</time>
      </trkpt>
      <trkpt lat="28.246083333333335" lon="-16.455583333333333">
        <ele>1198</ele>
        <time>2024-03-30T11:52:45.000Z</time>
      </trkpt>
      <trkpt lat="28.246133333333333" lon="-16.4557">
        <ele>1199</ele>
        <time>2024-03-30T11:52:46.000Z</time>
      </trkpt>
      <trkpt lat="28.24615" lon="-16.455816666666667">
        <ele>1201</ele>
        <time>2024-03-30T11:52:47.000Z</time>
      </trkpt>
      <trkpt lat="28.24615" lon="-16.455933333333334">
        <ele>1202</ele>
        <time>2024-03-30T11:52:48.000Z</time>
      </trkpt>
      <trkpt lat="28.2461" lon="-16.45605">
        <ele>1204</ele>
        <time>2024-03-30T11:52:49.000Z</time>
      </trkpt>
      <trkpt lat="28.24605" lon="-16.456133333333334">
        <ele>1204</ele>
        <time>2024-03-30T11:52:50.000Z</time>
      </trkpt>
      <trkpt lat="28.24595" lon="-16.456183333333332">
        <ele>1205</ele>
        <time>2024-03-30T11:52:51.000Z</time>
      </trkpt>
      <trkpt lat="28.245866666666668" lon="-16.456216666666666">
        <ele>1205</ele>
        <time>2024-03-30T11:52:52.000Z</time>
      </trkpt>
      <trkpt lat="28.24576666666667" lon="-16.4562">
        <ele>1207</ele>
        <time>2024-03-30T11:52:53.000Z</time>
      </trkpt>
      <trkpt lat="28.2457" lon="-16.456166666666668">
        <ele>1208</ele>
        <time>2024-03-30T11:52:54.000Z</time>
      </trkpt>
      <trkpt lat="28.245683333333332" lon="-16.4561">
        <ele>1209</ele>
        <time>2024-03-30T11:52:55.000Z</time>
      </trkpt>
      <trkpt lat="28.2457" lon="-16.456016666666667">
        <ele>1210</ele>
        <time>2024-03-30T11:52:56.000Z</time>
      </trkpt>
      <trkpt lat="28.24576666666667" lon="-16.45595">
        <ele>1211</ele>
        <time>2024-03-30T11:52:57.000Z</time>
      </trkpt>
      <trkpt lat="28.24585" lon="-16.455916666666667">
        <ele>1213</ele>
        <time>2024-03-30T11:52:58.000Z</time>
      </trkpt>
      <trkpt lat="28.245966666666668" lon="-16.455916666666667">
        <ele>1214</ele>
        <time>2024-03-30T11:52:59.000Z</time>
      </trkpt>
      <trkpt lat="28.246066666666668" lon="-16.455983333333332">
        <ele>1215</ele>
        <time>2024-03-30T11:53:00.000Z</time>
      </trkpt>
      <trkpt lat="28.246133333333333" lon="-16.456083333333332">
        <ele>1216</ele>
        <time>2024-03-30T11:53:01.000Z</time>
      </trkpt>
      <trkpt lat="28.2462" lon="-16.4562">
        <ele>1218</ele>
        <time>2024-03-30T11:53:02.000Z</time>
      </trkpt>
      <trkpt lat="28.246216666666665" lon="-16.456333333333333">
        <ele>1220</ele>
        <time>2024-03-30T11:53:03.000Z</time>
      </trkpt>
      <trkpt lat="28.2462" lon="-16.45645">
        <ele>1222</ele>
        <time>2024-03-30T11:53:04.000Z</time>
      </trkpt>
      <trkpt lat="28.246166666666667" lon="-16.45655">
        <ele>1223</ele>
        <time>2024-03-30T11:53:05.000Z</time>
      </trkpt>
      <trkpt lat="28.2461" lon="-16.456633333333333">
        <ele>1225</ele>
        <time>2024-03-30T11:53:06.000Z</time>
      </trkpt>
      <trkpt lat="28.24605" lon="-16.456716666666665">
        <ele>1227</ele>
        <time>2024-03-30T11:53:07.000Z</time>
      </trkpt>
      <trkpt lat="28.246033333333333" lon="-16.456833333333332">
        <ele>1227</ele>
        <time>2024-03-30T11:53:08.000Z</time>
      </trkpt>
      <trkpt lat="28.24605" lon="-16.456933333333332">
        <ele>1225</ele>
        <time>2024-03-30T11:53:09.000Z</time>
      </trkpt>
      <trkpt lat="28.2461" lon="-16.457">
        <ele>1223</ele>
        <time>2024-03-30T11:53:10.000Z</time>
      </trkpt>
      <trkpt lat="28.2462" lon="-16.45703333333333">
        <ele>1222</ele>
        <time>2024-03-30T11:53:11.000Z</time>
      </trkpt>
      <trkpt lat="28.2463" lon="-16.45703333333333">
        <ele>1224</ele>
        <time>2024-03-30T11:53:12.000Z</time>
      </trkpt>
      <trkpt lat="28.246383333333334" lon="-16.457">
        <ele>1227</ele>
        <time>2024-03-30T11:53:13.000Z</time>
      </trkpt>
      <trkpt lat="28.246416666666665" lon="-16.456933333333332">
        <ele>1228</ele>
        <time>2024-03-30T11:53:14.000Z</time>
      </trkpt>
      <trkpt lat="28.24645" lon="-16.45685">
        <ele>1229</ele>
        <time>2024-03-30T11:53:15.000Z</time>
      </trkpt>
      <trkpt lat="28.246466666666667" lon="-16.456766666666667">
        <ele>1231</ele>
        <time>2024-03-30T11:53:16.000Z</time>
      </trkpt>
      <trkpt lat="28.2465" lon="-16.4567">
        <ele>1233</ele>
        <time>2024-03-30T11:53:17.000Z</time>
      </trkpt>
      <trkpt lat="28.246533333333332" lon="-16.45665">
        <ele>1235</ele>
        <time>2024-03-30T11:53:18.000Z</time>
      </trkpt>
      <trkpt lat="28.24655" lon="-16.4566">
        <ele>1236</ele>
        <time>2024-03-30T11:53:19.000Z</time>
      </trkpt>
      <trkpt lat="28.246533333333332" lon="-16.45655">
        <ele>1235</ele>
        <time>2024-03-30T11:53:20.000Z</time>
      </trkpt>
      <trkpt lat="28.24645" lon="-16.456483333333335">
        <ele>1233</ele>
        <time>2024-03-30T11:53:21.000Z</time>
      </trkpt>
      <trkpt lat="28.246333333333332" lon="-16.456433333333333">
        <ele>1233</ele>
        <time>2024-03-30T11:53:22.000Z</time>
      </trkpt>
      <trkpt lat="28.246233333333333" lon="-16.456433333333333">
        <ele>1235</ele>
        <time>2024-03-30T11:53:23.000Z</time>
      </trkpt>
      <trkpt lat="28.246133333333333" lon="-16.456466666666667">
        <ele>1238</ele>
        <time>2024-03-30T11:53:24.000Z</time>
      </trkpt>
      <trkpt lat="28.246066666666668" lon="-16.456516666666666">
        <ele>1242</ele>
        <time>2024-03-30T11:53:25.000Z</time>
      </trkpt>
      <trkpt lat="28.246033333333333" lon="-16.456583333333334">
        <ele>1244</ele>
        <time>2024-03-30T11:53:26.000Z</time>
      </trkpt>
      <trkpt lat="28.246" lon="-16.45665">
        <ele>1244</ele>
        <time>2024-03-30T11:53:27.000Z</time>
      </trkpt>
      <trkpt lat="28.245983333333335" lon="-16.456733333333332">
        <ele>1244</ele>
        <time>2024-03-30T11:53:28.000Z</time>
      </trkpt>
      <trkpt lat="28.245966666666668" lon="-16.45685">
        <ele>1244</ele>
        <time>2024-03-30T11:53:29.000Z</time>
      </trkpt>
      <trkpt lat="28.245966666666668" lon="-16.456983333333334">
        <ele>1245</ele>
        <time>2024-03-30T11:53:30.000Z</time>
      </trkpt>
      <trkpt lat="28.246" lon="-16.4571">
        <ele>1246</ele>
        <time>2024-03-30T11:53:31.000Z</time>
      </trkpt>
      <trkpt lat="28.24605" lon="-16.457183333333333">
        <ele>1245</ele>
        <time>2024-03-30T11:53:32.000Z</time>
      </trkpt>
      <trkpt lat="28.246116666666666" lon="-16.45725">
        <ele>1245</ele>
        <time>2024-03-30T11:53:33.000Z</time>
      </trkpt>
      <trkpt lat="28.246216666666665" lon="-16.45725">
        <ele>1246</ele>
        <time>2024-03-30T11:53:34.000Z</time>
      </trkpt>
      <trkpt lat="28.2463" lon="-16.457216666666667">
        <ele>1246</ele>
        <time>2024-03-30T11:53:35.000Z</time>
      </trkpt>
      <trkpt lat="28.246366666666667" lon="-16.457166666666666">
        <ele>1248</ele>
        <time>2024-03-30T11:53:36.000Z</time>
      </trkpt>
      <trkpt lat="28.2464" lon="-16.4571">
        <ele>1250</ele>
        <time>2024-03-30T11:53:37.000Z</time>
      </trkpt>
      <trkpt lat="28.2464" lon="-16.45703333333333">
        <ele>1253</ele>
        <time>2024-03-30T11:53:38.000Z</time>
      </trkpt>
      <trkpt lat="28.2464" lon="-16.456966666666666">
        <ele>1254</ele>
        <time>2024-03-30T11:53:39.000Z</time>
      </trkpt>
      <trkpt lat="28.24635" lon="-16.456916666666668">
        <ele>1253</ele>
        <time>2024-03-30T11:53:40.000Z</time>
      </trkpt>
      <trkpt lat="28.246283333333334" lon="-16.456866666666667">
        <ele>1253</ele>
        <time>2024-03-30T11:53:41.000Z</time>
      </trkpt>
      <trkpt lat="28.246183333333335" lon="-16.45685">
        <ele>1252</ele>
        <time>2024-03-30T11:53:42.000Z</time>
      </trkpt>
      <trkpt lat="28.246083333333335" lon="-16.45685">
        <ele>1253</ele>
        <time>2024-03-30T11:53:43.000Z</time>
      </trkpt>
      <trkpt lat="28.246016666666666" lon="-16.4569">
        <ele>1254</ele>
        <time>2024-03-30T11:53:44.000Z</time>
      </trkpt>
      <trkpt lat="28.24595" lon="-16.456983333333334">
        <ele>1253</ele>
        <time>2024-03-30T11:53:45.000Z</time>
      </trkpt>
      <trkpt lat="28.245916666666666" lon="-16.457083333333333">
        <ele>1252</ele>
        <time>2024-03-30T11:53:46.000Z</time>
      </trkpt>
      <trkpt lat="28.24588333333333" lon="-16.457183333333333">
        <ele>1252</ele>
        <time>2024-03-30T11:53:47.000Z</time>
      </trkpt>
      <trkpt lat="28.245866666666668" lon="-16.457316666666667">
        <ele>1252</ele>
        <time>2024-03-30T11:53:48.000Z</time>
      </trkpt>
      <trkpt lat="28.245866666666668" lon="-16.45745">
        <ele>1253</ele>
        <time>2024-03-30T11:53:49.000Z</time>
      </trkpt>
      <trkpt lat="28.24588333333333" lon="-16.4576">
        <ele>1253</ele>
        <time>2024-03-30T11:53:50.000Z</time>
      </trkpt>
      <trkpt lat="28.245916666666666" lon="-16.457733333333334">
        <ele>1254</ele>
        <time>2024-03-30T11:53:51.000Z</time>
      </trkpt>
      <trkpt lat="28.245966666666668" lon="-16.45785">
        <ele>1256</ele>
        <time>2024-03-30T11:53:52.000Z</time>
      </trkpt>
      <trkpt lat="28.246016666666666" lon="-16.457966666666668">
        <ele>1258</ele>
        <time>2024-03-30T11:53:53.000Z</time>
      </trkpt>
      <trkpt lat="28.246083333333335" lon="-16.45805">
        <ele>1258</ele>
        <time>2024-03-30T11:53:54.000Z</time>
      </trkpt>
      <trkpt lat="28.24615" lon="-16.45815">
        <ele>1258</ele>
        <time>2024-03-30T11:53:55.000Z</time>
      </trkpt>
      <trkpt lat="28.246233333333333" lon="-16.458216666666665">
        <ele>1258</ele>
        <time>2024-03-30T11:53:56.000Z</time>
      </trkpt>
      <trkpt lat="28.2463" lon="-16.4583">
        <ele>1258</ele>
        <time>2024-03-30T11:53:57.000Z</time>
      </trkpt>
      <trkpt lat="28.2464" lon="-16.458383333333334">
        <ele>1258</ele>
        <time>2024-03-30T11:53:58.000Z</time>
      </trkpt>
      <trkpt lat="28.2465" lon="-16.45845">
        <ele>1259</ele>
        <time>2024-03-30T11:53:59.000Z</time>
      </trkpt>
      <trkpt lat="28.2466" lon="-16.458516666666668">
        <ele>1260</ele>
        <time>2024-03-30T11:54:00.000Z</time>
      </trkpt>
      <trkpt lat="28.246683333333333" lon="-16.458583333333333">
        <ele>1260</ele>
        <time>2024-03-30T11:54:01.000Z</time>
      </trkpt>
      <trkpt lat="28.246766666666666" lon="-16.458616666666668">
        <ele>1260</ele>
        <time>2024-03-30T11:54:02.000Z</time>
      </trkpt>
      <trkpt lat="28.246866666666666" lon="-16.458633333333335">
        <ele>1259</ele>
        <time>2024-03-30T11:54:03.000Z</time>
      </trkpt>
      <trkpt lat="28.246983333333333" lon="-16.4586">
        <ele>1260</ele>
        <time>2024-03-30T11:54:04.000Z</time>
      </trkpt>
      <trkpt lat="28.247083333333332" lon="-16.458566666666666">
        <ele>1261</ele>
        <time>2024-03-30T11:54:05.000Z</time>
      </trkpt>
      <trkpt lat="28.247166666666665" lon="-16.458516666666668">
        <ele>1263</ele>
        <time>2024-03-30T11:54:06.000Z</time>
      </trkpt>
      <trkpt lat="28.247216666666667" lon="-16.45845">
        <ele>1264</ele>
        <time>2024-03-30T11:54:07.000Z</time>
      </trkpt>
      <trkpt lat="28.247216666666667" lon="-16.458366666666667">
        <ele>1264</ele>
        <time>2024-03-30T11:54:08.000Z</time>
      </trkpt>
      <trkpt lat="28.2472" lon="-16.458283333333334">
        <ele>1265</ele>
        <time>2024-03-30T11:54:09.000Z</time>
      </trkpt>
      <trkpt lat="28.247183333333332" lon="-16.458216666666665">
        <ele>1266</ele>
        <time>2024-03-30T11:54:10.000Z</time>
      </trkpt>
      <trkpt lat="28.247116666666667" lon="-16.458183333333334">
        <ele>1265</ele>
        <time>2024-03-30T11:54:11.000Z</time>
      </trkpt>
      <trkpt lat="28.247033333333334" lon="-16.458166666666667">
        <ele>1264</ele>
        <time>2024-03-30T11:54:12.000Z</time>
      </trkpt>
      <trkpt lat="28.246933333333335" lon="-16.458166666666667">
        <ele>1263</ele>
        <time>2024-03-30T11:54:13.000Z</time>
      </trkpt>
      <trkpt lat="28.24685" lon="-16.4582">
        <ele>1264</ele>
        <time>2024-03-30T11:54:14.000Z</time>
      </trkpt>
      <trkpt lat="28.246783333333333" lon="-16.458233333333332">
        <ele>1266</ele>
        <time>2024-03-30T11:54:15.000Z</time>
      </trkpt>
      <trkpt lat="28.246733333333335" lon="-16.458283333333334">
        <ele>1267</ele>
        <time>2024-03-30T11:54:16.000Z</time>
      </trkpt>
      <trkpt lat="28.246683333333333" lon="-16.45835">
        <ele>1267</ele>
        <time>2024-03-30T11:54:17.000Z</time>
      </trkpt>
      <trkpt lat="28.24663333333333" lon="-16.45841666666667">
        <ele>1267</ele>
        <time>2024-03-30T11:54:18.000Z</time>
      </trkpt>
      <trkpt lat="28.246583333333334" lon="-16.4585">
        <ele>1267</ele>
        <time>2024-03-30T11:54:19.000Z</time>
      </trkpt>
      <trkpt lat="28.24655" lon="-16.458616666666668">
        <ele>1268</ele>
        <time>2024-03-30T11:54:20.000Z</time>
      </trkpt>
      <trkpt lat="28.24651666666667" lon="-16.458733333333335">
        <ele>1268</ele>
        <time>2024-03-30T11:54:21.000Z</time>
      </trkpt>
      <trkpt lat="28.2465" lon="-16.458866666666665">
        <ele>1270</ele>
        <time>2024-03-30T11:54:22.000Z</time>
      </trkpt>
      <trkpt lat="28.2465" lon="-16.458983333333332">
        <ele>1272</ele>
        <time>2024-03-30T11:54:23.000Z</time>
      </trkpt>
      <trkpt lat="28.24651666666667" lon="-16.4591">
        <ele>1272</ele>
        <time>2024-03-30T11:54:24.000Z</time>
      </trkpt>
      <trkpt lat="28.24655" lon="-16.459216666666666">
        <ele>1273</ele>
        <time>2024-03-30T11:54:25.000Z</time>
      </trkpt>
      <trkpt lat="28.2466" lon="-16.459316666666666">
        <ele>1273</ele>
        <time>2024-03-30T11:54:26.000Z</time>
      </trkpt>
      <trkpt lat="28.24665" lon="-16.4594">
        <ele>1273</ele>
        <time>2024-03-30T11:54:27.000Z</time>
      </trkpt>
      <trkpt lat="28.246733333333335" lon="-16.45945">
        <ele>1273</ele>
        <time>2024-03-30T11:54:28.000Z</time>
      </trkpt>
      <trkpt lat="28.246833333333335" lon="-16.459483333333335">
        <ele>1273</ele>
        <time>2024-03-30T11:54:29.000Z</time>
      </trkpt>
      <trkpt lat="28.24695" lon="-16.459516666666666">
        <ele>1273</ele>
        <time>2024-03-30T11:54:30.000Z</time>
      </trkpt>
      <trkpt lat="28.247066666666665" lon="-16.4595">
        <ele>1273</ele>
        <time>2024-03-30T11:54:31.000Z</time>
      </trkpt>
      <trkpt lat="28.247183333333332" lon="-16.459483333333335">
        <ele>1274</ele>
        <time>2024-03-30T11:54:32.000Z</time>
      </trkpt>
      <trkpt lat="28.24726666666667" lon="-16.459416666666666">
        <ele>1274</ele>
        <time>2024-03-30T11:54:33.000Z</time>
      </trkpt>
      <trkpt lat="28.247333333333334" lon="-16.45935">
        <ele>1275</ele>
        <time>2024-03-30T11:54:34.000Z</time>
      </trkpt>
      <trkpt lat="28.24738333333333" lon="-16.459266666666668">
        <ele>1276</ele>
        <time>2024-03-30T11:54:35.000Z</time>
      </trkpt>
      <trkpt lat="28.24738333333333" lon="-16.4592">
        <ele>1278</ele>
        <time>2024-03-30T11:54:36.000Z</time>
      </trkpt>
      <trkpt lat="28.247366666666668" lon="-16.459133333333334">
        <ele>1279</ele>
        <time>2024-03-30T11:54:37.000Z</time>
      </trkpt>
      <trkpt lat="28.247316666666666" lon="-16.459083333333332">
        <ele>1279</ele>
        <time>2024-03-30T11:54:38.000Z</time>
      </trkpt>
      <trkpt lat="28.24726666666667" lon="-16.45905">
        <ele>1279</ele>
        <time>2024-03-30T11:54:39.000Z</time>
      </trkpt>
      <trkpt lat="28.247216666666667" lon="-16.459033333333334">
        <ele>1279</ele>
        <time>2024-03-30T11:54:40.000Z</time>
      </trkpt>
      <trkpt lat="28.247133333333334" lon="-16.459033333333334">
        <ele>1279</ele>
        <time>2024-03-30T11:54:41.000Z</time>
      </trkpt>
      <trkpt lat="28.247066666666665" lon="-16.45905">
        <ele>1279</ele>
        <time>2024-03-30T11:54:42.000Z</time>
      </trkpt>
      <trkpt lat="28.247" lon="-16.459083333333332">
        <ele>1280</ele>
        <time>2024-03-30T11:54:43.000Z</time>
      </trkpt>
      <trkpt lat="28.246933333333335" lon="-16.45915">
        <ele>1281</ele>
        <time>2024-03-30T11:54:44.000Z</time>
      </trkpt>
      <trkpt lat="28.246866666666666" lon="-16.459233333333334">
        <ele>1282</ele>
        <time>2024-03-30T11:54:45.000Z</time>
      </trkpt>
      <trkpt lat="28.246833333333335" lon="-16.459333333333333">
        <ele>1282</ele>
        <time>2024-03-30T11:54:46.000Z</time>
      </trkpt>
      <trkpt lat="28.246816666666668" lon="-16.459433333333333">
        <ele>1283</ele>
        <time>2024-03-30T11:54:47.000Z</time>
      </trkpt>
      <trkpt lat="28.246833333333335" lon="-16.45955">
        <ele>1283</ele>
        <time>2024-03-30T11:54:48.000Z</time>
      </trkpt>
      <trkpt lat="28.246866666666666" lon="-16.459666666666667">
        <ele>1283</ele>
        <time>2024-03-30T11:54:49.000Z</time>
      </trkpt>
      <trkpt lat="28.246916666666667" lon="-16.459783333333334">
        <ele>1283</ele>
        <time>2024-03-30T11:54:50.000Z</time>
      </trkpt>
      <trkpt lat="28.246983333333333" lon="-16.459883333333334">
        <ele>1284</ele>
        <time>2024-03-30T11:54:51.000Z</time>
      </trkpt>
      <trkpt lat="28.247066666666665" lon="-16.459983333333334">
        <ele>1285</ele>
        <time>2024-03-30T11:54:52.000Z</time>
      </trkpt>
      <trkpt lat="28.24715" lon="-16.46005">
        <ele>1286</ele>
        <time>2024-03-30T11:54:53.000Z</time>
      </trkpt>
      <trkpt lat="28.247233333333334" lon="-16.460116666666668">
        <ele>1287</ele>
        <time>2024-03-30T11:54:54.000Z</time>
      </trkpt>
      <trkpt lat="28.2473" lon="-16.460183333333333">
        <ele>1289</ele>
        <time>2024-03-30T11:54:55.000Z</time>
      </trkpt>
      <trkpt lat="28.24735" lon="-16.460266666666666">
        <ele>1289</ele>
        <time>2024-03-30T11:54:56.000Z</time>
      </trkpt>
      <trkpt lat="28.24738333333333" lon="-16.46035">
        <ele>1289</ele>
        <time>2024-03-30T11:54:57.000Z</time>
      </trkpt>
      <trkpt lat="28.24738333333333" lon="-16.46045">
        <ele>1288</ele>
        <time>2024-03-30T11:54:58.000Z</time>
      </trkpt>
      <trkpt lat="28.24738333333333" lon="-16.460566666666665">
        <ele>1285</ele>
        <time>2024-03-30T11:54:59.000Z</time>
      </trkpt>
      <trkpt lat="28.247366666666668" lon="-16.460683333333332">
        <ele>1282</ele>
        <time>2024-03-30T11:55:00.000Z</time>
      </trkpt>
      <trkpt lat="28.247366666666668" lon="-16.460833333333333">
        <ele>1281</ele>
        <time>2024-03-30T11:55:01.000Z</time>
      </trkpt>
      <trkpt lat="28.24738333333333" lon="-16.460983333333335">
        <ele>1283</ele>
        <time>2024-03-30T11:55:02.000Z</time>
      </trkpt>
      <trkpt lat="28.247433333333333" lon="-16.461116666666666">
        <ele>1285</ele>
        <time>2024-03-30T11:55:03.000Z</time>
      </trkpt>
      <trkpt lat="28.2475" lon="-16.461233333333332">
        <ele>1289</ele>
        <time>2024-03-30T11:55:04.000Z</time>
      </trkpt>
      <trkpt lat="28.247566666666668" lon="-16.4613">
        <ele>1290</ele>
        <time>2024-03-30T11:55:05.000Z</time>
      </trkpt>
      <trkpt lat="28.24765" lon="-16.461333333333332">
        <ele>1291</ele>
        <time>2024-03-30T11:55:06.000Z</time>
      </trkpt>
      <trkpt lat="28.24775" lon="-16.461333333333332">
        <ele>1292</ele>
        <time>2024-03-30T11:55:07.000Z</time>
      </trkpt>
      <trkpt lat="28.247833333333332" lon="-16.4613">
        <ele>1292</ele>
        <time>2024-03-30T11:55:08.000Z</time>
      </trkpt>
      <trkpt lat="28.247916666666665" lon="-16.461216666666665">
        <ele>1293</ele>
        <time>2024-03-30T11:55:09.000Z</time>
      </trkpt>
      <trkpt lat="28.24795" lon="-16.461116666666666">
        <ele>1296</ele>
        <time>2024-03-30T11:55:10.000Z</time>
      </trkpt>
      <trkpt lat="28.247966666666667" lon="-16.461016666666666">
        <ele>1302</ele>
        <time>2024-03-30T11:55:11.000Z</time>
      </trkpt>
      <trkpt lat="28.247916666666665" lon="-16.46095">
        <ele>1307</ele>
        <time>2024-03-30T11:55:12.000Z</time>
      </trkpt>
      <trkpt lat="28.247833333333332" lon="-16.46095">
        <ele>1310</ele>
        <time>2024-03-30T11:55:13.000Z</time>
      </trkpt>
      <trkpt lat="28.24775" lon="-16.461016666666666">
        <ele>1310</ele>
        <time>2024-03-30T11:55:14.000Z</time>
      </trkpt>
      <trkpt lat="28.247683333333335" lon="-16.461133333333333">
        <ele>1309</ele>
        <time>2024-03-30T11:55:15.000Z</time>
      </trkpt>
      <trkpt lat="28.24765" lon="-16.461283333333334">
        <ele>1310</ele>
        <time>2024-03-30T11:55:16.000Z</time>
      </trkpt>
      <trkpt lat="28.247716666666665" lon="-16.461433333333332">
        <ele>1311</ele>
        <time>2024-03-30T11:55:17.000Z</time>
      </trkpt>
      <trkpt lat="28.2478" lon="-16.461516666666668">
        <ele>1314</ele>
        <time>2024-03-30T11:55:18.000Z</time>
      </trkpt>
      <trkpt lat="28.247933333333332" lon="-16.46155">
        <ele>1317</ele>
        <time>2024-03-30T11:55:19.000Z</time>
      </trkpt>
      <trkpt lat="28.248033333333332" lon="-16.461516666666668">
        <ele>1318</ele>
        <time>2024-03-30T11:55:20.000Z</time>
      </trkpt>
      <trkpt lat="28.248083333333334" lon="-16.46145">
        <ele>1320</ele>
        <time>2024-03-30T11:55:21.000Z</time>
      </trkpt>
      <trkpt lat="28.248116666666668" lon="-16.461366666666667">
        <ele>1323</ele>
        <time>2024-03-30T11:55:22.000Z</time>
      </trkpt>
      <trkpt lat="28.2481" lon="-16.461283333333334">
        <ele>1327</ele>
        <time>2024-03-30T11:55:23.000Z</time>
      </trkpt>
      <trkpt lat="28.248066666666666" lon="-16.4612">
        <ele>1331</ele>
        <time>2024-03-30T11:55:24.000Z</time>
      </trkpt>
      <trkpt lat="28.247983333333334" lon="-16.461183333333334">
        <ele>1332</ele>
        <time>2024-03-30T11:55:25.000Z</time>
      </trkpt>
      <trkpt lat="28.247883333333334" lon="-16.46125">
        <ele>1332</ele>
        <time>2024-03-30T11:55:26.000Z</time>
      </trkpt>
      <trkpt lat="28.247816666666665" lon="-16.461383333333334">
        <ele>1333</ele>
        <time>2024-03-30T11:55:27.000Z</time>
      </trkpt>
      <trkpt lat="28.2478" lon="-16.46155">
        <ele>1334</ele>
        <time>2024-03-30T11:55:28.000Z</time>
      </trkpt>
      <trkpt lat="28.247816666666665" lon="-16.461683333333333">
        <ele>1339</ele>
        <time>2024-03-30T11:55:29.000Z</time>
      </trkpt>
      <trkpt lat="28.247916666666665" lon="-16.461733333333335">
        <ele>1343</ele>
        <time>2024-03-30T11:55:30.000Z</time>
      </trkpt>
      <trkpt lat="28.24801666666667" lon="-16.46175">
        <ele>1345</ele>
        <time>2024-03-30T11:55:31.000Z</time>
      </trkpt>
      <trkpt lat="28.248116666666668" lon="-16.461733333333335">
        <ele>1346</ele>
        <time>2024-03-30T11:55:32.000Z</time>
      </trkpt>
      <trkpt lat="28.248216666666668" lon="-16.461666666666666">
        <ele>1347</ele>
        <time>2024-03-30T11:55:33.000Z</time>
      </trkpt>
      <trkpt lat="28.248283333333333" lon="-16.461583333333333">
        <ele>1350</ele>
        <time>2024-03-30T11:55:34.000Z</time>
      </trkpt>
      <trkpt lat="28.2483" lon="-16.461483333333334">
        <ele>1352</ele>
        <time>2024-03-30T11:55:35.000Z</time>
      </trkpt>
      <trkpt lat="28.248283333333333" lon="-16.46141666666667">
        <ele>1355</ele>
        <time>2024-03-30T11:55:36.000Z</time>
      </trkpt>
      <trkpt lat="28.248233333333335" lon="-16.46135">
        <ele>1356</ele>
        <time>2024-03-30T11:55:37.000Z</time>
      </trkpt>
      <trkpt lat="28.248166666666666" lon="-16.461333333333332">
        <ele>1356</ele>
        <time>2024-03-30T11:55:38.000Z</time>
      </trkpt>
      <trkpt lat="28.2481" lon="-16.461333333333332">
        <ele>1356</ele>
        <time>2024-03-30T11:55:39.000Z</time>
      </trkpt>
      <trkpt lat="28.24801666666667" lon="-16.46135">
        <ele>1355</ele>
        <time>2024-03-30T11:55:40.000Z</time>
      </trkpt>
      <trkpt lat="28.24795" lon="-16.461366666666667">
        <ele>1354</ele>
        <time>2024-03-30T11:55:41.000Z</time>
      </trkpt>
      <trkpt lat="28.247883333333334" lon="-16.461366666666667">
        <ele>1354</ele>
        <time>2024-03-30T11:55:42.000Z</time>
      </trkpt>
      <trkpt lat="28.247816666666665" lon="-16.46135">
        <ele>1353</ele>
        <time>2024-03-30T11:55:43.000Z</time>
      </trkpt>
      <trkpt lat="28.247766666666667" lon="-16.461316666666665">
        <ele>1352</ele>
        <time>2024-03-30T11:55:44.000Z</time>
      </trkpt>
      <trkpt lat="28.247716666666665" lon="-16.461266666666667">
        <ele>1351</ele>
        <time>2024-03-30T11:55:45.000Z</time>
      </trkpt>
      <trkpt lat="28.247683333333335" lon="-16.4612">
        <ele>1350</ele>
        <time>2024-03-30T11:55:46.000Z</time>
      </trkpt>
      <trkpt lat="28.247666666666667" lon="-16.461116666666666">
        <ele>1349</ele>
        <time>2024-03-30T11:55:47.000Z</time>
      </trkpt>
      <trkpt lat="28.24765" lon="-16.461033333333333">
        <ele>1349</ele>
        <time>2024-03-30T11:55:48.000Z</time>
      </trkpt>
      <trkpt lat="28.247616666666666" lon="-16.460966666666668">
        <ele>1348</ele>
        <time>2024-03-30T11:55:49.000Z</time>
      </trkpt>
      <trkpt lat="28.247583333333335" lon="-16.4609">
        <ele>1348</ele>
        <time>2024-03-30T11:55:50.000Z</time>
      </trkpt>
      <trkpt lat="28.24755" lon="-16.460833333333333">
        <ele>1347</ele>
        <time>2024-03-30T11:55:51.000Z</time>
      </trkpt>
      <trkpt lat="28.247516666666666" lon="-16.460733333333334">
        <ele>1346</ele>
        <time>2024-03-30T11:55:52.000Z</time>
      </trkpt>
      <trkpt lat="28.2475" lon="-16.46065">
        <ele>1347</ele>
        <time>2024-03-30T11:55:53.000Z</time>
      </trkpt>
      <trkpt lat="28.247483333333335" lon="-16.460566666666665">
        <ele>1348</ele>
        <time>2024-03-30T11:55:54.000Z</time>
      </trkpt>
      <trkpt lat="28.247466666666668" lon="-16.4605">
        <ele>1349</ele>
        <time>2024-03-30T11:55:55.000Z</time>
      </trkpt>
      <trkpt lat="28.24745" lon="-16.46045">
        <ele>1350</ele>
        <time>2024-03-30T11:55:56.000Z</time>
      </trkpt>
      <trkpt lat="28.247416666666666" lon="-16.460383333333333">
        <ele>1350</ele>
        <time>2024-03-30T11:55:57.000Z</time>
      </trkpt>
      <trkpt lat="28.247366666666668" lon="-16.460333333333335">
        <ele>1349</ele>
        <time>2024-03-30T11:55:58.000Z</time>
      </trkpt>
      <trkpt lat="28.247316666666666" lon="-16.460283333333333">
        <ele>1350</ele>
        <time>2024-03-30T11:55:59.000Z</time>
      </trkpt>
      <trkpt lat="28.247283333333332" lon="-16.460216666666668">
        <ele>1352</ele>
        <time>2024-03-30T11:56:00.000Z</time>
      </trkpt>
      <trkpt lat="28.24725" lon="-16.46015">
        <ele>1354</ele>
        <time>2024-03-30T11:56:01.000Z</time>
      </trkpt>
      <trkpt lat="28.247216666666667" lon="-16.460083333333333">
        <ele>1356</ele>
        <time>2024-03-30T11:56:02.000Z</time>
      </trkpt>
      <trkpt lat="28.247183333333332" lon="-16.46003333333333">
        <ele>1358</ele>
        <time>2024-03-30T11:56:03.000Z</time>
      </trkpt>
      <trkpt lat="28.24715" lon="-16.459983333333334">
        <ele>1360</ele>
        <time>2024-03-30T11:56:04.000Z</time>
      </trkpt>
      <trkpt lat="28.247083333333332" lon="-16.459966666666666">
        <ele>1361</ele>
        <time>2024-03-30T11:56:05.000Z</time>
      </trkpt>
      <trkpt lat="28.247033333333334" lon="-16.459983333333334">
        <ele>1363</ele>
        <time>2024-03-30T11:56:06.000Z</time>
      </trkpt>
      <trkpt lat="28.246966666666665" lon="-16.460016666666668">
        <ele>1363</ele>
        <time>2024-03-30T11:56:07.000Z</time>
      </trkpt>
      <trkpt lat="28.246916666666667" lon="-16.4601">
        <ele>1363</ele>
        <time>2024-03-30T11:56:08.000Z</time>
      </trkpt>
      <trkpt lat="28.2469" lon="-16.460216666666668">
        <ele>1363</ele>
        <time>2024-03-30T11:56:09.000Z</time>
      </trkpt>
      <trkpt lat="28.2469" lon="-16.46035">
        <ele>1364</ele>
        <time>2024-03-30T11:56:10.000Z</time>
      </trkpt>
      <trkpt lat="28.246966666666665" lon="-16.460483333333332">
        <ele>1365</ele>
        <time>2024-03-30T11:56:11.000Z</time>
      </trkpt>
      <trkpt lat="28.247033333333334" lon="-16.460583333333332">
        <ele>1365</ele>
        <time>2024-03-30T11:56:12.000Z</time>
      </trkpt>
      <trkpt lat="28.247133333333334" lon="-16.460633333333334">
        <ele>1365</ele>
        <time>2024-03-30T11:56:13.000Z</time>
      </trkpt>
      <trkpt lat="28.24725" lon="-16.46065">
        <ele>1366</ele>
        <time>2024-03-30T11:56:14.000Z</time>
      </trkpt>
      <trkpt lat="28.247366666666668" lon="-16.460616666666667">
        <ele>1368</ele>
        <time>2024-03-30T11:56:15.000Z</time>
      </trkpt>
      <trkpt lat="28.24745" lon="-16.46055">
        <ele>1370</ele>
        <time>2024-03-30T11:56:16.000Z</time>
      </trkpt>
      <trkpt lat="28.247483333333335" lon="-16.460466666666665">
        <ele>1371</ele>
        <time>2024-03-30T11:56:17.000Z</time>
      </trkpt>
      <trkpt lat="28.247483333333335" lon="-16.460383333333333">
        <ele>1372</ele>
        <time>2024-03-30T11:56:18.000Z</time>
      </trkpt>
      <trkpt lat="28.24745" lon="-16.4603">
        <ele>1374</ele>
        <time>2024-03-30T11:56:19.000Z</time>
      </trkpt>
      <trkpt lat="28.24745" lon="-16.460233333333335">
        <ele>1376</ele>
        <time>2024-03-30T11:56:20.000Z</time>
      </trkpt>
      <trkpt lat="28.247433333333333" lon="-16.460166666666666">
        <ele>1378</ele>
        <time>2024-03-30T11:56:21.000Z</time>
      </trkpt>
      <trkpt lat="28.247416666666666" lon="-16.460116666666668">
        <ele>1379</ele>
        <time>2024-03-30T11:56:22.000Z</time>
      </trkpt>
      <trkpt lat="28.247366666666668" lon="-16.460083333333333">
        <ele>1380</ele>
        <time>2024-03-30T11:56:23.000Z</time>
      </trkpt>
      <trkpt lat="28.2473" lon="-16.460066666666666">
        <ele>1381</ele>
        <time>2024-03-30T11:56:24.000Z</time>
      </trkpt>
      <trkpt lat="28.247233333333334" lon="-16.460083333333333">
        <ele>1382</ele>
        <time>2024-03-30T11:56:25.000Z</time>
      </trkpt>
      <trkpt lat="28.247183333333332" lon="-16.460166666666666">
        <ele>1382</ele>
        <time>2024-03-30T11:56:26.000Z</time>
      </trkpt>
      <trkpt lat="28.24715" lon="-16.460283333333333">
        <ele>1381</ele>
        <time>2024-03-30T11:56:27.000Z</time>
      </trkpt>
      <trkpt lat="28.247166666666665" lon="-16.460416666666667">
        <ele>1382</ele>
        <time>2024-03-30T11:56:28.000Z</time>
      </trkpt>
      <trkpt lat="28.2472" lon="-16.460533333333334">
        <ele>1383</ele>
        <time>2024-03-30T11:56:29.000Z</time>
      </trkpt>
      <trkpt lat="28.24726666666667" lon="-16.460633333333334">
        <ele>1384</ele>
        <time>2024-03-30T11:56:30.000Z</time>
      </trkpt>
      <trkpt lat="28.24735" lon="-16.4607">
        <ele>1385</ele>
        <time>2024-03-30T11:56:31.000Z</time>
      </trkpt>
      <trkpt lat="28.247433333333333" lon="-16.46075">
        <ele>1384</ele>
        <time>2024-03-30T11:56:32.000Z</time>
      </trkpt>
      <trkpt lat="28.24755" lon="-16.460766666666668">
        <ele>1385</ele>
        <time>2024-03-30T11:56:33.000Z</time>
      </trkpt>
      <trkpt lat="28.247666666666667" lon="-16.460766666666668">
        <ele>1385</ele>
        <time>2024-03-30T11:56:34.000Z</time>
      </trkpt>
      <trkpt lat="28.247783333333334" lon="-16.46075">
        <ele>1386</ele>
        <time>2024-03-30T11:56:35.000Z</time>
      </trkpt>
      <trkpt lat="28.247866666666667" lon="-16.4607">
        <ele>1388</ele>
        <time>2024-03-30T11:56:36.000Z</time>
      </trkpt>
      <trkpt lat="28.247916666666665" lon="-16.460633333333334">
        <ele>1390</ele>
        <time>2024-03-30T11:56:37.000Z</time>
      </trkpt>
      <trkpt lat="28.24795" lon="-16.46055">
        <ele>1393</ele>
        <time>2024-03-30T11:56:38.000Z</time>
      </trkpt>
      <trkpt lat="28.24795" lon="-16.460483333333332">
        <ele>1396</ele>
        <time>2024-03-30T11:56:39.000Z</time>
      </trkpt>
      <trkpt lat="28.24795" lon="-16.460416666666667">
        <ele>1398</ele>
        <time>2024-03-30T11:56:40.000Z</time>
      </trkpt>
      <trkpt lat="28.247933333333332" lon="-16.46035">
        <ele>1400</ele>
        <time>2024-03-30T11:56:41.000Z</time>
      </trkpt>
      <trkpt lat="28.247916666666665" lon="-16.460283333333333">
        <ele>1401</ele>
        <time>2024-03-30T11:56:42.000Z</time>
      </trkpt>
      <trkpt lat="28.247916666666665" lon="-16.4602">
        <ele>1401</ele>
        <time>2024-03-30T11:56:43.000Z</time>
      </trkpt>
      <trkpt lat="28.2479" lon="-16.460116666666668">
        <ele>1401</ele>
        <time>2024-03-30T11:56:44.000Z</time>
      </trkpt>
      <trkpt lat="28.247883333333334" lon="-16.460016666666668">
        <ele>1401</ele>
        <time>2024-03-30T11:56:45.000Z</time>
      </trkpt>
      <trkpt lat="28.247866666666667" lon="-16.459933333333332">
        <ele>1401</ele>
        <time>2024-03-30T11:56:46.000Z</time>
      </trkpt>
      <trkpt lat="28.24785" lon="-16.459866666666667">
        <ele>1401</ele>
        <time>2024-03-30T11:56:47.000Z</time>
      </trkpt>
      <trkpt lat="28.247833333333332" lon="-16.4598">
        <ele>1399</ele>
        <time>2024-03-30T11:56:48.000Z</time>
      </trkpt>
      <trkpt lat="28.247816666666665" lon="-16.459716666666665">
        <ele>1397</ele>
        <time>2024-03-30T11:56:49.000Z</time>
      </trkpt>
      <trkpt lat="28.2478" lon="-16.459616666666665">
        <ele>1394</ele>
        <time>2024-03-30T11:56:50.000Z</time>
      </trkpt>
      <trkpt lat="28.247783333333334" lon="-16.459516666666666">
        <ele>1391</ele>
        <time>2024-03-30T11:56:51.000Z</time>
      </trkpt>
      <trkpt lat="28.24775" lon="-16.4594">
        <ele>1391</ele>
        <time>2024-03-30T11:56:52.000Z</time>
      </trkpt>
      <trkpt lat="28.247716666666665" lon="-16.45928333333333">
        <ele>1393</ele>
        <time>2024-03-30T11:56:53.000Z</time>
      </trkpt>
      <trkpt lat="28.247683333333335" lon="-16.4592">
        <ele>1395</ele>
        <time>2024-03-30T11:56:54.000Z</time>
      </trkpt>
      <trkpt lat="28.24765" lon="-16.45915">
        <ele>1396</ele>
        <time>2024-03-30T11:56:55.000Z</time>
      </trkpt>
      <trkpt lat="28.24765" lon="-16.459083333333332">
        <ele>1395</ele>
        <time>2024-03-30T11:56:56.000Z</time>
      </trkpt>
      <trkpt lat="28.24765" lon="-16.459">
        <ele>1393</ele>
        <time>2024-03-30T11:56:57.000Z</time>
      </trkpt>
      <trkpt lat="28.24765" lon="-16.458916666666667">
        <ele>1392</ele>
        <time>2024-03-30T11:56:58.000Z</time>
      </trkpt>
      <trkpt lat="28.24765" lon="-16.4588">
        <ele>1391</ele>
        <time>2024-03-30T11:56:59.000Z</time>
      </trkpt>
      <trkpt lat="28.24765" lon="-16.458716666666668">
        <ele>1391</ele>
        <time>2024-03-30T11:57:00.000Z</time>
      </trkpt>
      <trkpt lat="28.247666666666667" lon="-16.458616666666668">
        <ele>1392</ele>
        <time>2024-03-30T11:57:01.000Z</time>
      </trkpt>
      <trkpt lat="28.247666666666667" lon="-16.45853333333333">
        <ele>1392</ele>
        <time>2024-03-30T11:57:02.000Z</time>
      </trkpt>
      <trkpt lat="28.247666666666667" lon="-16.458433333333332">
        <ele>1391</ele>
        <time>2024-03-30T11:57:03.000Z</time>
      </trkpt>
      <trkpt lat="28.24765" lon="-16.45835">
        <ele>1391</ele>
        <time>2024-03-30T11:57:04.000Z</time>
      </trkpt>
      <trkpt lat="28.247616666666666" lon="-16.458283333333334">
        <ele>1390</ele>
        <time>2024-03-30T11:57:05.000Z</time>
      </trkpt>
      <trkpt lat="28.247616666666666" lon="-16.4582">
        <ele>1389</ele>
        <time>2024-03-30T11:57:06.000Z</time>
      </trkpt>
      <trkpt lat="28.247633333333333" lon="-16.458116666666665">
        <ele>1387</ele>
        <time>2024-03-30T11:57:07.000Z</time>
      </trkpt>
      <trkpt lat="28.247633333333333" lon="-16.458">
        <ele>1384</ele>
        <time>2024-03-30T11:57:08.000Z</time>
      </trkpt>
      <trkpt lat="28.247616666666666" lon="-16.457883333333335">
        <ele>1383</ele>
        <time>2024-03-30T11:57:09.000Z</time>
      </trkpt>
      <trkpt lat="28.24755" lon="-16.457816666666666">
        <ele>1383</ele>
        <time>2024-03-30T11:57:10.000Z</time>
      </trkpt>
      <trkpt lat="28.2475" lon="-16.457733333333334">
        <ele>1383</ele>
        <time>2024-03-30T11:57:11.000Z</time>
      </trkpt>
      <trkpt lat="28.24745" lon="-16.457633333333334">
        <ele>1383</ele>
        <time>2024-03-30T11:57:12.000Z</time>
      </trkpt>
      <trkpt lat="28.247433333333333" lon="-16.457533333333334">
        <ele>1383</ele>
        <time>2024-03-30T11:57:13.000Z</time>
      </trkpt>
      <trkpt lat="28.247416666666666" lon="-16.457433333333334">
        <ele>1384</ele>
        <time>2024-03-30T11:57:14.000Z</time>
      </trkpt>
      <trkpt lat="28.24738333333333" lon="-16.45735">
        <ele>1384</ele>
        <time>2024-03-30T11:57:15.000Z</time>
      </trkpt>
      <trkpt lat="28.247366666666668" lon="-16.457266666666666">
        <ele>1385</ele>
        <time>2024-03-30T11:57:16.000Z</time>
      </trkpt>
      <trkpt lat="28.247333333333334" lon="-16.457183333333333">
        <ele>1385</ele>
        <time>2024-03-30T11:57:17.000Z</time>
      </trkpt>
      <trkpt lat="28.247316666666666" lon="-16.457116666666668">
        <ele>1385</ele>
        <time>2024-03-30T11:57:18.000Z</time>
      </trkpt>
      <trkpt lat="28.2473" lon="-16.45703333333333">
        <ele>1384</ele>
        <time>2024-03-30T11:57:19.000Z</time>
      </trkpt>
      <trkpt lat="28.247283333333332" lon="-16.45695">
        <ele>1384</ele>
        <time>2024-03-30T11:57:20.000Z</time>
      </trkpt>
      <trkpt lat="28.24725" lon="-16.456866666666667">
        <ele>1383</ele>
        <time>2024-03-30T11:57:21.000Z</time>
      </trkpt>
      <trkpt lat="28.247233333333334" lon="-16.456766666666667">
        <ele>1381</ele>
        <time>2024-03-30T11:57:22.000Z</time>
      </trkpt>
      <trkpt lat="28.2472" lon="-16.456666666666667">
        <ele>1379</ele>
        <time>2024-03-30T11:57:23.000Z</time>
      </trkpt>
      <trkpt lat="28.24715" lon="-16.45655">
        <ele>1377</ele>
        <time>2024-03-30T11:57:24.000Z</time>
      </trkpt>
      <trkpt lat="28.247083333333332" lon="-16.456466666666667">
        <ele>1375</ele>
        <time>2024-03-30T11:57:25.000Z</time>
      </trkpt>
      <trkpt lat="28.247016666666667" lon="-16.4564">
        <ele>1374</ele>
        <time>2024-03-30T11:57:26.000Z</time>
      </trkpt>
      <trkpt lat="28.246966666666665" lon="-16.456333333333333">
        <ele>1373</ele>
        <time>2024-03-30T11:57:27.000Z</time>
      </trkpt>
      <trkpt lat="28.246916666666667" lon="-16.45625">
        <ele>1371</ele>
        <time>2024-03-30T11:57:28.000Z</time>
      </trkpt>
      <trkpt lat="28.246866666666666" lon="-16.456166666666668">
        <ele>1369</ele>
        <time>2024-03-30T11:57:29.000Z</time>
      </trkpt>
      <trkpt lat="28.246816666666668" lon="-16.456083333333332">
        <ele>1366</ele>
        <time>2024-03-30T11:57:30.000Z</time>
      </trkpt>
      <trkpt lat="28.246766666666666" lon="-16.455983333333332">
        <ele>1362</ele>
        <time>2024-03-30T11:57:31.000Z</time>
      </trkpt>
      <trkpt lat="28.2467" lon="-16.455866666666665">
        <ele>1360</ele>
        <time>2024-03-30T11:57:32.000Z</time>
      </trkpt>
      <trkpt lat="28.246666666666666" lon="-16.455766666666666">
        <ele>1360</ele>
        <time>2024-03-30T11:57:33.000Z</time>
      </trkpt>
      <trkpt lat="28.246616666666668" lon="-16.455666666666666">
        <ele>1360</ele>
        <time>2024-03-30T11:57:34.000Z</time>
      </trkpt>
      <trkpt lat="28.24655" lon="-16.455583333333333">
        <ele>1359</ele>
        <time>2024-03-30T11:57:35.000Z</time>
      </trkpt>
      <trkpt lat="28.246483333333334" lon="-16.455533333333335">
        <ele>1359</ele>
        <time>2024-03-30T11:57:36.000Z</time>
      </trkpt>
      <trkpt lat="28.246416666666665" lon="-16.455466666666666">
        <ele>1358</ele>
        <time>2024-03-30T11:57:37.000Z</time>
      </trkpt>
      <trkpt lat="28.24635" lon="-16.4554">
        <ele>1357</ele>
        <time>2024-03-30T11:57:38.000Z</time>
      </trkpt>
      <trkpt lat="28.2463" lon="-16.4553">
        <ele>1356</ele>
        <time>2024-03-30T11:57:39.000Z</time>
      </trkpt>
      <trkpt lat="28.246233333333333" lon="-16.455216666666665">
        <ele>1356</ele>
        <time>2024-03-30T11:57:40.000Z</time>
      </trkpt>
      <trkpt lat="28.246166666666667" lon="-16.455133333333333">
        <ele>1356</ele>
        <time>2024-03-30T11:57:41.000Z</time>
      </trkpt>
      <trkpt lat="28.246116666666666" lon="-16.45505">
        <ele>1358</ele>
        <time>2024-03-30T11:57:42.000Z</time>
      </trkpt>
      <trkpt lat="28.246083333333335" lon="-16.454983333333335">
        <ele>1358</ele>
        <time>2024-03-30T11:57:43.000Z</time>
      </trkpt>
      <trkpt lat="28.246033333333333" lon="-16.454883333333335">
        <ele>1357</ele>
        <time>2024-03-30T11:57:44.000Z</time>
      </trkpt>
      <trkpt lat="28.246" lon="-16.454766666666668">
        <ele>1356</ele>
        <time>2024-03-30T11:57:45.000Z</time>
      </trkpt>
      <trkpt lat="28.24595" lon="-16.45465">
        <ele>1357</ele>
        <time>2024-03-30T11:57:46.000Z</time>
      </trkpt>
      <trkpt lat="28.2459" lon="-16.45456666666667">
        <ele>1359</ele>
        <time>2024-03-30T11:57:47.000Z</time>
      </trkpt>
      <trkpt lat="28.24585" lon="-16.454483333333332">
        <ele>1361</ele>
        <time>2024-03-30T11:57:48.000Z</time>
      </trkpt>
      <trkpt lat="28.245816666666666" lon="-16.454416666666667">
        <ele>1361</ele>
        <time>2024-03-30T11:57:49.000Z</time>
      </trkpt>
      <trkpt lat="28.2458" lon="-16.454333333333334">
        <ele>1360</ele>
        <time>2024-03-30T11:57:50.000Z</time>
      </trkpt>
      <trkpt lat="28.24575" lon="-16.45425">
        <ele>1358</ele>
        <time>2024-03-30T11:57:51.000Z</time>
      </trkpt>
      <trkpt lat="28.245716666666667" lon="-16.45415">
        <ele>1357</ele>
        <time>2024-03-30T11:57:52.000Z</time>
      </trkpt>
      <trkpt lat="28.245666666666665" lon="-16.454066666666666">
        <ele>1356</ele>
        <time>2024-03-30T11:57:53.000Z</time>
      </trkpt>
      <trkpt lat="28.245616666666667" lon="-16.453966666666666">
        <ele>1356</ele>
        <time>2024-03-30T11:57:54.000Z</time>
      </trkpt>
      <trkpt lat="28.245583333333332" lon="-16.453866666666666">
        <ele>1357</ele>
        <time>2024-03-30T11:57:55.000Z</time>
      </trkpt>
      <trkpt lat="28.24555" lon="-16.453783333333334">
        <ele>1356</ele>
        <time>2024-03-30T11:57:56.000Z</time>
      </trkpt>
      <trkpt lat="28.245533333333334" lon="-16.453666666666667">
        <ele>1355</ele>
        <time>2024-03-30T11:57:57.000Z</time>
      </trkpt>
      <trkpt lat="28.2455" lon="-16.453566666666667">
        <ele>1353</ele>
        <time>2024-03-30T11:57:58.000Z</time>
      </trkpt>
      <trkpt lat="28.245466666666665" lon="-16.45345">
        <ele>1351</ele>
        <time>2024-03-30T11:57:59.000Z</time>
      </trkpt>
      <trkpt lat="28.245433333333335" lon="-16.45335">
        <ele>1348</ele>
        <time>2024-03-30T11:58:00.000Z</time>
      </trkpt>
      <trkpt lat="28.245383333333333" lon="-16.45325">
        <ele>1347</ele>
        <time>2024-03-30T11:58:01.000Z</time>
      </trkpt>
      <trkpt lat="28.245333333333335" lon="-16.45315">
        <ele>1345</ele>
        <time>2024-03-30T11:58:02.000Z</time>
      </trkpt>
      <trkpt lat="28.245283333333333" lon="-16.453033333333334">
        <ele>1344</ele>
        <time>2024-03-30T11:58:03.000Z</time>
      </trkpt>
      <trkpt lat="28.24525" lon="-16.452933333333334">
        <ele>1342</ele>
        <time>2024-03-30T11:58:04.000Z</time>
      </trkpt>
      <trkpt lat="28.2452" lon="-16.452833333333334">
        <ele>1341</ele>
        <time>2024-03-30T11:58:05.000Z</time>
      </trkpt>
      <trkpt lat="28.24513333333333" lon="-16.45275">
        <ele>1340</ele>
        <time>2024-03-30T11:58:06.000Z</time>
      </trkpt>
      <trkpt lat="28.245083333333334" lon="-16.45265">
        <ele>1339</ele>
        <time>2024-03-30T11:58:07.000Z</time>
      </trkpt>
      <trkpt lat="28.24505" lon="-16.452566666666666">
        <ele>1337</ele>
        <time>2024-03-30T11:58:08.000Z</time>
      </trkpt>
      <trkpt lat="28.245" lon="-16.452466666666666">
        <ele>1336</ele>
        <time>2024-03-30T11:58:09.000Z</time>
      </trkpt>
      <trkpt lat="28.24495" lon="-16.452383333333334">
        <ele>1335</ele>
        <time>2024-03-30T11:58:10.000Z</time>
      </trkpt>
      <trkpt lat="28.2449" lon="-16.4523">
        <ele>1333</ele>
        <time>2024-03-30T11:58:11.000Z</time>
      </trkpt>
      <trkpt lat="28.24485" lon="-16.452183333333334">
        <ele>1332</ele>
        <time>2024-03-30T11:58:12.000Z</time>
      </trkpt>
      <trkpt lat="28.244816666666665" lon="-16.452083333333334">
        <ele>1331</ele>
        <time>2024-03-30T11:58:13.000Z</time>
      </trkpt>
      <trkpt lat="28.244766666666667" lon="-16.451983333333335">
        <ele>1331</ele>
        <time>2024-03-30T11:58:14.000Z</time>
      </trkpt>
      <trkpt lat="28.244716666666665" lon="-16.451883333333335">
        <ele>1331</ele>
        <time>2024-03-30T11:58:15.000Z</time>
      </trkpt>
      <trkpt lat="28.244666666666667" lon="-16.4518">
        <ele>1331</ele>
        <time>2024-03-30T11:58:16.000Z</time>
      </trkpt>
      <trkpt lat="28.244633333333333" lon="-16.4517">
        <ele>1329</ele>
        <time>2024-03-30T11:58:17.000Z</time>
      </trkpt>
      <trkpt lat="28.244583333333335" lon="-16.4516">
        <ele>1328</ele>
        <time>2024-03-30T11:58:18.000Z</time>
      </trkpt>
      <trkpt lat="28.244533333333333" lon="-16.4515">
        <ele>1328</ele>
        <time>2024-03-30T11:58:19.000Z</time>
      </trkpt>
      <trkpt lat="28.244483333333335" lon="-16.451383333333332">
        <ele>1327</ele>
        <time>2024-03-30T11:58:20.000Z</time>
      </trkpt>
      <trkpt lat="28.244433333333333" lon="-16.451283333333333">
        <ele>1325</ele>
        <time>2024-03-30T11:58:21.000Z</time>
      </trkpt>
      <trkpt lat="28.24438333333333" lon="-16.451166666666666">
        <ele>1325</ele>
        <time>2024-03-30T11:58:22.000Z</time>
      </trkpt>
      <trkpt lat="28.244333333333334" lon="-16.451066666666666">
        <ele>1324</ele>
        <time>2024-03-30T11:58:23.000Z</time>
      </trkpt>
      <trkpt lat="28.244283333333332" lon="-16.450966666666666">
        <ele>1323</ele>
        <time>2024-03-30T11:58:24.000Z</time>
      </trkpt>
      <trkpt lat="28.244233333333334" lon="-16.45085">
        <ele>1321</ele>
        <time>2024-03-30T11:58:25.000Z</time>
      </trkpt>
      <trkpt lat="28.24416666666667" lon="-16.45075">
        <ele>1319</ele>
        <time>2024-03-30T11:58:26.000Z</time>
      </trkpt>
      <trkpt lat="28.244116666666667" lon="-16.450633333333332">
        <ele>1318</ele>
        <time>2024-03-30T11:58:27.000Z</time>
      </trkpt>
      <trkpt lat="28.244066666666665" lon="-16.4505">
        <ele>1318</ele>
        <time>2024-03-30T11:58:28.000Z</time>
      </trkpt>
      <trkpt lat="28.244033333333334" lon="-16.450383333333335">
        <ele>1318</ele>
        <time>2024-03-30T11:58:29.000Z</time>
      </trkpt>
      <trkpt lat="28.244" lon="-16.450266666666668">
        <ele>1317</ele>
        <time>2024-03-30T11:58:30.000Z</time>
      </trkpt>
      <trkpt lat="28.243983333333333" lon="-16.45015">
        <ele>1316</ele>
        <time>2024-03-30T11:58:31.000Z</time>
      </trkpt>
      <trkpt lat="28.24395" lon="-16.450033333333334">
        <ele>1314</ele>
        <time>2024-03-30T11:58:32.000Z</time>
      </trkpt>
      <trkpt lat="28.243916666666667" lon="-16.449933333333334">
        <ele>1311</ele>
        <time>2024-03-30T11:58:33.000Z</time>
      </trkpt>
      <trkpt lat="28.243866666666666" lon="-16.449816666666667">
        <ele>1309</ele>
        <time>2024-03-30T11:58:34.000Z</time>
      </trkpt>
      <trkpt lat="28.243816666666667" lon="-16.4497">
        <ele>1306</ele>
        <time>2024-03-30T11:58:35.000Z</time>
      </trkpt>
      <trkpt lat="28.243766666666666" lon="-16.449583333333333">
        <ele>1304</ele>
        <time>2024-03-30T11:58:36.000Z</time>
      </trkpt>
      <trkpt lat="28.243733333333335" lon="-16.44945">
        <ele>1303</ele>
        <time>2024-03-30T11:58:37.000Z</time>
      </trkpt>
      <trkpt lat="28.2437" lon="-16.449333333333332">
        <ele>1301</ele>
        <time>2024-03-30T11:58:38.000Z</time>
      </trkpt>
      <trkpt lat="28.243666666666666" lon="-16.4492">
        <ele>1299</ele>
        <time>2024-03-30T11:58:39.000Z</time>
      </trkpt>
      <trkpt lat="28.243616666666668" lon="-16.449066666666667">
        <ele>1297</ele>
        <time>2024-03-30T11:58:40.000Z</time>
      </trkpt>
      <trkpt lat="28.24355" lon="-16.44895">
        <ele>1297</ele>
        <time>2024-03-30T11:58:41.000Z</time>
      </trkpt>
      <trkpt lat="28.2435" lon="-16.44885">
        <ele>1297</ele>
        <time>2024-03-30T11:58:42.000Z</time>
      </trkpt>
      <trkpt lat="28.24345" lon="-16.44875">
        <ele>1297</ele>
        <time>2024-03-30T11:58:43.000Z</time>
      </trkpt>
      <trkpt lat="28.24341666666667" lon="-16.44865">
        <ele>1296</ele>
        <time>2024-03-30T11:58:44.000Z</time>
      </trkpt>
      <trkpt lat="28.2434" lon="-16.44855">
        <ele>1294</ele>
        <time>2024-03-30T11:58:45.000Z</time>
      </trkpt>
      <trkpt lat="28.243366666666667" lon="-16.448433333333334">
        <ele>1290</ele>
        <time>2024-03-30T11:58:46.000Z</time>
      </trkpt>
      <trkpt lat="28.24335" lon="-16.4483">
        <ele>1286</ele>
        <time>2024-03-30T11:58:47.000Z</time>
      </trkpt>
      <trkpt lat="28.2433" lon="-16.448183333333333">
        <ele>1284</ele>
        <time>2024-03-30T11:58:48.000Z</time>
      </trkpt>
      <trkpt lat="28.243266666666667" lon="-16.44805">
        <ele>1284</ele>
        <time>2024-03-30T11:58:49.000Z</time>
      </trkpt>
      <trkpt lat="28.243233333333333" lon="-16.44795">
        <ele>1283</ele>
        <time>2024-03-30T11:58:50.000Z</time>
      </trkpt>
      <trkpt lat="28.2432" lon="-16.44783333333333">
        <ele>1282</ele>
        <time>2024-03-30T11:58:51.000Z</time>
      </trkpt>
      <trkpt lat="28.24315" lon="-16.447733333333332">
        <ele>1281</ele>
        <time>2024-03-30T11:58:52.000Z</time>
      </trkpt>
      <trkpt lat="28.2431" lon="-16.447616666666665">
        <ele>1279</ele>
        <time>2024-03-30T11:58:53.000Z</time>
      </trkpt>
      <trkpt lat="28.243083333333335" lon="-16.447483333333334">
        <ele>1279</ele>
        <time>2024-03-30T11:58:54.000Z</time>
      </trkpt>
      <trkpt lat="28.243083333333335" lon="-16.447366666666667">
        <ele>1279</ele>
        <time>2024-03-30T11:58:55.000Z</time>
      </trkpt>
      <trkpt lat="28.243083333333335" lon="-16.44725">
        <ele>1281</ele>
        <time>2024-03-30T11:58:56.000Z</time>
      </trkpt>
      <trkpt lat="28.243066666666667" lon="-16.447166666666668">
        <ele>1282</ele>
        <time>2024-03-30T11:58:57.000Z</time>
      </trkpt>
      <trkpt lat="28.243016666666666" lon="-16.4471">
        <ele>1282</ele>
        <time>2024-03-30T11:58:58.000Z</time>
      </trkpt>
      <trkpt lat="28.242966666666668" lon="-16.447016666666666">
        <ele>1280</ele>
        <time>2024-03-30T11:58:59.000Z</time>
      </trkpt>
      <trkpt lat="28.242933333333333" lon="-16.446916666666667">
        <ele>1278</ele>
        <time>2024-03-30T11:59:00.000Z</time>
      </trkpt>
      <trkpt lat="28.242933333333333" lon="-16.446816666666667">
        <ele>1277</ele>
        <time>2024-03-30T11:59:01.000Z</time>
      </trkpt>
      <trkpt lat="28.242933333333333" lon="-16.4467">
        <ele>1277</ele>
        <time>2024-03-30T11:59:02.000Z</time>
      </trkpt>
      <trkpt lat="28.242916666666666" lon="-16.446616666666667">
        <ele>1277</ele>
        <time>2024-03-30T11:59:03.000Z</time>
      </trkpt>
      <trkpt lat="28.242866666666668" lon="-16.446533333333335">
        <ele>1277</ele>
        <time>2024-03-30T11:59:04.000Z</time>
      </trkpt>
      <trkpt lat="28.242816666666666" lon="-16.446466666666666">
        <ele>1275</ele>
        <time>2024-03-30T11:59:05.000Z</time>
      </trkpt>
      <trkpt lat="28.242783333333332" lon="-16.4464">
        <ele>1274</ele>
        <time>2024-03-30T11:59:06.000Z</time>
      </trkpt>
      <trkpt lat="28.24275" lon="-16.446316666666668">
        <ele>1272</ele>
        <time>2024-03-30T11:59:07.000Z</time>
      </trkpt>
      <trkpt lat="28.242733333333334" lon="-16.44621666666667">
        <ele>1269</ele>
        <time>2024-03-30T11:59:08.000Z</time>
      </trkpt>
      <trkpt lat="28.242733333333334" lon="-16.4461">
        <ele>1266</ele>
        <time>2024-03-30T11:59:09.000Z</time>
      </trkpt>
      <trkpt lat="28.242716666666666" lon="-16.445983333333334">
        <ele>1264</ele>
        <time>2024-03-30T11:59:10.000Z</time>
      </trkpt>
      <trkpt lat="28.242683333333332" lon="-16.445883333333335">
        <ele>1262</ele>
        <time>2024-03-30T11:59:11.000Z</time>
      </trkpt>
      <trkpt lat="28.24265" lon="-16.445783333333335">
        <ele>1261</ele>
        <time>2024-03-30T11:59:12.000Z</time>
      </trkpt>
      <trkpt lat="28.242616666666667" lon="-16.445683333333335">
        <ele>1259</ele>
        <time>2024-03-30T11:59:13.000Z</time>
      </trkpt>
      <trkpt lat="28.2426" lon="-16.44558333333333">
        <ele>1258</ele>
        <time>2024-03-30T11:59:14.000Z</time>
      </trkpt>
      <trkpt lat="28.242566666666665" lon="-16.445483333333332">
        <ele>1256</ele>
        <time>2024-03-30T11:59:15.000Z</time>
      </trkpt>
      <trkpt lat="28.242533333333334" lon="-16.445383333333332">
        <ele>1254</ele>
        <time>2024-03-30T11:59:16.000Z</time>
      </trkpt>
      <trkpt lat="28.2425" lon="-16.445283333333332">
        <ele>1253</ele>
        <time>2024-03-30T11:59:17.000Z</time>
      </trkpt>
      <trkpt lat="28.242433333333334" lon="-16.4452">
        <ele>1252</ele>
        <time>2024-03-30T11:59:18.000Z</time>
      </trkpt>
      <trkpt lat="28.242383333333333" lon="-16.4451">
        <ele>1252</ele>
        <time>2024-03-30T11:59:19.000Z</time>
      </trkpt>
      <trkpt lat="28.242316666666667" lon="-16.445">
        <ele>1251</ele>
        <time>2024-03-30T11:59:20.000Z</time>
      </trkpt>
      <trkpt lat="28.242266666666666" lon="-16.4449">
        <ele>1251</ele>
        <time>2024-03-30T11:59:21.000Z</time>
      </trkpt>
      <trkpt lat="28.242233333333335" lon="-16.444816666666668">
        <ele>1251</ele>
        <time>2024-03-30T11:59:22.000Z</time>
      </trkpt>
      <trkpt lat="28.2422" lon="-16.444716666666668">
        <ele>1250</ele>
        <time>2024-03-30T11:59:23.000Z</time>
      </trkpt>
      <trkpt lat="28.242166666666666" lon="-16.44461666666667">
        <ele>1249</ele>
        <time>2024-03-30T11:59:24.000Z</time>
      </trkpt>
      <trkpt lat="28.24215" lon="-16.4445">
        <ele>1247</ele>
        <time>2024-03-30T11:59:25.000Z</time>
      </trkpt>
      <trkpt lat="28.24215" lon="-16.444383333333334">
        <ele>1247</ele>
        <time>2024-03-30T11:59:26.000Z</time>
      </trkpt>
      <trkpt lat="28.242133333333335" lon="-16.444266666666667">
        <ele>1246</ele>
        <time>2024-03-30T11:59:27.000Z</time>
      </trkpt>
      <trkpt lat="28.242116666666668" lon="-16.444166666666668">
        <ele>1246</ele>
        <time>2024-03-30T11:59:28.000Z</time>
      </trkpt>
      <trkpt lat="28.242116666666668" lon="-16.444066666666668">
        <ele>1246</ele>
        <time>2024-03-30T11:59:29.000Z</time>
      </trkpt>
      <trkpt lat="28.242133333333335" lon="-16.443966666666668">
        <ele>1245</ele>
        <time>2024-03-30T11:59:30.000Z</time>
      </trkpt>
      <trkpt lat="28.242133333333335" lon="-16.44386666666667">
        <ele>1245</ele>
        <time>2024-03-30T11:59:31.000Z</time>
      </trkpt>
      <trkpt lat="28.242133333333335" lon="-16.44375">
        <ele>1244</ele>
        <time>2024-03-30T11:59:32.000Z</time>
      </trkpt>
      <trkpt lat="28.242116666666668" lon="-16.44365">
        <ele>1245</ele>
        <time>2024-03-30T11:59:33.000Z</time>
      </trkpt>
      <trkpt lat="28.242116666666668" lon="-16.443533333333335">
        <ele>1246</ele>
        <time>2024-03-30T11:59:34.000Z</time>
      </trkpt>
      <trkpt lat="28.242116666666668" lon="-16.44345">
        <ele>1247</ele>
        <time>2024-03-30T11:59:35.000Z</time>
      </trkpt>
      <trkpt lat="28.242116666666668" lon="-16.44335">
        <ele>1247</ele>
        <time>2024-03-30T11:59:36.000Z</time>
      </trkpt>
      <trkpt lat="28.242116666666668" lon="-16.44325">
        <ele>1247</ele>
        <time>2024-03-30T11:59:37.000Z</time>
      </trkpt>
      <trkpt lat="28.242133333333335" lon="-16.44315">
        <ele>1246</ele>
        <time>2024-03-30T11:59:38.000Z</time>
      </trkpt>
      <trkpt lat="28.242133333333335" lon="-16.443016666666665">
        <ele>1246</ele>
        <time>2024-03-30T11:59:39.000Z</time>
      </trkpt>
      <trkpt lat="28.242116666666668" lon="-16.4429">
        <ele>1246</ele>
        <time>2024-03-30T11:59:40.000Z</time>
      </trkpt>
      <trkpt lat="28.2421" lon="-16.4428">
        <ele>1247</ele>
        <time>2024-03-30T11:59:41.000Z</time>
      </trkpt>
      <trkpt lat="28.24205" lon="-16.4427">
        <ele>1248</ele>
        <time>2024-03-30T11:59:42.000Z</time>
      </trkpt>
      <trkpt lat="28.242016666666668" lon="-16.4426">
        <ele>1248</ele>
        <time>2024-03-30T11:59:43.000Z</time>
      </trkpt>
      <trkpt lat="28.241983333333334" lon="-16.442516666666666">
        <ele>1247</ele>
        <time>2024-03-30T11:59:44.000Z</time>
      </trkpt>
      <trkpt lat="28.241966666666666" lon="-16.442416666666666">
        <ele>1246</ele>
        <time>2024-03-30T11:59:45.000Z</time>
      </trkpt>
      <trkpt lat="28.241933333333332" lon="-16.442316666666667">
        <ele>1244</ele>
        <time>2024-03-30T11:59:46.000Z</time>
      </trkpt>
      <trkpt lat="28.2419" lon="-16.442216666666667">
        <ele>1240</ele>
        <time>2024-03-30T11:59:47.000Z</time>
      </trkpt>
      <trkpt lat="28.241866666666667" lon="-16.4421">
        <ele>1237</ele>
        <time>2024-03-30T11:59:48.000Z</time>
      </trkpt>
      <trkpt lat="28.241833333333332" lon="-16.442">
        <ele>1233</ele>
        <time>2024-03-30T11:59:49.000Z</time>
      </trkpt>
      <trkpt lat="28.241783333333334" lon="-16.441883333333333">
        <ele>1232</ele>
        <time>2024-03-30T11:59:50.000Z</time>
      </trkpt>
      <trkpt lat="28.241733333333332" lon="-16.441766666666666">
        <ele>1231</ele>
        <time>2024-03-30T11:59:51.000Z</time>
      </trkpt>
      <trkpt lat="28.2417" lon="-16.441666666666666">
        <ele>1230</ele>
        <time>2024-03-30T11:59:52.000Z</time>
      </trkpt>
      <trkpt lat="28.241666666666667" lon="-16.441566666666667">
        <ele>1228</ele>
        <time>2024-03-30T11:59:53.000Z</time>
      </trkpt>
      <trkpt lat="28.24165" lon="-16.44145">
        <ele>1226</ele>
        <time>2024-03-30T11:59:54.000Z</time>
      </trkpt>
      <trkpt lat="28.241616666666665" lon="-16.44135">
        <ele>1225</ele>
        <time>2024-03-30T11:59:55.000Z</time>
      </trkpt>
      <trkpt lat="28.2416" lon="-16.44125">
        <ele>1224</ele>
        <time>2024-03-30T11:59:56.000Z</time>
      </trkpt>
      <trkpt lat="28.241566666666667" lon="-16.44115">
        <ele>1222</ele>
        <time>2024-03-30T11:59:57.000Z</time>
      </trkpt>
      <trkpt lat="28.241533333333333" lon="-16.44105">
        <ele>1221</ele>
        <time>2024-03-30T11:59:58.000Z</time>
      </trkpt>
      <trkpt lat="28.241516666666666" lon="-16.440933333333334">
        <ele>1221</ele>
        <time>2024-03-30T11:59:59.000Z</time>
      </trkpt>
      <trkpt lat="28.2415" lon="-16.44085">
        <ele>1220</ele>
        <time>2024-03-30T12:00:00.000Z</time>
      </trkpt>
      <trkpt lat="28.241466666666668" lon="-16.440766666666665">
        <ele>1219</ele>
        <time>2024-03-30T12:00:01.000Z</time>
      </trkpt>
      <trkpt lat="28.241416666666666" lon="-16.440716666666667">
        <ele>1218</ele>
        <time>2024-03-30T12:00:02.000Z</time>
      </trkpt>
      <trkpt lat="28.241333333333333" lon="-16.440666666666665">
        <ele>1216</ele>
        <time>2024-03-30T12:00:03.000Z</time>
      </trkpt>
      <trkpt lat="28.241233333333334" lon="-16.440633333333334">
        <ele>1216</ele>
        <time>2024-03-30T12:00:04.000Z</time>
      </trkpt>
      <trkpt lat="28.24115" lon="-16.440583333333333">
        <ele>1215</ele>
        <time>2024-03-30T12:00:05.000Z</time>
      </trkpt>
      <trkpt lat="28.241083333333332" lon="-16.440533333333335">
        <ele>1214</ele>
        <time>2024-03-30T12:00:06.000Z</time>
      </trkpt>
      <trkpt lat="28.241033333333334" lon="-16.44045">
        <ele>1212</ele>
        <time>2024-03-30T12:00:07.000Z</time>
      </trkpt>
      <trkpt lat="28.241033333333334" lon="-16.440333333333335">
        <ele>1208</ele>
        <time>2024-03-30T12:00:08.000Z</time>
      </trkpt>
      <trkpt lat="28.241066666666665" lon="-16.440216666666668">
        <ele>1205</ele>
        <time>2024-03-30T12:00:09.000Z</time>
      </trkpt>
      <trkpt lat="28.241133333333334" lon="-16.440133333333332">
        <ele>1203</ele>
        <time>2024-03-30T12:00:10.000Z</time>
      </trkpt>
      <trkpt lat="28.2412" lon="-16.44005">
        <ele>1203</ele>
        <time>2024-03-30T12:00:11.000Z</time>
      </trkpt>
      <trkpt lat="28.24125" lon="-16.439983333333334">
        <ele>1202</ele>
        <time>2024-03-30T12:00:12.000Z</time>
      </trkpt>
      <trkpt lat="28.2413" lon="-16.439916666666665">
        <ele>1201</ele>
        <time>2024-03-30T12:00:13.000Z</time>
      </trkpt>
      <trkpt lat="28.241333333333333" lon="-16.43985">
        <ele>1198</ele>
        <time>2024-03-30T12:00:14.000Z</time>
      </trkpt>
      <trkpt lat="28.2414" lon="-16.4398">
        <ele>1193</ele>
        <time>2024-03-30T12:00:15.000Z</time>
      </trkpt>
      <trkpt lat="28.2415" lon="-16.439733333333333">
        <ele>1189</ele>
        <time>2024-03-30T12:00:16.000Z</time>
      </trkpt>
      <trkpt lat="28.2416" lon="-16.439683333333335">
        <ele>1188</ele>
        <time>2024-03-30T12:00:17.000Z</time>
      </trkpt>
      <trkpt lat="28.241683333333334" lon="-16.439616666666666">
        <ele>1189</ele>
        <time>2024-03-30T12:00:18.000Z</time>
      </trkpt>
      <trkpt lat="28.24175" lon="-16.439566666666668">
        <ele>1190</ele>
        <time>2024-03-30T12:00:19.000Z</time>
      </trkpt>
      <trkpt lat="28.241816666666665" lon="-16.439533333333333">
        <ele>1189</ele>
        <time>2024-03-30T12:00:20.000Z</time>
      </trkpt>
      <trkpt lat="28.241883333333334" lon="-16.439516666666666">
        <ele>1186</ele>
        <time>2024-03-30T12:00:21.000Z</time>
      </trkpt>
      <trkpt lat="28.241966666666666" lon="-16.4395">
        <ele>1182</ele>
        <time>2024-03-30T12:00:22.000Z</time>
      </trkpt>
      <trkpt lat="28.242066666666666" lon="-16.43945">
        <ele>1179</ele>
        <time>2024-03-30T12:00:23.000Z</time>
      </trkpt>
      <trkpt lat="28.242166666666666" lon="-16.439383333333332">
        <ele>1176</ele>
        <time>2024-03-30T12:00:24.000Z</time>
      </trkpt>
      <trkpt lat="28.24225" lon="-16.439333333333334">
        <ele>1176</ele>
        <time>2024-03-30T12:00:25.000Z</time>
      </trkpt>
      <trkpt lat="28.24235" lon="-16.439283333333332">
        <ele>1176</ele>
        <time>2024-03-30T12:00:26.000Z</time>
      </trkpt>
      <trkpt lat="28.242433333333334" lon="-16.439233333333334">
        <ele>1176</ele>
        <time>2024-03-30T12:00:27.000Z</time>
      </trkpt>
      <trkpt lat="28.242516666666667" lon="-16.4392">
        <ele>1174</ele>
        <time>2024-03-30T12:00:28.000Z</time>
      </trkpt>
      <trkpt lat="28.242583333333332" lon="-16.43915">
        <ele>1173</ele>
        <time>2024-03-30T12:00:29.000Z</time>
      </trkpt>
      <trkpt lat="28.24266666666667" lon="-16.4391">
        <ele>1171</ele>
        <time>2024-03-30T12:00:30.000Z</time>
      </trkpt>
      <trkpt lat="28.24275" lon="-16.43905">
        <ele>1169</ele>
        <time>2024-03-30T12:00:31.000Z</time>
      </trkpt>
      <trkpt lat="28.24285" lon="-16.439016666666667">
        <ele>1167</ele>
        <time>2024-03-30T12:00:32.000Z</time>
      </trkpt>
      <trkpt lat="28.242933333333333" lon="-16.438983333333333">
        <ele>1165</ele>
        <time>2024-03-30T12:00:33.000Z</time>
      </trkpt>
      <trkpt lat="28.243033333333333" lon="-16.438933333333335">
        <ele>1164</ele>
        <time>2024-03-30T12:00:34.000Z</time>
      </trkpt>
      <trkpt lat="28.243116666666666" lon="-16.438866666666666">
        <ele>1162</ele>
        <time>2024-03-30T12:00:35.000Z</time>
      </trkpt>
      <trkpt lat="28.2432" lon="-16.4388">
        <ele>1161</ele>
        <time>2024-03-30T12:00:36.000Z</time>
      </trkpt>
      <trkpt lat="28.243283333333334" lon="-16.43873333333333">
        <ele>1160</ele>
        <time>2024-03-30T12:00:37.000Z</time>
      </trkpt>
      <trkpt lat="28.243383333333334" lon="-16.438683333333334">
        <ele>1159</ele>
        <time>2024-03-30T12:00:38.000Z</time>
      </trkpt>
      <trkpt lat="28.243466666666666" lon="-16.43865">
        <ele>1157</ele>
        <time>2024-03-30T12:00:39.000Z</time>
      </trkpt>
      <trkpt lat="28.243566666666666" lon="-16.4386">
        <ele>1155</ele>
        <time>2024-03-30T12:00:40.000Z</time>
      </trkpt>
      <trkpt lat="28.24365" lon="-16.43855">
        <ele>1153</ele>
        <time>2024-03-30T12:00:41.000Z</time>
      </trkpt>
      <trkpt lat="28.243733333333335" lon="-16.438483333333334">
        <ele>1152</ele>
        <time>2024-03-30T12:00:42.000Z</time>
      </trkpt>
      <trkpt lat="28.2438" lon="-16.438416666666665">
        <ele>1151</ele>
        <time>2024-03-30T12:00:43.000Z</time>
      </trkpt>
      <trkpt lat="28.243866666666666" lon="-16.438366666666667">
        <ele>1150</ele>
        <time>2024-03-30T12:00:44.000Z</time>
      </trkpt>
      <trkpt lat="28.243933333333334" lon="-16.438316666666665">
        <ele>1150</ele>
        <time>2024-03-30T12:00:45.000Z</time>
      </trkpt>
      <trkpt lat="28.244" lon="-16.438283333333334">
        <ele>1149</ele>
        <time>2024-03-30T12:00:46.000Z</time>
      </trkpt>
      <trkpt lat="28.244066666666665" lon="-16.43825">
        <ele>1148</ele>
        <time>2024-03-30T12:00:47.000Z</time>
      </trkpt>
      <trkpt lat="28.24415" lon="-16.438216666666666">
        <ele>1147</ele>
        <time>2024-03-30T12:00:48.000Z</time>
      </trkpt>
      <trkpt lat="28.244216666666667" lon="-16.438183333333335">
        <ele>1146</ele>
        <time>2024-03-30T12:00:49.000Z</time>
      </trkpt>
      <trkpt lat="28.2443" lon="-16.43815">
        <ele>1145</ele>
        <time>2024-03-30T12:00:50.000Z</time>
      </trkpt>
      <trkpt lat="28.244366666666668" lon="-16.4381">
        <ele>1143</ele>
        <time>2024-03-30T12:00:51.000Z</time>
      </trkpt>
      <trkpt lat="28.244433333333333" lon="-16.43805">
        <ele>1142</ele>
        <time>2024-03-30T12:00:52.000Z</time>
      </trkpt>
      <trkpt lat="28.244516666666666" lon="-16.438">
        <ele>1141</ele>
        <time>2024-03-30T12:00:53.000Z</time>
      </trkpt>
      <trkpt lat="28.2446" lon="-16.43798333333333">
        <ele>1140</ele>
        <time>2024-03-30T12:00:54.000Z</time>
      </trkpt>
      <trkpt lat="28.244683333333334" lon="-16.43795">
        <ele>1138</ele>
        <time>2024-03-30T12:00:55.000Z</time>
      </trkpt>
      <trkpt lat="28.244783333333334" lon="-16.437916666666666">
        <ele>1137</ele>
        <time>2024-03-30T12:00:56.000Z</time>
      </trkpt>
      <trkpt lat="28.244866666666667" lon="-16.43785">
        <ele>1137</ele>
        <time>2024-03-30T12:00:57.000Z</time>
      </trkpt>
      <trkpt lat="28.24495" lon="-16.4378">
        <ele>1138</ele>
        <time>2024-03-30T12:00:58.000Z</time>
      </trkpt>
      <trkpt lat="28.245033333333332" lon="-16.43775">
        <ele>1139</ele>
        <time>2024-03-30T12:00:59.000Z</time>
      </trkpt>
      <trkpt lat="28.2451" lon="-16.4377">
        <ele>1139</ele>
        <time>2024-03-30T12:01:00.000Z</time>
      </trkpt>
      <trkpt lat="28.245183333333333" lon="-16.437683333333332">
        <ele>1139</ele>
        <time>2024-03-30T12:01:01.000Z</time>
      </trkpt>
      <trkpt lat="28.245266666666666" lon="-16.43765">
        <ele>1138</ele>
        <time>2024-03-30T12:01:02.000Z</time>
      </trkpt>
      <trkpt lat="28.245366666666666" lon="-16.4376">
        <ele>1136</ele>
        <time>2024-03-30T12:01:03.000Z</time>
      </trkpt>
      <trkpt lat="28.245466666666665" lon="-16.437533333333334">
        <ele>1135</ele>
        <time>2024-03-30T12:01:04.000Z</time>
      </trkpt>
      <trkpt lat="28.245566666666665" lon="-16.437466666666666">
        <ele>1135</ele>
        <time>2024-03-30T12:01:05.000Z</time>
      </trkpt>
      <trkpt lat="28.245666666666665" lon="-16.4374">
        <ele>1137</ele>
        <time>2024-03-30T12:01:06.000Z</time>
      </trkpt>
      <trkpt lat="28.24576666666667" lon="-16.43735">
        <ele>1139</ele>
        <time>2024-03-30T12:01:07.000Z</time>
      </trkpt>
      <trkpt lat="28.24585" lon="-16.437316666666668">
        <ele>1140</ele>
        <time>2024-03-30T12:01:08.000Z</time>
      </trkpt>
      <trkpt lat="28.245933333333333" lon="-16.437283333333333">
        <ele>1141</ele>
        <time>2024-03-30T12:01:09.000Z</time>
      </trkpt>
      <trkpt lat="28.246" lon="-16.437266666666666">
        <ele>1141</ele>
        <time>2024-03-30T12:01:10.000Z</time>
      </trkpt>
      <trkpt lat="28.246083333333335" lon="-16.437216666666668">
        <ele>1139</ele>
        <time>2024-03-30T12:01:11.000Z</time>
      </trkpt>
      <trkpt lat="28.246183333333335" lon="-16.437166666666666">
        <ele>1136</ele>
        <time>2024-03-30T12:01:12.000Z</time>
      </trkpt>
      <trkpt lat="28.246283333333334" lon="-16.4371">
        <ele>1134</ele>
        <time>2024-03-30T12:01:13.000Z</time>
      </trkpt>
      <trkpt lat="28.2464" lon="-16.437033333333332">
        <ele>1132</ele>
        <time>2024-03-30T12:01:14.000Z</time>
      </trkpt>
      <trkpt lat="28.2465" lon="-16.436966666666667">
        <ele>1132</ele>
        <time>2024-03-30T12:01:15.000Z</time>
      </trkpt>
      <trkpt lat="28.246616666666668" lon="-16.436916666666665">
        <ele>1132</ele>
        <time>2024-03-30T12:01:16.000Z</time>
      </trkpt>
      <trkpt lat="28.2467" lon="-16.436883333333334">
        <ele>1132</ele>
        <time>2024-03-30T12:01:17.000Z</time>
      </trkpt>
      <trkpt lat="28.2468" lon="-16.436833333333333">
        <ele>1132</ele>
        <time>2024-03-30T12:01:18.000Z</time>
      </trkpt>
      <trkpt lat="28.246883333333333" lon="-16.436783333333334">
        <ele>1131</ele>
        <time>2024-03-30T12:01:19.000Z</time>
      </trkpt>
      <trkpt lat="28.246966666666665" lon="-16.436733333333333">
        <ele>1130</ele>
        <time>2024-03-30T12:01:20.000Z</time>
      </trkpt>
      <trkpt lat="28.24705" lon="-16.436683333333335">
        <ele>1128</ele>
        <time>2024-03-30T12:01:21.000Z</time>
      </trkpt>
      <trkpt lat="28.24715" lon="-16.436616666666666">
        <ele>1126</ele>
        <time>2024-03-30T12:01:22.000Z</time>
      </trkpt>
      <trkpt lat="28.24725" lon="-16.43655">
        <ele>1124</ele>
        <time>2024-03-30T12:01:23.000Z</time>
      </trkpt>
      <trkpt lat="28.247366666666668" lon="-16.436483333333335">
        <ele>1122</ele>
        <time>2024-03-30T12:01:24.000Z</time>
      </trkpt>
      <trkpt lat="28.247466666666668" lon="-16.436433333333333">
        <ele>1122</ele>
        <time>2024-03-30T12:01:25.000Z</time>
      </trkpt>
      <trkpt lat="28.247566666666668" lon="-16.4364">
        <ele>1122</ele>
        <time>2024-03-30T12:01:26.000Z</time>
      </trkpt>
      <trkpt lat="28.247666666666667" lon="-16.43635">
        <ele>1120</ele>
        <time>2024-03-30T12:01:27.000Z</time>
      </trkpt>
      <trkpt lat="28.247783333333334" lon="-16.4363">
        <ele>1118</ele>
        <time>2024-03-30T12:01:28.000Z</time>
      </trkpt>
      <trkpt lat="28.247883333333334" lon="-16.436233333333334">
        <ele>1116</ele>
        <time>2024-03-30T12:01:29.000Z</time>
      </trkpt>
      <trkpt lat="28.248" lon="-16.436166666666665">
        <ele>1115</ele>
        <time>2024-03-30T12:01:30.000Z</time>
      </trkpt>
      <trkpt lat="28.248116666666668" lon="-16.436083333333332">
        <ele>1116</ele>
        <time>2024-03-30T12:01:31.000Z</time>
      </trkpt>
      <trkpt lat="28.2482" lon="-16.436016666666667">
        <ele>1117</ele>
        <time>2024-03-30T12:01:32.000Z</time>
      </trkpt>
      <trkpt lat="28.248283333333333" lon="-16.43595">
        <ele>1117</ele>
        <time>2024-03-30T12:01:33.000Z</time>
      </trkpt>
      <trkpt lat="28.248383333333333" lon="-16.4359">
        <ele>1115</ele>
        <time>2024-03-30T12:01:34.000Z</time>
      </trkpt>
      <trkpt lat="28.248483333333333" lon="-16.435833333333335">
        <ele>1112</ele>
        <time>2024-03-30T12:01:35.000Z</time>
      </trkpt>
      <trkpt lat="28.248583333333332" lon="-16.43575">
        <ele>1108</ele>
        <time>2024-03-30T12:01:36.000Z</time>
      </trkpt>
      <trkpt lat="28.2487" lon="-16.435666666666666">
        <ele>1104</ele>
        <time>2024-03-30T12:01:37.000Z</time>
      </trkpt>
      <trkpt lat="28.2488" lon="-16.435566666666666">
        <ele>1102</ele>
        <time>2024-03-30T12:01:38.000Z</time>
      </trkpt>
      <trkpt lat="28.248933333333333" lon="-16.435483333333334">
        <ele>1102</ele>
        <time>2024-03-30T12:01:39.000Z</time>
      </trkpt>
      <trkpt lat="28.249033333333333" lon="-16.435416666666665">
        <ele>1102</ele>
        <time>2024-03-30T12:01:40.000Z</time>
      </trkpt>
      <trkpt lat="28.249133333333333" lon="-16.435366666666667">
        <ele>1101</ele>
        <time>2024-03-30T12:01:41.000Z</time>
      </trkpt>
      <trkpt lat="28.249216666666666" lon="-16.4353">
        <ele>1098</ele>
        <time>2024-03-30T12:01:42.000Z</time>
      </trkpt>
      <trkpt lat="28.249316666666665" lon="-16.43525">
        <ele>1094</ele>
        <time>2024-03-30T12:01:43.000Z</time>
      </trkpt>
      <trkpt lat="28.249433333333332" lon="-16.435166666666667">
        <ele>1090</ele>
        <time>2024-03-30T12:01:44.000Z</time>
      </trkpt>
      <trkpt lat="28.249533333333332" lon="-16.435066666666668">
        <ele>1088</ele>
        <time>2024-03-30T12:01:45.000Z</time>
      </trkpt>
      <trkpt lat="28.249616666666668" lon="-16.434983333333335">
        <ele>1087</ele>
        <time>2024-03-30T12:01:46.000Z</time>
      </trkpt>
      <trkpt lat="28.2497" lon="-16.4349">
        <ele>1087</ele>
        <time>2024-03-30T12:01:47.000Z</time>
      </trkpt>
      <trkpt lat="28.249783333333333" lon="-16.434833333333334">
        <ele>1086</ele>
        <time>2024-03-30T12:01:48.000Z</time>
      </trkpt>
      <trkpt lat="28.249883333333333" lon="-16.43476666666667">
        <ele>1084</ele>
        <time>2024-03-30T12:01:49.000Z</time>
      </trkpt>
      <trkpt lat="28.249983333333333" lon="-16.434716666666667">
        <ele>1082</ele>
        <time>2024-03-30T12:01:50.000Z</time>
      </trkpt>
      <trkpt lat="28.2501" lon="-16.434666666666665">
        <ele>1080</ele>
        <time>2024-03-30T12:01:51.000Z</time>
      </trkpt>
      <trkpt lat="28.250216666666667" lon="-16.4346">
        <ele>1080</ele>
        <time>2024-03-30T12:01:52.000Z</time>
      </trkpt>
      <trkpt lat="28.2503" lon="-16.434533333333334">
        <ele>1079</ele>
        <time>2024-03-30T12:01:53.000Z</time>
      </trkpt>
      <trkpt lat="28.250383333333332" lon="-16.434466666666665">
        <ele>1077</ele>
        <time>2024-03-30T12:01:54.000Z</time>
      </trkpt>
      <trkpt lat="28.250466666666668" lon="-16.4344">
        <ele>1074</ele>
        <time>2024-03-30T12:01:55.000Z</time>
      </trkpt>
      <trkpt lat="28.250566666666668" lon="-16.434333333333335">
        <ele>1071</ele>
        <time>2024-03-30T12:01:56.000Z</time>
      </trkpt>
      <trkpt lat="28.250666666666667" lon="-16.43425">
        <ele>1068</ele>
        <time>2024-03-30T12:01:57.000Z</time>
      </trkpt>
      <trkpt lat="28.250766666666667" lon="-16.434166666666666">
        <ele>1066</ele>
        <time>2024-03-30T12:01:58.000Z</time>
      </trkpt>
      <trkpt lat="28.250866666666667" lon="-16.4341">
        <ele>1063</ele>
        <time>2024-03-30T12:01:59.000Z</time>
      </trkpt>
      <trkpt lat="28.250966666666667" lon="-16.434033333333332">
        <ele>1061</ele>
        <time>2024-03-30T12:02:00.000Z</time>
      </trkpt>
      <trkpt lat="28.251066666666667" lon="-16.43395">
        <ele>1058</ele>
        <time>2024-03-30T12:02:01.000Z</time>
      </trkpt>
      <trkpt lat="28.251166666666666" lon="-16.433883333333334">
        <ele>1055</ele>
        <time>2024-03-30T12:02:02.000Z</time>
      </trkpt>
      <trkpt lat="28.251266666666666" lon="-16.433816666666665">
        <ele>1053</ele>
        <time>2024-03-30T12:02:03.000Z</time>
      </trkpt>
      <trkpt lat="28.251366666666666" lon="-16.43375">
        <ele>1052</ele>
        <time>2024-03-30T12:02:04.000Z</time>
      </trkpt>
      <trkpt lat="28.251466666666666" lon="-16.4337">
        <ele>1051</ele>
        <time>2024-03-30T12:02:05.000Z</time>
      </trkpt>
      <trkpt lat="28.25155" lon="-16.43365">
        <ele>1049</ele>
        <time>2024-03-30T12:02:06.000Z</time>
      </trkpt>
      <trkpt lat="28.251633333333334" lon="-16.4336">
        <ele>1047</ele>
        <time>2024-03-30T12:02:07.000Z</time>
      </trkpt>
      <trkpt lat="28.251716666666667" lon="-16.433533333333333">
        <ele>1045</ele>
        <time>2024-03-30T12:02:08.000Z</time>
      </trkpt>
      <trkpt lat="28.2518" lon="-16.433483333333335">
        <ele>1042</ele>
        <time>2024-03-30T12:02:09.000Z</time>
      </trkpt>
      <trkpt lat="28.2519" lon="-16.4335">
        <ele>1040</ele>
        <time>2024-03-30T12:02:10.000Z</time>
      </trkpt>
      <trkpt lat="28.252016666666666" lon="-16.433583333333335">
        <ele>1036</ele>
        <time>2024-03-30T12:02:11.000Z</time>
      </trkpt>
      <trkpt lat="28.2521" lon="-16.433716666666665">
        <ele>1033</ele>
        <time>2024-03-30T12:02:12.000Z</time>
      </trkpt>
      <trkpt lat="28.252116666666666" lon="-16.433866666666667">
        <ele>1032</ele>
        <time>2024-03-30T12:02:13.000Z</time>
      </trkpt>
      <trkpt lat="28.252066666666668" lon="-16.433983333333334">
        <ele>1030</ele>
        <time>2024-03-30T12:02:14.000Z</time>
      </trkpt>
      <trkpt lat="28.252" lon="-16.434083333333334">
        <ele>1029</ele>
        <time>2024-03-30T12:02:15.000Z</time>
      </trkpt>
      <trkpt lat="28.251933333333334" lon="-16.434166666666666">
        <ele>1028</ele>
        <time>2024-03-30T12:02:16.000Z</time>
      </trkpt>
      <trkpt lat="28.251883333333332" lon="-16.43425">
        <ele>1025</ele>
        <time>2024-03-30T12:02:17.000Z</time>
      </trkpt>
      <trkpt lat="28.251833333333334" lon="-16.43435">
        <ele>1022</ele>
        <time>2024-03-30T12:02:18.000Z</time>
      </trkpt>
      <trkpt lat="28.251766666666665" lon="-16.43445">
        <ele>1020</ele>
        <time>2024-03-30T12:02:19.000Z</time>
      </trkpt>
      <trkpt lat="28.2517" lon="-16.43455">
        <ele>1018</ele>
        <time>2024-03-30T12:02:20.000Z</time>
      </trkpt>
      <trkpt lat="28.251633333333334" lon="-16.434666666666665">
        <ele>1015</ele>
        <time>2024-03-30T12:02:21.000Z</time>
      </trkpt>
      <trkpt lat="28.251566666666665" lon="-16.4348">
        <ele>1013</ele>
        <time>2024-03-30T12:02:22.000Z</time>
      </trkpt>
      <trkpt lat="28.251516666666667" lon="-16.434933333333333">
        <ele>1013</ele>
        <time>2024-03-30T12:02:23.000Z</time>
      </trkpt>
      <trkpt lat="28.25145" lon="-16.43505">
        <ele>1012</ele>
        <time>2024-03-30T12:02:24.000Z</time>
      </trkpt>
      <trkpt lat="28.251383333333333" lon="-16.43515">
        <ele>1012</ele>
        <time>2024-03-30T12:02:25.000Z</time>
      </trkpt>
      <trkpt lat="28.251333333333335" lon="-16.435233333333333">
        <ele>1011</ele>
        <time>2024-03-30T12:02:26.000Z</time>
      </trkpt>
      <trkpt lat="28.251266666666666" lon="-16.435316666666665">
        <ele>1009</ele>
        <time>2024-03-30T12:02:27.000Z</time>
      </trkpt>
      <trkpt lat="28.2512" lon="-16.435416666666665">
        <ele>1005</ele>
        <time>2024-03-30T12:02:28.000Z</time>
      </trkpt>
      <trkpt lat="28.251133333333332" lon="-16.435533333333332">
        <ele>1001</ele>
        <time>2024-03-30T12:02:29.000Z</time>
      </trkpt>
      <trkpt lat="28.25105" lon="-16.43565">
        <ele>1000</ele>
        <time>2024-03-30T12:02:30.000Z</time>
      </trkpt>
      <trkpt lat="28.250966666666667" lon="-16.435766666666666">
        <ele>1001</ele>
        <time>2024-03-30T12:02:31.000Z</time>
      </trkpt>
      <trkpt lat="28.2509" lon="-16.43585">
        <ele>1003</ele>
        <time>2024-03-30T12:02:32.000Z</time>
      </trkpt>
      <trkpt lat="28.250833333333333" lon="-16.435916666666667">
        <ele>1003</ele>
        <time>2024-03-30T12:02:33.000Z</time>
      </trkpt>
      <trkpt lat="28.250783333333334" lon="-16.435966666666666">
        <ele>1001</ele>
        <time>2024-03-30T12:02:34.000Z</time>
      </trkpt>
      <trkpt lat="28.250716666666666" lon="-16.43605">
        <ele>997</ele>
        <time>2024-03-30T12:02:35.000Z</time>
      </trkpt>
      <trkpt lat="28.250616666666666" lon="-16.436133333333334">
        <ele>993</ele>
        <time>2024-03-30T12:02:36.000Z</time>
      </trkpt>
      <trkpt lat="28.250533333333333" lon="-16.43625">
        <ele>991</ele>
        <time>2024-03-30T12:02:37.000Z</time>
      </trkpt>
      <trkpt lat="28.25045" lon="-16.43635">
        <ele>991</ele>
        <time>2024-03-30T12:02:38.000Z</time>
      </trkpt>
      <trkpt lat="28.250383333333332" lon="-16.436433333333333">
        <ele>991</ele>
        <time>2024-03-30T12:02:39.000Z</time>
      </trkpt>
      <trkpt lat="28.250333333333334" lon="-16.4365">
        <ele>990</ele>
        <time>2024-03-30T12:02:40.000Z</time>
      </trkpt>
      <trkpt lat="28.25026666666667" lon="-16.436583333333335">
        <ele>988</ele>
        <time>2024-03-30T12:02:41.000Z</time>
      </trkpt>
      <trkpt lat="28.250183333333332" lon="-16.436666666666667">
        <ele>984</ele>
        <time>2024-03-30T12:02:42.000Z</time>
      </trkpt>
      <trkpt lat="28.250066666666665" lon="-16.43675">
        <ele>981</ele>
        <time>2024-03-30T12:02:43.000Z</time>
      </trkpt>
      <trkpt lat="28.249966666666666" lon="-16.436866666666667">
        <ele>981</ele>
        <time>2024-03-30T12:02:44.000Z</time>
      </trkpt>
      <trkpt lat="28.249866666666666" lon="-16.436966666666667">
        <ele>983</ele>
        <time>2024-03-30T12:02:45.000Z</time>
      </trkpt>
      <trkpt lat="28.2498" lon="-16.437066666666666">
        <ele>985</ele>
        <time>2024-03-30T12:02:46.000Z</time>
      </trkpt>
      <trkpt lat="28.24973333333333" lon="-16.437133333333332">
        <ele>985</ele>
        <time>2024-03-30T12:02:47.000Z</time>
      </trkpt>
      <trkpt lat="28.249666666666666" lon="-16.4372">
        <ele>983</ele>
        <time>2024-03-30T12:02:48.000Z</time>
      </trkpt>
      <trkpt lat="28.249583333333334" lon="-16.437283333333333">
        <ele>979</ele>
        <time>2024-03-30T12:02:49.000Z</time>
      </trkpt>
      <trkpt lat="28.2495" lon="-16.437366666666666">
        <ele>976</ele>
        <time>2024-03-30T12:02:50.000Z</time>
      </trkpt>
      <trkpt lat="28.249383333333334" lon="-16.437466666666666">
        <ele>973</ele>
        <time>2024-03-30T12:02:51.000Z</time>
      </trkpt>
      <trkpt lat="28.249266666666667" lon="-16.437583333333333">
        <ele>973</ele>
        <time>2024-03-30T12:02:52.000Z</time>
      </trkpt>
      <trkpt lat="28.249166666666667" lon="-16.437683333333332">
        <ele>974</ele>
        <time>2024-03-30T12:02:53.000Z</time>
      </trkpt>
      <trkpt lat="28.249066666666668" lon="-16.43776666666667">
        <ele>975</ele>
        <time>2024-03-30T12:02:54.000Z</time>
      </trkpt>
      <trkpt lat="28.248966666666668" lon="-16.43785">
        <ele>975</ele>
        <time>2024-03-30T12:02:55.000Z</time>
      </trkpt>
      <trkpt lat="28.248866666666668" lon="-16.437933333333334">
        <ele>974</ele>
        <time>2024-03-30T12:02:56.000Z</time>
      </trkpt>
      <trkpt lat="28.24875" lon="-16.438016666666666">
        <ele>974</ele>
        <time>2024-03-30T12:02:57.000Z</time>
      </trkpt>
      <trkpt lat="28.24865" lon="-16.4381">
        <ele>974</ele>
        <time>2024-03-30T12:02:58.000Z</time>
      </trkpt>
      <trkpt lat="28.248566666666665" lon="-16.438183333333335">
        <ele>974</ele>
        <time>2024-03-30T12:02:59.000Z</time>
      </trkpt>
      <trkpt lat="28.248466666666666" lon="-16.438266666666667">
        <ele>974</ele>
        <time>2024-03-30T12:03:00.000Z</time>
      </trkpt>
      <trkpt lat="28.248366666666666" lon="-16.438333333333333">
        <ele>974</ele>
        <time>2024-03-30T12:03:01.000Z</time>
      </trkpt>
      <trkpt lat="28.248266666666666" lon="-16.4384">
        <ele>974</ele>
        <time>2024-03-30T12:03:02.000Z</time>
      </trkpt>
      <trkpt lat="28.248166666666666" lon="-16.438483333333334">
        <ele>974</ele>
        <time>2024-03-30T12:03:03.000Z</time>
      </trkpt>
      <trkpt lat="28.248083333333334" lon="-16.43855">
        <ele>974</ele>
        <time>2024-03-30T12:03:04.000Z</time>
      </trkpt>
      <trkpt lat="28.247983333333334" lon="-16.438633333333332">
        <ele>974</ele>
        <time>2024-03-30T12:03:05.000Z</time>
      </trkpt>
      <trkpt lat="28.247883333333334" lon="-16.438683333333334">
        <ele>974</ele>
        <time>2024-03-30T12:03:06.000Z</time>
      </trkpt>
      <trkpt lat="28.247783333333334" lon="-16.43875">
        <ele>973</ele>
        <time>2024-03-30T12:03:07.000Z</time>
      </trkpt>
      <trkpt lat="28.2477" lon="-16.438816666666668">
        <ele>973</ele>
        <time>2024-03-30T12:03:08.000Z</time>
      </trkpt>
      <trkpt lat="28.2476" lon="-16.4389">
        <ele>971</ele>
        <time>2024-03-30T12:03:09.000Z</time>
      </trkpt>
      <trkpt lat="28.247516666666666" lon="-16.439">
        <ele>970</ele>
        <time>2024-03-30T12:03:10.000Z</time>
      </trkpt>
      <trkpt lat="28.247433333333333" lon="-16.4391">
        <ele>969</ele>
        <time>2024-03-30T12:03:11.000Z</time>
      </trkpt>
      <trkpt lat="28.247366666666668" lon="-16.439183333333332">
        <ele>969</ele>
        <time>2024-03-30T12:03:12.000Z</time>
      </trkpt>
      <trkpt lat="28.2473" lon="-16.439283333333332">
        <ele>968</ele>
        <time>2024-03-30T12:03:13.000Z</time>
      </trkpt>
      <trkpt lat="28.247233333333334" lon="-16.43936666666667">
        <ele>968</ele>
        <time>2024-03-30T12:03:14.000Z</time>
      </trkpt>
      <trkpt lat="28.247166666666665" lon="-16.43945">
        <ele>967</ele>
        <time>2024-03-30T12:03:15.000Z</time>
      </trkpt>
      <trkpt lat="28.2471" lon="-16.439533333333333">
        <ele>966</ele>
        <time>2024-03-30T12:03:16.000Z</time>
      </trkpt>
      <trkpt lat="28.247016666666667" lon="-16.439616666666666">
        <ele>966</ele>
        <time>2024-03-30T12:03:17.000Z</time>
      </trkpt>
      <trkpt lat="28.246933333333335" lon="-16.4397">
        <ele>967</ele>
        <time>2024-03-30T12:03:18.000Z</time>
      </trkpt>
      <trkpt lat="28.246883333333333" lon="-16.439766666666667">
        <ele>968</ele>
        <time>2024-03-30T12:03:19.000Z</time>
      </trkpt>
      <trkpt lat="28.246816666666668" lon="-16.439833333333333">
        <ele>968</ele>
        <time>2024-03-30T12:03:20.000Z</time>
      </trkpt>
      <trkpt lat="28.24675" lon="-16.4399">
        <ele>968</ele>
        <time>2024-03-30T12:03:21.000Z</time>
      </trkpt>
      <trkpt lat="28.246666666666666" lon="-16.439933333333332">
        <ele>966</ele>
        <time>2024-03-30T12:03:22.000Z</time>
      </trkpt>
      <trkpt lat="28.2466" lon="-16.44">
        <ele>964</ele>
        <time>2024-03-30T12:03:23.000Z</time>
      </trkpt>
      <trkpt lat="28.2465" lon="-16.44005">
        <ele>963</ele>
        <time>2024-03-30T12:03:24.000Z</time>
      </trkpt>
      <trkpt lat="28.246433333333332" lon="-16.44011666666667">
        <ele>964</ele>
        <time>2024-03-30T12:03:25.000Z</time>
      </trkpt>
      <trkpt lat="28.246366666666667" lon="-16.440183333333334">
        <ele>965</ele>
        <time>2024-03-30T12:03:26.000Z</time>
      </trkpt>
      <trkpt lat="28.2463" lon="-16.44025">
        <ele>965</ele>
        <time>2024-03-30T12:03:27.000Z</time>
      </trkpt>
      <trkpt lat="28.246233333333333" lon="-16.440316666666668">
        <ele>964</ele>
        <time>2024-03-30T12:03:28.000Z</time>
      </trkpt>
      <trkpt lat="28.246183333333335" lon="-16.4404">
        <ele>962</ele>
        <time>2024-03-30T12:03:29.000Z</time>
      </trkpt>
      <trkpt lat="28.2461" lon="-16.440483333333333">
        <ele>961</ele>
        <time>2024-03-30T12:03:30.000Z</time>
      </trkpt>
      <trkpt lat="28.246016666666666" lon="-16.44055">
        <ele>961</ele>
        <time>2024-03-30T12:03:31.000Z</time>
      </trkpt>
      <trkpt lat="28.24595" lon="-16.440616666666667">
        <ele>961</ele>
        <time>2024-03-30T12:03:32.000Z</time>
      </trkpt>
      <trkpt lat="28.24588333333333" lon="-16.440683333333332">
        <ele>961</ele>
        <time>2024-03-30T12:03:33.000Z</time>
      </trkpt>
      <trkpt lat="28.245816666666666" lon="-16.440733333333334">
        <ele>959</ele>
        <time>2024-03-30T12:03:34.000Z</time>
      </trkpt>
      <trkpt lat="28.245733333333334" lon="-16.440783333333332">
        <ele>956</ele>
        <time>2024-03-30T12:03:35.000Z</time>
      </trkpt>
      <trkpt lat="28.245666666666665" lon="-16.44085">
        <ele>954</ele>
        <time>2024-03-30T12:03:36.000Z</time>
      </trkpt>
      <trkpt lat="28.245583333333332" lon="-16.440916666666666">
        <ele>951</ele>
        <time>2024-03-30T12:03:37.000Z</time>
      </trkpt>
      <trkpt lat="28.2455" lon="-16.441">
        <ele>948</ele>
        <time>2024-03-30T12:03:38.000Z</time>
      </trkpt>
      <trkpt lat="28.245416666666667" lon="-16.441066666666668">
        <ele>946</ele>
        <time>2024-03-30T12:03:39.000Z</time>
      </trkpt>
      <trkpt lat="28.245333333333335" lon="-16.441116666666666">
        <ele>945</ele>
        <time>2024-03-30T12:03:40.000Z</time>
      </trkpt>
      <trkpt lat="28.245266666666666" lon="-16.441183333333335">
        <ele>943</ele>
        <time>2024-03-30T12:03:41.000Z</time>
      </trkpt>
      <trkpt lat="28.2452" lon="-16.441266666666667">
        <ele>940</ele>
        <time>2024-03-30T12:03:42.000Z</time>
      </trkpt>
      <trkpt lat="28.24513333333333" lon="-16.441366666666667">
        <ele>937</ele>
        <time>2024-03-30T12:03:43.000Z</time>
      </trkpt>
      <trkpt lat="28.245066666666666" lon="-16.441466666666667">
        <ele>934</ele>
        <time>2024-03-30T12:03:44.000Z</time>
      </trkpt>
      <trkpt lat="28.244983333333334" lon="-16.44155">
        <ele>932</ele>
        <time>2024-03-30T12:03:45.000Z</time>
      </trkpt>
      <trkpt lat="28.2449" lon="-16.44165">
        <ele>931</ele>
        <time>2024-03-30T12:03:46.000Z</time>
      </trkpt>
      <trkpt lat="28.244816666666665" lon="-16.44175">
        <ele>931</ele>
        <time>2024-03-30T12:03:47.000Z</time>
      </trkpt>
      <trkpt lat="28.24475" lon="-16.44185">
        <ele>932</ele>
        <time>2024-03-30T12:03:48.000Z</time>
      </trkpt>
      <trkpt lat="28.244683333333334" lon="-16.44195">
        <ele>932</ele>
        <time>2024-03-30T12:03:49.000Z</time>
      </trkpt>
      <trkpt lat="28.244616666666666" lon="-16.442033333333335">
        <ele>931</ele>
        <time>2024-03-30T12:03:50.000Z</time>
      </trkpt>
      <trkpt lat="28.24455" lon="-16.4421">
        <ele>929</ele>
        <time>2024-03-30T12:03:51.000Z</time>
      </trkpt>
      <trkpt lat="28.244466666666668" lon="-16.442166666666665">
        <ele>927</ele>
        <time>2024-03-30T12:03:52.000Z</time>
      </trkpt>
      <trkpt lat="28.24438333333333" lon="-16.44225">
        <ele>924</ele>
        <time>2024-03-30T12:03:53.000Z</time>
      </trkpt>
      <trkpt lat="28.2443" lon="-16.442333333333334">
        <ele>922</ele>
        <time>2024-03-30T12:03:54.000Z</time>
      </trkpt>
      <trkpt lat="28.244216666666667" lon="-16.442433333333334">
        <ele>922</ele>
        <time>2024-03-30T12:03:55.000Z</time>
      </trkpt>
      <trkpt lat="28.244133333333334" lon="-16.442516666666666">
        <ele>922</ele>
        <time>2024-03-30T12:03:56.000Z</time>
      </trkpt>
      <trkpt lat="28.244066666666665" lon="-16.44258333333333">
        <ele>922</ele>
        <time>2024-03-30T12:03:57.000Z</time>
      </trkpt>
      <trkpt lat="28.244" lon="-16.44265">
        <ele>921</ele>
        <time>2024-03-30T12:03:58.000Z</time>
      </trkpt>
      <trkpt lat="28.243933333333334" lon="-16.442733333333333">
        <ele>920</ele>
        <time>2024-03-30T12:03:59.000Z</time>
      </trkpt>
      <trkpt lat="28.24385" lon="-16.442816666666666">
        <ele>919</ele>
        <time>2024-03-30T12:04:00.000Z</time>
      </trkpt>
      <trkpt lat="28.243766666666666" lon="-16.4429">
        <ele>919</ele>
        <time>2024-03-30T12:04:01.000Z</time>
      </trkpt>
      <trkpt lat="28.243683333333333" lon="-16.442966666666667">
        <ele>920</ele>
        <time>2024-03-30T12:04:02.000Z</time>
      </trkpt>
      <trkpt lat="28.243616666666668" lon="-16.443016666666665">
        <ele>921</ele>
        <time>2024-03-30T12:04:03.000Z</time>
      </trkpt>
      <trkpt lat="28.24355" lon="-16.44305">
        <ele>921</ele>
        <time>2024-03-30T12:04:04.000Z</time>
      </trkpt>
      <trkpt lat="28.243483333333334" lon="-16.443083333333334">
        <ele>919</ele>
        <time>2024-03-30T12:04:05.000Z</time>
      </trkpt>
      <trkpt lat="28.24341666666667" lon="-16.44315">
        <ele>915</ele>
        <time>2024-03-30T12:04:06.000Z</time>
      </trkpt>
      <trkpt lat="28.243333333333332" lon="-16.443233333333332">
        <ele>913</ele>
        <time>2024-03-30T12:04:07.000Z</time>
      </trkpt>
      <trkpt lat="28.24325" lon="-16.443333333333335">
        <ele>912</ele>
        <time>2024-03-30T12:04:08.000Z</time>
      </trkpt>
      <trkpt lat="28.243183333333334" lon="-16.443416666666668">
        <ele>913</ele>
        <time>2024-03-30T12:04:09.000Z</time>
      </trkpt>
      <trkpt lat="28.243116666666666" lon="-16.443483333333333">
        <ele>914</ele>
        <time>2024-03-30T12:04:10.000Z</time>
      </trkpt>
      <trkpt lat="28.24305" lon="-16.44355">
        <ele>913</ele>
        <time>2024-03-30T12:04:11.000Z</time>
      </trkpt>
      <trkpt lat="28.242983333333335" lon="-16.443616666666667">
        <ele>911</ele>
        <time>2024-03-30T12:04:12.000Z</time>
      </trkpt>
      <trkpt lat="28.242916666666666" lon="-16.443716666666667">
        <ele>908</ele>
        <time>2024-03-30T12:04:13.000Z</time>
      </trkpt>
      <trkpt lat="28.24285" lon="-16.443816666666667">
        <ele>907</ele>
        <time>2024-03-30T12:04:14.000Z</time>
      </trkpt>
      <trkpt lat="28.242783333333332" lon="-16.4439">
        <ele>906</ele>
        <time>2024-03-30T12:04:15.000Z</time>
      </trkpt>
      <trkpt lat="28.242716666666666" lon="-16.444">
        <ele>906</ele>
        <time>2024-03-30T12:04:16.000Z</time>
      </trkpt>
      <trkpt lat="28.24265" lon="-16.44408333333333">
        <ele>906</ele>
        <time>2024-03-30T12:04:17.000Z</time>
      </trkpt>
      <trkpt lat="28.242583333333332" lon="-16.444166666666668">
        <ele>905</ele>
        <time>2024-03-30T12:04:18.000Z</time>
      </trkpt>
      <trkpt lat="28.242516666666667" lon="-16.44425">
        <ele>903</ele>
        <time>2024-03-30T12:04:19.000Z</time>
      </trkpt>
      <trkpt lat="28.242466666666665" lon="-16.44435">
        <ele>901</ele>
        <time>2024-03-30T12:04:20.000Z</time>
      </trkpt>
      <trkpt lat="28.242383333333333" lon="-16.44445">
        <ele>899</ele>
        <time>2024-03-30T12:04:21.000Z</time>
      </trkpt>
      <trkpt lat="28.242316666666667" lon="-16.44455">
        <ele>898</ele>
        <time>2024-03-30T12:04:22.000Z</time>
      </trkpt>
      <trkpt lat="28.242233333333335" lon="-16.444666666666667">
        <ele>898</ele>
        <time>2024-03-30T12:04:23.000Z</time>
      </trkpt>
      <trkpt lat="28.24215" lon="-16.444766666666666">
        <ele>898</ele>
        <time>2024-03-30T12:04:24.000Z</time>
      </trkpt>
      <trkpt lat="28.242083333333333" lon="-16.44485">
        <ele>898</ele>
        <time>2024-03-30T12:04:25.000Z</time>
      </trkpt>
      <trkpt lat="28.242016666666668" lon="-16.444916666666668">
        <ele>899</ele>
        <time>2024-03-30T12:04:26.000Z</time>
      </trkpt>
      <trkpt lat="28.24195" lon="-16.445">
        <ele>897</ele>
        <time>2024-03-30T12:04:27.000Z</time>
      </trkpt>
      <trkpt lat="28.241883333333334" lon="-16.445083333333333">
        <ele>895</ele>
        <time>2024-03-30T12:04:28.000Z</time>
      </trkpt>
      <trkpt lat="28.2418" lon="-16.445166666666665">
        <ele>894</ele>
        <time>2024-03-30T12:04:29.000Z</time>
      </trkpt>
      <trkpt lat="28.241716666666665" lon="-16.44525">
        <ele>893</ele>
        <time>2024-03-30T12:04:30.000Z</time>
      </trkpt>
      <trkpt lat="28.241633333333333" lon="-16.445316666666667">
        <ele>894</ele>
        <time>2024-03-30T12:04:31.000Z</time>
      </trkpt>
      <trkpt lat="28.241566666666667" lon="-16.445383333333332">
        <ele>895</ele>
        <time>2024-03-30T12:04:32.000Z</time>
      </trkpt>
      <trkpt lat="28.241483333333335" lon="-16.445433333333334">
        <ele>897</ele>
        <time>2024-03-30T12:04:33.000Z</time>
      </trkpt>
      <trkpt lat="28.2414" lon="-16.445483333333332">
        <ele>898</ele>
        <time>2024-03-30T12:04:34.000Z</time>
      </trkpt>
      <trkpt lat="28.241316666666666" lon="-16.445533333333334">
        <ele>898</ele>
        <time>2024-03-30T12:04:35.000Z</time>
      </trkpt>
      <trkpt lat="28.24125" lon="-16.445616666666666">
        <ele>900</ele>
        <time>2024-03-30T12:04:36.000Z</time>
      </trkpt>
      <trkpt lat="28.24116666666667" lon="-16.445716666666666">
        <ele>902</ele>
        <time>2024-03-30T12:04:37.000Z</time>
      </trkpt>
      <trkpt lat="28.241116666666667" lon="-16.445816666666666">
        <ele>904</ele>
        <time>2024-03-30T12:04:38.000Z</time>
      </trkpt>
      <trkpt lat="28.241066666666665" lon="-16.445916666666665">
        <ele>905</ele>
        <time>2024-03-30T12:04:39.000Z</time>
      </trkpt>
      <trkpt lat="28.241016666666667" lon="-16.446016666666665">
        <ele>907</ele>
        <time>2024-03-30T12:04:40.000Z</time>
      </trkpt>
      <trkpt lat="28.240966666666665" lon="-16.446116666666665">
        <ele>909</ele>
        <time>2024-03-30T12:04:41.000Z</time>
      </trkpt>
      <trkpt lat="28.2409" lon="-16.4462">
        <ele>912</ele>
        <time>2024-03-30T12:04:42.000Z</time>
      </trkpt>
      <trkpt lat="28.240850000000002" lon="-16.446283333333334">
        <ele>914</ele>
        <time>2024-03-30T12:04:43.000Z</time>
      </trkpt>
      <trkpt lat="28.240783333333333" lon="-16.44633333333333">
        <ele>916</ele>
        <time>2024-03-30T12:04:44.000Z</time>
      </trkpt>
      <trkpt lat="28.240733333333335" lon="-16.44635">
        <ele>916</ele>
        <time>2024-03-30T12:04:45.000Z</time>
      </trkpt>
      <trkpt lat="28.24065" lon="-16.446316666666668">
        <ele>916</ele>
        <time>2024-03-30T12:04:46.000Z</time>
      </trkpt>
      <trkpt lat="28.240616666666668" lon="-16.446233333333332">
        <ele>916</ele>
        <time>2024-03-30T12:04:47.000Z</time>
      </trkpt>
      <trkpt lat="28.240616666666668" lon="-16.446166666666667">
        <ele>919</ele>
        <time>2024-03-30T12:04:48.000Z</time>
      </trkpt>
      <trkpt lat="28.240666666666666" lon="-16.4461">
        <ele>920</ele>
        <time>2024-03-30T12:04:49.000Z</time>
      </trkpt>
      <trkpt lat="28.240766666666666" lon="-16.446066666666667">
        <ele>921</ele>
        <time>2024-03-30T12:04:50.000Z</time>
      </trkpt>
      <trkpt lat="28.240866666666665" lon="-16.446083333333334">
        <ele>922</ele>
        <time>2024-03-30T12:04:51.000Z</time>
      </trkpt>
      <trkpt lat="28.24095" lon="-16.446116666666665">
        <ele>923</ele>
        <time>2024-03-30T12:04:52.000Z</time>
      </trkpt>
      <trkpt lat="28.241016666666667" lon="-16.446183333333334">
        <ele>923</ele>
        <time>2024-03-30T12:04:53.000Z</time>
      </trkpt>
      <trkpt lat="28.2411" lon="-16.446283333333334">
        <ele>924</ele>
        <time>2024-03-30T12:04:54.000Z</time>
      </trkpt>
      <trkpt lat="28.24115" lon="-16.446383333333333">
        <ele>926</ele>
        <time>2024-03-30T12:04:55.000Z</time>
      </trkpt>
      <trkpt lat="28.24116666666667" lon="-16.446516666666668">
        <ele>926</ele>
        <time>2024-03-30T12:04:56.000Z</time>
      </trkpt>
      <trkpt lat="28.24116666666667" lon="-16.446633333333335">
        <ele>927</ele>
        <time>2024-03-30T12:04:57.000Z</time>
      </trkpt>
      <trkpt lat="28.24115" lon="-16.446766666666665">
        <ele>928</ele>
        <time>2024-03-30T12:04:58.000Z</time>
      </trkpt>
      <trkpt lat="28.241116666666667" lon="-16.446866666666665">
        <ele>929</ele>
        <time>2024-03-30T12:04:59.000Z</time>
      </trkpt>
      <trkpt lat="28.241083333333332" lon="-16.44696666666667">
        <ele>929</ele>
        <time>2024-03-30T12:05:00.000Z</time>
      </trkpt>
      <trkpt lat="28.241016666666667" lon="-16.447066666666668">
        <ele>930</ele>
        <time>2024-03-30T12:05:01.000Z</time>
      </trkpt>
      <trkpt lat="28.24095" lon="-16.44715">
        <ele>931</ele>
        <time>2024-03-30T12:05:02.000Z</time>
      </trkpt>
      <trkpt lat="28.240866666666665" lon="-16.447216666666666">
        <ele>934</ele>
        <time>2024-03-30T12:05:03.000Z</time>
      </trkpt>
      <trkpt lat="28.240783333333333" lon="-16.447233333333333">
        <ele>936</ele>
        <time>2024-03-30T12:05:04.000Z</time>
      </trkpt>
      <trkpt lat="28.2407" lon="-16.4472">
        <ele>937</ele>
        <time>2024-03-30T12:05:05.000Z</time>
      </trkpt>
      <trkpt lat="28.240666666666666" lon="-16.447133333333333">
        <ele>937</ele>
        <time>2024-03-30T12:05:06.000Z</time>
      </trkpt>
      <trkpt lat="28.24065" lon="-16.44705">
        <ele>938</ele>
        <time>2024-03-30T12:05:07.000Z</time>
      </trkpt>
      <trkpt lat="28.240683333333333" lon="-16.446983333333332">
        <ele>941</ele>
        <time>2024-03-30T12:05:08.000Z</time>
      </trkpt>
      <trkpt lat="28.24075" lon="-16.44695">
        <ele>943</ele>
        <time>2024-03-30T12:05:09.000Z</time>
      </trkpt>
      <trkpt lat="28.240850000000002" lon="-16.446933333333334">
        <ele>943</ele>
        <time>2024-03-30T12:05:10.000Z</time>
      </trkpt>
      <trkpt lat="28.24095" lon="-16.44696666666667">
        <ele>944</ele>
        <time>2024-03-30T12:05:11.000Z</time>
      </trkpt>
      <trkpt lat="28.24105" lon="-16.447033333333334">
        <ele>946</ele>
        <time>2024-03-30T12:05:12.000Z</time>
      </trkpt>
      <trkpt lat="28.241116666666667" lon="-16.447133333333333">
        <ele>947</ele>
        <time>2024-03-30T12:05:13.000Z</time>
      </trkpt>
      <trkpt lat="28.24116666666667" lon="-16.447233333333333">
        <ele>948</ele>
        <time>2024-03-30T12:05:14.000Z</time>
      </trkpt>
      <trkpt lat="28.241183333333332" lon="-16.44735">
        <ele>948</ele>
        <time>2024-03-30T12:05:15.000Z</time>
      </trkpt>
      <trkpt lat="28.24116666666667" lon="-16.447483333333334">
        <ele>948</ele>
        <time>2024-03-30T12:05:16.000Z</time>
      </trkpt>
      <trkpt lat="28.24115" lon="-16.4476">
        <ele>949</ele>
        <time>2024-03-30T12:05:17.000Z</time>
      </trkpt>
      <trkpt lat="28.2411" lon="-16.447733333333332">
        <ele>949</ele>
        <time>2024-03-30T12:05:18.000Z</time>
      </trkpt>
      <trkpt lat="28.241066666666665" lon="-16.44785">
        <ele>951</ele>
        <time>2024-03-30T12:05:19.000Z</time>
      </trkpt>
      <trkpt lat="28.241016666666667" lon="-16.447966666666666">
        <ele>955</ele>
        <time>2024-03-30T12:05:20.000Z</time>
      </trkpt>
      <trkpt lat="28.24095" lon="-16.448066666666666">
        <ele>959</ele>
        <time>2024-03-30T12:05:21.000Z</time>
      </trkpt>
      <trkpt lat="28.240883333333333" lon="-16.44815">
        <ele>963</ele>
        <time>2024-03-30T12:05:22.000Z</time>
      </trkpt>
      <trkpt lat="28.2408" lon="-16.4482">
        <ele>967</ele>
        <time>2024-03-30T12:05:23.000Z</time>
      </trkpt>
      <trkpt lat="28.240716666666668" lon="-16.448216666666667">
        <ele>970</ele>
        <time>2024-03-30T12:05:24.000Z</time>
      </trkpt>
      <trkpt lat="28.24065" lon="-16.4482">
        <ele>973</ele>
        <time>2024-03-30T12:05:25.000Z</time>
      </trkpt>
      <trkpt lat="28.2406" lon="-16.44815">
        <ele>975</ele>
        <time>2024-03-30T12:05:26.000Z</time>
      </trkpt>
      <trkpt lat="28.2406" lon="-16.448083333333333">
        <ele>977</ele>
        <time>2024-03-30T12:05:27.000Z</time>
      </trkpt>
      <trkpt lat="28.240666666666666" lon="-16.448016666666668">
        <ele>979</ele>
        <time>2024-03-30T12:05:28.000Z</time>
      </trkpt>
      <trkpt lat="28.24075" lon="-16.447983333333333">
        <ele>982</ele>
        <time>2024-03-30T12:05:29.000Z</time>
      </trkpt>
      <trkpt lat="28.240833333333335" lon="-16.447983333333333">
        <ele>985</ele>
        <time>2024-03-30T12:05:30.000Z</time>
      </trkpt>
      <trkpt lat="28.240916666666667" lon="-16.448033333333335">
        <ele>986</ele>
        <time>2024-03-30T12:05:31.000Z</time>
      </trkpt>
      <trkpt lat="28.240966666666665" lon="-16.44815">
        <ele>986</ele>
        <time>2024-03-30T12:05:32.000Z</time>
      </trkpt>
      <trkpt lat="28.241016666666667" lon="-16.4483">
        <ele>989</ele>
        <time>2024-03-30T12:05:33.000Z</time>
      </trkpt>
      <trkpt lat="28.241033333333334" lon="-16.44845">
        <ele>994</ele>
        <time>2024-03-30T12:05:34.000Z</time>
      </trkpt>
      <trkpt lat="28.241" lon="-16.448566666666668">
        <ele>998</ele>
        <time>2024-03-30T12:05:35.000Z</time>
      </trkpt>
      <trkpt lat="28.240933333333334" lon="-16.448666666666668">
        <ele>1001</ele>
        <time>2024-03-30T12:05:36.000Z</time>
      </trkpt>
      <trkpt lat="28.240833333333335" lon="-16.4487">
        <ele>1003</ele>
        <time>2024-03-30T12:05:37.000Z</time>
      </trkpt>
      <trkpt lat="28.24075" lon="-16.4487">
        <ele>1006</ele>
        <time>2024-03-30T12:05:38.000Z</time>
      </trkpt>
      <trkpt lat="28.240683333333333" lon="-16.44865">
        <ele>1007</ele>
        <time>2024-03-30T12:05:39.000Z</time>
      </trkpt>
      <trkpt lat="28.240683333333333" lon="-16.448583333333332">
        <ele>1010</ele>
        <time>2024-03-30T12:05:40.000Z</time>
      </trkpt>
      <trkpt lat="28.240716666666668" lon="-16.448516666666666">
        <ele>1013</ele>
        <time>2024-03-30T12:05:41.000Z</time>
      </trkpt>
      <trkpt lat="28.2408" lon="-16.44846666666667">
        <ele>1016</ele>
        <time>2024-03-30T12:05:42.000Z</time>
      </trkpt>
      <trkpt lat="28.240883333333333" lon="-16.44846666666667">
        <ele>1017</ele>
        <time>2024-03-30T12:05:43.000Z</time>
      </trkpt>
      <trkpt lat="28.240983333333332" lon="-16.4485">
        <ele>1019</ele>
        <time>2024-03-30T12:05:44.000Z</time>
      </trkpt>
      <trkpt lat="28.241066666666665" lon="-16.448566666666668">
        <ele>1021</ele>
        <time>2024-03-30T12:05:45.000Z</time>
      </trkpt>
      <trkpt lat="28.24115" lon="-16.448666666666668">
        <ele>1024</ele>
        <time>2024-03-30T12:05:46.000Z</time>
      </trkpt>
      <trkpt lat="28.2412" lon="-16.4488">
        <ele>1027</ele>
        <time>2024-03-30T12:05:47.000Z</time>
      </trkpt>
      <trkpt lat="28.241216666666666" lon="-16.448916666666666">
        <ele>1030</ele>
        <time>2024-03-30T12:05:48.000Z</time>
      </trkpt>
      <trkpt lat="28.2412" lon="-16.44905">
        <ele>1032</ele>
        <time>2024-03-30T12:05:49.000Z</time>
      </trkpt>
      <trkpt lat="28.24115" lon="-16.44915">
        <ele>1035</ele>
        <time>2024-03-30T12:05:50.000Z</time>
      </trkpt>
      <trkpt lat="28.241066666666665" lon="-16.449233333333332">
        <ele>1037</ele>
        <time>2024-03-30T12:05:51.000Z</time>
      </trkpt>
      <trkpt lat="28.240983333333332" lon="-16.44925">
        <ele>1039</ele>
        <time>2024-03-30T12:05:52.000Z</time>
      </trkpt>
      <trkpt lat="28.2409" lon="-16.44925">
        <ele>1041</ele>
        <time>2024-03-30T12:05:53.000Z</time>
      </trkpt>
      <trkpt lat="28.240850000000002" lon="-16.4492">
        <ele>1044</ele>
        <time>2024-03-30T12:05:54.000Z</time>
      </trkpt>
      <trkpt lat="28.240816666666667" lon="-16.449133333333332">
        <ele>1046</ele>
        <time>2024-03-30T12:05:55.000Z</time>
      </trkpt>
      <trkpt lat="28.240833333333335" lon="-16.449083333333334">
        <ele>1049</ele>
        <time>2024-03-30T12:05:56.000Z</time>
      </trkpt>
      <trkpt lat="28.240866666666665" lon="-16.449033333333333">
        <ele>1052</ele>
        <time>2024-03-30T12:05:57.000Z</time>
      </trkpt>
      <trkpt lat="28.24095" lon="-16.449">
        <ele>1053</ele>
        <time>2024-03-30T12:05:58.000Z</time>
      </trkpt>
      <trkpt lat="28.24105" lon="-16.449016666666665">
        <ele>1055</ele>
        <time>2024-03-30T12:05:59.000Z</time>
      </trkpt>
      <trkpt lat="28.24115" lon="-16.44905">
        <ele>1057</ele>
        <time>2024-03-30T12:06:00.000Z</time>
      </trkpt>
      <trkpt lat="28.24125" lon="-16.449133333333332">
        <ele>1059</ele>
        <time>2024-03-30T12:06:01.000Z</time>
      </trkpt>
      <trkpt lat="28.241316666666666" lon="-16.449266666666666">
        <ele>1061</ele>
        <time>2024-03-30T12:06:02.000Z</time>
      </trkpt>
      <trkpt lat="28.241333333333333" lon="-16.4494">
        <ele>1063</ele>
        <time>2024-03-30T12:06:03.000Z</time>
      </trkpt>
      <trkpt lat="28.241333333333333" lon="-16.449533333333335">
        <ele>1067</ele>
        <time>2024-03-30T12:06:04.000Z</time>
      </trkpt>
      <trkpt lat="28.24128333333333" lon="-16.449633333333335">
        <ele>1069</ele>
        <time>2024-03-30T12:06:05.000Z</time>
      </trkpt>
      <trkpt lat="28.241233333333334" lon="-16.449683333333333">
        <ele>1072</ele>
        <time>2024-03-30T12:06:06.000Z</time>
      </trkpt>
      <trkpt lat="28.24116666666667" lon="-16.449733333333334">
        <ele>1073</ele>
        <time>2024-03-30T12:06:07.000Z</time>
      </trkpt>
      <trkpt lat="28.2411" lon="-16.449733333333334">
        <ele>1076</ele>
        <time>2024-03-30T12:06:08.000Z</time>
      </trkpt>
      <trkpt lat="28.241033333333334" lon="-16.449716666666667">
        <ele>1077</ele>
        <time>2024-03-30T12:06:09.000Z</time>
      </trkpt>
      <trkpt lat="28.240983333333332" lon="-16.449666666666666">
        <ele>1079</ele>
        <time>2024-03-30T12:06:10.000Z</time>
      </trkpt>
      <trkpt lat="28.240966666666665" lon="-16.449583333333333">
        <ele>1081</ele>
        <time>2024-03-30T12:06:11.000Z</time>
      </trkpt>
      <trkpt lat="28.240983333333332" lon="-16.449516666666668">
        <ele>1084</ele>
        <time>2024-03-30T12:06:12.000Z</time>
      </trkpt>
      <trkpt lat="28.241033333333334" lon="-16.44945">
        <ele>1088</ele>
        <time>2024-03-30T12:06:13.000Z</time>
      </trkpt>
      <trkpt lat="28.241083333333332" lon="-16.449416666666668">
        <ele>1092</ele>
        <time>2024-03-30T12:06:14.000Z</time>
      </trkpt>
      <trkpt lat="28.241133333333334" lon="-16.4494">
        <ele>1093</ele>
        <time>2024-03-30T12:06:15.000Z</time>
      </trkpt>
      <trkpt lat="28.241233333333334" lon="-16.4494">
        <ele>1094</ele>
        <time>2024-03-30T12:06:16.000Z</time>
      </trkpt>
      <trkpt lat="28.241333333333333" lon="-16.44945">
        <ele>1094</ele>
        <time>2024-03-30T12:06:17.000Z</time>
      </trkpt>
      <trkpt lat="28.241416666666666" lon="-16.449516666666668">
        <ele>1096</ele>
        <time>2024-03-30T12:06:18.000Z</time>
      </trkpt>
      <trkpt lat="28.2415" lon="-16.449616666666667">
        <ele>1100</ele>
        <time>2024-03-30T12:06:19.000Z</time>
      </trkpt>
      <trkpt lat="28.24155" lon="-16.449733333333334">
        <ele>1103</ele>
        <time>2024-03-30T12:06:20.000Z</time>
      </trkpt>
      <trkpt lat="28.241566666666667" lon="-16.449833333333334">
        <ele>1103</ele>
        <time>2024-03-30T12:06:21.000Z</time>
      </trkpt>
      <trkpt lat="28.241583333333335" lon="-16.44995">
        <ele>1104</ele>
        <time>2024-03-30T12:06:22.000Z</time>
      </trkpt>
      <trkpt lat="28.241583333333335" lon="-16.450066666666668">
        <ele>1105</ele>
        <time>2024-03-30T12:06:23.000Z</time>
      </trkpt>
      <trkpt lat="28.241566666666667" lon="-16.45018333333333">
        <ele>1107</ele>
        <time>2024-03-30T12:06:24.000Z</time>
      </trkpt>
      <trkpt lat="28.241533333333333" lon="-16.45025">
        <ele>1109</ele>
        <time>2024-03-30T12:06:25.000Z</time>
      </trkpt>
      <trkpt lat="28.241483333333335" lon="-16.450316666666666">
        <ele>1110</ele>
        <time>2024-03-30T12:06:26.000Z</time>
      </trkpt>
      <trkpt lat="28.241433333333333" lon="-16.450366666666667">
        <ele>1110</ele>
        <time>2024-03-30T12:06:27.000Z</time>
      </trkpt>
      <trkpt lat="28.24135" lon="-16.4504">
        <ele>1111</ele>
        <time>2024-03-30T12:06:28.000Z</time>
      </trkpt>
      <trkpt lat="28.24128333333333" lon="-16.450433333333333">
        <ele>1113</ele>
        <time>2024-03-30T12:06:29.000Z</time>
      </trkpt>
      <trkpt lat="28.241216666666666" lon="-16.45045">
        <ele>1116</ele>
        <time>2024-03-30T12:06:30.000Z</time>
      </trkpt>
      <trkpt lat="28.24115" lon="-16.45045">
        <ele>1119</ele>
        <time>2024-03-30T12:06:31.000Z</time>
      </trkpt>
      <trkpt lat="28.2411" lon="-16.450416666666666">
        <ele>1119</ele>
        <time>2024-03-30T12:06:32.000Z</time>
      </trkpt>
      <trkpt lat="28.241066666666665" lon="-16.45035">
        <ele>1120</ele>
        <time>2024-03-30T12:06:33.000Z</time>
      </trkpt>
      <trkpt lat="28.24105" lon="-16.450283333333335">
        <ele>1122</ele>
        <time>2024-03-30T12:06:34.000Z</time>
      </trkpt>
      <trkpt lat="28.241066666666665" lon="-16.4502">
        <ele>1125</ele>
        <time>2024-03-30T12:06:35.000Z</time>
      </trkpt>
      <trkpt lat="28.2411" lon="-16.450116666666666">
        <ele>1128</ele>
        <time>2024-03-30T12:06:36.000Z</time>
      </trkpt>
      <trkpt lat="28.241116666666667" lon="-16.450066666666668">
        <ele>1132</ele>
        <time>2024-03-30T12:06:37.000Z</time>
      </trkpt>
      <trkpt lat="28.24115" lon="-16.450033333333334">
        <ele>1135</ele>
        <time>2024-03-30T12:06:38.000Z</time>
      </trkpt>
      <trkpt lat="28.241233333333334" lon="-16.450016666666667">
        <ele>1136</ele>
        <time>2024-03-30T12:06:39.000Z</time>
      </trkpt>
      <trkpt lat="28.241316666666666" lon="-16.450016666666667">
        <ele>1135</ele>
        <time>2024-03-30T12:06:40.000Z</time>
      </trkpt>
      <trkpt lat="28.241416666666666" lon="-16.45005">
        <ele>1136</ele>
        <time>2024-03-30T12:06:41.000Z</time>
      </trkpt>
      <trkpt lat="28.241516666666666" lon="-16.450116666666666">
        <ele>1138</ele>
        <time>2024-03-30T12:06:42.000Z</time>
      </trkpt>
      <trkpt lat="28.2416" lon="-16.4502">
        <ele>1141</ele>
        <time>2024-03-30T12:06:43.000Z</time>
      </trkpt>
      <trkpt lat="28.24165" lon="-16.450316666666666">
        <ele>1143</ele>
        <time>2024-03-30T12:06:44.000Z</time>
      </trkpt>
      <trkpt lat="28.241666666666667" lon="-16.45045">
        <ele>1145</ele>
        <time>2024-03-30T12:06:45.000Z</time>
      </trkpt>
      <trkpt lat="28.241666666666667" lon="-16.450583333333334">
        <ele>1147</ele>
        <time>2024-03-30T12:06:46.000Z</time>
      </trkpt>
      <trkpt lat="28.24165" lon="-16.450683333333334">
        <ele>1150</ele>
        <time>2024-03-30T12:06:47.000Z</time>
      </trkpt>
      <trkpt lat="28.2416" lon="-16.450783333333334">
        <ele>1152</ele>
        <time>2024-03-30T12:06:48.000Z</time>
      </trkpt>
      <trkpt lat="28.24155" lon="-16.45085">
        <ele>1154</ele>
        <time>2024-03-30T12:06:49.000Z</time>
      </trkpt>
      <trkpt lat="28.241483333333335" lon="-16.4509">
        <ele>1156</ele>
        <time>2024-03-30T12:06:50.000Z</time>
      </trkpt>
      <trkpt lat="28.241416666666666" lon="-16.45095">
        <ele>1157</ele>
        <time>2024-03-30T12:06:51.000Z</time>
      </trkpt>
      <trkpt lat="28.24135" lon="-16.451">
        <ele>1159</ele>
        <time>2024-03-30T12:06:52.000Z</time>
      </trkpt>
      <trkpt lat="28.24128333333333" lon="-16.451033333333335">
        <ele>1161</ele>
        <time>2024-03-30T12:06:53.000Z</time>
      </trkpt>
      <trkpt lat="28.241233333333334" lon="-16.451033333333335">
        <ele>1162</ele>
        <time>2024-03-30T12:06:54.000Z</time>
      </trkpt>
      <trkpt lat="28.24116666666667" lon="-16.450983333333333">
        <ele>1162</ele>
        <time>2024-03-30T12:06:55.000Z</time>
      </trkpt>
      <trkpt lat="28.241116666666667" lon="-16.450916666666668">
        <ele>1162</ele>
        <time>2024-03-30T12:06:56.000Z</time>
      </trkpt>
      <trkpt lat="28.2411" lon="-16.45085">
        <ele>1164</ele>
        <time>2024-03-30T12:06:57.000Z</time>
      </trkpt>
      <trkpt lat="28.241116666666667" lon="-16.450766666666667">
        <ele>1164</ele>
        <time>2024-03-30T12:06:58.000Z</time>
      </trkpt>
      <trkpt lat="28.241183333333332" lon="-16.4507">
        <ele>1164</ele>
        <time>2024-03-30T12:06:59.000Z</time>
      </trkpt>
      <trkpt lat="28.24128333333333" lon="-16.450666666666667">
        <ele>1164</ele>
        <time>2024-03-30T12:07:00.000Z</time>
      </trkpt>
      <trkpt lat="28.241383333333335" lon="-16.4507">
        <ele>1163</ele>
        <time>2024-03-30T12:07:01.000Z</time>
      </trkpt>
      <trkpt lat="28.2415" lon="-16.45075">
        <ele>1162</ele>
        <time>2024-03-30T12:07:02.000Z</time>
      </trkpt>
      <trkpt lat="28.2416" lon="-16.450816666666668">
        <ele>1162</ele>
        <time>2024-03-30T12:07:03.000Z</time>
      </trkpt>
      <trkpt lat="28.241683333333334" lon="-16.450883333333334">
        <ele>1165</ele>
        <time>2024-03-30T12:07:04.000Z</time>
      </trkpt>
      <trkpt lat="28.241766666666667" lon="-16.45095">
        <ele>1166</ele>
        <time>2024-03-30T12:07:05.000Z</time>
      </trkpt>
      <trkpt lat="28.24185" lon="-16.451033333333335">
        <ele>1169</ele>
        <time>2024-03-30T12:07:06.000Z</time>
      </trkpt>
      <trkpt lat="28.2419" lon="-16.45115">
        <ele>1170</ele>
        <time>2024-03-30T12:07:07.000Z</time>
      </trkpt>
      <trkpt lat="28.24195" lon="-16.451266666666665">
        <ele>1171</ele>
        <time>2024-03-30T12:07:08.000Z</time>
      </trkpt>
      <trkpt lat="28.241966666666666" lon="-16.451383333333332">
        <ele>1172</ele>
        <time>2024-03-30T12:07:09.000Z</time>
      </trkpt>
      <trkpt lat="28.24195" lon="-16.4515">
        <ele>1173</ele>
        <time>2024-03-30T12:07:10.000Z</time>
      </trkpt>
      <trkpt lat="28.2419" lon="-16.4516">
        <ele>1173</ele>
        <time>2024-03-30T12:07:11.000Z</time>
      </trkpt>
      <trkpt lat="28.24185" lon="-16.4517">
        <ele>1173</ele>
        <time>2024-03-30T12:07:12.000Z</time>
      </trkpt>
      <trkpt lat="28.241783333333334" lon="-16.451783333333335">
        <ele>1174</ele>
        <time>2024-03-30T12:07:13.000Z</time>
      </trkpt>
      <trkpt lat="28.241716666666665" lon="-16.45185">
        <ele>1175</ele>
        <time>2024-03-30T12:07:14.000Z</time>
      </trkpt>
      <trkpt lat="28.24165" lon="-16.451916666666666">
        <ele>1178</ele>
        <time>2024-03-30T12:07:15.000Z</time>
      </trkpt>
      <trkpt lat="28.241583333333335" lon="-16.45195">
        <ele>1180</ele>
        <time>2024-03-30T12:07:16.000Z</time>
      </trkpt>
      <trkpt lat="28.2415" lon="-16.45195">
        <ele>1180</ele>
        <time>2024-03-30T12:07:17.000Z</time>
      </trkpt>
      <trkpt lat="28.241433333333333" lon="-16.451916666666666">
        <ele>1181</ele>
        <time>2024-03-30T12:07:18.000Z</time>
      </trkpt>
      <trkpt lat="28.241383333333335" lon="-16.451866666666668">
        <ele>1182</ele>
        <time>2024-03-30T12:07:19.000Z</time>
      </trkpt>
      <trkpt lat="28.241333333333333" lon="-16.4518">
        <ele>1183</ele>
        <time>2024-03-30T12:07:20.000Z</time>
      </trkpt>
      <trkpt lat="28.2413" lon="-16.451716666666666">
        <ele>1184</ele>
        <time>2024-03-30T12:07:21.000Z</time>
      </trkpt>
      <trkpt lat="28.24128333333333" lon="-16.451633333333334">
        <ele>1186</ele>
        <time>2024-03-30T12:07:22.000Z</time>
      </trkpt>
      <trkpt lat="28.2413" lon="-16.45155">
        <ele>1188</ele>
        <time>2024-03-30T12:07:23.000Z</time>
      </trkpt>
      <trkpt lat="28.241366666666668" lon="-16.4515">
        <ele>1189</ele>
        <time>2024-03-30T12:07:24.000Z</time>
      </trkpt>
      <trkpt lat="28.241466666666668" lon="-16.45146666666667">
        <ele>1188</ele>
        <time>2024-03-30T12:07:25.000Z</time>
      </trkpt>
      <trkpt lat="28.241583333333335" lon="-16.451483333333332">
        <ele>1185</ele>
        <time>2024-03-30T12:07:26.000Z</time>
      </trkpt>
      <trkpt lat="28.2417" lon="-16.45155">
        <ele>1185</ele>
        <time>2024-03-30T12:07:27.000Z</time>
      </trkpt>
      <trkpt lat="28.2418" lon="-16.451616666666666">
        <ele>1186</ele>
        <time>2024-03-30T12:07:28.000Z</time>
      </trkpt>
      <trkpt lat="28.241883333333334" lon="-16.451733333333333">
        <ele>1187</ele>
        <time>2024-03-30T12:07:29.000Z</time>
      </trkpt>
      <trkpt lat="28.241933333333332" lon="-16.451866666666668">
        <ele>1187</ele>
        <time>2024-03-30T12:07:30.000Z</time>
      </trkpt>
      <trkpt lat="28.241966666666666" lon="-16.452">
        <ele>1187</ele>
        <time>2024-03-30T12:07:31.000Z</time>
      </trkpt>
      <trkpt lat="28.241933333333332" lon="-16.452133333333332">
        <ele>1188</ele>
        <time>2024-03-30T12:07:32.000Z</time>
      </trkpt>
      <trkpt lat="28.2419" lon="-16.45225">
        <ele>1191</ele>
        <time>2024-03-30T12:07:33.000Z</time>
      </trkpt>
      <trkpt lat="28.241833333333332" lon="-16.45235">
        <ele>1192</ele>
        <time>2024-03-30T12:07:34.000Z</time>
      </trkpt>
      <trkpt lat="28.2418" lon="-16.45243333333333">
        <ele>1194</ele>
        <time>2024-03-30T12:07:35.000Z</time>
      </trkpt>
      <trkpt lat="28.24175" lon="-16.452533333333335">
        <ele>1195</ele>
        <time>2024-03-30T12:07:36.000Z</time>
      </trkpt>
      <trkpt lat="28.241683333333334" lon="-16.452616666666668">
        <ele>1194</ele>
        <time>2024-03-30T12:07:37.000Z</time>
      </trkpt>
      <trkpt lat="28.241633333333333" lon="-16.4527">
        <ele>1193</ele>
        <time>2024-03-30T12:07:38.000Z</time>
      </trkpt>
      <trkpt lat="28.24155" lon="-16.452783333333333">
        <ele>1192</ele>
        <time>2024-03-30T12:07:39.000Z</time>
      </trkpt>
      <trkpt lat="28.241466666666668" lon="-16.452883333333332">
        <ele>1190</ele>
        <time>2024-03-30T12:07:40.000Z</time>
      </trkpt>
      <trkpt lat="28.241366666666668" lon="-16.452966666666665">
        <ele>1189</ele>
        <time>2024-03-30T12:07:41.000Z</time>
      </trkpt>
      <trkpt lat="28.24128333333333" lon="-16.45306666666667">
        <ele>1189</ele>
        <time>2024-03-30T12:07:42.000Z</time>
      </trkpt>
      <trkpt lat="28.2412" lon="-16.453166666666668">
        <ele>1189</ele>
        <time>2024-03-30T12:07:43.000Z</time>
      </trkpt>
      <trkpt lat="28.2411" lon="-16.453233333333333">
        <ele>1188</ele>
        <time>2024-03-30T12:07:44.000Z</time>
      </trkpt>
      <trkpt lat="28.241016666666667" lon="-16.453316666666666">
        <ele>1187</ele>
        <time>2024-03-30T12:07:45.000Z</time>
      </trkpt>
      <trkpt lat="28.240916666666667" lon="-16.453383333333335">
        <ele>1186</ele>
        <time>2024-03-30T12:07:46.000Z</time>
      </trkpt>
      <trkpt lat="28.240833333333335" lon="-16.453483333333335">
        <ele>1184</ele>
        <time>2024-03-30T12:07:47.000Z</time>
      </trkpt>
      <trkpt lat="28.240783333333333" lon="-16.453583333333334">
        <ele>1182</ele>
        <time>2024-03-30T12:07:48.000Z</time>
      </trkpt>
      <trkpt lat="28.240733333333335" lon="-16.453683333333334">
        <ele>1182</ele>
        <time>2024-03-30T12:07:49.000Z</time>
      </trkpt>
      <trkpt lat="28.240683333333333" lon="-16.4538">
        <ele>1181</ele>
        <time>2024-03-30T12:07:50.000Z</time>
      </trkpt>
      <trkpt lat="28.240616666666668" lon="-16.453916666666668">
        <ele>1180</ele>
        <time>2024-03-30T12:07:51.000Z</time>
      </trkpt>
      <trkpt lat="28.24053333333333" lon="-16.454033333333335">
        <ele>1180</ele>
        <time>2024-03-30T12:07:52.000Z</time>
      </trkpt>
      <trkpt lat="28.240466666666666" lon="-16.454166666666666">
        <ele>1182</ele>
        <time>2024-03-30T12:07:53.000Z</time>
      </trkpt>
      <trkpt lat="28.2404" lon="-16.454283333333333">
        <ele>1184</ele>
        <time>2024-03-30T12:07:54.000Z</time>
      </trkpt>
      <trkpt lat="28.240316666666665" lon="-16.4544">
        <ele>1184</ele>
        <time>2024-03-30T12:07:55.000Z</time>
      </trkpt>
      <trkpt lat="28.24025" lon="-16.454483333333332">
        <ele>1184</ele>
        <time>2024-03-30T12:07:56.000Z</time>
      </trkpt>
      <trkpt lat="28.240183333333334" lon="-16.45456666666667">
        <ele>1184</ele>
        <time>2024-03-30T12:07:57.000Z</time>
      </trkpt>
      <trkpt lat="28.2401" lon="-16.454666666666668">
        <ele>1183</ele>
        <time>2024-03-30T12:07:58.000Z</time>
      </trkpt>
      <trkpt lat="28.240016666666666" lon="-16.45478333333333">
        <ele>1183</ele>
        <time>2024-03-30T12:07:59.000Z</time>
      </trkpt>
      <trkpt lat="28.239916666666666" lon="-16.454883333333335">
        <ele>1185</ele>
        <time>2024-03-30T12:08:00.000Z</time>
      </trkpt>
      <trkpt lat="28.239833333333333" lon="-16.454966666666667">
        <ele>1187</ele>
        <time>2024-03-30T12:08:01.000Z</time>
      </trkpt>
      <trkpt lat="28.23975" lon="-16.45505">
        <ele>1190</ele>
        <time>2024-03-30T12:08:02.000Z</time>
      </trkpt>
      <trkpt lat="28.23966666666667" lon="-16.455116666666665">
        <ele>1190</ele>
        <time>2024-03-30T12:08:03.000Z</time>
      </trkpt>
      <trkpt lat="28.2396" lon="-16.455166666666667">
        <ele>1190</ele>
        <time>2024-03-30T12:08:04.000Z</time>
      </trkpt>
      <trkpt lat="28.239533333333334" lon="-16.455216666666665">
        <ele>1189</ele>
        <time>2024-03-30T12:08:05.000Z</time>
      </trkpt>
      <trkpt lat="28.23945" lon="-16.455283333333334">
        <ele>1188</ele>
        <time>2024-03-30T12:08:06.000Z</time>
      </trkpt>
      <trkpt lat="28.239366666666665" lon="-16.455333333333332">
        <ele>1187</ele>
        <time>2024-03-30T12:08:07.000Z</time>
      </trkpt>
      <trkpt lat="28.239283333333333" lon="-16.4554">
        <ele>1186</ele>
        <time>2024-03-30T12:08:08.000Z</time>
      </trkpt>
      <trkpt lat="28.2392" lon="-16.455466666666666">
        <ele>1185</ele>
        <time>2024-03-30T12:08:09.000Z</time>
      </trkpt>
      <trkpt lat="28.239133333333335" lon="-16.455533333333335">
        <ele>1185</ele>
        <time>2024-03-30T12:08:10.000Z</time>
      </trkpt>
      <trkpt lat="28.23905" lon="-16.455616666666668">
        <ele>1185</ele>
        <time>2024-03-30T12:08:11.000Z</time>
      </trkpt>
      <trkpt lat="28.238983333333334" lon="-16.455683333333333">
        <ele>1184</ele>
        <time>2024-03-30T12:08:12.000Z</time>
      </trkpt>
      <trkpt lat="28.238883333333334" lon="-16.45575">
        <ele>1184</ele>
        <time>2024-03-30T12:08:13.000Z</time>
      </trkpt>
      <trkpt lat="28.2388" lon="-16.455816666666667">
        <ele>1185</ele>
        <time>2024-03-30T12:08:14.000Z</time>
      </trkpt>
      <trkpt lat="28.238716666666665" lon="-16.4559">
        <ele>1186</ele>
        <time>2024-03-30T12:08:15.000Z</time>
      </trkpt>
      <trkpt lat="28.23865" lon="-16.455983333333332">
        <ele>1187</ele>
        <time>2024-03-30T12:08:16.000Z</time>
      </trkpt>
      <trkpt lat="28.238583333333334" lon="-16.45605">
        <ele>1188</ele>
        <time>2024-03-30T12:08:17.000Z</time>
      </trkpt>
      <trkpt lat="28.2385" lon="-16.456116666666667">
        <ele>1188</ele>
        <time>2024-03-30T12:08:18.000Z</time>
      </trkpt>
      <trkpt lat="28.238416666666666" lon="-16.456166666666668">
        <ele>1189</ele>
        <time>2024-03-30T12:08:19.000Z</time>
      </trkpt>
      <trkpt lat="28.23835" lon="-16.45625">
        <ele>1189</ele>
        <time>2024-03-30T12:08:20.000Z</time>
      </trkpt>
      <trkpt lat="28.238266666666668" lon="-16.456316666666666">
        <ele>1189</ele>
        <time>2024-03-30T12:08:21.000Z</time>
      </trkpt>
      <trkpt lat="28.2382" lon="-16.4564">
        <ele>1187</ele>
        <time>2024-03-30T12:08:22.000Z</time>
      </trkpt>
      <trkpt lat="28.238116666666667" lon="-16.456483333333335">
        <ele>1186</ele>
        <time>2024-03-30T12:08:23.000Z</time>
      </trkpt>
      <trkpt lat="28.238033333333334" lon="-16.45655">
        <ele>1184</ele>
        <time>2024-03-30T12:08:24.000Z</time>
      </trkpt>
      <trkpt lat="28.237933333333334" lon="-16.456633333333333">
        <ele>1184</ele>
        <time>2024-03-30T12:08:25.000Z</time>
      </trkpt>
      <trkpt lat="28.237833333333334" lon="-16.4567">
        <ele>1184</ele>
        <time>2024-03-30T12:08:26.000Z</time>
      </trkpt>
      <trkpt lat="28.23775" lon="-16.456766666666667">
        <ele>1184</ele>
        <time>2024-03-30T12:08:27.000Z</time>
      </trkpt>
      <trkpt lat="28.23765" lon="-16.456833333333332">
        <ele>1184</ele>
        <time>2024-03-30T12:08:28.000Z</time>
      </trkpt>
      <trkpt lat="28.23755" lon="-16.456866666666667">
        <ele>1183</ele>
        <time>2024-03-30T12:08:29.000Z</time>
      </trkpt>
      <trkpt lat="28.23745" lon="-16.456916666666668">
        <ele>1183</ele>
        <time>2024-03-30T12:08:30.000Z</time>
      </trkpt>
      <trkpt lat="28.237366666666667" lon="-16.456966666666666">
        <ele>1182</ele>
        <time>2024-03-30T12:08:31.000Z</time>
      </trkpt>
      <trkpt lat="28.2373" lon="-16.45703333333333">
        <ele>1179</ele>
        <time>2024-03-30T12:08:32.000Z</time>
      </trkpt>
      <trkpt lat="28.237233333333332" lon="-16.457116666666668">
        <ele>1175</ele>
        <time>2024-03-30T12:08:33.000Z</time>
      </trkpt>
      <trkpt lat="28.23715" lon="-16.4572">
        <ele>1171</ele>
        <time>2024-03-30T12:08:34.000Z</time>
      </trkpt>
      <trkpt lat="28.237083333333334" lon="-16.4573">
        <ele>1169</ele>
        <time>2024-03-30T12:08:35.000Z</time>
      </trkpt>
      <trkpt lat="28.237" lon="-16.457366666666665">
        <ele>1168</ele>
        <time>2024-03-30T12:08:36.000Z</time>
      </trkpt>
      <trkpt lat="28.236933333333333" lon="-16.457433333333334">
        <ele>1166</ele>
        <time>2024-03-30T12:08:37.000Z</time>
      </trkpt>
      <trkpt lat="28.23685" lon="-16.457483333333332">
        <ele>1164</ele>
        <time>2024-03-30T12:08:38.000Z</time>
      </trkpt>
      <trkpt lat="28.236766666666668" lon="-16.457533333333334">
        <ele>1160</ele>
        <time>2024-03-30T12:08:39.000Z</time>
      </trkpt>
      <trkpt lat="28.236666666666668" lon="-16.457566666666665">
        <ele>1156</ele>
        <time>2024-03-30T12:08:40.000Z</time>
      </trkpt>
      <trkpt lat="28.23656666666667" lon="-16.457616666666667">
        <ele>1153</ele>
        <time>2024-03-30T12:08:41.000Z</time>
      </trkpt>
      <trkpt lat="28.236466666666665" lon="-16.457666666666668">
        <ele>1149</ele>
        <time>2024-03-30T12:08:42.000Z</time>
      </trkpt>
      <trkpt lat="28.236383333333333" lon="-16.457716666666666">
        <ele>1147</ele>
        <time>2024-03-30T12:08:43.000Z</time>
      </trkpt>
      <trkpt lat="28.236283333333333" lon="-16.45775">
        <ele>1144</ele>
        <time>2024-03-30T12:08:44.000Z</time>
      </trkpt>
      <trkpt lat="28.236166666666666" lon="-16.4578">
        <ele>1141</ele>
        <time>2024-03-30T12:08:45.000Z</time>
      </trkpt>
      <trkpt lat="28.236066666666666" lon="-16.45785">
        <ele>1139</ele>
        <time>2024-03-30T12:08:46.000Z</time>
      </trkpt>
      <trkpt lat="28.235966666666666" lon="-16.4579">
        <ele>1137</ele>
        <time>2024-03-30T12:08:47.000Z</time>
      </trkpt>
      <trkpt lat="28.235866666666666" lon="-16.45795">
        <ele>1136</ele>
        <time>2024-03-30T12:08:48.000Z</time>
      </trkpt>
      <trkpt lat="28.235766666666667" lon="-16.458016666666666">
        <ele>1135</ele>
        <time>2024-03-30T12:08:49.000Z</time>
      </trkpt>
      <trkpt lat="28.235666666666667" lon="-16.458066666666667">
        <ele>1134</ele>
        <time>2024-03-30T12:08:50.000Z</time>
      </trkpt>
      <trkpt lat="28.235566666666667" lon="-16.458116666666665">
        <ele>1134</ele>
        <time>2024-03-30T12:08:51.000Z</time>
      </trkpt>
      <trkpt lat="28.235466666666667" lon="-16.458183333333334">
        <ele>1134</ele>
        <time>2024-03-30T12:08:52.000Z</time>
      </trkpt>
      <trkpt lat="28.235366666666668" lon="-16.458233333333332">
        <ele>1133</ele>
        <time>2024-03-30T12:08:53.000Z</time>
      </trkpt>
      <trkpt lat="28.235266666666668" lon="-16.458283333333334">
        <ele>1130</ele>
        <time>2024-03-30T12:08:54.000Z</time>
      </trkpt>
      <trkpt lat="28.23515" lon="-16.458333333333332">
        <ele>1127</ele>
        <time>2024-03-30T12:08:55.000Z</time>
      </trkpt>
      <trkpt lat="28.235016666666667" lon="-16.4584">
        <ele>1125</ele>
        <time>2024-03-30T12:08:56.000Z</time>
      </trkpt>
      <trkpt lat="28.234883333333332" lon="-16.458466666666666">
        <ele>1124</ele>
        <time>2024-03-30T12:08:57.000Z</time>
      </trkpt>
      <trkpt lat="28.234766666666665" lon="-16.45853333333333">
        <ele>1125</ele>
        <time>2024-03-30T12:08:58.000Z</time>
      </trkpt>
      <trkpt lat="28.234633333333335" lon="-16.458566666666666">
        <ele>1125</ele>
        <time>2024-03-30T12:08:59.000Z</time>
      </trkpt>
      <trkpt lat="28.234533333333335" lon="-16.4586">
        <ele>1124</ele>
        <time>2024-03-30T12:09:00.000Z</time>
      </trkpt>
      <trkpt lat="28.23443333333333" lon="-16.458616666666668">
        <ele>1122</ele>
        <time>2024-03-30T12:09:01.000Z</time>
      </trkpt>
      <trkpt lat="28.23431666666667" lon="-16.458633333333335">
        <ele>1119</ele>
        <time>2024-03-30T12:09:02.000Z</time>
      </trkpt>
      <trkpt lat="28.2342" lon="-16.458666666666666">
        <ele>1117</ele>
        <time>2024-03-30T12:09:03.000Z</time>
      </trkpt>
      <trkpt lat="28.234083333333334" lon="-16.458716666666668">
        <ele>1114</ele>
        <time>2024-03-30T12:09:04.000Z</time>
      </trkpt>
      <trkpt lat="28.23395" lon="-16.45875">
        <ele>1113</ele>
        <time>2024-03-30T12:09:05.000Z</time>
      </trkpt>
      <trkpt lat="28.233816666666666" lon="-16.458783333333333">
        <ele>1113</ele>
        <time>2024-03-30T12:09:06.000Z</time>
      </trkpt>
      <trkpt lat="28.23368333333333" lon="-16.458816666666667">
        <ele>1115</ele>
        <time>2024-03-30T12:09:07.000Z</time>
      </trkpt>
      <trkpt lat="28.23356666666667" lon="-16.458833333333335">
        <ele>1116</ele>
        <time>2024-03-30T12:09:08.000Z</time>
      </trkpt>
      <trkpt lat="28.233466666666665" lon="-16.458866666666665">
        <ele>1118</ele>
        <time>2024-03-30T12:09:09.000Z</time>
      </trkpt>
      <trkpt lat="28.23335" lon="-16.4589">
        <ele>1120</ele>
        <time>2024-03-30T12:09:10.000Z</time>
      </trkpt>
      <trkpt lat="28.23325" lon="-16.458933333333334">
        <ele>1122</ele>
        <time>2024-03-30T12:09:11.000Z</time>
      </trkpt>
      <trkpt lat="28.23315" lon="-16.458966666666665">
        <ele>1125</ele>
        <time>2024-03-30T12:09:12.000Z</time>
      </trkpt>
      <trkpt lat="28.233066666666666" lon="-16.459">
        <ele>1127</ele>
        <time>2024-03-30T12:09:13.000Z</time>
      </trkpt>
      <trkpt lat="28.232983333333333" lon="-16.459033333333334">
        <ele>1129</ele>
        <time>2024-03-30T12:09:14.000Z</time>
      </trkpt>
      <trkpt lat="28.2329" lon="-16.459066666666665">
        <ele>1129</ele>
        <time>2024-03-30T12:09:15.000Z</time>
      </trkpt>
      <trkpt lat="28.23281666666667" lon="-16.4591">
        <ele>1129</ele>
        <time>2024-03-30T12:09:16.000Z</time>
      </trkpt>
      <trkpt lat="28.232716666666665" lon="-16.45915">
        <ele>1129</ele>
        <time>2024-03-30T12:09:17.000Z</time>
      </trkpt>
      <trkpt lat="28.232633333333332" lon="-16.459216666666666">
        <ele>1129</ele>
        <time>2024-03-30T12:09:18.000Z</time>
      </trkpt>
      <trkpt lat="28.23255" lon="-16.459266666666668">
        <ele>1130</ele>
        <time>2024-03-30T12:09:19.000Z</time>
      </trkpt>
      <trkpt lat="28.23245" lon="-16.4593">
        <ele>1132</ele>
        <time>2024-03-30T12:09:20.000Z</time>
      </trkpt>
      <trkpt lat="28.232366666666667" lon="-16.4593">
        <ele>1133</ele>
        <time>2024-03-30T12:09:21.000Z</time>
      </trkpt>
      <trkpt lat="28.232283333333335" lon="-16.45925">
        <ele>1133</ele>
        <time>2024-03-30T12:09:22.000Z</time>
      </trkpt>
      <trkpt lat="28.232216666666666" lon="-16.459183333333332">
        <ele>1135</ele>
        <time>2024-03-30T12:09:23.000Z</time>
      </trkpt>
      <trkpt lat="28.232166666666668" lon="-16.459116666666667">
        <ele>1138</ele>
        <time>2024-03-30T12:09:24.000Z</time>
      </trkpt>
      <trkpt lat="28.232116666666666" lon="-16.459066666666665">
        <ele>1138</ele>
        <time>2024-03-30T12:09:25.000Z</time>
      </trkpt>
      <trkpt lat="28.23205" lon="-16.459016666666667">
        <ele>1138</ele>
        <time>2024-03-30T12:09:26.000Z</time>
      </trkpt>
      <trkpt lat="28.232" lon="-16.45895">
        <ele>1136</ele>
        <time>2024-03-30T12:09:27.000Z</time>
      </trkpt>
      <trkpt lat="28.231916666666667" lon="-16.4589">
        <ele>1135</ele>
        <time>2024-03-30T12:09:28.000Z</time>
      </trkpt>
      <trkpt lat="28.231833333333334" lon="-16.458849999999998">
        <ele>1134</ele>
        <time>2024-03-30T12:09:29.000Z</time>
      </trkpt>
      <trkpt lat="28.231766666666665" lon="-16.4588">
        <ele>1134</ele>
        <time>2024-03-30T12:09:30.000Z</time>
      </trkpt>
      <trkpt lat="28.231766666666665" lon="-16.458733333333335">
        <ele>1131</ele>
        <time>2024-03-30T12:09:31.000Z</time>
      </trkpt>
      <trkpt lat="28.231833333333334" lon="-16.458666666666666">
        <ele>1126</ele>
        <time>2024-03-30T12:09:32.000Z</time>
      </trkpt>
      <trkpt lat="28.231933333333334" lon="-16.4586">
        <ele>1120</ele>
        <time>2024-03-30T12:09:33.000Z</time>
      </trkpt>
      <trkpt lat="28.232066666666668" lon="-16.458566666666666">
        <ele>1116</ele>
        <time>2024-03-30T12:09:34.000Z</time>
      </trkpt>
      <trkpt lat="28.23218333333333" lon="-16.45855">
        <ele>1116</ele>
        <time>2024-03-30T12:09:35.000Z</time>
      </trkpt>
      <trkpt lat="28.232283333333335" lon="-16.45853333333333">
        <ele>1117</ele>
        <time>2024-03-30T12:09:36.000Z</time>
      </trkpt>
      <trkpt lat="28.232366666666667" lon="-16.4585">
        <ele>1117</ele>
        <time>2024-03-30T12:09:37.000Z</time>
      </trkpt>
      <trkpt lat="28.232466666666667" lon="-16.458483333333334">
        <ele>1115</ele>
        <time>2024-03-30T12:09:38.000Z</time>
      </trkpt>
      <trkpt lat="28.232566666666667" lon="-16.458433333333332">
        <ele>1112</ele>
        <time>2024-03-30T12:09:39.000Z</time>
      </trkpt>
      <trkpt lat="28.2327" lon="-16.458383333333334">
        <ele>1112</ele>
        <time>2024-03-30T12:09:40.000Z</time>
      </trkpt>
      <trkpt lat="28.232833333333332" lon="-16.458333333333332">
        <ele>1115</ele>
        <time>2024-03-30T12:09:41.000Z</time>
      </trkpt>
      <trkpt lat="28.23293333333333" lon="-16.458333333333332">
        <ele>1120</ele>
        <time>2024-03-30T12:09:42.000Z</time>
      </trkpt>
      <trkpt lat="28.233016666666668" lon="-16.458366666666667">
        <ele>1124</ele>
        <time>2024-03-30T12:09:43.000Z</time>
      </trkpt>
      <trkpt lat="28.233066666666666" lon="-16.45841666666667">
        <ele>1124</ele>
        <time>2024-03-30T12:09:44.000Z</time>
      </trkpt>
      <trkpt lat="28.233083333333333" lon="-16.458466666666666">
        <ele>1122</ele>
        <time>2024-03-30T12:09:45.000Z</time>
      </trkpt>
      <trkpt lat="28.233133333333335" lon="-16.4585">
        <ele>1120</ele>
        <time>2024-03-30T12:09:46.000Z</time>
      </trkpt>
      <trkpt lat="28.233216666666667" lon="-16.4585">
        <ele>1118</ele>
        <time>2024-03-30T12:09:47.000Z</time>
      </trkpt>
      <trkpt lat="28.233366666666665" lon="-16.458466666666666">
        <ele>1118</ele>
        <time>2024-03-30T12:09:48.000Z</time>
      </trkpt>
      <trkpt lat="28.2335" lon="-16.45841666666667">
        <ele>1122</ele>
        <time>2024-03-30T12:09:49.000Z</time>
      </trkpt>
      <trkpt lat="28.2336" lon="-16.458366666666667">
        <ele>1129</ele>
        <time>2024-03-30T12:09:50.000Z</time>
      </trkpt>
      <trkpt lat="28.233633333333334" lon="-16.458333333333332">
        <ele>1133</ele>
        <time>2024-03-30T12:09:51.000Z</time>
      </trkpt>
      <trkpt lat="28.23365" lon="-16.458333333333332">
        <ele>1135</ele>
        <time>2024-03-30T12:09:52.000Z</time>
      </trkpt>
      <trkpt lat="28.233666666666668" lon="-16.458333333333332">
        <ele>1135</ele>
        <time>2024-03-30T12:09:53.000Z</time>
      </trkpt>
      <trkpt lat="28.2337" lon="-16.45835">
        <ele>1133</ele>
        <time>2024-03-30T12:09:54.000Z</time>
      </trkpt>
      <trkpt lat="28.2338" lon="-16.458333333333332">
        <ele>1130</ele>
        <time>2024-03-30T12:09:55.000Z</time>
      </trkpt>
      <trkpt lat="28.2339" lon="-16.4583">
        <ele>1129</ele>
        <time>2024-03-30T12:09:56.000Z</time>
      </trkpt>
      <trkpt lat="28.233983333333335" lon="-16.45825">
        <ele>1129</ele>
        <time>2024-03-30T12:09:57.000Z</time>
      </trkpt>
      <trkpt lat="28.234033333333333" lon="-16.458216666666665">
        <ele>1130</ele>
        <time>2024-03-30T12:09:58.000Z</time>
      </trkpt>
      <trkpt lat="28.234066666666667" lon="-16.458183333333334">
        <ele>1129</ele>
        <time>2024-03-30T12:09:59.000Z</time>
      </trkpt>
      <trkpt lat="28.234133333333332" lon="-16.458166666666667">
        <ele>1127</ele>
        <time>2024-03-30T12:10:00.000Z</time>
      </trkpt>
      <trkpt lat="28.2342" lon="-16.458133333333333">
        <ele>1123</ele>
        <time>2024-03-30T12:10:01.000Z</time>
      </trkpt>
      <trkpt lat="28.23431666666667" lon="-16.4581">
        <ele>1118</ele>
        <time>2024-03-30T12:10:02.000Z</time>
      </trkpt>
      <trkpt lat="28.234416666666668" lon="-16.458033333333333">
        <ele>1116</ele>
        <time>2024-03-30T12:10:03.000Z</time>
      </trkpt>
      <trkpt lat="28.234516666666668" lon="-16.457966666666668">
        <ele>1116</ele>
        <time>2024-03-30T12:10:04.000Z</time>
      </trkpt>
      <trkpt lat="28.234583333333333" lon="-16.4579">
        <ele>1117</ele>
        <time>2024-03-30T12:10:05.000Z</time>
      </trkpt>
      <trkpt lat="28.234633333333335" lon="-16.45785">
        <ele>1116</ele>
        <time>2024-03-30T12:10:06.000Z</time>
      </trkpt>
      <trkpt lat="28.234683333333333" lon="-16.4578">
        <ele>1114</ele>
        <time>2024-03-30T12:10:07.000Z</time>
      </trkpt>
      <trkpt lat="28.234766666666665" lon="-16.457733333333334">
        <ele>1110</ele>
        <time>2024-03-30T12:10:08.000Z</time>
      </trkpt>
      <trkpt lat="28.234866666666665" lon="-16.457683333333332">
        <ele>1106</ele>
        <time>2024-03-30T12:10:09.000Z</time>
      </trkpt>
      <trkpt lat="28.234966666666665" lon="-16.457633333333334">
        <ele>1104</ele>
        <time>2024-03-30T12:10:10.000Z</time>
      </trkpt>
      <trkpt lat="28.235083333333332" lon="-16.457583333333332">
        <ele>1103</ele>
        <time>2024-03-30T12:10:11.000Z</time>
      </trkpt>
      <trkpt lat="28.23518333333333" lon="-16.457533333333334">
        <ele>1102</ele>
        <time>2024-03-30T12:10:12.000Z</time>
      </trkpt>
      <trkpt lat="28.235266666666668" lon="-16.457483333333332">
        <ele>1101</ele>
        <time>2024-03-30T12:10:13.000Z</time>
      </trkpt>
      <trkpt lat="28.235366666666668" lon="-16.457433333333334">
        <ele>1099</ele>
        <time>2024-03-30T12:10:14.000Z</time>
      </trkpt>
      <trkpt lat="28.235466666666667" lon="-16.457383333333333">
        <ele>1095</ele>
        <time>2024-03-30T12:10:15.000Z</time>
      </trkpt>
      <trkpt lat="28.235566666666667" lon="-16.457333333333334">
        <ele>1091</ele>
        <time>2024-03-30T12:10:16.000Z</time>
      </trkpt>
      <trkpt lat="28.235683333333334" lon="-16.457266666666666">
        <ele>1088</ele>
        <time>2024-03-30T12:10:17.000Z</time>
      </trkpt>
      <trkpt lat="28.2358" lon="-16.457216666666667">
        <ele>1086</ele>
        <time>2024-03-30T12:10:18.000Z</time>
      </trkpt>
      <trkpt lat="28.2359" lon="-16.457183333333333">
        <ele>1085</ele>
        <time>2024-03-30T12:10:19.000Z</time>
      </trkpt>
      <trkpt lat="28.236016666666668" lon="-16.45715">
        <ele>1084</ele>
        <time>2024-03-30T12:10:20.000Z</time>
      </trkpt>
      <trkpt lat="28.236116666666668" lon="-16.4571">
        <ele>1084</ele>
        <time>2024-03-30T12:10:21.000Z</time>
      </trkpt>
      <trkpt lat="28.236183333333333" lon="-16.45705">
        <ele>1084</ele>
        <time>2024-03-30T12:10:22.000Z</time>
      </trkpt>
      <trkpt lat="28.236266666666666" lon="-16.456983333333334">
        <ele>1084</ele>
        <time>2024-03-30T12:10:23.000Z</time>
      </trkpt>
      <trkpt lat="28.236333333333334" lon="-16.456916666666668">
        <ele>1082</ele>
        <time>2024-03-30T12:10:24.000Z</time>
      </trkpt>
      <trkpt lat="28.236416666666667" lon="-16.45685">
        <ele>1079</ele>
        <time>2024-03-30T12:10:25.000Z</time>
      </trkpt>
      <trkpt lat="28.2365" lon="-16.4568">
        <ele>1076</ele>
        <time>2024-03-30T12:10:26.000Z</time>
      </trkpt>
      <trkpt lat="28.236583333333332" lon="-16.456733333333332">
        <ele>1073</ele>
        <time>2024-03-30T12:10:27.000Z</time>
      </trkpt>
      <trkpt lat="28.236683333333332" lon="-16.456666666666667">
        <ele>1071</ele>
        <time>2024-03-30T12:10:28.000Z</time>
      </trkpt>
      <trkpt lat="28.236766666666668" lon="-16.456616666666665">
        <ele>1070</ele>
        <time>2024-03-30T12:10:29.000Z</time>
      </trkpt>
      <trkpt lat="28.23685" lon="-16.456566666666667">
        <ele>1069</ele>
        <time>2024-03-30T12:10:30.000Z</time>
      </trkpt>
      <trkpt lat="28.236933333333333" lon="-16.456516666666666">
        <ele>1068</ele>
        <time>2024-03-30T12:10:31.000Z</time>
      </trkpt>
      <trkpt lat="28.237016666666666" lon="-16.456466666666667">
        <ele>1067</ele>
        <time>2024-03-30T12:10:32.000Z</time>
      </trkpt>
      <trkpt lat="28.2371" lon="-16.456433333333333">
        <ele>1065</ele>
        <time>2024-03-30T12:10:33.000Z</time>
      </trkpt>
      <trkpt lat="28.2372" lon="-16.456383333333335">
        <ele>1064</ele>
        <time>2024-03-30T12:10:34.000Z</time>
      </trkpt>
      <trkpt lat="28.237283333333334" lon="-16.456316666666666">
        <ele>1062</ele>
        <time>2024-03-30T12:10:35.000Z</time>
      </trkpt>
      <trkpt lat="28.237366666666667" lon="-16.45628333333333">
        <ele>1061</ele>
        <time>2024-03-30T12:10:36.000Z</time>
      </trkpt>
      <trkpt lat="28.237433333333332" lon="-16.456233333333333">
        <ele>1060</ele>
        <time>2024-03-30T12:10:37.000Z</time>
      </trkpt>
      <trkpt lat="28.237516666666668" lon="-16.456183333333332">
        <ele>1058</ele>
        <time>2024-03-30T12:10:38.000Z</time>
      </trkpt>
      <trkpt lat="28.237566666666666" lon="-16.456116666666667">
        <ele>1055</ele>
        <time>2024-03-30T12:10:39.000Z</time>
      </trkpt>
      <trkpt lat="28.237633333333335" lon="-16.45605">
        <ele>1052</ele>
        <time>2024-03-30T12:10:40.000Z</time>
      </trkpt>
      <trkpt lat="28.237716666666667" lon="-16.455966666666665">
        <ele>1050</ele>
        <time>2024-03-30T12:10:41.000Z</time>
      </trkpt>
      <trkpt lat="28.237783333333333" lon="-16.455883333333333">
        <ele>1048</ele>
        <time>2024-03-30T12:10:42.000Z</time>
      </trkpt>
      <trkpt lat="28.237866666666665" lon="-16.455816666666667">
        <ele>1047</ele>
        <time>2024-03-30T12:10:43.000Z</time>
      </trkpt>
      <trkpt lat="28.23795" lon="-16.45575">
        <ele>1046</ele>
        <time>2024-03-30T12:10:44.000Z</time>
      </trkpt>
      <trkpt lat="28.238033333333334" lon="-16.455683333333333">
        <ele>1045</ele>
        <time>2024-03-30T12:10:45.000Z</time>
      </trkpt>
      <trkpt lat="28.238133333333334" lon="-16.455616666666668">
        <ele>1045</ele>
        <time>2024-03-30T12:10:46.000Z</time>
      </trkpt>
      <trkpt lat="28.238233333333334" lon="-16.45555">
        <ele>1045</ele>
        <time>2024-03-30T12:10:47.000Z</time>
      </trkpt>
      <trkpt lat="28.238316666666666" lon="-16.4555">
        <ele>1046</ele>
        <time>2024-03-30T12:10:48.000Z</time>
      </trkpt>
      <trkpt lat="28.2384" lon="-16.45545">
        <ele>1047</ele>
        <time>2024-03-30T12:10:49.000Z</time>
      </trkpt>
      <trkpt lat="28.238483333333335" lon="-16.4554">
        <ele>1047</ele>
        <time>2024-03-30T12:10:50.000Z</time>
      </trkpt>
      <trkpt lat="28.238566666666667" lon="-16.45535">
        <ele>1045</ele>
        <time>2024-03-30T12:10:51.000Z</time>
      </trkpt>
      <trkpt lat="28.23865" lon="-16.455283333333334">
        <ele>1044</ele>
        <time>2024-03-30T12:10:52.000Z</time>
      </trkpt>
      <trkpt lat="28.238766666666667" lon="-16.455216666666665">
        <ele>1043</ele>
        <time>2024-03-30T12:10:53.000Z</time>
      </trkpt>
      <trkpt lat="28.238883333333334" lon="-16.45515">
        <ele>1043</ele>
        <time>2024-03-30T12:10:54.000Z</time>
      </trkpt>
      <trkpt lat="28.239" lon="-16.4551">
        <ele>1044</ele>
        <time>2024-03-30T12:10:55.000Z</time>
      </trkpt>
      <trkpt lat="28.2391" lon="-16.455033333333333">
        <ele>1045</ele>
        <time>2024-03-30T12:10:56.000Z</time>
      </trkpt>
      <trkpt lat="28.2392" lon="-16.454983333333335">
        <ele>1045</ele>
        <time>2024-03-30T12:10:57.000Z</time>
      </trkpt>
      <trkpt lat="28.2393" lon="-16.454933333333333">
        <ele>1044</ele>
        <time>2024-03-30T12:10:58.000Z</time>
      </trkpt>
      <trkpt lat="28.2394" lon="-16.454916666666666">
        <ele>1044</ele>
        <time>2024-03-30T12:10:59.000Z</time>
      </trkpt>
      <trkpt lat="28.239516666666667" lon="-16.454883333333335">
        <ele>1043</ele>
        <time>2024-03-30T12:11:00.000Z</time>
      </trkpt>
      <trkpt lat="28.23965" lon="-16.454883333333335">
        <ele>1042</ele>
        <time>2024-03-30T12:11:01.000Z</time>
      </trkpt>
      <trkpt lat="28.239766666666668" lon="-16.454866666666668">
        <ele>1042</ele>
        <time>2024-03-30T12:11:02.000Z</time>
      </trkpt>
      <trkpt lat="28.239883333333335" lon="-16.45485">
        <ele>1043</ele>
        <time>2024-03-30T12:11:03.000Z</time>
      </trkpt>
      <trkpt lat="28.239983333333335" lon="-16.454833333333333">
        <ele>1044</ele>
        <time>2024-03-30T12:11:04.000Z</time>
      </trkpt>
      <trkpt lat="28.2401" lon="-16.454816666666666">
        <ele>1046</ele>
        <time>2024-03-30T12:11:05.000Z</time>
      </trkpt>
      <trkpt lat="28.240216666666665" lon="-16.454816666666666">
        <ele>1050</ele>
        <time>2024-03-30T12:11:06.000Z</time>
      </trkpt>
      <trkpt lat="28.240316666666665" lon="-16.4548">
        <ele>1054</ele>
        <time>2024-03-30T12:11:07.000Z</time>
      </trkpt>
      <trkpt lat="28.2404" lon="-16.4548">
        <ele>1058</ele>
        <time>2024-03-30T12:11:08.000Z</time>
      </trkpt>
      <trkpt lat="28.240466666666666" lon="-16.454816666666666">
        <ele>1060</ele>
        <time>2024-03-30T12:11:09.000Z</time>
      </trkpt>
      <trkpt lat="28.240516666666668" lon="-16.454816666666666">
        <ele>1061</ele>
        <time>2024-03-30T12:11:10.000Z</time>
      </trkpt>
      <trkpt lat="28.240566666666666" lon="-16.4548">
        <ele>1061</ele>
        <time>2024-03-30T12:11:11.000Z</time>
      </trkpt>
      <trkpt lat="28.240633333333335" lon="-16.45478333333333">
        <ele>1060</ele>
        <time>2024-03-30T12:11:12.000Z</time>
      </trkpt>
      <trkpt lat="28.2407" lon="-16.454766666666668">
        <ele>1059</ele>
        <time>2024-03-30T12:11:13.000Z</time>
      </trkpt>
      <trkpt lat="28.240783333333333" lon="-16.454733333333333">
        <ele>1058</ele>
        <time>2024-03-30T12:11:14.000Z</time>
      </trkpt>
      <trkpt lat="28.240883333333333" lon="-16.4547">
        <ele>1058</ele>
        <time>2024-03-30T12:11:15.000Z</time>
      </trkpt>
      <trkpt lat="28.240966666666665" lon="-16.45468333333333">
        <ele>1058</ele>
        <time>2024-03-30T12:11:16.000Z</time>
      </trkpt>
      <trkpt lat="28.24105" lon="-16.454666666666668">
        <ele>1060</ele>
        <time>2024-03-30T12:11:17.000Z</time>
      </trkpt>
      <trkpt lat="28.2411" lon="-16.45465">
        <ele>1060</ele>
        <time>2024-03-30T12:11:18.000Z</time>
      </trkpt>
      <trkpt lat="28.24115" lon="-16.454616666666666">
        <ele>1061</ele>
        <time>2024-03-30T12:11:19.000Z</time>
      </trkpt>
      <trkpt lat="28.2412" lon="-16.454583333333332">
        <ele>1062</ele>
        <time>2024-03-30T12:11:20.000Z</time>
      </trkpt>
      <trkpt lat="28.241216666666666" lon="-16.454533333333334">
        <ele>1063</ele>
        <time>2024-03-30T12:11:21.000Z</time>
      </trkpt>
      <trkpt lat="28.241183333333332" lon="-16.454483333333332">
        <ele>1064</ele>
        <time>2024-03-30T12:11:22.000Z</time>
      </trkpt>
      <trkpt lat="28.241116666666667" lon="-16.454466666666665">
        <ele>1063</ele>
        <time>2024-03-30T12:11:23.000Z</time>
      </trkpt>
      <trkpt lat="28.241016666666667" lon="-16.454483333333332">
        <ele>1062</ele>
        <time>2024-03-30T12:11:24.000Z</time>
      </trkpt>
      <trkpt lat="28.240933333333334" lon="-16.454583333333332">
        <ele>1062</ele>
        <time>2024-03-30T12:11:25.000Z</time>
      </trkpt>
      <trkpt lat="28.2409" lon="-16.454733333333333">
        <ele>1061</ele>
        <time>2024-03-30T12:11:26.000Z</time>
      </trkpt>
      <trkpt lat="28.2409" lon="-16.454866666666668">
        <ele>1060</ele>
        <time>2024-03-30T12:11:27.000Z</time>
      </trkpt>
      <trkpt lat="28.24095" lon="-16.455016666666666">
        <ele>1058</ele>
        <time>2024-03-30T12:11:28.000Z</time>
      </trkpt>
      <trkpt lat="28.241033333333334" lon="-16.455116666666665">
        <ele>1057</ele>
        <time>2024-03-30T12:11:29.000Z</time>
      </trkpt>
      <trkpt lat="28.241116666666667" lon="-16.4552">
        <ele>1056</ele>
        <time>2024-03-30T12:11:30.000Z</time>
      </trkpt>
      <trkpt lat="28.241216666666666" lon="-16.455266666666667">
        <ele>1056</ele>
        <time>2024-03-30T12:11:31.000Z</time>
      </trkpt>
      <trkpt lat="28.241316666666666" lon="-16.4553">
        <ele>1056</ele>
        <time>2024-03-30T12:11:32.000Z</time>
      </trkpt>
      <trkpt lat="28.2414" lon="-16.45531666666667">
        <ele>1056</ele>
        <time>2024-03-30T12:11:33.000Z</time>
      </trkpt>
      <trkpt lat="28.241483333333335" lon="-16.455333333333332">
        <ele>1058</ele>
        <time>2024-03-30T12:11:34.000Z</time>
      </trkpt>
      <trkpt lat="28.241566666666667" lon="-16.455333333333332">
        <ele>1058</ele>
        <time>2024-03-30T12:11:35.000Z</time>
      </trkpt>
      <trkpt lat="28.24165" lon="-16.45531666666667">
        <ele>1058</ele>
        <time>2024-03-30T12:11:36.000Z</time>
      </trkpt>
      <trkpt lat="28.241716666666665" lon="-16.455283333333334">
        <ele>1058</ele>
        <time>2024-03-30T12:11:37.000Z</time>
      </trkpt>
      <trkpt lat="28.2418" lon="-16.455233333333332">
        <ele>1058</ele>
        <time>2024-03-30T12:11:38.000Z</time>
      </trkpt>
      <trkpt lat="28.24185" lon="-16.455183333333334">
        <ele>1059</ele>
        <time>2024-03-30T12:11:39.000Z</time>
      </trkpt>
      <trkpt lat="28.2419" lon="-16.45515">
        <ele>1061</ele>
        <time>2024-03-30T12:11:40.000Z</time>
      </trkpt>
      <trkpt lat="28.24195" lon="-16.4551">
        <ele>1062</ele>
        <time>2024-03-30T12:11:41.000Z</time>
      </trkpt>
      <trkpt lat="28.241983333333334" lon="-16.455066666666667">
        <ele>1064</ele>
        <time>2024-03-30T12:11:42.000Z</time>
      </trkpt>
      <trkpt lat="28.24205" lon="-16.455033333333333">
        <ele>1066</ele>
        <time>2024-03-30T12:11:43.000Z</time>
      </trkpt>
      <trkpt lat="28.242116666666668" lon="-16.455016666666666">
        <ele>1069</ele>
        <time>2024-03-30T12:11:44.000Z</time>
      </trkpt>
      <trkpt lat="28.242183333333333" lon="-16.455">
        <ele>1072</ele>
        <time>2024-03-30T12:11:45.000Z</time>
      </trkpt>
      <trkpt lat="28.242233333333335" lon="-16.454983333333335">
        <ele>1073</ele>
        <time>2024-03-30T12:11:46.000Z</time>
      </trkpt>
      <trkpt lat="28.242283333333333" lon="-16.454933333333333">
        <ele>1075</ele>
        <time>2024-03-30T12:11:47.000Z</time>
      </trkpt>
      <trkpt lat="28.242316666666667" lon="-16.454883333333335">
        <ele>1077</ele>
        <time>2024-03-30T12:11:48.000Z</time>
      </trkpt>
      <trkpt lat="28.242366666666666" lon="-16.454833333333333">
        <ele>1080</ele>
        <time>2024-03-30T12:11:49.000Z</time>
      </trkpt>
      <trkpt lat="28.2424" lon="-16.45478333333333">
        <ele>1083</ele>
        <time>2024-03-30T12:11:50.000Z</time>
      </trkpt>
      <trkpt lat="28.242416666666667" lon="-16.45475">
        <ele>1085</ele>
        <time>2024-03-30T12:11:51.000Z</time>
      </trkpt>
      <trkpt lat="28.2424" lon="-16.4547">
        <ele>1087</ele>
        <time>2024-03-30T12:11:52.000Z</time>
      </trkpt>
      <trkpt lat="28.24235" lon="-16.454666666666668">
        <ele>1088</ele>
        <time>2024-03-30T12:11:53.000Z</time>
      </trkpt>
      <trkpt lat="28.24225" lon="-16.454666666666668">
        <ele>1088</ele>
        <time>2024-03-30T12:11:54.000Z</time>
      </trkpt>
      <trkpt lat="28.242133333333335" lon="-16.454733333333333">
        <ele>1089</ele>
        <time>2024-03-30T12:11:55.000Z</time>
      </trkpt>
      <trkpt lat="28.24205" lon="-16.45485">
        <ele>1092</ele>
        <time>2024-03-30T12:11:56.000Z</time>
      </trkpt>
      <trkpt lat="28.242016666666668" lon="-16.455">
        <ele>1093</ele>
        <time>2024-03-30T12:11:57.000Z</time>
      </trkpt>
      <trkpt lat="28.242" lon="-16.45515">
        <ele>1095</ele>
        <time>2024-03-30T12:11:58.000Z</time>
      </trkpt>
      <trkpt lat="28.24205" lon="-16.45531666666667">
        <ele>1096</ele>
        <time>2024-03-30T12:11:59.000Z</time>
      </trkpt>
      <trkpt lat="28.242116666666668" lon="-16.45545">
        <ele>1098</ele>
        <time>2024-03-30T12:12:00.000Z</time>
      </trkpt>
      <trkpt lat="28.242183333333333" lon="-16.45555">
        <ele>1100</ele>
        <time>2024-03-30T12:12:01.000Z</time>
      </trkpt>
      <trkpt lat="28.24225" lon="-16.455633333333335">
        <ele>1103</ele>
        <time>2024-03-30T12:12:02.000Z</time>
      </trkpt>
      <trkpt lat="28.242333333333335" lon="-16.4557">
        <ele>1105</ele>
        <time>2024-03-30T12:12:03.000Z</time>
      </trkpt>
      <trkpt lat="28.2424" lon="-16.455733333333335">
        <ele>1105</ele>
        <time>2024-03-30T12:12:04.000Z</time>
      </trkpt>
      <trkpt lat="28.242483333333332" lon="-16.455766666666666">
        <ele>1105</ele>
        <time>2024-03-30T12:12:05.000Z</time>
      </trkpt>
      <trkpt lat="28.242566666666665" lon="-16.455766666666666">
        <ele>1106</ele>
        <time>2024-03-30T12:12:06.000Z</time>
      </trkpt>
      <trkpt lat="28.24266666666667" lon="-16.455733333333335">
        <ele>1108</ele>
        <time>2024-03-30T12:12:07.000Z</time>
      </trkpt>
      <trkpt lat="28.242733333333334" lon="-16.455666666666666">
        <ele>1111</ele>
        <time>2024-03-30T12:12:08.000Z</time>
      </trkpt>
      <trkpt lat="28.24275" lon="-16.4556">
        <ele>1114</ele>
        <time>2024-03-30T12:12:09.000Z</time>
      </trkpt>
      <trkpt lat="28.242733333333334" lon="-16.455533333333335">
        <ele>1115</ele>
        <time>2024-03-30T12:12:10.000Z</time>
      </trkpt>
      <trkpt lat="28.2427" lon="-16.4555">
        <ele>1117</ele>
        <time>2024-03-30T12:12:11.000Z</time>
      </trkpt>
      <trkpt lat="28.242633333333334" lon="-16.455483333333333">
        <ele>1119</ele>
        <time>2024-03-30T12:12:12.000Z</time>
      </trkpt>
      <trkpt lat="28.24255" lon="-16.455483333333333">
        <ele>1120</ele>
        <time>2024-03-30T12:12:13.000Z</time>
      </trkpt>
      <trkpt lat="28.242466666666665" lon="-16.455566666666666">
        <ele>1120</ele>
        <time>2024-03-30T12:12:14.000Z</time>
      </trkpt>
      <trkpt lat="28.2424" lon="-16.455683333333333">
        <ele>1119</ele>
        <time>2024-03-30T12:12:15.000Z</time>
      </trkpt>
      <trkpt lat="28.242383333333333" lon="-16.455866666666665">
        <ele>1119</ele>
        <time>2024-03-30T12:12:16.000Z</time>
      </trkpt>
      <trkpt lat="28.2424" lon="-16.45605">
        <ele>1122</ele>
        <time>2024-03-30T12:12:17.000Z</time>
      </trkpt>
      <trkpt lat="28.24245" lon="-16.4562">
        <ele>1126</ele>
        <time>2024-03-30T12:12:18.000Z</time>
      </trkpt>
      <trkpt lat="28.242566666666665" lon="-16.4563">
        <ele>1128</ele>
        <time>2024-03-30T12:12:19.000Z</time>
      </trkpt>
      <trkpt lat="28.24266666666667" lon="-16.45635">
        <ele>1130</ele>
        <time>2024-03-30T12:12:20.000Z</time>
      </trkpt>
      <trkpt lat="28.242766666666668" lon="-16.456366666666668">
        <ele>1131</ele>
        <time>2024-03-30T12:12:21.000Z</time>
      </trkpt>
      <trkpt lat="28.242816666666666" lon="-16.456383333333335">
        <ele>1132</ele>
        <time>2024-03-30T12:12:22.000Z</time>
      </trkpt>
      <trkpt lat="28.24288333333333" lon="-16.456366666666668">
        <ele>1132</ele>
        <time>2024-03-30T12:12:23.000Z</time>
      </trkpt>
      <trkpt lat="28.242933333333333" lon="-16.45635">
        <ele>1132</ele>
        <time>2024-03-30T12:12:24.000Z</time>
      </trkpt>
      <trkpt lat="28.243" lon="-16.4563">
        <ele>1133</ele>
        <time>2024-03-30T12:12:25.000Z</time>
      </trkpt>
      <trkpt lat="28.243066666666667" lon="-16.456233333333333">
        <ele>1134</ele>
        <time>2024-03-30T12:12:26.000Z</time>
      </trkpt>
      <trkpt lat="28.243116666666666" lon="-16.456166666666668">
        <ele>1135</ele>
        <time>2024-03-30T12:12:27.000Z</time>
      </trkpt>
      <trkpt lat="28.243166666666667" lon="-16.4561">
        <ele>1138</ele>
        <time>2024-03-30T12:12:28.000Z</time>
      </trkpt>
      <trkpt lat="28.243216666666665" lon="-16.456033333333334">
        <ele>1141</ele>
        <time>2024-03-30T12:12:29.000Z</time>
      </trkpt>
      <trkpt lat="28.243266666666667" lon="-16.455966666666665">
        <ele>1144</ele>
        <time>2024-03-30T12:12:30.000Z</time>
      </trkpt>
      <trkpt lat="28.2433" lon="-16.455916666666667">
        <ele>1147</ele>
        <time>2024-03-30T12:12:31.000Z</time>
      </trkpt>
      <trkpt lat="28.243283333333334" lon="-16.45585">
        <ele>1148</ele>
        <time>2024-03-30T12:12:32.000Z</time>
      </trkpt>
      <trkpt lat="28.2432" lon="-16.455816666666667">
        <ele>1148</ele>
        <time>2024-03-30T12:12:33.000Z</time>
      </trkpt>
      <trkpt lat="28.2431" lon="-16.455816666666667">
        <ele>1150</ele>
        <time>2024-03-30T12:12:34.000Z</time>
      </trkpt>
      <trkpt lat="28.243" lon="-16.455916666666667">
        <ele>1154</ele>
        <time>2024-03-30T12:12:35.000Z</time>
      </trkpt>
      <trkpt lat="28.242933333333333" lon="-16.45605">
        <ele>1157</ele>
        <time>2024-03-30T12:12:36.000Z</time>
      </trkpt>
      <trkpt lat="28.242933333333333" lon="-16.456216666666666">
        <ele>1160</ele>
        <time>2024-03-30T12:12:37.000Z</time>
      </trkpt>
      <trkpt lat="28.243" lon="-16.45635">
        <ele>1162</ele>
        <time>2024-03-30T12:12:38.000Z</time>
      </trkpt>
      <trkpt lat="28.2431" lon="-16.456416666666666">
        <ele>1164</ele>
        <time>2024-03-30T12:12:39.000Z</time>
      </trkpt>
      <trkpt lat="28.243233333333333" lon="-16.456416666666666">
        <ele>1163</ele>
        <time>2024-03-30T12:12:40.000Z</time>
      </trkpt>
      <trkpt lat="28.24335" lon="-16.456383333333335">
        <ele>1164</ele>
        <time>2024-03-30T12:12:41.000Z</time>
      </trkpt>
      <trkpt lat="28.243433333333332" lon="-16.4563">
        <ele>1167</ele>
        <time>2024-03-30T12:12:42.000Z</time>
      </trkpt>
      <trkpt lat="28.243466666666666" lon="-16.456233333333333">
        <ele>1171</ele>
        <time>2024-03-30T12:12:43.000Z</time>
      </trkpt>
      <trkpt lat="28.243466666666666" lon="-16.456166666666668">
        <ele>1175</ele>
        <time>2024-03-30T12:12:44.000Z</time>
      </trkpt>
      <trkpt lat="28.24341666666667" lon="-16.456116666666667">
        <ele>1178</ele>
        <time>2024-03-30T12:12:45.000Z</time>
      </trkpt>
      <trkpt lat="28.243366666666667" lon="-16.456083333333332">
        <ele>1182</ele>
        <time>2024-03-30T12:12:46.000Z</time>
      </trkpt>
      <trkpt lat="28.243283333333334" lon="-16.4561">
        <ele>1185</ele>
        <time>2024-03-30T12:12:47.000Z</time>
      </trkpt>
      <trkpt lat="28.243216666666665" lon="-16.456133333333334">
        <ele>1186</ele>
        <time>2024-03-30T12:12:48.000Z</time>
      </trkpt>
      <trkpt lat="28.243133333333333" lon="-16.456183333333332">
        <ele>1186</ele>
        <time>2024-03-30T12:12:49.000Z</time>
      </trkpt>
      <trkpt lat="28.243066666666667" lon="-16.45625">
        <ele>1186</ele>
        <time>2024-03-30T12:12:50.000Z</time>
      </trkpt>
      <trkpt lat="28.243" lon="-16.45635">
        <ele>1186</ele>
        <time>2024-03-30T12:12:51.000Z</time>
      </trkpt>
      <trkpt lat="28.242966666666668" lon="-16.456483333333335">
        <ele>1186</ele>
        <time>2024-03-30T12:12:52.000Z</time>
      </trkpt>
      <trkpt lat="28.242966666666668" lon="-16.45665">
        <ele>1188</ele>
        <time>2024-03-30T12:12:53.000Z</time>
      </trkpt>
      <trkpt lat="28.243016666666666" lon="-16.4568">
        <ele>1191</ele>
        <time>2024-03-30T12:12:54.000Z</time>
      </trkpt>
      <trkpt lat="28.243083333333335" lon="-16.4569">
        <ele>1194</ele>
        <time>2024-03-30T12:12:55.000Z</time>
      </trkpt>
      <trkpt lat="28.243166666666667" lon="-16.456933333333332">
        <ele>1195</ele>
        <time>2024-03-30T12:12:56.000Z</time>
      </trkpt>
      <trkpt lat="28.24325" lon="-16.456966666666666">
        <ele>1195</ele>
        <time>2024-03-30T12:12:57.000Z</time>
      </trkpt>
      <trkpt lat="28.243333333333332" lon="-16.456966666666666">
        <ele>1195</ele>
        <time>2024-03-30T12:12:58.000Z</time>
      </trkpt>
      <trkpt lat="28.243433333333332" lon="-16.45695">
        <ele>1195</ele>
        <time>2024-03-30T12:12:59.000Z</time>
      </trkpt>
      <trkpt lat="28.243533333333332" lon="-16.456966666666666">
        <ele>1197</ele>
        <time>2024-03-30T12:13:00.000Z</time>
      </trkpt>
      <trkpt lat="28.24365" lon="-16.456966666666666">
        <ele>1201</ele>
        <time>2024-03-30T12:13:01.000Z</time>
      </trkpt>
      <trkpt lat="28.243733333333335" lon="-16.456983333333334">
        <ele>1206</ele>
        <time>2024-03-30T12:13:02.000Z</time>
      </trkpt>
      <trkpt lat="28.243816666666667" lon="-16.456983333333334">
        <ele>1211</ele>
        <time>2024-03-30T12:13:03.000Z</time>
      </trkpt>
      <trkpt lat="28.243883333333333" lon="-16.45695">
        <ele>1213</ele>
        <time>2024-03-30T12:13:04.000Z</time>
      </trkpt>
      <trkpt lat="28.243883333333333" lon="-16.456883333333334">
        <ele>1214</ele>
        <time>2024-03-30T12:13:05.000Z</time>
      </trkpt>
      <trkpt lat="28.24385" lon="-16.4568">
        <ele>1213</ele>
        <time>2024-03-30T12:13:06.000Z</time>
      </trkpt>
      <trkpt lat="28.243783333333333" lon="-16.456766666666667">
        <ele>1213</ele>
        <time>2024-03-30T12:13:07.000Z</time>
      </trkpt>
      <trkpt lat="28.2437" lon="-16.456766666666667">
        <ele>1215</ele>
        <time>2024-03-30T12:13:08.000Z</time>
      </trkpt>
      <trkpt lat="28.243616666666668" lon="-16.45681666666667">
        <ele>1217</ele>
        <time>2024-03-30T12:13:09.000Z</time>
      </trkpt>
      <trkpt lat="28.243566666666666" lon="-16.456916666666668">
        <ele>1218</ele>
        <time>2024-03-30T12:13:10.000Z</time>
      </trkpt>
      <trkpt lat="28.243533333333332" lon="-16.45703333333333">
        <ele>1220</ele>
        <time>2024-03-30T12:13:11.000Z</time>
      </trkpt>
      <trkpt lat="28.243533333333332" lon="-16.4572">
        <ele>1223</ele>
        <time>2024-03-30T12:13:12.000Z</time>
      </trkpt>
      <trkpt lat="28.243583333333333" lon="-16.45735">
        <ele>1227</ele>
        <time>2024-03-30T12:13:13.000Z</time>
      </trkpt>
      <trkpt lat="28.243666666666666" lon="-16.457433333333334">
        <ele>1229</ele>
        <time>2024-03-30T12:13:14.000Z</time>
      </trkpt>
      <trkpt lat="28.24375" lon="-16.457483333333332">
        <ele>1230</ele>
        <time>2024-03-30T12:13:15.000Z</time>
      </trkpt>
      <trkpt lat="28.243866666666666" lon="-16.457483333333332">
        <ele>1232</ele>
        <time>2024-03-30T12:13:16.000Z</time>
      </trkpt>
      <trkpt lat="28.24395" lon="-16.457466666666665">
        <ele>1235</ele>
        <time>2024-03-30T12:13:17.000Z</time>
      </trkpt>
      <trkpt lat="28.244033333333334" lon="-16.457416666666667">
        <ele>1237</ele>
        <time>2024-03-30T12:13:18.000Z</time>
      </trkpt>
      <trkpt lat="28.244066666666665" lon="-16.457333333333334">
        <ele>1238</ele>
        <time>2024-03-30T12:13:19.000Z</time>
      </trkpt>
      <trkpt lat="28.24405" lon="-16.457233333333335">
        <ele>1239</ele>
        <time>2024-03-30T12:13:20.000Z</time>
      </trkpt>
      <trkpt lat="28.243966666666665" lon="-16.457216666666667">
        <ele>1240</ele>
        <time>2024-03-30T12:13:21.000Z</time>
      </trkpt>
      <trkpt lat="28.243833333333335" lon="-16.45725">
        <ele>1241</ele>
        <time>2024-03-30T12:13:22.000Z</time>
      </trkpt>
      <trkpt lat="28.24375" lon="-16.457383333333333">
        <ele>1242</ele>
        <time>2024-03-30T12:13:23.000Z</time>
      </trkpt>
      <trkpt lat="28.243716666666668" lon="-16.457516666666667">
        <ele>1246</ele>
        <time>2024-03-30T12:13:24.000Z</time>
      </trkpt>
      <trkpt lat="28.2437" lon="-16.457633333333334">
        <ele>1251</ele>
        <time>2024-03-30T12:13:25.000Z</time>
      </trkpt>
      <trkpt lat="28.2437" lon="-16.457733333333334">
        <ele>1254</ele>
        <time>2024-03-30T12:13:26.000Z</time>
      </trkpt>
      <trkpt lat="28.243716666666668" lon="-16.4578">
        <ele>1254</ele>
        <time>2024-03-30T12:13:27.000Z</time>
      </trkpt>
      <trkpt lat="28.24375" lon="-16.457883333333335">
        <ele>1253</ele>
        <time>2024-03-30T12:13:28.000Z</time>
      </trkpt>
      <trkpt lat="28.243783333333333" lon="-16.457983333333335">
        <ele>1253</ele>
        <time>2024-03-30T12:13:29.000Z</time>
      </trkpt>
      <trkpt lat="28.24385" lon="-16.458116666666665">
        <ele>1252</ele>
        <time>2024-03-30T12:13:30.000Z</time>
      </trkpt>
      <trkpt lat="28.24395" lon="-16.458216666666665">
        <ele>1253</ele>
        <time>2024-03-30T12:13:31.000Z</time>
      </trkpt>
      <trkpt lat="28.24405" lon="-16.458283333333334">
        <ele>1254</ele>
        <time>2024-03-30T12:13:32.000Z</time>
      </trkpt>
      <trkpt lat="28.244183333333332" lon="-16.458316666666665">
        <ele>1255</ele>
        <time>2024-03-30T12:13:33.000Z</time>
      </trkpt>
      <trkpt lat="28.2443" lon="-16.4583">
        <ele>1257</ele>
        <time>2024-03-30T12:13:34.000Z</time>
      </trkpt>
      <trkpt lat="28.2444" lon="-16.458283333333334">
        <ele>1259</ele>
        <time>2024-03-30T12:13:35.000Z</time>
      </trkpt>
      <trkpt lat="28.2445" lon="-16.458266666666667">
        <ele>1263</ele>
        <time>2024-03-30T12:13:36.000Z</time>
      </trkpt>
      <trkpt lat="28.244583333333335" lon="-16.45825">
        <ele>1266</ele>
        <time>2024-03-30T12:13:37.000Z</time>
      </trkpt>
      <trkpt lat="28.244683333333334" lon="-16.458233333333332">
        <ele>1269</ele>
        <time>2024-03-30T12:13:38.000Z</time>
      </trkpt>
      <trkpt lat="28.24475" lon="-16.458216666666665">
        <ele>1272</ele>
        <time>2024-03-30T12:13:39.000Z</time>
      </trkpt>
      <trkpt lat="28.2448" lon="-16.458166666666667">
        <ele>1272</ele>
        <time>2024-03-30T12:13:40.000Z</time>
      </trkpt>
      <trkpt lat="28.2448" lon="-16.4581">
        <ele>1272</ele>
        <time>2024-03-30T12:13:41.000Z</time>
      </trkpt>
      <trkpt lat="28.24475" lon="-16.458033333333333">
        <ele>1272</ele>
        <time>2024-03-30T12:13:42.000Z</time>
      </trkpt>
      <trkpt lat="28.244683333333334" lon="-16.458">
        <ele>1274</ele>
        <time>2024-03-30T12:13:43.000Z</time>
      </trkpt>
      <trkpt lat="28.244616666666666" lon="-16.458016666666666">
        <ele>1275</ele>
        <time>2024-03-30T12:13:44.000Z</time>
      </trkpt>
      <trkpt lat="28.24455" lon="-16.45805">
        <ele>1276</ele>
        <time>2024-03-30T12:13:45.000Z</time>
      </trkpt>
      <trkpt lat="28.244483333333335" lon="-16.458133333333333">
        <ele>1275</ele>
        <time>2024-03-30T12:13:46.000Z</time>
      </trkpt>
      <trkpt lat="28.244416666666666" lon="-16.458233333333332">
        <ele>1274</ele>
        <time>2024-03-30T12:13:47.000Z</time>
      </trkpt>
      <trkpt lat="28.24438333333333" lon="-16.458366666666667">
        <ele>1274</ele>
        <time>2024-03-30T12:13:48.000Z</time>
      </trkpt>
      <trkpt lat="28.24438333333333" lon="-16.458516666666668">
        <ele>1276</ele>
        <time>2024-03-30T12:13:49.000Z</time>
      </trkpt>
      <trkpt lat="28.244416666666666" lon="-16.458666666666666">
        <ele>1277</ele>
        <time>2024-03-30T12:13:50.000Z</time>
      </trkpt>
      <trkpt lat="28.244483333333335" lon="-16.458783333333333">
        <ele>1279</ele>
        <time>2024-03-30T12:13:51.000Z</time>
      </trkpt>
      <trkpt lat="28.244583333333335" lon="-16.458883333333333">
        <ele>1281</ele>
        <time>2024-03-30T12:13:52.000Z</time>
      </trkpt>
      <trkpt lat="28.244716666666665" lon="-16.45895">
        <ele>1282</ele>
        <time>2024-03-30T12:13:53.000Z</time>
      </trkpt>
      <trkpt lat="28.244833333333332" lon="-16.458983333333332">
        <ele>1283</ele>
        <time>2024-03-30T12:13:54.000Z</time>
      </trkpt>
      <trkpt lat="28.244933333333332" lon="-16.459033333333334">
        <ele>1286</ele>
        <time>2024-03-30T12:13:55.000Z</time>
      </trkpt>
      <trkpt lat="28.24505" lon="-16.4591">
        <ele>1288</ele>
        <time>2024-03-30T12:13:56.000Z</time>
      </trkpt>
      <trkpt lat="28.24515" lon="-16.45916666666667">
        <ele>1290</ele>
        <time>2024-03-30T12:13:57.000Z</time>
      </trkpt>
      <trkpt lat="28.245216666666668" lon="-16.459216666666666">
        <ele>1292</ele>
        <time>2024-03-30T12:13:58.000Z</time>
      </trkpt>
      <trkpt lat="28.2453" lon="-16.459216666666666">
        <ele>1293</ele>
        <time>2024-03-30T12:13:59.000Z</time>
      </trkpt>
      <trkpt lat="28.245383333333333" lon="-16.45916666666667">
        <ele>1294</ele>
        <time>2024-03-30T12:14:00.000Z</time>
      </trkpt>
      <trkpt lat="28.245433333333335" lon="-16.4591">
        <ele>1294</ele>
        <time>2024-03-30T12:14:01.000Z</time>
      </trkpt>
      <trkpt lat="28.245433333333335" lon="-16.45905">
        <ele>1294</ele>
        <time>2024-03-30T12:14:02.000Z</time>
      </trkpt>
      <trkpt lat="28.245433333333335" lon="-16.458966666666665">
        <ele>1294</ele>
        <time>2024-03-30T12:14:03.000Z</time>
      </trkpt>
      <trkpt lat="28.245383333333333" lon="-16.458916666666667">
        <ele>1295</ele>
        <time>2024-03-30T12:14:04.000Z</time>
      </trkpt>
      <trkpt lat="28.245316666666668" lon="-16.458883333333333">
        <ele>1296</ele>
        <time>2024-03-30T12:14:05.000Z</time>
      </trkpt>
      <trkpt lat="28.245216666666668" lon="-16.458933333333334">
        <ele>1296</ele>
        <time>2024-03-30T12:14:06.000Z</time>
      </trkpt>
      <trkpt lat="28.24513333333333" lon="-16.459033333333334">
        <ele>1296</ele>
        <time>2024-03-30T12:14:07.000Z</time>
      </trkpt>
      <trkpt lat="28.245083333333334" lon="-16.459133333333334">
        <ele>1297</ele>
        <time>2024-03-30T12:14:08.000Z</time>
      </trkpt>
      <trkpt lat="28.24505" lon="-16.459266666666668">
        <ele>1297</ele>
        <time>2024-03-30T12:14:09.000Z</time>
      </trkpt>
      <trkpt lat="28.24505" lon="-16.459416666666666">
        <ele>1299</ele>
        <time>2024-03-30T12:14:10.000Z</time>
      </trkpt>
      <trkpt lat="28.245083333333334" lon="-16.459583333333335">
        <ele>1301</ele>
        <time>2024-03-30T12:14:11.000Z</time>
      </trkpt>
      <trkpt lat="28.245183333333333" lon="-16.459683333333334">
        <ele>1301</ele>
        <time>2024-03-30T12:14:12.000Z</time>
      </trkpt>
      <trkpt lat="28.2453" lon="-16.45975">
        <ele>1301</ele>
        <time>2024-03-30T12:14:13.000Z</time>
      </trkpt>
      <trkpt lat="28.245433333333335" lon="-16.459766666666667">
        <ele>1303</ele>
        <time>2024-03-30T12:14:14.000Z</time>
      </trkpt>
      <trkpt lat="28.245533333333334" lon="-16.459766666666667">
        <ele>1306</ele>
        <time>2024-03-30T12:14:15.000Z</time>
      </trkpt>
      <trkpt lat="28.2456" lon="-16.459733333333332">
        <ele>1307</ele>
        <time>2024-03-30T12:14:16.000Z</time>
      </trkpt>
      <trkpt lat="28.245633333333334" lon="-16.4597">
        <ele>1307</ele>
        <time>2024-03-30T12:14:17.000Z</time>
      </trkpt>
      <trkpt lat="28.245683333333332" lon="-16.459683333333334">
        <ele>1307</ele>
        <time>2024-03-30T12:14:18.000Z</time>
      </trkpt>
      <trkpt lat="28.24576666666667" lon="-16.459666666666667">
        <ele>1305</ele>
        <time>2024-03-30T12:14:19.000Z</time>
      </trkpt>
      <trkpt lat="28.245866666666668" lon="-16.459633333333333">
        <ele>1304</ele>
        <time>2024-03-30T12:14:20.000Z</time>
      </trkpt>
      <trkpt lat="28.245983333333335" lon="-16.459600000000002">
        <ele>1303</ele>
        <time>2024-03-30T12:14:21.000Z</time>
      </trkpt>
      <trkpt lat="28.246083333333335" lon="-16.459566666666667">
        <ele>1303</ele>
        <time>2024-03-30T12:14:22.000Z</time>
      </trkpt>
      <trkpt lat="28.2462" lon="-16.459516666666666">
        <ele>1303</ele>
        <time>2024-03-30T12:14:23.000Z</time>
      </trkpt>
      <trkpt lat="28.246316666666665" lon="-16.459483333333335">
        <ele>1304</ele>
        <time>2024-03-30T12:14:24.000Z</time>
      </trkpt>
      <trkpt lat="28.2464" lon="-16.459433333333333">
        <ele>1303</ele>
        <time>2024-03-30T12:14:25.000Z</time>
      </trkpt>
      <trkpt lat="28.2465" lon="-16.4594">
        <ele>1302</ele>
        <time>2024-03-30T12:14:26.000Z</time>
      </trkpt>
      <trkpt lat="28.246583333333334" lon="-16.45935">
        <ele>1301</ele>
        <time>2024-03-30T12:14:27.000Z</time>
      </trkpt>
      <trkpt lat="28.246683333333333" lon="-16.4593">
        <ele>1299</ele>
        <time>2024-03-30T12:14:28.000Z</time>
      </trkpt>
      <trkpt lat="28.246783333333333" lon="-16.45925">
        <ele>1297</ele>
        <time>2024-03-30T12:14:29.000Z</time>
      </trkpt>
      <trkpt lat="28.246883333333333" lon="-16.459216666666666">
        <ele>1294</ele>
        <time>2024-03-30T12:14:30.000Z</time>
      </trkpt>
      <trkpt lat="28.246966666666665" lon="-16.45916666666667">
        <ele>1292</ele>
        <time>2024-03-30T12:14:31.000Z</time>
      </trkpt>
      <trkpt lat="28.24705" lon="-16.459116666666667">
        <ele>1288</ele>
        <time>2024-03-30T12:14:32.000Z</time>
      </trkpt>
      <trkpt lat="28.24715" lon="-16.45905">
        <ele>1285</ele>
        <time>2024-03-30T12:14:33.000Z</time>
      </trkpt>
      <trkpt lat="28.247233333333334" lon="-16.458983333333332">
        <ele>1281</ele>
        <time>2024-03-30T12:14:34.000Z</time>
      </trkpt>
      <trkpt lat="28.247333333333334" lon="-16.458916666666667">
        <ele>1278</ele>
        <time>2024-03-30T12:14:35.000Z</time>
      </trkpt>
      <trkpt lat="28.2474" lon="-16.458849999999998">
        <ele>1275</ele>
        <time>2024-03-30T12:14:36.000Z</time>
      </trkpt>
      <trkpt lat="28.247483333333335" lon="-16.458766666666666">
        <ele>1270</ele>
        <time>2024-03-30T12:14:37.000Z</time>
      </trkpt>
      <trkpt lat="28.247566666666668" lon="-16.458683333333333">
        <ele>1265</ele>
        <time>2024-03-30T12:14:38.000Z</time>
      </trkpt>
      <trkpt lat="28.24765" lon="-16.458583333333333">
        <ele>1261</ele>
        <time>2024-03-30T12:14:39.000Z</time>
      </trkpt>
      <trkpt lat="28.247733333333333" lon="-16.458483333333334">
        <ele>1257</ele>
        <time>2024-03-30T12:14:40.000Z</time>
      </trkpt>
      <trkpt lat="28.247833333333332" lon="-16.458383333333334">
        <ele>1253</ele>
        <time>2024-03-30T12:14:41.000Z</time>
      </trkpt>
      <trkpt lat="28.247916666666665" lon="-16.458283333333334">
        <ele>1250</ele>
        <time>2024-03-30T12:14:42.000Z</time>
      </trkpt>
      <trkpt lat="28.248" lon="-16.458166666666667">
        <ele>1248</ele>
        <time>2024-03-30T12:14:43.000Z</time>
      </trkpt>
      <trkpt lat="28.24805" lon="-16.458083333333335">
        <ele>1247</ele>
        <time>2024-03-30T12:14:44.000Z</time>
      </trkpt>
      <trkpt lat="28.248116666666668" lon="-16.457983333333335">
        <ele>1246</ele>
        <time>2024-03-30T12:14:45.000Z</time>
      </trkpt>
      <trkpt lat="28.2482" lon="-16.4579">
        <ele>1244</ele>
        <time>2024-03-30T12:14:46.000Z</time>
      </trkpt>
      <trkpt lat="28.248283333333333" lon="-16.457816666666666">
        <ele>1241</ele>
        <time>2024-03-30T12:14:47.000Z</time>
      </trkpt>
      <trkpt lat="28.248383333333333" lon="-16.457716666666666">
        <ele>1239</ele>
        <time>2024-03-30T12:14:48.000Z</time>
      </trkpt>
      <trkpt lat="28.248483333333333" lon="-16.457633333333334">
        <ele>1237</ele>
        <time>2024-03-30T12:14:49.000Z</time>
      </trkpt>
      <trkpt lat="28.248583333333332" lon="-16.45755">
        <ele>1236</ele>
        <time>2024-03-30T12:14:50.000Z</time>
      </trkpt>
      <trkpt lat="28.248683333333332" lon="-16.457466666666665">
        <ele>1236</ele>
        <time>2024-03-30T12:14:51.000Z</time>
      </trkpt>
      <trkpt lat="28.24876666666667" lon="-16.457383333333333">
        <ele>1235</ele>
        <time>2024-03-30T12:14:52.000Z</time>
      </trkpt>
      <trkpt lat="28.248833333333334" lon="-16.4573">
        <ele>1233</ele>
        <time>2024-03-30T12:14:53.000Z</time>
      </trkpt>
      <trkpt lat="28.248916666666666" lon="-16.457216666666667">
        <ele>1230</ele>
        <time>2024-03-30T12:14:54.000Z</time>
      </trkpt>
      <trkpt lat="28.249" lon="-16.457133333333335">
        <ele>1226</ele>
        <time>2024-03-30T12:14:55.000Z</time>
      </trkpt>
      <trkpt lat="28.2491" lon="-16.45705">
        <ele>1222</ele>
        <time>2024-03-30T12:14:56.000Z</time>
      </trkpt>
      <trkpt lat="28.249183333333335" lon="-16.456933333333332">
        <ele>1220</ele>
        <time>2024-03-30T12:14:57.000Z</time>
      </trkpt>
      <trkpt lat="28.249266666666667" lon="-16.456833333333332">
        <ele>1220</ele>
        <time>2024-03-30T12:14:58.000Z</time>
      </trkpt>
      <trkpt lat="28.24935" lon="-16.45675">
        <ele>1219</ele>
        <time>2024-03-30T12:14:59.000Z</time>
      </trkpt>
      <trkpt lat="28.249433333333332" lon="-16.456666666666667">
        <ele>1218</ele>
        <time>2024-03-30T12:15:00.000Z</time>
      </trkpt>
      <trkpt lat="28.24951666666667" lon="-16.456583333333334">
        <ele>1216</ele>
        <time>2024-03-30T12:15:01.000Z</time>
      </trkpt>
      <trkpt lat="28.2496" lon="-16.456483333333335">
        <ele>1214</ele>
        <time>2024-03-30T12:15:02.000Z</time>
      </trkpt>
      <trkpt lat="28.249666666666666" lon="-16.456383333333335">
        <ele>1212</ele>
        <time>2024-03-30T12:15:03.000Z</time>
      </trkpt>
      <trkpt lat="28.24973333333333" lon="-16.456266666666668">
        <ele>1211</ele>
        <time>2024-03-30T12:15:04.000Z</time>
      </trkpt>
      <trkpt lat="28.249816666666668" lon="-16.456166666666668">
        <ele>1210</ele>
        <time>2024-03-30T12:15:05.000Z</time>
      </trkpt>
      <trkpt lat="28.249883333333333" lon="-16.456083333333332">
        <ele>1211</ele>
        <time>2024-03-30T12:15:06.000Z</time>
      </trkpt>
      <trkpt lat="28.249966666666666" lon="-16.456016666666667">
        <ele>1213</ele>
        <time>2024-03-30T12:15:07.000Z</time>
      </trkpt>
      <trkpt lat="28.250033333333334" lon="-16.455966666666665">
        <ele>1215</ele>
        <time>2024-03-30T12:15:08.000Z</time>
      </trkpt>
      <trkpt lat="28.250083333333333" lon="-16.455933333333334">
        <ele>1214</ele>
        <time>2024-03-30T12:15:09.000Z</time>
      </trkpt>
      <trkpt lat="28.25015" lon="-16.455866666666665">
        <ele>1212</ele>
        <time>2024-03-30T12:15:10.000Z</time>
      </trkpt>
      <trkpt lat="28.250233333333334" lon="-16.4558">
        <ele>1208</ele>
        <time>2024-03-30T12:15:11.000Z</time>
      </trkpt>
      <trkpt lat="28.250316666666667" lon="-16.455733333333335">
        <ele>1206</ele>
        <time>2024-03-30T12:15:12.000Z</time>
      </trkpt>
      <trkpt lat="28.250416666666666" lon="-16.45565">
        <ele>1206</ele>
        <time>2024-03-30T12:15:13.000Z</time>
      </trkpt>
      <trkpt lat="28.2505" lon="-16.455583333333333">
        <ele>1207</ele>
        <time>2024-03-30T12:15:14.000Z</time>
      </trkpt>
      <trkpt lat="28.250566666666668" lon="-16.455533333333335">
        <ele>1206</ele>
        <time>2024-03-30T12:15:15.000Z</time>
      </trkpt>
      <trkpt lat="28.25065" lon="-16.455483333333333">
        <ele>1204</ele>
        <time>2024-03-30T12:15:16.000Z</time>
      </trkpt>
      <trkpt lat="28.250733333333333" lon="-16.455433333333332">
        <ele>1201</ele>
        <time>2024-03-30T12:15:17.000Z</time>
      </trkpt>
      <trkpt lat="28.250833333333333" lon="-16.455366666666666">
        <ele>1200</ele>
        <time>2024-03-30T12:15:18.000Z</time>
      </trkpt>
      <trkpt lat="28.250916666666665" lon="-16.4553">
        <ele>1201</ele>
        <time>2024-03-30T12:15:19.000Z</time>
      </trkpt>
      <trkpt lat="28.250966666666667" lon="-16.455216666666665">
        <ele>1203</ele>
        <time>2024-03-30T12:15:20.000Z</time>
      </trkpt>
      <trkpt lat="28.251016666666665" lon="-16.455133333333333">
        <ele>1204</ele>
        <time>2024-03-30T12:15:21.000Z</time>
      </trkpt>
      <trkpt lat="28.251066666666667" lon="-16.45505">
        <ele>1204</ele>
        <time>2024-03-30T12:15:22.000Z</time>
      </trkpt>
      <trkpt lat="28.251116666666668" lon="-16.454966666666667">
        <ele>1201</ele>
        <time>2024-03-30T12:15:23.000Z</time>
      </trkpt>
      <trkpt lat="28.2512" lon="-16.454883333333335">
        <ele>1197</ele>
        <time>2024-03-30T12:15:24.000Z</time>
      </trkpt>
      <trkpt lat="28.251283333333333" lon="-16.454816666666666">
        <ele>1194</ele>
        <time>2024-03-30T12:15:25.000Z</time>
      </trkpt>
      <trkpt lat="28.251383333333333" lon="-16.454733333333333">
        <ele>1194</ele>
        <time>2024-03-30T12:15:26.000Z</time>
      </trkpt>
      <trkpt lat="28.251466666666666" lon="-16.45465">
        <ele>1195</ele>
        <time>2024-03-30T12:15:27.000Z</time>
      </trkpt>
      <trkpt lat="28.251516666666667" lon="-16.4546">
        <ele>1197</ele>
        <time>2024-03-30T12:15:28.000Z</time>
      </trkpt>
      <trkpt lat="28.251583333333333" lon="-16.45455">
        <ele>1197</ele>
        <time>2024-03-30T12:15:29.000Z</time>
      </trkpt>
      <trkpt lat="28.25165" lon="-16.454516666666667">
        <ele>1193</ele>
        <time>2024-03-30T12:15:30.000Z</time>
      </trkpt>
      <trkpt lat="28.251733333333334" lon="-16.454466666666665">
        <ele>1188</ele>
        <time>2024-03-30T12:15:31.000Z</time>
      </trkpt>
      <trkpt lat="28.251816666666667" lon="-16.4544">
        <ele>1184</ele>
        <time>2024-03-30T12:15:32.000Z</time>
      </trkpt>
      <trkpt lat="28.2519" lon="-16.454316666666667">
        <ele>1181</ele>
        <time>2024-03-30T12:15:33.000Z</time>
      </trkpt>
      <trkpt lat="28.25198333333333" lon="-16.454233333333335">
        <ele>1181</ele>
        <time>2024-03-30T12:15:34.000Z</time>
      </trkpt>
      <trkpt lat="28.252066666666668" lon="-16.454166666666666">
        <ele>1181</ele>
        <time>2024-03-30T12:15:35.000Z</time>
      </trkpt>
      <trkpt lat="28.252133333333333" lon="-16.4541">
        <ele>1181</ele>
        <time>2024-03-30T12:15:36.000Z</time>
      </trkpt>
      <trkpt lat="28.252183333333335" lon="-16.45405">
        <ele>1180</ele>
        <time>2024-03-30T12:15:37.000Z</time>
      </trkpt>
      <trkpt lat="28.25225" lon="-16.454">
        <ele>1177</ele>
        <time>2024-03-30T12:15:38.000Z</time>
      </trkpt>
      <trkpt lat="28.252333333333333" lon="-16.45393333333333">
        <ele>1174</ele>
        <time>2024-03-30T12:15:39.000Z</time>
      </trkpt>
      <trkpt lat="28.252433333333332" lon="-16.45385">
        <ele>1171</ele>
        <time>2024-03-30T12:15:40.000Z</time>
      </trkpt>
      <trkpt lat="28.252516666666665" lon="-16.453766666666667">
        <ele>1170</ele>
        <time>2024-03-30T12:15:41.000Z</time>
      </trkpt>
      <trkpt lat="28.2526" lon="-16.4537">
        <ele>1170</ele>
        <time>2024-03-30T12:15:42.000Z</time>
      </trkpt>
      <trkpt lat="28.252683333333334" lon="-16.453633333333332">
        <ele>1170</ele>
        <time>2024-03-30T12:15:43.000Z</time>
      </trkpt>
      <trkpt lat="28.25273333333333" lon="-16.453583333333334">
        <ele>1168</ele>
        <time>2024-03-30T12:15:44.000Z</time>
      </trkpt>
      <trkpt lat="28.2528" lon="-16.453516666666665">
        <ele>1167</ele>
        <time>2024-03-30T12:15:45.000Z</time>
      </trkpt>
      <trkpt lat="28.252866666666666" lon="-16.45345">
        <ele>1164</ele>
        <time>2024-03-30T12:15:46.000Z</time>
      </trkpt>
      <trkpt lat="28.25295" lon="-16.453366666666668">
        <ele>1160</ele>
        <time>2024-03-30T12:15:47.000Z</time>
      </trkpt>
      <trkpt lat="28.253033333333335" lon="-16.453316666666666">
        <ele>1157</ele>
        <time>2024-03-30T12:15:48.000Z</time>
      </trkpt>
      <trkpt lat="28.253133333333334" lon="-16.453266666666668">
        <ele>1154</ele>
        <time>2024-03-30T12:15:49.000Z</time>
      </trkpt>
      <trkpt lat="28.253216666666667" lon="-16.453216666666666">
        <ele>1150</ele>
        <time>2024-03-30T12:15:50.000Z</time>
      </trkpt>
      <trkpt lat="28.2533" lon="-16.45315">
        <ele>1145</ele>
        <time>2024-03-30T12:15:51.000Z</time>
      </trkpt>
      <trkpt lat="28.253383333333332" lon="-16.45306666666667">
        <ele>1139</ele>
        <time>2024-03-30T12:15:52.000Z</time>
      </trkpt>
      <trkpt lat="28.25345" lon="-16.45295">
        <ele>1135</ele>
        <time>2024-03-30T12:15:53.000Z</time>
      </trkpt>
      <trkpt lat="28.253533333333333" lon="-16.45285">
        <ele>1133</ele>
        <time>2024-03-30T12:15:54.000Z</time>
      </trkpt>
      <trkpt lat="28.2536" lon="-16.45275">
        <ele>1132</ele>
        <time>2024-03-30T12:15:55.000Z</time>
      </trkpt>
      <trkpt lat="28.253683333333335" lon="-16.452683333333333">
        <ele>1130</ele>
        <time>2024-03-30T12:15:56.000Z</time>
      </trkpt>
      <trkpt lat="28.25375" lon="-16.452616666666668">
        <ele>1128</ele>
        <time>2024-03-30T12:15:57.000Z</time>
      </trkpt>
      <trkpt lat="28.25385" lon="-16.45255">
        <ele>1127</ele>
        <time>2024-03-30T12:15:58.000Z</time>
      </trkpt>
      <trkpt lat="28.253933333333332" lon="-16.4525">
        <ele>1125</ele>
        <time>2024-03-30T12:15:59.000Z</time>
      </trkpt>
      <trkpt lat="28.254033333333332" lon="-16.45245">
        <ele>1123</ele>
        <time>2024-03-30T12:16:00.000Z</time>
      </trkpt>
      <trkpt lat="28.254133333333332" lon="-16.4524">
        <ele>1122</ele>
        <time>2024-03-30T12:16:01.000Z</time>
      </trkpt>
      <trkpt lat="28.25423333333333" lon="-16.452333333333332">
        <ele>1120</ele>
        <time>2024-03-30T12:16:02.000Z</time>
      </trkpt>
      <trkpt lat="28.254316666666668" lon="-16.45225">
        <ele>1119</ele>
        <time>2024-03-30T12:16:03.000Z</time>
      </trkpt>
      <trkpt lat="28.2544" lon="-16.452183333333334">
        <ele>1119</ele>
        <time>2024-03-30T12:16:04.000Z</time>
      </trkpt>
      <trkpt lat="28.2545" lon="-16.452133333333332">
        <ele>1118</ele>
        <time>2024-03-30T12:16:05.000Z</time>
      </trkpt>
      <trkpt lat="28.254583333333333" lon="-16.452066666666667">
        <ele>1116</ele>
        <time>2024-03-30T12:16:06.000Z</time>
      </trkpt>
      <trkpt lat="28.254666666666665" lon="-16.452016666666665">
        <ele>1115</ele>
        <time>2024-03-30T12:16:07.000Z</time>
      </trkpt>
      <trkpt lat="28.254766666666665" lon="-16.45195">
        <ele>1113</ele>
        <time>2024-03-30T12:16:08.000Z</time>
      </trkpt>
      <trkpt lat="28.254883333333332" lon="-16.451883333333335">
        <ele>1112</ele>
        <time>2024-03-30T12:16:09.000Z</time>
      </trkpt>
      <trkpt lat="28.255" lon="-16.451816666666666">
        <ele>1110</ele>
        <time>2024-03-30T12:16:10.000Z</time>
      </trkpt>
      <trkpt lat="28.2551" lon="-16.45175">
        <ele>1109</ele>
        <time>2024-03-30T12:16:11.000Z</time>
      </trkpt>
      <trkpt lat="28.2552" lon="-16.45168333333333">
        <ele>1108</ele>
        <time>2024-03-30T12:16:12.000Z</time>
      </trkpt>
      <trkpt lat="28.2553" lon="-16.451633333333334">
        <ele>1105</ele>
        <time>2024-03-30T12:16:13.000Z</time>
      </trkpt>
      <trkpt lat="28.255416666666665" lon="-16.45156666666667">
        <ele>1103</ele>
        <time>2024-03-30T12:16:14.000Z</time>
      </trkpt>
      <trkpt lat="28.2555" lon="-16.451483333333332">
        <ele>1101</ele>
        <time>2024-03-30T12:16:15.000Z</time>
      </trkpt>
      <trkpt lat="28.255583333333334" lon="-16.4514">
        <ele>1101</ele>
        <time>2024-03-30T12:16:16.000Z</time>
      </trkpt>
      <trkpt lat="28.25565" lon="-16.451316666666667">
        <ele>1102</ele>
        <time>2024-03-30T12:16:17.000Z</time>
      </trkpt>
      <trkpt lat="28.255733333333332" lon="-16.45125">
        <ele>1105</ele>
        <time>2024-03-30T12:16:18.000Z</time>
      </trkpt>
      <trkpt lat="28.25583333333333" lon="-16.451183333333333">
        <ele>1109</ele>
        <time>2024-03-30T12:16:19.000Z</time>
      </trkpt>
      <trkpt lat="28.255916666666668" lon="-16.45115">
        <ele>1114</ele>
        <time>2024-03-30T12:16:20.000Z</time>
      </trkpt>
      <trkpt lat="28.256" lon="-16.451133333333335">
        <ele>1118</ele>
        <time>2024-03-30T12:16:21.000Z</time>
      </trkpt>
      <trkpt lat="28.256066666666666" lon="-16.451116666666667">
        <ele>1119</ele>
        <time>2024-03-30T12:16:22.000Z</time>
      </trkpt>
      <trkpt lat="28.256133333333334" lon="-16.451066666666666">
        <ele>1119</ele>
        <time>2024-03-30T12:16:23.000Z</time>
      </trkpt>
      <trkpt lat="28.2562" lon="-16.451016666666668">
        <ele>1120</ele>
        <time>2024-03-30T12:16:24.000Z</time>
      </trkpt>
      <trkpt lat="28.25625" lon="-16.45095">
        <ele>1121</ele>
        <time>2024-03-30T12:16:25.000Z</time>
      </trkpt>
      <trkpt lat="28.2563" lon="-16.450883333333334">
        <ele>1124</ele>
        <time>2024-03-30T12:16:26.000Z</time>
      </trkpt>
      <trkpt lat="28.256333333333334" lon="-16.450816666666668">
        <ele>1125</ele>
        <time>2024-03-30T12:16:27.000Z</time>
      </trkpt>
      <trkpt lat="28.256316666666667" lon="-16.450766666666667">
        <ele>1124</ele>
        <time>2024-03-30T12:16:28.000Z</time>
      </trkpt>
      <trkpt lat="28.256233333333334" lon="-16.450716666666665">
        <ele>1122</ele>
        <time>2024-03-30T12:16:29.000Z</time>
      </trkpt>
      <trkpt lat="28.25615" lon="-16.450716666666665">
        <ele>1122</ele>
        <time>2024-03-30T12:16:30.000Z</time>
      </trkpt>
      <trkpt lat="28.25605" lon="-16.450766666666667">
        <ele>1123</ele>
        <time>2024-03-30T12:16:31.000Z</time>
      </trkpt>
      <trkpt lat="28.255983333333333" lon="-16.450866666666666">
        <ele>1124</ele>
        <time>2024-03-30T12:16:32.000Z</time>
      </trkpt>
      <trkpt lat="28.255933333333335" lon="-16.451">
        <ele>1125</ele>
        <time>2024-03-30T12:16:33.000Z</time>
      </trkpt>
      <trkpt lat="28.25595" lon="-16.451116666666667">
        <ele>1126</ele>
        <time>2024-03-30T12:16:34.000Z</time>
      </trkpt>
      <trkpt lat="28.256016666666667" lon="-16.4512">
        <ele>1126</ele>
        <time>2024-03-30T12:16:35.000Z</time>
      </trkpt>
      <trkpt lat="28.2561" lon="-16.451283333333333">
        <ele>1127</ele>
        <time>2024-03-30T12:16:36.000Z</time>
      </trkpt>
      <trkpt lat="28.2562" lon="-16.45135">
        <ele>1128</ele>
        <time>2024-03-30T12:16:37.000Z</time>
      </trkpt>
      <trkpt lat="28.2563" lon="-16.451383333333332">
        <ele>1128</ele>
        <time>2024-03-30T12:16:38.000Z</time>
      </trkpt>
      <trkpt lat="28.256416666666667" lon="-16.4514">
        <ele>1129</ele>
        <time>2024-03-30T12:16:39.000Z</time>
      </trkpt>
      <trkpt lat="28.256533333333334" lon="-16.4514">
        <ele>1131</ele>
        <time>2024-03-30T12:16:40.000Z</time>
      </trkpt>
      <trkpt lat="28.256633333333333" lon="-16.451416666666667">
        <ele>1133</ele>
        <time>2024-03-30T12:16:41.000Z</time>
      </trkpt>
      <trkpt lat="28.256733333333333" lon="-16.451416666666667">
        <ele>1136</ele>
        <time>2024-03-30T12:16:42.000Z</time>
      </trkpt>
      <trkpt lat="28.256833333333333" lon="-16.451383333333332">
        <ele>1137</ele>
        <time>2024-03-30T12:16:43.000Z</time>
      </trkpt>
      <trkpt lat="28.2569" lon="-16.451316666666667">
        <ele>1138</ele>
        <time>2024-03-30T12:16:44.000Z</time>
      </trkpt>
      <trkpt lat="28.256933333333333" lon="-16.451233333333334">
        <ele>1140</ele>
        <time>2024-03-30T12:16:45.000Z</time>
      </trkpt>
      <trkpt lat="28.256916666666665" lon="-16.451133333333335">
        <ele>1140</ele>
        <time>2024-03-30T12:16:46.000Z</time>
      </trkpt>
      <trkpt lat="28.256866666666667" lon="-16.451066666666666">
        <ele>1140</ele>
        <time>2024-03-30T12:16:47.000Z</time>
      </trkpt>
      <trkpt lat="28.256783333333335" lon="-16.45105">
        <ele>1140</ele>
        <time>2024-03-30T12:16:48.000Z</time>
      </trkpt>
      <trkpt lat="28.2567" lon="-16.4511">
        <ele>1140</ele>
        <time>2024-03-30T12:16:49.000Z</time>
      </trkpt>
      <trkpt lat="28.256666666666668" lon="-16.451216666666667">
        <ele>1139</ele>
        <time>2024-03-30T12:16:50.000Z</time>
      </trkpt>
      <trkpt lat="28.256666666666668" lon="-16.451366666666665">
        <ele>1139</ele>
        <time>2024-03-30T12:16:51.000Z</time>
      </trkpt>
      <trkpt lat="28.256733333333333" lon="-16.451516666666667">
        <ele>1141</ele>
        <time>2024-03-30T12:16:52.000Z</time>
      </trkpt>
      <trkpt lat="28.256833333333333" lon="-16.4516">
        <ele>1144</ele>
        <time>2024-03-30T12:16:53.000Z</time>
      </trkpt>
      <trkpt lat="28.25695" lon="-16.45165">
        <ele>1147</ele>
        <time>2024-03-30T12:16:54.000Z</time>
      </trkpt>
      <trkpt lat="28.25705" lon="-16.45168333333333">
        <ele>1149</ele>
        <time>2024-03-30T12:16:55.000Z</time>
      </trkpt>
      <trkpt lat="28.25715" lon="-16.4517">
        <ele>1150</ele>
        <time>2024-03-30T12:16:56.000Z</time>
      </trkpt>
      <trkpt lat="28.25725" lon="-16.4517">
        <ele>1149</ele>
        <time>2024-03-30T12:16:57.000Z</time>
      </trkpt>
      <trkpt lat="28.257366666666666" lon="-16.4517">
        <ele>1149</ele>
        <time>2024-03-30T12:16:58.000Z</time>
      </trkpt>
      <trkpt lat="28.257483333333333" lon="-16.45168333333333">
        <ele>1149</ele>
        <time>2024-03-30T12:16:59.000Z</time>
      </trkpt>
      <trkpt lat="28.2576" lon="-16.45165">
        <ele>1149</ele>
        <time>2024-03-30T12:17:00.000Z</time>
      </trkpt>
      <trkpt lat="28.2577" lon="-16.4516">
        <ele>1149</ele>
        <time>2024-03-30T12:17:01.000Z</time>
      </trkpt>
      <trkpt lat="28.257783333333332" lon="-16.451533333333334">
        <ele>1148</ele>
        <time>2024-03-30T12:17:02.000Z</time>
      </trkpt>
      <trkpt lat="28.257883333333332" lon="-16.451483333333332">
        <ele>1147</ele>
        <time>2024-03-30T12:17:03.000Z</time>
      </trkpt>
      <trkpt lat="28.257983333333332" lon="-16.451433333333334">
        <ele>1145</ele>
        <time>2024-03-30T12:17:04.000Z</time>
      </trkpt>
      <trkpt lat="28.258066666666668" lon="-16.451383333333332">
        <ele>1144</ele>
        <time>2024-03-30T12:17:05.000Z</time>
      </trkpt>
      <trkpt lat="28.258166666666668" lon="-16.451333333333334">
        <ele>1143</ele>
        <time>2024-03-30T12:17:06.000Z</time>
      </trkpt>
      <trkpt lat="28.258233333333333" lon="-16.451283333333333">
        <ele>1143</ele>
        <time>2024-03-30T12:17:07.000Z</time>
      </trkpt>
      <trkpt lat="28.258316666666666" lon="-16.451233333333334">
        <ele>1141</ele>
        <time>2024-03-30T12:17:08.000Z</time>
      </trkpt>
      <trkpt lat="28.258383333333335" lon="-16.451183333333333">
        <ele>1139</ele>
        <time>2024-03-30T12:17:09.000Z</time>
      </trkpt>
      <trkpt lat="28.258483333333334" lon="-16.451133333333335">
        <ele>1137</ele>
        <time>2024-03-30T12:17:10.000Z</time>
      </trkpt>
      <trkpt lat="28.258583333333334" lon="-16.4511">
        <ele>1134</ele>
        <time>2024-03-30T12:17:11.000Z</time>
      </trkpt>
      <trkpt lat="28.258666666666667" lon="-16.451066666666666">
        <ele>1132</ele>
        <time>2024-03-30T12:17:12.000Z</time>
      </trkpt>
      <trkpt lat="28.258766666666666" lon="-16.451033333333335">
        <ele>1130</ele>
        <time>2024-03-30T12:17:13.000Z</time>
      </trkpt>
      <trkpt lat="28.258866666666666" lon="-16.450983333333333">
        <ele>1129</ele>
        <time>2024-03-30T12:17:14.000Z</time>
      </trkpt>
      <trkpt lat="28.25895" lon="-16.45095">
        <ele>1128</ele>
        <time>2024-03-30T12:17:15.000Z</time>
      </trkpt>
      <trkpt lat="28.259033333333335" lon="-16.450916666666668">
        <ele>1126</ele>
        <time>2024-03-30T12:17:16.000Z</time>
      </trkpt>
      <trkpt lat="28.259116666666667" lon="-16.450866666666666">
        <ele>1123</ele>
        <time>2024-03-30T12:17:17.000Z</time>
      </trkpt>
      <trkpt lat="28.259216666666667" lon="-16.450833333333332">
        <ele>1119</ele>
        <time>2024-03-30T12:17:18.000Z</time>
      </trkpt>
      <trkpt lat="28.259316666666667" lon="-16.450766666666667">
        <ele>1116</ele>
        <time>2024-03-30T12:17:19.000Z</time>
      </trkpt>
      <trkpt lat="28.259416666666667" lon="-16.450716666666665">
        <ele>1113</ele>
        <time>2024-03-30T12:17:20.000Z</time>
      </trkpt>
      <trkpt lat="28.2595" lon="-16.450666666666667">
        <ele>1112</ele>
        <time>2024-03-30T12:17:21.000Z</time>
      </trkpt>
      <trkpt lat="28.2596" lon="-16.450616666666665">
        <ele>1111</ele>
        <time>2024-03-30T12:17:22.000Z</time>
      </trkpt>
      <trkpt lat="28.259683333333335" lon="-16.450583333333334">
        <ele>1110</ele>
        <time>2024-03-30T12:17:23.000Z</time>
      </trkpt>
      <trkpt lat="28.259783333333335" lon="-16.450533333333333">
        <ele>1109</ele>
        <time>2024-03-30T12:17:24.000Z</time>
      </trkpt>
      <trkpt lat="28.259866666666667" lon="-16.450483333333334">
        <ele>1107</ele>
        <time>2024-03-30T12:17:25.000Z</time>
      </trkpt>
      <trkpt lat="28.259966666666667" lon="-16.450433333333333">
        <ele>1105</ele>
        <time>2024-03-30T12:17:26.000Z</time>
      </trkpt>
      <trkpt lat="28.260066666666667" lon="-16.4504">
        <ele>1104</ele>
        <time>2024-03-30T12:17:27.000Z</time>
      </trkpt>
      <trkpt lat="28.260183333333334" lon="-16.45035">
        <ele>1102</ele>
        <time>2024-03-30T12:17:28.000Z</time>
      </trkpt>
      <trkpt lat="28.2603" lon="-16.450316666666666">
        <ele>1100</ele>
        <time>2024-03-30T12:17:29.000Z</time>
      </trkpt>
      <trkpt lat="28.260416666666668" lon="-16.450266666666668">
        <ele>1100</ele>
        <time>2024-03-30T12:17:30.000Z</time>
      </trkpt>
      <trkpt lat="28.260533333333335" lon="-16.450233333333333">
        <ele>1101</ele>
        <time>2024-03-30T12:17:31.000Z</time>
      </trkpt>
      <trkpt lat="28.260633333333335" lon="-16.450216666666666">
        <ele>1104</ele>
        <time>2024-03-30T12:17:32.000Z</time>
      </trkpt>
      <trkpt lat="28.260716666666667" lon="-16.4502">
        <ele>1105</ele>
        <time>2024-03-30T12:17:33.000Z</time>
      </trkpt>
      <trkpt lat="28.2608" lon="-16.450166666666668">
        <ele>1104</ele>
        <time>2024-03-30T12:17:34.000Z</time>
      </trkpt>
      <trkpt lat="28.260883333333332" lon="-16.450133333333333">
        <ele>1101</ele>
        <time>2024-03-30T12:17:35.000Z</time>
      </trkpt>
      <trkpt lat="28.26096666666667" lon="-16.450083333333332">
        <ele>1098</ele>
        <time>2024-03-30T12:17:36.000Z</time>
      </trkpt>
      <trkpt lat="28.261083333333332" lon="-16.45005">
        <ele>1096</ele>
        <time>2024-03-30T12:17:37.000Z</time>
      </trkpt>
      <trkpt lat="28.2612" lon="-16.450016666666667">
        <ele>1094</ele>
        <time>2024-03-30T12:17:38.000Z</time>
      </trkpt>
      <trkpt lat="28.261316666666666" lon="-16.449983333333332">
        <ele>1094</ele>
        <time>2024-03-30T12:17:39.000Z</time>
      </trkpt>
      <trkpt lat="28.26145" lon="-16.44995">
        <ele>1094</ele>
        <time>2024-03-30T12:17:40.000Z</time>
      </trkpt>
      <trkpt lat="28.26155" lon="-16.44996666666667">
        <ele>1094</ele>
        <time>2024-03-30T12:17:41.000Z</time>
      </trkpt>
      <trkpt lat="28.261633333333332" lon="-16.44996666666667">
        <ele>1093</ele>
        <time>2024-03-30T12:17:42.000Z</time>
      </trkpt>
      <trkpt lat="28.261733333333332" lon="-16.449983333333332">
        <ele>1091</ele>
        <time>2024-03-30T12:17:43.000Z</time>
      </trkpt>
      <trkpt lat="28.261816666666668" lon="-16.44995">
        <ele>1088</ele>
        <time>2024-03-30T12:17:44.000Z</time>
      </trkpt>
      <trkpt lat="28.2619" lon="-16.4499">
        <ele>1085</ele>
        <time>2024-03-30T12:17:45.000Z</time>
      </trkpt>
      <trkpt lat="28.261983333333333" lon="-16.449833333333334">
        <ele>1083</ele>
        <time>2024-03-30T12:17:46.000Z</time>
      </trkpt>
      <trkpt lat="28.26205" lon="-16.44975">
        <ele>1081</ele>
        <time>2024-03-30T12:17:47.000Z</time>
      </trkpt>
      <trkpt lat="28.262116666666667" lon="-16.4497">
        <ele>1079</ele>
        <time>2024-03-30T12:17:48.000Z</time>
      </trkpt>
      <trkpt lat="28.262183333333333" lon="-16.449633333333335">
        <ele>1077</ele>
        <time>2024-03-30T12:17:49.000Z</time>
      </trkpt>
      <trkpt lat="28.262283333333333" lon="-16.449566666666666">
        <ele>1074</ele>
        <time>2024-03-30T12:17:50.000Z</time>
      </trkpt>
      <trkpt lat="28.262383333333332" lon="-16.449483333333333">
        <ele>1072</ele>
        <time>2024-03-30T12:17:51.000Z</time>
      </trkpt>
      <trkpt lat="28.26246666666667" lon="-16.449416666666668">
        <ele>1073</ele>
        <time>2024-03-30T12:17:52.000Z</time>
      </trkpt>
      <trkpt lat="28.26255" lon="-16.44935">
        <ele>1074</ele>
        <time>2024-03-30T12:17:53.000Z</time>
      </trkpt>
      <trkpt lat="28.262616666666666" lon="-16.449316666666668">
        <ele>1075</ele>
        <time>2024-03-30T12:17:54.000Z</time>
      </trkpt>
      <trkpt lat="28.26265" lon="-16.449283333333334">
        <ele>1073</ele>
        <time>2024-03-30T12:17:55.000Z</time>
      </trkpt>
      <trkpt lat="28.2627" lon="-16.449233333333332">
        <ele>1068</ele>
        <time>2024-03-30T12:17:56.000Z</time>
      </trkpt>
      <trkpt lat="28.26275" lon="-16.44915">
        <ele>1063</ele>
        <time>2024-03-30T12:17:57.000Z</time>
      </trkpt>
      <trkpt lat="28.2628" lon="-16.44905">
        <ele>1060</ele>
        <time>2024-03-30T12:17:58.000Z</time>
      </trkpt>
      <trkpt lat="28.26285" lon="-16.44895">
        <ele>1061</ele>
        <time>2024-03-30T12:17:59.000Z</time>
      </trkpt>
      <trkpt lat="28.262883333333335" lon="-16.448883333333335">
        <ele>1063</ele>
        <time>2024-03-30T12:18:00.000Z</time>
      </trkpt>
      <trkpt lat="28.262933333333333" lon="-16.448833333333333">
        <ele>1062</ele>
        <time>2024-03-30T12:18:01.000Z</time>
      </trkpt>
      <trkpt lat="28.262966666666667" lon="-16.448783333333335">
        <ele>1060</ele>
        <time>2024-03-30T12:18:02.000Z</time>
      </trkpt>
      <trkpt lat="28.263" lon="-16.448716666666666">
        <ele>1057</ele>
        <time>2024-03-30T12:18:03.000Z</time>
      </trkpt>
      <trkpt lat="28.26305" lon="-16.448616666666666">
        <ele>1054</ele>
        <time>2024-03-30T12:18:04.000Z</time>
      </trkpt>
      <trkpt lat="28.263116666666665" lon="-16.448533333333334">
        <ele>1051</ele>
        <time>2024-03-30T12:18:05.000Z</time>
      </trkpt>
      <trkpt lat="28.263166666666667" lon="-16.448416666666667">
        <ele>1050</ele>
        <time>2024-03-30T12:18:06.000Z</time>
      </trkpt>
      <trkpt lat="28.263216666666665" lon="-16.448316666666667">
        <ele>1050</ele>
        <time>2024-03-30T12:18:07.000Z</time>
      </trkpt>
      <trkpt lat="28.263266666666667" lon="-16.448216666666667">
        <ele>1053</ele>
        <time>2024-03-30T12:18:08.000Z</time>
      </trkpt>
      <trkpt lat="28.2633" lon="-16.448116666666667">
        <ele>1057</ele>
        <time>2024-03-30T12:18:09.000Z</time>
      </trkpt>
      <trkpt lat="28.26335" lon="-16.44805">
        <ele>1062</ele>
        <time>2024-03-30T12:18:10.000Z</time>
      </trkpt>
      <trkpt lat="28.2634" lon="-16.448016666666668">
        <ele>1064</ele>
        <time>2024-03-30T12:18:11.000Z</time>
      </trkpt>
      <trkpt lat="28.26345" lon="-16.448016666666668">
        <ele>1065</ele>
        <time>2024-03-30T12:18:12.000Z</time>
      </trkpt>
      <trkpt lat="28.263516666666668" lon="-16.448">
        <ele>1065</ele>
        <time>2024-03-30T12:18:13.000Z</time>
      </trkpt>
      <trkpt lat="28.263566666666666" lon="-16.447966666666666">
        <ele>1065</ele>
        <time>2024-03-30T12:18:14.000Z</time>
      </trkpt>
      <trkpt lat="28.263633333333335" lon="-16.4479">
        <ele>1066</ele>
        <time>2024-03-30T12:18:15.000Z</time>
      </trkpt>
      <trkpt lat="28.2637" lon="-16.447816666666668">
        <ele>1068</ele>
        <time>2024-03-30T12:18:16.000Z</time>
      </trkpt>
      <trkpt lat="28.26375" lon="-16.447733333333332">
        <ele>1071</ele>
        <time>2024-03-30T12:18:17.000Z</time>
      </trkpt>
      <trkpt lat="28.263766666666665" lon="-16.44765">
        <ele>1074</ele>
        <time>2024-03-30T12:18:18.000Z</time>
      </trkpt>
      <trkpt lat="28.263783333333333" lon="-16.447583333333334">
        <ele>1077</ele>
        <time>2024-03-30T12:18:19.000Z</time>
      </trkpt>
      <trkpt lat="28.263783333333333" lon="-16.447533333333332">
        <ele>1080</ele>
        <time>2024-03-30T12:18:20.000Z</time>
      </trkpt>
      <trkpt lat="28.26375" lon="-16.447466666666667">
        <ele>1084</ele>
        <time>2024-03-30T12:18:21.000Z</time>
      </trkpt>
      <trkpt lat="28.263716666666667" lon="-16.447433333333333">
        <ele>1087</ele>
        <time>2024-03-30T12:18:22.000Z</time>
      </trkpt>
      <trkpt lat="28.263666666666666" lon="-16.447416666666665">
        <ele>1090</ele>
        <time>2024-03-30T12:18:23.000Z</time>
      </trkpt>
      <trkpt lat="28.263616666666667" lon="-16.447433333333333">
        <ele>1091</ele>
        <time>2024-03-30T12:18:24.000Z</time>
      </trkpt>
      <trkpt lat="28.263566666666666" lon="-16.447483333333334">
        <ele>1091</ele>
        <time>2024-03-30T12:18:25.000Z</time>
      </trkpt>
      <trkpt lat="28.263533333333335" lon="-16.4476">
        <ele>1093</ele>
        <time>2024-03-30T12:18:26.000Z</time>
      </trkpt>
      <trkpt lat="28.26355" lon="-16.447733333333332">
        <ele>1094</ele>
        <time>2024-03-30T12:18:27.000Z</time>
      </trkpt>
      <trkpt lat="28.263633333333335" lon="-16.447866666666666">
        <ele>1098</ele>
        <time>2024-03-30T12:18:28.000Z</time>
      </trkpt>
      <trkpt lat="28.263766666666665" lon="-16.447933333333335">
        <ele>1101</ele>
        <time>2024-03-30T12:18:29.000Z</time>
      </trkpt>
      <trkpt lat="28.263916666666667" lon="-16.447933333333335">
        <ele>1103</ele>
        <time>2024-03-30T12:18:30.000Z</time>
      </trkpt>
      <trkpt lat="28.26405" lon="-16.4479">
        <ele>1106</ele>
        <time>2024-03-30T12:18:31.000Z</time>
      </trkpt>
      <trkpt lat="28.264133333333334" lon="-16.44785">
        <ele>1109</ele>
        <time>2024-03-30T12:18:32.000Z</time>
      </trkpt>
      <trkpt lat="28.264166666666668" lon="-16.447766666666666">
        <ele>1111</ele>
        <time>2024-03-30T12:18:33.000Z</time>
      </trkpt>
      <trkpt lat="28.264133333333334" lon="-16.4477">
        <ele>1114</ele>
        <time>2024-03-30T12:18:34.000Z</time>
      </trkpt>
      <trkpt lat="28.264083333333332" lon="-16.447633333333332">
        <ele>1117</ele>
        <time>2024-03-30T12:18:35.000Z</time>
      </trkpt>
      <trkpt lat="28.264016666666667" lon="-16.447633333333332">
        <ele>1118</ele>
        <time>2024-03-30T12:18:36.000Z</time>
      </trkpt>
      <trkpt lat="28.26395" lon="-16.4477">
        <ele>1120</ele>
        <time>2024-03-30T12:18:37.000Z</time>
      </trkpt>
      <trkpt lat="28.263883333333332" lon="-16.447816666666668">
        <ele>1122</ele>
        <time>2024-03-30T12:18:38.000Z</time>
      </trkpt>
      <trkpt lat="28.263883333333332" lon="-16.44795">
        <ele>1125</ele>
        <time>2024-03-30T12:18:39.000Z</time>
      </trkpt>
      <trkpt lat="28.26395" lon="-16.4481">
        <ele>1129</ele>
        <time>2024-03-30T12:18:40.000Z</time>
      </trkpt>
      <trkpt lat="28.26405" lon="-16.448183333333333">
        <ele>1132</ele>
        <time>2024-03-30T12:18:41.000Z</time>
      </trkpt>
      <trkpt lat="28.264216666666666" lon="-16.448183333333333">
        <ele>1134</ele>
        <time>2024-03-30T12:18:42.000Z</time>
      </trkpt>
      <trkpt lat="28.26435" lon="-16.448133333333335">
        <ele>1136</ele>
        <time>2024-03-30T12:18:43.000Z</time>
      </trkpt>
      <trkpt lat="28.264466666666667" lon="-16.448066666666666">
        <ele>1139</ele>
        <time>2024-03-30T12:18:44.000Z</time>
      </trkpt>
      <trkpt lat="28.264516666666665" lon="-16.448">
        <ele>1143</ele>
        <time>2024-03-30T12:18:45.000Z</time>
      </trkpt>
      <trkpt lat="28.264533333333333" lon="-16.44795">
        <ele>1144</ele>
        <time>2024-03-30T12:18:46.000Z</time>
      </trkpt>
      <trkpt lat="28.264483333333335" lon="-16.447933333333335">
        <ele>1143</ele>
        <time>2024-03-30T12:18:47.000Z</time>
      </trkpt>
      <trkpt lat="28.264433333333333" lon="-16.4479">
        <ele>1142</ele>
        <time>2024-03-30T12:18:48.000Z</time>
      </trkpt>
      <trkpt lat="28.26435" lon="-16.447883333333333">
        <ele>1142</ele>
        <time>2024-03-30T12:18:49.000Z</time>
      </trkpt>
      <trkpt lat="28.264283333333335" lon="-16.447916666666668">
        <ele>1143</ele>
        <time>2024-03-30T12:18:50.000Z</time>
      </trkpt>
      <trkpt lat="28.2642" lon="-16.448">
        <ele>1146</ele>
        <time>2024-03-30T12:18:51.000Z</time>
      </trkpt>
      <trkpt lat="28.26418333333333" lon="-16.448116666666667">
        <ele>1149</ele>
        <time>2024-03-30T12:18:52.000Z</time>
      </trkpt>
      <trkpt lat="28.264216666666666" lon="-16.44825">
        <ele>1151</ele>
        <time>2024-03-30T12:18:53.000Z</time>
      </trkpt>
      <trkpt lat="28.2643" lon="-16.448366666666665">
        <ele>1153</ele>
        <time>2024-03-30T12:18:54.000Z</time>
      </trkpt>
      <trkpt lat="28.264416666666666" lon="-16.448433333333334">
        <ele>1154</ele>
        <time>2024-03-30T12:18:55.000Z</time>
      </trkpt>
      <trkpt lat="28.264566666666667" lon="-16.44845">
        <ele>1154</ele>
        <time>2024-03-30T12:18:56.000Z</time>
      </trkpt>
      <trkpt lat="28.2647" lon="-16.448416666666667">
        <ele>1157</ele>
        <time>2024-03-30T12:18:57.000Z</time>
      </trkpt>
      <trkpt lat="28.264766666666667" lon="-16.448366666666665">
        <ele>1160</ele>
        <time>2024-03-30T12:18:58.000Z</time>
      </trkpt>
      <trkpt lat="28.26481666666667" lon="-16.448316666666667">
        <ele>1162</ele>
        <time>2024-03-30T12:18:59.000Z</time>
      </trkpt>
      <trkpt lat="28.264833333333332" lon="-16.448283333333332">
        <ele>1164</ele>
        <time>2024-03-30T12:19:00.000Z</time>
      </trkpt>
      <trkpt lat="28.2648" lon="-16.44825">
        <ele>1165</ele>
        <time>2024-03-30T12:19:01.000Z</time>
      </trkpt>
      <trkpt lat="28.264733333333332" lon="-16.448233333333334">
        <ele>1165</ele>
        <time>2024-03-30T12:19:02.000Z</time>
      </trkpt>
      <trkpt lat="28.264666666666667" lon="-16.448266666666665">
        <ele>1165</ele>
        <time>2024-03-30T12:19:03.000Z</time>
      </trkpt>
      <trkpt lat="28.264616666666665" lon="-16.44835">
        <ele>1164</ele>
        <time>2024-03-30T12:19:04.000Z</time>
      </trkpt>
      <trkpt lat="28.264566666666667" lon="-16.44846666666667">
        <ele>1167</ele>
        <time>2024-03-30T12:19:05.000Z</time>
      </trkpt>
      <trkpt lat="28.264583333333334" lon="-16.448583333333332">
        <ele>1170</ele>
        <time>2024-03-30T12:19:06.000Z</time>
      </trkpt>
      <trkpt lat="28.264633333333332" lon="-16.4487">
        <ele>1172</ele>
        <time>2024-03-30T12:19:07.000Z</time>
      </trkpt>
      <trkpt lat="28.264716666666665" lon="-16.448816666666666">
        <ele>1175</ele>
        <time>2024-03-30T12:19:08.000Z</time>
      </trkpt>
      <trkpt lat="28.264783333333334" lon="-16.4489">
        <ele>1177</ele>
        <time>2024-03-30T12:19:09.000Z</time>
      </trkpt>
      <trkpt lat="28.264866666666666" lon="-16.44895">
        <ele>1178</ele>
        <time>2024-03-30T12:19:10.000Z</time>
      </trkpt>
      <trkpt lat="28.264966666666666" lon="-16.448983333333334">
        <ele>1177</ele>
        <time>2024-03-30T12:19:11.000Z</time>
      </trkpt>
      <trkpt lat="28.265083333333333" lon="-16.448983333333334">
        <ele>1177</ele>
        <time>2024-03-30T12:19:12.000Z</time>
      </trkpt>
      <trkpt lat="28.265183333333333" lon="-16.44895">
        <ele>1177</ele>
        <time>2024-03-30T12:19:13.000Z</time>
      </trkpt>
      <trkpt lat="28.265266666666665" lon="-16.448916666666666">
        <ele>1177</ele>
        <time>2024-03-30T12:19:14.000Z</time>
      </trkpt>
      <trkpt lat="28.265333333333334" lon="-16.448866666666667">
        <ele>1177</ele>
        <time>2024-03-30T12:19:15.000Z</time>
      </trkpt>
      <trkpt lat="28.2654" lon="-16.448816666666666">
        <ele>1178</ele>
        <time>2024-03-30T12:19:16.000Z</time>
      </trkpt>
      <trkpt lat="28.265466666666665" lon="-16.448766666666668">
        <ele>1180</ele>
        <time>2024-03-30T12:19:17.000Z</time>
      </trkpt>
      <trkpt lat="28.26555" lon="-16.4487">
        <ele>1180</ele>
        <time>2024-03-30T12:19:18.000Z</time>
      </trkpt>
      <trkpt lat="28.2656" lon="-16.448616666666666">
        <ele>1182</ele>
        <time>2024-03-30T12:19:19.000Z</time>
      </trkpt>
      <trkpt lat="28.265633333333334" lon="-16.448533333333334">
        <ele>1181</ele>
        <time>2024-03-30T12:19:20.000Z</time>
      </trkpt>
      <trkpt lat="28.26565" lon="-16.44845">
        <ele>1180</ele>
        <time>2024-03-30T12:19:21.000Z</time>
      </trkpt>
      <trkpt lat="28.26565" lon="-16.448366666666665">
        <ele>1179</ele>
        <time>2024-03-30T12:19:22.000Z</time>
      </trkpt>
      <trkpt lat="28.26568333333333" lon="-16.448283333333332">
        <ele>1177</ele>
        <time>2024-03-30T12:19:23.000Z</time>
      </trkpt>
      <trkpt lat="28.265766666666668" lon="-16.448183333333333">
        <ele>1174</ele>
        <time>2024-03-30T12:19:24.000Z</time>
      </trkpt>
      <trkpt lat="28.265866666666668" lon="-16.4481">
        <ele>1171</ele>
        <time>2024-03-30T12:19:25.000Z</time>
      </trkpt>
      <trkpt lat="28.265983333333335" lon="-16.448033333333335">
        <ele>1172</ele>
        <time>2024-03-30T12:19:26.000Z</time>
      </trkpt>
      <trkpt lat="28.266066666666667" lon="-16.447983333333333">
        <ele>1173</ele>
        <time>2024-03-30T12:19:27.000Z</time>
      </trkpt>
      <trkpt lat="28.26615" lon="-16.447916666666668">
        <ele>1174</ele>
        <time>2024-03-30T12:19:28.000Z</time>
      </trkpt>
      <trkpt lat="28.266216666666665" lon="-16.447866666666666">
        <ele>1173</ele>
        <time>2024-03-30T12:19:29.000Z</time>
      </trkpt>
      <trkpt lat="28.2663" lon="-16.4478">
        <ele>1171</ele>
        <time>2024-03-30T12:19:30.000Z</time>
      </trkpt>
      <trkpt lat="28.2664" lon="-16.447733333333332">
        <ele>1169</ele>
        <time>2024-03-30T12:19:31.000Z</time>
      </trkpt>
      <trkpt lat="28.2665" lon="-16.447666666666667">
        <ele>1167</ele>
        <time>2024-03-30T12:19:32.000Z</time>
      </trkpt>
      <trkpt lat="28.2666" lon="-16.4476">
        <ele>1166</ele>
        <time>2024-03-30T12:19:33.000Z</time>
      </trkpt>
      <trkpt lat="28.2667" lon="-16.447516666666665">
        <ele>1165</ele>
        <time>2024-03-30T12:19:34.000Z</time>
      </trkpt>
      <trkpt lat="28.266783333333333" lon="-16.44745">
        <ele>1165</ele>
        <time>2024-03-30T12:19:35.000Z</time>
      </trkpt>
      <trkpt lat="28.266883333333332" lon="-16.447383333333335">
        <ele>1164</ele>
        <time>2024-03-30T12:19:36.000Z</time>
      </trkpt>
      <trkpt lat="28.266983333333332" lon="-16.447333333333333">
        <ele>1162</ele>
        <time>2024-03-30T12:19:37.000Z</time>
      </trkpt>
      <trkpt lat="28.267083333333332" lon="-16.447266666666668">
        <ele>1161</ele>
        <time>2024-03-30T12:19:38.000Z</time>
      </trkpt>
      <trkpt lat="28.26718333333333" lon="-16.4472">
        <ele>1158</ele>
        <time>2024-03-30T12:19:39.000Z</time>
      </trkpt>
      <trkpt lat="28.267266666666668" lon="-16.447116666666666">
        <ele>1155</ele>
        <time>2024-03-30T12:19:40.000Z</time>
      </trkpt>
      <trkpt lat="28.267366666666668" lon="-16.44705">
        <ele>1153</ele>
        <time>2024-03-30T12:19:41.000Z</time>
      </trkpt>
      <trkpt lat="28.26745" lon="-16.44696666666667">
        <ele>1150</ele>
        <time>2024-03-30T12:19:42.000Z</time>
      </trkpt>
      <trkpt lat="28.267516666666666" lon="-16.4469">
        <ele>1147</ele>
        <time>2024-03-30T12:19:43.000Z</time>
      </trkpt>
      <trkpt lat="28.267583333333334" lon="-16.446816666666667">
        <ele>1144</ele>
        <time>2024-03-30T12:19:44.000Z</time>
      </trkpt>
      <trkpt lat="28.26765" lon="-16.446716666666667">
        <ele>1141</ele>
        <time>2024-03-30T12:19:45.000Z</time>
      </trkpt>
      <trkpt lat="28.267716666666665" lon="-16.446649999999998">
        <ele>1138</ele>
        <time>2024-03-30T12:19:46.000Z</time>
      </trkpt>
      <trkpt lat="28.2678" lon="-16.446566666666666">
        <ele>1135</ele>
        <time>2024-03-30T12:19:47.000Z</time>
      </trkpt>
      <trkpt lat="28.2679" lon="-16.446483333333333">
        <ele>1133</ele>
        <time>2024-03-30T12:19:48.000Z</time>
      </trkpt>
      <trkpt lat="28.267983333333333" lon="-16.4464">
        <ele>1133</ele>
        <time>2024-03-30T12:19:49.000Z</time>
      </trkpt>
      <trkpt lat="28.26805" lon="-16.44633333333333">
        <ele>1133</ele>
        <time>2024-03-30T12:19:50.000Z</time>
      </trkpt>
      <trkpt lat="28.268133333333335" lon="-16.446266666666666">
        <ele>1131</ele>
        <time>2024-03-30T12:19:51.000Z</time>
      </trkpt>
      <trkpt lat="28.2682" lon="-16.4462">
        <ele>1127</ele>
        <time>2024-03-30T12:19:52.000Z</time>
      </trkpt>
      <trkpt lat="28.2683" lon="-16.44615">
        <ele>1124</ele>
        <time>2024-03-30T12:19:53.000Z</time>
      </trkpt>
      <trkpt lat="28.2684" lon="-16.446066666666667">
        <ele>1123</ele>
        <time>2024-03-30T12:19:54.000Z</time>
      </trkpt>
      <trkpt lat="28.268483333333332" lon="-16.446">
        <ele>1123</ele>
        <time>2024-03-30T12:19:55.000Z</time>
      </trkpt>
      <trkpt lat="28.26856666666667" lon="-16.445933333333333">
        <ele>1124</ele>
        <time>2024-03-30T12:19:56.000Z</time>
      </trkpt>
      <trkpt lat="28.268633333333334" lon="-16.445883333333335">
        <ele>1123</ele>
        <time>2024-03-30T12:19:57.000Z</time>
      </trkpt>
      <trkpt lat="28.268716666666666" lon="-16.445833333333333">
        <ele>1121</ele>
        <time>2024-03-30T12:19:58.000Z</time>
      </trkpt>
      <trkpt lat="28.2688" lon="-16.445783333333335">
        <ele>1119</ele>
        <time>2024-03-30T12:19:59.000Z</time>
      </trkpt>
      <trkpt lat="28.268916666666666" lon="-16.445733333333333">
        <ele>1116</ele>
        <time>2024-03-30T12:20:00.000Z</time>
      </trkpt>
      <trkpt lat="28.269016666666666" lon="-16.44565">
        <ele>1115</ele>
        <time>2024-03-30T12:20:01.000Z</time>
      </trkpt>
      <trkpt lat="28.2691" lon="-16.44558333333333">
        <ele>1115</ele>
        <time>2024-03-30T12:20:02.000Z</time>
      </trkpt>
      <trkpt lat="28.269166666666667" lon="-16.4455">
        <ele>1115</ele>
        <time>2024-03-30T12:20:03.000Z</time>
      </trkpt>
      <trkpt lat="28.269233333333332" lon="-16.445433333333334">
        <ele>1113</ele>
        <time>2024-03-30T12:20:04.000Z</time>
      </trkpt>
      <trkpt lat="28.2693" lon="-16.445366666666665">
        <ele>1110</ele>
        <time>2024-03-30T12:20:05.000Z</time>
      </trkpt>
      <trkpt lat="28.269383333333334" lon="-16.445283333333332">
        <ele>1107</ele>
        <time>2024-03-30T12:20:06.000Z</time>
      </trkpt>
      <trkpt lat="28.269466666666666" lon="-16.445216666666667">
        <ele>1105</ele>
        <time>2024-03-30T12:20:07.000Z</time>
      </trkpt>
      <trkpt lat="28.26955" lon="-16.445116666666667">
        <ele>1104</ele>
        <time>2024-03-30T12:20:08.000Z</time>
      </trkpt>
      <trkpt lat="28.269616666666668" lon="-16.44505">
        <ele>1104</ele>
        <time>2024-03-30T12:20:09.000Z</time>
      </trkpt>
      <trkpt lat="28.2697" lon="-16.444983333333333">
        <ele>1103</ele>
        <time>2024-03-30T12:20:10.000Z</time>
      </trkpt>
      <trkpt lat="28.269766666666666" lon="-16.444933333333335">
        <ele>1101</ele>
        <time>2024-03-30T12:20:11.000Z</time>
      </trkpt>
      <trkpt lat="28.26985" lon="-16.444883333333333">
        <ele>1099</ele>
        <time>2024-03-30T12:20:12.000Z</time>
      </trkpt>
      <trkpt lat="28.269933333333334" lon="-16.444816666666668">
        <ele>1098</ele>
        <time>2024-03-30T12:20:13.000Z</time>
      </trkpt>
      <trkpt lat="28.270033333333334" lon="-16.44475">
        <ele>1098</ele>
        <time>2024-03-30T12:20:14.000Z</time>
      </trkpt>
      <trkpt lat="28.270116666666667" lon="-16.4447">
        <ele>1098</ele>
        <time>2024-03-30T12:20:15.000Z</time>
      </trkpt>
      <trkpt lat="28.270166666666668" lon="-16.44465">
        <ele>1098</ele>
        <time>2024-03-30T12:20:16.000Z</time>
      </trkpt>
      <trkpt lat="28.270233333333334" lon="-16.444583333333334">
        <ele>1097</ele>
        <time>2024-03-30T12:20:17.000Z</time>
      </trkpt>
      <trkpt lat="28.2703" lon="-16.444533333333332">
        <ele>1094</ele>
        <time>2024-03-30T12:20:18.000Z</time>
      </trkpt>
      <trkpt lat="28.270383333333335" lon="-16.44445">
        <ele>1090</ele>
        <time>2024-03-30T12:20:19.000Z</time>
      </trkpt>
      <trkpt lat="28.27045" lon="-16.444383333333334">
        <ele>1088</ele>
        <time>2024-03-30T12:20:20.000Z</time>
      </trkpt>
      <trkpt lat="28.270516666666666" lon="-16.444316666666666">
        <ele>1086</ele>
        <time>2024-03-30T12:20:21.000Z</time>
      </trkpt>
      <trkpt lat="28.2706" lon="-16.44425">
        <ele>1085</ele>
        <time>2024-03-30T12:20:22.000Z</time>
      </trkpt>
      <trkpt lat="28.270683333333334" lon="-16.444183333333335">
        <ele>1084</ele>
        <time>2024-03-30T12:20:23.000Z</time>
      </trkpt>
      <trkpt lat="28.270766666666667" lon="-16.444116666666666">
        <ele>1083</ele>
        <time>2024-03-30T12:20:24.000Z</time>
      </trkpt>
      <trkpt lat="28.27085" lon="-16.44405">
        <ele>1081</ele>
        <time>2024-03-30T12:20:25.000Z</time>
      </trkpt>
      <trkpt lat="28.27091666666667" lon="-16.443966666666668">
        <ele>1080</ele>
        <time>2024-03-30T12:20:26.000Z</time>
      </trkpt>
      <trkpt lat="28.271016666666668" lon="-16.4439">
        <ele>1079</ele>
        <time>2024-03-30T12:20:27.000Z</time>
      </trkpt>
      <trkpt lat="28.2711" lon="-16.443816666666667">
        <ele>1077</ele>
        <time>2024-03-30T12:20:28.000Z</time>
      </trkpt>
      <trkpt lat="28.271183333333333" lon="-16.443733333333334">
        <ele>1076</ele>
        <time>2024-03-30T12:20:29.000Z</time>
      </trkpt>
      <trkpt lat="28.271266666666666" lon="-16.44365">
        <ele>1075</ele>
        <time>2024-03-30T12:20:30.000Z</time>
      </trkpt>
      <trkpt lat="28.271333333333335" lon="-16.443566666666666">
        <ele>1073</ele>
        <time>2024-03-30T12:20:31.000Z</time>
      </trkpt>
      <trkpt lat="28.271416666666667" lon="-16.443483333333333">
        <ele>1072</ele>
        <time>2024-03-30T12:20:32.000Z</time>
      </trkpt>
      <trkpt lat="28.2715" lon="-16.443416666666668">
        <ele>1072</ele>
        <time>2024-03-30T12:20:33.000Z</time>
      </trkpt>
      <trkpt lat="28.271583333333332" lon="-16.443333333333335">
        <ele>1072</ele>
        <time>2024-03-30T12:20:34.000Z</time>
      </trkpt>
      <trkpt lat="28.27165" lon="-16.443266666666666">
        <ele>1071</ele>
        <time>2024-03-30T12:20:35.000Z</time>
      </trkpt>
      <trkpt lat="28.271733333333334" lon="-16.4432">
        <ele>1068</ele>
        <time>2024-03-30T12:20:36.000Z</time>
      </trkpt>
      <trkpt lat="28.271816666666666" lon="-16.44311666666667">
        <ele>1065</ele>
        <time>2024-03-30T12:20:37.000Z</time>
      </trkpt>
      <trkpt lat="28.271883333333335" lon="-16.443033333333332">
        <ele>1063</ele>
        <time>2024-03-30T12:20:38.000Z</time>
      </trkpt>
      <trkpt lat="28.271966666666668" lon="-16.442933333333333">
        <ele>1061</ele>
        <time>2024-03-30T12:20:39.000Z</time>
      </trkpt>
      <trkpt lat="28.272033333333333" lon="-16.44285">
        <ele>1060</ele>
        <time>2024-03-30T12:20:40.000Z</time>
      </trkpt>
      <trkpt lat="28.272116666666665" lon="-16.442766666666667">
        <ele>1059</ele>
        <time>2024-03-30T12:20:41.000Z</time>
      </trkpt>
      <trkpt lat="28.272183333333334" lon="-16.442683333333335">
        <ele>1057</ele>
        <time>2024-03-30T12:20:42.000Z</time>
      </trkpt>
      <trkpt lat="28.27225" lon="-16.44258333333333">
        <ele>1056</ele>
        <time>2024-03-30T12:20:43.000Z</time>
      </trkpt>
      <trkpt lat="28.272333333333332" lon="-16.442483333333332">
        <ele>1056</ele>
        <time>2024-03-30T12:20:44.000Z</time>
      </trkpt>
      <trkpt lat="28.2724" lon="-16.442383333333332">
        <ele>1057</ele>
        <time>2024-03-30T12:20:45.000Z</time>
      </trkpt>
      <trkpt lat="28.272466666666666" lon="-16.4423">
        <ele>1060</ele>
        <time>2024-03-30T12:20:46.000Z</time>
      </trkpt>
      <trkpt lat="28.27253333333333" lon="-16.442233333333334">
        <ele>1060</ele>
        <time>2024-03-30T12:20:47.000Z</time>
      </trkpt>
      <trkpt lat="28.272616666666668" lon="-16.442166666666665">
        <ele>1060</ele>
        <time>2024-03-30T12:20:48.000Z</time>
      </trkpt>
      <trkpt lat="28.2727" lon="-16.442083333333333">
        <ele>1060</ele>
        <time>2024-03-30T12:20:49.000Z</time>
      </trkpt>
      <trkpt lat="28.2728" lon="-16.442">
        <ele>1061</ele>
        <time>2024-03-30T12:20:50.000Z</time>
      </trkpt>
      <trkpt lat="28.272916666666667" lon="-16.441933333333335">
        <ele>1063</ele>
        <time>2024-03-30T12:20:51.000Z</time>
      </trkpt>
      <trkpt lat="28.273016666666667" lon="-16.441866666666666">
        <ele>1065</ele>
        <time>2024-03-30T12:20:52.000Z</time>
      </trkpt>
      <trkpt lat="28.273133333333334" lon="-16.441783333333333">
        <ele>1067</ele>
        <time>2024-03-30T12:20:53.000Z</time>
      </trkpt>
      <trkpt lat="28.273216666666666" lon="-16.4417">
        <ele>1068</ele>
        <time>2024-03-30T12:20:54.000Z</time>
      </trkpt>
      <trkpt lat="28.27328333333333" lon="-16.44161666666667">
        <ele>1068</ele>
        <time>2024-03-30T12:20:55.000Z</time>
      </trkpt>
      <trkpt lat="28.27335" lon="-16.441533333333332">
        <ele>1068</ele>
        <time>2024-03-30T12:20:56.000Z</time>
      </trkpt>
      <trkpt lat="28.273416666666666" lon="-16.44145">
        <ele>1068</ele>
        <time>2024-03-30T12:20:57.000Z</time>
      </trkpt>
      <trkpt lat="28.273516666666666" lon="-16.441366666666667">
        <ele>1067</ele>
        <time>2024-03-30T12:20:58.000Z</time>
      </trkpt>
      <trkpt lat="28.273616666666666" lon="-16.4413">
        <ele>1067</ele>
        <time>2024-03-30T12:20:59.000Z</time>
      </trkpt>
      <trkpt lat="28.273733333333332" lon="-16.44125">
        <ele>1067</ele>
        <time>2024-03-30T12:21:00.000Z</time>
      </trkpt>
      <trkpt lat="28.273833333333332" lon="-16.441216666666666">
        <ele>1069</ele>
        <time>2024-03-30T12:21:01.000Z</time>
      </trkpt>
      <trkpt lat="28.27391666666667" lon="-16.441166666666668">
        <ele>1070</ele>
        <time>2024-03-30T12:21:02.000Z</time>
      </trkpt>
      <trkpt lat="28.273983333333334" lon="-16.441133333333333">
        <ele>1071</ele>
        <time>2024-03-30T12:21:03.000Z</time>
      </trkpt>
      <trkpt lat="28.274066666666666" lon="-16.441083333333335">
        <ele>1074</ele>
        <time>2024-03-30T12:21:04.000Z</time>
      </trkpt>
      <trkpt lat="28.27413333333333" lon="-16.441033333333333">
        <ele>1077</ele>
        <time>2024-03-30T12:21:05.000Z</time>
      </trkpt>
      <trkpt lat="28.274183333333333" lon="-16.441">
        <ele>1079</ele>
        <time>2024-03-30T12:21:06.000Z</time>
      </trkpt>
      <trkpt lat="28.274216666666668" lon="-16.44095">
        <ele>1081</ele>
        <time>2024-03-30T12:21:07.000Z</time>
      </trkpt>
      <trkpt lat="28.274216666666668" lon="-16.4409">
        <ele>1081</ele>
        <time>2024-03-30T12:21:08.000Z</time>
      </trkpt>
      <trkpt lat="28.274166666666666" lon="-16.44085">
        <ele>1080</ele>
        <time>2024-03-30T12:21:09.000Z</time>
      </trkpt>
      <trkpt lat="28.274083333333333" lon="-16.440833333333334">
        <ele>1080</ele>
        <time>2024-03-30T12:21:10.000Z</time>
      </trkpt>
      <trkpt lat="28.274" lon="-16.4409">
        <ele>1082</ele>
        <time>2024-03-30T12:21:11.000Z</time>
      </trkpt>
      <trkpt lat="28.27395" lon="-16.44098333333333">
        <ele>1083</ele>
        <time>2024-03-30T12:21:12.000Z</time>
      </trkpt>
      <trkpt lat="28.273966666666666" lon="-16.441116666666666">
        <ele>1084</ele>
        <time>2024-03-30T12:21:13.000Z</time>
      </trkpt>
      <trkpt lat="28.274033333333332" lon="-16.441216666666666">
        <ele>1084</ele>
        <time>2024-03-30T12:21:14.000Z</time>
      </trkpt>
      <trkpt lat="28.274166666666666" lon="-16.4413">
        <ele>1085</ele>
        <time>2024-03-30T12:21:15.000Z</time>
      </trkpt>
      <trkpt lat="28.274283333333333" lon="-16.441316666666665">
        <ele>1086</ele>
        <time>2024-03-30T12:21:16.000Z</time>
      </trkpt>
      <trkpt lat="28.274366666666666" lon="-16.441283333333335">
        <ele>1089</ele>
        <time>2024-03-30T12:21:17.000Z</time>
      </trkpt>
      <trkpt lat="28.274433333333334" lon="-16.441216666666666">
        <ele>1093</ele>
        <time>2024-03-30T12:21:18.000Z</time>
      </trkpt>
      <trkpt lat="28.27445" lon="-16.441166666666668">
        <ele>1096</ele>
        <time>2024-03-30T12:21:19.000Z</time>
      </trkpt>
      <trkpt lat="28.274433333333334" lon="-16.4411">
        <ele>1096</ele>
        <time>2024-03-30T12:21:20.000Z</time>
      </trkpt>
      <trkpt lat="28.2744" lon="-16.441033333333333">
        <ele>1098</ele>
        <time>2024-03-30T12:21:21.000Z</time>
      </trkpt>
      <trkpt lat="28.274383333333333" lon="-16.44095">
        <ele>1103</ele>
        <time>2024-03-30T12:21:22.000Z</time>
      </trkpt>
      <trkpt lat="28.274416666666667" lon="-16.44086666666667">
        <ele>1106</ele>
        <time>2024-03-30T12:21:23.000Z</time>
      </trkpt>
      <trkpt lat="28.274483333333333" lon="-16.4408">
        <ele>1108</ele>
        <time>2024-03-30T12:21:24.000Z</time>
      </trkpt>
      <trkpt lat="28.274583333333332" lon="-16.440766666666665">
        <ele>1109</ele>
        <time>2024-03-30T12:21:25.000Z</time>
      </trkpt>
      <trkpt lat="28.2747" lon="-16.440783333333332">
        <ele>1109</ele>
        <time>2024-03-30T12:21:26.000Z</time>
      </trkpt>
      <trkpt lat="28.2748" lon="-16.44086666666667">
        <ele>1108</ele>
        <time>2024-03-30T12:21:27.000Z</time>
      </trkpt>
      <trkpt lat="28.27488333333333" lon="-16.441">
        <ele>1107</ele>
        <time>2024-03-30T12:21:28.000Z</time>
      </trkpt>
      <trkpt lat="28.27488333333333" lon="-16.44115">
        <ele>1106</ele>
        <time>2024-03-30T12:21:29.000Z</time>
      </trkpt>
      <trkpt lat="28.274816666666666" lon="-16.441266666666667">
        <ele>1107</ele>
        <time>2024-03-30T12:21:30.000Z</time>
      </trkpt>
      <trkpt lat="28.274733333333334" lon="-16.441333333333333">
        <ele>1108</ele>
        <time>2024-03-30T12:21:31.000Z</time>
      </trkpt>
      <trkpt lat="28.274633333333334" lon="-16.441316666666665">
        <ele>1110</ele>
        <time>2024-03-30T12:21:32.000Z</time>
      </trkpt>
      <trkpt lat="28.274566666666665" lon="-16.44125">
        <ele>1113</ele>
        <time>2024-03-30T12:21:33.000Z</time>
      </trkpt>
      <trkpt lat="28.27455" lon="-16.441166666666668">
        <ele>1116</ele>
        <time>2024-03-30T12:21:34.000Z</time>
      </trkpt>
      <trkpt lat="28.274566666666665" lon="-16.441083333333335">
        <ele>1119</ele>
        <time>2024-03-30T12:21:35.000Z</time>
      </trkpt>
      <trkpt lat="28.2746" lon="-16.441016666666666">
        <ele>1121</ele>
        <time>2024-03-30T12:21:36.000Z</time>
      </trkpt>
      <trkpt lat="28.274616666666667" lon="-16.44095">
        <ele>1124</ele>
        <time>2024-03-30T12:21:37.000Z</time>
      </trkpt>
      <trkpt lat="28.274633333333334" lon="-16.440883333333332">
        <ele>1127</ele>
        <time>2024-03-30T12:21:38.000Z</time>
      </trkpt>
      <trkpt lat="28.27465" lon="-16.440816666666667">
        <ele>1129</ele>
        <time>2024-03-30T12:21:39.000Z</time>
      </trkpt>
      <trkpt lat="28.27465" lon="-16.44075">
        <ele>1132</ele>
        <time>2024-03-30T12:21:40.000Z</time>
      </trkpt>
      <trkpt lat="28.27466666666667" lon="-16.440683333333332">
        <ele>1133</ele>
        <time>2024-03-30T12:21:41.000Z</time>
      </trkpt>
      <trkpt lat="28.274683333333332" lon="-16.440616666666667">
        <ele>1134</ele>
        <time>2024-03-30T12:21:42.000Z</time>
      </trkpt>
      <trkpt lat="28.274733333333334" lon="-16.440533333333335">
        <ele>1133</ele>
        <time>2024-03-30T12:21:43.000Z</time>
      </trkpt>
      <trkpt lat="28.274816666666666" lon="-16.440466666666666">
        <ele>1131</ele>
        <time>2024-03-30T12:21:44.000Z</time>
      </trkpt>
      <trkpt lat="28.2749" lon="-16.4404">
        <ele>1129</ele>
        <time>2024-03-30T12:21:45.000Z</time>
      </trkpt>
      <trkpt lat="28.275" lon="-16.44035">
        <ele>1129</ele>
        <time>2024-03-30T12:21:46.000Z</time>
      </trkpt>
      <trkpt lat="28.275083333333335" lon="-16.440283333333333">
        <ele>1129</ele>
        <time>2024-03-30T12:21:47.000Z</time>
      </trkpt>
      <trkpt lat="28.275133333333333" lon="-16.44023333333333">
        <ele>1128</ele>
        <time>2024-03-30T12:21:48.000Z</time>
      </trkpt>
      <trkpt lat="28.275183333333334" lon="-16.4402">
        <ele>1126</ele>
        <time>2024-03-30T12:21:49.000Z</time>
      </trkpt>
      <trkpt lat="28.275266666666667" lon="-16.440133333333332">
        <ele>1124</ele>
        <time>2024-03-30T12:21:50.000Z</time>
      </trkpt>
      <trkpt lat="28.275333333333332" lon="-16.440066666666667">
        <ele>1123</ele>
        <time>2024-03-30T12:21:51.000Z</time>
      </trkpt>
      <trkpt lat="28.275416666666665" lon="-16.440016666666665">
        <ele>1123</ele>
        <time>2024-03-30T12:21:52.000Z</time>
      </trkpt>
      <trkpt lat="28.275483333333334" lon="-16.439966666666667">
        <ele>1121</ele>
        <time>2024-03-30T12:21:53.000Z</time>
      </trkpt>
      <trkpt lat="28.27555" lon="-16.439916666666665">
        <ele>1118</ele>
        <time>2024-03-30T12:21:54.000Z</time>
      </trkpt>
      <trkpt lat="28.27563333333333" lon="-16.439866666666667">
        <ele>1115</ele>
        <time>2024-03-30T12:21:55.000Z</time>
      </trkpt>
      <trkpt lat="28.275733333333335" lon="-16.4398">
        <ele>1113</ele>
        <time>2024-03-30T12:21:56.000Z</time>
      </trkpt>
      <trkpt lat="28.275816666666667" lon="-16.439733333333333">
        <ele>1113</ele>
        <time>2024-03-30T12:21:57.000Z</time>
      </trkpt>
      <trkpt lat="28.2759" lon="-16.439683333333335">
        <ele>1115</ele>
        <time>2024-03-30T12:21:58.000Z</time>
      </trkpt>
      <trkpt lat="28.27595" lon="-16.439633333333333">
        <ele>1115</ele>
        <time>2024-03-30T12:21:59.000Z</time>
      </trkpt>
      <trkpt lat="28.275983333333333" lon="-16.439566666666668">
        <ele>1115</ele>
        <time>2024-03-30T12:22:00.000Z</time>
      </trkpt>
      <trkpt lat="28.276033333333334" lon="-16.4395">
        <ele>1115</ele>
        <time>2024-03-30T12:22:01.000Z</time>
      </trkpt>
      <trkpt lat="28.2761" lon="-16.43945">
        <ele>1115</ele>
        <time>2024-03-30T12:22:02.000Z</time>
      </trkpt>
      <trkpt lat="28.2762" lon="-16.4394">
        <ele>1115</ele>
        <time>2024-03-30T12:22:03.000Z</time>
      </trkpt>
      <trkpt lat="28.276283333333332" lon="-16.439383333333332">
        <ele>1115</ele>
        <time>2024-03-30T12:22:04.000Z</time>
      </trkpt>
      <trkpt lat="28.27638333333333" lon="-16.43935">
        <ele>1116</ele>
        <time>2024-03-30T12:22:05.000Z</time>
      </trkpt>
      <trkpt lat="28.276483333333335" lon="-16.439333333333334">
        <ele>1116</ele>
        <time>2024-03-30T12:22:06.000Z</time>
      </trkpt>
      <trkpt lat="28.276566666666668" lon="-16.4393">
        <ele>1116</ele>
        <time>2024-03-30T12:22:07.000Z</time>
      </trkpt>
      <trkpt lat="28.276633333333333" lon="-16.439283333333332">
        <ele>1114</ele>
        <time>2024-03-30T12:22:08.000Z</time>
      </trkpt>
      <trkpt lat="28.276716666666665" lon="-16.43925">
        <ele>1112</ele>
        <time>2024-03-30T12:22:09.000Z</time>
      </trkpt>
      <trkpt lat="28.2768" lon="-16.4392">
        <ele>1108</ele>
        <time>2024-03-30T12:22:10.000Z</time>
      </trkpt>
      <trkpt lat="28.276866666666667" lon="-16.43915">
        <ele>1107</ele>
        <time>2024-03-30T12:22:11.000Z</time>
      </trkpt>
      <trkpt lat="28.27695" lon="-16.439083333333333">
        <ele>1107</ele>
        <time>2024-03-30T12:22:12.000Z</time>
      </trkpt>
      <trkpt lat="28.277" lon="-16.439033333333334">
        <ele>1109</ele>
        <time>2024-03-30T12:22:13.000Z</time>
      </trkpt>
      <trkpt lat="28.27705" lon="-16.438966666666666">
        <ele>1111</ele>
        <time>2024-03-30T12:22:14.000Z</time>
      </trkpt>
      <trkpt lat="28.2771" lon="-16.438933333333335">
        <ele>1115</ele>
        <time>2024-03-30T12:22:15.000Z</time>
      </trkpt>
      <trkpt lat="28.27715" lon="-16.438883333333333">
        <ele>1117</ele>
        <time>2024-03-30T12:22:16.000Z</time>
      </trkpt>
      <trkpt lat="28.277216666666668" lon="-16.43885">
        <ele>1119</ele>
        <time>2024-03-30T12:22:17.000Z</time>
      </trkpt>
      <trkpt lat="28.277283333333333" lon="-16.438816666666668">
        <ele>1121</ele>
        <time>2024-03-30T12:22:18.000Z</time>
      </trkpt>
      <trkpt lat="28.277333333333335" lon="-16.438766666666666">
        <ele>1122</ele>
        <time>2024-03-30T12:22:19.000Z</time>
      </trkpt>
      <trkpt lat="28.2774" lon="-16.4387">
        <ele>1123</ele>
        <time>2024-03-30T12:22:20.000Z</time>
      </trkpt>
      <trkpt lat="28.277466666666665" lon="-16.43865">
        <ele>1122</ele>
        <time>2024-03-30T12:22:21.000Z</time>
      </trkpt>
      <trkpt lat="28.27755" lon="-16.4386">
        <ele>1122</ele>
        <time>2024-03-30T12:22:22.000Z</time>
      </trkpt>
      <trkpt lat="28.277633333333334" lon="-16.438566666666667">
        <ele>1121</ele>
        <time>2024-03-30T12:22:23.000Z</time>
      </trkpt>
      <trkpt lat="28.277733333333334" lon="-16.438516666666665">
        <ele>1121</ele>
        <time>2024-03-30T12:22:24.000Z</time>
      </trkpt>
      <trkpt lat="28.277816666666666" lon="-16.438466666666667">
        <ele>1121</ele>
        <time>2024-03-30T12:22:25.000Z</time>
      </trkpt>
      <trkpt lat="28.27788333333333" lon="-16.438383333333334">
        <ele>1123</ele>
        <time>2024-03-30T12:22:26.000Z</time>
      </trkpt>
      <trkpt lat="28.27795" lon="-16.438283333333334">
        <ele>1126</ele>
        <time>2024-03-30T12:22:27.000Z</time>
      </trkpt>
      <trkpt lat="28.277983333333335" lon="-16.438216666666666">
        <ele>1130</ele>
        <time>2024-03-30T12:22:28.000Z</time>
      </trkpt>
      <trkpt lat="28.278016666666666" lon="-16.438183333333335">
        <ele>1131</ele>
        <time>2024-03-30T12:22:29.000Z</time>
      </trkpt>
      <trkpt lat="28.278066666666668" lon="-16.438166666666667">
        <ele>1132</ele>
        <time>2024-03-30T12:22:30.000Z</time>
      </trkpt>
      <trkpt lat="28.278116666666666" lon="-16.438133333333333">
        <ele>1132</ele>
        <time>2024-03-30T12:22:31.000Z</time>
      </trkpt>
      <trkpt lat="28.278183333333335" lon="-16.4381">
        <ele>1133</ele>
        <time>2024-03-30T12:22:32.000Z</time>
      </trkpt>
      <trkpt lat="28.27825" lon="-16.43805">
        <ele>1135</ele>
        <time>2024-03-30T12:22:33.000Z</time>
      </trkpt>
      <trkpt lat="28.278333333333332" lon="-16.438016666666666">
        <ele>1138</ele>
        <time>2024-03-30T12:22:34.000Z</time>
      </trkpt>
      <trkpt lat="28.2784" lon="-16.43798333333333">
        <ele>1140</ele>
        <time>2024-03-30T12:22:35.000Z</time>
      </trkpt>
      <trkpt lat="28.27845" lon="-16.43795">
        <ele>1140</ele>
        <time>2024-03-30T12:22:36.000Z</time>
      </trkpt>
      <trkpt lat="28.27851666666667" lon="-16.437916666666666">
        <ele>1140</ele>
        <time>2024-03-30T12:22:37.000Z</time>
      </trkpt>
      <trkpt lat="28.278583333333334" lon="-16.437866666666668">
        <ele>1139</ele>
        <time>2024-03-30T12:22:38.000Z</time>
      </trkpt>
      <trkpt lat="28.278666666666666" lon="-16.437816666666667">
        <ele>1140</ele>
        <time>2024-03-30T12:22:39.000Z</time>
      </trkpt>
      <trkpt lat="28.278766666666666" lon="-16.43776666666667">
        <ele>1143</ele>
        <time>2024-03-30T12:22:40.000Z</time>
      </trkpt>
      <trkpt lat="28.278833333333335" lon="-16.437716666666667">
        <ele>1146</ele>
        <time>2024-03-30T12:22:41.000Z</time>
      </trkpt>
      <trkpt lat="28.278916666666667" lon="-16.437666666666665">
        <ele>1148</ele>
        <time>2024-03-30T12:22:42.000Z</time>
      </trkpt>
      <trkpt lat="28.278983333333333" lon="-16.437616666666667">
        <ele>1150</ele>
        <time>2024-03-30T12:22:43.000Z</time>
      </trkpt>
      <trkpt lat="28.279066666666665" lon="-16.4376">
        <ele>1153</ele>
        <time>2024-03-30T12:22:44.000Z</time>
      </trkpt>
      <trkpt lat="28.27915" lon="-16.437633333333334">
        <ele>1155</ele>
        <time>2024-03-30T12:22:45.000Z</time>
      </trkpt>
      <trkpt lat="28.279216666666667" lon="-16.4377">
        <ele>1156</ele>
        <time>2024-03-30T12:22:46.000Z</time>
      </trkpt>
      <trkpt lat="28.27926666666667" lon="-16.437816666666667">
        <ele>1156</ele>
        <time>2024-03-30T12:22:47.000Z</time>
      </trkpt>
      <trkpt lat="28.2793" lon="-16.43795">
        <ele>1160</ele>
        <time>2024-03-30T12:22:48.000Z</time>
      </trkpt>
      <trkpt lat="28.279283333333332" lon="-16.438066666666668">
        <ele>1165</ele>
        <time>2024-03-30T12:22:49.000Z</time>
      </trkpt>
      <trkpt lat="28.27925" lon="-16.4381">
        <ele>1167</ele>
        <time>2024-03-30T12:22:50.000Z</time>
      </trkpt>
      <trkpt lat="28.279183333333332" lon="-16.438116666666666">
        <ele>1164</ele>
        <time>2024-03-30T12:22:51.000Z</time>
      </trkpt>
      <trkpt lat="28.2791" lon="-16.438083333333335">
        <ele>1162</ele>
        <time>2024-03-30T12:22:52.000Z</time>
      </trkpt>
      <trkpt lat="28.279016666666667" lon="-16.43798333333333">
        <ele>1163</ele>
        <time>2024-03-30T12:22:53.000Z</time>
      </trkpt>
      <trkpt lat="28.278983333333333" lon="-16.43785">
        <ele>1166</ele>
        <time>2024-03-30T12:22:54.000Z</time>
      </trkpt>
      <trkpt lat="28.27905" lon="-16.437733333333334">
        <ele>1170</ele>
        <time>2024-03-30T12:22:55.000Z</time>
      </trkpt>
      <trkpt lat="28.27915" lon="-16.437666666666665">
        <ele>1172</ele>
        <time>2024-03-30T12:22:56.000Z</time>
      </trkpt>
      <trkpt lat="28.279233333333334" lon="-16.43765">
        <ele>1175</ele>
        <time>2024-03-30T12:22:57.000Z</time>
      </trkpt>
      <trkpt lat="28.279316666666666" lon="-16.4377">
        <ele>1175</ele>
        <time>2024-03-30T12:22:58.000Z</time>
      </trkpt>
      <trkpt lat="28.2794" lon="-16.43776666666667">
        <ele>1176</ele>
        <time>2024-03-30T12:22:59.000Z</time>
      </trkpt>
      <trkpt lat="28.27945" lon="-16.437816666666667">
        <ele>1178</ele>
        <time>2024-03-30T12:23:00.000Z</time>
      </trkpt>
      <trkpt lat="28.279516666666666" lon="-16.437883333333332">
        <ele>1180</ele>
        <time>2024-03-30T12:23:01.000Z</time>
      </trkpt>
      <trkpt lat="28.279566666666668" lon="-16.437966666666668">
        <ele>1182</ele>
        <time>2024-03-30T12:23:02.000Z</time>
      </trkpt>
      <trkpt lat="28.2796" lon="-16.438066666666668">
        <ele>1183</ele>
        <time>2024-03-30T12:23:03.000Z</time>
      </trkpt>
      <trkpt lat="28.279583333333335" lon="-16.438183333333335">
        <ele>1183</ele>
        <time>2024-03-30T12:23:04.000Z</time>
      </trkpt>
      <trkpt lat="28.2795" lon="-16.43825">
        <ele>1182</ele>
        <time>2024-03-30T12:23:05.000Z</time>
      </trkpt>
      <trkpt lat="28.279416666666666" lon="-16.438266666666667">
        <ele>1181</ele>
        <time>2024-03-30T12:23:06.000Z</time>
      </trkpt>
      <trkpt lat="28.279316666666666" lon="-16.4382">
        <ele>1181</ele>
        <time>2024-03-30T12:23:07.000Z</time>
      </trkpt>
      <trkpt lat="28.27925" lon="-16.438083333333335">
        <ele>1182</ele>
        <time>2024-03-30T12:23:08.000Z</time>
      </trkpt>
      <trkpt lat="28.279233333333334" lon="-16.437966666666668">
        <ele>1186</ele>
        <time>2024-03-30T12:23:09.000Z</time>
      </trkpt>
      <trkpt lat="28.27925" lon="-16.437866666666668">
        <ele>1191</ele>
        <time>2024-03-30T12:23:10.000Z</time>
      </trkpt>
      <trkpt lat="28.2793" lon="-16.4378">
        <ele>1194</ele>
        <time>2024-03-30T12:23:11.000Z</time>
      </trkpt>
      <trkpt lat="28.27935" lon="-16.43775">
        <ele>1195</ele>
        <time>2024-03-30T12:23:12.000Z</time>
      </trkpt>
      <trkpt lat="28.27938333333333" lon="-16.437716666666667">
        <ele>1194</ele>
        <time>2024-03-30T12:23:13.000Z</time>
      </trkpt>
      <trkpt lat="28.279433333333333" lon="-16.437683333333332">
        <ele>1194</ele>
        <time>2024-03-30T12:23:14.000Z</time>
      </trkpt>
      <trkpt lat="28.27948333333333" lon="-16.437616666666667">
        <ele>1192</ele>
        <time>2024-03-30T12:23:15.000Z</time>
      </trkpt>
      <trkpt lat="28.279566666666668" lon="-16.43755">
        <ele>1190</ele>
        <time>2024-03-30T12:23:16.000Z</time>
      </trkpt>
      <trkpt lat="28.279666666666667" lon="-16.437516666666667">
        <ele>1189</ele>
        <time>2024-03-30T12:23:17.000Z</time>
      </trkpt>
      <trkpt lat="28.279783333333334" lon="-16.437483333333333">
        <ele>1188</ele>
        <time>2024-03-30T12:23:18.000Z</time>
      </trkpt>
      <trkpt lat="28.279883333333334" lon="-16.437466666666666">
        <ele>1189</ele>
        <time>2024-03-30T12:23:19.000Z</time>
      </trkpt>
      <trkpt lat="28.279983333333334" lon="-16.43745">
        <ele>1192</ele>
        <time>2024-03-30T12:23:20.000Z</time>
      </trkpt>
      <trkpt lat="28.280066666666666" lon="-16.43745">
        <ele>1194</ele>
        <time>2024-03-30T12:23:21.000Z</time>
      </trkpt>
      <trkpt lat="28.280133333333332" lon="-16.437433333333335">
        <ele>1194</ele>
        <time>2024-03-30T12:23:22.000Z</time>
      </trkpt>
      <trkpt lat="28.2802" lon="-16.437416666666667">
        <ele>1195</ele>
        <time>2024-03-30T12:23:23.000Z</time>
      </trkpt>
      <trkpt lat="28.280283333333333" lon="-16.4374">
        <ele>1194</ele>
        <time>2024-03-30T12:23:24.000Z</time>
      </trkpt>
      <trkpt lat="28.280383333333333" lon="-16.437366666666666">
        <ele>1193</ele>
        <time>2024-03-30T12:23:25.000Z</time>
      </trkpt>
      <trkpt lat="28.280483333333333" lon="-16.437316666666668">
        <ele>1194</ele>
        <time>2024-03-30T12:23:26.000Z</time>
      </trkpt>
      <trkpt lat="28.280583333333333" lon="-16.4373">
        <ele>1196</ele>
        <time>2024-03-30T12:23:27.000Z</time>
      </trkpt>
      <trkpt lat="28.280666666666665" lon="-16.437283333333333">
        <ele>1198</ele>
        <time>2024-03-30T12:23:28.000Z</time>
      </trkpt>
      <trkpt lat="28.28075" lon="-16.437266666666666">
        <ele>1199</ele>
        <time>2024-03-30T12:23:29.000Z</time>
      </trkpt>
      <trkpt lat="28.280833333333334" lon="-16.43723333333333">
        <ele>1198</ele>
        <time>2024-03-30T12:23:30.000Z</time>
      </trkpt>
      <trkpt lat="28.280933333333333" lon="-16.437183333333333">
        <ele>1196</ele>
        <time>2024-03-30T12:23:31.000Z</time>
      </trkpt>
      <trkpt lat="28.28105" lon="-16.437133333333332">
        <ele>1195</ele>
        <time>2024-03-30T12:23:32.000Z</time>
      </trkpt>
      <trkpt lat="28.281166666666667" lon="-16.437083333333334">
        <ele>1195</ele>
        <time>2024-03-30T12:23:33.000Z</time>
      </trkpt>
      <trkpt lat="28.281266666666667" lon="-16.43705">
        <ele>1196</ele>
        <time>2024-03-30T12:23:34.000Z</time>
      </trkpt>
      <trkpt lat="28.281366666666667" lon="-16.437033333333332">
        <ele>1195</ele>
        <time>2024-03-30T12:23:35.000Z</time>
      </trkpt>
      <trkpt lat="28.281466666666667" lon="-16.437">
        <ele>1192</ele>
        <time>2024-03-30T12:23:36.000Z</time>
      </trkpt>
      <trkpt lat="28.281583333333334" lon="-16.436983333333334">
        <ele>1186</ele>
        <time>2024-03-30T12:23:37.000Z</time>
      </trkpt>
      <trkpt lat="28.281716666666668" lon="-16.436933333333332">
        <ele>1182</ele>
        <time>2024-03-30T12:23:38.000Z</time>
      </trkpt>
      <trkpt lat="28.281866666666666" lon="-16.4369">
        <ele>1180</ele>
        <time>2024-03-30T12:23:39.000Z</time>
      </trkpt>
      <trkpt lat="28.282016666666667" lon="-16.436866666666667">
        <ele>1181</ele>
        <time>2024-03-30T12:23:40.000Z</time>
      </trkpt>
      <trkpt lat="28.282133333333334" lon="-16.436833333333333">
        <ele>1183</ele>
        <time>2024-03-30T12:23:41.000Z</time>
      </trkpt>
      <trkpt lat="28.282216666666667" lon="-16.436816666666665">
        <ele>1184</ele>
        <time>2024-03-30T12:23:42.000Z</time>
      </trkpt>
      <trkpt lat="28.2823" lon="-16.436783333333334">
        <ele>1183</ele>
        <time>2024-03-30T12:23:43.000Z</time>
      </trkpt>
      <trkpt lat="28.2824" lon="-16.436733333333333">
        <ele>1181</ele>
        <time>2024-03-30T12:23:44.000Z</time>
      </trkpt>
      <trkpt lat="28.282516666666666" lon="-16.436666666666667">
        <ele>1180</ele>
        <time>2024-03-30T12:23:45.000Z</time>
      </trkpt>
      <trkpt lat="28.282616666666666" lon="-16.436616666666666">
        <ele>1182</ele>
        <time>2024-03-30T12:23:46.000Z</time>
      </trkpt>
      <trkpt lat="28.282716666666666" lon="-16.4366">
        <ele>1185</ele>
        <time>2024-03-30T12:23:47.000Z</time>
      </trkpt>
      <trkpt lat="28.2828" lon="-16.436583333333335">
        <ele>1188</ele>
        <time>2024-03-30T12:23:48.000Z</time>
      </trkpt>
      <trkpt lat="28.282883333333334" lon="-16.436566666666668">
        <ele>1190</ele>
        <time>2024-03-30T12:23:49.000Z</time>
      </trkpt>
      <trkpt lat="28.282966666666667" lon="-16.436533333333333">
        <ele>1191</ele>
        <time>2024-03-30T12:23:50.000Z</time>
      </trkpt>
      <trkpt lat="28.283066666666667" lon="-16.436516666666666">
        <ele>1191</ele>
        <time>2024-03-30T12:23:51.000Z</time>
      </trkpt>
      <trkpt lat="28.28315" lon="-16.4365">
        <ele>1192</ele>
        <time>2024-03-30T12:23:52.000Z</time>
      </trkpt>
      <trkpt lat="28.28325" lon="-16.436483333333335">
        <ele>1193</ele>
        <time>2024-03-30T12:23:53.000Z</time>
      </trkpt>
      <trkpt lat="28.28335" lon="-16.436466666666668">
        <ele>1193</ele>
        <time>2024-03-30T12:23:54.000Z</time>
      </trkpt>
      <trkpt lat="28.28345" lon="-16.43645">
        <ele>1194</ele>
        <time>2024-03-30T12:23:55.000Z</time>
      </trkpt>
      <trkpt lat="28.283533333333335" lon="-16.436433333333333">
        <ele>1194</ele>
        <time>2024-03-30T12:23:56.000Z</time>
      </trkpt>
      <trkpt lat="28.283633333333334" lon="-16.436433333333333">
        <ele>1194</ele>
        <time>2024-03-30T12:23:57.000Z</time>
      </trkpt>
      <trkpt lat="28.28375" lon="-16.436416666666666">
        <ele>1194</ele>
        <time>2024-03-30T12:23:58.000Z</time>
      </trkpt>
      <trkpt lat="28.28385" lon="-16.4364">
        <ele>1194</ele>
        <time>2024-03-30T12:23:59.000Z</time>
      </trkpt>
      <trkpt lat="28.283966666666668" lon="-16.436383333333332">
        <ele>1194</ele>
        <time>2024-03-30T12:24:00.000Z</time>
      </trkpt>
      <trkpt lat="28.284083333333335" lon="-16.43635">
        <ele>1194</ele>
        <time>2024-03-30T12:24:01.000Z</time>
      </trkpt>
      <trkpt lat="28.284183333333335" lon="-16.436316666666666">
        <ele>1194</ele>
        <time>2024-03-30T12:24:02.000Z</time>
      </trkpt>
      <trkpt lat="28.2843" lon="-16.4363">
        <ele>1196</ele>
        <time>2024-03-30T12:24:03.000Z</time>
      </trkpt>
      <trkpt lat="28.2844" lon="-16.43626666666667">
        <ele>1197</ele>
        <time>2024-03-30T12:24:04.000Z</time>
      </trkpt>
      <trkpt lat="28.284516666666665" lon="-16.436233333333334">
        <ele>1198</ele>
        <time>2024-03-30T12:24:05.000Z</time>
      </trkpt>
      <trkpt lat="28.28461666666667" lon="-16.436183333333332">
        <ele>1201</ele>
        <time>2024-03-30T12:24:06.000Z</time>
      </trkpt>
      <trkpt lat="28.2847" lon="-16.436116666666667">
        <ele>1204</ele>
        <time>2024-03-30T12:24:07.000Z</time>
      </trkpt>
      <trkpt lat="28.284766666666666" lon="-16.43605">
        <ele>1205</ele>
        <time>2024-03-30T12:24:08.000Z</time>
      </trkpt>
      <trkpt lat="28.284833333333335" lon="-16.436">
        <ele>1206</ele>
        <time>2024-03-30T12:24:09.000Z</time>
      </trkpt>
      <trkpt lat="28.28485" lon="-16.435916666666667">
        <ele>1205</ele>
        <time>2024-03-30T12:24:10.000Z</time>
      </trkpt>
      <trkpt lat="28.284816666666668" lon="-16.435883333333333">
        <ele>1203</ele>
        <time>2024-03-30T12:24:11.000Z</time>
      </trkpt>
      <trkpt lat="28.284766666666666" lon="-16.43585">
        <ele>1201</ele>
        <time>2024-03-30T12:24:12.000Z</time>
      </trkpt>
      <trkpt lat="28.284716666666668" lon="-16.43585">
        <ele>1200</ele>
        <time>2024-03-30T12:24:13.000Z</time>
      </trkpt>
      <trkpt lat="28.284666666666666" lon="-16.435883333333333">
        <ele>1200</ele>
        <time>2024-03-30T12:24:14.000Z</time>
      </trkpt>
      <trkpt lat="28.284633333333332" lon="-16.435933333333335">
        <ele>1201</ele>
        <time>2024-03-30T12:24:15.000Z</time>
      </trkpt>
      <trkpt lat="28.284583333333334" lon="-16.435983333333333">
        <ele>1200</ele>
        <time>2024-03-30T12:24:16.000Z</time>
      </trkpt>
      <trkpt lat="28.28455" lon="-16.436033333333334">
        <ele>1199</ele>
        <time>2024-03-30T12:24:17.000Z</time>
      </trkpt>
      <trkpt lat="28.2845" lon="-16.436083333333332">
        <ele>1199</ele>
        <time>2024-03-30T12:24:18.000Z</time>
      </trkpt>
      <trkpt lat="28.28445" lon="-16.436116666666667">
        <ele>1200</ele>
        <time>2024-03-30T12:24:19.000Z</time>
      </trkpt>
      <trkpt lat="28.284383333333334" lon="-16.43615">
        <ele>1200</ele>
        <time>2024-03-30T12:24:20.000Z</time>
      </trkpt>
      <trkpt lat="28.284316666666665" lon="-16.436166666666665">
        <ele>1201</ele>
        <time>2024-03-30T12:24:21.000Z</time>
      </trkpt>
      <trkpt lat="28.28425" lon="-16.436183333333332">
        <ele>1203</ele>
        <time>2024-03-30T12:24:22.000Z</time>
      </trkpt>
      <trkpt lat="28.2842" lon="-16.436216666666667">
        <ele>1206</ele>
        <time>2024-03-30T12:24:23.000Z</time>
      </trkpt>
      <trkpt lat="28.28415" lon="-16.436233333333334">
        <ele>1209</ele>
        <time>2024-03-30T12:24:24.000Z</time>
      </trkpt>
      <trkpt lat="28.284116666666666" lon="-16.436233333333334">
        <ele>1210</ele>
        <time>2024-03-30T12:24:25.000Z</time>
      </trkpt>
      <trkpt lat="28.284083333333335" lon="-16.436216666666667">
        <ele>1210</ele>
        <time>2024-03-30T12:24:26.000Z</time>
      </trkpt>
      <trkpt lat="28.284033333333333" lon="-16.436216666666667">
        <ele>1210</ele>
        <time>2024-03-30T12:24:27.000Z</time>
      </trkpt>
      <trkpt lat="28.28395" lon="-16.436233333333334">
        <ele>1209</ele>
        <time>2024-03-30T12:24:28.000Z</time>
      </trkpt>
      <trkpt lat="28.28386666666667" lon="-16.43625">
        <ele>1209</ele>
        <time>2024-03-30T12:24:29.000Z</time>
      </trkpt>
      <trkpt lat="28.283783333333332" lon="-16.4363">
        <ele>1212</ele>
        <time>2024-03-30T12:24:30.000Z</time>
      </trkpt>
      <trkpt lat="28.283733333333334" lon="-16.43635">
        <ele>1215</ele>
        <time>2024-03-30T12:24:31.000Z</time>
      </trkpt>
      <trkpt lat="28.283683333333332" lon="-16.436416666666666">
        <ele>1216</ele>
        <time>2024-03-30T12:24:32.000Z</time>
      </trkpt>
      <trkpt lat="28.28365" lon="-16.436483333333335">
        <ele>1217</ele>
        <time>2024-03-30T12:24:33.000Z</time>
      </trkpt>
      <trkpt lat="28.283616666666667" lon="-16.436533333333333">
        <ele>1215</ele>
        <time>2024-03-30T12:24:34.000Z</time>
      </trkpt>
      <trkpt lat="28.28355" lon="-16.436583333333335">
        <ele>1213</ele>
        <time>2024-03-30T12:24:35.000Z</time>
      </trkpt>
      <trkpt lat="28.283483333333333" lon="-16.436633333333333">
        <ele>1211</ele>
        <time>2024-03-30T12:24:36.000Z</time>
      </trkpt>
      <trkpt lat="28.283416666666668" lon="-16.4367">
        <ele>1212</ele>
        <time>2024-03-30T12:24:37.000Z</time>
      </trkpt>
      <trkpt lat="28.28335" lon="-16.436766666666667">
        <ele>1214</ele>
        <time>2024-03-30T12:24:38.000Z</time>
      </trkpt>
      <trkpt lat="28.2833" lon="-16.436816666666665">
        <ele>1217</ele>
        <time>2024-03-30T12:24:39.000Z</time>
      </trkpt>
      <trkpt lat="28.28325" lon="-16.436866666666667">
        <ele>1218</ele>
        <time>2024-03-30T12:24:40.000Z</time>
      </trkpt>
      <trkpt lat="28.2832" lon="-16.4369">
        <ele>1219</ele>
        <time>2024-03-30T12:24:41.000Z</time>
      </trkpt>
      <trkpt lat="28.28315" lon="-16.436933333333332">
        <ele>1219</ele>
        <time>2024-03-30T12:24:42.000Z</time>
      </trkpt>
      <trkpt lat="28.283083333333334" lon="-16.436966666666667">
        <ele>1218</ele>
        <time>2024-03-30T12:24:43.000Z</time>
      </trkpt>
      <trkpt lat="28.28301666666667" lon="-16.437">
        <ele>1217</ele>
        <time>2024-03-30T12:24:44.000Z</time>
      </trkpt>
      <trkpt lat="28.282966666666667" lon="-16.43705">
        <ele>1215</ele>
        <time>2024-03-30T12:24:45.000Z</time>
      </trkpt>
      <trkpt lat="28.2829" lon="-16.4371">
        <ele>1214</ele>
        <time>2024-03-30T12:24:46.000Z</time>
      </trkpt>
      <trkpt lat="28.282833333333333" lon="-16.437166666666666">
        <ele>1213</ele>
        <time>2024-03-30T12:24:47.000Z</time>
      </trkpt>
      <trkpt lat="28.282783333333334" lon="-16.43723333333333">
        <ele>1212</ele>
        <time>2024-03-30T12:24:48.000Z</time>
      </trkpt>
      <trkpt lat="28.282716666666666" lon="-16.4373">
        <ele>1212</ele>
        <time>2024-03-30T12:24:49.000Z</time>
      </trkpt>
      <trkpt lat="28.28265" lon="-16.43735">
        <ele>1211</ele>
        <time>2024-03-30T12:24:50.000Z</time>
      </trkpt>
      <trkpt lat="28.2826" lon="-16.4374">
        <ele>1209</ele>
        <time>2024-03-30T12:24:51.000Z</time>
      </trkpt>
      <trkpt lat="28.282533333333333" lon="-16.437466666666666">
        <ele>1207</ele>
        <time>2024-03-30T12:24:52.000Z</time>
      </trkpt>
      <trkpt lat="28.28248333333333" lon="-16.43755">
        <ele>1204</ele>
        <time>2024-03-30T12:24:53.000Z</time>
      </trkpt>
      <trkpt lat="28.282416666666666" lon="-16.437616666666667">
        <ele>1203</ele>
        <time>2024-03-30T12:24:54.000Z</time>
      </trkpt>
      <trkpt lat="28.28235" lon="-16.437666666666665">
        <ele>1202</ele>
        <time>2024-03-30T12:24:55.000Z</time>
      </trkpt>
      <trkpt lat="28.282283333333332" lon="-16.437716666666667">
        <ele>1200</ele>
        <time>2024-03-30T12:24:56.000Z</time>
      </trkpt>
      <trkpt lat="28.2822" lon="-16.43775">
        <ele>1199</ele>
        <time>2024-03-30T12:24:57.000Z</time>
      </trkpt>
      <trkpt lat="28.282133333333334" lon="-16.4378">
        <ele>1198</ele>
        <time>2024-03-30T12:24:58.000Z</time>
      </trkpt>
      <trkpt lat="28.282083333333333" lon="-16.43785">
        <ele>1196</ele>
        <time>2024-03-30T12:24:59.000Z</time>
      </trkpt>
      <trkpt lat="28.28205" lon="-16.4379">
        <ele>1194</ele>
        <time>2024-03-30T12:25:00.000Z</time>
      </trkpt>
      <trkpt lat="28.281983333333333" lon="-16.437933333333334">
        <ele>1191</ele>
        <time>2024-03-30T12:25:01.000Z</time>
      </trkpt>
      <trkpt lat="28.281933333333335" lon="-16.43795">
        <ele>1188</ele>
        <time>2024-03-30T12:25:02.000Z</time>
      </trkpt>
      <trkpt lat="28.281866666666666" lon="-16.43795">
        <ele>1186</ele>
        <time>2024-03-30T12:25:03.000Z</time>
      </trkpt>
      <trkpt lat="28.2818" lon="-16.43795">
        <ele>1185</ele>
        <time>2024-03-30T12:25:04.000Z</time>
      </trkpt>
      <trkpt lat="28.28173333333333" lon="-16.43798333333333">
        <ele>1182</ele>
        <time>2024-03-30T12:25:05.000Z</time>
      </trkpt>
      <trkpt lat="28.281666666666666" lon="-16.438">
        <ele>1179</ele>
        <time>2024-03-30T12:25:06.000Z</time>
      </trkpt>
      <trkpt lat="28.281566666666667" lon="-16.438033333333333">
        <ele>1176</ele>
        <time>2024-03-30T12:25:07.000Z</time>
      </trkpt>
      <trkpt lat="28.281483333333334" lon="-16.438066666666668">
        <ele>1173</ele>
        <time>2024-03-30T12:25:08.000Z</time>
      </trkpt>
      <trkpt lat="28.2814" lon="-16.438116666666666">
        <ele>1173</ele>
        <time>2024-03-30T12:25:09.000Z</time>
      </trkpt>
      <trkpt lat="28.2813" lon="-16.438166666666667">
        <ele>1174</ele>
        <time>2024-03-30T12:25:10.000Z</time>
      </trkpt>
      <trkpt lat="28.281216666666666" lon="-16.438233333333333">
        <ele>1176</ele>
        <time>2024-03-30T12:25:11.000Z</time>
      </trkpt>
      <trkpt lat="28.28115" lon="-16.438283333333334">
        <ele>1178</ele>
        <time>2024-03-30T12:25:12.000Z</time>
      </trkpt>
      <trkpt lat="28.2811" lon="-16.438333333333333">
        <ele>1180</ele>
        <time>2024-03-30T12:25:13.000Z</time>
      </trkpt>
      <trkpt lat="28.281033333333333" lon="-16.4384">
        <ele>1181</ele>
        <time>2024-03-30T12:25:14.000Z</time>
      </trkpt>
      <trkpt lat="28.280966666666668" lon="-16.43845">
        <ele>1182</ele>
        <time>2024-03-30T12:25:15.000Z</time>
      </trkpt>
      <trkpt lat="28.2809" lon="-16.4385">
        <ele>1182</ele>
        <time>2024-03-30T12:25:16.000Z</time>
      </trkpt>
      <trkpt lat="28.280816666666666" lon="-16.438533333333332">
        <ele>1181</ele>
        <time>2024-03-30T12:25:17.000Z</time>
      </trkpt>
      <trkpt lat="28.28075" lon="-16.43855">
        <ele>1180</ele>
        <time>2024-03-30T12:25:18.000Z</time>
      </trkpt>
      <trkpt lat="28.280666666666665" lon="-16.438566666666667">
        <ele>1179</ele>
        <time>2024-03-30T12:25:19.000Z</time>
      </trkpt>
      <trkpt lat="28.2806" lon="-16.438633333333332">
        <ele>1178</ele>
        <time>2024-03-30T12:25:20.000Z</time>
      </trkpt>
      <trkpt lat="28.28055" lon="-16.43873333333333">
        <ele>1176</ele>
        <time>2024-03-30T12:25:21.000Z</time>
      </trkpt>
      <trkpt lat="28.280483333333333" lon="-16.4388">
        <ele>1174</ele>
        <time>2024-03-30T12:25:22.000Z</time>
      </trkpt>
      <trkpt lat="28.2804" lon="-16.43885">
        <ele>1172</ele>
        <time>2024-03-30T12:25:23.000Z</time>
      </trkpt>
      <trkpt lat="28.280316666666668" lon="-16.4389">
        <ele>1170</ele>
        <time>2024-03-30T12:25:24.000Z</time>
      </trkpt>
      <trkpt lat="28.280216666666668" lon="-16.438966666666666">
        <ele>1170</ele>
        <time>2024-03-30T12:25:25.000Z</time>
      </trkpt>
      <trkpt lat="28.28015" lon="-16.43905">
        <ele>1170</ele>
        <time>2024-03-30T12:25:26.000Z</time>
      </trkpt>
      <trkpt lat="28.280066666666666" lon="-16.439133333333334">
        <ele>1169</ele>
        <time>2024-03-30T12:25:27.000Z</time>
      </trkpt>
      <trkpt lat="28.279983333333334" lon="-16.4392">
        <ele>1169</ele>
        <time>2024-03-30T12:25:28.000Z</time>
      </trkpt>
      <trkpt lat="28.2799" lon="-16.43925">
        <ele>1168</ele>
        <time>2024-03-30T12:25:29.000Z</time>
      </trkpt>
      <trkpt lat="28.279816666666665" lon="-16.4393">
        <ele>1169</ele>
        <time>2024-03-30T12:25:30.000Z</time>
      </trkpt>
      <trkpt lat="28.279733333333333" lon="-16.43935">
        <ele>1169</ele>
        <time>2024-03-30T12:25:31.000Z</time>
      </trkpt>
      <trkpt lat="28.27965" lon="-16.439416666666666">
        <ele>1169</ele>
        <time>2024-03-30T12:25:32.000Z</time>
      </trkpt>
      <trkpt lat="28.27955" lon="-16.43948333333333">
        <ele>1170</ele>
        <time>2024-03-30T12:25:33.000Z</time>
      </trkpt>
      <trkpt lat="28.279466666666668" lon="-16.439533333333333">
        <ele>1173</ele>
        <time>2024-03-30T12:25:34.000Z</time>
      </trkpt>
      <trkpt lat="28.2794" lon="-16.43955">
        <ele>1176</ele>
        <time>2024-03-30T12:25:35.000Z</time>
      </trkpt>
      <trkpt lat="28.279333333333334" lon="-16.439583333333335">
        <ele>1178</ele>
        <time>2024-03-30T12:25:36.000Z</time>
      </trkpt>
      <trkpt lat="28.27926666666667" lon="-16.4396">
        <ele>1180</ele>
        <time>2024-03-30T12:25:37.000Z</time>
      </trkpt>
      <trkpt lat="28.2792" lon="-16.43965">
        <ele>1182</ele>
        <time>2024-03-30T12:25:38.000Z</time>
      </trkpt>
      <trkpt lat="28.2791" lon="-16.4397">
        <ele>1184</ele>
        <time>2024-03-30T12:25:39.000Z</time>
      </trkpt>
      <trkpt lat="28.279033333333334" lon="-16.439733333333333">
        <ele>1188</ele>
        <time>2024-03-30T12:25:40.000Z</time>
      </trkpt>
      <trkpt lat="28.278983333333333" lon="-16.43975">
        <ele>1192</ele>
        <time>2024-03-30T12:25:41.000Z</time>
      </trkpt>
      <trkpt lat="28.278933333333335" lon="-16.43975">
        <ele>1193</ele>
        <time>2024-03-30T12:25:42.000Z</time>
      </trkpt>
      <trkpt lat="28.278883333333333" lon="-16.439733333333333">
        <ele>1193</ele>
        <time>2024-03-30T12:25:43.000Z</time>
      </trkpt>
      <trkpt lat="28.278833333333335" lon="-16.43975">
        <ele>1192</ele>
        <time>2024-03-30T12:25:44.000Z</time>
      </trkpt>
      <trkpt lat="28.278766666666666" lon="-16.43975">
        <ele>1191</ele>
        <time>2024-03-30T12:25:45.000Z</time>
      </trkpt>
      <trkpt lat="28.278683333333333" lon="-16.439783333333335">
        <ele>1193</ele>
        <time>2024-03-30T12:25:46.000Z</time>
      </trkpt>
      <trkpt lat="28.2786" lon="-16.439833333333333">
        <ele>1196</ele>
        <time>2024-03-30T12:25:47.000Z</time>
      </trkpt>
      <trkpt lat="28.27855" lon="-16.439883333333334">
        <ele>1200</ele>
        <time>2024-03-30T12:25:48.000Z</time>
      </trkpt>
      <trkpt lat="28.27851666666667" lon="-16.439933333333332">
        <ele>1202</ele>
        <time>2024-03-30T12:25:49.000Z</time>
      </trkpt>
      <trkpt lat="28.278483333333334" lon="-16.439983333333334">
        <ele>1203</ele>
        <time>2024-03-30T12:25:50.000Z</time>
      </trkpt>
      <trkpt lat="28.278433333333332" lon="-16.440033333333332">
        <ele>1203</ele>
        <time>2024-03-30T12:25:51.000Z</time>
      </trkpt>
      <trkpt lat="28.278383333333334" lon="-16.4401">
        <ele>1204</ele>
        <time>2024-03-30T12:25:52.000Z</time>
      </trkpt>
      <trkpt lat="28.278316666666665" lon="-16.44015">
        <ele>1205</ele>
        <time>2024-03-30T12:25:53.000Z</time>
      </trkpt>
      <trkpt lat="28.278266666666667" lon="-16.4402">
        <ele>1206</ele>
        <time>2024-03-30T12:25:54.000Z</time>
      </trkpt>
      <trkpt lat="28.2782" lon="-16.44023333333333">
        <ele>1206</ele>
        <time>2024-03-30T12:25:55.000Z</time>
      </trkpt>
      <trkpt lat="28.278116666666666" lon="-16.44025">
        <ele>1206</ele>
        <time>2024-03-30T12:25:56.000Z</time>
      </trkpt>
      <trkpt lat="28.27805" lon="-16.440283333333333">
        <ele>1205</ele>
        <time>2024-03-30T12:25:57.000Z</time>
      </trkpt>
      <trkpt lat="28.27795" lon="-16.440316666666668">
        <ele>1204</ele>
        <time>2024-03-30T12:25:58.000Z</time>
      </trkpt>
      <trkpt lat="28.277866666666668" lon="-16.440366666666666">
        <ele>1203</ele>
        <time>2024-03-30T12:25:59.000Z</time>
      </trkpt>
      <trkpt lat="28.277783333333332" lon="-16.440416666666668">
        <ele>1203</ele>
        <time>2024-03-30T12:26:00.000Z</time>
      </trkpt>
      <trkpt lat="28.277716666666667" lon="-16.440466666666666">
        <ele>1203</ele>
        <time>2024-03-30T12:26:01.000Z</time>
      </trkpt>
      <trkpt lat="28.27765" lon="-16.440533333333335">
        <ele>1202</ele>
        <time>2024-03-30T12:26:02.000Z</time>
      </trkpt>
      <trkpt lat="28.277583333333332" lon="-16.4406">
        <ele>1200</ele>
        <time>2024-03-30T12:26:03.000Z</time>
      </trkpt>
      <trkpt lat="28.277483333333333" lon="-16.440683333333332">
        <ele>1198</ele>
        <time>2024-03-30T12:26:04.000Z</time>
      </trkpt>
      <trkpt lat="28.277416666666667" lon="-16.440783333333332">
        <ele>1198</ele>
        <time>2024-03-30T12:26:05.000Z</time>
      </trkpt>
      <trkpt lat="28.277333333333335" lon="-16.44086666666667">
        <ele>1197</ele>
        <time>2024-03-30T12:26:06.000Z</time>
      </trkpt>
      <trkpt lat="28.277266666666666" lon="-16.440966666666668">
        <ele>1197</ele>
        <time>2024-03-30T12:26:07.000Z</time>
      </trkpt>
      <trkpt lat="28.2772" lon="-16.44105">
        <ele>1197</ele>
        <time>2024-03-30T12:26:08.000Z</time>
      </trkpt>
      <trkpt lat="28.27715" lon="-16.44115">
        <ele>1195</ele>
        <time>2024-03-30T12:26:09.000Z</time>
      </trkpt>
      <trkpt lat="28.277083333333334" lon="-16.441233333333333">
        <ele>1194</ele>
        <time>2024-03-30T12:26:10.000Z</time>
      </trkpt>
      <trkpt lat="28.27701666666667" lon="-16.441316666666665">
        <ele>1193</ele>
        <time>2024-03-30T12:26:11.000Z</time>
      </trkpt>
      <trkpt lat="28.27695" lon="-16.441383333333334">
        <ele>1193</ele>
        <time>2024-03-30T12:26:12.000Z</time>
      </trkpt>
      <trkpt lat="28.276883333333334" lon="-16.441433333333332">
        <ele>1194</ele>
        <time>2024-03-30T12:26:13.000Z</time>
      </trkpt>
      <trkpt lat="28.276816666666665" lon="-16.441466666666667">
        <ele>1194</ele>
        <time>2024-03-30T12:26:14.000Z</time>
      </trkpt>
      <trkpt lat="28.27675" lon="-16.441516666666665">
        <ele>1193</ele>
        <time>2024-03-30T12:26:15.000Z</time>
      </trkpt>
      <trkpt lat="28.2767" lon="-16.441583333333334">
        <ele>1192</ele>
        <time>2024-03-30T12:26:16.000Z</time>
      </trkpt>
      <trkpt lat="28.276633333333333" lon="-16.441683333333334">
        <ele>1190</ele>
        <time>2024-03-30T12:26:17.000Z</time>
      </trkpt>
      <trkpt lat="28.27655" lon="-16.441783333333333">
        <ele>1189</ele>
        <time>2024-03-30T12:26:18.000Z</time>
      </trkpt>
      <trkpt lat="28.276483333333335" lon="-16.4419">
        <ele>1191</ele>
        <time>2024-03-30T12:26:19.000Z</time>
      </trkpt>
      <trkpt lat="28.2764" lon="-16.441966666666666">
        <ele>1194</ele>
        <time>2024-03-30T12:26:20.000Z</time>
      </trkpt>
      <trkpt lat="28.276316666666666" lon="-16.442016666666667">
        <ele>1197</ele>
        <time>2024-03-30T12:26:21.000Z</time>
      </trkpt>
      <trkpt lat="28.276233333333334" lon="-16.442033333333335">
        <ele>1200</ele>
        <time>2024-03-30T12:26:22.000Z</time>
      </trkpt>
      <trkpt lat="28.27616666666667" lon="-16.442083333333333">
        <ele>1201</ele>
        <time>2024-03-30T12:26:23.000Z</time>
      </trkpt>
      <trkpt lat="28.276083333333332" lon="-16.442133333333334">
        <ele>1203</ele>
        <time>2024-03-30T12:26:24.000Z</time>
      </trkpt>
      <trkpt lat="28.276016666666667" lon="-16.4422">
        <ele>1204</ele>
        <time>2024-03-30T12:26:25.000Z</time>
      </trkpt>
      <trkpt lat="28.27595" lon="-16.442266666666665">
        <ele>1205</ele>
        <time>2024-03-30T12:26:26.000Z</time>
      </trkpt>
      <trkpt lat="28.275883333333333" lon="-16.442333333333334">
        <ele>1206</ele>
        <time>2024-03-30T12:26:27.000Z</time>
      </trkpt>
      <trkpt lat="28.275816666666667" lon="-16.4424">
        <ele>1208</ele>
        <time>2024-03-30T12:26:28.000Z</time>
      </trkpt>
      <trkpt lat="28.27575" lon="-16.442466666666668">
        <ele>1211</ele>
        <time>2024-03-30T12:26:29.000Z</time>
      </trkpt>
      <trkpt lat="28.2757" lon="-16.442533333333333">
        <ele>1216</ele>
        <time>2024-03-30T12:26:30.000Z</time>
      </trkpt>
      <trkpt lat="28.27563333333333" lon="-16.44255">
        <ele>1220</ele>
        <time>2024-03-30T12:26:31.000Z</time>
      </trkpt>
      <trkpt lat="28.2756" lon="-16.44255">
        <ele>1222</ele>
        <time>2024-03-30T12:26:32.000Z</time>
      </trkpt>
      <trkpt lat="28.275566666666666" lon="-16.442516666666666">
        <ele>1223</ele>
        <time>2024-03-30T12:26:33.000Z</time>
      </trkpt>
      <trkpt lat="28.275566666666666" lon="-16.442433333333334">
        <ele>1224</ele>
        <time>2024-03-30T12:26:34.000Z</time>
      </trkpt>
      <trkpt lat="28.2756" lon="-16.44236666666667">
        <ele>1227</ele>
        <time>2024-03-30T12:26:35.000Z</time>
      </trkpt>
      <trkpt lat="28.275683333333333" lon="-16.4423">
        <ele>1227</ele>
        <time>2024-03-30T12:26:36.000Z</time>
      </trkpt>
      <trkpt lat="28.2758" lon="-16.442266666666665">
        <ele>1227</ele>
        <time>2024-03-30T12:26:37.000Z</time>
      </trkpt>
      <trkpt lat="28.275933333333334" lon="-16.4423">
        <ele>1228</ele>
        <time>2024-03-30T12:26:38.000Z</time>
      </trkpt>
      <trkpt lat="28.276016666666667" lon="-16.4424">
        <ele>1230</ele>
        <time>2024-03-30T12:26:39.000Z</time>
      </trkpt>
      <trkpt lat="28.276066666666665" lon="-16.442516666666666">
        <ele>1232</ele>
        <time>2024-03-30T12:26:40.000Z</time>
      </trkpt>
      <trkpt lat="28.276083333333332" lon="-16.442633333333333">
        <ele>1234</ele>
        <time>2024-03-30T12:26:41.000Z</time>
      </trkpt>
      <trkpt lat="28.276083333333332" lon="-16.44275">
        <ele>1237</ele>
        <time>2024-03-30T12:26:42.000Z</time>
      </trkpt>
      <trkpt lat="28.276066666666665" lon="-16.44285">
        <ele>1240</ele>
        <time>2024-03-30T12:26:43.000Z</time>
      </trkpt>
      <trkpt lat="28.27605" lon="-16.442916666666665">
        <ele>1243</ele>
        <time>2024-03-30T12:26:44.000Z</time>
      </trkpt>
      <trkpt lat="28.276016666666667" lon="-16.442966666666667">
        <ele>1245</ele>
        <time>2024-03-30T12:26:45.000Z</time>
      </trkpt>
      <trkpt lat="28.27595" lon="-16.442983333333334">
        <ele>1245</ele>
        <time>2024-03-30T12:26:46.000Z</time>
      </trkpt>
      <trkpt lat="28.2759" lon="-16.442983333333334">
        <ele>1245</ele>
        <time>2024-03-30T12:26:47.000Z</time>
      </trkpt>
      <trkpt lat="28.27585" lon="-16.44295">
        <ele>1246</ele>
        <time>2024-03-30T12:26:48.000Z</time>
      </trkpt>
      <trkpt lat="28.275833333333335" lon="-16.4429">
        <ele>1247</ele>
        <time>2024-03-30T12:26:49.000Z</time>
      </trkpt>
      <trkpt lat="28.275833333333335" lon="-16.442833333333333">
        <ele>1248</ele>
        <time>2024-03-30T12:26:50.000Z</time>
      </trkpt>
      <trkpt lat="28.275866666666666" lon="-16.44275">
        <ele>1248</ele>
        <time>2024-03-30T12:26:51.000Z</time>
      </trkpt>
      <trkpt lat="28.27595" lon="-16.442666666666668">
        <ele>1249</ele>
        <time>2024-03-30T12:26:52.000Z</time>
      </trkpt>
      <trkpt lat="28.276066666666665" lon="-16.442616666666666">
        <ele>1251</ele>
        <time>2024-03-30T12:26:53.000Z</time>
      </trkpt>
      <trkpt lat="28.2762" lon="-16.442633333333333">
        <ele>1254</ele>
        <time>2024-03-30T12:26:54.000Z</time>
      </trkpt>
      <trkpt lat="28.276283333333332" lon="-16.442683333333335">
        <ele>1257</ele>
        <time>2024-03-30T12:26:55.000Z</time>
      </trkpt>
      <trkpt lat="28.27635" lon="-16.442766666666667">
        <ele>1259</ele>
        <time>2024-03-30T12:26:56.000Z</time>
      </trkpt>
      <trkpt lat="28.2764" lon="-16.44285">
        <ele>1261</ele>
        <time>2024-03-30T12:26:57.000Z</time>
      </trkpt>
      <trkpt lat="28.27645" lon="-16.442933333333333">
        <ele>1262</ele>
        <time>2024-03-30T12:26:58.000Z</time>
      </trkpt>
      <trkpt lat="28.2765" lon="-16.44305">
        <ele>1263</ele>
        <time>2024-03-30T12:26:59.000Z</time>
      </trkpt>
      <trkpt lat="28.276516666666666" lon="-16.443166666666666">
        <ele>1264</ele>
        <time>2024-03-30T12:27:00.000Z</time>
      </trkpt>
      <trkpt lat="28.276516666666666" lon="-16.443283333333333">
        <ele>1266</ele>
        <time>2024-03-30T12:27:01.000Z</time>
      </trkpt>
      <trkpt lat="28.2765" lon="-16.443383333333333">
        <ele>1268</ele>
        <time>2024-03-30T12:27:02.000Z</time>
      </trkpt>
      <trkpt lat="28.276466666666668" lon="-16.44345">
        <ele>1269</ele>
        <time>2024-03-30T12:27:03.000Z</time>
      </trkpt>
      <trkpt lat="28.276416666666666" lon="-16.443483333333333">
        <ele>1269</ele>
        <time>2024-03-30T12:27:04.000Z</time>
      </trkpt>
      <trkpt lat="28.276366666666668" lon="-16.4435">
        <ele>1268</ele>
        <time>2024-03-30T12:27:05.000Z</time>
      </trkpt>
      <trkpt lat="28.276316666666666" lon="-16.443483333333333">
        <ele>1267</ele>
        <time>2024-03-30T12:27:06.000Z</time>
      </trkpt>
      <trkpt lat="28.276266666666668" lon="-16.44345">
        <ele>1267</ele>
        <time>2024-03-30T12:27:07.000Z</time>
      </trkpt>
      <trkpt lat="28.27625" lon="-16.4434">
        <ele>1268</ele>
        <time>2024-03-30T12:27:08.000Z</time>
      </trkpt>
      <trkpt lat="28.276283333333332" lon="-16.443316666666668">
        <ele>1268</ele>
        <time>2024-03-30T12:27:09.000Z</time>
      </trkpt>
      <trkpt lat="28.276366666666668" lon="-16.443216666666668">
        <ele>1268</ele>
        <time>2024-03-30T12:27:10.000Z</time>
      </trkpt>
      <trkpt lat="28.276483333333335" lon="-16.443183333333334">
        <ele>1268</ele>
        <time>2024-03-30T12:27:11.000Z</time>
      </trkpt>
      <trkpt lat="28.276616666666666" lon="-16.443216666666668">
        <ele>1269</ele>
        <time>2024-03-30T12:27:12.000Z</time>
      </trkpt>
      <trkpt lat="28.276733333333333" lon="-16.443316666666668">
        <ele>1270</ele>
        <time>2024-03-30T12:27:13.000Z</time>
      </trkpt>
      <trkpt lat="28.276833333333332" lon="-16.44345">
        <ele>1271</ele>
        <time>2024-03-30T12:27:14.000Z</time>
      </trkpt>
      <trkpt lat="28.276883333333334" lon="-16.4436">
        <ele>1275</ele>
        <time>2024-03-30T12:27:15.000Z</time>
      </trkpt>
      <trkpt lat="28.2769" lon="-16.443716666666667">
        <ele>1278</ele>
        <time>2024-03-30T12:27:16.000Z</time>
      </trkpt>
      <trkpt lat="28.2769" lon="-16.443833333333334">
        <ele>1280</ele>
        <time>2024-03-30T12:27:17.000Z</time>
      </trkpt>
      <trkpt lat="28.2769" lon="-16.443916666666667">
        <ele>1279</ele>
        <time>2024-03-30T12:27:18.000Z</time>
      </trkpt>
      <trkpt lat="28.2769" lon="-16.444">
        <ele>1277</ele>
        <time>2024-03-30T12:27:19.000Z</time>
      </trkpt>
      <trkpt lat="28.276883333333334" lon="-16.4441">
        <ele>1275</ele>
        <time>2024-03-30T12:27:20.000Z</time>
      </trkpt>
      <trkpt lat="28.27685" lon="-16.4442">
        <ele>1272</ele>
        <time>2024-03-30T12:27:21.000Z</time>
      </trkpt>
      <trkpt lat="28.276816666666665" lon="-16.4443">
        <ele>1270</ele>
        <time>2024-03-30T12:27:22.000Z</time>
      </trkpt>
      <trkpt lat="28.27675" lon="-16.4444">
        <ele>1269</ele>
        <time>2024-03-30T12:27:23.000Z</time>
      </trkpt>
      <trkpt lat="28.2767" lon="-16.4445">
        <ele>1268</ele>
        <time>2024-03-30T12:27:24.000Z</time>
      </trkpt>
      <trkpt lat="28.276633333333333" lon="-16.444583333333334">
        <ele>1268</ele>
        <time>2024-03-30T12:27:25.000Z</time>
      </trkpt>
      <trkpt lat="28.276583333333335" lon="-16.444666666666667">
        <ele>1268</ele>
        <time>2024-03-30T12:27:26.000Z</time>
      </trkpt>
      <trkpt lat="28.276533333333333" lon="-16.44475">
        <ele>1267</ele>
        <time>2024-03-30T12:27:27.000Z</time>
      </trkpt>
      <trkpt lat="28.276483333333335" lon="-16.44483333333333">
        <ele>1265</ele>
        <time>2024-03-30T12:27:28.000Z</time>
      </trkpt>
      <trkpt lat="28.276416666666666" lon="-16.444916666666668">
        <ele>1262</ele>
        <time>2024-03-30T12:27:29.000Z</time>
      </trkpt>
      <trkpt lat="28.276333333333334" lon="-16.444983333333333">
        <ele>1260</ele>
        <time>2024-03-30T12:27:30.000Z</time>
      </trkpt>
      <trkpt lat="28.27625" lon="-16.44505">
        <ele>1258</ele>
        <time>2024-03-30T12:27:31.000Z</time>
      </trkpt>
      <trkpt lat="28.27615" lon="-16.4451">
        <ele>1256</ele>
        <time>2024-03-30T12:27:32.000Z</time>
      </trkpt>
      <trkpt lat="28.276083333333332" lon="-16.445166666666665">
        <ele>1255</ele>
        <time>2024-03-30T12:27:33.000Z</time>
      </trkpt>
      <trkpt lat="28.276016666666667" lon="-16.445233333333334">
        <ele>1254</ele>
        <time>2024-03-30T12:27:34.000Z</time>
      </trkpt>
      <trkpt lat="28.27595" lon="-16.4453">
        <ele>1251</ele>
        <time>2024-03-30T12:27:35.000Z</time>
      </trkpt>
      <trkpt lat="28.275866666666666" lon="-16.445366666666665">
        <ele>1249</ele>
        <time>2024-03-30T12:27:36.000Z</time>
      </trkpt>
      <trkpt lat="28.275783333333333" lon="-16.44545">
        <ele>1247</ele>
        <time>2024-03-30T12:27:37.000Z</time>
      </trkpt>
      <trkpt lat="28.275716666666668" lon="-16.445533333333334">
        <ele>1247</ele>
        <time>2024-03-30T12:27:38.000Z</time>
      </trkpt>
      <trkpt lat="28.275666666666666" lon="-16.4456">
        <ele>1246</ele>
        <time>2024-03-30T12:27:39.000Z</time>
      </trkpt>
      <trkpt lat="28.2756" lon="-16.445666666666668">
        <ele>1244</ele>
        <time>2024-03-30T12:27:40.000Z</time>
      </trkpt>
      <trkpt lat="28.275533333333332" lon="-16.445733333333333">
        <ele>1241</ele>
        <time>2024-03-30T12:27:41.000Z</time>
      </trkpt>
      <trkpt lat="28.27545" lon="-16.4458">
        <ele>1239</ele>
        <time>2024-03-30T12:27:42.000Z</time>
      </trkpt>
      <trkpt lat="28.275383333333334" lon="-16.445866666666667">
        <ele>1236</ele>
        <time>2024-03-30T12:27:43.000Z</time>
      </trkpt>
      <trkpt lat="28.275316666666665" lon="-16.445933333333333">
        <ele>1233</ele>
        <time>2024-03-30T12:27:44.000Z</time>
      </trkpt>
      <trkpt lat="28.27525" lon="-16.446">
        <ele>1230</ele>
        <time>2024-03-30T12:27:45.000Z</time>
      </trkpt>
      <trkpt lat="28.275166666666667" lon="-16.446083333333334">
        <ele>1228</ele>
        <time>2024-03-30T12:27:46.000Z</time>
      </trkpt>
      <trkpt lat="28.275083333333335" lon="-16.446166666666667">
        <ele>1225</ele>
        <time>2024-03-30T12:27:47.000Z</time>
      </trkpt>
      <trkpt lat="28.275016666666666" lon="-16.44625">
        <ele>1224</ele>
        <time>2024-03-30T12:27:48.000Z</time>
      </trkpt>
      <trkpt lat="28.27495" lon="-16.446316666666668">
        <ele>1222</ele>
        <time>2024-03-30T12:27:49.000Z</time>
      </trkpt>
      <trkpt lat="28.27488333333333" lon="-16.446416666666668">
        <ele>1220</ele>
        <time>2024-03-30T12:27:50.000Z</time>
      </trkpt>
      <trkpt lat="28.274816666666666" lon="-16.4465">
        <ele>1217</ele>
        <time>2024-03-30T12:27:51.000Z</time>
      </trkpt>
      <trkpt lat="28.27475" lon="-16.446583333333333">
        <ele>1215</ele>
        <time>2024-03-30T12:27:52.000Z</time>
      </trkpt>
      <trkpt lat="28.27465" lon="-16.446649999999998">
        <ele>1214</ele>
        <time>2024-03-30T12:27:53.000Z</time>
      </trkpt>
      <trkpt lat="28.27455" lon="-16.446716666666667">
        <ele>1217</ele>
        <time>2024-03-30T12:27:54.000Z</time>
      </trkpt>
      <trkpt lat="28.274466666666665" lon="-16.446766666666665">
        <ele>1222</ele>
        <time>2024-03-30T12:27:55.000Z</time>
      </trkpt>
      <trkpt lat="28.274416666666667" lon="-16.4468">
        <ele>1225</ele>
        <time>2024-03-30T12:27:56.000Z</time>
      </trkpt>
      <trkpt lat="28.274366666666666" lon="-16.44685">
        <ele>1226</ele>
        <time>2024-03-30T12:27:57.000Z</time>
      </trkpt>
      <trkpt lat="28.274333333333335" lon="-16.4469">
        <ele>1225</ele>
        <time>2024-03-30T12:27:58.000Z</time>
      </trkpt>
      <trkpt lat="28.274266666666666" lon="-16.44695">
        <ele>1222</ele>
        <time>2024-03-30T12:27:59.000Z</time>
      </trkpt>
      <trkpt lat="28.274183333333333" lon="-16.447">
        <ele>1220</ele>
        <time>2024-03-30T12:28:00.000Z</time>
      </trkpt>
      <trkpt lat="28.2741" lon="-16.44705">
        <ele>1219</ele>
        <time>2024-03-30T12:28:01.000Z</time>
      </trkpt>
      <trkpt lat="28.274016666666668" lon="-16.447116666666666">
        <ele>1218</ele>
        <time>2024-03-30T12:28:02.000Z</time>
      </trkpt>
      <trkpt lat="28.273933333333332" lon="-16.447183333333335">
        <ele>1219</ele>
        <time>2024-03-30T12:28:03.000Z</time>
      </trkpt>
      <trkpt lat="28.27385" lon="-16.447233333333333">
        <ele>1218</ele>
        <time>2024-03-30T12:28:04.000Z</time>
      </trkpt>
      <trkpt lat="28.273766666666667" lon="-16.447283333333335">
        <ele>1217</ele>
        <time>2024-03-30T12:28:05.000Z</time>
      </trkpt>
      <trkpt lat="28.273683333333334" lon="-16.44735">
        <ele>1215</ele>
        <time>2024-03-30T12:28:06.000Z</time>
      </trkpt>
      <trkpt lat="28.2736" lon="-16.447400000000002">
        <ele>1214</ele>
        <time>2024-03-30T12:28:07.000Z</time>
      </trkpt>
      <trkpt lat="28.2735" lon="-16.44745">
        <ele>1214</ele>
        <time>2024-03-30T12:28:08.000Z</time>
      </trkpt>
      <trkpt lat="28.273416666666666" lon="-16.447516666666665">
        <ele>1215</ele>
        <time>2024-03-30T12:28:09.000Z</time>
      </trkpt>
      <trkpt lat="28.27335" lon="-16.447566666666667">
        <ele>1215</ele>
        <time>2024-03-30T12:28:10.000Z</time>
      </trkpt>
      <trkpt lat="28.27328333333333" lon="-16.447616666666665">
        <ele>1215</ele>
        <time>2024-03-30T12:28:11.000Z</time>
      </trkpt>
      <trkpt lat="28.273216666666666" lon="-16.44765">
        <ele>1213</ele>
        <time>2024-03-30T12:28:12.000Z</time>
      </trkpt>
      <trkpt lat="28.273133333333334" lon="-16.447683333333334">
        <ele>1211</ele>
        <time>2024-03-30T12:28:13.000Z</time>
      </trkpt>
      <trkpt lat="28.273033333333334" lon="-16.447733333333332">
        <ele>1209</ele>
        <time>2024-03-30T12:28:14.000Z</time>
      </trkpt>
      <trkpt lat="28.27295" lon="-16.447766666666666">
        <ele>1208</ele>
        <time>2024-03-30T12:28:15.000Z</time>
      </trkpt>
      <trkpt lat="28.272866666666665" lon="-16.4478">
        <ele>1209</ele>
        <time>2024-03-30T12:28:16.000Z</time>
      </trkpt>
      <trkpt lat="28.272816666666667" lon="-16.44783333333333">
        <ele>1209</ele>
        <time>2024-03-30T12:28:17.000Z</time>
      </trkpt>
      <trkpt lat="28.27275" lon="-16.447866666666666">
        <ele>1208</ele>
        <time>2024-03-30T12:28:18.000Z</time>
      </trkpt>
      <trkpt lat="28.2727" lon="-16.447883333333333">
        <ele>1207</ele>
        <time>2024-03-30T12:28:19.000Z</time>
      </trkpt>
      <trkpt lat="28.272633333333335" lon="-16.447916666666668">
        <ele>1205</ele>
        <time>2024-03-30T12:28:20.000Z</time>
      </trkpt>
      <trkpt lat="28.27255" lon="-16.447966666666666">
        <ele>1204</ele>
        <time>2024-03-30T12:28:21.000Z</time>
      </trkpt>
      <trkpt lat="28.272483333333334" lon="-16.448">
        <ele>1205</ele>
        <time>2024-03-30T12:28:22.000Z</time>
      </trkpt>
      <trkpt lat="28.27241666666667" lon="-16.448016666666668">
        <ele>1205</ele>
        <time>2024-03-30T12:28:23.000Z</time>
      </trkpt>
      <trkpt lat="28.272383333333334" lon="-16.448033333333335">
        <ele>1205</ele>
        <time>2024-03-30T12:28:24.000Z</time>
      </trkpt>
      <trkpt lat="28.27235" lon="-16.448083333333333">
        <ele>1205</ele>
        <time>2024-03-30T12:28:25.000Z</time>
      </trkpt>
      <trkpt lat="28.2723" lon="-16.448116666666667">
        <ele>1204</ele>
        <time>2024-03-30T12:28:26.000Z</time>
      </trkpt>
      <trkpt lat="28.272233333333332" lon="-16.448166666666665">
        <ele>1203</ele>
        <time>2024-03-30T12:28:27.000Z</time>
      </trkpt>
      <trkpt lat="28.272183333333334" lon="-16.4482">
        <ele>1202</ele>
        <time>2024-03-30T12:28:28.000Z</time>
      </trkpt>
      <trkpt lat="28.272116666666665" lon="-16.448216666666667">
        <ele>1202</ele>
        <time>2024-03-30T12:28:29.000Z</time>
      </trkpt>
      <trkpt lat="28.272066666666667" lon="-16.448233333333334">
        <ele>1201</ele>
        <time>2024-03-30T12:28:30.000Z</time>
      </trkpt>
      <trkpt lat="28.272033333333333" lon="-16.44825">
        <ele>1200</ele>
        <time>2024-03-30T12:28:31.000Z</time>
      </trkpt>
      <trkpt lat="28.272" lon="-16.448266666666665">
        <ele>1198</ele>
        <time>2024-03-30T12:28:32.000Z</time>
      </trkpt>
      <trkpt lat="28.271933333333333" lon="-16.448316666666667">
        <ele>1196</ele>
        <time>2024-03-30T12:28:33.000Z</time>
      </trkpt>
      <trkpt lat="28.271883333333335" lon="-16.448366666666665">
        <ele>1195</ele>
        <time>2024-03-30T12:28:34.000Z</time>
      </trkpt>
      <trkpt lat="28.271833333333333" lon="-16.448416666666667">
        <ele>1195</ele>
        <time>2024-03-30T12:28:35.000Z</time>
      </trkpt>
      <trkpt lat="28.27178333333333" lon="-16.44845">
        <ele>1195</ele>
        <time>2024-03-30T12:28:36.000Z</time>
      </trkpt>
      <trkpt lat="28.271733333333334" lon="-16.448483333333332">
        <ele>1194</ele>
        <time>2024-03-30T12:28:37.000Z</time>
      </trkpt>
      <trkpt lat="28.271683333333332" lon="-16.4485">
        <ele>1193</ele>
        <time>2024-03-30T12:28:38.000Z</time>
      </trkpt>
      <trkpt lat="28.271633333333334" lon="-16.448533333333334">
        <ele>1191</ele>
        <time>2024-03-30T12:28:39.000Z</time>
      </trkpt>
      <trkpt lat="28.271583333333332" lon="-16.448583333333332">
        <ele>1189</ele>
        <time>2024-03-30T12:28:40.000Z</time>
      </trkpt>
      <trkpt lat="28.271533333333334" lon="-16.448616666666666">
        <ele>1187</ele>
        <time>2024-03-30T12:28:41.000Z</time>
      </trkpt>
      <trkpt lat="28.27145" lon="-16.44865">
        <ele>1185</ele>
        <time>2024-03-30T12:28:42.000Z</time>
      </trkpt>
      <trkpt lat="28.271366666666665" lon="-16.448666666666668">
        <ele>1184</ele>
        <time>2024-03-30T12:28:43.000Z</time>
      </trkpt>
      <trkpt lat="28.2713" lon="-16.448666666666668">
        <ele>1184</ele>
        <time>2024-03-30T12:28:44.000Z</time>
      </trkpt>
      <trkpt lat="28.271216666666668" lon="-16.448683333333335">
        <ele>1183</ele>
        <time>2024-03-30T12:28:45.000Z</time>
      </trkpt>
      <trkpt lat="28.271166666666666" lon="-16.4487">
        <ele>1180</ele>
        <time>2024-03-30T12:28:46.000Z</time>
      </trkpt>
      <trkpt lat="28.2711" lon="-16.44875">
        <ele>1177</ele>
        <time>2024-03-30T12:28:47.000Z</time>
      </trkpt>
      <trkpt lat="28.271" lon="-16.448783333333335">
        <ele>1175</ele>
        <time>2024-03-30T12:28:48.000Z</time>
      </trkpt>
      <trkpt lat="28.2709" lon="-16.448816666666666">
        <ele>1175</ele>
        <time>2024-03-30T12:28:49.000Z</time>
      </trkpt>
      <trkpt lat="28.270816666666665" lon="-16.448833333333333">
        <ele>1177</ele>
        <time>2024-03-30T12:28:50.000Z</time>
      </trkpt>
      <trkpt lat="28.27075" lon="-16.44885">
        <ele>1179</ele>
        <time>2024-03-30T12:28:51.000Z</time>
      </trkpt>
      <trkpt lat="28.270683333333334" lon="-16.448866666666667">
        <ele>1179</ele>
        <time>2024-03-30T12:28:52.000Z</time>
      </trkpt>
      <trkpt lat="28.270633333333333" lon="-16.448916666666666">
        <ele>1179</ele>
        <time>2024-03-30T12:28:53.000Z</time>
      </trkpt>
      <trkpt lat="28.27055" lon="-16.448966666666667">
        <ele>1176</ele>
        <time>2024-03-30T12:28:54.000Z</time>
      </trkpt>
      <trkpt lat="28.270466666666668" lon="-16.449016666666665">
        <ele>1175</ele>
        <time>2024-03-30T12:28:55.000Z</time>
      </trkpt>
      <trkpt lat="28.270366666666668" lon="-16.449083333333334">
        <ele>1177</ele>
        <time>2024-03-30T12:28:56.000Z</time>
      </trkpt>
      <trkpt lat="28.2703" lon="-16.449116666666665">
        <ele>1180</ele>
        <time>2024-03-30T12:28:57.000Z</time>
      </trkpt>
      <trkpt lat="28.270233333333334" lon="-16.449116666666665">
        <ele>1183</ele>
        <time>2024-03-30T12:28:58.000Z</time>
      </trkpt>
      <trkpt lat="28.270183333333332" lon="-16.4491">
        <ele>1184</ele>
        <time>2024-03-30T12:28:59.000Z</time>
      </trkpt>
      <trkpt lat="28.270133333333334" lon="-16.449116666666665">
        <ele>1184</ele>
        <time>2024-03-30T12:29:00.000Z</time>
      </trkpt>
      <trkpt lat="28.270066666666665" lon="-16.44915">
        <ele>1182</ele>
        <time>2024-03-30T12:29:01.000Z</time>
      </trkpt>
      <trkpt lat="28.269983333333332" lon="-16.44921666666667">
        <ele>1181</ele>
        <time>2024-03-30T12:29:02.000Z</time>
      </trkpt>
      <trkpt lat="28.2699" lon="-16.449266666666666">
        <ele>1181</ele>
        <time>2024-03-30T12:29:03.000Z</time>
      </trkpt>
      <trkpt lat="28.2698" lon="-16.449283333333334">
        <ele>1183</ele>
        <time>2024-03-30T12:29:04.000Z</time>
      </trkpt>
      <trkpt lat="28.269716666666667" lon="-16.449316666666668">
        <ele>1187</ele>
        <time>2024-03-30T12:29:05.000Z</time>
      </trkpt>
      <trkpt lat="28.269633333333335" lon="-16.44935">
        <ele>1190</ele>
        <time>2024-03-30T12:29:06.000Z</time>
      </trkpt>
      <trkpt lat="28.269566666666666" lon="-16.4494">
        <ele>1194</ele>
        <time>2024-03-30T12:29:07.000Z</time>
      </trkpt>
      <trkpt lat="28.269516666666668" lon="-16.449416666666668">
        <ele>1197</ele>
        <time>2024-03-30T12:29:08.000Z</time>
      </trkpt>
      <trkpt lat="28.269483333333334" lon="-16.449416666666668">
        <ele>1198</ele>
        <time>2024-03-30T12:29:09.000Z</time>
      </trkpt>
      <trkpt lat="28.269466666666666" lon="-16.449383333333333">
        <ele>1198</ele>
        <time>2024-03-30T12:29:10.000Z</time>
      </trkpt>
      <trkpt lat="28.269466666666666" lon="-16.449316666666668">
        <ele>1198</ele>
        <time>2024-03-30T12:29:11.000Z</time>
      </trkpt>
      <trkpt lat="28.2695" lon="-16.449266666666666">
        <ele>1198</ele>
        <time>2024-03-30T12:29:12.000Z</time>
      </trkpt>
      <trkpt lat="28.269566666666666" lon="-16.4492">
        <ele>1199</ele>
        <time>2024-03-30T12:29:13.000Z</time>
      </trkpt>
      <trkpt lat="28.26965" lon="-16.449166666666667">
        <ele>1199</ele>
        <time>2024-03-30T12:29:14.000Z</time>
      </trkpt>
      <trkpt lat="28.269766666666666" lon="-16.449166666666667">
        <ele>1198</ele>
        <time>2024-03-30T12:29:15.000Z</time>
      </trkpt>
      <trkpt lat="28.269883333333333" lon="-16.449233333333332">
        <ele>1198</ele>
        <time>2024-03-30T12:29:16.000Z</time>
      </trkpt>
      <trkpt lat="28.269983333333332" lon="-16.44935">
        <ele>1199</ele>
        <time>2024-03-30T12:29:17.000Z</time>
      </trkpt>
      <trkpt lat="28.27005" lon="-16.4495">
        <ele>1200</ele>
        <time>2024-03-30T12:29:18.000Z</time>
      </trkpt>
      <trkpt lat="28.270066666666665" lon="-16.44965">
        <ele>1202</ele>
        <time>2024-03-30T12:29:19.000Z</time>
      </trkpt>
      <trkpt lat="28.27005" lon="-16.449783333333333">
        <ele>1203</ele>
        <time>2024-03-30T12:29:20.000Z</time>
      </trkpt>
      <trkpt lat="28.27" lon="-16.449916666666667">
        <ele>1205</ele>
        <time>2024-03-30T12:29:21.000Z</time>
      </trkpt>
      <trkpt lat="28.269933333333334" lon="-16.450016666666667">
        <ele>1208</ele>
        <time>2024-03-30T12:29:22.000Z</time>
      </trkpt>
      <trkpt lat="28.269866666666665" lon="-16.450116666666666">
        <ele>1212</ele>
        <time>2024-03-30T12:29:23.000Z</time>
      </trkpt>
      <trkpt lat="28.269816666666667" lon="-16.4502">
        <ele>1215</ele>
        <time>2024-03-30T12:29:24.000Z</time>
      </trkpt>
      <trkpt lat="28.269766666666666" lon="-16.450266666666668">
        <ele>1217</ele>
        <time>2024-03-30T12:29:25.000Z</time>
      </trkpt>
      <trkpt lat="28.269733333333335" lon="-16.45035">
        <ele>1218</ele>
        <time>2024-03-30T12:29:26.000Z</time>
      </trkpt>
      <trkpt lat="28.269666666666666" lon="-16.450416666666666">
        <ele>1219</ele>
        <time>2024-03-30T12:29:27.000Z</time>
      </trkpt>
      <trkpt lat="28.269616666666668" lon="-16.450483333333334">
        <ele>1220</ele>
        <time>2024-03-30T12:29:28.000Z</time>
      </trkpt>
      <trkpt lat="28.26955" lon="-16.450516666666665">
        <ele>1222</ele>
        <time>2024-03-30T12:29:29.000Z</time>
      </trkpt>
      <trkpt lat="28.2695" lon="-16.450533333333333">
        <ele>1225</ele>
        <time>2024-03-30T12:29:30.000Z</time>
      </trkpt>
      <trkpt lat="28.269466666666666" lon="-16.450533333333333">
        <ele>1227</ele>
        <time>2024-03-30T12:29:31.000Z</time>
      </trkpt>
      <trkpt lat="28.26945" lon="-16.450483333333334">
        <ele>1227</ele>
        <time>2024-03-30T12:29:32.000Z</time>
      </trkpt>
      <trkpt lat="28.269483333333334" lon="-16.450383333333335">
        <ele>1226</ele>
        <time>2024-03-30T12:29:33.000Z</time>
      </trkpt>
      <trkpt lat="28.26955" lon="-16.4503">
        <ele>1228</ele>
        <time>2024-03-30T12:29:34.000Z</time>
      </trkpt>
      <trkpt lat="28.269633333333335" lon="-16.45025">
        <ele>1230</ele>
        <time>2024-03-30T12:29:35.000Z</time>
      </trkpt>
      <trkpt lat="28.26975" lon="-16.450233333333333">
        <ele>1231</ele>
        <time>2024-03-30T12:29:36.000Z</time>
      </trkpt>
      <trkpt lat="28.26985" lon="-16.4503">
        <ele>1232</ele>
        <time>2024-03-30T12:29:37.000Z</time>
      </trkpt>
      <trkpt lat="28.269933333333334" lon="-16.4504">
        <ele>1233</ele>
        <time>2024-03-30T12:29:38.000Z</time>
      </trkpt>
      <trkpt lat="28.269983333333332" lon="-16.45055">
        <ele>1233</ele>
        <time>2024-03-30T12:29:39.000Z</time>
      </trkpt>
      <trkpt lat="28.27" lon="-16.4507">
        <ele>1233</ele>
        <time>2024-03-30T12:29:40.000Z</time>
      </trkpt>
      <trkpt lat="28.269983333333332" lon="-16.450833333333332">
        <ele>1234</ele>
        <time>2024-03-30T12:29:41.000Z</time>
      </trkpt>
      <trkpt lat="28.269933333333334" lon="-16.45093333333333">
        <ele>1236</ele>
        <time>2024-03-30T12:29:42.000Z</time>
      </trkpt>
      <trkpt lat="28.2699" lon="-16.451">
        <ele>1238</ele>
        <time>2024-03-30T12:29:43.000Z</time>
      </trkpt>
      <trkpt lat="28.269833333333334" lon="-16.45105">
        <ele>1239</ele>
        <time>2024-03-30T12:29:44.000Z</time>
      </trkpt>
      <trkpt lat="28.269783333333333" lon="-16.451083333333333">
        <ele>1238</ele>
        <time>2024-03-30T12:29:45.000Z</time>
      </trkpt>
      <trkpt lat="28.269716666666667" lon="-16.451133333333335">
        <ele>1237</ele>
        <time>2024-03-30T12:29:46.000Z</time>
      </trkpt>
      <trkpt lat="28.269666666666666" lon="-16.4512">
        <ele>1237</ele>
        <time>2024-03-30T12:29:47.000Z</time>
      </trkpt>
      <trkpt lat="28.2696" lon="-16.45125">
        <ele>1237</ele>
        <time>2024-03-30T12:29:48.000Z</time>
      </trkpt>
      <trkpt lat="28.26955" lon="-16.4513">
        <ele>1237</ele>
        <time>2024-03-30T12:29:49.000Z</time>
      </trkpt>
      <trkpt lat="28.269483333333334" lon="-16.451333333333334">
        <ele>1237</ele>
        <time>2024-03-30T12:29:50.000Z</time>
      </trkpt>
      <trkpt lat="28.269433333333332" lon="-16.4514">
        <ele>1236</ele>
        <time>2024-03-30T12:29:51.000Z</time>
      </trkpt>
      <trkpt lat="28.269383333333334" lon="-16.451483333333332">
        <ele>1234</ele>
        <time>2024-03-30T12:29:52.000Z</time>
      </trkpt>
      <trkpt lat="28.26931666666667" lon="-16.45155">
        <ele>1232</ele>
        <time>2024-03-30T12:29:53.000Z</time>
      </trkpt>
      <trkpt lat="28.26925" lon="-16.4516">
        <ele>1230</ele>
        <time>2024-03-30T12:29:54.000Z</time>
      </trkpt>
      <trkpt lat="28.269183333333334" lon="-16.451666666666668">
        <ele>1228</ele>
        <time>2024-03-30T12:29:55.000Z</time>
      </trkpt>
      <trkpt lat="28.2691" lon="-16.451716666666666">
        <ele>1226</ele>
        <time>2024-03-30T12:29:56.000Z</time>
      </trkpt>
      <trkpt lat="28.269016666666666" lon="-16.451766666666668">
        <ele>1224</ele>
        <time>2024-03-30T12:29:57.000Z</time>
      </trkpt>
      <trkpt lat="28.26895" lon="-16.4518">
        <ele>1221</ele>
        <time>2024-03-30T12:29:58.000Z</time>
      </trkpt>
      <trkpt lat="28.268866666666668" lon="-16.45185">
        <ele>1218</ele>
        <time>2024-03-30T12:29:59.000Z</time>
      </trkpt>
      <trkpt lat="28.26878333333333" lon="-16.451883333333335">
        <ele>1216</ele>
        <time>2024-03-30T12:30:00.000Z</time>
      </trkpt>
      <trkpt lat="28.268716666666666" lon="-16.451916666666666">
        <ele>1212</ele>
        <time>2024-03-30T12:30:01.000Z</time>
      </trkpt>
      <trkpt lat="28.268633333333334" lon="-16.451933333333333">
        <ele>1208</ele>
        <time>2024-03-30T12:30:02.000Z</time>
      </trkpt>
      <trkpt lat="28.26855" lon="-16.451966666666667">
        <ele>1204</ele>
        <time>2024-03-30T12:30:03.000Z</time>
      </trkpt>
      <trkpt lat="28.26845" lon="-16.451983333333335">
        <ele>1200</ele>
        <time>2024-03-30T12:30:04.000Z</time>
      </trkpt>
      <trkpt lat="28.26835" lon="-16.452">
        <ele>1197</ele>
        <time>2024-03-30T12:30:05.000Z</time>
      </trkpt>
      <trkpt lat="28.26825" lon="-16.452">
        <ele>1196</ele>
        <time>2024-03-30T12:30:06.000Z</time>
      </trkpt>
      <trkpt lat="28.26815" lon="-16.451983333333335">
        <ele>1196</ele>
        <time>2024-03-30T12:30:07.000Z</time>
      </trkpt>
      <trkpt lat="28.268066666666666" lon="-16.451966666666667">
        <ele>1195</ele>
        <time>2024-03-30T12:30:08.000Z</time>
      </trkpt>
      <trkpt lat="28.268" lon="-16.451966666666667">
        <ele>1193</ele>
        <time>2024-03-30T12:30:09.000Z</time>
      </trkpt>
      <trkpt lat="28.267933333333332" lon="-16.451966666666667">
        <ele>1189</ele>
        <time>2024-03-30T12:30:10.000Z</time>
      </trkpt>
      <trkpt lat="28.267833333333332" lon="-16.451983333333335">
        <ele>1185</ele>
        <time>2024-03-30T12:30:11.000Z</time>
      </trkpt>
      <trkpt lat="28.267716666666665" lon="-16.452">
        <ele>1181</ele>
        <time>2024-03-30T12:30:12.000Z</time>
      </trkpt>
      <trkpt lat="28.267583333333334" lon="-16.45205">
        <ele>1178</ele>
        <time>2024-03-30T12:30:13.000Z</time>
      </trkpt>
      <trkpt lat="28.267466666666667" lon="-16.452116666666665">
        <ele>1179</ele>
        <time>2024-03-30T12:30:14.000Z</time>
      </trkpt>
      <trkpt lat="28.267366666666668" lon="-16.452166666666667">
        <ele>1182</ele>
        <time>2024-03-30T12:30:15.000Z</time>
      </trkpt>
      <trkpt lat="28.2673" lon="-16.452183333333334">
        <ele>1183</ele>
        <time>2024-03-30T12:30:16.000Z</time>
      </trkpt>
      <trkpt lat="28.267216666666666" lon="-16.452166666666667">
        <ele>1184</ele>
        <time>2024-03-30T12:30:17.000Z</time>
      </trkpt>
      <trkpt lat="28.267133333333334" lon="-16.452166666666667">
        <ele>1184</ele>
        <time>2024-03-30T12:30:18.000Z</time>
      </trkpt>
      <trkpt lat="28.26705" lon="-16.452183333333334">
        <ele>1185</ele>
        <time>2024-03-30T12:30:19.000Z</time>
      </trkpt>
      <trkpt lat="28.26695" lon="-16.452216666666665">
        <ele>1187</ele>
        <time>2024-03-30T12:30:20.000Z</time>
      </trkpt>
      <trkpt lat="28.26685" lon="-16.45225">
        <ele>1189</ele>
        <time>2024-03-30T12:30:21.000Z</time>
      </trkpt>
      <trkpt lat="28.266766666666665" lon="-16.452266666666667">
        <ele>1192</ele>
        <time>2024-03-30T12:30:22.000Z</time>
      </trkpt>
      <trkpt lat="28.266683333333333" lon="-16.452266666666667">
        <ele>1195</ele>
        <time>2024-03-30T12:30:23.000Z</time>
      </trkpt>
      <trkpt lat="28.2666" lon="-16.452266666666667">
        <ele>1197</ele>
        <time>2024-03-30T12:30:24.000Z</time>
      </trkpt>
      <trkpt lat="28.266516666666668" lon="-16.452283333333334">
        <ele>1197</ele>
        <time>2024-03-30T12:30:25.000Z</time>
      </trkpt>
      <trkpt lat="28.26643333333333" lon="-16.452283333333334">
        <ele>1197</ele>
        <time>2024-03-30T12:30:26.000Z</time>
      </trkpt>
      <trkpt lat="28.26635" lon="-16.4523">
        <ele>1196</ele>
        <time>2024-03-30T12:30:27.000Z</time>
      </trkpt>
      <trkpt lat="28.266266666666667" lon="-16.452333333333332">
        <ele>1195</ele>
        <time>2024-03-30T12:30:28.000Z</time>
      </trkpt>
      <trkpt lat="28.266183333333334" lon="-16.45235">
        <ele>1193</ele>
        <time>2024-03-30T12:30:29.000Z</time>
      </trkpt>
      <trkpt lat="28.266116666666665" lon="-16.452416666666668">
        <ele>1191</ele>
        <time>2024-03-30T12:30:30.000Z</time>
      </trkpt>
      <trkpt lat="28.266033333333333" lon="-16.452483333333333">
        <ele>1189</ele>
        <time>2024-03-30T12:30:31.000Z</time>
      </trkpt>
      <trkpt lat="28.265983333333335" lon="-16.452583333333333">
        <ele>1187</ele>
        <time>2024-03-30T12:30:32.000Z</time>
      </trkpt>
      <trkpt lat="28.265933333333333" lon="-16.452683333333333">
        <ele>1186</ele>
        <time>2024-03-30T12:30:33.000Z</time>
      </trkpt>
      <trkpt lat="28.265866666666668" lon="-16.452766666666665">
        <ele>1185</ele>
        <time>2024-03-30T12:30:34.000Z</time>
      </trkpt>
      <trkpt lat="28.265783333333335" lon="-16.452833333333334">
        <ele>1183</ele>
        <time>2024-03-30T12:30:35.000Z</time>
      </trkpt>
      <trkpt lat="28.2657" lon="-16.452883333333332">
        <ele>1181</ele>
        <time>2024-03-30T12:30:36.000Z</time>
      </trkpt>
      <trkpt lat="28.2656" lon="-16.452933333333334">
        <ele>1179</ele>
        <time>2024-03-30T12:30:37.000Z</time>
      </trkpt>
      <trkpt lat="28.265516666666667" lon="-16.452966666666665">
        <ele>1178</ele>
        <time>2024-03-30T12:30:38.000Z</time>
      </trkpt>
      <trkpt lat="28.26545" lon="-16.453033333333334">
        <ele>1178</ele>
        <time>2024-03-30T12:30:39.000Z</time>
      </trkpt>
      <trkpt lat="28.265416666666667" lon="-16.453083333333332">
        <ele>1176</ele>
        <time>2024-03-30T12:30:40.000Z</time>
      </trkpt>
      <trkpt lat="28.265366666666665" lon="-16.45315">
        <ele>1173</ele>
        <time>2024-03-30T12:30:41.000Z</time>
      </trkpt>
      <trkpt lat="28.265316666666667" lon="-16.453216666666666">
        <ele>1169</ele>
        <time>2024-03-30T12:30:42.000Z</time>
      </trkpt>
      <trkpt lat="28.26525" lon="-16.453266666666668">
        <ele>1166</ele>
        <time>2024-03-30T12:30:43.000Z</time>
      </trkpt>
      <trkpt lat="28.265166666666666" lon="-16.453333333333333">
        <ele>1163</ele>
        <time>2024-03-30T12:30:44.000Z</time>
      </trkpt>
      <trkpt lat="28.2651" lon="-16.453416666666666">
        <ele>1162</ele>
        <time>2024-03-30T12:30:45.000Z</time>
      </trkpt>
      <trkpt lat="28.265033333333335" lon="-16.4535">
        <ele>1161</ele>
        <time>2024-03-30T12:30:46.000Z</time>
      </trkpt>
      <trkpt lat="28.264966666666666" lon="-16.453566666666667">
        <ele>1161</ele>
        <time>2024-03-30T12:30:47.000Z</time>
      </trkpt>
      <trkpt lat="28.264916666666668" lon="-16.453633333333332">
        <ele>1161</ele>
        <time>2024-03-30T12:30:48.000Z</time>
      </trkpt>
      <trkpt lat="28.26485" lon="-16.453716666666665">
        <ele>1159</ele>
        <time>2024-03-30T12:30:49.000Z</time>
      </trkpt>
      <trkpt lat="28.264766666666667" lon="-16.453766666666667">
        <ele>1159</ele>
        <time>2024-03-30T12:30:50.000Z</time>
      </trkpt>
      <trkpt lat="28.264666666666667" lon="-16.453833333333332">
        <ele>1161</ele>
        <time>2024-03-30T12:30:51.000Z</time>
      </trkpt>
      <trkpt lat="28.2646" lon="-16.453883333333334">
        <ele>1164</ele>
        <time>2024-03-30T12:30:52.000Z</time>
      </trkpt>
      <trkpt lat="28.264516666666665" lon="-16.45393333333333">
        <ele>1168</ele>
        <time>2024-03-30T12:30:53.000Z</time>
      </trkpt>
      <trkpt lat="28.264466666666667" lon="-16.453966666666666">
        <ele>1170</ele>
        <time>2024-03-30T12:30:54.000Z</time>
      </trkpt>
      <trkpt lat="28.2644" lon="-16.454">
        <ele>1172</ele>
        <time>2024-03-30T12:30:55.000Z</time>
      </trkpt>
      <trkpt lat="28.264316666666666" lon="-16.454016666666668">
        <ele>1173</ele>
        <time>2024-03-30T12:30:56.000Z</time>
      </trkpt>
      <trkpt lat="28.26425" lon="-16.454016666666668">
        <ele>1175</ele>
        <time>2024-03-30T12:30:57.000Z</time>
      </trkpt>
      <trkpt lat="28.26418333333333" lon="-16.454016666666668">
        <ele>1176</ele>
        <time>2024-03-30T12:30:58.000Z</time>
      </trkpt>
      <trkpt lat="28.264133333333334" lon="-16.454">
        <ele>1178</ele>
        <time>2024-03-30T12:30:59.000Z</time>
      </trkpt>
      <trkpt lat="28.264116666666666" lon="-16.45393333333333">
        <ele>1180</ele>
        <time>2024-03-30T12:31:00.000Z</time>
      </trkpt>
      <trkpt lat="28.264133333333334" lon="-16.45385">
        <ele>1182</ele>
        <time>2024-03-30T12:31:01.000Z</time>
      </trkpt>
      <trkpt lat="28.264233333333333" lon="-16.453783333333334">
        <ele>1184</ele>
        <time>2024-03-30T12:31:02.000Z</time>
      </trkpt>
      <trkpt lat="28.264366666666668" lon="-16.45375">
        <ele>1187</ele>
        <time>2024-03-30T12:31:03.000Z</time>
      </trkpt>
      <trkpt lat="28.2645" lon="-16.45381666666667">
        <ele>1193</ele>
        <time>2024-03-30T12:31:04.000Z</time>
      </trkpt>
      <trkpt lat="28.264566666666667" lon="-16.453916666666668">
        <ele>1198</ele>
        <time>2024-03-30T12:31:05.000Z</time>
      </trkpt>
      <trkpt lat="28.264583333333334" lon="-16.454033333333335">
        <ele>1199</ele>
        <time>2024-03-30T12:31:06.000Z</time>
      </trkpt>
      <trkpt lat="28.26455" lon="-16.45415">
        <ele>1199</ele>
        <time>2024-03-30T12:31:07.000Z</time>
      </trkpt>
      <trkpt lat="28.264483333333335" lon="-16.45425">
        <ele>1200</ele>
        <time>2024-03-30T12:31:08.000Z</time>
      </trkpt>
      <trkpt lat="28.264416666666666" lon="-16.454316666666667">
        <ele>1203</ele>
        <time>2024-03-30T12:31:09.000Z</time>
      </trkpt>
      <trkpt lat="28.26435" lon="-16.454366666666665">
        <ele>1206</ele>
        <time>2024-03-30T12:31:10.000Z</time>
      </trkpt>
      <trkpt lat="28.264283333333335" lon="-16.454383333333332">
        <ele>1207</ele>
        <time>2024-03-30T12:31:11.000Z</time>
      </trkpt>
      <trkpt lat="28.264216666666666" lon="-16.454366666666665">
        <ele>1207</ele>
        <time>2024-03-30T12:31:12.000Z</time>
      </trkpt>
      <trkpt lat="28.26418333333333" lon="-16.454316666666667">
        <ele>1209</ele>
        <time>2024-03-30T12:31:13.000Z</time>
      </trkpt>
      <trkpt lat="28.26418333333333" lon="-16.454216666666667">
        <ele>1212</ele>
        <time>2024-03-30T12:31:14.000Z</time>
      </trkpt>
      <trkpt lat="28.264216666666666" lon="-16.454116666666668">
        <ele>1216</ele>
        <time>2024-03-30T12:31:15.000Z</time>
      </trkpt>
      <trkpt lat="28.264316666666666" lon="-16.454066666666666">
        <ele>1221</ele>
        <time>2024-03-30T12:31:16.000Z</time>
      </trkpt>
      <trkpt lat="28.264416666666666" lon="-16.454066666666666">
        <ele>1225</ele>
        <time>2024-03-30T12:31:17.000Z</time>
      </trkpt>
      <trkpt lat="28.264516666666665" lon="-16.454133333333335">
        <ele>1227</ele>
        <time>2024-03-30T12:31:18.000Z</time>
      </trkpt>
      <trkpt lat="28.2646" lon="-16.454233333333335">
        <ele>1230</ele>
        <time>2024-03-30T12:31:19.000Z</time>
      </trkpt>
      <trkpt lat="28.26465" lon="-16.45435">
        <ele>1233</ele>
        <time>2024-03-30T12:31:20.000Z</time>
      </trkpt>
      <trkpt lat="28.264633333333332" lon="-16.45445">
        <ele>1236</ele>
        <time>2024-03-30T12:31:21.000Z</time>
      </trkpt>
      <trkpt lat="28.264566666666667" lon="-16.454533333333334">
        <ele>1235</ele>
        <time>2024-03-30T12:31:22.000Z</time>
      </trkpt>
      <trkpt lat="28.264483333333335" lon="-16.45455">
        <ele>1234</ele>
        <time>2024-03-30T12:31:23.000Z</time>
      </trkpt>
      <trkpt lat="28.2644" lon="-16.4545">
        <ele>1235</ele>
        <time>2024-03-30T12:31:24.000Z</time>
      </trkpt>
      <trkpt lat="28.264366666666668" lon="-16.454433333333334">
        <ele>1241</ele>
        <time>2024-03-30T12:31:25.000Z</time>
      </trkpt>
      <trkpt lat="28.264383333333335" lon="-16.454366666666665">
        <ele>1247</ele>
        <time>2024-03-30T12:31:26.000Z</time>
      </trkpt>
      <trkpt lat="28.264433333333333" lon="-16.454316666666667">
        <ele>1249</ele>
        <time>2024-03-30T12:31:27.000Z</time>
      </trkpt>
      <trkpt lat="28.264533333333333" lon="-16.454283333333333">
        <ele>1248</ele>
        <time>2024-03-30T12:31:28.000Z</time>
      </trkpt>
      <trkpt lat="28.264666666666667" lon="-16.4543">
        <ele>1248</ele>
        <time>2024-03-30T12:31:29.000Z</time>
      </trkpt>
      <trkpt lat="28.264783333333334" lon="-16.454383333333332">
        <ele>1251</ele>
        <time>2024-03-30T12:31:30.000Z</time>
      </trkpt>
      <trkpt lat="28.264883333333334" lon="-16.4545">
        <ele>1257</ele>
        <time>2024-03-30T12:31:31.000Z</time>
      </trkpt>
      <trkpt lat="28.264916666666668" lon="-16.454616666666666">
        <ele>1261</ele>
        <time>2024-03-30T12:31:32.000Z</time>
      </trkpt>
      <trkpt lat="28.2649" lon="-16.4547">
        <ele>1263</ele>
        <time>2024-03-30T12:31:33.000Z</time>
      </trkpt>
      <trkpt lat="28.264833333333332" lon="-16.454766666666668">
        <ele>1262</ele>
        <time>2024-03-30T12:31:34.000Z</time>
      </trkpt>
      <trkpt lat="28.26475" lon="-16.454816666666666">
        <ele>1263</ele>
        <time>2024-03-30T12:31:35.000Z</time>
      </trkpt>
      <trkpt lat="28.264666666666667" lon="-16.454816666666666">
        <ele>1264</ele>
        <time>2024-03-30T12:31:36.000Z</time>
      </trkpt>
      <trkpt lat="28.264583333333334" lon="-16.45478333333333">
        <ele>1267</ele>
        <time>2024-03-30T12:31:37.000Z</time>
      </trkpt>
      <trkpt lat="28.26455" lon="-16.454716666666666">
        <ele>1271</ele>
        <time>2024-03-30T12:31:38.000Z</time>
      </trkpt>
      <trkpt lat="28.26455" lon="-16.454633333333334">
        <ele>1275</ele>
        <time>2024-03-30T12:31:39.000Z</time>
      </trkpt>
      <trkpt lat="28.264633333333332" lon="-16.45456666666667">
        <ele>1277</ele>
        <time>2024-03-30T12:31:40.000Z</time>
      </trkpt>
      <trkpt lat="28.264766666666667" lon="-16.45455">
        <ele>1276</ele>
        <time>2024-03-30T12:31:41.000Z</time>
      </trkpt>
      <trkpt lat="28.2649" lon="-16.454616666666666">
        <ele>1277</ele>
        <time>2024-03-30T12:31:42.000Z</time>
      </trkpt>
      <trkpt lat="28.265" lon="-16.454716666666666">
        <ele>1280</ele>
        <time>2024-03-30T12:31:43.000Z</time>
      </trkpt>
      <trkpt lat="28.265033333333335" lon="-16.454866666666668">
        <ele>1285</ele>
        <time>2024-03-30T12:31:44.000Z</time>
      </trkpt>
      <trkpt lat="28.265033333333335" lon="-16.454983333333335">
        <ele>1289</ele>
        <time>2024-03-30T12:31:45.000Z</time>
      </trkpt>
      <trkpt lat="28.264983333333333" lon="-16.455066666666667">
        <ele>1291</ele>
        <time>2024-03-30T12:31:46.000Z</time>
      </trkpt>
      <trkpt lat="28.2649" lon="-16.455116666666665">
        <ele>1294</ele>
        <time>2024-03-30T12:31:47.000Z</time>
      </trkpt>
      <trkpt lat="28.264833333333332" lon="-16.45515">
        <ele>1296</ele>
        <time>2024-03-30T12:31:48.000Z</time>
      </trkpt>
      <trkpt lat="28.264766666666667" lon="-16.45515">
        <ele>1298</ele>
        <time>2024-03-30T12:31:49.000Z</time>
      </trkpt>
      <trkpt lat="28.2647" lon="-16.455133333333333">
        <ele>1302</ele>
        <time>2024-03-30T12:31:50.000Z</time>
      </trkpt>
      <trkpt lat="28.264683333333334" lon="-16.455083333333334">
        <ele>1305</ele>
        <time>2024-03-30T12:31:51.000Z</time>
      </trkpt>
      <trkpt lat="28.264716666666665" lon="-16.455">
        <ele>1307</ele>
        <time>2024-03-30T12:31:52.000Z</time>
      </trkpt>
      <trkpt lat="28.2648" lon="-16.454916666666666">
        <ele>1306</ele>
        <time>2024-03-30T12:31:53.000Z</time>
      </trkpt>
      <trkpt lat="28.264916666666668" lon="-16.454866666666668">
        <ele>1307</ele>
        <time>2024-03-30T12:31:54.000Z</time>
      </trkpt>
      <trkpt lat="28.26505" lon="-16.454866666666668">
        <ele>1309</ele>
        <time>2024-03-30T12:31:55.000Z</time>
      </trkpt>
      <trkpt lat="28.26515" lon="-16.454933333333333">
        <ele>1311</ele>
        <time>2024-03-30T12:31:56.000Z</time>
      </trkpt>
      <trkpt lat="28.265233333333335" lon="-16.45505">
        <ele>1314</ele>
        <time>2024-03-30T12:31:57.000Z</time>
      </trkpt>
      <trkpt lat="28.2653" lon="-16.455183333333334">
        <ele>1318</ele>
        <time>2024-03-30T12:31:58.000Z</time>
      </trkpt>
      <trkpt lat="28.265333333333334" lon="-16.45531666666667">
        <ele>1322</ele>
        <time>2024-03-30T12:31:59.000Z</time>
      </trkpt>
      <trkpt lat="28.265333333333334" lon="-16.455416666666668">
        <ele>1326</ele>
        <time>2024-03-30T12:32:00.000Z</time>
      </trkpt>
      <trkpt lat="28.265316666666667" lon="-16.455516666666668">
        <ele>1329</ele>
        <time>2024-03-30T12:32:01.000Z</time>
      </trkpt>
      <trkpt lat="28.265283333333333" lon="-16.4556">
        <ele>1331</ele>
        <time>2024-03-30T12:32:02.000Z</time>
      </trkpt>
      <trkpt lat="28.265216666666667" lon="-16.455666666666666">
        <ele>1332</ele>
        <time>2024-03-30T12:32:03.000Z</time>
      </trkpt>
      <trkpt lat="28.265133333333335" lon="-16.4557">
        <ele>1334</ele>
        <time>2024-03-30T12:32:04.000Z</time>
      </trkpt>
      <trkpt lat="28.26505" lon="-16.455716666666667">
        <ele>1337</ele>
        <time>2024-03-30T12:32:05.000Z</time>
      </trkpt>
      <trkpt lat="28.264983333333333" lon="-16.455683333333333">
        <ele>1340</ele>
        <time>2024-03-30T12:32:06.000Z</time>
      </trkpt>
      <trkpt lat="28.26495" lon="-16.455616666666668">
        <ele>1344</ele>
        <time>2024-03-30T12:32:07.000Z</time>
      </trkpt>
      <trkpt lat="28.264966666666666" lon="-16.455533333333335">
        <ele>1347</ele>
        <time>2024-03-30T12:32:08.000Z</time>
      </trkpt>
      <trkpt lat="28.265033333333335" lon="-16.455466666666666">
        <ele>1350</ele>
        <time>2024-03-30T12:32:09.000Z</time>
      </trkpt>
      <trkpt lat="28.265133333333335" lon="-16.455416666666668">
        <ele>1351</ele>
        <time>2024-03-30T12:32:10.000Z</time>
      </trkpt>
      <trkpt lat="28.265266666666665" lon="-16.455433333333332">
        <ele>1351</ele>
        <time>2024-03-30T12:32:11.000Z</time>
      </trkpt>
      <trkpt lat="28.265383333333332" lon="-16.4555">
        <ele>1354</ele>
        <time>2024-03-30T12:32:12.000Z</time>
      </trkpt>
      <trkpt lat="28.265466666666665" lon="-16.455633333333335">
        <ele>1358</ele>
        <time>2024-03-30T12:32:13.000Z</time>
      </trkpt>
      <trkpt lat="28.2655" lon="-16.45575">
        <ele>1362</ele>
        <time>2024-03-30T12:32:14.000Z</time>
      </trkpt>
      <trkpt lat="28.265483333333332" lon="-16.455866666666665">
        <ele>1366</ele>
        <time>2024-03-30T12:32:15.000Z</time>
      </trkpt>
      <trkpt lat="28.265466666666665" lon="-16.455966666666665">
        <ele>1369</ele>
        <time>2024-03-30T12:32:16.000Z</time>
      </trkpt>
      <trkpt lat="28.265416666666667" lon="-16.45605">
        <ele>1373</ele>
        <time>2024-03-30T12:32:17.000Z</time>
      </trkpt>
      <trkpt lat="28.265366666666665" lon="-16.456116666666667">
        <ele>1375</ele>
        <time>2024-03-30T12:32:18.000Z</time>
      </trkpt>
      <trkpt lat="28.265283333333333" lon="-16.45615">
        <ele>1376</ele>
        <time>2024-03-30T12:32:19.000Z</time>
      </trkpt>
      <trkpt lat="28.2652" lon="-16.456133333333334">
        <ele>1378</ele>
        <time>2024-03-30T12:32:20.000Z</time>
      </trkpt>
      <trkpt lat="28.265133333333335" lon="-16.456083333333332">
        <ele>1381</ele>
        <time>2024-03-30T12:32:21.000Z</time>
      </trkpt>
      <trkpt lat="28.265116666666668" lon="-16.456033333333334">
        <ele>1384</ele>
        <time>2024-03-30T12:32:22.000Z</time>
      </trkpt>
      <trkpt lat="28.265133333333335" lon="-16.455966666666665">
        <ele>1387</ele>
        <time>2024-03-30T12:32:23.000Z</time>
      </trkpt>
      <trkpt lat="28.265183333333333" lon="-16.455883333333333">
        <ele>1388</ele>
        <time>2024-03-30T12:32:24.000Z</time>
      </trkpt>
      <trkpt lat="28.265283333333333" lon="-16.455833333333334">
        <ele>1389</ele>
        <time>2024-03-30T12:32:25.000Z</time>
      </trkpt>
      <trkpt lat="28.265416666666667" lon="-16.455833333333334">
        <ele>1389</ele>
        <time>2024-03-30T12:32:26.000Z</time>
      </trkpt>
      <trkpt lat="28.265533333333334" lon="-16.455933333333334">
        <ele>1392</ele>
        <time>2024-03-30T12:32:27.000Z</time>
      </trkpt>
      <trkpt lat="28.2656" lon="-16.456083333333332">
        <ele>1396</ele>
        <time>2024-03-30T12:32:28.000Z</time>
      </trkpt>
      <trkpt lat="28.2656" lon="-16.456233333333333">
        <ele>1400</ele>
        <time>2024-03-30T12:32:29.000Z</time>
      </trkpt>
      <trkpt lat="28.26556666666667" lon="-16.456366666666668">
        <ele>1404</ele>
        <time>2024-03-30T12:32:30.000Z</time>
      </trkpt>
      <trkpt lat="28.265533333333334" lon="-16.45645">
        <ele>1409</ele>
        <time>2024-03-30T12:32:31.000Z</time>
      </trkpt>
      <trkpt lat="28.2655" lon="-16.456516666666666">
        <ele>1412</ele>
        <time>2024-03-30T12:32:32.000Z</time>
      </trkpt>
      <trkpt lat="28.26545" lon="-16.456566666666667">
        <ele>1413</ele>
        <time>2024-03-30T12:32:33.000Z</time>
      </trkpt>
      <trkpt lat="28.2654" lon="-16.456633333333333">
        <ele>1412</ele>
        <time>2024-03-30T12:32:34.000Z</time>
      </trkpt>
      <trkpt lat="28.265316666666667" lon="-16.456666666666667">
        <ele>1413</ele>
        <time>2024-03-30T12:32:35.000Z</time>
      </trkpt>
      <trkpt lat="28.265233333333335" lon="-16.4567">
        <ele>1416</ele>
        <time>2024-03-30T12:32:36.000Z</time>
      </trkpt>
      <trkpt lat="28.265183333333333" lon="-16.456716666666665">
        <ele>1420</ele>
        <time>2024-03-30T12:32:37.000Z</time>
      </trkpt>
      <trkpt lat="28.26515" lon="-16.4567">
        <ele>1421</ele>
        <time>2024-03-30T12:32:38.000Z</time>
      </trkpt>
      <trkpt lat="28.265133333333335" lon="-16.456666666666667">
        <ele>1422</ele>
        <time>2024-03-30T12:32:39.000Z</time>
      </trkpt>
      <trkpt lat="28.265133333333335" lon="-16.4566">
        <ele>1422</ele>
        <time>2024-03-30T12:32:40.000Z</time>
      </trkpt>
      <trkpt lat="28.265166666666666" lon="-16.456533333333333">
        <ele>1423</ele>
        <time>2024-03-30T12:32:41.000Z</time>
      </trkpt>
      <trkpt lat="28.265216666666667" lon="-16.456466666666667">
        <ele>1424</ele>
        <time>2024-03-30T12:32:42.000Z</time>
      </trkpt>
      <trkpt lat="28.265316666666667" lon="-16.456416666666666">
        <ele>1424</ele>
        <time>2024-03-30T12:32:43.000Z</time>
      </trkpt>
      <trkpt lat="28.26545" lon="-16.456416666666666">
        <ele>1423</ele>
        <time>2024-03-30T12:32:44.000Z</time>
      </trkpt>
      <trkpt lat="28.26556666666667" lon="-16.456483333333335">
        <ele>1423</ele>
        <time>2024-03-30T12:32:45.000Z</time>
      </trkpt>
      <trkpt lat="28.26568333333333" lon="-16.456583333333334">
        <ele>1425</ele>
        <time>2024-03-30T12:32:46.000Z</time>
      </trkpt>
      <trkpt lat="28.265766666666668" lon="-16.456716666666665">
        <ele>1427</ele>
        <time>2024-03-30T12:32:47.000Z</time>
      </trkpt>
      <trkpt lat="28.2658" lon="-16.45685">
        <ele>1430</ele>
        <time>2024-03-30T12:32:48.000Z</time>
      </trkpt>
      <trkpt lat="28.265783333333335" lon="-16.456983333333334">
        <ele>1433</ele>
        <time>2024-03-30T12:32:49.000Z</time>
      </trkpt>
      <trkpt lat="28.265766666666668" lon="-16.457083333333333">
        <ele>1435</ele>
        <time>2024-03-30T12:32:50.000Z</time>
      </trkpt>
      <trkpt lat="28.26575" lon="-16.457183333333333">
        <ele>1437</ele>
        <time>2024-03-30T12:32:51.000Z</time>
      </trkpt>
      <trkpt lat="28.26575" lon="-16.457266666666666">
        <ele>1437</ele>
        <time>2024-03-30T12:32:52.000Z</time>
      </trkpt>
      <trkpt lat="28.265733333333333" lon="-16.457366666666665">
        <ele>1437</ele>
        <time>2024-03-30T12:32:53.000Z</time>
      </trkpt>
      <trkpt lat="28.26568333333333" lon="-16.457483333333332">
        <ele>1437</ele>
        <time>2024-03-30T12:32:54.000Z</time>
      </trkpt>
      <trkpt lat="28.265633333333334" lon="-16.457583333333332">
        <ele>1438</ele>
        <time>2024-03-30T12:32:55.000Z</time>
      </trkpt>
      <trkpt lat="28.26556666666667" lon="-16.457683333333332">
        <ele>1440</ele>
        <time>2024-03-30T12:32:56.000Z</time>
      </trkpt>
      <trkpt lat="28.265483333333332" lon="-16.45778333333333">
        <ele>1443</ele>
        <time>2024-03-30T12:32:57.000Z</time>
      </trkpt>
      <trkpt lat="28.265416666666667" lon="-16.457866666666668">
        <ele>1446</ele>
        <time>2024-03-30T12:32:58.000Z</time>
      </trkpt>
      <trkpt lat="28.26535" lon="-16.457916666666666">
        <ele>1449</ele>
        <time>2024-03-30T12:32:59.000Z</time>
      </trkpt>
      <trkpt lat="28.2653" lon="-16.457966666666668">
        <ele>1451</ele>
        <time>2024-03-30T12:33:00.000Z</time>
      </trkpt>
      <trkpt lat="28.26525" lon="-16.457966666666668">
        <ele>1452</ele>
        <time>2024-03-30T12:33:01.000Z</time>
      </trkpt>
      <trkpt lat="28.265183333333333" lon="-16.457933333333333">
        <ele>1453</ele>
        <time>2024-03-30T12:33:02.000Z</time>
      </trkpt>
      <trkpt lat="28.265133333333335" lon="-16.457883333333335">
        <ele>1457</ele>
        <time>2024-03-30T12:33:03.000Z</time>
      </trkpt>
      <trkpt lat="28.265133333333335" lon="-16.457833333333333">
        <ele>1460</ele>
        <time>2024-03-30T12:33:04.000Z</time>
      </trkpt>
      <trkpt lat="28.265183333333333" lon="-16.457766666666668">
        <ele>1461</ele>
        <time>2024-03-30T12:33:05.000Z</time>
      </trkpt>
      <trkpt lat="28.265283333333333" lon="-16.457716666666666">
        <ele>1460</ele>
        <time>2024-03-30T12:33:06.000Z</time>
      </trkpt>
      <trkpt lat="28.2654" lon="-16.457683333333332">
        <ele>1460</ele>
        <time>2024-03-30T12:33:07.000Z</time>
      </trkpt>
      <trkpt lat="28.265533333333334" lon="-16.457733333333334">
        <ele>1462</ele>
        <time>2024-03-30T12:33:08.000Z</time>
      </trkpt>
      <trkpt lat="28.265633333333334" lon="-16.457816666666666">
        <ele>1465</ele>
        <time>2024-03-30T12:33:09.000Z</time>
      </trkpt>
      <trkpt lat="28.265716666666666" lon="-16.45795">
        <ele>1467</ele>
        <time>2024-03-30T12:33:10.000Z</time>
      </trkpt>
      <trkpt lat="28.26575" lon="-16.458083333333335">
        <ele>1469</ele>
        <time>2024-03-30T12:33:11.000Z</time>
      </trkpt>
      <trkpt lat="28.26575" lon="-16.458233333333332">
        <ele>1472</ele>
        <time>2024-03-30T12:33:12.000Z</time>
      </trkpt>
      <trkpt lat="28.265716666666666" lon="-16.458366666666667">
        <ele>1475</ele>
        <time>2024-03-30T12:33:13.000Z</time>
      </trkpt>
      <trkpt lat="28.265666666666668" lon="-16.45845">
        <ele>1476</ele>
        <time>2024-03-30T12:33:14.000Z</time>
      </trkpt>
      <trkpt lat="28.2656" lon="-16.45853333333333">
        <ele>1477</ele>
        <time>2024-03-30T12:33:15.000Z</time>
      </trkpt>
      <trkpt lat="28.26555" lon="-16.4586">
        <ele>1476</ele>
        <time>2024-03-30T12:33:16.000Z</time>
      </trkpt>
      <trkpt lat="28.265466666666665" lon="-16.458683333333333">
        <ele>1476</ele>
        <time>2024-03-30T12:33:17.000Z</time>
      </trkpt>
      <trkpt lat="28.265383333333332" lon="-16.458766666666666">
        <ele>1476</ele>
        <time>2024-03-30T12:33:18.000Z</time>
      </trkpt>
      <trkpt lat="28.2653" lon="-16.458866666666665">
        <ele>1476</ele>
        <time>2024-03-30T12:33:19.000Z</time>
      </trkpt>
      <trkpt lat="28.265233333333335" lon="-16.458966666666665">
        <ele>1479</ele>
        <time>2024-03-30T12:33:20.000Z</time>
      </trkpt>
      <trkpt lat="28.265166666666666" lon="-16.459066666666665">
        <ele>1481</ele>
        <time>2024-03-30T12:33:21.000Z</time>
      </trkpt>
      <trkpt lat="28.265116666666668" lon="-16.459183333333332">
        <ele>1483</ele>
        <time>2024-03-30T12:33:22.000Z</time>
      </trkpt>
      <trkpt lat="28.26505" lon="-16.45928333333333">
        <ele>1484</ele>
        <time>2024-03-30T12:33:23.000Z</time>
      </trkpt>
      <trkpt lat="28.264966666666666" lon="-16.459383333333335">
        <ele>1486</ele>
        <time>2024-03-30T12:33:24.000Z</time>
      </trkpt>
      <trkpt lat="28.2649" lon="-16.45945">
        <ele>1487</ele>
        <time>2024-03-30T12:33:25.000Z</time>
      </trkpt>
      <trkpt lat="28.26485" lon="-16.459533333333333">
        <ele>1485</ele>
        <time>2024-03-30T12:33:26.000Z</time>
      </trkpt>
      <trkpt lat="28.2648" lon="-16.459616666666665">
        <ele>1483</ele>
        <time>2024-03-30T12:33:27.000Z</time>
      </trkpt>
      <trkpt lat="28.264716666666665" lon="-16.4597">
        <ele>1480</ele>
        <time>2024-03-30T12:33:28.000Z</time>
      </trkpt>
      <trkpt lat="28.264633333333332" lon="-16.459783333333334">
        <ele>1479</ele>
        <time>2024-03-30T12:33:29.000Z</time>
      </trkpt>
      <trkpt lat="28.26455" lon="-16.459866666666667">
        <ele>1478</ele>
        <time>2024-03-30T12:33:30.000Z</time>
      </trkpt>
      <trkpt lat="28.264483333333335" lon="-16.45995">
        <ele>1479</ele>
        <time>2024-03-30T12:33:31.000Z</time>
      </trkpt>
      <trkpt lat="28.264416666666666" lon="-16.46005">
        <ele>1479</ele>
        <time>2024-03-30T12:33:32.000Z</time>
      </trkpt>
      <trkpt lat="28.26435" lon="-16.460116666666668">
        <ele>1478</ele>
        <time>2024-03-30T12:33:33.000Z</time>
      </trkpt>
      <trkpt lat="28.264266666666668" lon="-16.460183333333333">
        <ele>1475</ele>
        <time>2024-03-30T12:33:34.000Z</time>
      </trkpt>
      <trkpt lat="28.264166666666668" lon="-16.460233333333335">
        <ele>1472</ele>
        <time>2024-03-30T12:33:35.000Z</time>
      </trkpt>
      <trkpt lat="28.26406666666667" lon="-16.4603">
        <ele>1470</ele>
        <time>2024-03-30T12:33:36.000Z</time>
      </trkpt>
      <trkpt lat="28.26395" lon="-16.460383333333333">
        <ele>1468</ele>
        <time>2024-03-30T12:33:37.000Z</time>
      </trkpt>
      <trkpt lat="28.26385" lon="-16.460466666666665">
        <ele>1466</ele>
        <time>2024-03-30T12:33:38.000Z</time>
      </trkpt>
      <trkpt lat="28.263733333333334" lon="-16.46055">
        <ele>1465</ele>
        <time>2024-03-30T12:33:39.000Z</time>
      </trkpt>
      <trkpt lat="28.263633333333335" lon="-16.460633333333334">
        <ele>1465</ele>
        <time>2024-03-30T12:33:40.000Z</time>
      </trkpt>
      <trkpt lat="28.26355" lon="-16.460716666666666">
        <ele>1464</ele>
        <time>2024-03-30T12:33:41.000Z</time>
      </trkpt>
      <trkpt lat="28.263466666666666" lon="-16.460816666666666">
        <ele>1464</ele>
        <time>2024-03-30T12:33:42.000Z</time>
      </trkpt>
      <trkpt lat="28.263383333333334" lon="-16.4609">
        <ele>1462</ele>
        <time>2024-03-30T12:33:43.000Z</time>
      </trkpt>
      <trkpt lat="28.2633" lon="-16.461">
        <ele>1461</ele>
        <time>2024-03-30T12:33:44.000Z</time>
      </trkpt>
      <trkpt lat="28.263216666666665" lon="-16.4611">
        <ele>1460</ele>
        <time>2024-03-30T12:33:45.000Z</time>
      </trkpt>
      <trkpt lat="28.26315" lon="-16.461216666666665">
        <ele>1459</ele>
        <time>2024-03-30T12:33:46.000Z</time>
      </trkpt>
      <trkpt lat="28.263066666666667" lon="-16.461316666666665">
        <ele>1459</ele>
        <time>2024-03-30T12:33:47.000Z</time>
      </trkpt>
      <trkpt lat="28.262983333333334" lon="-16.4614">
        <ele>1459</ele>
        <time>2024-03-30T12:33:48.000Z</time>
      </trkpt>
      <trkpt lat="28.262883333333335" lon="-16.461466666666666">
        <ele>1458</ele>
        <time>2024-03-30T12:33:49.000Z</time>
      </trkpt>
      <trkpt lat="28.2628" lon="-16.46155">
        <ele>1455</ele>
        <time>2024-03-30T12:33:50.000Z</time>
      </trkpt>
      <trkpt lat="28.2627" lon="-16.46163333333333">
        <ele>1453</ele>
        <time>2024-03-30T12:33:51.000Z</time>
      </trkpt>
      <trkpt lat="28.262583333333332" lon="-16.461716666666668">
        <ele>1451</ele>
        <time>2024-03-30T12:33:52.000Z</time>
      </trkpt>
      <trkpt lat="28.26246666666667" lon="-16.461816666666667">
        <ele>1451</ele>
        <time>2024-03-30T12:33:53.000Z</time>
      </trkpt>
      <trkpt lat="28.262366666666665" lon="-16.4619">
        <ele>1452</ele>
        <time>2024-03-30T12:33:54.000Z</time>
      </trkpt>
      <trkpt lat="28.262283333333333" lon="-16.461983333333333">
        <ele>1453</ele>
        <time>2024-03-30T12:33:55.000Z</time>
      </trkpt>
      <trkpt lat="28.262216666666667" lon="-16.462033333333334">
        <ele>1451</ele>
        <time>2024-03-30T12:33:56.000Z</time>
      </trkpt>
      <trkpt lat="28.262133333333335" lon="-16.4621">
        <ele>1448</ele>
        <time>2024-03-30T12:33:57.000Z</time>
      </trkpt>
      <trkpt lat="28.262033333333335" lon="-16.462183333333332">
        <ele>1444</ele>
        <time>2024-03-30T12:33:58.000Z</time>
      </trkpt>
      <trkpt lat="28.261916666666668" lon="-16.462283333333332">
        <ele>1441</ele>
        <time>2024-03-30T12:33:59.000Z</time>
      </trkpt>
      <trkpt lat="28.261816666666668" lon="-16.46238333333333">
        <ele>1441</ele>
        <time>2024-03-30T12:34:00.000Z</time>
      </trkpt>
      <trkpt lat="28.261733333333332" lon="-16.462483333333335">
        <ele>1442</ele>
        <time>2024-03-30T12:34:01.000Z</time>
      </trkpt>
      <trkpt lat="28.26165" lon="-16.462566666666667">
        <ele>1444</ele>
        <time>2024-03-30T12:34:02.000Z</time>
      </trkpt>
      <trkpt lat="28.261583333333334" lon="-16.462616666666666">
        <ele>1444</ele>
        <time>2024-03-30T12:34:03.000Z</time>
      </trkpt>
      <trkpt lat="28.261516666666665" lon="-16.462666666666667">
        <ele>1442</ele>
        <time>2024-03-30T12:34:04.000Z</time>
      </trkpt>
      <trkpt lat="28.26145" lon="-16.462716666666665">
        <ele>1438</ele>
        <time>2024-03-30T12:34:05.000Z</time>
      </trkpt>
      <trkpt lat="28.261366666666667" lon="-16.462783333333334">
        <ele>1434</ele>
        <time>2024-03-30T12:34:06.000Z</time>
      </trkpt>
      <trkpt lat="28.261266666666668" lon="-16.462866666666667">
        <ele>1430</ele>
        <time>2024-03-30T12:34:07.000Z</time>
      </trkpt>
      <trkpt lat="28.261166666666668" lon="-16.462966666666667">
        <ele>1430</ele>
        <time>2024-03-30T12:34:08.000Z</time>
      </trkpt>
      <trkpt lat="28.261083333333332" lon="-16.46305">
        <ele>1430</ele>
        <time>2024-03-30T12:34:09.000Z</time>
      </trkpt>
      <trkpt lat="28.261" lon="-16.463116666666668">
        <ele>1431</ele>
        <time>2024-03-30T12:34:10.000Z</time>
      </trkpt>
      <trkpt lat="28.260916666666667" lon="-16.463183333333333">
        <ele>1430</ele>
        <time>2024-03-30T12:34:11.000Z</time>
      </trkpt>
      <trkpt lat="28.26085" lon="-16.46325">
        <ele>1429</ele>
        <time>2024-03-30T12:34:12.000Z</time>
      </trkpt>
      <trkpt lat="28.260766666666665" lon="-16.463316666666667">
        <ele>1427</ele>
        <time>2024-03-30T12:34:13.000Z</time>
      </trkpt>
      <trkpt lat="28.260666666666665" lon="-16.4634">
        <ele>1424</ele>
        <time>2024-03-30T12:34:14.000Z</time>
      </trkpt>
      <trkpt lat="28.260566666666666" lon="-16.463466666666665">
        <ele>1422</ele>
        <time>2024-03-30T12:34:15.000Z</time>
      </trkpt>
      <trkpt lat="28.26045" lon="-16.46355">
        <ele>1422</ele>
        <time>2024-03-30T12:34:16.000Z</time>
      </trkpt>
      <trkpt lat="28.260366666666666" lon="-16.463616666666667">
        <ele>1422</ele>
        <time>2024-03-30T12:34:17.000Z</time>
      </trkpt>
      <trkpt lat="28.260283333333334" lon="-16.463683333333332">
        <ele>1422</ele>
        <time>2024-03-30T12:34:18.000Z</time>
      </trkpt>
      <trkpt lat="28.2602" lon="-16.463733333333334">
        <ele>1420</ele>
        <time>2024-03-30T12:34:19.000Z</time>
      </trkpt>
      <trkpt lat="28.260116666666665" lon="-16.463783333333332">
        <ele>1417</ele>
        <time>2024-03-30T12:34:20.000Z</time>
      </trkpt>
      <trkpt lat="28.260033333333332" lon="-16.46385">
        <ele>1414</ele>
        <time>2024-03-30T12:34:21.000Z</time>
      </trkpt>
      <trkpt lat="28.259933333333333" lon="-16.463916666666666">
        <ele>1410</ele>
        <time>2024-03-30T12:34:22.000Z</time>
      </trkpt>
      <trkpt lat="28.259833333333333" lon="-16.464">
        <ele>1407</ele>
        <time>2024-03-30T12:34:23.000Z</time>
      </trkpt>
      <trkpt lat="28.259716666666666" lon="-16.464066666666668">
        <ele>1404</ele>
        <time>2024-03-30T12:34:24.000Z</time>
      </trkpt>
      <trkpt lat="28.25958333333333" lon="-16.464133333333333">
        <ele>1402</ele>
        <time>2024-03-30T12:34:25.000Z</time>
      </trkpt>
      <trkpt lat="28.25946666666667" lon="-16.464183333333335">
        <ele>1402</ele>
        <time>2024-03-30T12:34:26.000Z</time>
      </trkpt>
      <trkpt lat="28.25935" lon="-16.46425">
        <ele>1403</ele>
        <time>2024-03-30T12:34:27.000Z</time>
      </trkpt>
      <trkpt lat="28.25925" lon="-16.464316666666665">
        <ele>1403</ele>
        <time>2024-03-30T12:34:28.000Z</time>
      </trkpt>
      <trkpt lat="28.259166666666665" lon="-16.4644">
        <ele>1402</ele>
        <time>2024-03-30T12:34:29.000Z</time>
      </trkpt>
      <trkpt lat="28.259083333333333" lon="-16.464466666666667">
        <ele>1399</ele>
        <time>2024-03-30T12:34:30.000Z</time>
      </trkpt>
      <trkpt lat="28.259" lon="-16.46455">
        <ele>1397</ele>
        <time>2024-03-30T12:34:31.000Z</time>
      </trkpt>
      <trkpt lat="28.258916666666668" lon="-16.46465">
        <ele>1395</ele>
        <time>2024-03-30T12:34:32.000Z</time>
      </trkpt>
      <trkpt lat="28.25883333333333" lon="-16.46475">
        <ele>1395</ele>
        <time>2024-03-30T12:34:33.000Z</time>
      </trkpt>
      <trkpt lat="28.25875" lon="-16.464833333333335">
        <ele>1393</ele>
        <time>2024-03-30T12:34:34.000Z</time>
      </trkpt>
      <trkpt lat="28.258666666666667" lon="-16.464916666666667">
        <ele>1391</ele>
        <time>2024-03-30T12:34:35.000Z</time>
      </trkpt>
      <trkpt lat="28.258566666666667" lon="-16.464983333333333">
        <ele>1389</ele>
        <time>2024-03-30T12:34:36.000Z</time>
      </trkpt>
      <trkpt lat="28.258483333333334" lon="-16.465066666666665">
        <ele>1387</ele>
        <time>2024-03-30T12:34:37.000Z</time>
      </trkpt>
      <trkpt lat="28.2584" lon="-16.46515">
        <ele>1385</ele>
        <time>2024-03-30T12:34:38.000Z</time>
      </trkpt>
      <trkpt lat="28.2583" lon="-16.465233333333334">
        <ele>1383</ele>
        <time>2024-03-30T12:34:39.000Z</time>
      </trkpt>
      <trkpt lat="28.258216666666666" lon="-16.465316666666666">
        <ele>1381</ele>
        <time>2024-03-30T12:34:40.000Z</time>
      </trkpt>
      <trkpt lat="28.258133333333333" lon="-16.46538333333333">
        <ele>1380</ele>
        <time>2024-03-30T12:34:41.000Z</time>
      </trkpt>
      <trkpt lat="28.25805" lon="-16.465466666666668">
        <ele>1379</ele>
        <time>2024-03-30T12:34:42.000Z</time>
      </trkpt>
      <trkpt lat="28.257983333333332" lon="-16.46555">
        <ele>1376</ele>
        <time>2024-03-30T12:34:43.000Z</time>
      </trkpt>
      <trkpt lat="28.2579" lon="-16.46565">
        <ele>1373</ele>
        <time>2024-03-30T12:34:44.000Z</time>
      </trkpt>
      <trkpt lat="28.257816666666667" lon="-16.465766666666667">
        <ele>1372</ele>
        <time>2024-03-30T12:34:45.000Z</time>
      </trkpt>
      <trkpt lat="28.25775" lon="-16.46585">
        <ele>1373</ele>
        <time>2024-03-30T12:34:46.000Z</time>
      </trkpt>
      <trkpt lat="28.257666666666665" lon="-16.465933333333332">
        <ele>1373</ele>
        <time>2024-03-30T12:34:47.000Z</time>
      </trkpt>
      <trkpt lat="28.257616666666667" lon="-16.466">
        <ele>1373</ele>
        <time>2024-03-30T12:34:48.000Z</time>
      </trkpt>
      <trkpt lat="28.257566666666666" lon="-16.46605">
        <ele>1371</ele>
        <time>2024-03-30T12:34:49.000Z</time>
      </trkpt>
      <trkpt lat="28.2575" lon="-16.4661">
        <ele>1368</ele>
        <time>2024-03-30T12:34:50.000Z</time>
      </trkpt>
      <trkpt lat="28.257416666666668" lon="-16.466166666666666">
        <ele>1366</ele>
        <time>2024-03-30T12:34:51.000Z</time>
      </trkpt>
      <trkpt lat="28.257316666666668" lon="-16.466233333333335">
        <ele>1364</ele>
        <time>2024-03-30T12:34:52.000Z</time>
      </trkpt>
      <trkpt lat="28.257216666666668" lon="-16.46635">
        <ele>1363</ele>
        <time>2024-03-30T12:34:53.000Z</time>
      </trkpt>
      <trkpt lat="28.257133333333332" lon="-16.46645">
        <ele>1364</ele>
        <time>2024-03-30T12:34:54.000Z</time>
      </trkpt>
      <trkpt lat="28.25705" lon="-16.46655">
        <ele>1365</ele>
        <time>2024-03-30T12:34:55.000Z</time>
      </trkpt>
      <trkpt lat="28.256966666666667" lon="-16.46665">
        <ele>1365</ele>
        <time>2024-03-30T12:34:56.000Z</time>
      </trkpt>
      <trkpt lat="28.2569" lon="-16.466716666666667">
        <ele>1365</ele>
        <time>2024-03-30T12:34:57.000Z</time>
      </trkpt>
      <trkpt lat="28.2568" lon="-16.466783333333332">
        <ele>1363</ele>
        <time>2024-03-30T12:34:58.000Z</time>
      </trkpt>
      <trkpt lat="28.256716666666666" lon="-16.46685">
        <ele>1360</ele>
        <time>2024-03-30T12:34:59.000Z</time>
      </trkpt>
      <trkpt lat="28.256616666666666" lon="-16.4669">
        <ele>1359</ele>
        <time>2024-03-30T12:35:00.000Z</time>
      </trkpt>
      <trkpt lat="28.256533333333334" lon="-16.466966666666668">
        <ele>1359</ele>
        <time>2024-03-30T12:35:01.000Z</time>
      </trkpt>
      <trkpt lat="28.25645" lon="-16.467016666666666">
        <ele>1360</ele>
        <time>2024-03-30T12:35:02.000Z</time>
      </trkpt>
      <trkpt lat="28.256383333333332" lon="-16.467066666666668">
        <ele>1360</ele>
        <time>2024-03-30T12:35:03.000Z</time>
      </trkpt>
      <trkpt lat="28.256316666666667" lon="-16.467083333333335">
        <ele>1358</ele>
        <time>2024-03-30T12:35:04.000Z</time>
      </trkpt>
      <trkpt lat="28.256233333333334" lon="-16.4671">
        <ele>1357</ele>
        <time>2024-03-30T12:35:05.000Z</time>
      </trkpt>
      <trkpt lat="28.25615" lon="-16.467133333333333">
        <ele>1356</ele>
        <time>2024-03-30T12:35:06.000Z</time>
      </trkpt>
      <trkpt lat="28.256033333333335" lon="-16.467183333333335">
        <ele>1356</ele>
        <time>2024-03-30T12:35:07.000Z</time>
      </trkpt>
      <trkpt lat="28.255933333333335" lon="-16.46725">
        <ele>1356</ele>
        <time>2024-03-30T12:35:08.000Z</time>
      </trkpt>
      <trkpt lat="28.25583333333333" lon="-16.4673">
        <ele>1357</ele>
        <time>2024-03-30T12:35:09.000Z</time>
      </trkpt>
      <trkpt lat="28.255716666666668" lon="-16.467333333333332">
        <ele>1358</ele>
        <time>2024-03-30T12:35:10.000Z</time>
      </trkpt>
      <trkpt lat="28.25561666666667" lon="-16.467366666666667">
        <ele>1359</ele>
        <time>2024-03-30T12:35:11.000Z</time>
      </trkpt>
      <trkpt lat="28.255533333333332" lon="-16.4674">
        <ele>1360</ele>
        <time>2024-03-30T12:35:12.000Z</time>
      </trkpt>
      <trkpt lat="28.255433333333333" lon="-16.46745">
        <ele>1360</ele>
        <time>2024-03-30T12:35:13.000Z</time>
      </trkpt>
      <trkpt lat="28.25535" lon="-16.4675">
        <ele>1359</ele>
        <time>2024-03-30T12:35:14.000Z</time>
      </trkpt>
      <trkpt lat="28.25525" lon="-16.467566666666666">
        <ele>1358</ele>
        <time>2024-03-30T12:35:15.000Z</time>
      </trkpt>
      <trkpt lat="28.255166666666668" lon="-16.467633333333332">
        <ele>1357</ele>
        <time>2024-03-30T12:35:16.000Z</time>
      </trkpt>
      <trkpt lat="28.255066666666668" lon="-16.467683333333333">
        <ele>1354</ele>
        <time>2024-03-30T12:35:17.000Z</time>
      </trkpt>
      <trkpt lat="28.254966666666668" lon="-16.467733333333335">
        <ele>1353</ele>
        <time>2024-03-30T12:35:18.000Z</time>
      </trkpt>
      <trkpt lat="28.25485" lon="-16.4678">
        <ele>1353</ele>
        <time>2024-03-30T12:35:19.000Z</time>
      </trkpt>
      <trkpt lat="28.254766666666665" lon="-16.467866666666666">
        <ele>1354</ele>
        <time>2024-03-30T12:35:20.000Z</time>
      </trkpt>
      <trkpt lat="28.2547" lon="-16.46795">
        <ele>1355</ele>
        <time>2024-03-30T12:35:21.000Z</time>
      </trkpt>
      <trkpt lat="28.25465" lon="-16.468016666666667">
        <ele>1354</ele>
        <time>2024-03-30T12:35:22.000Z</time>
      </trkpt>
      <trkpt lat="28.254583333333333" lon="-16.468083333333333">
        <ele>1351</ele>
        <time>2024-03-30T12:35:23.000Z</time>
      </trkpt>
      <trkpt lat="28.2545" lon="-16.46815">
        <ele>1348</ele>
        <time>2024-03-30T12:35:24.000Z</time>
      </trkpt>
      <trkpt lat="28.254416666666668" lon="-16.468216666666667">
        <ele>1344</ele>
        <time>2024-03-30T12:35:25.000Z</time>
      </trkpt>
      <trkpt lat="28.254333333333335" lon="-16.46826666666667">
        <ele>1342</ele>
        <time>2024-03-30T12:35:26.000Z</time>
      </trkpt>
      <trkpt lat="28.25425" lon="-16.468333333333334">
        <ele>1342</ele>
        <time>2024-03-30T12:35:27.000Z</time>
      </trkpt>
      <trkpt lat="28.2542" lon="-16.468383333333332">
        <ele>1342</ele>
        <time>2024-03-30T12:35:28.000Z</time>
      </trkpt>
      <trkpt lat="28.25415" lon="-16.468433333333333">
        <ele>1342</ele>
        <time>2024-03-30T12:35:29.000Z</time>
      </trkpt>
      <trkpt lat="28.2541" lon="-16.4685">
        <ele>1342</ele>
        <time>2024-03-30T12:35:30.000Z</time>
      </trkpt>
      <trkpt lat="28.254033333333332" lon="-16.468566666666668">
        <ele>1343</ele>
        <time>2024-03-30T12:35:31.000Z</time>
      </trkpt>
      <trkpt lat="28.253983333333334" lon="-16.468633333333333">
        <ele>1344</ele>
        <time>2024-03-30T12:35:32.000Z</time>
      </trkpt>
      <trkpt lat="28.253916666666665" lon="-16.4687">
        <ele>1344</ele>
        <time>2024-03-30T12:35:33.000Z</time>
      </trkpt>
      <trkpt lat="28.25385" lon="-16.46875">
        <ele>1345</ele>
        <time>2024-03-30T12:35:34.000Z</time>
      </trkpt>
      <trkpt lat="28.253766666666667" lon="-16.468816666666665">
        <ele>1347</ele>
        <time>2024-03-30T12:35:35.000Z</time>
      </trkpt>
      <trkpt lat="28.2537" lon="-16.468866666666667">
        <ele>1349</ele>
        <time>2024-03-30T12:35:36.000Z</time>
      </trkpt>
      <trkpt lat="28.253633333333333" lon="-16.468883333333334">
        <ele>1351</ele>
        <time>2024-03-30T12:35:37.000Z</time>
      </trkpt>
      <trkpt lat="28.253583333333335" lon="-16.468883333333334">
        <ele>1352</ele>
        <time>2024-03-30T12:35:38.000Z</time>
      </trkpt>
      <trkpt lat="28.253583333333335" lon="-16.468833333333333">
        <ele>1350</ele>
        <time>2024-03-30T12:35:39.000Z</time>
      </trkpt>
      <trkpt lat="28.253633333333333" lon="-16.468766666666667">
        <ele>1347</ele>
        <time>2024-03-30T12:35:40.000Z</time>
      </trkpt>
      <trkpt lat="28.253733333333333" lon="-16.468683333333335">
        <ele>1345</ele>
        <time>2024-03-30T12:35:41.000Z</time>
      </trkpt>
      <trkpt lat="28.253866666666667" lon="-16.46865">
        <ele>1345</ele>
        <time>2024-03-30T12:35:42.000Z</time>
      </trkpt>
      <trkpt lat="28.254" lon="-16.4687">
        <ele>1347</ele>
        <time>2024-03-30T12:35:43.000Z</time>
      </trkpt>
      <trkpt lat="28.2541" lon="-16.4688">
        <ele>1348</ele>
        <time>2024-03-30T12:35:44.000Z</time>
      </trkpt>
      <trkpt lat="28.254166666666666" lon="-16.468916666666665">
        <ele>1348</ele>
        <time>2024-03-30T12:35:45.000Z</time>
      </trkpt>
      <trkpt lat="28.254216666666668" lon="-16.46905">
        <ele>1350</ele>
        <time>2024-03-30T12:35:46.000Z</time>
      </trkpt>
      <trkpt lat="28.254266666666666" lon="-16.469166666666666">
        <ele>1352</ele>
        <time>2024-03-30T12:35:47.000Z</time>
      </trkpt>
      <trkpt lat="28.2543" lon="-16.469266666666666">
        <ele>1354</ele>
        <time>2024-03-30T12:35:48.000Z</time>
      </trkpt>
      <trkpt lat="28.2543" lon="-16.469366666666666">
        <ele>1353</ele>
        <time>2024-03-30T12:35:49.000Z</time>
      </trkpt>
      <trkpt lat="28.2543" lon="-16.469466666666666">
        <ele>1352</ele>
        <time>2024-03-30T12:35:50.000Z</time>
      </trkpt>
      <trkpt lat="28.254266666666666" lon="-16.469583333333333">
        <ele>1350</ele>
        <time>2024-03-30T12:35:51.000Z</time>
      </trkpt>
      <trkpt lat="28.254216666666668" lon="-16.4697">
        <ele>1349</ele>
        <time>2024-03-30T12:35:52.000Z</time>
      </trkpt>
      <trkpt lat="28.25415" lon="-16.469816666666667">
        <ele>1350</ele>
        <time>2024-03-30T12:35:53.000Z</time>
      </trkpt>
      <trkpt lat="28.25405" lon="-16.4699">
        <ele>1351</ele>
        <time>2024-03-30T12:35:54.000Z</time>
      </trkpt>
      <trkpt lat="28.253983333333334" lon="-16.46995">
        <ele>1352</ele>
        <time>2024-03-30T12:35:55.000Z</time>
      </trkpt>
      <trkpt lat="28.253916666666665" lon="-16.47">
        <ele>1352</ele>
        <time>2024-03-30T12:35:56.000Z</time>
      </trkpt>
      <trkpt lat="28.25385" lon="-16.470033333333333">
        <ele>1353</ele>
        <time>2024-03-30T12:35:57.000Z</time>
      </trkpt>
      <trkpt lat="28.2538" lon="-16.47005">
        <ele>1353</ele>
        <time>2024-03-30T12:35:58.000Z</time>
      </trkpt>
      <trkpt lat="28.253733333333333" lon="-16.470083333333335">
        <ele>1353</ele>
        <time>2024-03-30T12:35:59.000Z</time>
      </trkpt>
      <trkpt lat="28.25365" lon="-16.470133333333333">
        <ele>1353</ele>
        <time>2024-03-30T12:36:00.000Z</time>
      </trkpt>
      <trkpt lat="28.253583333333335" lon="-16.4702">
        <ele>1354</ele>
        <time>2024-03-30T12:36:01.000Z</time>
      </trkpt>
      <trkpt lat="28.2535" lon="-16.470283333333334">
        <ele>1355</ele>
        <time>2024-03-30T12:36:02.000Z</time>
      </trkpt>
      <trkpt lat="28.253433333333334" lon="-16.470333333333333">
        <ele>1355</ele>
        <time>2024-03-30T12:36:03.000Z</time>
      </trkpt>
      <trkpt lat="28.253383333333332" lon="-16.470366666666667">
        <ele>1354</ele>
        <time>2024-03-30T12:36:04.000Z</time>
      </trkpt>
      <trkpt lat="28.253333333333334" lon="-16.470366666666667">
        <ele>1352</ele>
        <time>2024-03-30T12:36:05.000Z</time>
      </trkpt>
      <trkpt lat="28.253283333333332" lon="-16.470366666666667">
        <ele>1349</ele>
        <time>2024-03-30T12:36:06.000Z</time>
      </trkpt>
      <trkpt lat="28.2532" lon="-16.470383333333334">
        <ele>1346</ele>
        <time>2024-03-30T12:36:07.000Z</time>
      </trkpt>
      <trkpt lat="28.253116666666667" lon="-16.470433333333332">
        <ele>1342</ele>
        <time>2024-03-30T12:36:08.000Z</time>
      </trkpt>
      <trkpt lat="28.25305" lon="-16.4705">
        <ele>1341</ele>
        <time>2024-03-30T12:36:09.000Z</time>
      </trkpt>
      <trkpt lat="28.252966666666666" lon="-16.470583333333334">
        <ele>1341</ele>
        <time>2024-03-30T12:36:10.000Z</time>
      </trkpt>
      <trkpt lat="28.252916666666668" lon="-16.47065">
        <ele>1341</ele>
        <time>2024-03-30T12:36:11.000Z</time>
      </trkpt>
      <trkpt lat="28.252866666666666" lon="-16.47073333333333">
        <ele>1339</ele>
        <time>2024-03-30T12:36:12.000Z</time>
      </trkpt>
      <trkpt lat="28.252816666666668" lon="-16.4708">
        <ele>1337</ele>
        <time>2024-03-30T12:36:13.000Z</time>
      </trkpt>
      <trkpt lat="28.25273333333333" lon="-16.470883333333333">
        <ele>1336</ele>
        <time>2024-03-30T12:36:14.000Z</time>
      </trkpt>
      <trkpt lat="28.252666666666666" lon="-16.470966666666666">
        <ele>1335</ele>
        <time>2024-03-30T12:36:15.000Z</time>
      </trkpt>
      <trkpt lat="28.252583333333334" lon="-16.471083333333333">
        <ele>1334</ele>
        <time>2024-03-30T12:36:16.000Z</time>
      </trkpt>
      <trkpt lat="28.252533333333332" lon="-16.471183333333332">
        <ele>1334</ele>
        <time>2024-03-30T12:36:17.000Z</time>
      </trkpt>
      <trkpt lat="28.252483333333334" lon="-16.471283333333332">
        <ele>1333</ele>
        <time>2024-03-30T12:36:18.000Z</time>
      </trkpt>
      <trkpt lat="28.252416666666665" lon="-16.471383333333332">
        <ele>1330</ele>
        <time>2024-03-30T12:36:19.000Z</time>
      </trkpt>
      <trkpt lat="28.25235" lon="-16.47148333333333">
        <ele>1328</ele>
        <time>2024-03-30T12:36:20.000Z</time>
      </trkpt>
      <trkpt lat="28.252266666666667" lon="-16.471583333333335">
        <ele>1326</ele>
        <time>2024-03-30T12:36:21.000Z</time>
      </trkpt>
      <trkpt lat="28.252183333333335" lon="-16.4717">
        <ele>1325</ele>
        <time>2024-03-30T12:36:22.000Z</time>
      </trkpt>
      <trkpt lat="28.2521" lon="-16.4718">
        <ele>1324</ele>
        <time>2024-03-30T12:36:23.000Z</time>
      </trkpt>
      <trkpt lat="28.252033333333333" lon="-16.4719">
        <ele>1323</ele>
        <time>2024-03-30T12:36:24.000Z</time>
      </trkpt>
      <trkpt lat="28.251966666666668" lon="-16.472">
        <ele>1322</ele>
        <time>2024-03-30T12:36:25.000Z</time>
      </trkpt>
      <trkpt lat="28.2519" lon="-16.472066666666667">
        <ele>1320</ele>
        <time>2024-03-30T12:36:26.000Z</time>
      </trkpt>
      <trkpt lat="28.251833333333334" lon="-16.472166666666666">
        <ele>1317</ele>
        <time>2024-03-30T12:36:27.000Z</time>
      </trkpt>
      <trkpt lat="28.25175" lon="-16.472266666666666">
        <ele>1315</ele>
        <time>2024-03-30T12:36:28.000Z</time>
      </trkpt>
      <trkpt lat="28.251666666666665" lon="-16.472383333333333">
        <ele>1313</ele>
        <time>2024-03-30T12:36:29.000Z</time>
      </trkpt>
      <trkpt lat="28.251583333333333" lon="-16.4725">
        <ele>1314</ele>
        <time>2024-03-30T12:36:30.000Z</time>
      </trkpt>
      <trkpt lat="28.251516666666667" lon="-16.4726">
        <ele>1315</ele>
        <time>2024-03-30T12:36:31.000Z</time>
      </trkpt>
      <trkpt lat="28.25145" lon="-16.4727">
        <ele>1314</ele>
        <time>2024-03-30T12:36:32.000Z</time>
      </trkpt>
      <trkpt lat="28.251383333333333" lon="-16.472783333333332">
        <ele>1312</ele>
        <time>2024-03-30T12:36:33.000Z</time>
      </trkpt>
      <trkpt lat="28.2513" lon="-16.47286666666667">
        <ele>1309</ele>
        <time>2024-03-30T12:36:34.000Z</time>
      </trkpt>
      <trkpt lat="28.251216666666668" lon="-16.472966666666668">
        <ele>1307</ele>
        <time>2024-03-30T12:36:35.000Z</time>
      </trkpt>
      <trkpt lat="28.251116666666668" lon="-16.47305">
        <ele>1305</ele>
        <time>2024-03-30T12:36:36.000Z</time>
      </trkpt>
      <trkpt lat="28.251016666666665" lon="-16.47315">
        <ele>1305</ele>
        <time>2024-03-30T12:36:37.000Z</time>
      </trkpt>
      <trkpt lat="28.25095" lon="-16.473233333333333">
        <ele>1306</ele>
        <time>2024-03-30T12:36:38.000Z</time>
      </trkpt>
      <trkpt lat="28.250883333333334" lon="-16.473333333333333">
        <ele>1306</ele>
        <time>2024-03-30T12:36:39.000Z</time>
      </trkpt>
      <trkpt lat="28.250816666666665" lon="-16.473433333333332">
        <ele>1306</ele>
        <time>2024-03-30T12:36:40.000Z</time>
      </trkpt>
      <trkpt lat="28.25075" lon="-16.4735">
        <ele>1304</ele>
        <time>2024-03-30T12:36:41.000Z</time>
      </trkpt>
      <trkpt lat="28.25065" lon="-16.4736">
        <ele>1303</ele>
        <time>2024-03-30T12:36:42.000Z</time>
      </trkpt>
      <trkpt lat="28.250566666666668" lon="-16.4737">
        <ele>1305</ele>
        <time>2024-03-30T12:36:43.000Z</time>
      </trkpt>
      <trkpt lat="28.25048333333333" lon="-16.473783333333333">
        <ele>1308</ele>
        <time>2024-03-30T12:36:44.000Z</time>
      </trkpt>
      <trkpt lat="28.250416666666666" lon="-16.473866666666666">
        <ele>1310</ele>
        <time>2024-03-30T12:36:45.000Z</time>
      </trkpt>
      <trkpt lat="28.250366666666668" lon="-16.473933333333335">
        <ele>1310</ele>
        <time>2024-03-30T12:36:46.000Z</time>
      </trkpt>
      <trkpt lat="28.2503" lon="-16.474016666666667">
        <ele>1310</ele>
        <time>2024-03-30T12:36:47.000Z</time>
      </trkpt>
      <trkpt lat="28.250216666666667" lon="-16.4741">
        <ele>1309</ele>
        <time>2024-03-30T12:36:48.000Z</time>
      </trkpt>
      <trkpt lat="28.250133333333334" lon="-16.474183333333333">
        <ele>1309</ele>
        <time>2024-03-30T12:36:49.000Z</time>
      </trkpt>
      <trkpt lat="28.250033333333334" lon="-16.474266666666665">
        <ele>1312</ele>
        <time>2024-03-30T12:36:50.000Z</time>
      </trkpt>
      <trkpt lat="28.249933333333335" lon="-16.47435">
        <ele>1315</ele>
        <time>2024-03-30T12:36:51.000Z</time>
      </trkpt>
      <trkpt lat="28.249866666666666" lon="-16.4744">
        <ele>1318</ele>
        <time>2024-03-30T12:36:52.000Z</time>
      </trkpt>
      <trkpt lat="28.2498" lon="-16.474466666666668">
        <ele>1323</ele>
        <time>2024-03-30T12:36:53.000Z</time>
      </trkpt>
      <trkpt lat="28.24975" lon="-16.474533333333333">
        <ele>1326</ele>
        <time>2024-03-30T12:36:54.000Z</time>
      </trkpt>
      <trkpt lat="28.2497" lon="-16.4746">
        <ele>1328</ele>
        <time>2024-03-30T12:36:55.000Z</time>
      </trkpt>
      <trkpt lat="28.24965" lon="-16.474633333333333">
        <ele>1329</ele>
        <time>2024-03-30T12:36:56.000Z</time>
      </trkpt>
      <trkpt lat="28.2496" lon="-16.474616666666666">
        <ele>1328</ele>
        <time>2024-03-30T12:36:57.000Z</time>
      </trkpt>
      <trkpt lat="28.249566666666666" lon="-16.474566666666668">
        <ele>1328</ele>
        <time>2024-03-30T12:36:58.000Z</time>
      </trkpt>
      <trkpt lat="28.2496" lon="-16.474483333333332">
        <ele>1331</ele>
        <time>2024-03-30T12:36:59.000Z</time>
      </trkpt>
      <trkpt lat="28.249683333333333" lon="-16.474433333333334">
        <ele>1334</ele>
        <time>2024-03-30T12:37:00.000Z</time>
      </trkpt>
      <trkpt lat="28.249783333333333" lon="-16.474416666666666">
        <ele>1336</ele>
        <time>2024-03-30T12:37:01.000Z</time>
      </trkpt>
      <trkpt lat="28.2499" lon="-16.474466666666668">
        <ele>1337</ele>
        <time>2024-03-30T12:37:02.000Z</time>
      </trkpt>
      <trkpt lat="28.25" lon="-16.47455">
        <ele>1338</ele>
        <time>2024-03-30T12:37:03.000Z</time>
      </trkpt>
      <trkpt lat="28.250066666666665" lon="-16.47465">
        <ele>1343</ele>
        <time>2024-03-30T12:37:04.000Z</time>
      </trkpt>
      <trkpt lat="28.250116666666667" lon="-16.47475">
        <ele>1347</ele>
        <time>2024-03-30T12:37:05.000Z</time>
      </trkpt>
      <trkpt lat="28.25015" lon="-16.474833333333333">
        <ele>1349</ele>
        <time>2024-03-30T12:37:06.000Z</time>
      </trkpt>
      <trkpt lat="28.250166666666665" lon="-16.474966666666667">
        <ele>1349</ele>
        <time>2024-03-30T12:37:07.000Z</time>
      </trkpt>
      <trkpt lat="28.250166666666665" lon="-16.4751">
        <ele>1349</ele>
        <time>2024-03-30T12:37:08.000Z</time>
      </trkpt>
      <trkpt lat="28.25015" lon="-16.47525">
        <ele>1351</ele>
        <time>2024-03-30T12:37:09.000Z</time>
      </trkpt>
      <trkpt lat="28.250133333333334" lon="-16.475366666666666">
        <ele>1354</ele>
        <time>2024-03-30T12:37:10.000Z</time>
      </trkpt>
      <trkpt lat="28.250083333333333" lon="-16.47545">
        <ele>1356</ele>
        <time>2024-03-30T12:37:11.000Z</time>
      </trkpt>
      <trkpt lat="28.25" lon="-16.4755">
        <ele>1355</ele>
        <time>2024-03-30T12:37:12.000Z</time>
      </trkpt>
      <trkpt lat="28.249916666666667" lon="-16.475516666666667">
        <ele>1354</ele>
        <time>2024-03-30T12:37:13.000Z</time>
      </trkpt>
      <trkpt lat="28.249833333333335" lon="-16.4755">
        <ele>1353</ele>
        <time>2024-03-30T12:37:14.000Z</time>
      </trkpt>
      <trkpt lat="28.24975" lon="-16.475483333333333">
        <ele>1353</ele>
        <time>2024-03-30T12:37:15.000Z</time>
      </trkpt>
      <trkpt lat="28.249666666666666" lon="-16.475466666666666">
        <ele>1353</ele>
        <time>2024-03-30T12:37:16.000Z</time>
      </trkpt>
      <trkpt lat="28.249583333333334" lon="-16.475483333333333">
        <ele>1353</ele>
        <time>2024-03-30T12:37:17.000Z</time>
      </trkpt>
      <trkpt lat="28.2495" lon="-16.475533333333335">
        <ele>1353</ele>
        <time>2024-03-30T12:37:18.000Z</time>
      </trkpt>
      <trkpt lat="28.249433333333332" lon="-16.475583333333333">
        <ele>1353</ele>
        <time>2024-03-30T12:37:19.000Z</time>
      </trkpt>
      <trkpt lat="28.249366666666667" lon="-16.475633333333334">
        <ele>1354</ele>
        <time>2024-03-30T12:37:20.000Z</time>
      </trkpt>
      <trkpt lat="28.2493" lon="-16.475683333333333">
        <ele>1354</ele>
        <time>2024-03-30T12:37:21.000Z</time>
      </trkpt>
      <trkpt lat="28.249216666666666" lon="-16.475716666666667">
        <ele>1354</ele>
        <time>2024-03-30T12:37:22.000Z</time>
      </trkpt>
      <trkpt lat="28.249116666666666" lon="-16.475733333333334">
        <ele>1354</ele>
        <time>2024-03-30T12:37:23.000Z</time>
      </trkpt>
      <trkpt lat="28.249033333333333" lon="-16.475716666666667">
        <ele>1353</ele>
        <time>2024-03-30T12:37:24.000Z</time>
      </trkpt>
      <trkpt lat="28.248966666666668" lon="-16.475683333333333">
        <ele>1351</ele>
        <time>2024-03-30T12:37:25.000Z</time>
      </trkpt>
      <trkpt lat="28.248933333333333" lon="-16.475616666666667">
        <ele>1349</ele>
        <time>2024-03-30T12:37:26.000Z</time>
      </trkpt>
      <trkpt lat="28.248883333333332" lon="-16.47555">
        <ele>1347</ele>
        <time>2024-03-30T12:37:27.000Z</time>
      </trkpt>
      <trkpt lat="28.248833333333334" lon="-16.4755">
        <ele>1343</ele>
        <time>2024-03-30T12:37:28.000Z</time>
      </trkpt>
      <trkpt lat="28.24875" lon="-16.475433333333335">
        <ele>1340</ele>
        <time>2024-03-30T12:37:29.000Z</time>
      </trkpt>
      <trkpt lat="28.248683333333332" lon="-16.475383333333333">
        <ele>1339</ele>
        <time>2024-03-30T12:37:30.000Z</time>
      </trkpt>
      <trkpt lat="28.248633333333334" lon="-16.475366666666666">
        <ele>1337</ele>
        <time>2024-03-30T12:37:31.000Z</time>
      </trkpt>
      <trkpt lat="28.248566666666665" lon="-16.47535">
        <ele>1334</ele>
        <time>2024-03-30T12:37:32.000Z</time>
      </trkpt>
      <trkpt lat="28.2485" lon="-16.47533333333333">
        <ele>1330</ele>
        <time>2024-03-30T12:37:33.000Z</time>
      </trkpt>
      <trkpt lat="28.24845" lon="-16.475316666666668">
        <ele>1327</ele>
        <time>2024-03-30T12:37:34.000Z</time>
      </trkpt>
      <trkpt lat="28.248366666666666" lon="-16.4753">
        <ele>1324</ele>
        <time>2024-03-30T12:37:35.000Z</time>
      </trkpt>
      <trkpt lat="28.2483" lon="-16.4753">
        <ele>1321</ele>
        <time>2024-03-30T12:37:36.000Z</time>
      </trkpt>
      <trkpt lat="28.248216666666668" lon="-16.475316666666668">
        <ele>1320</ele>
        <time>2024-03-30T12:37:37.000Z</time>
      </trkpt>
      <trkpt lat="28.24813333333333" lon="-16.475366666666666">
        <ele>1319</ele>
        <time>2024-03-30T12:37:38.000Z</time>
      </trkpt>
      <trkpt lat="28.248066666666666" lon="-16.4754">
        <ele>1319</ele>
        <time>2024-03-30T12:37:39.000Z</time>
      </trkpt>
      <trkpt lat="28.248" lon="-16.47545">
        <ele>1319</ele>
        <time>2024-03-30T12:37:40.000Z</time>
      </trkpt>
      <trkpt lat="28.247933333333332" lon="-16.475516666666667">
        <ele>1318</ele>
        <time>2024-03-30T12:37:41.000Z</time>
      </trkpt>
      <trkpt lat="28.247866666666667" lon="-16.475566666666666">
        <ele>1316</ele>
        <time>2024-03-30T12:37:42.000Z</time>
      </trkpt>
      <trkpt lat="28.247783333333334" lon="-16.475616666666667">
        <ele>1314</ele>
        <time>2024-03-30T12:37:43.000Z</time>
      </trkpt>
      <trkpt lat="28.2477" lon="-16.475666666666665">
        <ele>1313</ele>
        <time>2024-03-30T12:37:44.000Z</time>
      </trkpt>
      <trkpt lat="28.247616666666666" lon="-16.475716666666667">
        <ele>1314</ele>
        <time>2024-03-30T12:37:45.000Z</time>
      </trkpt>
      <trkpt lat="28.24755" lon="-16.475766666666665">
        <ele>1314</ele>
        <time>2024-03-30T12:37:46.000Z</time>
      </trkpt>
      <trkpt lat="28.247483333333335" lon="-16.47585">
        <ele>1313</ele>
        <time>2024-03-30T12:37:47.000Z</time>
      </trkpt>
      <trkpt lat="28.247416666666666" lon="-16.475916666666667">
        <ele>1312</ele>
        <time>2024-03-30T12:37:48.000Z</time>
      </trkpt>
      <trkpt lat="28.24735" lon="-16.475983333333332">
        <ele>1310</ele>
        <time>2024-03-30T12:37:49.000Z</time>
      </trkpt>
      <trkpt lat="28.24726666666667" lon="-16.47605">
        <ele>1309</ele>
        <time>2024-03-30T12:37:50.000Z</time>
      </trkpt>
      <trkpt lat="28.247183333333332" lon="-16.476133333333333">
        <ele>1308</ele>
        <time>2024-03-30T12:37:51.000Z</time>
      </trkpt>
      <trkpt lat="28.2471" lon="-16.476183333333335">
        <ele>1307</ele>
        <time>2024-03-30T12:37:52.000Z</time>
      </trkpt>
      <trkpt lat="28.247016666666667" lon="-16.47625">
        <ele>1307</ele>
        <time>2024-03-30T12:37:53.000Z</time>
      </trkpt>
      <trkpt lat="28.246933333333335" lon="-16.476316666666666">
        <ele>1308</ele>
        <time>2024-03-30T12:37:54.000Z</time>
      </trkpt>
      <trkpt lat="28.246866666666666" lon="-16.476383333333334">
        <ele>1309</ele>
        <time>2024-03-30T12:37:55.000Z</time>
      </trkpt>
      <trkpt lat="28.246783333333333" lon="-16.476433333333333">
        <ele>1310</ele>
        <time>2024-03-30T12:37:56.000Z</time>
      </trkpt>
      <trkpt lat="28.2467" lon="-16.476483333333334">
        <ele>1311</ele>
        <time>2024-03-30T12:37:57.000Z</time>
      </trkpt>
      <trkpt lat="28.2466" lon="-16.476516666666665">
        <ele>1312</ele>
        <time>2024-03-30T12:37:58.000Z</time>
      </trkpt>
      <trkpt lat="28.2465" lon="-16.476566666666667">
        <ele>1314</ele>
        <time>2024-03-30T12:37:59.000Z</time>
      </trkpt>
      <trkpt lat="28.2464" lon="-16.476616666666665">
        <ele>1314</ele>
        <time>2024-03-30T12:38:00.000Z</time>
      </trkpt>
      <trkpt lat="28.246316666666665" lon="-16.47665">
        <ele>1314</ele>
        <time>2024-03-30T12:38:01.000Z</time>
      </trkpt>
      <trkpt lat="28.246216666666665" lon="-16.476666666666667">
        <ele>1314</ele>
        <time>2024-03-30T12:38:02.000Z</time>
      </trkpt>
      <trkpt lat="28.246116666666666" lon="-16.476683333333334">
        <ele>1312</ele>
        <time>2024-03-30T12:38:03.000Z</time>
      </trkpt>
      <trkpt lat="28.246033333333333" lon="-16.4767">
        <ele>1310</ele>
        <time>2024-03-30T12:38:04.000Z</time>
      </trkpt>
      <trkpt lat="28.245933333333333" lon="-16.476733333333332">
        <ele>1308</ele>
        <time>2024-03-30T12:38:05.000Z</time>
      </trkpt>
      <trkpt lat="28.24585" lon="-16.476766666666666">
        <ele>1307</ele>
        <time>2024-03-30T12:38:06.000Z</time>
      </trkpt>
      <trkpt lat="28.24576666666667" lon="-16.47683333333333">
        <ele>1307</ele>
        <time>2024-03-30T12:38:07.000Z</time>
      </trkpt>
      <trkpt lat="28.2457" lon="-16.4769">
        <ele>1306</ele>
        <time>2024-03-30T12:38:08.000Z</time>
      </trkpt>
      <trkpt lat="28.245633333333334" lon="-16.476966666666666">
        <ele>1306</ele>
        <time>2024-03-30T12:38:09.000Z</time>
      </trkpt>
      <trkpt lat="28.245583333333332" lon="-16.477033333333335">
        <ele>1305</ele>
        <time>2024-03-30T12:38:10.000Z</time>
      </trkpt>
      <trkpt lat="28.245516666666667" lon="-16.477116666666667">
        <ele>1302</ele>
        <time>2024-03-30T12:38:11.000Z</time>
      </trkpt>
      <trkpt lat="28.245466666666665" lon="-16.477216666666667">
        <ele>1301</ele>
        <time>2024-03-30T12:38:12.000Z</time>
      </trkpt>
      <trkpt lat="28.2454" lon="-16.477316666666667">
        <ele>1301</ele>
        <time>2024-03-30T12:38:13.000Z</time>
      </trkpt>
      <trkpt lat="28.245333333333335" lon="-16.477416666666667">
        <ele>1300</ele>
        <time>2024-03-30T12:38:14.000Z</time>
      </trkpt>
      <trkpt lat="28.245266666666666" lon="-16.4775">
        <ele>1298</ele>
        <time>2024-03-30T12:38:15.000Z</time>
      </trkpt>
      <trkpt lat="28.245183333333333" lon="-16.477566666666668">
        <ele>1296</ele>
        <time>2024-03-30T12:38:16.000Z</time>
      </trkpt>
      <trkpt lat="28.2451" lon="-16.477666666666668">
        <ele>1293</ele>
        <time>2024-03-30T12:38:17.000Z</time>
      </trkpt>
      <trkpt lat="28.245016666666668" lon="-16.47775">
        <ele>1291</ele>
        <time>2024-03-30T12:38:18.000Z</time>
      </trkpt>
      <trkpt lat="28.24491666666667" lon="-16.477816666666666">
        <ele>1290</ele>
        <time>2024-03-30T12:38:19.000Z</time>
      </trkpt>
      <trkpt lat="28.244833333333332" lon="-16.477883333333335">
        <ele>1291</ele>
        <time>2024-03-30T12:38:20.000Z</time>
      </trkpt>
      <trkpt lat="28.24475" lon="-16.47795">
        <ele>1291</ele>
        <time>2024-03-30T12:38:21.000Z</time>
      </trkpt>
      <trkpt lat="28.244683333333334" lon="-16.477983333333334">
        <ele>1291</ele>
        <time>2024-03-30T12:38:22.000Z</time>
      </trkpt>
      <trkpt lat="28.2446" lon="-16.478016666666665">
        <ele>1289</ele>
        <time>2024-03-30T12:38:23.000Z</time>
      </trkpt>
      <trkpt lat="28.2445" lon="-16.47805">
        <ele>1286</ele>
        <time>2024-03-30T12:38:24.000Z</time>
      </trkpt>
      <trkpt lat="28.24438333333333" lon="-16.478066666666667">
        <ele>1285</ele>
        <time>2024-03-30T12:38:25.000Z</time>
      </trkpt>
      <trkpt lat="28.244283333333332" lon="-16.478083333333334">
        <ele>1286</ele>
        <time>2024-03-30T12:38:26.000Z</time>
      </trkpt>
      <trkpt lat="28.2442" lon="-16.478083333333334">
        <ele>1287</ele>
        <time>2024-03-30T12:38:27.000Z</time>
      </trkpt>
      <trkpt lat="28.244133333333334" lon="-16.478066666666667">
        <ele>1287</ele>
        <time>2024-03-30T12:38:28.000Z</time>
      </trkpt>
      <trkpt lat="28.244083333333332" lon="-16.478066666666667">
        <ele>1285</ele>
        <time>2024-03-30T12:38:29.000Z</time>
      </trkpt>
      <trkpt lat="28.244" lon="-16.478066666666667">
        <ele>1282</ele>
        <time>2024-03-30T12:38:30.000Z</time>
      </trkpt>
      <trkpt lat="28.243916666666667" lon="-16.4781">
        <ele>1279</ele>
        <time>2024-03-30T12:38:31.000Z</time>
      </trkpt>
      <trkpt lat="28.2438" lon="-16.478133333333332">
        <ele>1278</ele>
        <time>2024-03-30T12:38:32.000Z</time>
      </trkpt>
      <trkpt lat="28.2437" lon="-16.478166666666667">
        <ele>1279</ele>
        <time>2024-03-30T12:38:33.000Z</time>
      </trkpt>
      <trkpt lat="28.243616666666668" lon="-16.478183333333334">
        <ele>1281</ele>
        <time>2024-03-30T12:38:34.000Z</time>
      </trkpt>
      <trkpt lat="28.24355" lon="-16.47821666666667">
        <ele>1282</ele>
        <time>2024-03-30T12:38:35.000Z</time>
      </trkpt>
      <trkpt lat="28.243466666666666" lon="-16.478266666666666">
        <ele>1281</ele>
        <time>2024-03-30T12:38:36.000Z</time>
      </trkpt>
      <trkpt lat="28.243383333333334" lon="-16.478316666666668">
        <ele>1279</ele>
        <time>2024-03-30T12:38:37.000Z</time>
      </trkpt>
      <trkpt lat="28.243283333333334" lon="-16.478383333333333">
        <ele>1277</ele>
        <time>2024-03-30T12:38:38.000Z</time>
      </trkpt>
      <trkpt lat="28.243183333333334" lon="-16.47845">
        <ele>1276</ele>
        <time>2024-03-30T12:38:39.000Z</time>
      </trkpt>
      <trkpt lat="28.243083333333335" lon="-16.478533333333335">
        <ele>1278</ele>
        <time>2024-03-30T12:38:40.000Z</time>
      </trkpt>
      <trkpt lat="28.242983333333335" lon="-16.4786">
        <ele>1280</ele>
        <time>2024-03-30T12:38:41.000Z</time>
      </trkpt>
      <trkpt lat="28.2429" lon="-16.478666666666665">
        <ele>1282</ele>
        <time>2024-03-30T12:38:42.000Z</time>
      </trkpt>
      <trkpt lat="28.242833333333333" lon="-16.478716666666667">
        <ele>1283</ele>
        <time>2024-03-30T12:38:43.000Z</time>
      </trkpt>
      <trkpt lat="28.24275" lon="-16.47875">
        <ele>1284</ele>
        <time>2024-03-30T12:38:44.000Z</time>
      </trkpt>
      <trkpt lat="28.24266666666667" lon="-16.478766666666665">
        <ele>1283</ele>
        <time>2024-03-30T12:38:45.000Z</time>
      </trkpt>
      <trkpt lat="28.242566666666665" lon="-16.478783333333332">
        <ele>1282</ele>
        <time>2024-03-30T12:38:46.000Z</time>
      </trkpt>
      <trkpt lat="28.242466666666665" lon="-16.4788">
        <ele>1283</ele>
        <time>2024-03-30T12:38:47.000Z</time>
      </trkpt>
      <trkpt lat="28.242366666666666" lon="-16.478816666666667">
        <ele>1285</ele>
        <time>2024-03-30T12:38:48.000Z</time>
      </trkpt>
      <trkpt lat="28.242283333333333" lon="-16.47885">
        <ele>1286</ele>
        <time>2024-03-30T12:38:49.000Z</time>
      </trkpt>
      <trkpt lat="28.242216666666668" lon="-16.4789">
        <ele>1287</ele>
        <time>2024-03-30T12:38:50.000Z</time>
      </trkpt>
      <trkpt lat="28.24215" lon="-16.47896666666667">
        <ele>1287</ele>
        <time>2024-03-30T12:38:51.000Z</time>
      </trkpt>
      <trkpt lat="28.242083333333333" lon="-16.479">
        <ele>1288</ele>
        <time>2024-03-30T12:38:52.000Z</time>
      </trkpt>
      <trkpt lat="28.242" lon="-16.479033333333334">
        <ele>1288</ele>
        <time>2024-03-30T12:38:53.000Z</time>
      </trkpt>
      <trkpt lat="28.24191666666667" lon="-16.47905">
        <ele>1289</ele>
        <time>2024-03-30T12:38:54.000Z</time>
      </trkpt>
      <trkpt lat="28.241833333333332" lon="-16.47905">
        <ele>1291</ele>
        <time>2024-03-30T12:38:55.000Z</time>
      </trkpt>
      <trkpt lat="28.241766666666667" lon="-16.479033333333334">
        <ele>1291</ele>
        <time>2024-03-30T12:38:56.000Z</time>
      </trkpt>
      <trkpt lat="28.2417" lon="-16.479016666666666">
        <ele>1292</ele>
        <time>2024-03-30T12:38:57.000Z</time>
      </trkpt>
      <trkpt lat="28.241633333333333" lon="-16.478983333333332">
        <ele>1291</ele>
        <time>2024-03-30T12:38:58.000Z</time>
      </trkpt>
      <trkpt lat="28.24155" lon="-16.47896666666667">
        <ele>1291</ele>
        <time>2024-03-30T12:38:59.000Z</time>
      </trkpt>
      <trkpt lat="28.241466666666668" lon="-16.47896666666667">
        <ele>1291</ele>
        <time>2024-03-30T12:39:00.000Z</time>
      </trkpt>
      <trkpt lat="28.241383333333335" lon="-16.479">
        <ele>1290</ele>
        <time>2024-03-30T12:39:01.000Z</time>
      </trkpt>
      <trkpt lat="28.241316666666666" lon="-16.479033333333334">
        <ele>1290</ele>
        <time>2024-03-30T12:39:02.000Z</time>
      </trkpt>
      <trkpt lat="28.241233333333334" lon="-16.479066666666668">
        <ele>1291</ele>
        <time>2024-03-30T12:39:03.000Z</time>
      </trkpt>
      <trkpt lat="28.241133333333334" lon="-16.4791">
        <ele>1290</ele>
        <time>2024-03-30T12:39:04.000Z</time>
      </trkpt>
      <trkpt lat="28.241033333333334" lon="-16.479133333333333">
        <ele>1288</ele>
        <time>2024-03-30T12:39:05.000Z</time>
      </trkpt>
      <trkpt lat="28.24095" lon="-16.4792">
        <ele>1287</ele>
        <time>2024-03-30T12:39:06.000Z</time>
      </trkpt>
      <trkpt lat="28.240883333333333" lon="-16.479283333333335">
        <ele>1286</ele>
        <time>2024-03-30T12:39:07.000Z</time>
      </trkpt>
      <trkpt lat="28.2408" lon="-16.479366666666667">
        <ele>1285</ele>
        <time>2024-03-30T12:39:08.000Z</time>
      </trkpt>
      <trkpt lat="28.240716666666668" lon="-16.4794">
        <ele>1281</ele>
        <time>2024-03-30T12:39:09.000Z</time>
      </trkpt>
      <trkpt lat="28.240616666666668" lon="-16.479416666666665">
        <ele>1278</ele>
        <time>2024-03-30T12:39:10.000Z</time>
      </trkpt>
      <trkpt lat="28.2405" lon="-16.479433333333333">
        <ele>1275</ele>
        <time>2024-03-30T12:39:11.000Z</time>
      </trkpt>
      <trkpt lat="28.2404" lon="-16.479483333333334">
        <ele>1273</ele>
        <time>2024-03-30T12:39:12.000Z</time>
      </trkpt>
      <trkpt lat="28.2403" lon="-16.47955">
        <ele>1273</ele>
        <time>2024-03-30T12:39:13.000Z</time>
      </trkpt>
      <trkpt lat="28.240216666666665" lon="-16.4796">
        <ele>1271</ele>
        <time>2024-03-30T12:39:14.000Z</time>
      </trkpt>
      <trkpt lat="28.2401" lon="-16.479633333333332">
        <ele>1268</ele>
        <time>2024-03-30T12:39:15.000Z</time>
      </trkpt>
      <trkpt lat="28.239983333333335" lon="-16.47965">
        <ele>1265</ele>
        <time>2024-03-30T12:39:16.000Z</time>
      </trkpt>
      <trkpt lat="28.239866666666668" lon="-16.479683333333334">
        <ele>1263</ele>
        <time>2024-03-30T12:39:17.000Z</time>
      </trkpt>
      <trkpt lat="28.23975" lon="-16.47975">
        <ele>1263</ele>
        <time>2024-03-30T12:39:18.000Z</time>
      </trkpt>
      <trkpt lat="28.23965" lon="-16.4798">
        <ele>1262</ele>
        <time>2024-03-30T12:39:19.000Z</time>
      </trkpt>
      <trkpt lat="28.23955" lon="-16.47985">
        <ele>1261</ele>
        <time>2024-03-30T12:39:20.000Z</time>
      </trkpt>
      <trkpt lat="28.239433333333334" lon="-16.479866666666666">
        <ele>1259</ele>
        <time>2024-03-30T12:39:21.000Z</time>
      </trkpt>
      <trkpt lat="28.239316666666667" lon="-16.479883333333333">
        <ele>1255</ele>
        <time>2024-03-30T12:39:22.000Z</time>
      </trkpt>
      <trkpt lat="28.239183333333333" lon="-16.479916666666668">
        <ele>1251</ele>
        <time>2024-03-30T12:39:23.000Z</time>
      </trkpt>
      <trkpt lat="28.239066666666666" lon="-16.479933333333335">
        <ele>1250</ele>
        <time>2024-03-30T12:39:24.000Z</time>
      </trkpt>
      <trkpt lat="28.238933333333332" lon="-16.479966666666666">
        <ele>1249</ele>
        <time>2024-03-30T12:39:25.000Z</time>
      </trkpt>
      <trkpt lat="28.238816666666665" lon="-16.479983333333333">
        <ele>1249</ele>
        <time>2024-03-30T12:39:26.000Z</time>
      </trkpt>
      <trkpt lat="28.2387" lon="-16.480016666666668">
        <ele>1248</ele>
        <time>2024-03-30T12:39:27.000Z</time>
      </trkpt>
      <trkpt lat="28.238583333333334" lon="-16.48005">
        <ele>1245</ele>
        <time>2024-03-30T12:39:28.000Z</time>
      </trkpt>
      <trkpt lat="28.238466666666667" lon="-16.480083333333333">
        <ele>1242</ele>
        <time>2024-03-30T12:39:29.000Z</time>
      </trkpt>
      <trkpt lat="28.238333333333333" lon="-16.4801">
        <ele>1240</ele>
        <time>2024-03-30T12:39:30.000Z</time>
      </trkpt>
      <trkpt lat="28.238216666666666" lon="-16.480116666666667">
        <ele>1240</ele>
        <time>2024-03-30T12:39:31.000Z</time>
      </trkpt>
      <trkpt lat="28.2381" lon="-16.480116666666667">
        <ele>1239</ele>
        <time>2024-03-30T12:39:32.000Z</time>
      </trkpt>
      <trkpt lat="28.237983333333332" lon="-16.48015">
        <ele>1238</ele>
        <time>2024-03-30T12:39:33.000Z</time>
      </trkpt>
      <trkpt lat="28.237866666666665" lon="-16.480183333333333">
        <ele>1237</ele>
        <time>2024-03-30T12:39:34.000Z</time>
      </trkpt>
      <trkpt lat="28.23775" lon="-16.480233333333334">
        <ele>1235</ele>
        <time>2024-03-30T12:39:35.000Z</time>
      </trkpt>
      <trkpt lat="28.237616666666668" lon="-16.480266666666665">
        <ele>1235</ele>
        <time>2024-03-30T12:39:36.000Z</time>
      </trkpt>
      <trkpt lat="28.2375" lon="-16.4803">
        <ele>1236</ele>
        <time>2024-03-30T12:39:37.000Z</time>
      </trkpt>
      <trkpt lat="28.2374" lon="-16.48035">
        <ele>1238</ele>
        <time>2024-03-30T12:39:38.000Z</time>
      </trkpt>
      <trkpt lat="28.2373" lon="-16.480383333333332">
        <ele>1238</ele>
        <time>2024-03-30T12:39:39.000Z</time>
      </trkpt>
      <trkpt lat="28.237216666666665" lon="-16.480416666666667">
        <ele>1237</ele>
        <time>2024-03-30T12:39:40.000Z</time>
      </trkpt>
      <trkpt lat="28.2371" lon="-16.48045">
        <ele>1235</ele>
        <time>2024-03-30T12:39:41.000Z</time>
      </trkpt>
      <trkpt lat="28.236983333333335" lon="-16.48046666666667">
        <ele>1234</ele>
        <time>2024-03-30T12:39:42.000Z</time>
      </trkpt>
      <trkpt lat="28.23685" lon="-16.480483333333332">
        <ele>1234</ele>
        <time>2024-03-30T12:39:43.000Z</time>
      </trkpt>
      <trkpt lat="28.236716666666666" lon="-16.4805">
        <ele>1235</ele>
        <time>2024-03-30T12:39:44.000Z</time>
      </trkpt>
      <trkpt lat="28.236616666666666" lon="-16.480483333333332">
        <ele>1237</ele>
        <time>2024-03-30T12:39:45.000Z</time>
      </trkpt>
      <trkpt lat="28.236516666666667" lon="-16.480483333333332">
        <ele>1238</ele>
        <time>2024-03-30T12:39:46.000Z</time>
      </trkpt>
      <trkpt lat="28.236416666666667" lon="-16.4805">
        <ele>1237</ele>
        <time>2024-03-30T12:39:47.000Z</time>
      </trkpt>
      <trkpt lat="28.236316666666667" lon="-16.480533333333334">
        <ele>1235</ele>
        <time>2024-03-30T12:39:48.000Z</time>
      </trkpt>
      <trkpt lat="28.236216666666667" lon="-16.480566666666668">
        <ele>1233</ele>
        <time>2024-03-30T12:39:49.000Z</time>
      </trkpt>
      <trkpt lat="28.2361" lon="-16.4806">
        <ele>1232</ele>
        <time>2024-03-30T12:39:50.000Z</time>
      </trkpt>
      <trkpt lat="28.235983333333333" lon="-16.480633333333333">
        <ele>1233</ele>
        <time>2024-03-30T12:39:51.000Z</time>
      </trkpt>
      <trkpt lat="28.235883333333334" lon="-16.480666666666668">
        <ele>1234</ele>
        <time>2024-03-30T12:39:52.000Z</time>
      </trkpt>
      <trkpt lat="28.2358" lon="-16.4807">
        <ele>1234</ele>
        <time>2024-03-30T12:39:53.000Z</time>
      </trkpt>
      <trkpt lat="28.235716666666665" lon="-16.480733333333333">
        <ele>1232</ele>
        <time>2024-03-30T12:39:54.000Z</time>
      </trkpt>
      <trkpt lat="28.235633333333332" lon="-16.480766666666668">
        <ele>1228</ele>
        <time>2024-03-30T12:39:55.000Z</time>
      </trkpt>
      <trkpt lat="28.235516666666665" lon="-16.4808">
        <ele>1224</ele>
        <time>2024-03-30T12:39:56.000Z</time>
      </trkpt>
      <trkpt lat="28.2354" lon="-16.480833333333333">
        <ele>1221</ele>
        <time>2024-03-30T12:39:57.000Z</time>
      </trkpt>
      <trkpt lat="28.2353" lon="-16.480866666666667">
        <ele>1221</ele>
        <time>2024-03-30T12:39:58.000Z</time>
      </trkpt>
      <trkpt lat="28.23518333333333" lon="-16.480883333333335">
        <ele>1221</ele>
        <time>2024-03-30T12:39:59.000Z</time>
      </trkpt>
      <trkpt lat="28.2351" lon="-16.4809">
        <ele>1220</ele>
        <time>2024-03-30T12:40:00.000Z</time>
      </trkpt>
      <trkpt lat="28.235" lon="-16.480916666666666">
        <ele>1218</ele>
        <time>2024-03-30T12:40:01.000Z</time>
      </trkpt>
      <trkpt lat="28.2349" lon="-16.480933333333333">
        <ele>1217</ele>
        <time>2024-03-30T12:40:02.000Z</time>
      </trkpt>
      <trkpt lat="28.234783333333333" lon="-16.480966666666667">
        <ele>1217</ele>
        <time>2024-03-30T12:40:03.000Z</time>
      </trkpt>
      <trkpt lat="28.234666666666666" lon="-16.481016666666665">
        <ele>1220</ele>
        <time>2024-03-30T12:40:04.000Z</time>
      </trkpt>
      <trkpt lat="28.23455" lon="-16.481066666666667">
        <ele>1225</ele>
        <time>2024-03-30T12:40:05.000Z</time>
      </trkpt>
      <trkpt lat="28.234466666666666" lon="-16.481116666666665">
        <ele>1229</ele>
        <time>2024-03-30T12:40:06.000Z</time>
      </trkpt>
      <trkpt lat="28.234383333333334" lon="-16.48115">
        <ele>1232</ele>
        <time>2024-03-30T12:40:07.000Z</time>
      </trkpt>
      <trkpt lat="28.2343" lon="-16.481183333333334">
        <ele>1234</ele>
        <time>2024-03-30T12:40:08.000Z</time>
      </trkpt>
      <trkpt lat="28.234216666666665" lon="-16.481233333333332">
        <ele>1234</ele>
        <time>2024-03-30T12:40:09.000Z</time>
      </trkpt>
      <trkpt lat="28.234116666666665" lon="-16.481283333333334">
        <ele>1234</ele>
        <time>2024-03-30T12:40:10.000Z</time>
      </trkpt>
      <trkpt lat="28.234016666666665" lon="-16.481333333333332">
        <ele>1235</ele>
        <time>2024-03-30T12:40:11.000Z</time>
      </trkpt>
      <trkpt lat="28.2339" lon="-16.481383333333333">
        <ele>1237</ele>
        <time>2024-03-30T12:40:12.000Z</time>
      </trkpt>
      <trkpt lat="28.233783333333335" lon="-16.481416666666668">
        <ele>1239</ele>
        <time>2024-03-30T12:40:13.000Z</time>
      </trkpt>
      <trkpt lat="28.233666666666668" lon="-16.48143333333333">
        <ele>1241</ele>
        <time>2024-03-30T12:40:14.000Z</time>
      </trkpt>
      <trkpt lat="28.233583333333332" lon="-16.48145">
        <ele>1242</ele>
        <time>2024-03-30T12:40:15.000Z</time>
      </trkpt>
      <trkpt lat="28.2335" lon="-16.48145">
        <ele>1241</ele>
        <time>2024-03-30T12:40:16.000Z</time>
      </trkpt>
      <trkpt lat="28.2334" lon="-16.48145">
        <ele>1239</ele>
        <time>2024-03-30T12:40:17.000Z</time>
      </trkpt>
      <trkpt lat="28.233283333333333" lon="-16.481466666666666">
        <ele>1237</ele>
        <time>2024-03-30T12:40:18.000Z</time>
      </trkpt>
      <trkpt lat="28.23315" lon="-16.4815">
        <ele>1237</ele>
        <time>2024-03-30T12:40:19.000Z</time>
      </trkpt>
      <trkpt lat="28.233033333333335" lon="-16.481516666666668">
        <ele>1238</ele>
        <time>2024-03-30T12:40:20.000Z</time>
      </trkpt>
      <trkpt lat="28.232916666666668" lon="-16.48155">
        <ele>1239</ele>
        <time>2024-03-30T12:40:21.000Z</time>
      </trkpt>
      <trkpt lat="28.23281666666667" lon="-16.481583333333333">
        <ele>1241</ele>
        <time>2024-03-30T12:40:22.000Z</time>
      </trkpt>
      <trkpt lat="28.232716666666665" lon="-16.4816">
        <ele>1242</ele>
        <time>2024-03-30T12:40:23.000Z</time>
      </trkpt>
      <trkpt lat="28.232616666666665" lon="-16.481633333333335">
        <ele>1243</ele>
        <time>2024-03-30T12:40:24.000Z</time>
      </trkpt>
      <trkpt lat="28.232516666666665" lon="-16.481633333333335">
        <ele>1242</ele>
        <time>2024-03-30T12:40:25.000Z</time>
      </trkpt>
      <trkpt lat="28.2324" lon="-16.481633333333335">
        <ele>1241</ele>
        <time>2024-03-30T12:40:26.000Z</time>
      </trkpt>
      <trkpt lat="28.2323" lon="-16.48165">
        <ele>1241</ele>
        <time>2024-03-30T12:40:27.000Z</time>
      </trkpt>
      <trkpt lat="28.2322" lon="-16.481666666666666">
        <ele>1242</ele>
        <time>2024-03-30T12:40:28.000Z</time>
      </trkpt>
      <trkpt lat="28.232116666666666" lon="-16.481666666666666">
        <ele>1242</ele>
        <time>2024-03-30T12:40:29.000Z</time>
      </trkpt>
      <trkpt lat="28.232016666666667" lon="-16.481683333333333">
        <ele>1243</ele>
        <time>2024-03-30T12:40:30.000Z</time>
      </trkpt>
      <trkpt lat="28.231933333333334" lon="-16.481683333333333">
        <ele>1244</ele>
        <time>2024-03-30T12:40:31.000Z</time>
      </trkpt>
      <trkpt lat="28.231866666666665" lon="-16.481683333333333">
        <ele>1246</ele>
        <time>2024-03-30T12:40:32.000Z</time>
      </trkpt>
      <trkpt lat="28.231816666666667" lon="-16.4817">
        <ele>1246</ele>
        <time>2024-03-30T12:40:33.000Z</time>
      </trkpt>
      <trkpt lat="28.23175" lon="-16.481716666666667">
        <ele>1246</ele>
        <time>2024-03-30T12:40:34.000Z</time>
      </trkpt>
      <trkpt lat="28.231666666666666" lon="-16.481733333333334">
        <ele>1246</ele>
        <time>2024-03-30T12:40:35.000Z</time>
      </trkpt>
      <trkpt lat="28.231583333333333" lon="-16.481766666666665">
        <ele>1246</ele>
        <time>2024-03-30T12:40:36.000Z</time>
      </trkpt>
      <trkpt lat="28.231483333333333" lon="-16.481783333333333">
        <ele>1246</ele>
        <time>2024-03-30T12:40:37.000Z</time>
      </trkpt>
      <trkpt lat="28.231383333333333" lon="-16.481783333333333">
        <ele>1245</ele>
        <time>2024-03-30T12:40:38.000Z</time>
      </trkpt>
      <trkpt lat="28.231283333333334" lon="-16.48175">
        <ele>1245</ele>
        <time>2024-03-30T12:40:39.000Z</time>
      </trkpt>
      <trkpt lat="28.231166666666667" lon="-16.481733333333334">
        <ele>1245</ele>
        <time>2024-03-30T12:40:40.000Z</time>
      </trkpt>
      <trkpt lat="28.231066666666667" lon="-16.481716666666667">
        <ele>1246</ele>
        <time>2024-03-30T12:40:41.000Z</time>
      </trkpt>
      <trkpt lat="28.230966666666667" lon="-16.481716666666667">
        <ele>1246</ele>
        <time>2024-03-30T12:40:42.000Z</time>
      </trkpt>
      <trkpt lat="28.230883333333335" lon="-16.48175">
        <ele>1246</ele>
        <time>2024-03-30T12:40:43.000Z</time>
      </trkpt>
      <trkpt lat="28.230816666666666" lon="-16.481816666666667">
        <ele>1247</ele>
        <time>2024-03-30T12:40:44.000Z</time>
      </trkpt>
      <trkpt lat="28.230733333333333" lon="-16.481883333333332">
        <ele>1247</ele>
        <time>2024-03-30T12:40:45.000Z</time>
      </trkpt>
      <trkpt lat="28.23065" lon="-16.481933333333334">
        <ele>1247</ele>
        <time>2024-03-30T12:40:46.000Z</time>
      </trkpt>
      <trkpt lat="28.23055" lon="-16.482">
        <ele>1248</ele>
        <time>2024-03-30T12:40:47.000Z</time>
      </trkpt>
      <trkpt lat="28.230433333333334" lon="-16.482083333333332">
        <ele>1247</ele>
        <time>2024-03-30T12:40:48.000Z</time>
      </trkpt>
      <trkpt lat="28.230333333333334" lon="-16.482166666666668">
        <ele>1249</ele>
        <time>2024-03-30T12:40:49.000Z</time>
      </trkpt>
      <trkpt lat="28.230266666666665" lon="-16.482266666666668">
        <ele>1253</ele>
        <time>2024-03-30T12:40:50.000Z</time>
      </trkpt>
      <trkpt lat="28.230216666666667" lon="-16.482383333333335">
        <ele>1256</ele>
        <time>2024-03-30T12:40:51.000Z</time>
      </trkpt>
      <trkpt lat="28.2302" lon="-16.4825">
        <ele>1257</ele>
        <time>2024-03-30T12:40:52.000Z</time>
      </trkpt>
      <trkpt lat="28.230233333333334" lon="-16.482616666666665">
        <ele>1256</ele>
        <time>2024-03-30T12:40:53.000Z</time>
      </trkpt>
      <trkpt lat="28.2303" lon="-16.4827">
        <ele>1255</ele>
        <time>2024-03-30T12:40:54.000Z</time>
      </trkpt>
      <trkpt lat="28.230416666666667" lon="-16.482733333333332">
        <ele>1254</ele>
        <time>2024-03-30T12:40:55.000Z</time>
      </trkpt>
      <trkpt lat="28.230516666666666" lon="-16.48275">
        <ele>1254</ele>
        <time>2024-03-30T12:40:56.000Z</time>
      </trkpt>
      <trkpt lat="28.230616666666666" lon="-16.48271666666667">
        <ele>1255</ele>
        <time>2024-03-30T12:40:57.000Z</time>
      </trkpt>
      <trkpt lat="28.23065" lon="-16.482633333333332">
        <ele>1255</ele>
        <time>2024-03-30T12:40:58.000Z</time>
      </trkpt>
      <trkpt lat="28.230666666666668" lon="-16.48255">
        <ele>1256</ele>
        <time>2024-03-30T12:40:59.000Z</time>
      </trkpt>
      <trkpt lat="28.23065" lon="-16.48245">
        <ele>1257</ele>
        <time>2024-03-30T12:41:00.000Z</time>
      </trkpt>
      <trkpt lat="28.230566666666668" lon="-16.482366666666667">
        <ele>1257</ele>
        <time>2024-03-30T12:41:01.000Z</time>
      </trkpt>
      <trkpt lat="28.230433333333334" lon="-16.48235">
        <ele>1257</ele>
        <time>2024-03-30T12:41:02.000Z</time>
      </trkpt>
      <trkpt lat="28.2303" lon="-16.482416666666666">
        <ele>1256</ele>
        <time>2024-03-30T12:41:03.000Z</time>
      </trkpt>
      <trkpt lat="28.230216666666667" lon="-16.482533333333333">
        <ele>1258</ele>
        <time>2024-03-30T12:41:04.000Z</time>
      </trkpt>
      <trkpt lat="28.230166666666666" lon="-16.48265">
        <ele>1262</ele>
        <time>2024-03-30T12:41:05.000Z</time>
      </trkpt>
      <trkpt lat="28.23015" lon="-16.482766666666667">
        <ele>1264</ele>
        <time>2024-03-30T12:41:06.000Z</time>
      </trkpt>
      <trkpt lat="28.230166666666666" lon="-16.482883333333334">
        <ele>1263</ele>
        <time>2024-03-30T12:41:07.000Z</time>
      </trkpt>
      <trkpt lat="28.230216666666667" lon="-16.482983333333333">
        <ele>1262</ele>
        <time>2024-03-30T12:41:08.000Z</time>
      </trkpt>
      <trkpt lat="28.2303" lon="-16.483083333333333">
        <ele>1262</ele>
        <time>2024-03-30T12:41:09.000Z</time>
      </trkpt>
      <trkpt lat="28.230383333333332" lon="-16.483133333333335">
        <ele>1261</ele>
        <time>2024-03-30T12:41:10.000Z</time>
      </trkpt>
      <trkpt lat="28.230483333333332" lon="-16.48315">
        <ele>1262</ele>
        <time>2024-03-30T12:41:11.000Z</time>
      </trkpt>
      <trkpt lat="28.230566666666668" lon="-16.483133333333335">
        <ele>1263</ele>
        <time>2024-03-30T12:41:12.000Z</time>
      </trkpt>
      <trkpt lat="28.230616666666666" lon="-16.483083333333333">
        <ele>1264</ele>
        <time>2024-03-30T12:41:13.000Z</time>
      </trkpt>
      <trkpt lat="28.230666666666668" lon="-16.483016666666668">
        <ele>1266</ele>
        <time>2024-03-30T12:41:14.000Z</time>
      </trkpt>
      <trkpt lat="28.23068333333333" lon="-16.48295">
        <ele>1268</ele>
        <time>2024-03-30T12:41:15.000Z</time>
      </trkpt>
      <trkpt lat="28.2307" lon="-16.4829">
        <ele>1270</ele>
        <time>2024-03-30T12:41:16.000Z</time>
      </trkpt>
      <trkpt lat="28.230716666666666" lon="-16.48285">
        <ele>1270</ele>
        <time>2024-03-30T12:41:17.000Z</time>
      </trkpt>
      <trkpt lat="28.2307" lon="-16.4828">
        <ele>1270</ele>
        <time>2024-03-30T12:41:18.000Z</time>
      </trkpt>
      <trkpt lat="28.23068333333333" lon="-16.48271666666667">
        <ele>1268</ele>
        <time>2024-03-30T12:41:19.000Z</time>
      </trkpt>
      <trkpt lat="28.230616666666666" lon="-16.48265">
        <ele>1266</ele>
        <time>2024-03-30T12:41:20.000Z</time>
      </trkpt>
      <trkpt lat="28.230516666666666" lon="-16.482583333333334">
        <ele>1264</ele>
        <time>2024-03-30T12:41:21.000Z</time>
      </trkpt>
      <trkpt lat="28.230416666666667" lon="-16.48255">
        <ele>1264</ele>
        <time>2024-03-30T12:41:22.000Z</time>
      </trkpt>
      <trkpt lat="28.2303" lon="-16.482533333333333">
        <ele>1265</ele>
        <time>2024-03-30T12:41:23.000Z</time>
      </trkpt>
      <trkpt lat="28.2302" lon="-16.48255">
        <ele>1266</ele>
        <time>2024-03-30T12:41:24.000Z</time>
      </trkpt>
      <trkpt lat="28.230116666666667" lon="-16.482583333333334">
        <ele>1266</ele>
        <time>2024-03-30T12:41:25.000Z</time>
      </trkpt>
      <trkpt lat="28.23005" lon="-16.482633333333332">
        <ele>1265</ele>
        <time>2024-03-30T12:41:26.000Z</time>
      </trkpt>
      <trkpt lat="28.229966666666666" lon="-16.482683333333334">
        <ele>1263</ele>
        <time>2024-03-30T12:41:27.000Z</time>
      </trkpt>
      <trkpt lat="28.229883333333333" lon="-16.48275">
        <ele>1261</ele>
        <time>2024-03-30T12:41:28.000Z</time>
      </trkpt>
      <trkpt lat="28.2298" lon="-16.48281666666667">
        <ele>1260</ele>
        <time>2024-03-30T12:41:29.000Z</time>
      </trkpt>
      <trkpt lat="28.22971666666667" lon="-16.4829">
        <ele>1259</ele>
        <time>2024-03-30T12:41:30.000Z</time>
      </trkpt>
      <trkpt lat="28.229616666666665" lon="-16.482983333333333">
        <ele>1259</ele>
        <time>2024-03-30T12:41:31.000Z</time>
      </trkpt>
      <trkpt lat="28.229533333333332" lon="-16.48305">
        <ele>1259</ele>
        <time>2024-03-30T12:41:32.000Z</time>
      </trkpt>
      <trkpt lat="28.22945" lon="-16.4831">
        <ele>1257</ele>
        <time>2024-03-30T12:41:33.000Z</time>
      </trkpt>
      <trkpt lat="28.229366666666667" lon="-16.483183333333333">
        <ele>1254</ele>
        <time>2024-03-30T12:41:34.000Z</time>
      </trkpt>
      <trkpt lat="28.229283333333335" lon="-16.483266666666665">
        <ele>1251</ele>
        <time>2024-03-30T12:41:35.000Z</time>
      </trkpt>
      <trkpt lat="28.2292" lon="-16.483366666666665">
        <ele>1247</ele>
        <time>2024-03-30T12:41:36.000Z</time>
      </trkpt>
      <trkpt lat="28.229116666666666" lon="-16.483466666666665">
        <ele>1245</ele>
        <time>2024-03-30T12:41:37.000Z</time>
      </trkpt>
      <trkpt lat="28.229033333333334" lon="-16.48356666666667">
        <ele>1244</ele>
        <time>2024-03-30T12:41:38.000Z</time>
      </trkpt>
      <trkpt lat="28.22896666666667" lon="-16.483666666666668">
        <ele>1242</ele>
        <time>2024-03-30T12:41:39.000Z</time>
      </trkpt>
      <trkpt lat="28.2289" lon="-16.483766666666668">
        <ele>1240</ele>
        <time>2024-03-30T12:41:40.000Z</time>
      </trkpt>
      <trkpt lat="28.228833333333334" lon="-16.483883333333335">
        <ele>1238</ele>
        <time>2024-03-30T12:41:41.000Z</time>
      </trkpt>
      <trkpt lat="28.22875" lon="-16.483966666666667">
        <ele>1238</ele>
        <time>2024-03-30T12:41:42.000Z</time>
      </trkpt>
      <trkpt lat="28.228666666666665" lon="-16.48405">
        <ele>1238</ele>
        <time>2024-03-30T12:41:43.000Z</time>
      </trkpt>
      <trkpt lat="28.228616666666667" lon="-16.48415">
        <ele>1239</ele>
        <time>2024-03-30T12:41:44.000Z</time>
      </trkpt>
      <trkpt lat="28.228583333333333" lon="-16.484233333333332">
        <ele>1239</ele>
        <time>2024-03-30T12:41:45.000Z</time>
      </trkpt>
      <trkpt lat="28.228533333333335" lon="-16.48431666666667">
        <ele>1239</ele>
        <time>2024-03-30T12:41:46.000Z</time>
      </trkpt>
      <trkpt lat="28.22845" lon="-16.4844">
        <ele>1238</ele>
        <time>2024-03-30T12:41:47.000Z</time>
      </trkpt>
      <trkpt lat="28.228366666666666" lon="-16.484466666666666">
        <ele>1239</ele>
        <time>2024-03-30T12:41:48.000Z</time>
      </trkpt>
      <trkpt lat="28.228266666666666" lon="-16.484533333333335">
        <ele>1241</ele>
        <time>2024-03-30T12:41:49.000Z</time>
      </trkpt>
      <trkpt lat="28.2282" lon="-16.484616666666668">
        <ele>1244</ele>
        <time>2024-03-30T12:41:50.000Z</time>
      </trkpt>
      <trkpt lat="28.228133333333332" lon="-16.484683333333333">
        <ele>1247</ele>
        <time>2024-03-30T12:41:51.000Z</time>
      </trkpt>
      <trkpt lat="28.228083333333334" lon="-16.48475">
        <ele>1248</ele>
        <time>2024-03-30T12:41:52.000Z</time>
      </trkpt>
      <trkpt lat="28.228016666666665" lon="-16.484816666666667">
        <ele>1247</ele>
        <time>2024-03-30T12:41:53.000Z</time>
      </trkpt>
      <trkpt lat="28.22795" lon="-16.484866666666665">
        <ele>1246</ele>
        <time>2024-03-30T12:41:54.000Z</time>
      </trkpt>
      <trkpt lat="28.227883333333335" lon="-16.484933333333334">
        <ele>1244</ele>
        <time>2024-03-30T12:41:55.000Z</time>
      </trkpt>
      <trkpt lat="28.2278" lon="-16.485">
        <ele>1242</ele>
        <time>2024-03-30T12:41:56.000Z</time>
      </trkpt>
      <trkpt lat="28.2277" lon="-16.485083333333332">
        <ele>1240</ele>
        <time>2024-03-30T12:41:57.000Z</time>
      </trkpt>
      <trkpt lat="28.227633333333333" lon="-16.485166666666668">
        <ele>1239</ele>
        <time>2024-03-30T12:41:58.000Z</time>
      </trkpt>
      <trkpt lat="28.22755" lon="-16.485266666666668">
        <ele>1236</ele>
        <time>2024-03-30T12:41:59.000Z</time>
      </trkpt>
      <trkpt lat="28.227483333333332" lon="-16.485366666666668">
        <ele>1233</ele>
        <time>2024-03-30T12:42:00.000Z</time>
      </trkpt>
      <trkpt lat="28.227416666666667" lon="-16.485483333333335">
        <ele>1229</ele>
        <time>2024-03-30T12:42:01.000Z</time>
      </trkpt>
      <trkpt lat="28.227333333333334" lon="-16.485583333333334">
        <ele>1225</ele>
        <time>2024-03-30T12:42:02.000Z</time>
      </trkpt>
      <trkpt lat="28.227266666666665" lon="-16.4857">
        <ele>1221</ele>
        <time>2024-03-30T12:42:03.000Z</time>
      </trkpt>
      <trkpt lat="28.2272" lon="-16.48581666666667">
        <ele>1218</ele>
        <time>2024-03-30T12:42:04.000Z</time>
      </trkpt>
      <trkpt lat="28.227133333333335" lon="-16.48595">
        <ele>1216</ele>
        <time>2024-03-30T12:42:05.000Z</time>
      </trkpt>
      <trkpt lat="28.227066666666666" lon="-16.486083333333333">
        <ele>1214</ele>
        <time>2024-03-30T12:42:06.000Z</time>
      </trkpt>
      <trkpt lat="28.227" lon="-16.4862">
        <ele>1212</ele>
        <time>2024-03-30T12:42:07.000Z</time>
      </trkpt>
      <trkpt lat="28.226916666666668" lon="-16.486333333333334">
        <ele>1210</ele>
        <time>2024-03-30T12:42:08.000Z</time>
      </trkpt>
      <trkpt lat="28.22685" lon="-16.48645">
        <ele>1209</ele>
        <time>2024-03-30T12:42:09.000Z</time>
      </trkpt>
      <trkpt lat="28.22675" lon="-16.486583333333332">
        <ele>1209</ele>
        <time>2024-03-30T12:42:10.000Z</time>
      </trkpt>
      <trkpt lat="28.226666666666667" lon="-16.4867">
        <ele>1211</ele>
        <time>2024-03-30T12:42:11.000Z</time>
      </trkpt>
      <trkpt lat="28.226583333333334" lon="-16.4868">
        <ele>1213</ele>
        <time>2024-03-30T12:42:12.000Z</time>
      </trkpt>
      <trkpt lat="28.226516666666665" lon="-16.486883333333335">
        <ele>1214</ele>
        <time>2024-03-30T12:42:13.000Z</time>
      </trkpt>
      <trkpt lat="28.226433333333333" lon="-16.486966666666667">
        <ele>1215</ele>
        <time>2024-03-30T12:42:14.000Z</time>
      </trkpt>
      <trkpt lat="28.22635" lon="-16.48705">
        <ele>1215</ele>
        <time>2024-03-30T12:42:15.000Z</time>
      </trkpt>
      <trkpt lat="28.22625" lon="-16.487116666666665">
        <ele>1216</ele>
        <time>2024-03-30T12:42:16.000Z</time>
      </trkpt>
      <trkpt lat="28.226166666666668" lon="-16.48715">
        <ele>1218</ele>
        <time>2024-03-30T12:42:17.000Z</time>
      </trkpt>
      <trkpt lat="28.22608333333333" lon="-16.48715">
        <ele>1219</ele>
        <time>2024-03-30T12:42:18.000Z</time>
      </trkpt>
      <trkpt lat="28.226033333333334" lon="-16.487133333333333">
        <ele>1219</ele>
        <time>2024-03-30T12:42:19.000Z</time>
      </trkpt>
      <trkpt lat="28.226033333333334" lon="-16.487083333333334">
        <ele>1218</ele>
        <time>2024-03-30T12:42:20.000Z</time>
      </trkpt>
      <trkpt lat="28.22608333333333" lon="-16.487033333333333">
        <ele>1218</ele>
        <time>2024-03-30T12:42:21.000Z</time>
      </trkpt>
      <trkpt lat="28.22615" lon="-16.487016666666666">
        <ele>1218</ele>
        <time>2024-03-30T12:42:22.000Z</time>
      </trkpt>
      <trkpt lat="28.22625" lon="-16.487066666666667">
        <ele>1218</ele>
        <time>2024-03-30T12:42:23.000Z</time>
      </trkpt>
      <trkpt lat="28.226316666666666" lon="-16.4872">
        <ele>1218</ele>
        <time>2024-03-30T12:42:24.000Z</time>
      </trkpt>
      <trkpt lat="28.226333333333333" lon="-16.487366666666667">
        <ele>1218</ele>
        <time>2024-03-30T12:42:25.000Z</time>
      </trkpt>
      <trkpt lat="28.226316666666666" lon="-16.48753333333333">
        <ele>1220</ele>
        <time>2024-03-30T12:42:26.000Z</time>
      </trkpt>
      <trkpt lat="28.226283333333335" lon="-16.487666666666666">
        <ele>1223</ele>
        <time>2024-03-30T12:42:27.000Z</time>
      </trkpt>
      <trkpt lat="28.22625" lon="-16.487766666666666">
        <ele>1225</ele>
        <time>2024-03-30T12:42:28.000Z</time>
      </trkpt>
      <trkpt lat="28.226166666666668" lon="-16.487866666666665">
        <ele>1226</ele>
        <time>2024-03-30T12:42:29.000Z</time>
      </trkpt>
      <trkpt lat="28.22608333333333" lon="-16.487933333333334">
        <ele>1226</ele>
        <time>2024-03-30T12:42:30.000Z</time>
      </trkpt>
      <trkpt lat="28.225983333333332" lon="-16.487983333333332">
        <ele>1227</ele>
        <time>2024-03-30T12:42:31.000Z</time>
      </trkpt>
      <trkpt lat="28.225883333333332" lon="-16.487983333333332">
        <ele>1228</ele>
        <time>2024-03-30T12:42:32.000Z</time>
      </trkpt>
      <trkpt lat="28.225816666666667" lon="-16.487983333333332">
        <ele>1229</ele>
        <time>2024-03-30T12:42:33.000Z</time>
      </trkpt>
      <trkpt lat="28.2258" lon="-16.487916666666667">
        <ele>1227</ele>
        <time>2024-03-30T12:42:34.000Z</time>
      </trkpt>
      <trkpt lat="28.225816666666667" lon="-16.487833333333334">
        <ele>1227</ele>
        <time>2024-03-30T12:42:35.000Z</time>
      </trkpt>
      <trkpt lat="28.22586666666667" lon="-16.487766666666666">
        <ele>1228</ele>
        <time>2024-03-30T12:42:36.000Z</time>
      </trkpt>
      <trkpt lat="28.225916666666667" lon="-16.487716666666667">
        <ele>1230</ele>
        <time>2024-03-30T12:42:37.000Z</time>
      </trkpt>
      <trkpt lat="28.225983333333332" lon="-16.4877">
        <ele>1231</ele>
        <time>2024-03-30T12:42:38.000Z</time>
      </trkpt>
      <trkpt lat="28.22605" lon="-16.487733333333335">
        <ele>1231</ele>
        <time>2024-03-30T12:42:39.000Z</time>
      </trkpt>
      <trkpt lat="28.226116666666666" lon="-16.4878">
        <ele>1230</ele>
        <time>2024-03-30T12:42:40.000Z</time>
      </trkpt>
      <trkpt lat="28.226183333333335" lon="-16.487916666666667">
        <ele>1230</ele>
        <time>2024-03-30T12:42:41.000Z</time>
      </trkpt>
      <trkpt lat="28.226216666666666" lon="-16.48805">
        <ele>1230</ele>
        <time>2024-03-30T12:42:42.000Z</time>
      </trkpt>
      <trkpt lat="28.226216666666666" lon="-16.4882">
        <ele>1231</ele>
        <time>2024-03-30T12:42:43.000Z</time>
      </trkpt>
      <trkpt lat="28.226166666666668" lon="-16.48835">
        <ele>1233</ele>
        <time>2024-03-30T12:42:44.000Z</time>
      </trkpt>
      <trkpt lat="28.22608333333333" lon="-16.488466666666667">
        <ele>1235</ele>
        <time>2024-03-30T12:42:45.000Z</time>
      </trkpt>
      <trkpt lat="28.225983333333332" lon="-16.48855">
        <ele>1236</ele>
        <time>2024-03-30T12:42:46.000Z</time>
      </trkpt>
      <trkpt lat="28.2259" lon="-16.488616666666665">
        <ele>1239</ele>
        <time>2024-03-30T12:42:47.000Z</time>
      </trkpt>
      <trkpt lat="28.225816666666667" lon="-16.488666666666667">
        <ele>1241</ele>
        <time>2024-03-30T12:42:48.000Z</time>
      </trkpt>
      <trkpt lat="28.225733333333334" lon="-16.488666666666667">
        <ele>1241</ele>
        <time>2024-03-30T12:42:49.000Z</time>
      </trkpt>
      <trkpt lat="28.225683333333333" lon="-16.488633333333333">
        <ele>1240</ele>
        <time>2024-03-30T12:42:50.000Z</time>
      </trkpt>
      <trkpt lat="28.225633333333334" lon="-16.488583333333334">
        <ele>1240</ele>
        <time>2024-03-30T12:42:51.000Z</time>
      </trkpt>
      <trkpt lat="28.225616666666667" lon="-16.488516666666666">
        <ele>1242</ele>
        <time>2024-03-30T12:42:52.000Z</time>
      </trkpt>
      <trkpt lat="28.225633333333334" lon="-16.488466666666667">
        <ele>1244</ele>
        <time>2024-03-30T12:42:53.000Z</time>
      </trkpt>
      <trkpt lat="28.225683333333333" lon="-16.488433333333333">
        <ele>1245</ele>
        <time>2024-03-30T12:42:54.000Z</time>
      </trkpt>
      <trkpt lat="28.225766666666665" lon="-16.488433333333333">
        <ele>1244</ele>
        <time>2024-03-30T12:42:55.000Z</time>
      </trkpt>
      <trkpt lat="28.22586666666667" lon="-16.488483333333335">
        <ele>1243</ele>
        <time>2024-03-30T12:42:56.000Z</time>
      </trkpt>
      <trkpt lat="28.22595" lon="-16.488583333333334">
        <ele>1242</ele>
        <time>2024-03-30T12:42:57.000Z</time>
      </trkpt>
      <trkpt lat="28.226016666666666" lon="-16.488716666666665">
        <ele>1243</ele>
        <time>2024-03-30T12:42:58.000Z</time>
      </trkpt>
      <trkpt lat="28.226033333333334" lon="-16.488866666666667">
        <ele>1244</ele>
        <time>2024-03-30T12:42:59.000Z</time>
      </trkpt>
      <trkpt lat="28.22605" lon="-16.489016666666668">
        <ele>1246</ele>
        <time>2024-03-30T12:43:00.000Z</time>
      </trkpt>
      <trkpt lat="28.22605" lon="-16.48915">
        <ele>1249</ele>
        <time>2024-03-30T12:43:01.000Z</time>
      </trkpt>
      <trkpt lat="28.22605" lon="-16.489266666666666">
        <ele>1252</ele>
        <time>2024-03-30T12:43:02.000Z</time>
      </trkpt>
      <trkpt lat="28.226016666666666" lon="-16.489366666666665">
        <ele>1253</ele>
        <time>2024-03-30T12:43:03.000Z</time>
      </trkpt>
      <trkpt lat="28.225983333333332" lon="-16.489466666666665">
        <ele>1252</ele>
        <time>2024-03-30T12:43:04.000Z</time>
      </trkpt>
      <trkpt lat="28.225916666666667" lon="-16.489533333333334">
        <ele>1250</ele>
        <time>2024-03-30T12:43:05.000Z</time>
      </trkpt>
      <trkpt lat="28.22585" lon="-16.489616666666667">
        <ele>1249</ele>
        <time>2024-03-30T12:43:06.000Z</time>
      </trkpt>
      <trkpt lat="28.22575" lon="-16.48966666666667">
        <ele>1248</ele>
        <time>2024-03-30T12:43:07.000Z</time>
      </trkpt>
      <trkpt lat="28.22565" lon="-16.489683333333332">
        <ele>1247</ele>
        <time>2024-03-30T12:43:08.000Z</time>
      </trkpt>
      <trkpt lat="28.225533333333335" lon="-16.489683333333332">
        <ele>1247</ele>
        <time>2024-03-30T12:43:09.000Z</time>
      </trkpt>
      <trkpt lat="28.225433333333335" lon="-16.489683333333332">
        <ele>1248</ele>
        <time>2024-03-30T12:43:10.000Z</time>
      </trkpt>
      <trkpt lat="28.22535" lon="-16.489716666666666">
        <ele>1250</ele>
        <time>2024-03-30T12:43:11.000Z</time>
      </trkpt>
      <trkpt lat="28.225266666666666" lon="-16.489766666666668">
        <ele>1251</ele>
        <time>2024-03-30T12:43:12.000Z</time>
      </trkpt>
      <trkpt lat="28.2252" lon="-16.489816666666666">
        <ele>1252</ele>
        <time>2024-03-30T12:43:13.000Z</time>
      </trkpt>
      <trkpt lat="28.22511666666667" lon="-16.489866666666668">
        <ele>1251</ele>
        <time>2024-03-30T12:43:14.000Z</time>
      </trkpt>
      <trkpt lat="28.225033333333332" lon="-16.4899">
        <ele>1250</ele>
        <time>2024-03-30T12:43:15.000Z</time>
      </trkpt>
      <trkpt lat="28.224933333333333" lon="-16.489933333333333">
        <ele>1250</ele>
        <time>2024-03-30T12:43:16.000Z</time>
      </trkpt>
      <trkpt lat="28.224833333333333" lon="-16.489983333333335">
        <ele>1250</ele>
        <time>2024-03-30T12:43:17.000Z</time>
      </trkpt>
      <trkpt lat="28.22475" lon="-16.49005">
        <ele>1251</ele>
        <time>2024-03-30T12:43:18.000Z</time>
      </trkpt>
      <trkpt lat="28.224683333333335" lon="-16.490099999999998">
        <ele>1251</ele>
        <time>2024-03-30T12:43:19.000Z</time>
      </trkpt>
      <trkpt lat="28.224633333333333" lon="-16.49015">
        <ele>1250</ele>
        <time>2024-03-30T12:43:20.000Z</time>
      </trkpt>
      <trkpt lat="28.224566666666668" lon="-16.490216666666665">
        <ele>1248</ele>
        <time>2024-03-30T12:43:21.000Z</time>
      </trkpt>
      <trkpt lat="28.2245" lon="-16.490266666666667">
        <ele>1246</ele>
        <time>2024-03-30T12:43:22.000Z</time>
      </trkpt>
      <trkpt lat="28.224416666666666" lon="-16.490333333333332">
        <ele>1244</ele>
        <time>2024-03-30T12:43:23.000Z</time>
      </trkpt>
      <trkpt lat="28.224333333333334" lon="-16.4904">
        <ele>1243</ele>
        <time>2024-03-30T12:43:24.000Z</time>
      </trkpt>
      <trkpt lat="28.22425" lon="-16.490466666666666">
        <ele>1243</ele>
        <time>2024-03-30T12:43:25.000Z</time>
      </trkpt>
      <trkpt lat="28.224183333333333" lon="-16.490516666666668">
        <ele>1243</ele>
        <time>2024-03-30T12:43:26.000Z</time>
      </trkpt>
      <trkpt lat="28.224116666666667" lon="-16.49055">
        <ele>1243</ele>
        <time>2024-03-30T12:43:27.000Z</time>
      </trkpt>
      <trkpt lat="28.224066666666666" lon="-16.490583333333333">
        <ele>1242</ele>
        <time>2024-03-30T12:43:28.000Z</time>
      </trkpt>
      <trkpt lat="28.224016666666667" lon="-16.490616666666668">
        <ele>1240</ele>
        <time>2024-03-30T12:43:29.000Z</time>
      </trkpt>
      <trkpt lat="28.22395" lon="-16.49065">
        <ele>1236</ele>
        <time>2024-03-30T12:43:30.000Z</time>
      </trkpt>
      <trkpt lat="28.223883333333333" lon="-16.490683333333333">
        <ele>1232</ele>
        <time>2024-03-30T12:43:31.000Z</time>
      </trkpt>
      <trkpt lat="28.2238" lon="-16.4907">
        <ele>1229</ele>
        <time>2024-03-30T12:43:32.000Z</time>
      </trkpt>
      <trkpt lat="28.223716666666668" lon="-16.490716666666668">
        <ele>1228</ele>
        <time>2024-03-30T12:43:33.000Z</time>
      </trkpt>
      <trkpt lat="28.223633333333332" lon="-16.490733333333335">
        <ele>1226</ele>
        <time>2024-03-30T12:43:34.000Z</time>
      </trkpt>
      <trkpt lat="28.223566666666667" lon="-16.49075">
        <ele>1224</ele>
        <time>2024-03-30T12:43:35.000Z</time>
      </trkpt>
      <trkpt lat="28.223466666666667" lon="-16.49075">
        <ele>1221</ele>
        <time>2024-03-30T12:43:36.000Z</time>
      </trkpt>
      <trkpt lat="28.223366666666667" lon="-16.490716666666668">
        <ele>1219</ele>
        <time>2024-03-30T12:43:37.000Z</time>
      </trkpt>
      <trkpt lat="28.223266666666667" lon="-16.490683333333333">
        <ele>1218</ele>
        <time>2024-03-30T12:43:38.000Z</time>
      </trkpt>
      <trkpt lat="28.223166666666668" lon="-16.490666666666666">
        <ele>1218</ele>
        <time>2024-03-30T12:43:39.000Z</time>
      </trkpt>
      <trkpt lat="28.223066666666668" lon="-16.490666666666666">
        <ele>1218</ele>
        <time>2024-03-30T12:43:40.000Z</time>
      </trkpt>
      <trkpt lat="28.223" lon="-16.4907">
        <ele>1217</ele>
        <time>2024-03-30T12:43:41.000Z</time>
      </trkpt>
      <trkpt lat="28.222916666666666" lon="-16.4907">
        <ele>1216</ele>
        <time>2024-03-30T12:43:42.000Z</time>
      </trkpt>
      <trkpt lat="28.222833333333334" lon="-16.490716666666668">
        <ele>1215</ele>
        <time>2024-03-30T12:43:43.000Z</time>
      </trkpt>
      <trkpt lat="28.22275" lon="-16.490716666666668">
        <ele>1214</ele>
        <time>2024-03-30T12:43:44.000Z</time>
      </trkpt>
      <trkpt lat="28.222666666666665" lon="-16.490733333333335">
        <ele>1213</ele>
        <time>2024-03-30T12:43:45.000Z</time>
      </trkpt>
      <trkpt lat="28.222583333333333" lon="-16.490766666666666">
        <ele>1212</ele>
        <time>2024-03-30T12:43:46.000Z</time>
      </trkpt>
      <trkpt lat="28.222483333333333" lon="-16.4908">
        <ele>1212</ele>
        <time>2024-03-30T12:43:47.000Z</time>
      </trkpt>
      <trkpt lat="28.2224" lon="-16.490833333333335">
        <ele>1212</ele>
        <time>2024-03-30T12:43:48.000Z</time>
      </trkpt>
      <trkpt lat="28.222333333333335" lon="-16.490883333333333">
        <ele>1211</ele>
        <time>2024-03-30T12:43:49.000Z</time>
      </trkpt>
      <trkpt lat="28.222266666666666" lon="-16.490916666666667">
        <ele>1209</ele>
        <time>2024-03-30T12:43:50.000Z</time>
      </trkpt>
      <trkpt lat="28.222183333333334" lon="-16.490966666666665">
        <ele>1206</ele>
        <time>2024-03-30T12:43:51.000Z</time>
      </trkpt>
      <trkpt lat="28.222083333333334" lon="-16.491">
        <ele>1204</ele>
        <time>2024-03-30T12:43:52.000Z</time>
      </trkpt>
      <trkpt lat="28.221983333333334" lon="-16.49105">
        <ele>1204</ele>
        <time>2024-03-30T12:43:53.000Z</time>
      </trkpt>
      <trkpt lat="28.2219" lon="-16.491083333333332">
        <ele>1205</ele>
        <time>2024-03-30T12:43:54.000Z</time>
      </trkpt>
      <trkpt lat="28.221816666666665" lon="-16.4911">
        <ele>1207</ele>
        <time>2024-03-30T12:43:55.000Z</time>
      </trkpt>
      <trkpt lat="28.221766666666667" lon="-16.491083333333332">
        <ele>1210</ele>
        <time>2024-03-30T12:43:56.000Z</time>
      </trkpt>
      <trkpt lat="28.2217" lon="-16.491066666666665">
        <ele>1213</ele>
        <time>2024-03-30T12:43:57.000Z</time>
      </trkpt>
      <trkpt lat="28.221633333333333" lon="-16.491066666666665">
        <ele>1215</ele>
        <time>2024-03-30T12:43:58.000Z</time>
      </trkpt>
      <trkpt lat="28.221583333333335" lon="-16.491083333333332">
        <ele>1215</ele>
        <time>2024-03-30T12:43:59.000Z</time>
      </trkpt>
      <trkpt lat="28.221533333333333" lon="-16.491116666666667">
        <ele>1214</ele>
        <time>2024-03-30T12:44:00.000Z</time>
      </trkpt>
      <trkpt lat="28.221466666666668" lon="-16.491133333333334">
        <ele>1212</ele>
        <time>2024-03-30T12:44:01.000Z</time>
      </trkpt>
      <trkpt lat="28.2214" lon="-16.49115">
        <ele>1210</ele>
        <time>2024-03-30T12:44:02.000Z</time>
      </trkpt>
      <trkpt lat="28.2213" lon="-16.49115">
        <ele>1210</ele>
        <time>2024-03-30T12:44:03.000Z</time>
      </trkpt>
      <trkpt lat="28.2212" lon="-16.49115">
        <ele>1211</ele>
        <time>2024-03-30T12:44:04.000Z</time>
      </trkpt>
      <trkpt lat="28.221083333333333" lon="-16.49115">
        <ele>1214</ele>
        <time>2024-03-30T12:44:05.000Z</time>
      </trkpt>
      <trkpt lat="28.221" lon="-16.49115">
        <ele>1217</ele>
        <time>2024-03-30T12:44:06.000Z</time>
      </trkpt>
      <trkpt lat="28.220933333333335" lon="-16.49115">
        <ele>1221</ele>
        <time>2024-03-30T12:44:07.000Z</time>
      </trkpt>
      <trkpt lat="28.220883333333333" lon="-16.49115">
        <ele>1223</ele>
        <time>2024-03-30T12:44:08.000Z</time>
      </trkpt>
      <trkpt lat="28.220833333333335" lon="-16.49115">
        <ele>1223</ele>
        <time>2024-03-30T12:44:09.000Z</time>
      </trkpt>
      <trkpt lat="28.220783333333333" lon="-16.491183333333332">
        <ele>1222</ele>
        <time>2024-03-30T12:44:10.000Z</time>
      </trkpt>
      <trkpt lat="28.220716666666668" lon="-16.49125">
        <ele>1219</ele>
        <time>2024-03-30T12:44:11.000Z</time>
      </trkpt>
      <trkpt lat="28.22065" lon="-16.491383333333335">
        <ele>1217</ele>
        <time>2024-03-30T12:44:12.000Z</time>
      </trkpt>
      <trkpt lat="28.220633333333332" lon="-16.491533333333333">
        <ele>1215</ele>
        <time>2024-03-30T12:44:13.000Z</time>
      </trkpt>
      <trkpt lat="28.220683333333334" lon="-16.491683333333334">
        <ele>1216</ele>
        <time>2024-03-30T12:44:14.000Z</time>
      </trkpt>
      <trkpt lat="28.220766666666666" lon="-16.491766666666667">
        <ele>1215</ele>
        <time>2024-03-30T12:44:15.000Z</time>
      </trkpt>
      <trkpt lat="28.220883333333333" lon="-16.491833333333332">
        <ele>1215</ele>
        <time>2024-03-30T12:44:16.000Z</time>
      </trkpt>
      <trkpt lat="28.221016666666667" lon="-16.49185">
        <ele>1215</ele>
        <time>2024-03-30T12:44:17.000Z</time>
      </trkpt>
      <trkpt lat="28.221083333333333" lon="-16.4918">
        <ele>1215</ele>
        <time>2024-03-30T12:44:18.000Z</time>
      </trkpt>
      <trkpt lat="28.221083333333333" lon="-16.4917">
        <ele>1215</ele>
        <time>2024-03-30T12:44:19.000Z</time>
      </trkpt>
      <trkpt lat="28.22105" lon="-16.491616666666665">
        <ele>1215</ele>
        <time>2024-03-30T12:44:20.000Z</time>
      </trkpt>
      <trkpt lat="28.221016666666667" lon="-16.491566666666667">
        <ele>1216</ele>
        <time>2024-03-30T12:44:21.000Z</time>
      </trkpt>
      <trkpt lat="28.221" lon="-16.491533333333333">
        <ele>1216</ele>
        <time>2024-03-30T12:44:22.000Z</time>
      </trkpt>
      <trkpt lat="28.221" lon="-16.4915">
        <ele>1215</ele>
        <time>2024-03-30T12:44:23.000Z</time>
      </trkpt>
      <trkpt lat="28.220966666666666" lon="-16.491466666666668">
        <ele>1214</ele>
        <time>2024-03-30T12:44:24.000Z</time>
      </trkpt>
      <trkpt lat="28.220916666666668" lon="-16.491433333333333">
        <ele>1212</ele>
        <time>2024-03-30T12:44:25.000Z</time>
      </trkpt>
      <trkpt lat="28.22085" lon="-16.491416666666666">
        <ele>1211</ele>
        <time>2024-03-30T12:44:26.000Z</time>
      </trkpt>
      <trkpt lat="28.220766666666666" lon="-16.491433333333333">
        <ele>1211</ele>
        <time>2024-03-30T12:44:27.000Z</time>
      </trkpt>
      <trkpt lat="28.220683333333334" lon="-16.49145">
        <ele>1211</ele>
        <time>2024-03-30T12:44:28.000Z</time>
      </trkpt>
      <trkpt lat="28.2206" lon="-16.491466666666668">
        <ele>1211</ele>
        <time>2024-03-30T12:44:29.000Z</time>
      </trkpt>
      <trkpt lat="28.220533333333332" lon="-16.491466666666668">
        <ele>1211</ele>
        <time>2024-03-30T12:44:30.000Z</time>
      </trkpt>
      <trkpt lat="28.220483333333334" lon="-16.49145">
        <ele>1210</ele>
        <time>2024-03-30T12:44:31.000Z</time>
      </trkpt>
      <trkpt lat="28.220416666666665" lon="-16.491433333333333">
        <ele>1209</ele>
        <time>2024-03-30T12:44:32.000Z</time>
      </trkpt>
      <trkpt lat="28.220366666666667" lon="-16.491416666666666">
        <ele>1206</ele>
        <time>2024-03-30T12:44:33.000Z</time>
      </trkpt>
      <trkpt lat="28.2203" lon="-16.491416666666666">
        <ele>1204</ele>
        <time>2024-03-30T12:44:34.000Z</time>
      </trkpt>
      <trkpt lat="28.220216666666666" lon="-16.4914">
        <ele>1202</ele>
        <time>2024-03-30T12:44:35.000Z</time>
      </trkpt>
      <trkpt lat="28.22015" lon="-16.491383333333335">
        <ele>1200</ele>
        <time>2024-03-30T12:44:36.000Z</time>
      </trkpt>
      <trkpt lat="28.220066666666668" lon="-16.491366666666668">
        <ele>1200</ele>
        <time>2024-03-30T12:44:37.000Z</time>
      </trkpt>
      <trkpt lat="28.21998333333333" lon="-16.49135">
        <ele>1200</ele>
        <time>2024-03-30T12:44:38.000Z</time>
      </trkpt>
      <trkpt lat="28.219883333333332" lon="-16.491366666666668">
        <ele>1200</ele>
        <time>2024-03-30T12:44:39.000Z</time>
      </trkpt>
      <trkpt lat="28.2198" lon="-16.491383333333335">
        <ele>1199</ele>
        <time>2024-03-30T12:44:40.000Z</time>
      </trkpt>
      <trkpt lat="28.219716666666667" lon="-16.491416666666666">
        <ele>1198</ele>
        <time>2024-03-30T12:44:41.000Z</time>
      </trkpt>
      <trkpt lat="28.219633333333334" lon="-16.49145">
        <ele>1197</ele>
        <time>2024-03-30T12:44:42.000Z</time>
      </trkpt>
      <trkpt lat="28.21955" lon="-16.491483333333335">
        <ele>1194</ele>
        <time>2024-03-30T12:44:43.000Z</time>
      </trkpt>
      <trkpt lat="28.21945" lon="-16.491516666666666">
        <ele>1191</ele>
        <time>2024-03-30T12:44:44.000Z</time>
      </trkpt>
      <trkpt lat="28.219333333333335" lon="-16.49155">
        <ele>1189</ele>
        <time>2024-03-30T12:44:45.000Z</time>
      </trkpt>
      <trkpt lat="28.219216666666668" lon="-16.491583333333335">
        <ele>1188</ele>
        <time>2024-03-30T12:44:46.000Z</time>
      </trkpt>
      <trkpt lat="28.219116666666668" lon="-16.4916">
        <ele>1187</ele>
        <time>2024-03-30T12:44:47.000Z</time>
      </trkpt>
      <trkpt lat="28.21901666666667" lon="-16.4916">
        <ele>1187</ele>
        <time>2024-03-30T12:44:48.000Z</time>
      </trkpt>
      <trkpt lat="28.218916666666665" lon="-16.491583333333335">
        <ele>1186</ele>
        <time>2024-03-30T12:44:49.000Z</time>
      </trkpt>
      <trkpt lat="28.218833333333333" lon="-16.491566666666667">
        <ele>1185</ele>
        <time>2024-03-30T12:44:50.000Z</time>
      </trkpt>
      <trkpt lat="28.218733333333333" lon="-16.491566666666667">
        <ele>1185</ele>
        <time>2024-03-30T12:44:51.000Z</time>
      </trkpt>
      <trkpt lat="28.218633333333333" lon="-16.491566666666667">
        <ele>1184</ele>
        <time>2024-03-30T12:44:52.000Z</time>
      </trkpt>
      <trkpt lat="28.21855" lon="-16.491533333333333">
        <ele>1184</ele>
        <time>2024-03-30T12:44:53.000Z</time>
      </trkpt>
      <trkpt lat="28.218466666666668" lon="-16.491516666666666">
        <ele>1183</ele>
        <time>2024-03-30T12:44:54.000Z</time>
      </trkpt>
      <trkpt lat="28.218383333333332" lon="-16.491483333333335">
        <ele>1183</ele>
        <time>2024-03-30T12:44:55.000Z</time>
      </trkpt>
      <trkpt lat="28.218316666666666" lon="-16.491483333333335">
        <ele>1182</ele>
        <time>2024-03-30T12:44:56.000Z</time>
      </trkpt>
      <trkpt lat="28.218233333333334" lon="-16.491483333333335">
        <ele>1181</ele>
        <time>2024-03-30T12:44:57.000Z</time>
      </trkpt>
      <trkpt lat="28.21815" lon="-16.491466666666668">
        <ele>1180</ele>
        <time>2024-03-30T12:44:58.000Z</time>
      </trkpt>
      <trkpt lat="28.218066666666665" lon="-16.49145">
        <ele>1178</ele>
        <time>2024-03-30T12:44:59.000Z</time>
      </trkpt>
      <trkpt lat="28.217983333333333" lon="-16.491433333333333">
        <ele>1177</ele>
        <time>2024-03-30T12:45:00.000Z</time>
      </trkpt>
      <trkpt lat="28.2179" lon="-16.491416666666666">
        <ele>1176</ele>
        <time>2024-03-30T12:45:01.000Z</time>
      </trkpt>
      <trkpt lat="28.217816666666668" lon="-16.491416666666666">
        <ele>1175</ele>
        <time>2024-03-30T12:45:02.000Z</time>
      </trkpt>
      <trkpt lat="28.21775" lon="-16.4914">
        <ele>1175</ele>
        <time>2024-03-30T12:45:03.000Z</time>
      </trkpt>
      <trkpt lat="28.2177" lon="-16.491383333333335">
        <ele>1172</ele>
        <time>2024-03-30T12:45:04.000Z</time>
      </trkpt>
      <trkpt lat="28.217633333333332" lon="-16.49135">
        <ele>1168</ele>
        <time>2024-03-30T12:45:05.000Z</time>
      </trkpt>
      <trkpt lat="28.217566666666666" lon="-16.491316666666666">
        <ele>1165</ele>
        <time>2024-03-30T12:45:06.000Z</time>
      </trkpt>
      <trkpt lat="28.217466666666667" lon="-16.49128333333333">
        <ele>1161</ele>
        <time>2024-03-30T12:45:07.000Z</time>
      </trkpt>
      <trkpt lat="28.217383333333334" lon="-16.49125">
        <ele>1159</ele>
        <time>2024-03-30T12:45:08.000Z</time>
      </trkpt>
      <trkpt lat="28.217283333333334" lon="-16.491216666666666">
        <ele>1158</ele>
        <time>2024-03-30T12:45:09.000Z</time>
      </trkpt>
      <trkpt lat="28.2172" lon="-16.49116666666667">
        <ele>1156</ele>
        <time>2024-03-30T12:45:10.000Z</time>
      </trkpt>
      <trkpt lat="28.217116666666666" lon="-16.491116666666667">
        <ele>1154</ele>
        <time>2024-03-30T12:45:11.000Z</time>
      </trkpt>
      <trkpt lat="28.217033333333333" lon="-16.491066666666665">
        <ele>1151</ele>
        <time>2024-03-30T12:45:12.000Z</time>
      </trkpt>
      <trkpt lat="28.216933333333333" lon="-16.49105">
        <ele>1149</ele>
        <time>2024-03-30T12:45:13.000Z</time>
      </trkpt>
      <trkpt lat="28.216833333333334" lon="-16.491033333333334">
        <ele>1146</ele>
        <time>2024-03-30T12:45:14.000Z</time>
      </trkpt>
      <trkpt lat="28.216716666666667" lon="-16.491033333333334">
        <ele>1144</ele>
        <time>2024-03-30T12:45:15.000Z</time>
      </trkpt>
      <trkpt lat="28.2166" lon="-16.491033333333334">
        <ele>1143</ele>
        <time>2024-03-30T12:45:16.000Z</time>
      </trkpt>
      <trkpt lat="28.216483333333333" lon="-16.491066666666665">
        <ele>1141</ele>
        <time>2024-03-30T12:45:17.000Z</time>
      </trkpt>
      <trkpt lat="28.216383333333333" lon="-16.491133333333334">
        <ele>1140</ele>
        <time>2024-03-30T12:45:18.000Z</time>
      </trkpt>
      <trkpt lat="28.216283333333333" lon="-16.4912">
        <ele>1140</ele>
        <time>2024-03-30T12:45:19.000Z</time>
      </trkpt>
      <trkpt lat="28.216183333333333" lon="-16.491266666666668">
        <ele>1141</ele>
        <time>2024-03-30T12:45:20.000Z</time>
      </trkpt>
      <trkpt lat="28.216083333333334" lon="-16.4913">
        <ele>1143</ele>
        <time>2024-03-30T12:45:21.000Z</time>
      </trkpt>
      <trkpt lat="28.215983333333334" lon="-16.491316666666666">
        <ele>1145</ele>
        <time>2024-03-30T12:45:22.000Z</time>
      </trkpt>
      <trkpt lat="28.215883333333334" lon="-16.491333333333333">
        <ele>1147</ele>
        <time>2024-03-30T12:45:23.000Z</time>
      </trkpt>
      <trkpt lat="28.215783333333334" lon="-16.49135">
        <ele>1148</ele>
        <time>2024-03-30T12:45:24.000Z</time>
      </trkpt>
      <trkpt lat="28.215683333333335" lon="-16.491383333333335">
        <ele>1150</ele>
        <time>2024-03-30T12:45:25.000Z</time>
      </trkpt>
      <trkpt lat="28.215583333333335" lon="-16.491416666666666">
        <ele>1153</ele>
        <time>2024-03-30T12:45:26.000Z</time>
      </trkpt>
      <trkpt lat="28.215483333333335" lon="-16.49145">
        <ele>1155</ele>
        <time>2024-03-30T12:45:27.000Z</time>
      </trkpt>
      <trkpt lat="28.21538333333333" lon="-16.491483333333335">
        <ele>1157</ele>
        <time>2024-03-30T12:45:28.000Z</time>
      </trkpt>
      <trkpt lat="28.215283333333332" lon="-16.491483333333335">
        <ele>1158</ele>
        <time>2024-03-30T12:45:29.000Z</time>
      </trkpt>
      <trkpt lat="28.215216666666667" lon="-16.491466666666668">
        <ele>1161</ele>
        <time>2024-03-30T12:45:30.000Z</time>
      </trkpt>
      <trkpt lat="28.215183333333332" lon="-16.491433333333333">
        <ele>1164</ele>
        <time>2024-03-30T12:45:31.000Z</time>
      </trkpt>
      <trkpt lat="28.2152" lon="-16.491383333333335">
        <ele>1165</ele>
        <time>2024-03-30T12:45:32.000Z</time>
      </trkpt>
      <trkpt lat="28.21526666666667" lon="-16.49135">
        <ele>1165</ele>
        <time>2024-03-30T12:45:33.000Z</time>
      </trkpt>
      <trkpt lat="28.215366666666668" lon="-16.491366666666668">
        <ele>1165</ele>
        <time>2024-03-30T12:45:34.000Z</time>
      </trkpt>
      <trkpt lat="28.215466666666668" lon="-16.49145">
        <ele>1166</ele>
        <time>2024-03-30T12:45:35.000Z</time>
      </trkpt>
      <trkpt lat="28.215516666666666" lon="-16.491583333333335">
        <ele>1167</ele>
        <time>2024-03-30T12:45:36.000Z</time>
      </trkpt>
      <trkpt lat="28.215516666666666" lon="-16.49175">
        <ele>1167</ele>
        <time>2024-03-30T12:45:37.000Z</time>
      </trkpt>
      <trkpt lat="28.215483333333335" lon="-16.49191666666667">
        <ele>1167</ele>
        <time>2024-03-30T12:45:38.000Z</time>
      </trkpt>
      <trkpt lat="28.21538333333333" lon="-16.49205">
        <ele>1169</ele>
        <time>2024-03-30T12:45:39.000Z</time>
      </trkpt>
      <trkpt lat="28.215283333333332" lon="-16.492133333333335">
        <ele>1171</ele>
        <time>2024-03-30T12:45:40.000Z</time>
      </trkpt>
      <trkpt lat="28.215166666666665" lon="-16.492183333333333">
        <ele>1174</ele>
        <time>2024-03-30T12:45:41.000Z</time>
      </trkpt>
      <trkpt lat="28.215066666666665" lon="-16.492233333333335">
        <ele>1178</ele>
        <time>2024-03-30T12:45:42.000Z</time>
      </trkpt>
      <trkpt lat="28.214966666666665" lon="-16.4923">
        <ele>1182</ele>
        <time>2024-03-30T12:45:43.000Z</time>
      </trkpt>
      <trkpt lat="28.2149" lon="-16.4924">
        <ele>1185</ele>
        <time>2024-03-30T12:45:44.000Z</time>
      </trkpt>
      <trkpt lat="28.214816666666668" lon="-16.4925">
        <ele>1189</ele>
        <time>2024-03-30T12:45:45.000Z</time>
      </trkpt>
      <trkpt lat="28.214716666666668" lon="-16.4926">
        <ele>1192</ele>
        <time>2024-03-30T12:45:46.000Z</time>
      </trkpt>
      <trkpt lat="28.21463333333333" lon="-16.49266666666667">
        <ele>1197</ele>
        <time>2024-03-30T12:45:47.000Z</time>
      </trkpt>
      <trkpt lat="28.21455" lon="-16.492683333333332">
        <ele>1200</ele>
        <time>2024-03-30T12:45:48.000Z</time>
      </trkpt>
      <trkpt lat="28.214466666666667" lon="-16.492683333333332">
        <ele>1201</ele>
        <time>2024-03-30T12:45:49.000Z</time>
      </trkpt>
      <trkpt lat="28.214416666666665" lon="-16.49265">
        <ele>1202</ele>
        <time>2024-03-30T12:45:50.000Z</time>
      </trkpt>
      <trkpt lat="28.21435" lon="-16.4926">
        <ele>1205</ele>
        <time>2024-03-30T12:45:51.000Z</time>
      </trkpt>
      <trkpt lat="28.214316666666665" lon="-16.49255">
        <ele>1209</ele>
        <time>2024-03-30T12:45:52.000Z</time>
      </trkpt>
      <trkpt lat="28.2143" lon="-16.492516666666667">
        <ele>1213</ele>
        <time>2024-03-30T12:45:53.000Z</time>
      </trkpt>
      <trkpt lat="28.214333333333332" lon="-16.492483333333332">
        <ele>1215</ele>
        <time>2024-03-30T12:45:54.000Z</time>
      </trkpt>
      <trkpt lat="28.2144" lon="-16.49245">
        <ele>1214</ele>
        <time>2024-03-30T12:45:55.000Z</time>
      </trkpt>
      <trkpt lat="28.2145" lon="-16.492466666666665">
        <ele>1217</ele>
        <time>2024-03-30T12:45:56.000Z</time>
      </trkpt>
      <trkpt lat="28.214583333333334" lon="-16.4925">
        <ele>1222</ele>
        <time>2024-03-30T12:45:57.000Z</time>
      </trkpt>
      <trkpt lat="28.21465" lon="-16.4926">
        <ele>1226</ele>
        <time>2024-03-30T12:45:58.000Z</time>
      </trkpt>
      <trkpt lat="28.214683333333333" lon="-16.492733333333334">
        <ele>1228</ele>
        <time>2024-03-30T12:45:59.000Z</time>
      </trkpt>
      <trkpt lat="28.214666666666666" lon="-16.492866666666668">
        <ele>1229</ele>
        <time>2024-03-30T12:46:00.000Z</time>
      </trkpt>
      <trkpt lat="28.2146" lon="-16.493016666666666">
        <ele>1231</ele>
        <time>2024-03-30T12:46:01.000Z</time>
      </trkpt>
      <trkpt lat="28.2145" lon="-16.4931">
        <ele>1236</ele>
        <time>2024-03-30T12:46:02.000Z</time>
      </trkpt>
      <trkpt lat="28.214383333333334" lon="-16.49315">
        <ele>1241</ele>
        <time>2024-03-30T12:46:03.000Z</time>
      </trkpt>
      <trkpt lat="28.214316666666665" lon="-16.49315">
        <ele>1245</ele>
        <time>2024-03-30T12:46:04.000Z</time>
      </trkpt>
      <trkpt lat="28.2143" lon="-16.493116666666666">
        <ele>1247</ele>
        <time>2024-03-30T12:46:05.000Z</time>
      </trkpt>
      <trkpt lat="28.214333333333332" lon="-16.493066666666667">
        <ele>1248</ele>
        <time>2024-03-30T12:46:06.000Z</time>
      </trkpt>
      <trkpt lat="28.214433333333332" lon="-16.493016666666666">
        <ele>1250</ele>
        <time>2024-03-30T12:46:07.000Z</time>
      </trkpt>
      <trkpt lat="28.21455" lon="-16.493016666666666">
        <ele>1255</ele>
        <time>2024-03-30T12:46:08.000Z</time>
      </trkpt>
      <trkpt lat="28.21465" lon="-16.493083333333335">
        <ele>1261</ele>
        <time>2024-03-30T12:46:09.000Z</time>
      </trkpt>
      <trkpt lat="28.2147" lon="-16.493216666666665">
        <ele>1265</ele>
        <time>2024-03-30T12:46:10.000Z</time>
      </trkpt>
      <trkpt lat="28.214683333333333" lon="-16.49335">
        <ele>1265</ele>
        <time>2024-03-30T12:46:11.000Z</time>
      </trkpt>
      <trkpt lat="28.214666666666666" lon="-16.493483333333334">
        <ele>1266</ele>
        <time>2024-03-30T12:46:12.000Z</time>
      </trkpt>
      <trkpt lat="28.21463333333333" lon="-16.49363333333333">
        <ele>1268</ele>
        <time>2024-03-30T12:46:13.000Z</time>
      </trkpt>
      <trkpt lat="28.214583333333334" lon="-16.493783333333333">
        <ele>1271</ele>
        <time>2024-03-30T12:46:14.000Z</time>
      </trkpt>
      <trkpt lat="28.21451666666667" lon="-16.4939">
        <ele>1273</ele>
        <time>2024-03-30T12:46:15.000Z</time>
      </trkpt>
      <trkpt lat="28.214416666666665" lon="-16.493983333333333">
        <ele>1276</ele>
        <time>2024-03-30T12:46:16.000Z</time>
      </trkpt>
      <trkpt lat="28.2143" lon="-16.494">
        <ele>1277</ele>
        <time>2024-03-30T12:46:17.000Z</time>
      </trkpt>
      <trkpt lat="28.214233333333333" lon="-16.493966666666665">
        <ele>1279</ele>
        <time>2024-03-30T12:46:18.000Z</time>
      </trkpt>
      <trkpt lat="28.2142" lon="-16.493916666666667">
        <ele>1281</ele>
        <time>2024-03-30T12:46:19.000Z</time>
      </trkpt>
      <trkpt lat="28.214233333333333" lon="-16.493866666666666">
        <ele>1281</ele>
        <time>2024-03-30T12:46:20.000Z</time>
      </trkpt>
      <trkpt lat="28.2143" lon="-16.493816666666667">
        <ele>1283</ele>
        <time>2024-03-30T12:46:21.000Z</time>
      </trkpt>
      <trkpt lat="28.214383333333334" lon="-16.4938">
        <ele>1286</ele>
        <time>2024-03-30T12:46:22.000Z</time>
      </trkpt>
      <trkpt lat="28.214483333333334" lon="-16.493833333333335">
        <ele>1290</ele>
        <time>2024-03-30T12:46:23.000Z</time>
      </trkpt>
      <trkpt lat="28.214566666666666" lon="-16.493916666666667">
        <ele>1293</ele>
        <time>2024-03-30T12:46:24.000Z</time>
      </trkpt>
      <trkpt lat="28.2146" lon="-16.494066666666665">
        <ele>1294</ele>
        <time>2024-03-30T12:46:25.000Z</time>
      </trkpt>
      <trkpt lat="28.21463333333333" lon="-16.494216666666667">
        <ele>1296</ele>
        <time>2024-03-30T12:46:26.000Z</time>
      </trkpt>
      <trkpt lat="28.21463333333333" lon="-16.494366666666668">
        <ele>1297</ele>
        <time>2024-03-30T12:46:27.000Z</time>
      </trkpt>
      <trkpt lat="28.214583333333334" lon="-16.494516666666666">
        <ele>1299</ele>
        <time>2024-03-30T12:46:28.000Z</time>
      </trkpt>
      <trkpt lat="28.2145" lon="-16.494633333333333">
        <ele>1300</ele>
        <time>2024-03-30T12:46:29.000Z</time>
      </trkpt>
      <trkpt lat="28.214383333333334" lon="-16.494716666666665">
        <ele>1302</ele>
        <time>2024-03-30T12:46:30.000Z</time>
      </trkpt>
      <trkpt lat="28.214283333333334" lon="-16.494733333333333">
        <ele>1305</ele>
        <time>2024-03-30T12:46:31.000Z</time>
      </trkpt>
      <trkpt lat="28.214216666666665" lon="-16.494716666666665">
        <ele>1307</ele>
        <time>2024-03-30T12:46:32.000Z</time>
      </trkpt>
      <trkpt lat="28.214183333333335" lon="-16.4947">
        <ele>1308</ele>
        <time>2024-03-30T12:46:33.000Z</time>
      </trkpt>
      <trkpt lat="28.214183333333335" lon="-16.49465">
        <ele>1309</ele>
        <time>2024-03-30T12:46:34.000Z</time>
      </trkpt>
      <trkpt lat="28.214216666666665" lon="-16.4946">
        <ele>1308</ele>
        <time>2024-03-30T12:46:35.000Z</time>
      </trkpt>
      <trkpt lat="28.214266666666667" lon="-16.49455">
        <ele>1308</ele>
        <time>2024-03-30T12:46:36.000Z</time>
      </trkpt>
      <trkpt lat="28.21435" lon="-16.494533333333333">
        <ele>1310</ele>
        <time>2024-03-30T12:46:37.000Z</time>
      </trkpt>
      <trkpt lat="28.214433333333332" lon="-16.494533333333333">
        <ele>1315</ele>
        <time>2024-03-30T12:46:38.000Z</time>
      </trkpt>
      <trkpt lat="28.214483333333334" lon="-16.49455">
        <ele>1319</ele>
        <time>2024-03-30T12:46:39.000Z</time>
      </trkpt>
      <trkpt lat="28.21451666666667" lon="-16.49455">
        <ele>1323</ele>
        <time>2024-03-30T12:46:40.000Z</time>
      </trkpt>
      <trkpt lat="28.21455" lon="-16.494566666666667">
        <ele>1326</ele>
        <time>2024-03-30T12:46:41.000Z</time>
      </trkpt>
      <trkpt lat="28.2146" lon="-16.494616666666666">
        <ele>1327</ele>
        <time>2024-03-30T12:46:42.000Z</time>
      </trkpt>
      <trkpt lat="28.214666666666666" lon="-16.4947">
        <ele>1328</ele>
        <time>2024-03-30T12:46:43.000Z</time>
      </trkpt>
      <trkpt lat="28.21475" lon="-16.494816666666665">
        <ele>1329</ele>
        <time>2024-03-30T12:46:44.000Z</time>
      </trkpt>
      <trkpt lat="28.214783333333333" lon="-16.494966666666667">
        <ele>1332</ele>
        <time>2024-03-30T12:46:45.000Z</time>
      </trkpt>
      <trkpt lat="28.21475" lon="-16.49513333333333">
        <ele>1335</ele>
        <time>2024-03-30T12:46:46.000Z</time>
      </trkpt>
      <trkpt lat="28.214683333333333" lon="-16.495266666666666">
        <ele>1337</ele>
        <time>2024-03-30T12:46:47.000Z</time>
      </trkpt>
      <trkpt lat="28.2146" lon="-16.49535">
        <ele>1339</ele>
        <time>2024-03-30T12:46:48.000Z</time>
      </trkpt>
      <trkpt lat="28.2145" lon="-16.4954">
        <ele>1343</ele>
        <time>2024-03-30T12:46:49.000Z</time>
      </trkpt>
      <trkpt lat="28.2144" lon="-16.495416666666667">
        <ele>1346</ele>
        <time>2024-03-30T12:46:50.000Z</time>
      </trkpt>
      <trkpt lat="28.214333333333332" lon="-16.4954">
        <ele>1348</ele>
        <time>2024-03-30T12:46:51.000Z</time>
      </trkpt>
      <trkpt lat="28.2143" lon="-16.495366666666666">
        <ele>1350</ele>
        <time>2024-03-30T12:46:52.000Z</time>
      </trkpt>
      <trkpt lat="28.214283333333334" lon="-16.495316666666668">
        <ele>1352</ele>
        <time>2024-03-30T12:46:53.000Z</time>
      </trkpt>
      <trkpt lat="28.2143" lon="-16.495266666666666">
        <ele>1354</ele>
        <time>2024-03-30T12:46:54.000Z</time>
      </trkpt>
      <trkpt lat="28.21435" lon="-16.495233333333335">
        <ele>1356</ele>
        <time>2024-03-30T12:46:55.000Z</time>
      </trkpt>
      <trkpt lat="28.214416666666665" lon="-16.495233333333335">
        <ele>1358</ele>
        <time>2024-03-30T12:46:56.000Z</time>
      </trkpt>
      <trkpt lat="28.214483333333334" lon="-16.495266666666666">
        <ele>1359</ele>
        <time>2024-03-30T12:46:57.000Z</time>
      </trkpt>
      <trkpt lat="28.214566666666666" lon="-16.495333333333335">
        <ele>1361</ele>
        <time>2024-03-30T12:46:58.000Z</time>
      </trkpt>
      <trkpt lat="28.214616666666668" lon="-16.49545">
        <ele>1362</ele>
        <time>2024-03-30T12:46:59.000Z</time>
      </trkpt>
      <trkpt lat="28.21465" lon="-16.4956">
        <ele>1363</ele>
        <time>2024-03-30T12:47:00.000Z</time>
      </trkpt>
      <trkpt lat="28.214666666666666" lon="-16.49576666666667">
        <ele>1364</ele>
        <time>2024-03-30T12:47:01.000Z</time>
      </trkpt>
      <trkpt lat="28.21465" lon="-16.495933333333333">
        <ele>1366</ele>
        <time>2024-03-30T12:47:02.000Z</time>
      </trkpt>
      <trkpt lat="28.214583333333334" lon="-16.496083333333335">
        <ele>1368</ele>
        <time>2024-03-30T12:47:03.000Z</time>
      </trkpt>
      <trkpt lat="28.214483333333334" lon="-16.496216666666665">
        <ele>1369</ele>
        <time>2024-03-30T12:47:04.000Z</time>
      </trkpt>
      <trkpt lat="28.214366666666667" lon="-16.496283333333334">
        <ele>1370</ele>
        <time>2024-03-30T12:47:05.000Z</time>
      </trkpt>
      <trkpt lat="28.21425" lon="-16.496316666666665">
        <ele>1373</ele>
        <time>2024-03-30T12:47:06.000Z</time>
      </trkpt>
      <trkpt lat="28.21415" lon="-16.496316666666665">
        <ele>1375</ele>
        <time>2024-03-30T12:47:07.000Z</time>
      </trkpt>
      <trkpt lat="28.2141" lon="-16.496316666666665">
        <ele>1378</ele>
        <time>2024-03-30T12:47:08.000Z</time>
      </trkpt>
      <trkpt lat="28.214066666666668" lon="-16.4963">
        <ele>1379</ele>
        <time>2024-03-30T12:47:09.000Z</time>
      </trkpt>
      <trkpt lat="28.214066666666668" lon="-16.496266666666667">
        <ele>1379</ele>
        <time>2024-03-30T12:47:10.000Z</time>
      </trkpt>
      <trkpt lat="28.214083333333335" lon="-16.496216666666665">
        <ele>1378</ele>
        <time>2024-03-30T12:47:11.000Z</time>
      </trkpt>
      <trkpt lat="28.2141" lon="-16.496166666666667">
        <ele>1378</ele>
        <time>2024-03-30T12:47:12.000Z</time>
      </trkpt>
      <trkpt lat="28.214133333333333" lon="-16.496133333333333">
        <ele>1379</ele>
        <time>2024-03-30T12:47:13.000Z</time>
      </trkpt>
      <trkpt lat="28.214183333333335" lon="-16.496083333333335">
        <ele>1380</ele>
        <time>2024-03-30T12:47:14.000Z</time>
      </trkpt>
      <trkpt lat="28.214216666666665" lon="-16.496066666666668">
        <ele>1381</ele>
        <time>2024-03-30T12:47:15.000Z</time>
      </trkpt>
      <trkpt lat="28.214266666666667" lon="-16.496033333333333">
        <ele>1382</ele>
        <time>2024-03-30T12:47:16.000Z</time>
      </trkpt>
      <trkpt lat="28.214316666666665" lon="-16.496">
        <ele>1383</ele>
        <time>2024-03-30T12:47:17.000Z</time>
      </trkpt>
      <trkpt lat="28.214366666666667" lon="-16.495966666666668">
        <ele>1385</ele>
        <time>2024-03-30T12:47:18.000Z</time>
      </trkpt>
      <trkpt lat="28.214433333333332" lon="-16.49595">
        <ele>1386</ele>
        <time>2024-03-30T12:47:19.000Z</time>
      </trkpt>
      <trkpt lat="28.2145" lon="-16.49595">
        <ele>1388</ele>
        <time>2024-03-30T12:47:20.000Z</time>
      </trkpt>
      <trkpt lat="28.214583333333334" lon="-16.495933333333333">
        <ele>1390</ele>
        <time>2024-03-30T12:47:21.000Z</time>
      </trkpt>
      <trkpt lat="28.214666666666666" lon="-16.495933333333333">
        <ele>1392</ele>
        <time>2024-03-30T12:47:22.000Z</time>
      </trkpt>
      <trkpt lat="28.21475" lon="-16.49595">
        <ele>1393</ele>
        <time>2024-03-30T12:47:23.000Z</time>
      </trkpt>
      <trkpt lat="28.214833333333335" lon="-16.496016666666666">
        <ele>1395</ele>
        <time>2024-03-30T12:47:24.000Z</time>
      </trkpt>
      <trkpt lat="28.2149" lon="-16.4961">
        <ele>1398</ele>
        <time>2024-03-30T12:47:25.000Z</time>
      </trkpt>
      <trkpt lat="28.214966666666665" lon="-16.4962">
        <ele>1401</ele>
        <time>2024-03-30T12:47:26.000Z</time>
      </trkpt>
      <trkpt lat="28.215" lon="-16.4963">
        <ele>1403</ele>
        <time>2024-03-30T12:47:27.000Z</time>
      </trkpt>
      <trkpt lat="28.215016666666667" lon="-16.496416666666665">
        <ele>1404</ele>
        <time>2024-03-30T12:47:28.000Z</time>
      </trkpt>
      <trkpt lat="28.215033333333334" lon="-16.496566666666666">
        <ele>1404</ele>
        <time>2024-03-30T12:47:29.000Z</time>
      </trkpt>
      <trkpt lat="28.215016666666667" lon="-16.496716666666668">
        <ele>1404</ele>
        <time>2024-03-30T12:47:30.000Z</time>
      </trkpt>
      <trkpt lat="28.214983333333333" lon="-16.496883333333333">
        <ele>1405</ele>
        <time>2024-03-30T12:47:31.000Z</time>
      </trkpt>
      <trkpt lat="28.214933333333335" lon="-16.497016666666667">
        <ele>1407</ele>
        <time>2024-03-30T12:47:32.000Z</time>
      </trkpt>
      <trkpt lat="28.21485" lon="-16.49715">
        <ele>1409</ele>
        <time>2024-03-30T12:47:33.000Z</time>
      </trkpt>
      <trkpt lat="28.214783333333333" lon="-16.49726666666667">
        <ele>1411</ele>
        <time>2024-03-30T12:47:34.000Z</time>
      </trkpt>
      <trkpt lat="28.214683333333333" lon="-16.49735">
        <ele>1413</ele>
        <time>2024-03-30T12:47:35.000Z</time>
      </trkpt>
      <trkpt lat="28.2146" lon="-16.497416666666666">
        <ele>1415</ele>
        <time>2024-03-30T12:47:36.000Z</time>
      </trkpt>
      <trkpt lat="28.21451666666667" lon="-16.49745">
        <ele>1416</ele>
        <time>2024-03-30T12:47:37.000Z</time>
      </trkpt>
      <trkpt lat="28.214433333333332" lon="-16.49745">
        <ele>1416</ele>
        <time>2024-03-30T12:47:38.000Z</time>
      </trkpt>
      <trkpt lat="28.214383333333334" lon="-16.497416666666666">
        <ele>1418</ele>
        <time>2024-03-30T12:47:39.000Z</time>
      </trkpt>
      <trkpt lat="28.214366666666667" lon="-16.49738333333333">
        <ele>1420</ele>
        <time>2024-03-30T12:47:40.000Z</time>
      </trkpt>
      <trkpt lat="28.214366666666667" lon="-16.497333333333334">
        <ele>1421</ele>
        <time>2024-03-30T12:47:41.000Z</time>
      </trkpt>
      <trkpt lat="28.214383333333334" lon="-16.497283333333332">
        <ele>1423</ele>
        <time>2024-03-30T12:47:42.000Z</time>
      </trkpt>
      <trkpt lat="28.2144" lon="-16.49725">
        <ele>1425</ele>
        <time>2024-03-30T12:47:43.000Z</time>
      </trkpt>
      <trkpt lat="28.214433333333332" lon="-16.497216666666667">
        <ele>1429</ele>
        <time>2024-03-30T12:47:44.000Z</time>
      </trkpt>
      <trkpt lat="28.21445" lon="-16.497183333333332">
        <ele>1432</ele>
        <time>2024-03-30T12:47:45.000Z</time>
      </trkpt>
      <trkpt lat="28.2145" lon="-16.497166666666665">
        <ele>1435</ele>
        <time>2024-03-30T12:47:46.000Z</time>
      </trkpt>
      <trkpt lat="28.21455" lon="-16.497183333333332">
        <ele>1436</ele>
        <time>2024-03-30T12:47:47.000Z</time>
      </trkpt>
      <trkpt lat="28.214616666666668" lon="-16.497233333333334">
        <ele>1435</ele>
        <time>2024-03-30T12:47:48.000Z</time>
      </trkpt>
      <trkpt lat="28.214683333333333" lon="-16.497316666666666">
        <ele>1434</ele>
        <time>2024-03-30T12:47:49.000Z</time>
      </trkpt>
      <trkpt lat="28.21475" lon="-16.497433333333333">
        <ele>1434</ele>
        <time>2024-03-30T12:47:50.000Z</time>
      </trkpt>
      <trkpt lat="28.214816666666668" lon="-16.497566666666668">
        <ele>1436</ele>
        <time>2024-03-30T12:47:51.000Z</time>
      </trkpt>
      <trkpt lat="28.21485" lon="-16.497716666666665">
        <ele>1438</ele>
        <time>2024-03-30T12:47:52.000Z</time>
      </trkpt>
      <trkpt lat="28.214833333333335" lon="-16.49785">
        <ele>1439</ele>
        <time>2024-03-30T12:47:53.000Z</time>
      </trkpt>
      <trkpt lat="28.2148" lon="-16.498">
        <ele>1440</ele>
        <time>2024-03-30T12:47:54.000Z</time>
      </trkpt>
      <trkpt lat="28.214733333333335" lon="-16.498116666666668">
        <ele>1439</ele>
        <time>2024-03-30T12:47:55.000Z</time>
      </trkpt>
      <trkpt lat="28.214666666666666" lon="-16.49823333333333">
        <ele>1439</ele>
        <time>2024-03-30T12:47:56.000Z</time>
      </trkpt>
      <trkpt lat="28.214583333333334" lon="-16.49835">
        <ele>1439</ele>
        <time>2024-03-30T12:47:57.000Z</time>
      </trkpt>
      <trkpt lat="28.214483333333334" lon="-16.49845">
        <ele>1441</ele>
        <time>2024-03-30T12:47:58.000Z</time>
      </trkpt>
      <trkpt lat="28.2144" lon="-16.498533333333334">
        <ele>1443</ele>
        <time>2024-03-30T12:47:59.000Z</time>
      </trkpt>
      <trkpt lat="28.214316666666665" lon="-16.4986">
        <ele>1445</ele>
        <time>2024-03-30T12:48:00.000Z</time>
      </trkpt>
      <trkpt lat="28.21425" lon="-16.498616666666667">
        <ele>1445</ele>
        <time>2024-03-30T12:48:01.000Z</time>
      </trkpt>
      <trkpt lat="28.2142" lon="-16.498616666666667">
        <ele>1445</ele>
        <time>2024-03-30T12:48:02.000Z</time>
      </trkpt>
      <trkpt lat="28.214166666666667" lon="-16.498583333333332">
        <ele>1444</ele>
        <time>2024-03-30T12:48:03.000Z</time>
      </trkpt>
      <trkpt lat="28.214166666666667" lon="-16.498533333333334">
        <ele>1443</ele>
        <time>2024-03-30T12:48:04.000Z</time>
      </trkpt>
      <trkpt lat="28.2142" lon="-16.498483333333333">
        <ele>1444</ele>
        <time>2024-03-30T12:48:05.000Z</time>
      </trkpt>
      <trkpt lat="28.21425" lon="-16.498466666666666">
        <ele>1444</ele>
        <time>2024-03-30T12:48:06.000Z</time>
      </trkpt>
      <trkpt lat="28.214333333333332" lon="-16.498466666666666">
        <ele>1445</ele>
        <time>2024-03-30T12:48:07.000Z</time>
      </trkpt>
      <trkpt lat="28.214433333333332" lon="-16.498533333333334">
        <ele>1444</ele>
        <time>2024-03-30T12:48:08.000Z</time>
      </trkpt>
      <trkpt lat="28.2145" lon="-16.498633333333334">
        <ele>1444</ele>
        <time>2024-03-30T12:48:09.000Z</time>
      </trkpt>
      <trkpt lat="28.214566666666666" lon="-16.498783333333332">
        <ele>1445</ele>
        <time>2024-03-30T12:48:10.000Z</time>
      </trkpt>
      <trkpt lat="28.2146" lon="-16.498933333333333">
        <ele>1446</ele>
        <time>2024-03-30T12:48:11.000Z</time>
      </trkpt>
      <trkpt lat="28.21463333333333" lon="-16.499083333333335">
        <ele>1447</ele>
        <time>2024-03-30T12:48:12.000Z</time>
      </trkpt>
      <trkpt lat="28.21463333333333" lon="-16.499216666666666">
        <ele>1447</ele>
        <time>2024-03-30T12:48:13.000Z</time>
      </trkpt>
      <trkpt lat="28.214616666666668" lon="-16.499383333333334">
        <ele>1446</ele>
        <time>2024-03-30T12:48:14.000Z</time>
      </trkpt>
      <trkpt lat="28.214583333333334" lon="-16.49955">
        <ele>1446</ele>
        <time>2024-03-30T12:48:15.000Z</time>
      </trkpt>
      <trkpt lat="28.21455" lon="-16.4997">
        <ele>1445</ele>
        <time>2024-03-30T12:48:16.000Z</time>
      </trkpt>
      <trkpt lat="28.2145" lon="-16.49985">
        <ele>1445</ele>
        <time>2024-03-30T12:48:17.000Z</time>
      </trkpt>
      <trkpt lat="28.214433333333332" lon="-16.5">
        <ele>1444</ele>
        <time>2024-03-30T12:48:18.000Z</time>
      </trkpt>
      <trkpt lat="28.214383333333334" lon="-16.500133333333334">
        <ele>1444</ele>
        <time>2024-03-30T12:48:19.000Z</time>
      </trkpt>
      <trkpt lat="28.2143" lon="-16.500283333333332">
        <ele>1444</ele>
        <time>2024-03-30T12:48:20.000Z</time>
      </trkpt>
      <trkpt lat="28.214233333333333" lon="-16.5004">
        <ele>1444</ele>
        <time>2024-03-30T12:48:21.000Z</time>
      </trkpt>
      <trkpt lat="28.21415" lon="-16.500516666666666">
        <ele>1444</ele>
        <time>2024-03-30T12:48:22.000Z</time>
      </trkpt>
      <trkpt lat="28.214083333333335" lon="-16.5006">
        <ele>1443</ele>
        <time>2024-03-30T12:48:23.000Z</time>
      </trkpt>
      <trkpt lat="28.214" lon="-16.5007">
        <ele>1442</ele>
        <time>2024-03-30T12:48:24.000Z</time>
      </trkpt>
      <trkpt lat="28.213916666666666" lon="-16.500783333333334">
        <ele>1440</ele>
        <time>2024-03-30T12:48:25.000Z</time>
      </trkpt>
      <trkpt lat="28.213816666666666" lon="-16.500866666666667">
        <ele>1439</ele>
        <time>2024-03-30T12:48:26.000Z</time>
      </trkpt>
      <trkpt lat="28.213716666666667" lon="-16.500966666666667">
        <ele>1437</ele>
        <time>2024-03-30T12:48:27.000Z</time>
      </trkpt>
      <trkpt lat="28.213616666666667" lon="-16.50105">
        <ele>1434</ele>
        <time>2024-03-30T12:48:28.000Z</time>
      </trkpt>
      <trkpt lat="28.2135" lon="-16.50115">
        <ele>1431</ele>
        <time>2024-03-30T12:48:29.000Z</time>
      </trkpt>
      <trkpt lat="28.213383333333333" lon="-16.50125">
        <ele>1429</ele>
        <time>2024-03-30T12:48:30.000Z</time>
      </trkpt>
      <trkpt lat="28.213266666666666" lon="-16.50135">
        <ele>1429</ele>
        <time>2024-03-30T12:48:31.000Z</time>
      </trkpt>
      <trkpt lat="28.21315" lon="-16.50145">
        <ele>1430</ele>
        <time>2024-03-30T12:48:32.000Z</time>
      </trkpt>
      <trkpt lat="28.213033333333332" lon="-16.501516666666667">
        <ele>1431</ele>
        <time>2024-03-30T12:48:33.000Z</time>
      </trkpt>
      <trkpt lat="28.21295" lon="-16.5016">
        <ele>1430</ele>
        <time>2024-03-30T12:48:34.000Z</time>
      </trkpt>
      <trkpt lat="28.21285" lon="-16.501683333333332">
        <ele>1428</ele>
        <time>2024-03-30T12:48:35.000Z</time>
      </trkpt>
      <trkpt lat="28.21275" lon="-16.5018">
        <ele>1425</ele>
        <time>2024-03-30T12:48:36.000Z</time>
      </trkpt>
      <trkpt lat="28.212633333333333" lon="-16.501916666666666">
        <ele>1423</ele>
        <time>2024-03-30T12:48:37.000Z</time>
      </trkpt>
      <trkpt lat="28.2125" lon="-16.502016666666666">
        <ele>1423</ele>
        <time>2024-03-30T12:48:38.000Z</time>
      </trkpt>
      <trkpt lat="28.2124" lon="-16.502116666666666">
        <ele>1424</ele>
        <time>2024-03-30T12:48:39.000Z</time>
      </trkpt>
      <trkpt lat="28.2123" lon="-16.5022">
        <ele>1425</ele>
        <time>2024-03-30T12:48:40.000Z</time>
      </trkpt>
      <trkpt lat="28.212216666666666" lon="-16.502283333333335">
        <ele>1423</ele>
        <time>2024-03-30T12:48:41.000Z</time>
      </trkpt>
      <trkpt lat="28.212133333333334" lon="-16.502383333333334">
        <ele>1420</ele>
        <time>2024-03-30T12:48:42.000Z</time>
      </trkpt>
      <trkpt lat="28.212033333333334" lon="-16.5025">
        <ele>1417</ele>
        <time>2024-03-30T12:48:43.000Z</time>
      </trkpt>
      <trkpt lat="28.211916666666667" lon="-16.50261666666667">
        <ele>1415</ele>
        <time>2024-03-30T12:48:44.000Z</time>
      </trkpt>
      <trkpt lat="28.2118" lon="-16.50273333333333">
        <ele>1415</ele>
        <time>2024-03-30T12:48:45.000Z</time>
      </trkpt>
      <trkpt lat="28.2117" lon="-16.502833333333335">
        <ele>1416</ele>
        <time>2024-03-30T12:48:46.000Z</time>
      </trkpt>
      <trkpt lat="28.2116" lon="-16.502933333333335">
        <ele>1415</ele>
        <time>2024-03-30T12:48:47.000Z</time>
      </trkpt>
      <trkpt lat="28.211533333333332" lon="-16.503033333333335">
        <ele>1412</ele>
        <time>2024-03-30T12:48:48.000Z</time>
      </trkpt>
      <trkpt lat="28.211433333333332" lon="-16.50315">
        <ele>1407</ele>
        <time>2024-03-30T12:48:49.000Z</time>
      </trkpt>
      <trkpt lat="28.211333333333332" lon="-16.503283333333332">
        <ele>1402</ele>
        <time>2024-03-30T12:48:50.000Z</time>
      </trkpt>
      <trkpt lat="28.21125" lon="-16.503433333333334">
        <ele>1401</ele>
        <time>2024-03-30T12:48:51.000Z</time>
      </trkpt>
      <trkpt lat="28.211166666666667" lon="-16.50355">
        <ele>1403</ele>
        <time>2024-03-30T12:48:52.000Z</time>
      </trkpt>
      <trkpt lat="28.211116666666666" lon="-16.503666666666668">
        <ele>1405</ele>
        <time>2024-03-30T12:48:53.000Z</time>
      </trkpt>
      <trkpt lat="28.211066666666667" lon="-16.503766666666667">
        <ele>1403</ele>
        <time>2024-03-30T12:48:54.000Z</time>
      </trkpt>
      <trkpt lat="28.211016666666666" lon="-16.503883333333334">
        <ele>1399</ele>
        <time>2024-03-30T12:48:55.000Z</time>
      </trkpt>
      <trkpt lat="28.210933333333333" lon="-16.504016666666665">
        <ele>1394</ele>
        <time>2024-03-30T12:48:56.000Z</time>
      </trkpt>
      <trkpt lat="28.210833333333333" lon="-16.50415">
        <ele>1390</ele>
        <time>2024-03-30T12:48:57.000Z</time>
      </trkpt>
      <trkpt lat="28.210766666666668" lon="-16.504316666666668">
        <ele>1390</ele>
        <time>2024-03-30T12:48:58.000Z</time>
      </trkpt>
      <trkpt lat="28.210716666666666" lon="-16.504466666666666">
        <ele>1391</ele>
        <time>2024-03-30T12:48:59.000Z</time>
      </trkpt>
      <trkpt lat="28.210716666666666" lon="-16.5046">
        <ele>1393</ele>
        <time>2024-03-30T12:49:00.000Z</time>
      </trkpt>
      <trkpt lat="28.210716666666666" lon="-16.504733333333334">
        <ele>1393</ele>
        <time>2024-03-30T12:49:01.000Z</time>
      </trkpt>
      <trkpt lat="28.210716666666666" lon="-16.50485">
        <ele>1392</ele>
        <time>2024-03-30T12:49:02.000Z</time>
      </trkpt>
      <trkpt lat="28.2107" lon="-16.505016666666666">
        <ele>1389</ele>
        <time>2024-03-30T12:49:03.000Z</time>
      </trkpt>
      <trkpt lat="28.210716666666666" lon="-16.5052">
        <ele>1386</ele>
        <time>2024-03-30T12:49:04.000Z</time>
      </trkpt>
      <trkpt lat="28.210733333333334" lon="-16.505383333333334">
        <ele>1386</ele>
        <time>2024-03-30T12:49:05.000Z</time>
      </trkpt>
      <trkpt lat="28.2108" lon="-16.505533333333332">
        <ele>1388</ele>
        <time>2024-03-30T12:49:06.000Z</time>
      </trkpt>
      <trkpt lat="28.210866666666668" lon="-16.505633333333332">
        <ele>1390</ele>
        <time>2024-03-30T12:49:07.000Z</time>
      </trkpt>
      <trkpt lat="28.210933333333333" lon="-16.505683333333334">
        <ele>1390</ele>
        <time>2024-03-30T12:49:08.000Z</time>
      </trkpt>
      <trkpt lat="28.211" lon="-16.505733333333332">
        <ele>1390</ele>
        <time>2024-03-30T12:49:09.000Z</time>
      </trkpt>
      <trkpt lat="28.211066666666667" lon="-16.505783333333333">
        <ele>1389</ele>
        <time>2024-03-30T12:49:10.000Z</time>
      </trkpt>
      <trkpt lat="28.211133333333333" lon="-16.505833333333335">
        <ele>1387</ele>
        <time>2024-03-30T12:49:11.000Z</time>
      </trkpt>
      <trkpt lat="28.211233333333332" lon="-16.505866666666666">
        <ele>1385</ele>
        <time>2024-03-30T12:49:12.000Z</time>
      </trkpt>
      <trkpt lat="28.211316666666665" lon="-16.50585">
        <ele>1383</ele>
        <time>2024-03-30T12:49:13.000Z</time>
      </trkpt>
      <trkpt lat="28.2114" lon="-16.5058">
        <ele>1383</ele>
        <time>2024-03-30T12:49:14.000Z</time>
      </trkpt>
      <trkpt lat="28.211433333333332" lon="-16.505733333333332">
        <ele>1384</ele>
        <time>2024-03-30T12:49:15.000Z</time>
      </trkpt>
      <trkpt lat="28.211466666666666" lon="-16.505666666666666">
        <ele>1385</ele>
        <time>2024-03-30T12:49:16.000Z</time>
      </trkpt>
      <trkpt lat="28.211483333333334" lon="-16.5056">
        <ele>1385</ele>
        <time>2024-03-30T12:49:17.000Z</time>
      </trkpt>
      <trkpt lat="28.2115" lon="-16.505533333333332">
        <ele>1383</ele>
        <time>2024-03-30T12:49:18.000Z</time>
      </trkpt>
      <trkpt lat="28.2115" lon="-16.505466666666667">
        <ele>1380</ele>
        <time>2024-03-30T12:49:19.000Z</time>
      </trkpt>
      <trkpt lat="28.211516666666668" lon="-16.505383333333334">
        <ele>1377</ele>
        <time>2024-03-30T12:49:20.000Z</time>
      </trkpt>
      <trkpt lat="28.21155" lon="-16.5053">
        <ele>1373</ele>
        <time>2024-03-30T12:49:21.000Z</time>
      </trkpt>
      <trkpt lat="28.211566666666666" lon="-16.5052">
        <ele>1370</ele>
        <time>2024-03-30T12:49:22.000Z</time>
      </trkpt>
      <trkpt lat="28.2116" lon="-16.50508333333333">
        <ele>1368</ele>
        <time>2024-03-30T12:49:23.000Z</time>
      </trkpt>
      <trkpt lat="28.2116" lon="-16.504983333333332">
        <ele>1367</ele>
        <time>2024-03-30T12:49:24.000Z</time>
      </trkpt>
      <trkpt lat="28.211616666666668" lon="-16.504883333333332">
        <ele>1366</ele>
        <time>2024-03-30T12:49:25.000Z</time>
      </trkpt>
      <trkpt lat="28.211616666666668" lon="-16.5048">
        <ele>1366</ele>
        <time>2024-03-30T12:49:26.000Z</time>
      </trkpt>
      <trkpt lat="28.21163333333333" lon="-16.504716666666667">
        <ele>1365</ele>
        <time>2024-03-30T12:49:27.000Z</time>
      </trkpt>
      <trkpt lat="28.21163333333333" lon="-16.504633333333334">
        <ele>1363</ele>
        <time>2024-03-30T12:49:28.000Z</time>
      </trkpt>
      <trkpt lat="28.21163333333333" lon="-16.504566666666665">
        <ele>1360</ele>
        <time>2024-03-30T12:49:29.000Z</time>
      </trkpt>
      <trkpt lat="28.21163333333333" lon="-16.504516666666667">
        <ele>1356</ele>
        <time>2024-03-30T12:49:30.000Z</time>
      </trkpt>
      <trkpt lat="28.21165" lon="-16.50445">
        <ele>1351</ele>
        <time>2024-03-30T12:49:31.000Z</time>
      </trkpt>
      <trkpt lat="28.211716666666668" lon="-16.504383333333333">
        <ele>1346</ele>
        <time>2024-03-30T12:49:32.000Z</time>
      </trkpt>
      <trkpt lat="28.211783333333333" lon="-16.504283333333333">
        <ele>1345</ele>
        <time>2024-03-30T12:49:33.000Z</time>
      </trkpt>
      <trkpt lat="28.21185" lon="-16.504216666666668">
        <ele>1346</ele>
        <time>2024-03-30T12:49:34.000Z</time>
      </trkpt>
      <trkpt lat="28.211883333333333" lon="-16.50415">
        <ele>1347</ele>
        <time>2024-03-30T12:49:35.000Z</time>
      </trkpt>
      <trkpt lat="28.2119" lon="-16.5041">
        <ele>1347</ele>
        <time>2024-03-30T12:49:36.000Z</time>
      </trkpt>
      <trkpt lat="28.21195" lon="-16.50405">
        <ele>1345</ele>
        <time>2024-03-30T12:49:37.000Z</time>
      </trkpt>
      <trkpt lat="28.211983333333333" lon="-16.503983333333334">
        <ele>1341</ele>
        <time>2024-03-30T12:49:38.000Z</time>
      </trkpt>
      <trkpt lat="28.21205" lon="-16.503916666666665">
        <ele>1338</ele>
        <time>2024-03-30T12:49:39.000Z</time>
      </trkpt>
      <trkpt lat="28.2121" lon="-16.503833333333333">
        <ele>1336</ele>
        <time>2024-03-30T12:49:40.000Z</time>
      </trkpt>
      <trkpt lat="28.212116666666667" lon="-16.503733333333333">
        <ele>1335</ele>
        <time>2024-03-30T12:49:41.000Z</time>
      </trkpt>
      <trkpt lat="28.212116666666667" lon="-16.503633333333333">
        <ele>1334</ele>
        <time>2024-03-30T12:49:42.000Z</time>
      </trkpt>
      <trkpt lat="28.2121" lon="-16.503533333333333">
        <ele>1334</ele>
        <time>2024-03-30T12:49:43.000Z</time>
      </trkpt>
      <trkpt lat="28.212083333333332" lon="-16.50345">
        <ele>1334</ele>
        <time>2024-03-30T12:49:44.000Z</time>
      </trkpt>
      <trkpt lat="28.212116666666667" lon="-16.50335">
        <ele>1334</ele>
        <time>2024-03-30T12:49:45.000Z</time>
      </trkpt>
      <trkpt lat="28.21215" lon="-16.503266666666665">
        <ele>1336</ele>
        <time>2024-03-30T12:49:46.000Z</time>
      </trkpt>
      <trkpt lat="28.212183333333332" lon="-16.503183333333332">
        <ele>1338</ele>
        <time>2024-03-30T12:49:47.000Z</time>
      </trkpt>
      <trkpt lat="28.212233333333334" lon="-16.5031">
        <ele>1338</ele>
        <time>2024-03-30T12:49:48.000Z</time>
      </trkpt>
      <trkpt lat="28.212283333333332" lon="-16.503033333333335">
        <ele>1338</ele>
        <time>2024-03-30T12:49:49.000Z</time>
      </trkpt>
      <trkpt lat="28.212333333333333" lon="-16.50295">
        <ele>1338</ele>
        <time>2024-03-30T12:49:50.000Z</time>
      </trkpt>
      <trkpt lat="28.212366666666668" lon="-16.50285">
        <ele>1339</ele>
        <time>2024-03-30T12:49:51.000Z</time>
      </trkpt>
      <trkpt lat="28.21238333333333" lon="-16.502766666666666">
        <ele>1340</ele>
        <time>2024-03-30T12:49:52.000Z</time>
      </trkpt>
      <trkpt lat="28.212416666666666" lon="-16.5027">
        <ele>1341</ele>
        <time>2024-03-30T12:49:53.000Z</time>
      </trkpt>
      <trkpt lat="28.21245" lon="-16.50261666666667">
        <ele>1342</ele>
        <time>2024-03-30T12:49:54.000Z</time>
      </trkpt>
      <trkpt lat="28.212483333333335" lon="-16.502533333333332">
        <ele>1345</ele>
        <time>2024-03-30T12:49:55.000Z</time>
      </trkpt>
      <trkpt lat="28.2125" lon="-16.50245">
        <ele>1348</ele>
        <time>2024-03-30T12:49:56.000Z</time>
      </trkpt>
      <trkpt lat="28.212516666666666" lon="-16.502383333333334">
        <ele>1350</ele>
        <time>2024-03-30T12:49:57.000Z</time>
      </trkpt>
      <trkpt lat="28.21255" lon="-16.502316666666665">
        <ele>1352</ele>
        <time>2024-03-30T12:49:58.000Z</time>
      </trkpt>
      <trkpt lat="28.212566666666667" lon="-16.50225">
        <ele>1354</ele>
        <time>2024-03-30T12:49:59.000Z</time>
      </trkpt>
      <trkpt lat="28.2126" lon="-16.5022">
        <ele>1355</ele>
        <time>2024-03-30T12:50:00.000Z</time>
      </trkpt>
      <trkpt lat="28.21265" lon="-16.50215">
        <ele>1356</ele>
        <time>2024-03-30T12:50:01.000Z</time>
      </trkpt>
      <trkpt lat="28.2127" lon="-16.502116666666666">
        <ele>1356</ele>
        <time>2024-03-30T12:50:02.000Z</time>
      </trkpt>
      <trkpt lat="28.212733333333333" lon="-16.502083333333335">
        <ele>1356</ele>
        <time>2024-03-30T12:50:03.000Z</time>
      </trkpt>
      <trkpt lat="28.212783333333334" lon="-16.502033333333333">
        <ele>1356</ele>
        <time>2024-03-30T12:50:04.000Z</time>
      </trkpt>
      <trkpt lat="28.212833333333332" lon="-16.501966666666668">
        <ele>1355</ele>
        <time>2024-03-30T12:50:05.000Z</time>
      </trkpt>
      <trkpt lat="28.212883333333334" lon="-16.501916666666666">
        <ele>1356</ele>
        <time>2024-03-30T12:50:06.000Z</time>
      </trkpt>
      <trkpt lat="28.21295" lon="-16.50186666666667">
        <ele>1359</ele>
        <time>2024-03-30T12:50:07.000Z</time>
      </trkpt>
      <trkpt lat="28.213" lon="-16.501833333333334">
        <ele>1360</ele>
        <time>2024-03-30T12:50:08.000Z</time>
      </trkpt>
      <trkpt lat="28.213033333333332" lon="-16.5018">
        <ele>1361</ele>
        <time>2024-03-30T12:50:09.000Z</time>
      </trkpt>
      <trkpt lat="28.213083333333334" lon="-16.50175">
        <ele>1360</ele>
        <time>2024-03-30T12:50:10.000Z</time>
      </trkpt>
      <trkpt lat="28.21315" lon="-16.501683333333332">
        <ele>1360</ele>
        <time>2024-03-30T12:50:11.000Z</time>
      </trkpt>
      <trkpt lat="28.213183333333333" lon="-16.501616666666667">
        <ele>1361</ele>
        <time>2024-03-30T12:50:12.000Z</time>
      </trkpt>
      <trkpt lat="28.213233333333335" lon="-16.50155">
        <ele>1363</ele>
        <time>2024-03-30T12:50:13.000Z</time>
      </trkpt>
      <trkpt lat="28.21325" lon="-16.501483333333333">
        <ele>1364</ele>
        <time>2024-03-30T12:50:14.000Z</time>
      </trkpt>
      <trkpt lat="28.2133" lon="-16.501433333333335">
        <ele>1365</ele>
        <time>2024-03-30T12:50:15.000Z</time>
      </trkpt>
      <trkpt lat="28.21335" lon="-16.501366666666666">
        <ele>1365</ele>
        <time>2024-03-30T12:50:16.000Z</time>
      </trkpt>
      <trkpt lat="28.2134" lon="-16.501316666666668">
        <ele>1366</ele>
        <time>2024-03-30T12:50:17.000Z</time>
      </trkpt>
      <trkpt lat="28.21345" lon="-16.501266666666666">
        <ele>1367</ele>
        <time>2024-03-30T12:50:18.000Z</time>
      </trkpt>
      <trkpt lat="28.2135" lon="-16.501216666666668">
        <ele>1368</ele>
        <time>2024-03-30T12:50:19.000Z</time>
      </trkpt>
      <trkpt lat="28.213533333333334" lon="-16.501183333333334">
        <ele>1369</ele>
        <time>2024-03-30T12:50:20.000Z</time>
      </trkpt>
      <trkpt lat="28.213566666666665" lon="-16.501133333333332">
        <ele>1369</ele>
        <time>2024-03-30T12:50:21.000Z</time>
      </trkpt>
      <trkpt lat="28.213616666666667" lon="-16.501083333333334">
        <ele>1369</ele>
        <time>2024-03-30T12:50:22.000Z</time>
      </trkpt>
      <trkpt lat="28.213683333333332" lon="-16.50105">
        <ele>1369</ele>
        <time>2024-03-30T12:50:23.000Z</time>
      </trkpt>
      <trkpt lat="28.213766666666668" lon="-16.501">
        <ele>1370</ele>
        <time>2024-03-30T12:50:24.000Z</time>
      </trkpt>
      <trkpt lat="28.21385" lon="-16.50095">
        <ele>1372</ele>
        <time>2024-03-30T12:50:25.000Z</time>
      </trkpt>
      <trkpt lat="28.2139" lon="-16.5009">
        <ele>1375</ele>
        <time>2024-03-30T12:50:26.000Z</time>
      </trkpt>
      <trkpt lat="28.21395" lon="-16.50085">
        <ele>1378</ele>
        <time>2024-03-30T12:50:27.000Z</time>
      </trkpt>
      <trkpt lat="28.213983333333335" lon="-16.500816666666665">
        <ele>1381</ele>
        <time>2024-03-30T12:50:28.000Z</time>
      </trkpt>
      <trkpt lat="28.214033333333333" lon="-16.500783333333334">
        <ele>1383</ele>
        <time>2024-03-30T12:50:29.000Z</time>
      </trkpt>
      <trkpt lat="28.2141" lon="-16.50075">
        <ele>1386</ele>
        <time>2024-03-30T12:50:30.000Z</time>
      </trkpt>
      <trkpt lat="28.214133333333333" lon="-16.5007">
        <ele>1388</ele>
        <time>2024-03-30T12:50:31.000Z</time>
      </trkpt>
      <trkpt lat="28.21415" lon="-16.500616666666666">
        <ele>1389</ele>
        <time>2024-03-30T12:50:32.000Z</time>
      </trkpt>
      <trkpt lat="28.214116666666666" lon="-16.500533333333333">
        <ele>1387</ele>
        <time>2024-03-30T12:50:33.000Z</time>
      </trkpt>
      <trkpt lat="28.214066666666668" lon="-16.50045">
        <ele>1385</ele>
        <time>2024-03-30T12:50:34.000Z</time>
      </trkpt>
      <trkpt lat="28.214" lon="-16.500416666666666">
        <ele>1383</ele>
        <time>2024-03-30T12:50:35.000Z</time>
      </trkpt>
      <trkpt lat="28.213916666666666" lon="-16.50045">
        <ele>1381</ele>
        <time>2024-03-30T12:50:36.000Z</time>
      </trkpt>
      <trkpt lat="28.213833333333334" lon="-16.50055">
        <ele>1377</ele>
        <time>2024-03-30T12:50:37.000Z</time>
      </trkpt>
      <trkpt lat="28.213783333333332" lon="-16.500683333333335">
        <ele>1375</ele>
        <time>2024-03-30T12:50:38.000Z</time>
      </trkpt>
      <trkpt lat="28.2138" lon="-16.50085">
        <ele>1373</ele>
        <time>2024-03-30T12:50:39.000Z</time>
      </trkpt>
      <trkpt lat="28.21388333333333" lon="-16.500983333333334">
        <ele>1371</ele>
        <time>2024-03-30T12:50:40.000Z</time>
      </trkpt>
      <trkpt lat="28.214" lon="-16.50105">
        <ele>1371</ele>
        <time>2024-03-30T12:50:41.000Z</time>
      </trkpt>
      <trkpt lat="28.214133333333333" lon="-16.501083333333334">
        <ele>1371</ele>
        <time>2024-03-30T12:50:42.000Z</time>
      </trkpt>
      <trkpt lat="28.214233333333333" lon="-16.501083333333334">
        <ele>1375</ele>
        <time>2024-03-30T12:50:43.000Z</time>
      </trkpt>
      <trkpt lat="28.2143" lon="-16.501083333333334">
        <ele>1379</ele>
        <time>2024-03-30T12:50:44.000Z</time>
      </trkpt>
      <trkpt lat="28.214366666666667" lon="-16.5011">
        <ele>1382</ele>
        <time>2024-03-30T12:50:45.000Z</time>
      </trkpt>
      <trkpt lat="28.214416666666665" lon="-16.501133333333332">
        <ele>1383</ele>
        <time>2024-03-30T12:50:46.000Z</time>
      </trkpt>
      <trkpt lat="28.214483333333334" lon="-16.501166666666666">
        <ele>1383</ele>
        <time>2024-03-30T12:50:47.000Z</time>
      </trkpt>
      <trkpt lat="28.21455" lon="-16.501166666666666">
        <ele>1383</ele>
        <time>2024-03-30T12:50:48.000Z</time>
      </trkpt>
      <trkpt lat="28.21463333333333" lon="-16.50115">
        <ele>1383</ele>
        <time>2024-03-30T12:50:49.000Z</time>
      </trkpt>
      <trkpt lat="28.214733333333335" lon="-16.501116666666668">
        <ele>1384</ele>
        <time>2024-03-30T12:50:50.000Z</time>
      </trkpt>
      <trkpt lat="28.214816666666668" lon="-16.501066666666667">
        <ele>1386</ele>
        <time>2024-03-30T12:50:51.000Z</time>
      </trkpt>
      <trkpt lat="28.214883333333333" lon="-16.501016666666665">
        <ele>1388</ele>
        <time>2024-03-30T12:50:52.000Z</time>
      </trkpt>
      <trkpt lat="28.21495" lon="-16.50095">
        <ele>1390</ele>
        <time>2024-03-30T12:50:53.000Z</time>
      </trkpt>
      <trkpt lat="28.215" lon="-16.5009">
        <ele>1391</ele>
        <time>2024-03-30T12:50:54.000Z</time>
      </trkpt>
      <trkpt lat="28.215066666666665" lon="-16.500866666666667">
        <ele>1392</ele>
        <time>2024-03-30T12:50:55.000Z</time>
      </trkpt>
      <trkpt lat="28.21515" lon="-16.500816666666665">
        <ele>1392</ele>
        <time>2024-03-30T12:50:56.000Z</time>
      </trkpt>
      <trkpt lat="28.215233333333334" lon="-16.500783333333334">
        <ele>1393</ele>
        <time>2024-03-30T12:50:57.000Z</time>
      </trkpt>
      <trkpt lat="28.215316666666666" lon="-16.50075">
        <ele>1395</ele>
        <time>2024-03-30T12:50:58.000Z</time>
      </trkpt>
      <trkpt lat="28.21538333333333" lon="-16.5007">
        <ele>1396</ele>
        <time>2024-03-30T12:50:59.000Z</time>
      </trkpt>
      <trkpt lat="28.215433333333333" lon="-16.500683333333335">
        <ele>1397</ele>
        <time>2024-03-30T12:51:00.000Z</time>
      </trkpt>
      <trkpt lat="28.2155" lon="-16.50065">
        <ele>1398</ele>
        <time>2024-03-30T12:51:01.000Z</time>
      </trkpt>
      <trkpt lat="28.215566666666668" lon="-16.500616666666666">
        <ele>1397</ele>
        <time>2024-03-30T12:51:02.000Z</time>
      </trkpt>
      <trkpt lat="28.215633333333333" lon="-16.500583333333335">
        <ele>1398</ele>
        <time>2024-03-30T12:51:03.000Z</time>
      </trkpt>
      <trkpt lat="28.2157" lon="-16.50055">
        <ele>1398</ele>
        <time>2024-03-30T12:51:04.000Z</time>
      </trkpt>
      <trkpt lat="28.21575" lon="-16.5005">
        <ele>1399</ele>
        <time>2024-03-30T12:51:05.000Z</time>
      </trkpt>
      <trkpt lat="28.2158" lon="-16.50045">
        <ele>1399</ele>
        <time>2024-03-30T12:51:06.000Z</time>
      </trkpt>
      <trkpt lat="28.21585" lon="-16.500383333333332">
        <ele>1400</ele>
        <time>2024-03-30T12:51:07.000Z</time>
      </trkpt>
      <trkpt lat="28.215916666666665" lon="-16.500333333333334">
        <ele>1401</ele>
        <time>2024-03-30T12:51:08.000Z</time>
      </trkpt>
      <trkpt lat="28.215966666666667" lon="-16.50026666666667">
        <ele>1402</ele>
        <time>2024-03-30T12:51:09.000Z</time>
      </trkpt>
      <trkpt lat="28.21601666666667" lon="-16.500216666666667">
        <ele>1404</ele>
        <time>2024-03-30T12:51:10.000Z</time>
      </trkpt>
      <trkpt lat="28.21605" lon="-16.50015">
        <ele>1407</ele>
        <time>2024-03-30T12:51:11.000Z</time>
      </trkpt>
      <trkpt lat="28.216083333333334" lon="-16.500116666666667">
        <ele>1408</ele>
        <time>2024-03-30T12:51:12.000Z</time>
      </trkpt>
      <trkpt lat="28.2161" lon="-16.500066666666665">
        <ele>1408</ele>
        <time>2024-03-30T12:51:13.000Z</time>
      </trkpt>
      <trkpt lat="28.21613333333333" lon="-16.500016666666667">
        <ele>1406</ele>
        <time>2024-03-30T12:51:14.000Z</time>
      </trkpt>
      <trkpt lat="28.216183333333333" lon="-16.49995">
        <ele>1403</ele>
        <time>2024-03-30T12:51:15.000Z</time>
      </trkpt>
      <trkpt lat="28.21625" lon="-16.499883333333333">
        <ele>1402</ele>
        <time>2024-03-30T12:51:16.000Z</time>
      </trkpt>
      <trkpt lat="28.216333333333335" lon="-16.499816666666668">
        <ele>1402</ele>
        <time>2024-03-30T12:51:17.000Z</time>
      </trkpt>
      <trkpt lat="28.216383333333333" lon="-16.499766666666666">
        <ele>1406</ele>
        <time>2024-03-30T12:51:18.000Z</time>
      </trkpt>
      <trkpt lat="28.21645" lon="-16.49973333333333">
        <ele>1409</ele>
        <time>2024-03-30T12:51:19.000Z</time>
      </trkpt>
      <trkpt lat="28.2165" lon="-16.499716666666668">
        <ele>1410</ele>
        <time>2024-03-30T12:51:20.000Z</time>
      </trkpt>
      <trkpt lat="28.216533333333334" lon="-16.499716666666668">
        <ele>1410</ele>
        <time>2024-03-30T12:51:21.000Z</time>
      </trkpt>
      <trkpt lat="28.216583333333332" lon="-16.49973333333333">
        <ele>1408</ele>
        <time>2024-03-30T12:51:22.000Z</time>
      </trkpt>
      <trkpt lat="28.21665" lon="-16.499716666666668">
        <ele>1407</ele>
        <time>2024-03-30T12:51:23.000Z</time>
      </trkpt>
      <trkpt lat="28.21675" lon="-16.4997">
        <ele>1407</ele>
        <time>2024-03-30T12:51:24.000Z</time>
      </trkpt>
      <trkpt lat="28.216833333333334" lon="-16.49965">
        <ele>1409</ele>
        <time>2024-03-30T12:51:25.000Z</time>
      </trkpt>
      <trkpt lat="28.216916666666666" lon="-16.4996">
        <ele>1412</ele>
        <time>2024-03-30T12:51:26.000Z</time>
      </trkpt>
      <trkpt lat="28.217" lon="-16.499533333333332">
        <ele>1416</ele>
        <time>2024-03-30T12:51:27.000Z</time>
      </trkpt>
      <trkpt lat="28.21705" lon="-16.499483333333334">
        <ele>1421</ele>
        <time>2024-03-30T12:51:28.000Z</time>
      </trkpt>
      <trkpt lat="28.2171" lon="-16.49945">
        <ele>1424</ele>
        <time>2024-03-30T12:51:29.000Z</time>
      </trkpt>
      <trkpt lat="28.21715" lon="-16.499416666666665">
        <ele>1426</ele>
        <time>2024-03-30T12:51:30.000Z</time>
      </trkpt>
      <trkpt lat="28.217216666666666" lon="-16.499383333333334">
        <ele>1426</ele>
        <time>2024-03-30T12:51:31.000Z</time>
      </trkpt>
      <trkpt lat="28.217283333333334" lon="-16.49935">
        <ele>1426</ele>
        <time>2024-03-30T12:51:32.000Z</time>
      </trkpt>
      <trkpt lat="28.217366666666667" lon="-16.499316666666665">
        <ele>1426</ele>
        <time>2024-03-30T12:51:33.000Z</time>
      </trkpt>
      <trkpt lat="28.217466666666667" lon="-16.499266666666667">
        <ele>1428</ele>
        <time>2024-03-30T12:51:34.000Z</time>
      </trkpt>
      <trkpt lat="28.217533333333332" lon="-16.499233333333333">
        <ele>1432</ele>
        <time>2024-03-30T12:51:35.000Z</time>
      </trkpt>
      <trkpt lat="28.2176" lon="-16.499216666666666">
        <ele>1435</ele>
        <time>2024-03-30T12:51:36.000Z</time>
      </trkpt>
      <trkpt lat="28.21765" lon="-16.499183333333335">
        <ele>1436</ele>
        <time>2024-03-30T12:51:37.000Z</time>
      </trkpt>
      <trkpt lat="28.217716666666668" lon="-16.49915">
        <ele>1436</ele>
        <time>2024-03-30T12:51:38.000Z</time>
      </trkpt>
      <trkpt lat="28.217783333333333" lon="-16.4991">
        <ele>1435</ele>
        <time>2024-03-30T12:51:39.000Z</time>
      </trkpt>
      <trkpt lat="28.217883333333333" lon="-16.499016666666666">
        <ele>1435</ele>
        <time>2024-03-30T12:51:40.000Z</time>
      </trkpt>
      <trkpt lat="28.218" lon="-16.49895">
        <ele>1436</ele>
        <time>2024-03-30T12:51:41.000Z</time>
      </trkpt>
      <trkpt lat="28.218083333333333" lon="-16.498883333333332">
        <ele>1440</ele>
        <time>2024-03-30T12:51:42.000Z</time>
      </trkpt>
      <trkpt lat="28.218166666666665" lon="-16.49885">
        <ele>1443</ele>
        <time>2024-03-30T12:51:43.000Z</time>
      </trkpt>
      <trkpt lat="28.218233333333334" lon="-16.498816666666666">
        <ele>1444</ele>
        <time>2024-03-30T12:51:44.000Z</time>
      </trkpt>
      <trkpt lat="28.218316666666666" lon="-16.4988">
        <ele>1443</ele>
        <time>2024-03-30T12:51:45.000Z</time>
      </trkpt>
      <trkpt lat="28.2184" lon="-16.49875">
        <ele>1442</ele>
        <time>2024-03-30T12:51:46.000Z</time>
      </trkpt>
      <trkpt lat="28.2185" lon="-16.4987">
        <ele>1443</ele>
        <time>2024-03-30T12:51:47.000Z</time>
      </trkpt>
      <trkpt lat="28.2186" lon="-16.498633333333334">
        <ele>1444</ele>
        <time>2024-03-30T12:51:48.000Z</time>
      </trkpt>
      <trkpt lat="28.218683333333335" lon="-16.498566666666665">
        <ele>1446</ele>
        <time>2024-03-30T12:51:49.000Z</time>
      </trkpt>
      <trkpt lat="28.218766666666667" lon="-16.498516666666667">
        <ele>1447</ele>
        <time>2024-03-30T12:51:50.000Z</time>
      </trkpt>
      <trkpt lat="28.218866666666667" lon="-16.498466666666666">
        <ele>1447</ele>
        <time>2024-03-30T12:51:51.000Z</time>
      </trkpt>
      <trkpt lat="28.21895" lon="-16.49845">
        <ele>1447</ele>
        <time>2024-03-30T12:51:52.000Z</time>
      </trkpt>
      <trkpt lat="28.219033333333332" lon="-16.4984">
        <ele>1444</ele>
        <time>2024-03-30T12:51:53.000Z</time>
      </trkpt>
      <trkpt lat="28.219133333333332" lon="-16.49835">
        <ele>1441</ele>
        <time>2024-03-30T12:51:54.000Z</time>
      </trkpt>
      <trkpt lat="28.21923333333333" lon="-16.498283333333333">
        <ele>1439</ele>
        <time>2024-03-30T12:51:55.000Z</time>
      </trkpt>
      <trkpt lat="28.219316666666668" lon="-16.498183333333333">
        <ele>1440</ele>
        <time>2024-03-30T12:51:56.000Z</time>
      </trkpt>
      <trkpt lat="28.219383333333333" lon="-16.498066666666666">
        <ele>1441</ele>
        <time>2024-03-30T12:51:57.000Z</time>
      </trkpt>
      <trkpt lat="28.219433333333335" lon="-16.497983333333334">
        <ele>1443</ele>
        <time>2024-03-30T12:51:58.000Z</time>
      </trkpt>
      <trkpt lat="28.219483333333333" lon="-16.4979">
        <ele>1444</ele>
        <time>2024-03-30T12:51:59.000Z</time>
      </trkpt>
      <trkpt lat="28.21955" lon="-16.497816666666665">
        <ele>1444</ele>
        <time>2024-03-30T12:52:00.000Z</time>
      </trkpt>
      <trkpt lat="28.219616666666667" lon="-16.497733333333333">
        <ele>1444</ele>
        <time>2024-03-30T12:52:01.000Z</time>
      </trkpt>
      <trkpt lat="28.2197" lon="-16.497666666666667">
        <ele>1443</ele>
        <time>2024-03-30T12:52:02.000Z</time>
      </trkpt>
      <trkpt lat="28.219766666666665" lon="-16.497583333333335">
        <ele>1443</ele>
        <time>2024-03-30T12:52:03.000Z</time>
      </trkpt>
      <trkpt lat="28.219833333333334" lon="-16.497516666666666">
        <ele>1441</ele>
        <time>2024-03-30T12:52:04.000Z</time>
      </trkpt>
      <trkpt lat="28.2199" lon="-16.49745">
        <ele>1440</ele>
        <time>2024-03-30T12:52:05.000Z</time>
      </trkpt>
      <trkpt lat="28.219966666666668" lon="-16.49738333333333">
        <ele>1440</ele>
        <time>2024-03-30T12:52:06.000Z</time>
      </trkpt>
      <trkpt lat="28.220033333333333" lon="-16.497316666666666">
        <ele>1440</ele>
        <time>2024-03-30T12:52:07.000Z</time>
      </trkpt>
      <trkpt lat="28.2201" lon="-16.49725">
        <ele>1441</ele>
        <time>2024-03-30T12:52:08.000Z</time>
      </trkpt>
      <trkpt lat="28.220166666666668" lon="-16.497183333333332">
        <ele>1444</ele>
        <time>2024-03-30T12:52:09.000Z</time>
      </trkpt>
      <trkpt lat="28.220233333333333" lon="-16.497116666666667">
        <ele>1448</ele>
        <time>2024-03-30T12:52:10.000Z</time>
      </trkpt>
      <trkpt lat="28.2203" lon="-16.497066666666665">
        <ele>1451</ele>
        <time>2024-03-30T12:52:11.000Z</time>
      </trkpt>
      <trkpt lat="28.22035" lon="-16.497">
        <ele>1452</ele>
        <time>2024-03-30T12:52:12.000Z</time>
      </trkpt>
      <trkpt lat="28.2204" lon="-16.49695">
        <ele>1453</ele>
        <time>2024-03-30T12:52:13.000Z</time>
      </trkpt>
      <trkpt lat="28.22045" lon="-16.496866666666666">
        <ele>1453</ele>
        <time>2024-03-30T12:52:14.000Z</time>
      </trkpt>
      <trkpt lat="28.220516666666665" lon="-16.4968">
        <ele>1454</ele>
        <time>2024-03-30T12:52:15.000Z</time>
      </trkpt>
      <trkpt lat="28.220583333333334" lon="-16.496733333333335">
        <ele>1455</ele>
        <time>2024-03-30T12:52:16.000Z</time>
      </trkpt>
      <trkpt lat="28.22065" lon="-16.496666666666666">
        <ele>1456</ele>
        <time>2024-03-30T12:52:17.000Z</time>
      </trkpt>
      <trkpt lat="28.220716666666668" lon="-16.496616666666668">
        <ele>1456</ele>
        <time>2024-03-30T12:52:18.000Z</time>
      </trkpt>
      <trkpt lat="28.220783333333333" lon="-16.496583333333334">
        <ele>1455</ele>
        <time>2024-03-30T12:52:19.000Z</time>
      </trkpt>
      <trkpt lat="28.22085" lon="-16.496533333333332">
        <ele>1453</ele>
        <time>2024-03-30T12:52:20.000Z</time>
      </trkpt>
      <trkpt lat="28.220933333333335" lon="-16.496483333333334">
        <ele>1451</ele>
        <time>2024-03-30T12:52:21.000Z</time>
      </trkpt>
      <trkpt lat="28.221" lon="-16.496416666666665">
        <ele>1450</ele>
        <time>2024-03-30T12:52:22.000Z</time>
      </trkpt>
      <trkpt lat="28.221066666666665" lon="-16.496333333333332">
        <ele>1448</ele>
        <time>2024-03-30T12:52:23.000Z</time>
      </trkpt>
      <trkpt lat="28.221133333333334" lon="-16.49625">
        <ele>1448</ele>
        <time>2024-03-30T12:52:24.000Z</time>
      </trkpt>
      <trkpt lat="28.221183333333332" lon="-16.496166666666667">
        <ele>1449</ele>
        <time>2024-03-30T12:52:25.000Z</time>
      </trkpt>
      <trkpt lat="28.2212" lon="-16.496083333333335">
        <ele>1449</ele>
        <time>2024-03-30T12:52:26.000Z</time>
      </trkpt>
      <trkpt lat="28.221233333333334" lon="-16.496">
        <ele>1449</ele>
        <time>2024-03-30T12:52:27.000Z</time>
      </trkpt>
      <trkpt lat="28.22125" lon="-16.495916666666666">
        <ele>1449</ele>
        <time>2024-03-30T12:52:28.000Z</time>
      </trkpt>
      <trkpt lat="28.221283333333332" lon="-16.495816666666666">
        <ele>1451</ele>
        <time>2024-03-30T12:52:29.000Z</time>
      </trkpt>
      <trkpt lat="28.221333333333334" lon="-16.49575">
        <ele>1455</ele>
        <time>2024-03-30T12:52:30.000Z</time>
      </trkpt>
      <trkpt lat="28.221383333333332" lon="-16.4957">
        <ele>1459</ele>
        <time>2024-03-30T12:52:31.000Z</time>
      </trkpt>
      <trkpt lat="28.221416666666666" lon="-16.49565">
        <ele>1462</ele>
        <time>2024-03-30T12:52:32.000Z</time>
      </trkpt>
      <trkpt lat="28.22145" lon="-16.495583333333332">
        <ele>1465</ele>
        <time>2024-03-30T12:52:33.000Z</time>
      </trkpt>
      <trkpt lat="28.22148333333333" lon="-16.495533333333334">
        <ele>1467</ele>
        <time>2024-03-30T12:52:34.000Z</time>
      </trkpt>
      <trkpt lat="28.22148333333333" lon="-16.49545">
        <ele>1469</ele>
        <time>2024-03-30T12:52:35.000Z</time>
      </trkpt>
      <trkpt lat="28.221433333333334" lon="-16.4954">
        <ele>1470</ele>
        <time>2024-03-30T12:52:36.000Z</time>
      </trkpt>
      <trkpt lat="28.22135" lon="-16.49535">
        <ele>1470</ele>
        <time>2024-03-30T12:52:37.000Z</time>
      </trkpt>
      <trkpt lat="28.221233333333334" lon="-16.495366666666666">
        <ele>1470</ele>
        <time>2024-03-30T12:52:38.000Z</time>
      </trkpt>
      <trkpt lat="28.221133333333334" lon="-16.495466666666665">
        <ele>1470</ele>
        <time>2024-03-30T12:52:39.000Z</time>
      </trkpt>
      <trkpt lat="28.221066666666665" lon="-16.4956">
        <ele>1473</ele>
        <time>2024-03-30T12:52:40.000Z</time>
      </trkpt>
      <trkpt lat="28.221083333333333" lon="-16.495733333333334">
        <ele>1476</ele>
        <time>2024-03-30T12:52:41.000Z</time>
      </trkpt>
      <trkpt lat="28.221166666666665" lon="-16.495833333333334">
        <ele>1480</ele>
        <time>2024-03-30T12:52:42.000Z</time>
      </trkpt>
      <trkpt lat="28.221266666666665" lon="-16.495866666666668">
        <ele>1484</ele>
        <time>2024-03-30T12:52:43.000Z</time>
      </trkpt>
      <trkpt lat="28.221333333333334" lon="-16.495866666666668">
        <ele>1487</ele>
        <time>2024-03-30T12:52:44.000Z</time>
      </trkpt>
      <trkpt lat="28.22136666666667" lon="-16.495816666666666">
        <ele>1489</ele>
        <time>2024-03-30T12:52:45.000Z</time>
      </trkpt>
      <trkpt lat="28.221383333333332" lon="-16.49575">
        <ele>1490</ele>
        <time>2024-03-30T12:52:46.000Z</time>
      </trkpt>
      <trkpt lat="28.221383333333332" lon="-16.495666666666665">
        <ele>1492</ele>
        <time>2024-03-30T12:52:47.000Z</time>
      </trkpt>
      <trkpt lat="28.221333333333334" lon="-16.495583333333332">
        <ele>1493</ele>
        <time>2024-03-30T12:52:48.000Z</time>
      </trkpt>
      <trkpt lat="28.221266666666665" lon="-16.495533333333334">
        <ele>1496</ele>
        <time>2024-03-30T12:52:49.000Z</time>
      </trkpt>
      <trkpt lat="28.221183333333332" lon="-16.495533333333334">
        <ele>1497</ele>
        <time>2024-03-30T12:52:50.000Z</time>
      </trkpt>
      <trkpt lat="28.221083333333333" lon="-16.495583333333332">
        <ele>1496</ele>
        <time>2024-03-30T12:52:51.000Z</time>
      </trkpt>
      <trkpt lat="28.220983333333333" lon="-16.4957">
        <ele>1496</ele>
        <time>2024-03-30T12:52:52.000Z</time>
      </trkpt>
      <trkpt lat="28.220933333333335" lon="-16.495816666666666">
        <ele>1497</ele>
        <time>2024-03-30T12:52:53.000Z</time>
      </trkpt>
      <trkpt lat="28.220933333333335" lon="-16.49595">
        <ele>1500</ele>
        <time>2024-03-30T12:52:54.000Z</time>
      </trkpt>
      <trkpt lat="28.220966666666666" lon="-16.49605">
        <ele>1504</ele>
        <time>2024-03-30T12:52:55.000Z</time>
      </trkpt>
      <trkpt lat="28.221016666666667" lon="-16.4961">
        <ele>1507</ele>
        <time>2024-03-30T12:52:56.000Z</time>
      </trkpt>
      <trkpt lat="28.221083333333333" lon="-16.496133333333333">
        <ele>1507</ele>
        <time>2024-03-30T12:52:57.000Z</time>
      </trkpt>
      <trkpt lat="28.221166666666665" lon="-16.49615">
        <ele>1508</ele>
        <time>2024-03-30T12:52:58.000Z</time>
      </trkpt>
      <trkpt lat="28.221233333333334" lon="-16.49615">
        <ele>1509</ele>
        <time>2024-03-30T12:52:59.000Z</time>
      </trkpt>
      <trkpt lat="28.221333333333334" lon="-16.496133333333333">
        <ele>1512</ele>
        <time>2024-03-30T12:53:00.000Z</time>
      </trkpt>
      <trkpt lat="28.2214" lon="-16.496116666666666">
        <ele>1515</ele>
        <time>2024-03-30T12:53:01.000Z</time>
      </trkpt>
      <trkpt lat="28.221433333333334" lon="-16.496083333333335">
        <ele>1518</ele>
        <time>2024-03-30T12:53:02.000Z</time>
      </trkpt>
      <trkpt lat="28.221466666666668" lon="-16.49605">
        <ele>1521</ele>
        <time>2024-03-30T12:53:03.000Z</time>
      </trkpt>
      <trkpt lat="28.22145" lon="-16.495983333333335">
        <ele>1522</ele>
        <time>2024-03-30T12:53:04.000Z</time>
      </trkpt>
      <trkpt lat="28.2214" lon="-16.495933333333333">
        <ele>1521</ele>
        <time>2024-03-30T12:53:05.000Z</time>
      </trkpt>
      <trkpt lat="28.2213" lon="-16.495866666666668">
        <ele>1521</ele>
        <time>2024-03-30T12:53:06.000Z</time>
      </trkpt>
      <trkpt lat="28.221183333333332" lon="-16.4959">
        <ele>1523</ele>
        <time>2024-03-30T12:53:07.000Z</time>
      </trkpt>
      <trkpt lat="28.2211" lon="-16.495966666666668">
        <ele>1527</ele>
        <time>2024-03-30T12:53:08.000Z</time>
      </trkpt>
      <trkpt lat="28.221033333333335" lon="-16.496083333333335">
        <ele>1530</ele>
        <time>2024-03-30T12:53:09.000Z</time>
      </trkpt>
      <trkpt lat="28.220983333333333" lon="-16.4962">
        <ele>1533</ele>
        <time>2024-03-30T12:53:10.000Z</time>
      </trkpt>
      <trkpt lat="28.220983333333333" lon="-16.496333333333332">
        <ele>1535</ele>
        <time>2024-03-30T12:53:11.000Z</time>
      </trkpt>
      <trkpt lat="28.221016666666667" lon="-16.496433333333332">
        <ele>1536</ele>
        <time>2024-03-30T12:53:12.000Z</time>
      </trkpt>
      <trkpt lat="28.2211" lon="-16.49651666666667">
        <ele>1537</ele>
        <time>2024-03-30T12:53:13.000Z</time>
      </trkpt>
      <trkpt lat="28.221183333333332" lon="-16.496566666666666">
        <ele>1539</ele>
        <time>2024-03-30T12:53:14.000Z</time>
      </trkpt>
      <trkpt lat="28.221283333333332" lon="-16.4966">
        <ele>1540</ele>
        <time>2024-03-30T12:53:15.000Z</time>
      </trkpt>
      <trkpt lat="28.22136666666667" lon="-16.4966">
        <ele>1541</ele>
        <time>2024-03-30T12:53:16.000Z</time>
      </trkpt>
      <trkpt lat="28.22145" lon="-16.496583333333334">
        <ele>1542</ele>
        <time>2024-03-30T12:53:17.000Z</time>
      </trkpt>
      <trkpt lat="28.221516666666666" lon="-16.49655">
        <ele>1544</ele>
        <time>2024-03-30T12:53:18.000Z</time>
      </trkpt>
      <trkpt lat="28.221583333333335" lon="-16.4965">
        <ele>1546</ele>
        <time>2024-03-30T12:53:19.000Z</time>
      </trkpt>
      <trkpt lat="28.22165" lon="-16.496466666666667">
        <ele>1547</ele>
        <time>2024-03-30T12:53:20.000Z</time>
      </trkpt>
      <trkpt lat="28.2217" lon="-16.496433333333332">
        <ele>1548</ele>
        <time>2024-03-30T12:53:21.000Z</time>
      </trkpt>
      <trkpt lat="28.22175" lon="-16.4964">
        <ele>1547</ele>
        <time>2024-03-30T12:53:22.000Z</time>
      </trkpt>
      <trkpt lat="28.2218" lon="-16.49635">
        <ele>1547</ele>
        <time>2024-03-30T12:53:23.000Z</time>
      </trkpt>
      <trkpt lat="28.221866666666667" lon="-16.496283333333334">
        <ele>1547</ele>
        <time>2024-03-30T12:53:24.000Z</time>
      </trkpt>
      <trkpt lat="28.221933333333332" lon="-16.496233333333333">
        <ele>1547</ele>
        <time>2024-03-30T12:53:25.000Z</time>
      </trkpt>
      <trkpt lat="28.222" lon="-16.496183333333335">
        <ele>1547</ele>
        <time>2024-03-30T12:53:26.000Z</time>
      </trkpt>
      <trkpt lat="28.22205" lon="-16.496133333333333">
        <ele>1546</ele>
        <time>2024-03-30T12:53:27.000Z</time>
      </trkpt>
      <trkpt lat="28.222083333333334" lon="-16.49605">
        <ele>1544</ele>
        <time>2024-03-30T12:53:28.000Z</time>
      </trkpt>
      <trkpt lat="28.22215" lon="-16.495966666666668">
        <ele>1541</ele>
        <time>2024-03-30T12:53:29.000Z</time>
      </trkpt>
      <trkpt lat="28.222216666666668" lon="-16.495866666666668">
        <ele>1537</ele>
        <time>2024-03-30T12:53:30.000Z</time>
      </trkpt>
      <trkpt lat="28.222283333333333" lon="-16.49576666666667">
        <ele>1534</ele>
        <time>2024-03-30T12:53:31.000Z</time>
      </trkpt>
      <trkpt lat="28.22235" lon="-16.495666666666665">
        <ele>1532</ele>
        <time>2024-03-30T12:53:32.000Z</time>
      </trkpt>
      <trkpt lat="28.222416666666668" lon="-16.495583333333332">
        <ele>1531</ele>
        <time>2024-03-30T12:53:33.000Z</time>
      </trkpt>
      <trkpt lat="28.222483333333333" lon="-16.495516666666667">
        <ele>1528</ele>
        <time>2024-03-30T12:53:34.000Z</time>
      </trkpt>
      <trkpt lat="28.22255" lon="-16.495433333333335">
        <ele>1524</ele>
        <time>2024-03-30T12:53:35.000Z</time>
      </trkpt>
      <trkpt lat="28.22265" lon="-16.495333333333335">
        <ele>1521</ele>
        <time>2024-03-30T12:53:36.000Z</time>
      </trkpt>
      <trkpt lat="28.22275" lon="-16.49525">
        <ele>1521</ele>
        <time>2024-03-30T12:53:37.000Z</time>
      </trkpt>
      <trkpt lat="28.222833333333334" lon="-16.495183333333333">
        <ele>1522</ele>
        <time>2024-03-30T12:53:38.000Z</time>
      </trkpt>
      <trkpt lat="28.222916666666666" lon="-16.49513333333333">
        <ele>1523</ele>
        <time>2024-03-30T12:53:39.000Z</time>
      </trkpt>
      <trkpt lat="28.223" lon="-16.495083333333334">
        <ele>1522</ele>
        <time>2024-03-30T12:53:40.000Z</time>
      </trkpt>
      <trkpt lat="28.223066666666668" lon="-16.495033333333332">
        <ele>1519</ele>
        <time>2024-03-30T12:53:41.000Z</time>
      </trkpt>
      <trkpt lat="28.22315" lon="-16.49495">
        <ele>1515</ele>
        <time>2024-03-30T12:53:42.000Z</time>
      </trkpt>
      <trkpt lat="28.22325" lon="-16.494866666666667">
        <ele>1513</ele>
        <time>2024-03-30T12:53:43.000Z</time>
      </trkpt>
      <trkpt lat="28.223366666666667" lon="-16.494783333333334">
        <ele>1513</ele>
        <time>2024-03-30T12:53:44.000Z</time>
      </trkpt>
      <trkpt lat="28.22345" lon="-16.494716666666665">
        <ele>1514</ele>
        <time>2024-03-30T12:53:45.000Z</time>
      </trkpt>
      <trkpt lat="28.223533333333332" lon="-16.49465">
        <ele>1516</ele>
        <time>2024-03-30T12:53:46.000Z</time>
      </trkpt>
      <trkpt lat="28.22361666666667" lon="-16.494566666666667">
        <ele>1518</ele>
        <time>2024-03-30T12:53:47.000Z</time>
      </trkpt>
      <trkpt lat="28.223666666666666" lon="-16.4945">
        <ele>1517</ele>
        <time>2024-03-30T12:53:48.000Z</time>
      </trkpt>
      <trkpt lat="28.223733333333332" lon="-16.494433333333333">
        <ele>1514</ele>
        <time>2024-03-30T12:53:49.000Z</time>
      </trkpt>
      <trkpt lat="28.223816666666668" lon="-16.494366666666668">
        <ele>1510</ele>
        <time>2024-03-30T12:53:50.000Z</time>
      </trkpt>
      <trkpt lat="28.223916666666668" lon="-16.4943">
        <ele>1507</ele>
        <time>2024-03-30T12:53:51.000Z</time>
      </trkpt>
      <trkpt lat="28.224" lon="-16.494216666666667">
        <ele>1505</ele>
        <time>2024-03-30T12:53:52.000Z</time>
      </trkpt>
      <trkpt lat="28.224083333333333" lon="-16.494133333333334">
        <ele>1504</ele>
        <time>2024-03-30T12:53:53.000Z</time>
      </trkpt>
      <trkpt lat="28.224133333333334" lon="-16.494033333333334">
        <ele>1503</ele>
        <time>2024-03-30T12:53:54.000Z</time>
      </trkpt>
      <trkpt lat="28.2242" lon="-16.493966666666665">
        <ele>1502</ele>
        <time>2024-03-30T12:53:55.000Z</time>
      </trkpt>
      <trkpt lat="28.224266666666665" lon="-16.493883333333333">
        <ele>1499</ele>
        <time>2024-03-30T12:53:56.000Z</time>
      </trkpt>
      <trkpt lat="28.22435" lon="-16.493816666666667">
        <ele>1495</ele>
        <time>2024-03-30T12:53:57.000Z</time>
      </trkpt>
      <trkpt lat="28.224466666666668" lon="-16.493716666666668">
        <ele>1492</ele>
        <time>2024-03-30T12:53:58.000Z</time>
      </trkpt>
      <trkpt lat="28.224566666666668" lon="-16.49363333333333">
        <ele>1490</ele>
        <time>2024-03-30T12:53:59.000Z</time>
      </trkpt>
      <trkpt lat="28.224666666666668" lon="-16.49355">
        <ele>1491</ele>
        <time>2024-03-30T12:54:00.000Z</time>
      </trkpt>
      <trkpt lat="28.22475" lon="-16.493483333333334">
        <ele>1491</ele>
        <time>2024-03-30T12:54:01.000Z</time>
      </trkpt>
      <trkpt lat="28.224816666666666" lon="-16.49341666666667">
        <ele>1490</ele>
        <time>2024-03-30T12:54:02.000Z</time>
      </trkpt>
      <trkpt lat="28.2249" lon="-16.493366666666667">
        <ele>1487</ele>
        <time>2024-03-30T12:54:03.000Z</time>
      </trkpt>
      <trkpt lat="28.224983333333334" lon="-16.4933">
        <ele>1482</ele>
        <time>2024-03-30T12:54:04.000Z</time>
      </trkpt>
      <trkpt lat="28.225083333333334" lon="-16.493216666666665">
        <ele>1478</ele>
        <time>2024-03-30T12:54:05.000Z</time>
      </trkpt>
      <trkpt lat="28.225183333333334" lon="-16.493133333333333">
        <ele>1477</ele>
        <time>2024-03-30T12:54:06.000Z</time>
      </trkpt>
      <trkpt lat="28.225283333333334" lon="-16.49305">
        <ele>1476</ele>
        <time>2024-03-30T12:54:07.000Z</time>
      </trkpt>
      <trkpt lat="28.225366666666666" lon="-16.492966666666668">
        <ele>1475</ele>
        <time>2024-03-30T12:54:08.000Z</time>
      </trkpt>
      <trkpt lat="28.22545" lon="-16.4929">
        <ele>1475</ele>
        <time>2024-03-30T12:54:09.000Z</time>
      </trkpt>
      <trkpt lat="28.225533333333335" lon="-16.492833333333333">
        <ele>1473</ele>
        <time>2024-03-30T12:54:10.000Z</time>
      </trkpt>
      <trkpt lat="28.225616666666667" lon="-16.492766666666668">
        <ele>1471</ele>
        <time>2024-03-30T12:54:11.000Z</time>
      </trkpt>
      <trkpt lat="28.225716666666667" lon="-16.492716666666666">
        <ele>1469</ele>
        <time>2024-03-30T12:54:12.000Z</time>
      </trkpt>
      <trkpt lat="28.225816666666667" lon="-16.49265">
        <ele>1466</ele>
        <time>2024-03-30T12:54:13.000Z</time>
      </trkpt>
      <trkpt lat="28.225916666666667" lon="-16.492583333333332">
        <ele>1464</ele>
        <time>2024-03-30T12:54:14.000Z</time>
      </trkpt>
      <trkpt lat="28.226016666666666" lon="-16.492516666666667">
        <ele>1464</ele>
        <time>2024-03-30T12:54:15.000Z</time>
      </trkpt>
      <trkpt lat="28.2261" lon="-16.49245">
        <ele>1464</ele>
        <time>2024-03-30T12:54:16.000Z</time>
      </trkpt>
      <trkpt lat="28.2262" lon="-16.4924">
        <ele>1463</ele>
        <time>2024-03-30T12:54:17.000Z</time>
      </trkpt>
      <trkpt lat="28.226283333333335" lon="-16.49235">
        <ele>1461</ele>
        <time>2024-03-30T12:54:18.000Z</time>
      </trkpt>
      <trkpt lat="28.22635" lon="-16.4923">
        <ele>1458</ele>
        <time>2024-03-30T12:54:19.000Z</time>
      </trkpt>
      <trkpt lat="28.22645" lon="-16.492233333333335">
        <ele>1454</ele>
        <time>2024-03-30T12:54:20.000Z</time>
      </trkpt>
      <trkpt lat="28.226533333333332" lon="-16.492133333333335">
        <ele>1451</ele>
        <time>2024-03-30T12:54:21.000Z</time>
      </trkpt>
      <trkpt lat="28.226616666666665" lon="-16.49205">
        <ele>1449</ele>
        <time>2024-03-30T12:54:22.000Z</time>
      </trkpt>
      <trkpt lat="28.2267" lon="-16.491983333333334">
        <ele>1448</ele>
        <time>2024-03-30T12:54:23.000Z</time>
      </trkpt>
      <trkpt lat="28.226783333333334" lon="-16.491933333333332">
        <ele>1447</ele>
        <time>2024-03-30T12:54:24.000Z</time>
      </trkpt>
      <trkpt lat="28.226866666666666" lon="-16.491866666666667">
        <ele>1446</ele>
        <time>2024-03-30T12:54:25.000Z</time>
      </trkpt>
      <trkpt lat="28.22695" lon="-16.491816666666665">
        <ele>1443</ele>
        <time>2024-03-30T12:54:26.000Z</time>
      </trkpt>
      <trkpt lat="28.227033333333335" lon="-16.491766666666667">
        <ele>1440</ele>
        <time>2024-03-30T12:54:27.000Z</time>
      </trkpt>
      <trkpt lat="28.227133333333335" lon="-16.4917">
        <ele>1437</ele>
        <time>2024-03-30T12:54:28.000Z</time>
      </trkpt>
      <trkpt lat="28.227216666666667" lon="-16.491633333333333">
        <ele>1436</ele>
        <time>2024-03-30T12:54:29.000Z</time>
      </trkpt>
      <trkpt lat="28.2273" lon="-16.49155">
        <ele>1436</ele>
        <time>2024-03-30T12:54:30.000Z</time>
      </trkpt>
      <trkpt lat="28.227366666666665" lon="-16.491483333333335">
        <ele>1435</ele>
        <time>2024-03-30T12:54:31.000Z</time>
      </trkpt>
      <trkpt lat="28.2274" lon="-16.491416666666666">
        <ele>1434</ele>
        <time>2024-03-30T12:54:32.000Z</time>
      </trkpt>
      <trkpt lat="28.227433333333334" lon="-16.491366666666668">
        <ele>1433</ele>
        <time>2024-03-30T12:54:33.000Z</time>
      </trkpt>
      <trkpt lat="28.2275" lon="-16.491316666666666">
        <ele>1430</ele>
        <time>2024-03-30T12:54:34.000Z</time>
      </trkpt>
      <trkpt lat="28.227566666666668" lon="-16.49125">
        <ele>1426</ele>
        <time>2024-03-30T12:54:35.000Z</time>
      </trkpt>
      <trkpt lat="28.22765" lon="-16.4912">
        <ele>1424</ele>
        <time>2024-03-30T12:54:36.000Z</time>
      </trkpt>
      <trkpt lat="28.22775" lon="-16.491116666666667">
        <ele>1422</ele>
        <time>2024-03-30T12:54:37.000Z</time>
      </trkpt>
      <trkpt lat="28.22785" lon="-16.491066666666665">
        <ele>1422</ele>
        <time>2024-03-30T12:54:38.000Z</time>
      </trkpt>
      <trkpt lat="28.22795" lon="-16.491016666666667">
        <ele>1423</ele>
        <time>2024-03-30T12:54:39.000Z</time>
      </trkpt>
      <trkpt lat="28.228033333333332" lon="-16.490966666666665">
        <ele>1425</ele>
        <time>2024-03-30T12:54:40.000Z</time>
      </trkpt>
      <trkpt lat="28.228116666666665" lon="-16.490933333333334">
        <ele>1425</ele>
        <time>2024-03-30T12:54:41.000Z</time>
      </trkpt>
      <trkpt lat="28.2282" lon="-16.490883333333333">
        <ele>1424</ele>
        <time>2024-03-30T12:54:42.000Z</time>
      </trkpt>
      <trkpt lat="28.228283333333334" lon="-16.490833333333335">
        <ele>1422</ele>
        <time>2024-03-30T12:54:43.000Z</time>
      </trkpt>
      <trkpt lat="28.228383333333333" lon="-16.490783333333333">
        <ele>1419</ele>
        <time>2024-03-30T12:54:44.000Z</time>
      </trkpt>
      <trkpt lat="28.228483333333333" lon="-16.490733333333335">
        <ele>1417</ele>
        <time>2024-03-30T12:54:45.000Z</time>
      </trkpt>
      <trkpt lat="28.228583333333333" lon="-16.4907">
        <ele>1416</ele>
        <time>2024-03-30T12:54:46.000Z</time>
      </trkpt>
      <trkpt lat="28.228683333333333" lon="-16.49065">
        <ele>1416</ele>
        <time>2024-03-30T12:54:47.000Z</time>
      </trkpt>
      <trkpt lat="28.228766666666665" lon="-16.4906">
        <ele>1416</ele>
        <time>2024-03-30T12:54:48.000Z</time>
      </trkpt>
      <trkpt lat="28.22885" lon="-16.49055">
        <ele>1414</ele>
        <time>2024-03-30T12:54:49.000Z</time>
      </trkpt>
      <trkpt lat="28.228933333333334" lon="-16.4905">
        <ele>1410</ele>
        <time>2024-03-30T12:54:50.000Z</time>
      </trkpt>
      <trkpt lat="28.22905" lon="-16.490466666666666">
        <ele>1405</ele>
        <time>2024-03-30T12:54:51.000Z</time>
      </trkpt>
      <trkpt lat="28.229166666666668" lon="-16.4904">
        <ele>1402</ele>
        <time>2024-03-30T12:54:52.000Z</time>
      </trkpt>
      <trkpt lat="28.229283333333335" lon="-16.490333333333332">
        <ele>1401</ele>
        <time>2024-03-30T12:54:53.000Z</time>
      </trkpt>
      <trkpt lat="28.229366666666667" lon="-16.49025">
        <ele>1402</ele>
        <time>2024-03-30T12:54:54.000Z</time>
      </trkpt>
      <trkpt lat="28.22945" lon="-16.4902">
        <ele>1402</ele>
        <time>2024-03-30T12:54:55.000Z</time>
      </trkpt>
      <trkpt lat="28.229533333333332" lon="-16.49015">
        <ele>1400</ele>
        <time>2024-03-30T12:54:56.000Z</time>
      </trkpt>
      <trkpt lat="28.2296" lon="-16.490116666666665">
        <ele>1397</ele>
        <time>2024-03-30T12:54:57.000Z</time>
      </trkpt>
      <trkpt lat="28.2297" lon="-16.490066666666667">
        <ele>1393</ele>
        <time>2024-03-30T12:54:58.000Z</time>
      </trkpt>
      <trkpt lat="28.229783333333334" lon="-16.490016666666666">
        <ele>1389</ele>
        <time>2024-03-30T12:54:59.000Z</time>
      </trkpt>
      <trkpt lat="28.229883333333333" lon="-16.48995">
        <ele>1386</ele>
        <time>2024-03-30T12:55:00.000Z</time>
      </trkpt>
      <trkpt lat="28.229983333333333" lon="-16.489883333333335">
        <ele>1384</ele>
        <time>2024-03-30T12:55:01.000Z</time>
      </trkpt>
      <trkpt lat="28.230083333333333" lon="-16.489833333333333">
        <ele>1383</ele>
        <time>2024-03-30T12:55:02.000Z</time>
      </trkpt>
      <trkpt lat="28.230166666666666" lon="-16.48978333333333">
        <ele>1383</ele>
        <time>2024-03-30T12:55:03.000Z</time>
      </trkpt>
      <trkpt lat="28.230216666666667" lon="-16.48975">
        <ele>1382</ele>
        <time>2024-03-30T12:55:04.000Z</time>
      </trkpt>
      <trkpt lat="28.2303" lon="-16.4897">
        <ele>1381</ele>
        <time>2024-03-30T12:55:05.000Z</time>
      </trkpt>
      <trkpt lat="28.230366666666665" lon="-16.48965">
        <ele>1378</ele>
        <time>2024-03-30T12:55:06.000Z</time>
      </trkpt>
      <trkpt lat="28.23045" lon="-16.4896">
        <ele>1376</ele>
        <time>2024-03-30T12:55:07.000Z</time>
      </trkpt>
      <trkpt lat="28.230516666666666" lon="-16.48955">
        <ele>1373</ele>
        <time>2024-03-30T12:55:08.000Z</time>
      </trkpt>
      <trkpt lat="28.2306" lon="-16.4895">
        <ele>1371</ele>
        <time>2024-03-30T12:55:09.000Z</time>
      </trkpt>
      <trkpt lat="28.23068333333333" lon="-16.48945">
        <ele>1370</ele>
        <time>2024-03-30T12:55:10.000Z</time>
      </trkpt>
      <trkpt lat="28.230766666666668" lon="-16.4894">
        <ele>1368</ele>
        <time>2024-03-30T12:55:11.000Z</time>
      </trkpt>
      <trkpt lat="28.230833333333333" lon="-16.489333333333335">
        <ele>1368</ele>
        <time>2024-03-30T12:55:12.000Z</time>
      </trkpt>
      <trkpt lat="28.230916666666666" lon="-16.4893">
        <ele>1368</ele>
        <time>2024-03-30T12:55:13.000Z</time>
      </trkpt>
      <trkpt lat="28.230966666666667" lon="-16.489233333333335">
        <ele>1367</ele>
        <time>2024-03-30T12:55:14.000Z</time>
      </trkpt>
      <trkpt lat="28.231016666666665" lon="-16.489183333333333">
        <ele>1366</ele>
        <time>2024-03-30T12:55:15.000Z</time>
      </trkpt>
      <trkpt lat="28.23105" lon="-16.489116666666668">
        <ele>1363</ele>
        <time>2024-03-30T12:55:16.000Z</time>
      </trkpt>
      <trkpt lat="28.231116666666665" lon="-16.489066666666666">
        <ele>1360</ele>
        <time>2024-03-30T12:55:17.000Z</time>
      </trkpt>
      <trkpt lat="28.231183333333334" lon="-16.489">
        <ele>1356</ele>
        <time>2024-03-30T12:55:18.000Z</time>
      </trkpt>
      <trkpt lat="28.231266666666667" lon="-16.488916666666668">
        <ele>1354</ele>
        <time>2024-03-30T12:55:19.000Z</time>
      </trkpt>
      <trkpt lat="28.23135" lon="-16.48885">
        <ele>1353</ele>
        <time>2024-03-30T12:55:20.000Z</time>
      </trkpt>
      <trkpt lat="28.23143333333333" lon="-16.4888">
        <ele>1353</ele>
        <time>2024-03-30T12:55:21.000Z</time>
      </trkpt>
      <trkpt lat="28.231516666666668" lon="-16.48875">
        <ele>1356</ele>
        <time>2024-03-30T12:55:22.000Z</time>
      </trkpt>
      <trkpt lat="28.231566666666666" lon="-16.488716666666665">
        <ele>1357</ele>
        <time>2024-03-30T12:55:23.000Z</time>
      </trkpt>
      <trkpt lat="28.231616666666667" lon="-16.488666666666667">
        <ele>1355</ele>
        <time>2024-03-30T12:55:24.000Z</time>
      </trkpt>
      <trkpt lat="28.231683333333333" lon="-16.488616666666665">
        <ele>1352</ele>
        <time>2024-03-30T12:55:25.000Z</time>
      </trkpt>
      <trkpt lat="28.23175" lon="-16.488566666666667">
        <ele>1349</ele>
        <time>2024-03-30T12:55:26.000Z</time>
      </trkpt>
      <trkpt lat="28.231833333333334" lon="-16.4885">
        <ele>1347</ele>
        <time>2024-03-30T12:55:27.000Z</time>
      </trkpt>
      <trkpt lat="28.231933333333334" lon="-16.488433333333333">
        <ele>1347</ele>
        <time>2024-03-30T12:55:28.000Z</time>
      </trkpt>
      <trkpt lat="28.232" lon="-16.488366666666668">
        <ele>1348</ele>
        <time>2024-03-30T12:55:29.000Z</time>
      </trkpt>
      <trkpt lat="28.232066666666668" lon="-16.4883">
        <ele>1349</ele>
        <time>2024-03-30T12:55:30.000Z</time>
      </trkpt>
      <trkpt lat="28.232116666666666" lon="-16.488233333333334">
        <ele>1350</ele>
        <time>2024-03-30T12:55:31.000Z</time>
      </trkpt>
      <trkpt lat="28.23218333333333" lon="-16.488166666666668">
        <ele>1349</ele>
        <time>2024-03-30T12:55:32.000Z</time>
      </trkpt>
      <trkpt lat="28.23225" lon="-16.4881">
        <ele>1347</ele>
        <time>2024-03-30T12:55:33.000Z</time>
      </trkpt>
      <trkpt lat="28.232333333333333" lon="-16.48805">
        <ele>1345</ele>
        <time>2024-03-30T12:55:34.000Z</time>
      </trkpt>
      <trkpt lat="28.232416666666666" lon="-16.487983333333332">
        <ele>1344</ele>
        <time>2024-03-30T12:55:35.000Z</time>
      </trkpt>
      <trkpt lat="28.2325" lon="-16.487916666666667">
        <ele>1345</ele>
        <time>2024-03-30T12:55:36.000Z</time>
      </trkpt>
      <trkpt lat="28.232583333333334" lon="-16.487866666666665">
        <ele>1347</ele>
        <time>2024-03-30T12:55:37.000Z</time>
      </trkpt>
      <trkpt lat="28.23265" lon="-16.48785">
        <ele>1347</ele>
        <time>2024-03-30T12:55:38.000Z</time>
      </trkpt>
      <trkpt lat="28.232683333333334" lon="-16.48785">
        <ele>1346</ele>
        <time>2024-03-30T12:55:39.000Z</time>
      </trkpt>
      <trkpt lat="28.232733333333332" lon="-16.487833333333334">
        <ele>1342</ele>
        <time>2024-03-30T12:55:40.000Z</time>
      </trkpt>
      <trkpt lat="28.232783333333334" lon="-16.4878">
        <ele>1337</ele>
        <time>2024-03-30T12:55:41.000Z</time>
      </trkpt>
      <trkpt lat="28.232866666666666" lon="-16.48775">
        <ele>1333</ele>
        <time>2024-03-30T12:55:42.000Z</time>
      </trkpt>
      <trkpt lat="28.232966666666666" lon="-16.487683333333333">
        <ele>1330</ele>
        <time>2024-03-30T12:55:43.000Z</time>
      </trkpt>
      <trkpt lat="28.233083333333333" lon="-16.487633333333335">
        <ele>1331</ele>
        <time>2024-03-30T12:55:44.000Z</time>
      </trkpt>
      <trkpt lat="28.233166666666666" lon="-16.487583333333333">
        <ele>1334</ele>
        <time>2024-03-30T12:55:45.000Z</time>
      </trkpt>
      <trkpt lat="28.233233333333335" lon="-16.48755">
        <ele>1337</ele>
        <time>2024-03-30T12:55:46.000Z</time>
      </trkpt>
      <trkpt lat="28.233283333333333" lon="-16.487516666666668">
        <ele>1337</ele>
        <time>2024-03-30T12:55:47.000Z</time>
      </trkpt>
      <trkpt lat="28.23335" lon="-16.487483333333333">
        <ele>1336</ele>
        <time>2024-03-30T12:55:48.000Z</time>
      </trkpt>
      <trkpt lat="28.233433333333334" lon="-16.487466666666666">
        <ele>1334</ele>
        <time>2024-03-30T12:55:49.000Z</time>
      </trkpt>
      <trkpt lat="28.233533333333334" lon="-16.487433333333332">
        <ele>1333</ele>
        <time>2024-03-30T12:55:50.000Z</time>
      </trkpt>
      <trkpt lat="28.23365" lon="-16.4874">
        <ele>1333</ele>
        <time>2024-03-30T12:55:51.000Z</time>
      </trkpt>
      <trkpt lat="28.23375" lon="-16.487383333333334">
        <ele>1335</ele>
        <time>2024-03-30T12:55:52.000Z</time>
      </trkpt>
      <trkpt lat="28.233833333333333" lon="-16.48735">
        <ele>1338</ele>
        <time>2024-03-30T12:55:53.000Z</time>
      </trkpt>
      <trkpt lat="28.2339" lon="-16.4873">
        <ele>1340</ele>
        <time>2024-03-30T12:55:54.000Z</time>
      </trkpt>
      <trkpt lat="28.233966666666667" lon="-16.487233333333332">
        <ele>1344</ele>
        <time>2024-03-30T12:55:55.000Z</time>
      </trkpt>
      <trkpt lat="28.234016666666665" lon="-16.487183333333334">
        <ele>1347</ele>
        <time>2024-03-30T12:55:56.000Z</time>
      </trkpt>
      <trkpt lat="28.23405" lon="-16.487133333333333">
        <ele>1350</ele>
        <time>2024-03-30T12:55:57.000Z</time>
      </trkpt>
      <trkpt lat="28.234066666666667" lon="-16.487066666666667">
        <ele>1350</ele>
        <time>2024-03-30T12:55:58.000Z</time>
      </trkpt>
      <trkpt lat="28.234033333333333" lon="-16.487">
        <ele>1350</ele>
        <time>2024-03-30T12:55:59.000Z</time>
      </trkpt>
      <trkpt lat="28.233966666666667" lon="-16.486933333333333">
        <ele>1349</ele>
        <time>2024-03-30T12:56:00.000Z</time>
      </trkpt>
      <trkpt lat="28.23385" lon="-16.486916666666666">
        <ele>1348</ele>
        <time>2024-03-30T12:56:01.000Z</time>
      </trkpt>
      <trkpt lat="28.23375" lon="-16.486966666666667">
        <ele>1347</ele>
        <time>2024-03-30T12:56:02.000Z</time>
      </trkpt>
      <trkpt lat="28.23365" lon="-16.487083333333334">
        <ele>1346</ele>
        <time>2024-03-30T12:56:03.000Z</time>
      </trkpt>
      <trkpt lat="28.2336" lon="-16.487233333333332">
        <ele>1348</ele>
        <time>2024-03-30T12:56:04.000Z</time>
      </trkpt>
      <trkpt lat="28.233616666666666" lon="-16.487366666666667">
        <ele>1349</ele>
        <time>2024-03-30T12:56:05.000Z</time>
      </trkpt>
      <trkpt lat="28.2337" lon="-16.487483333333333">
        <ele>1349</ele>
        <time>2024-03-30T12:56:06.000Z</time>
      </trkpt>
      <trkpt lat="28.233783333333335" lon="-16.487566666666666">
        <ele>1350</ele>
        <time>2024-03-30T12:56:07.000Z</time>
      </trkpt>
      <trkpt lat="28.233883333333335" lon="-16.48765">
        <ele>1352</ele>
        <time>2024-03-30T12:56:08.000Z</time>
      </trkpt>
      <trkpt lat="28.233966666666667" lon="-16.487733333333335">
        <ele>1357</ele>
        <time>2024-03-30T12:56:09.000Z</time>
      </trkpt>
      <trkpt lat="28.234033333333333" lon="-16.487783333333333">
        <ele>1362</ele>
        <time>2024-03-30T12:56:10.000Z</time>
      </trkpt>
      <trkpt lat="28.2341" lon="-16.487816666666667">
        <ele>1365</ele>
        <time>2024-03-30T12:56:11.000Z</time>
      </trkpt>
      <trkpt lat="28.234166666666667" lon="-16.487816666666667">
        <ele>1367</ele>
        <time>2024-03-30T12:56:12.000Z</time>
      </trkpt>
      <trkpt lat="28.234216666666665" lon="-16.48775">
        <ele>1368</ele>
        <time>2024-03-30T12:56:13.000Z</time>
      </trkpt>
      <trkpt lat="28.234216666666665" lon="-16.487633333333335">
        <ele>1368</ele>
        <time>2024-03-30T12:56:14.000Z</time>
      </trkpt>
      <trkpt lat="28.234166666666667" lon="-16.48753333333333">
        <ele>1370</ele>
        <time>2024-03-30T12:56:15.000Z</time>
      </trkpt>
      <trkpt lat="28.234066666666667" lon="-16.487516666666668">
        <ele>1370</ele>
        <time>2024-03-30T12:56:16.000Z</time>
      </trkpt>
      <trkpt lat="28.23395" lon="-16.487566666666666">
        <ele>1371</ele>
        <time>2024-03-30T12:56:17.000Z</time>
      </trkpt>
      <trkpt lat="28.23385" lon="-16.487666666666666">
        <ele>1373</ele>
        <time>2024-03-30T12:56:18.000Z</time>
      </trkpt>
      <trkpt lat="28.233833333333333" lon="-16.487883333333333">
        <ele>1375</ele>
        <time>2024-03-30T12:56:19.000Z</time>
      </trkpt>
      <trkpt lat="28.233933333333333" lon="-16.488">
        <ele>1375</ele>
        <time>2024-03-30T12:56:20.000Z</time>
      </trkpt>
      <trkpt lat="28.234033333333333" lon="-16.48805">
        <ele>1375</ele>
        <time>2024-03-30T12:56:21.000Z</time>
      </trkpt>
      <trkpt lat="28.234133333333332" lon="-16.48806666666667">
        <ele>1378</ele>
        <time>2024-03-30T12:56:22.000Z</time>
      </trkpt>
      <trkpt lat="28.234233333333332" lon="-16.488083333333332">
        <ele>1383</ele>
        <time>2024-03-30T12:56:23.000Z</time>
      </trkpt>
      <trkpt lat="28.234283333333334" lon="-16.488083333333332">
        <ele>1389</ele>
        <time>2024-03-30T12:56:24.000Z</time>
      </trkpt>
      <trkpt lat="28.234333333333332" lon="-16.48806666666667">
        <ele>1393</ele>
        <time>2024-03-30T12:56:25.000Z</time>
      </trkpt>
      <trkpt lat="28.234383333333334" lon="-16.488016666666667">
        <ele>1395</ele>
        <time>2024-03-30T12:56:26.000Z</time>
      </trkpt>
      <trkpt lat="28.234383333333334" lon="-16.48795">
        <ele>1394</ele>
        <time>2024-03-30T12:56:27.000Z</time>
      </trkpt>
      <trkpt lat="28.234366666666666" lon="-16.487866666666665">
        <ele>1394</ele>
        <time>2024-03-30T12:56:28.000Z</time>
      </trkpt>
      <trkpt lat="28.234333333333332" lon="-16.4878">
        <ele>1395</ele>
        <time>2024-03-30T12:56:29.000Z</time>
      </trkpt>
      <trkpt lat="28.234266666666667" lon="-16.487783333333333">
        <ele>1395</ele>
        <time>2024-03-30T12:56:30.000Z</time>
      </trkpt>
      <trkpt lat="28.234166666666667" lon="-16.487833333333334">
        <ele>1395</ele>
        <time>2024-03-30T12:56:31.000Z</time>
      </trkpt>
      <trkpt lat="28.234066666666667" lon="-16.487916666666667">
        <ele>1395</ele>
        <time>2024-03-30T12:56:32.000Z</time>
      </trkpt>
      <trkpt lat="28.234" lon="-16.48805">
        <ele>1395</ele>
        <time>2024-03-30T12:56:33.000Z</time>
      </trkpt>
      <trkpt lat="28.233966666666667" lon="-16.4882">
        <ele>1398</ele>
        <time>2024-03-30T12:56:34.000Z</time>
      </trkpt>
      <trkpt lat="28.234016666666665" lon="-16.488333333333333">
        <ele>1401</ele>
        <time>2024-03-30T12:56:35.000Z</time>
      </trkpt>
      <trkpt lat="28.2341" lon="-16.488433333333333">
        <ele>1405</ele>
        <time>2024-03-30T12:56:36.000Z</time>
      </trkpt>
      <trkpt lat="28.234183333333334" lon="-16.488483333333335">
        <ele>1410</ele>
        <time>2024-03-30T12:56:37.000Z</time>
      </trkpt>
      <trkpt lat="28.234233333333332" lon="-16.488516666666666">
        <ele>1412</ele>
        <time>2024-03-30T12:56:38.000Z</time>
      </trkpt>
      <trkpt lat="28.234283333333334" lon="-16.488533333333333">
        <ele>1413</ele>
        <time>2024-03-30T12:56:39.000Z</time>
      </trkpt>
      <trkpt lat="28.234366666666666" lon="-16.488533333333333">
        <ele>1416</ele>
        <time>2024-03-30T12:56:40.000Z</time>
      </trkpt>
      <trkpt lat="28.23443333333333" lon="-16.488516666666666">
        <ele>1417</ele>
        <time>2024-03-30T12:56:41.000Z</time>
      </trkpt>
      <trkpt lat="28.2345" lon="-16.488466666666667">
        <ele>1418</ele>
        <time>2024-03-30T12:56:42.000Z</time>
      </trkpt>
      <trkpt lat="28.234533333333335" lon="-16.488416666666666">
        <ele>1418</ele>
        <time>2024-03-30T12:56:43.000Z</time>
      </trkpt>
      <trkpt lat="28.234516666666668" lon="-16.488333333333333">
        <ele>1418</ele>
        <time>2024-03-30T12:56:44.000Z</time>
      </trkpt>
      <trkpt lat="28.234466666666666" lon="-16.488266666666668">
        <ele>1418</ele>
        <time>2024-03-30T12:56:45.000Z</time>
      </trkpt>
      <trkpt lat="28.234366666666666" lon="-16.48825">
        <ele>1415</ele>
        <time>2024-03-30T12:56:46.000Z</time>
      </trkpt>
      <trkpt lat="28.23425" lon="-16.48828333333333">
        <ele>1412</ele>
        <time>2024-03-30T12:56:47.000Z</time>
      </trkpt>
      <trkpt lat="28.23415" lon="-16.488416666666666">
        <ele>1411</ele>
        <time>2024-03-30T12:56:48.000Z</time>
      </trkpt>
      <trkpt lat="28.2341" lon="-16.488566666666667">
        <ele>1414</ele>
        <time>2024-03-30T12:56:49.000Z</time>
      </trkpt>
      <trkpt lat="28.234083333333334" lon="-16.488716666666665">
        <ele>1418</ele>
        <time>2024-03-30T12:56:50.000Z</time>
      </trkpt>
      <trkpt lat="28.234083333333334" lon="-16.488833333333332">
        <ele>1422</ele>
        <time>2024-03-30T12:56:51.000Z</time>
      </trkpt>
      <trkpt lat="28.2341" lon="-16.488916666666668">
        <ele>1425</ele>
        <time>2024-03-30T12:56:52.000Z</time>
      </trkpt>
      <trkpt lat="28.23415" lon="-16.489016666666668">
        <ele>1427</ele>
        <time>2024-03-30T12:56:53.000Z</time>
      </trkpt>
      <trkpt lat="28.234216666666665" lon="-16.4891">
        <ele>1429</ele>
        <time>2024-03-30T12:56:54.000Z</time>
      </trkpt>
      <trkpt lat="28.234283333333334" lon="-16.489166666666666">
        <ele>1432</ele>
        <time>2024-03-30T12:56:55.000Z</time>
      </trkpt>
      <trkpt lat="28.234366666666666" lon="-16.489216666666668">
        <ele>1435</ele>
        <time>2024-03-30T12:56:56.000Z</time>
      </trkpt>
      <trkpt lat="28.23445" lon="-16.489233333333335">
        <ele>1438</ele>
        <time>2024-03-30T12:56:57.000Z</time>
      </trkpt>
      <trkpt lat="28.234516666666668" lon="-16.4892">
        <ele>1441</ele>
        <time>2024-03-30T12:56:58.000Z</time>
      </trkpt>
      <trkpt lat="28.234583333333333" lon="-16.48915">
        <ele>1443</ele>
        <time>2024-03-30T12:56:59.000Z</time>
      </trkpt>
      <trkpt lat="28.234583333333333" lon="-16.489066666666666">
        <ele>1444</ele>
        <time>2024-03-30T12:57:00.000Z</time>
      </trkpt>
      <trkpt lat="28.234516666666668" lon="-16.488983333333334">
        <ele>1442</ele>
        <time>2024-03-30T12:57:01.000Z</time>
      </trkpt>
      <trkpt lat="28.234383333333334" lon="-16.488966666666666">
        <ele>1441</ele>
        <time>2024-03-30T12:57:02.000Z</time>
      </trkpt>
      <trkpt lat="28.234266666666667" lon="-16.48905">
        <ele>1442</ele>
        <time>2024-03-30T12:57:03.000Z</time>
      </trkpt>
      <trkpt lat="28.2342" lon="-16.489183333333333">
        <ele>1443</ele>
        <time>2024-03-30T12:57:04.000Z</time>
      </trkpt>
      <trkpt lat="28.234183333333334" lon="-16.489333333333335">
        <ele>1445</ele>
        <time>2024-03-30T12:57:05.000Z</time>
      </trkpt>
      <trkpt lat="28.234216666666665" lon="-16.489466666666665">
        <ele>1447</ele>
        <time>2024-03-30T12:57:06.000Z</time>
      </trkpt>
      <trkpt lat="28.234283333333334" lon="-16.489566666666665">
        <ele>1449</ele>
        <time>2024-03-30T12:57:07.000Z</time>
      </trkpt>
      <trkpt lat="28.234383333333334" lon="-16.489616666666667">
        <ele>1451</ele>
        <time>2024-03-30T12:57:08.000Z</time>
      </trkpt>
      <trkpt lat="28.234466666666666" lon="-16.48965">
        <ele>1452</ele>
        <time>2024-03-30T12:57:09.000Z</time>
      </trkpt>
      <trkpt lat="28.234566666666666" lon="-16.489633333333334">
        <ele>1453</ele>
        <time>2024-03-30T12:57:10.000Z</time>
      </trkpt>
      <trkpt lat="28.23465" lon="-16.4896">
        <ele>1455</ele>
        <time>2024-03-30T12:57:11.000Z</time>
      </trkpt>
      <trkpt lat="28.234733333333335" lon="-16.489566666666665">
        <ele>1459</ele>
        <time>2024-03-30T12:57:12.000Z</time>
      </trkpt>
      <trkpt lat="28.234816666666667" lon="-16.48955">
        <ele>1461</ele>
        <time>2024-03-30T12:57:13.000Z</time>
      </trkpt>
      <trkpt lat="28.234916666666667" lon="-16.489533333333334">
        <ele>1464</ele>
        <time>2024-03-30T12:57:14.000Z</time>
      </trkpt>
      <trkpt lat="28.234983333333332" lon="-16.4895">
        <ele>1468</ele>
        <time>2024-03-30T12:57:15.000Z</time>
      </trkpt>
      <trkpt lat="28.235033333333334" lon="-16.489433333333334">
        <ele>1473</ele>
        <time>2024-03-30T12:57:16.000Z</time>
      </trkpt>
      <trkpt lat="28.235016666666667" lon="-16.48935">
        <ele>1475</ele>
        <time>2024-03-30T12:57:17.000Z</time>
      </trkpt>
      <trkpt lat="28.234933333333334" lon="-16.489283333333333">
        <ele>1476</ele>
        <time>2024-03-30T12:57:18.000Z</time>
      </trkpt>
      <trkpt lat="28.2348" lon="-16.4893">
        <ele>1476</ele>
        <time>2024-03-30T12:57:19.000Z</time>
      </trkpt>
      <trkpt lat="28.234683333333333" lon="-16.4894">
        <ele>1477</ele>
        <time>2024-03-30T12:57:20.000Z</time>
      </trkpt>
      <trkpt lat="28.234633333333335" lon="-16.489533333333334">
        <ele>1481</ele>
        <time>2024-03-30T12:57:21.000Z</time>
      </trkpt>
      <trkpt lat="28.234666666666666" lon="-16.489683333333332">
        <ele>1483</ele>
        <time>2024-03-30T12:57:22.000Z</time>
      </trkpt>
      <trkpt lat="28.23475" lon="-16.48978333333333">
        <ele>1484</ele>
        <time>2024-03-30T12:57:23.000Z</time>
      </trkpt>
      <trkpt lat="28.234883333333332" lon="-16.4898">
        <ele>1484</ele>
        <time>2024-03-30T12:57:24.000Z</time>
      </trkpt>
      <trkpt lat="28.234983333333332" lon="-16.48975">
        <ele>1483</ele>
        <time>2024-03-30T12:57:25.000Z</time>
      </trkpt>
      <trkpt lat="28.23506666666667" lon="-16.48965">
        <ele>1484</ele>
        <time>2024-03-30T12:57:26.000Z</time>
      </trkpt>
      <trkpt lat="28.2351" lon="-16.48955">
        <ele>1488</ele>
        <time>2024-03-30T12:57:27.000Z</time>
      </trkpt>
      <trkpt lat="28.23506666666667" lon="-16.489466666666665">
        <ele>1493</ele>
        <time>2024-03-30T12:57:28.000Z</time>
      </trkpt>
      <trkpt lat="28.235" lon="-16.489416666666667">
        <ele>1496</ele>
        <time>2024-03-30T12:57:29.000Z</time>
      </trkpt>
      <trkpt lat="28.234916666666667" lon="-16.4894">
        <ele>1498</ele>
        <time>2024-03-30T12:57:30.000Z</time>
      </trkpt>
      <trkpt lat="28.2348" lon="-16.48945">
        <ele>1500</ele>
        <time>2024-03-30T12:57:31.000Z</time>
      </trkpt>
      <trkpt lat="28.2347" lon="-16.48955">
        <ele>1501</ele>
        <time>2024-03-30T12:57:32.000Z</time>
      </trkpt>
      <trkpt lat="28.23465" lon="-16.489683333333332">
        <ele>1503</ele>
        <time>2024-03-30T12:57:33.000Z</time>
      </trkpt>
      <trkpt lat="28.234666666666666" lon="-16.4898">
        <ele>1505</ele>
        <time>2024-03-30T12:57:34.000Z</time>
      </trkpt>
      <trkpt lat="28.23475" lon="-16.4899">
        <ele>1509</ele>
        <time>2024-03-30T12:57:35.000Z</time>
      </trkpt>
      <trkpt lat="28.234833333333334" lon="-16.48995">
        <ele>1510</ele>
        <time>2024-03-30T12:57:36.000Z</time>
      </trkpt>
      <trkpt lat="28.234933333333334" lon="-16.49">
        <ele>1513</ele>
        <time>2024-03-30T12:57:37.000Z</time>
      </trkpt>
      <trkpt lat="28.235033333333334" lon="-16.49">
        <ele>1515</ele>
        <time>2024-03-30T12:57:38.000Z</time>
      </trkpt>
      <trkpt lat="28.235116666666666" lon="-16.489966666666668">
        <ele>1518</ele>
        <time>2024-03-30T12:57:39.000Z</time>
      </trkpt>
      <trkpt lat="28.2352" lon="-16.489933333333333">
        <ele>1520</ele>
        <time>2024-03-30T12:57:40.000Z</time>
      </trkpt>
      <trkpt lat="28.235266666666668" lon="-16.489883333333335">
        <ele>1522</ele>
        <time>2024-03-30T12:57:41.000Z</time>
      </trkpt>
      <trkpt lat="28.23535" lon="-16.489816666666666">
        <ele>1525</ele>
        <time>2024-03-30T12:57:42.000Z</time>
      </trkpt>
      <trkpt lat="28.235433333333333" lon="-16.489766666666668">
        <ele>1527</ele>
        <time>2024-03-30T12:57:43.000Z</time>
      </trkpt>
      <trkpt lat="28.2355" lon="-16.4897">
        <ele>1529</ele>
        <time>2024-03-30T12:57:44.000Z</time>
      </trkpt>
      <trkpt lat="28.235533333333333" lon="-16.489633333333334">
        <ele>1531</ele>
        <time>2024-03-30T12:57:45.000Z</time>
      </trkpt>
      <trkpt lat="28.235516666666665" lon="-16.489566666666665">
        <ele>1531</ele>
        <time>2024-03-30T12:57:46.000Z</time>
      </trkpt>
      <trkpt lat="28.235483333333335" lon="-16.489483333333332">
        <ele>1529</ele>
        <time>2024-03-30T12:57:47.000Z</time>
      </trkpt>
      <trkpt lat="28.2354" lon="-16.489416666666667">
        <ele>1528</ele>
        <time>2024-03-30T12:57:48.000Z</time>
      </trkpt>
      <trkpt lat="28.235283333333335" lon="-16.489416666666667">
        <ele>1528</ele>
        <time>2024-03-30T12:57:49.000Z</time>
      </trkpt>
      <trkpt lat="28.2352" lon="-16.489466666666665">
        <ele>1529</ele>
        <time>2024-03-30T12:57:50.000Z</time>
      </trkpt>
      <trkpt lat="28.235116666666666" lon="-16.48955">
        <ele>1530</ele>
        <time>2024-03-30T12:57:51.000Z</time>
      </trkpt>
      <trkpt lat="28.23506666666667" lon="-16.48966666666667">
        <ele>1532</ele>
        <time>2024-03-30T12:57:52.000Z</time>
      </trkpt>
      <trkpt lat="28.23505" lon="-16.4898">
        <ele>1535</ele>
        <time>2024-03-30T12:57:53.000Z</time>
      </trkpt>
      <trkpt lat="28.23506666666667" lon="-16.489933333333333">
        <ele>1540</ele>
        <time>2024-03-30T12:57:54.000Z</time>
      </trkpt>
      <trkpt lat="28.235083333333332" lon="-16.490033333333333">
        <ele>1544</ele>
        <time>2024-03-30T12:57:55.000Z</time>
      </trkpt>
      <trkpt lat="28.235133333333334" lon="-16.490099999999998">
        <ele>1549</ele>
        <time>2024-03-30T12:57:56.000Z</time>
      </trkpt>
      <trkpt lat="28.23518333333333" lon="-16.49015">
        <ele>1551</ele>
        <time>2024-03-30T12:57:57.000Z</time>
      </trkpt>
      <trkpt lat="28.235266666666668" lon="-16.490183333333334">
        <ele>1551</ele>
        <time>2024-03-30T12:57:58.000Z</time>
      </trkpt>
      <trkpt lat="28.235366666666668" lon="-16.490216666666665">
        <ele>1551</ele>
        <time>2024-03-30T12:57:59.000Z</time>
      </trkpt>
      <trkpt lat="28.235483333333335" lon="-16.490216666666665">
        <ele>1551</ele>
        <time>2024-03-30T12:58:00.000Z</time>
      </trkpt>
      <trkpt lat="28.2356" lon="-16.490216666666665">
        <ele>1551</ele>
        <time>2024-03-30T12:58:01.000Z</time>
      </trkpt>
      <trkpt lat="28.2357" lon="-16.490183333333334">
        <ele>1552</ele>
        <time>2024-03-30T12:58:02.000Z</time>
      </trkpt>
      <trkpt lat="28.2358" lon="-16.49015">
        <ele>1552</ele>
        <time>2024-03-30T12:58:03.000Z</time>
      </trkpt>
      <trkpt lat="28.2359" lon="-16.490099999999998">
        <ele>1552</ele>
        <time>2024-03-30T12:58:04.000Z</time>
      </trkpt>
      <trkpt lat="28.235983333333333" lon="-16.490033333333333">
        <ele>1549</ele>
        <time>2024-03-30T12:58:05.000Z</time>
      </trkpt>
      <trkpt lat="28.2361" lon="-16.489966666666668">
        <ele>1546</ele>
        <time>2024-03-30T12:58:06.000Z</time>
      </trkpt>
      <trkpt lat="28.236233333333335" lon="-16.4899">
        <ele>1543</ele>
        <time>2024-03-30T12:58:07.000Z</time>
      </trkpt>
      <trkpt lat="28.23635" lon="-16.489833333333333">
        <ele>1543</ele>
        <time>2024-03-30T12:58:08.000Z</time>
      </trkpt>
      <trkpt lat="28.23645" lon="-16.48978333333333">
        <ele>1544</ele>
        <time>2024-03-30T12:58:09.000Z</time>
      </trkpt>
      <trkpt lat="28.236516666666667" lon="-16.489733333333334">
        <ele>1545</ele>
        <time>2024-03-30T12:58:10.000Z</time>
      </trkpt>
      <trkpt lat="28.23656666666667" lon="-16.489683333333332">
        <ele>1544</ele>
        <time>2024-03-30T12:58:11.000Z</time>
      </trkpt>
      <trkpt lat="28.236633333333334" lon="-16.48965">
        <ele>1542</ele>
        <time>2024-03-30T12:58:12.000Z</time>
      </trkpt>
      <trkpt lat="28.2367" lon="-16.489583333333332">
        <ele>1539</ele>
        <time>2024-03-30T12:58:13.000Z</time>
      </trkpt>
      <trkpt lat="28.236783333333335" lon="-16.489516666666667">
        <ele>1537</ele>
        <time>2024-03-30T12:58:14.000Z</time>
      </trkpt>
      <trkpt lat="28.23685" lon="-16.489416666666667">
        <ele>1537</ele>
        <time>2024-03-30T12:58:15.000Z</time>
      </trkpt>
      <trkpt lat="28.2369" lon="-16.48935">
        <ele>1537</ele>
        <time>2024-03-30T12:58:16.000Z</time>
      </trkpt>
      <trkpt lat="28.23695" lon="-16.489283333333333">
        <ele>1537</ele>
        <time>2024-03-30T12:58:17.000Z</time>
      </trkpt>
      <trkpt lat="28.237" lon="-16.489233333333335">
        <ele>1535</ele>
        <time>2024-03-30T12:58:18.000Z</time>
      </trkpt>
      <trkpt lat="28.237066666666667" lon="-16.4892">
        <ele>1530</ele>
        <time>2024-03-30T12:58:19.000Z</time>
      </trkpt>
      <trkpt lat="28.23715" lon="-16.48915">
        <ele>1526</ele>
        <time>2024-03-30T12:58:20.000Z</time>
      </trkpt>
      <trkpt lat="28.237233333333332" lon="-16.4891">
        <ele>1522</ele>
        <time>2024-03-30T12:58:21.000Z</time>
      </trkpt>
      <trkpt lat="28.23731666666667" lon="-16.48903333333333">
        <ele>1520</ele>
        <time>2024-03-30T12:58:22.000Z</time>
      </trkpt>
      <trkpt lat="28.2374" lon="-16.488966666666666">
        <ele>1522</ele>
        <time>2024-03-30T12:58:23.000Z</time>
      </trkpt>
      <trkpt lat="28.23745" lon="-16.488916666666668">
        <ele>1525</ele>
        <time>2024-03-30T12:58:24.000Z</time>
      </trkpt>
      <trkpt lat="28.237483333333333" lon="-16.488866666666667">
        <ele>1524</ele>
        <time>2024-03-30T12:58:25.000Z</time>
      </trkpt>
      <trkpt lat="28.23753333333333" lon="-16.488833333333332">
        <ele>1522</ele>
        <time>2024-03-30T12:58:26.000Z</time>
      </trkpt>
      <trkpt lat="28.237616666666668" lon="-16.488766666666667">
        <ele>1518</ele>
        <time>2024-03-30T12:58:27.000Z</time>
      </trkpt>
      <trkpt lat="28.2377" lon="-16.4887">
        <ele>1516</ele>
        <time>2024-03-30T12:58:28.000Z</time>
      </trkpt>
      <trkpt lat="28.237816666666667" lon="-16.48865">
        <ele>1516</ele>
        <time>2024-03-30T12:58:29.000Z</time>
      </trkpt>
      <trkpt lat="28.2379" lon="-16.488616666666665">
        <ele>1518</ele>
        <time>2024-03-30T12:58:30.000Z</time>
      </trkpt>
      <trkpt lat="28.237966666666665" lon="-16.488583333333334">
        <ele>1520</ele>
        <time>2024-03-30T12:58:31.000Z</time>
      </trkpt>
      <trkpt lat="28.238" lon="-16.48855">
        <ele>1520</ele>
        <time>2024-03-30T12:58:32.000Z</time>
      </trkpt>
      <trkpt lat="28.23805" lon="-16.488516666666666">
        <ele>1517</ele>
        <time>2024-03-30T12:58:33.000Z</time>
      </trkpt>
      <trkpt lat="28.238133333333334" lon="-16.488466666666667">
        <ele>1513</ele>
        <time>2024-03-30T12:58:34.000Z</time>
      </trkpt>
      <trkpt lat="28.238216666666666" lon="-16.488416666666666">
        <ele>1510</ele>
        <time>2024-03-30T12:58:35.000Z</time>
      </trkpt>
      <trkpt lat="28.238316666666666" lon="-16.48835">
        <ele>1509</ele>
        <time>2024-03-30T12:58:36.000Z</time>
      </trkpt>
      <trkpt lat="28.2384" lon="-16.4883">
        <ele>1510</ele>
        <time>2024-03-30T12:58:37.000Z</time>
      </trkpt>
      <trkpt lat="28.238466666666667" lon="-16.48825">
        <ele>1510</ele>
        <time>2024-03-30T12:58:38.000Z</time>
      </trkpt>
      <trkpt lat="28.238516666666666" lon="-16.488183333333332">
        <ele>1509</ele>
        <time>2024-03-30T12:58:39.000Z</time>
      </trkpt>
      <trkpt lat="28.238566666666667" lon="-16.488133333333334">
        <ele>1506</ele>
        <time>2024-03-30T12:58:40.000Z</time>
      </trkpt>
      <trkpt lat="28.23865" lon="-16.48806666666667">
        <ele>1504</ele>
        <time>2024-03-30T12:58:41.000Z</time>
      </trkpt>
      <trkpt lat="28.238716666666665" lon="-16.488">
        <ele>1502</ele>
        <time>2024-03-30T12:58:42.000Z</time>
      </trkpt>
      <trkpt lat="28.238816666666665" lon="-16.487916666666667">
        <ele>1501</ele>
        <time>2024-03-30T12:58:43.000Z</time>
      </trkpt>
      <trkpt lat="28.2389" lon="-16.48785">
        <ele>1499</ele>
        <time>2024-03-30T12:58:44.000Z</time>
      </trkpt>
      <trkpt lat="28.238983333333334" lon="-16.487766666666666">
        <ele>1497</ele>
        <time>2024-03-30T12:58:45.000Z</time>
      </trkpt>
      <trkpt lat="28.239066666666666" lon="-16.487683333333333">
        <ele>1495</ele>
        <time>2024-03-30T12:58:46.000Z</time>
      </trkpt>
      <trkpt lat="28.239133333333335" lon="-16.487583333333333">
        <ele>1494</ele>
        <time>2024-03-30T12:58:47.000Z</time>
      </trkpt>
      <trkpt lat="28.2392" lon="-16.487466666666666">
        <ele>1493</ele>
        <time>2024-03-30T12:58:48.000Z</time>
      </trkpt>
      <trkpt lat="28.239283333333333" lon="-16.487366666666667">
        <ele>1494</ele>
        <time>2024-03-30T12:58:49.000Z</time>
      </trkpt>
      <trkpt lat="28.23935" lon="-16.487283333333334">
        <ele>1494</ele>
        <time>2024-03-30T12:58:50.000Z</time>
      </trkpt>
      <trkpt lat="28.239416666666667" lon="-16.487216666666665">
        <ele>1493</ele>
        <time>2024-03-30T12:58:51.000Z</time>
      </trkpt>
      <trkpt lat="28.2395" lon="-16.487133333333333">
        <ele>1492</ele>
        <time>2024-03-30T12:58:52.000Z</time>
      </trkpt>
      <trkpt lat="28.2396" lon="-16.487066666666667">
        <ele>1491</ele>
        <time>2024-03-30T12:58:53.000Z</time>
      </trkpt>
      <trkpt lat="28.2397" lon="-16.486983333333335">
        <ele>1490</ele>
        <time>2024-03-30T12:58:54.000Z</time>
      </trkpt>
      <trkpt lat="28.23978333333333" lon="-16.486883333333335">
        <ele>1491</ele>
        <time>2024-03-30T12:58:55.000Z</time>
      </trkpt>
      <trkpt lat="28.239833333333333" lon="-16.4868">
        <ele>1492</ele>
        <time>2024-03-30T12:58:56.000Z</time>
      </trkpt>
      <trkpt lat="28.2399" lon="-16.486716666666666">
        <ele>1491</ele>
        <time>2024-03-30T12:58:57.000Z</time>
      </trkpt>
      <trkpt lat="28.239966666666668" lon="-16.486633333333334">
        <ele>1489</ele>
        <time>2024-03-30T12:58:58.000Z</time>
      </trkpt>
      <trkpt lat="28.24005" lon="-16.486583333333332">
        <ele>1487</ele>
        <time>2024-03-30T12:58:59.000Z</time>
      </trkpt>
      <trkpt lat="28.24015" lon="-16.486516666666667">
        <ele>1485</ele>
        <time>2024-03-30T12:59:00.000Z</time>
      </trkpt>
      <trkpt lat="28.24025" lon="-16.486466666666665">
        <ele>1484</ele>
        <time>2024-03-30T12:59:01.000Z</time>
      </trkpt>
      <trkpt lat="28.240366666666667" lon="-16.486416666666667">
        <ele>1483</ele>
        <time>2024-03-30T12:59:02.000Z</time>
      </trkpt>
      <trkpt lat="28.24045" lon="-16.486366666666665">
        <ele>1482</ele>
        <time>2024-03-30T12:59:03.000Z</time>
      </trkpt>
      <trkpt lat="28.24055" lon="-16.486316666666667">
        <ele>1480</ele>
        <time>2024-03-30T12:59:04.000Z</time>
      </trkpt>
      <trkpt lat="28.240633333333335" lon="-16.486266666666666">
        <ele>1478</ele>
        <time>2024-03-30T12:59:05.000Z</time>
      </trkpt>
      <trkpt lat="28.240716666666668" lon="-16.486216666666667">
        <ele>1475</ele>
        <time>2024-03-30T12:59:06.000Z</time>
      </trkpt>
      <trkpt lat="28.2408" lon="-16.486166666666666">
        <ele>1471</ele>
        <time>2024-03-30T12:59:07.000Z</time>
      </trkpt>
      <trkpt lat="28.2409" lon="-16.486083333333333">
        <ele>1468</ele>
        <time>2024-03-30T12:59:08.000Z</time>
      </trkpt>
      <trkpt lat="28.240983333333332" lon="-16.486">
        <ele>1466</ele>
        <time>2024-03-30T12:59:09.000Z</time>
      </trkpt>
      <trkpt lat="28.24105" lon="-16.4859">
        <ele>1465</ele>
        <time>2024-03-30T12:59:10.000Z</time>
      </trkpt>
      <trkpt lat="28.241116666666667" lon="-16.48581666666667">
        <ele>1466</ele>
        <time>2024-03-30T12:59:11.000Z</time>
      </trkpt>
      <trkpt lat="28.2412" lon="-16.48575">
        <ele>1467</ele>
        <time>2024-03-30T12:59:12.000Z</time>
      </trkpt>
      <trkpt lat="28.241266666666668" lon="-16.4857">
        <ele>1467</ele>
        <time>2024-03-30T12:59:13.000Z</time>
      </trkpt>
      <trkpt lat="28.24135" lon="-16.485633333333332">
        <ele>1466</ele>
        <time>2024-03-30T12:59:14.000Z</time>
      </trkpt>
      <trkpt lat="28.241416666666666" lon="-16.485583333333334">
        <ele>1464</ele>
        <time>2024-03-30T12:59:15.000Z</time>
      </trkpt>
      <trkpt lat="28.2415" lon="-16.485516666666665">
        <ele>1463</ele>
        <time>2024-03-30T12:59:16.000Z</time>
      </trkpt>
      <trkpt lat="28.241583333333335" lon="-16.485466666666667">
        <ele>1462</ele>
        <time>2024-03-30T12:59:17.000Z</time>
      </trkpt>
      <trkpt lat="28.241666666666667" lon="-16.4854">
        <ele>1462</ele>
        <time>2024-03-30T12:59:18.000Z</time>
      </trkpt>
      <trkpt lat="28.24175" lon="-16.48535">
        <ele>1463</ele>
        <time>2024-03-30T12:59:19.000Z</time>
      </trkpt>
      <trkpt lat="28.241816666666665" lon="-16.4853">
        <ele>1464</ele>
        <time>2024-03-30T12:59:20.000Z</time>
      </trkpt>
      <trkpt lat="28.241866666666667" lon="-16.485233333333333">
        <ele>1465</ele>
        <time>2024-03-30T12:59:21.000Z</time>
      </trkpt>
      <trkpt lat="28.241933333333332" lon="-16.4852">
        <ele>1464</ele>
        <time>2024-03-30T12:59:22.000Z</time>
      </trkpt>
      <trkpt lat="28.242" lon="-16.48515">
        <ele>1463</ele>
        <time>2024-03-30T12:59:23.000Z</time>
      </trkpt>
      <trkpt lat="28.242083333333333" lon="-16.485116666666666">
        <ele>1461</ele>
        <time>2024-03-30T12:59:24.000Z</time>
      </trkpt>
      <trkpt lat="28.24215" lon="-16.485083333333332">
        <ele>1460</ele>
        <time>2024-03-30T12:59:25.000Z</time>
      </trkpt>
      <trkpt lat="28.242216666666668" lon="-16.48505">
        <ele>1460</ele>
        <time>2024-03-30T12:59:26.000Z</time>
      </trkpt>
      <trkpt lat="28.242283333333333" lon="-16.485016666666667">
        <ele>1461</ele>
        <time>2024-03-30T12:59:27.000Z</time>
      </trkpt>
      <trkpt lat="28.24235" lon="-16.484983333333332">
        <ele>1462</ele>
        <time>2024-03-30T12:59:28.000Z</time>
      </trkpt>
      <trkpt lat="28.242383333333333" lon="-16.484933333333334">
        <ele>1461</ele>
        <time>2024-03-30T12:59:29.000Z</time>
      </trkpt>
      <trkpt lat="28.242433333333334" lon="-16.4849">
        <ele>1459</ele>
        <time>2024-03-30T12:59:30.000Z</time>
      </trkpt>
      <trkpt lat="28.242516666666667" lon="-16.48485">
        <ele>1455</ele>
        <time>2024-03-30T12:59:31.000Z</time>
      </trkpt>
      <trkpt lat="28.2426" lon="-16.4848">
        <ele>1453</ele>
        <time>2024-03-30T12:59:32.000Z</time>
      </trkpt>
      <trkpt lat="28.242683333333332" lon="-16.48475">
        <ele>1453</ele>
        <time>2024-03-30T12:59:33.000Z</time>
      </trkpt>
      <trkpt lat="28.242766666666668" lon="-16.484683333333333">
        <ele>1453</ele>
        <time>2024-03-30T12:59:34.000Z</time>
      </trkpt>
      <trkpt lat="28.242833333333333" lon="-16.48465">
        <ele>1454</ele>
        <time>2024-03-30T12:59:35.000Z</time>
      </trkpt>
      <trkpt lat="28.2429" lon="-16.4846">
        <ele>1454</ele>
        <time>2024-03-30T12:59:36.000Z</time>
      </trkpt>
      <trkpt lat="28.242966666666668" lon="-16.48455">
        <ele>1452</ele>
        <time>2024-03-30T12:59:37.000Z</time>
      </trkpt>
      <trkpt lat="28.243033333333333" lon="-16.484516666666668">
        <ele>1450</ele>
        <time>2024-03-30T12:59:38.000Z</time>
      </trkpt>
      <trkpt lat="28.2431" lon="-16.48445">
        <ele>1447</ele>
        <time>2024-03-30T12:59:39.000Z</time>
      </trkpt>
      <trkpt lat="28.243166666666667" lon="-16.484383333333334">
        <ele>1447</ele>
        <time>2024-03-30T12:59:40.000Z</time>
      </trkpt>
      <trkpt lat="28.243233333333333" lon="-16.48431666666667">
        <ele>1447</ele>
        <time>2024-03-30T12:59:41.000Z</time>
      </trkpt>
      <trkpt lat="28.243283333333334" lon="-16.484266666666667">
        <ele>1446</ele>
        <time>2024-03-30T12:59:42.000Z</time>
      </trkpt>
      <trkpt lat="28.243333333333332" lon="-16.484216666666665">
        <ele>1445</ele>
        <time>2024-03-30T12:59:43.000Z</time>
      </trkpt>
      <trkpt lat="28.2434" lon="-16.484166666666667">
        <ele>1442</ele>
        <time>2024-03-30T12:59:44.000Z</time>
      </trkpt>
      <trkpt lat="28.243483333333334" lon="-16.484133333333332">
        <ele>1440</ele>
        <time>2024-03-30T12:59:45.000Z</time>
      </trkpt>
      <trkpt lat="28.243566666666666" lon="-16.484083333333334">
        <ele>1438</ele>
        <time>2024-03-30T12:59:46.000Z</time>
      </trkpt>
      <trkpt lat="28.243666666666666" lon="-16.48405">
        <ele>1436</ele>
        <time>2024-03-30T12:59:47.000Z</time>
      </trkpt>
      <trkpt lat="28.24375" lon="-16.484016666666665">
        <ele>1435</ele>
        <time>2024-03-30T12:59:48.000Z</time>
      </trkpt>
      <trkpt lat="28.243833333333335" lon="-16.483983333333335">
        <ele>1435</ele>
        <time>2024-03-30T12:59:49.000Z</time>
      </trkpt>
      <trkpt lat="28.243916666666667" lon="-16.48395">
        <ele>1435</ele>
        <time>2024-03-30T12:59:50.000Z</time>
      </trkpt>
      <trkpt lat="28.243983333333333" lon="-16.483883333333335">
        <ele>1435</ele>
        <time>2024-03-30T12:59:51.000Z</time>
      </trkpt>
      <trkpt lat="28.24405" lon="-16.483833333333333">
        <ele>1435</ele>
        <time>2024-03-30T12:59:52.000Z</time>
      </trkpt>
      <trkpt lat="28.244116666666667" lon="-16.483783333333335">
        <ele>1435</ele>
        <time>2024-03-30T12:59:53.000Z</time>
      </trkpt>
      <trkpt lat="28.244183333333332" lon="-16.48375">
        <ele>1434</ele>
        <time>2024-03-30T12:59:54.000Z</time>
      </trkpt>
      <trkpt lat="28.244266666666668" lon="-16.4837">
        <ele>1433</ele>
        <time>2024-03-30T12:59:55.000Z</time>
      </trkpt>
      <trkpt lat="28.244333333333334" lon="-16.48365">
        <ele>1432</ele>
        <time>2024-03-30T12:59:56.000Z</time>
      </trkpt>
      <trkpt lat="28.2444" lon="-16.483583333333332">
        <ele>1431</ele>
        <time>2024-03-30T12:59:57.000Z</time>
      </trkpt>
      <trkpt lat="28.244483333333335" lon="-16.483533333333334">
        <ele>1430</ele>
        <time>2024-03-30T12:59:58.000Z</time>
      </trkpt>
      <trkpt lat="28.244566666666667" lon="-16.483483333333332">
        <ele>1429</ele>
        <time>2024-03-30T12:59:59.000Z</time>
      </trkpt>
      <trkpt lat="28.24465" lon="-16.483433333333334">
        <ele>1428</ele>
        <time>2024-03-30T13:00:00.000Z</time>
      </trkpt>
      <trkpt lat="28.244716666666665" lon="-16.483383333333332">
        <ele>1427</ele>
        <time>2024-03-30T13:00:01.000Z</time>
      </trkpt>
      <trkpt lat="28.244783333333334" lon="-16.4833">
        <ele>1426</ele>
        <time>2024-03-30T13:00:02.000Z</time>
      </trkpt>
      <trkpt lat="28.244866666666667" lon="-16.483216666666667">
        <ele>1424</ele>
        <time>2024-03-30T13:00:03.000Z</time>
      </trkpt>
      <trkpt lat="28.24495" lon="-16.48315">
        <ele>1423</ele>
        <time>2024-03-30T13:00:04.000Z</time>
      </trkpt>
      <trkpt lat="28.245033333333332" lon="-16.4831">
        <ele>1421</ele>
        <time>2024-03-30T13:00:05.000Z</time>
      </trkpt>
      <trkpt lat="28.245116666666668" lon="-16.483066666666666">
        <ele>1419</ele>
        <time>2024-03-30T13:00:06.000Z</time>
      </trkpt>
      <trkpt lat="28.2452" lon="-16.483016666666668">
        <ele>1417</ele>
        <time>2024-03-30T13:00:07.000Z</time>
      </trkpt>
      <trkpt lat="28.245283333333333" lon="-16.482966666666666">
        <ele>1414</ele>
        <time>2024-03-30T13:00:08.000Z</time>
      </trkpt>
      <trkpt lat="28.245366666666666" lon="-16.48293333333333">
        <ele>1411</ele>
        <time>2024-03-30T13:00:09.000Z</time>
      </trkpt>
      <trkpt lat="28.245466666666665" lon="-16.482866666666666">
        <ele>1409</ele>
        <time>2024-03-30T13:00:10.000Z</time>
      </trkpt>
      <trkpt lat="28.24555" lon="-16.48281666666667">
        <ele>1406</ele>
        <time>2024-03-30T13:00:11.000Z</time>
      </trkpt>
      <trkpt lat="28.245616666666667" lon="-16.48275">
        <ele>1404</ele>
        <time>2024-03-30T13:00:12.000Z</time>
      </trkpt>
      <trkpt lat="28.245683333333332" lon="-16.4827">
        <ele>1403</ele>
        <time>2024-03-30T13:00:13.000Z</time>
      </trkpt>
      <trkpt lat="28.24576666666667" lon="-16.48265">
        <ele>1400</ele>
        <time>2024-03-30T13:00:14.000Z</time>
      </trkpt>
      <trkpt lat="28.245833333333334" lon="-16.4826">
        <ele>1398</ele>
        <time>2024-03-30T13:00:15.000Z</time>
      </trkpt>
      <trkpt lat="28.2459" lon="-16.48255">
        <ele>1395</ele>
        <time>2024-03-30T13:00:16.000Z</time>
      </trkpt>
      <trkpt lat="28.245983333333335" lon="-16.482483333333334">
        <ele>1393</ele>
        <time>2024-03-30T13:00:17.000Z</time>
      </trkpt>
      <trkpt lat="28.24605" lon="-16.482416666666666">
        <ele>1392</ele>
        <time>2024-03-30T13:00:18.000Z</time>
      </trkpt>
      <trkpt lat="28.246133333333333" lon="-16.482366666666667">
        <ele>1392</ele>
        <time>2024-03-30T13:00:19.000Z</time>
      </trkpt>
      <trkpt lat="28.246216666666665" lon="-16.482316666666666">
        <ele>1391</ele>
        <time>2024-03-30T13:00:20.000Z</time>
      </trkpt>
      <trkpt lat="28.2463" lon="-16.482283333333335">
        <ele>1391</ele>
        <time>2024-03-30T13:00:21.000Z</time>
      </trkpt>
      <trkpt lat="28.246383333333334" lon="-16.482233333333333">
        <ele>1391</ele>
        <time>2024-03-30T13:00:22.000Z</time>
      </trkpt>
      <trkpt lat="28.24645" lon="-16.4822">
        <ele>1390</ele>
        <time>2024-03-30T13:00:23.000Z</time>
      </trkpt>
      <trkpt lat="28.24651666666667" lon="-16.48215">
        <ele>1387</ele>
        <time>2024-03-30T13:00:24.000Z</time>
      </trkpt>
      <trkpt lat="28.246583333333334" lon="-16.482116666666666">
        <ele>1383</ele>
        <time>2024-03-30T13:00:25.000Z</time>
      </trkpt>
      <trkpt lat="28.246666666666666" lon="-16.482066666666668">
        <ele>1378</ele>
        <time>2024-03-30T13:00:26.000Z</time>
      </trkpt>
      <trkpt lat="28.246766666666666" lon="-16.482">
        <ele>1373</ele>
        <time>2024-03-30T13:00:27.000Z</time>
      </trkpt>
      <trkpt lat="28.24685" lon="-16.481933333333334">
        <ele>1371</ele>
        <time>2024-03-30T13:00:28.000Z</time>
      </trkpt>
      <trkpt lat="28.246916666666667" lon="-16.481866666666665">
        <ele>1370</ele>
        <time>2024-03-30T13:00:29.000Z</time>
      </trkpt>
      <trkpt lat="28.246983333333333" lon="-16.481816666666667">
        <ele>1369</ele>
        <time>2024-03-30T13:00:30.000Z</time>
      </trkpt>
      <trkpt lat="28.247033333333334" lon="-16.481783333333333">
        <ele>1366</ele>
        <time>2024-03-30T13:00:31.000Z</time>
      </trkpt>
      <trkpt lat="28.247083333333332" lon="-16.48175">
        <ele>1361</ele>
        <time>2024-03-30T13:00:32.000Z</time>
      </trkpt>
      <trkpt lat="28.24715" lon="-16.481666666666666">
        <ele>1355</ele>
        <time>2024-03-30T13:00:33.000Z</time>
      </trkpt>
      <trkpt lat="28.247216666666667" lon="-16.48155">
        <ele>1350</ele>
        <time>2024-03-30T13:00:34.000Z</time>
      </trkpt>
      <trkpt lat="28.247283333333332" lon="-16.48143333333333">
        <ele>1350</ele>
        <time>2024-03-30T13:00:35.000Z</time>
      </trkpt>
      <trkpt lat="28.24735" lon="-16.481333333333332">
        <ele>1353</ele>
        <time>2024-03-30T13:00:36.000Z</time>
      </trkpt>
      <trkpt lat="28.2474" lon="-16.481266666666667">
        <ele>1355</ele>
        <time>2024-03-30T13:00:37.000Z</time>
      </trkpt>
      <trkpt lat="28.247433333333333" lon="-16.48121666666667">
        <ele>1355</ele>
        <time>2024-03-30T13:00:38.000Z</time>
      </trkpt>
      <trkpt lat="28.24745" lon="-16.481166666666667">
        <ele>1353</ele>
        <time>2024-03-30T13:00:39.000Z</time>
      </trkpt>
      <trkpt lat="28.247483333333335" lon="-16.481116666666665">
        <ele>1349</ele>
        <time>2024-03-30T13:00:40.000Z</time>
      </trkpt>
      <trkpt lat="28.24755" lon="-16.481033333333333">
        <ele>1345</ele>
        <time>2024-03-30T13:00:41.000Z</time>
      </trkpt>
      <trkpt lat="28.247633333333333" lon="-16.480966666666667">
        <ele>1341</ele>
        <time>2024-03-30T13:00:42.000Z</time>
      </trkpt>
      <trkpt lat="28.247716666666665" lon="-16.480883333333335">
        <ele>1340</ele>
        <time>2024-03-30T13:00:43.000Z</time>
      </trkpt>
      <trkpt lat="28.2478" lon="-16.480816666666666">
        <ele>1340</ele>
        <time>2024-03-30T13:00:44.000Z</time>
      </trkpt>
      <trkpt lat="28.247866666666667" lon="-16.48075">
        <ele>1341</ele>
        <time>2024-03-30T13:00:45.000Z</time>
      </trkpt>
      <trkpt lat="28.247933333333332" lon="-16.480716666666666">
        <ele>1339</ele>
        <time>2024-03-30T13:00:46.000Z</time>
      </trkpt>
      <trkpt lat="28.248" lon="-16.480666666666668">
        <ele>1337</ele>
        <time>2024-03-30T13:00:47.000Z</time>
      </trkpt>
      <trkpt lat="28.24805" lon="-16.480616666666666">
        <ele>1333</ele>
        <time>2024-03-30T13:00:48.000Z</time>
      </trkpt>
      <trkpt lat="28.248116666666668" lon="-16.480533333333334">
        <ele>1331</ele>
        <time>2024-03-30T13:00:49.000Z</time>
      </trkpt>
      <trkpt lat="28.248183333333333" lon="-16.48046666666667">
        <ele>1330</ele>
        <time>2024-03-30T13:00:50.000Z</time>
      </trkpt>
      <trkpt lat="28.24825" lon="-16.4804">
        <ele>1329</ele>
        <time>2024-03-30T13:00:51.000Z</time>
      </trkpt>
      <trkpt lat="28.248316666666668" lon="-16.48035">
        <ele>1329</ele>
        <time>2024-03-30T13:00:52.000Z</time>
      </trkpt>
      <trkpt lat="28.248383333333333" lon="-16.4803">
        <ele>1328</ele>
        <time>2024-03-30T13:00:53.000Z</time>
      </trkpt>
      <trkpt lat="28.248416666666667" lon="-16.480233333333334">
        <ele>1327</ele>
        <time>2024-03-30T13:00:54.000Z</time>
      </trkpt>
      <trkpt lat="28.24845" lon="-16.48015">
        <ele>1324</ele>
        <time>2024-03-30T13:00:55.000Z</time>
      </trkpt>
      <trkpt lat="28.248466666666666" lon="-16.480066666666666">
        <ele>1323</ele>
        <time>2024-03-30T13:00:56.000Z</time>
      </trkpt>
      <trkpt lat="28.248516666666667" lon="-16.48">
        <ele>1322</ele>
        <time>2024-03-30T13:00:57.000Z</time>
      </trkpt>
      <trkpt lat="28.248566666666665" lon="-16.479933333333335">
        <ele>1321</ele>
        <time>2024-03-30T13:00:58.000Z</time>
      </trkpt>
      <trkpt lat="28.248616666666667" lon="-16.479866666666666">
        <ele>1320</ele>
        <time>2024-03-30T13:00:59.000Z</time>
      </trkpt>
      <trkpt lat="28.248666666666665" lon="-16.479783333333334">
        <ele>1319</ele>
        <time>2024-03-30T13:01:00.000Z</time>
      </trkpt>
      <trkpt lat="28.248716666666667" lon="-16.4797">
        <ele>1318</ele>
        <time>2024-03-30T13:01:01.000Z</time>
      </trkpt>
      <trkpt lat="28.24875" lon="-16.479616666666665">
        <ele>1317</ele>
        <time>2024-03-30T13:01:02.000Z</time>
      </trkpt>
      <trkpt lat="28.248816666666666" lon="-16.47955">
        <ele>1316</ele>
        <time>2024-03-30T13:01:03.000Z</time>
      </trkpt>
      <trkpt lat="28.248883333333332" lon="-16.4795">
        <ele>1316</ele>
        <time>2024-03-30T13:01:04.000Z</time>
      </trkpt>
      <trkpt lat="28.248966666666668" lon="-16.479433333333333">
        <ele>1316</ele>
        <time>2024-03-30T13:01:05.000Z</time>
      </trkpt>
      <trkpt lat="28.249033333333333" lon="-16.47935">
        <ele>1316</ele>
        <time>2024-03-30T13:01:06.000Z</time>
      </trkpt>
      <trkpt lat="28.249066666666668" lon="-16.479283333333335">
        <ele>1316</ele>
        <time>2024-03-30T13:01:07.000Z</time>
      </trkpt>
      <trkpt lat="28.249116666666666" lon="-16.4792">
        <ele>1315</ele>
        <time>2024-03-30T13:01:08.000Z</time>
      </trkpt>
      <trkpt lat="28.249166666666667" lon="-16.4791">
        <ele>1316</ele>
        <time>2024-03-30T13:01:09.000Z</time>
      </trkpt>
      <trkpt lat="28.249216666666666" lon="-16.479">
        <ele>1318</ele>
        <time>2024-03-30T13:01:10.000Z</time>
      </trkpt>
      <trkpt lat="28.24925" lon="-16.478916666666667">
        <ele>1321</ele>
        <time>2024-03-30T13:01:11.000Z</time>
      </trkpt>
      <trkpt lat="28.249283333333334" lon="-16.478866666666665">
        <ele>1325</ele>
        <time>2024-03-30T13:01:12.000Z</time>
      </trkpt>
      <trkpt lat="28.249333333333333" lon="-16.478816666666667">
        <ele>1327</ele>
        <time>2024-03-30T13:01:13.000Z</time>
      </trkpt>
      <trkpt lat="28.249383333333334" lon="-16.478766666666665">
        <ele>1328</ele>
        <time>2024-03-30T13:01:14.000Z</time>
      </trkpt>
      <trkpt lat="28.249433333333332" lon="-16.478716666666667">
        <ele>1329</ele>
        <time>2024-03-30T13:01:15.000Z</time>
      </trkpt>
      <trkpt lat="28.249483333333334" lon="-16.478683333333333">
        <ele>1329</ele>
        <time>2024-03-30T13:01:16.000Z</time>
      </trkpt>
      <trkpt lat="28.249533333333332" lon="-16.478633333333335">
        <ele>1328</ele>
        <time>2024-03-30T13:01:17.000Z</time>
      </trkpt>
      <trkpt lat="28.249583333333334" lon="-16.478566666666666">
        <ele>1329</ele>
        <time>2024-03-30T13:01:18.000Z</time>
      </trkpt>
      <trkpt lat="28.249633333333332" lon="-16.4785">
        <ele>1330</ele>
        <time>2024-03-30T13:01:19.000Z</time>
      </trkpt>
      <trkpt lat="28.249683333333333" lon="-16.478466666666666">
        <ele>1332</ele>
        <time>2024-03-30T13:01:20.000Z</time>
      </trkpt>
      <trkpt lat="28.249716666666668" lon="-16.478416666666668">
        <ele>1333</ele>
        <time>2024-03-30T13:01:21.000Z</time>
      </trkpt>
      <trkpt lat="28.249766666666666" lon="-16.47835">
        <ele>1333</ele>
        <time>2024-03-30T13:01:22.000Z</time>
      </trkpt>
      <trkpt lat="28.249783333333333" lon="-16.478283333333334">
        <ele>1334</ele>
        <time>2024-03-30T13:01:23.000Z</time>
      </trkpt>
      <trkpt lat="28.249783333333333" lon="-16.4782">
        <ele>1334</ele>
        <time>2024-03-30T13:01:24.000Z</time>
      </trkpt>
      <trkpt lat="28.24975" lon="-16.478133333333332">
        <ele>1335</ele>
        <time>2024-03-30T13:01:25.000Z</time>
      </trkpt>
      <trkpt lat="28.24973333333333" lon="-16.478083333333334">
        <ele>1335</ele>
        <time>2024-03-30T13:01:26.000Z</time>
      </trkpt>
      <trkpt lat="28.24975" lon="-16.478033333333332">
        <ele>1335</ele>
        <time>2024-03-30T13:01:27.000Z</time>
      </trkpt>
      <trkpt lat="28.249783333333333" lon="-16.477983333333334">
        <ele>1334</ele>
        <time>2024-03-30T13:01:28.000Z</time>
      </trkpt>
      <trkpt lat="28.249833333333335" lon="-16.477933333333333">
        <ele>1333</ele>
        <time>2024-03-30T13:01:29.000Z</time>
      </trkpt>
      <trkpt lat="28.249883333333333" lon="-16.477883333333335">
        <ele>1332</ele>
        <time>2024-03-30T13:01:30.000Z</time>
      </trkpt>
      <trkpt lat="28.24995" lon="-16.477816666666666">
        <ele>1332</ele>
        <time>2024-03-30T13:01:31.000Z</time>
      </trkpt>
      <trkpt lat="28.25" lon="-16.47775">
        <ele>1331</ele>
        <time>2024-03-30T13:01:32.000Z</time>
      </trkpt>
      <trkpt lat="28.250033333333334" lon="-16.4777">
        <ele>1331</ele>
        <time>2024-03-30T13:01:33.000Z</time>
      </trkpt>
      <trkpt lat="28.2501" lon="-16.477666666666668">
        <ele>1331</ele>
        <time>2024-03-30T13:01:34.000Z</time>
      </trkpt>
      <trkpt lat="28.250166666666665" lon="-16.477633333333333">
        <ele>1330</ele>
        <time>2024-03-30T13:01:35.000Z</time>
      </trkpt>
      <trkpt lat="28.25025" lon="-16.477616666666666">
        <ele>1330</ele>
        <time>2024-03-30T13:01:36.000Z</time>
      </trkpt>
      <trkpt lat="28.250316666666667" lon="-16.47758333333333">
        <ele>1330</ele>
        <time>2024-03-30T13:01:37.000Z</time>
      </trkpt>
      <trkpt lat="28.250383333333332" lon="-16.477533333333334">
        <ele>1331</ele>
        <time>2024-03-30T13:01:38.000Z</time>
      </trkpt>
      <trkpt lat="28.250433333333334" lon="-16.4775">
        <ele>1332</ele>
        <time>2024-03-30T13:01:39.000Z</time>
      </trkpt>
      <trkpt lat="28.25048333333333" lon="-16.47745">
        <ele>1332</ele>
        <time>2024-03-30T13:01:40.000Z</time>
      </trkpt>
      <trkpt lat="28.250516666666666" lon="-16.477416666666667">
        <ele>1331</ele>
        <time>2024-03-30T13:01:41.000Z</time>
      </trkpt>
      <trkpt lat="28.25055" lon="-16.477383333333332">
        <ele>1330</ele>
        <time>2024-03-30T13:01:42.000Z</time>
      </trkpt>
      <trkpt lat="28.2506" lon="-16.477333333333334">
        <ele>1328</ele>
        <time>2024-03-30T13:01:43.000Z</time>
      </trkpt>
      <trkpt lat="28.250666666666667" lon="-16.477283333333332">
        <ele>1327</ele>
        <time>2024-03-30T13:01:44.000Z</time>
      </trkpt>
      <trkpt lat="28.250716666666666" lon="-16.477216666666667">
        <ele>1326</ele>
        <time>2024-03-30T13:01:45.000Z</time>
      </trkpt>
      <trkpt lat="28.250766666666667" lon="-16.477166666666665">
        <ele>1326</ele>
        <time>2024-03-30T13:01:46.000Z</time>
      </trkpt>
      <trkpt lat="28.250833333333333" lon="-16.4771">
        <ele>1326</ele>
        <time>2024-03-30T13:01:47.000Z</time>
      </trkpt>
      <trkpt lat="28.250866666666667" lon="-16.47705">
        <ele>1326</ele>
        <time>2024-03-30T13:01:48.000Z</time>
      </trkpt>
      <trkpt lat="28.2509" lon="-16.477">
        <ele>1326</ele>
        <time>2024-03-30T13:01:49.000Z</time>
      </trkpt>
      <trkpt lat="28.250933333333332" lon="-16.476966666666666">
        <ele>1324</ele>
        <time>2024-03-30T13:01:50.000Z</time>
      </trkpt>
      <trkpt lat="28.250966666666667" lon="-16.476916666666668">
        <ele>1322</ele>
        <time>2024-03-30T13:01:51.000Z</time>
      </trkpt>
      <trkpt lat="28.251" lon="-16.476866666666666">
        <ele>1320</ele>
        <time>2024-03-30T13:01:52.000Z</time>
      </trkpt>
      <trkpt lat="28.251033333333332" lon="-16.4768">
        <ele>1317</ele>
        <time>2024-03-30T13:01:53.000Z</time>
      </trkpt>
      <trkpt lat="28.251083333333334" lon="-16.476733333333332">
        <ele>1314</ele>
        <time>2024-03-30T13:01:54.000Z</time>
      </trkpt>
      <trkpt lat="28.251116666666668" lon="-16.476683333333334">
        <ele>1312</ele>
        <time>2024-03-30T13:01:55.000Z</time>
      </trkpt>
      <trkpt lat="28.251166666666666" lon="-16.476633333333332">
        <ele>1310</ele>
        <time>2024-03-30T13:01:56.000Z</time>
      </trkpt>
      <trkpt lat="28.25123333333333" lon="-16.476566666666667">
        <ele>1308</ele>
        <time>2024-03-30T13:01:57.000Z</time>
      </trkpt>
      <trkpt lat="28.251283333333333" lon="-16.4765">
        <ele>1308</ele>
        <time>2024-03-30T13:01:58.000Z</time>
      </trkpt>
      <trkpt lat="28.251333333333335" lon="-16.476433333333333">
        <ele>1308</ele>
        <time>2024-03-30T13:01:59.000Z</time>
      </trkpt>
      <trkpt lat="28.251383333333333" lon="-16.476366666666667">
        <ele>1309</ele>
        <time>2024-03-30T13:02:00.000Z</time>
      </trkpt>
      <trkpt lat="28.25145" lon="-16.476316666666666">
        <ele>1310</ele>
        <time>2024-03-30T13:02:01.000Z</time>
      </trkpt>
      <trkpt lat="28.2515" lon="-16.476266666666668">
        <ele>1311</ele>
        <time>2024-03-30T13:02:02.000Z</time>
      </trkpt>
      <trkpt lat="28.251566666666665" lon="-16.47625">
        <ele>1312</ele>
        <time>2024-03-30T13:02:03.000Z</time>
      </trkpt>
      <trkpt lat="28.251616666666667" lon="-16.476216666666666">
        <ele>1313</ele>
        <time>2024-03-30T13:02:04.000Z</time>
      </trkpt>
      <trkpt lat="28.25165" lon="-16.476166666666668">
        <ele>1316</ele>
        <time>2024-03-30T13:02:05.000Z</time>
      </trkpt>
      <trkpt lat="28.25165" lon="-16.4761">
        <ele>1318</ele>
        <time>2024-03-30T13:02:06.000Z</time>
      </trkpt>
      <trkpt lat="28.2516" lon="-16.476033333333334">
        <ele>1320</ele>
        <time>2024-03-30T13:02:07.000Z</time>
      </trkpt>
      <trkpt lat="28.251533333333334" lon="-16.476033333333334">
        <ele>1322</ele>
        <time>2024-03-30T13:02:08.000Z</time>
      </trkpt>
      <trkpt lat="28.251416666666668" lon="-16.47608333333333">
        <ele>1322</ele>
        <time>2024-03-30T13:02:09.000Z</time>
      </trkpt>
      <trkpt lat="28.251316666666668" lon="-16.4762">
        <ele>1322</ele>
        <time>2024-03-30T13:02:10.000Z</time>
      </trkpt>
      <trkpt lat="28.25125" lon="-16.476333333333333">
        <ele>1326</ele>
        <time>2024-03-30T13:02:11.000Z</time>
      </trkpt>
      <trkpt lat="28.2512" lon="-16.476466666666667">
        <ele>1331</ele>
        <time>2024-03-30T13:02:12.000Z</time>
      </trkpt>
      <trkpt lat="28.251183333333334" lon="-16.476583333333334">
        <ele>1334</ele>
        <time>2024-03-30T13:02:13.000Z</time>
      </trkpt>
      <trkpt lat="28.251216666666668" lon="-16.476683333333334">
        <ele>1335</ele>
        <time>2024-03-30T13:02:14.000Z</time>
      </trkpt>
      <trkpt lat="28.251283333333333" lon="-16.476783333333334">
        <ele>1334</ele>
        <time>2024-03-30T13:02:15.000Z</time>
      </trkpt>
      <trkpt lat="28.251383333333333" lon="-16.476883333333333">
        <ele>1332</ele>
        <time>2024-03-30T13:02:16.000Z</time>
      </trkpt>
      <trkpt lat="28.2515" lon="-16.476933333333335">
        <ele>1332</ele>
        <time>2024-03-30T13:02:17.000Z</time>
      </trkpt>
      <trkpt lat="28.251616666666667" lon="-16.476933333333335">
        <ele>1333</ele>
        <time>2024-03-30T13:02:18.000Z</time>
      </trkpt>
      <trkpt lat="28.251716666666667" lon="-16.476933333333335">
        <ele>1336</ele>
        <time>2024-03-30T13:02:19.000Z</time>
      </trkpt>
      <trkpt lat="28.2518" lon="-16.476933333333335">
        <ele>1339</ele>
        <time>2024-03-30T13:02:20.000Z</time>
      </trkpt>
      <trkpt lat="28.251883333333332" lon="-16.476933333333335">
        <ele>1343</ele>
        <time>2024-03-30T13:02:21.000Z</time>
      </trkpt>
      <trkpt lat="28.25195" lon="-16.476966666666666">
        <ele>1346</ele>
        <time>2024-03-30T13:02:22.000Z</time>
      </trkpt>
      <trkpt lat="28.252" lon="-16.476983333333333">
        <ele>1349</ele>
        <time>2024-03-30T13:02:23.000Z</time>
      </trkpt>
      <trkpt lat="28.25205" lon="-16.476966666666666">
        <ele>1350</ele>
        <time>2024-03-30T13:02:24.000Z</time>
      </trkpt>
      <trkpt lat="28.252083333333335" lon="-16.476933333333335">
        <ele>1350</ele>
        <time>2024-03-30T13:02:25.000Z</time>
      </trkpt>
      <trkpt lat="28.252066666666668" lon="-16.476883333333333">
        <ele>1349</ele>
        <time>2024-03-30T13:02:26.000Z</time>
      </trkpt>
      <trkpt lat="28.252016666666666" lon="-16.4768">
        <ele>1349</ele>
        <time>2024-03-30T13:02:27.000Z</time>
      </trkpt>
      <trkpt lat="28.251933333333334" lon="-16.476766666666666">
        <ele>1350</ele>
        <time>2024-03-30T13:02:28.000Z</time>
      </trkpt>
      <trkpt lat="28.25185" lon="-16.476783333333334">
        <ele>1350</ele>
        <time>2024-03-30T13:02:29.000Z</time>
      </trkpt>
      <trkpt lat="28.25175" lon="-16.476866666666666">
        <ele>1348</ele>
        <time>2024-03-30T13:02:30.000Z</time>
      </trkpt>
      <trkpt lat="28.251666666666665" lon="-16.476983333333333">
        <ele>1345</ele>
        <time>2024-03-30T13:02:31.000Z</time>
      </trkpt>
      <trkpt lat="28.2516" lon="-16.47715">
        <ele>1344</ele>
        <time>2024-03-30T13:02:32.000Z</time>
      </trkpt>
      <trkpt lat="28.251583333333333" lon="-16.477333333333334">
        <ele>1346</ele>
        <time>2024-03-30T13:02:33.000Z</time>
      </trkpt>
      <trkpt lat="28.2516" lon="-16.4775">
        <ele>1350</ele>
        <time>2024-03-30T13:02:34.000Z</time>
      </trkpt>
      <trkpt lat="28.251666666666665" lon="-16.477616666666666">
        <ele>1354</ele>
        <time>2024-03-30T13:02:35.000Z</time>
      </trkpt>
      <trkpt lat="28.25175" lon="-16.477683333333335">
        <ele>1357</ele>
        <time>2024-03-30T13:02:36.000Z</time>
      </trkpt>
      <trkpt lat="28.251833333333334" lon="-16.4777">
        <ele>1358</ele>
        <time>2024-03-30T13:02:37.000Z</time>
      </trkpt>
      <trkpt lat="28.2519" lon="-16.4777">
        <ele>1360</ele>
        <time>2024-03-30T13:02:38.000Z</time>
      </trkpt>
      <trkpt lat="28.251966666666668" lon="-16.477716666666666">
        <ele>1363</ele>
        <time>2024-03-30T13:02:39.000Z</time>
      </trkpt>
      <trkpt lat="28.252033333333333" lon="-16.477716666666666">
        <ele>1365</ele>
        <time>2024-03-30T13:02:40.000Z</time>
      </trkpt>
      <trkpt lat="28.2521" lon="-16.477733333333333">
        <ele>1365</ele>
        <time>2024-03-30T13:02:41.000Z</time>
      </trkpt>
      <trkpt lat="28.252166666666668" lon="-16.477733333333333">
        <ele>1365</ele>
        <time>2024-03-30T13:02:42.000Z</time>
      </trkpt>
      <trkpt lat="28.252233333333333" lon="-16.477716666666666">
        <ele>1365</ele>
        <time>2024-03-30T13:02:43.000Z</time>
      </trkpt>
      <trkpt lat="28.252316666666665" lon="-16.477716666666666">
        <ele>1364</ele>
        <time>2024-03-30T13:02:44.000Z</time>
      </trkpt>
      <trkpt lat="28.2524" lon="-16.4777">
        <ele>1365</ele>
        <time>2024-03-30T13:02:45.000Z</time>
      </trkpt>
      <trkpt lat="28.2525" lon="-16.477683333333335">
        <ele>1367</ele>
        <time>2024-03-30T13:02:46.000Z</time>
      </trkpt>
      <trkpt lat="28.252583333333334" lon="-16.4777">
        <ele>1370</ele>
        <time>2024-03-30T13:02:47.000Z</time>
      </trkpt>
      <trkpt lat="28.25265" lon="-16.477716666666666">
        <ele>1372</ele>
        <time>2024-03-30T13:02:48.000Z</time>
      </trkpt>
      <trkpt lat="28.2527" lon="-16.477733333333333">
        <ele>1374</ele>
        <time>2024-03-30T13:02:49.000Z</time>
      </trkpt>
      <trkpt lat="28.25275" lon="-16.477716666666666">
        <ele>1375</ele>
        <time>2024-03-30T13:02:50.000Z</time>
      </trkpt>
      <trkpt lat="28.252816666666668" lon="-16.477683333333335">
        <ele>1375</ele>
        <time>2024-03-30T13:02:51.000Z</time>
      </trkpt>
      <trkpt lat="28.252866666666666" lon="-16.477633333333333">
        <ele>1377</ele>
        <time>2024-03-30T13:02:52.000Z</time>
      </trkpt>
      <trkpt lat="28.252916666666668" lon="-16.47758333333333">
        <ele>1378</ele>
        <time>2024-03-30T13:02:53.000Z</time>
      </trkpt>
      <trkpt lat="28.252966666666666" lon="-16.477533333333334">
        <ele>1380</ele>
        <time>2024-03-30T13:02:54.000Z</time>
      </trkpt>
      <trkpt lat="28.253016666666667" lon="-16.4775">
        <ele>1382</ele>
        <time>2024-03-30T13:02:55.000Z</time>
      </trkpt>
      <trkpt lat="28.25305" lon="-16.47745">
        <ele>1382</ele>
        <time>2024-03-30T13:02:56.000Z</time>
      </trkpt>
      <trkpt lat="28.25305" lon="-16.477383333333332">
        <ele>1381</ele>
        <time>2024-03-30T13:02:57.000Z</time>
      </trkpt>
      <trkpt lat="28.253" lon="-16.477316666666667">
        <ele>1378</ele>
        <time>2024-03-30T13:02:58.000Z</time>
      </trkpt>
      <trkpt lat="28.252933333333335" lon="-16.477266666666665">
        <ele>1376</ele>
        <time>2024-03-30T13:02:59.000Z</time>
      </trkpt>
      <trkpt lat="28.25285" lon="-16.477216666666667">
        <ele>1376</ele>
        <time>2024-03-30T13:03:00.000Z</time>
      </trkpt>
      <trkpt lat="28.25275" lon="-16.4772">
        <ele>1375</ele>
        <time>2024-03-30T13:03:01.000Z</time>
      </trkpt>
      <trkpt lat="28.252633333333332" lon="-16.477183333333333">
        <ele>1374</ele>
        <time>2024-03-30T13:03:02.000Z</time>
      </trkpt>
      <trkpt lat="28.252533333333332" lon="-16.477183333333333">
        <ele>1374</ele>
        <time>2024-03-30T13:03:03.000Z</time>
      </trkpt>
      <trkpt lat="28.25245" lon="-16.4772">
        <ele>1373</ele>
        <time>2024-03-30T13:03:04.000Z</time>
      </trkpt>
      <trkpt lat="28.25235" lon="-16.477216666666667">
        <ele>1371</ele>
        <time>2024-03-30T13:03:05.000Z</time>
      </trkpt>
      <trkpt lat="28.25225" lon="-16.47725">
        <ele>1368</ele>
        <time>2024-03-30T13:03:06.000Z</time>
      </trkpt>
      <trkpt lat="28.252133333333333" lon="-16.4773">
        <ele>1366</ele>
        <time>2024-03-30T13:03:07.000Z</time>
      </trkpt>
      <trkpt lat="28.252016666666666" lon="-16.477316666666667">
        <ele>1365</ele>
        <time>2024-03-30T13:03:08.000Z</time>
      </trkpt>
      <trkpt lat="28.2519" lon="-16.47735">
        <ele>1366</ele>
        <time>2024-03-30T13:03:09.000Z</time>
      </trkpt>
      <trkpt lat="28.2518" lon="-16.47735">
        <ele>1367</ele>
        <time>2024-03-30T13:03:10.000Z</time>
      </trkpt>
      <trkpt lat="28.2517" lon="-16.477366666666665">
        <ele>1367</ele>
        <time>2024-03-30T13:03:11.000Z</time>
      </trkpt>
      <trkpt lat="28.2516" lon="-16.4774">
        <ele>1366</ele>
        <time>2024-03-30T13:03:12.000Z</time>
      </trkpt>
      <trkpt lat="28.251516666666667" lon="-16.477433333333334">
        <ele>1365</ele>
        <time>2024-03-30T13:03:13.000Z</time>
      </trkpt>
      <trkpt lat="28.2514" lon="-16.47745">
        <ele>1363</ele>
        <time>2024-03-30T13:03:14.000Z</time>
      </trkpt>
      <trkpt lat="28.251283333333333" lon="-16.477483333333332">
        <ele>1361</ele>
        <time>2024-03-30T13:03:15.000Z</time>
      </trkpt>
      <trkpt lat="28.251166666666666" lon="-16.477516666666666">
        <ele>1359</ele>
        <time>2024-03-30T13:03:16.000Z</time>
      </trkpt>
      <trkpt lat="28.25105" lon="-16.47755">
        <ele>1359</ele>
        <time>2024-03-30T13:03:17.000Z</time>
      </trkpt>
      <trkpt lat="28.25095" lon="-16.4776">
        <ele>1361</ele>
        <time>2024-03-30T13:03:18.000Z</time>
      </trkpt>
      <trkpt lat="28.250866666666667" lon="-16.477633333333333">
        <ele>1363</ele>
        <time>2024-03-30T13:03:19.000Z</time>
      </trkpt>
      <trkpt lat="28.2508" lon="-16.477666666666668">
        <ele>1365</ele>
        <time>2024-03-30T13:03:20.000Z</time>
      </trkpt>
      <trkpt lat="28.250733333333333" lon="-16.477683333333335">
        <ele>1366</ele>
        <time>2024-03-30T13:03:21.000Z</time>
      </trkpt>
      <trkpt lat="28.250683333333335" lon="-16.4777">
        <ele>1367</ele>
        <time>2024-03-30T13:03:22.000Z</time>
      </trkpt>
      <trkpt lat="28.250616666666666" lon="-16.4777">
        <ele>1366</ele>
        <time>2024-03-30T13:03:23.000Z</time>
      </trkpt>
      <trkpt lat="28.25055" lon="-16.4777">
        <ele>1365</ele>
        <time>2024-03-30T13:03:24.000Z</time>
      </trkpt>
      <trkpt lat="28.25048333333333" lon="-16.477683333333335">
        <ele>1365</ele>
        <time>2024-03-30T13:03:25.000Z</time>
      </trkpt>
      <trkpt lat="28.2504" lon="-16.477666666666668">
        <ele>1364</ele>
        <time>2024-03-30T13:03:26.000Z</time>
      </trkpt>
      <trkpt lat="28.250333333333334" lon="-16.47765">
        <ele>1363</ele>
        <time>2024-03-30T13:03:27.000Z</time>
      </trkpt>
      <trkpt lat="28.25025" lon="-16.477666666666668">
        <ele>1361</ele>
        <time>2024-03-30T13:03:28.000Z</time>
      </trkpt>
      <trkpt lat="28.250133333333334" lon="-16.477683333333335">
        <ele>1359</ele>
        <time>2024-03-30T13:03:29.000Z</time>
      </trkpt>
      <trkpt lat="28.250016666666667" lon="-16.477716666666666">
        <ele>1359</ele>
        <time>2024-03-30T13:03:30.000Z</time>
      </trkpt>
      <trkpt lat="28.2499" lon="-16.47775">
        <ele>1360</ele>
        <time>2024-03-30T13:03:31.000Z</time>
      </trkpt>
      <trkpt lat="28.249816666666668" lon="-16.477783333333335">
        <ele>1362</ele>
        <time>2024-03-30T13:03:32.000Z</time>
      </trkpt>
      <trkpt lat="28.24975" lon="-16.4778">
        <ele>1361</ele>
        <time>2024-03-30T13:03:33.000Z</time>
      </trkpt>
      <trkpt lat="28.249683333333333" lon="-16.477833333333333">
        <ele>1360</ele>
        <time>2024-03-30T13:03:34.000Z</time>
      </trkpt>
      <trkpt lat="28.2496" lon="-16.47785">
        <ele>1358</ele>
        <time>2024-03-30T13:03:35.000Z</time>
      </trkpt>
      <trkpt lat="28.24951666666667" lon="-16.477899999999998">
        <ele>1354</ele>
        <time>2024-03-30T13:03:36.000Z</time>
      </trkpt>
      <trkpt lat="28.249416666666665" lon="-16.47795">
        <ele>1351</ele>
        <time>2024-03-30T13:03:37.000Z</time>
      </trkpt>
      <trkpt lat="28.249316666666665" lon="-16.478016666666665">
        <ele>1350</ele>
        <time>2024-03-30T13:03:38.000Z</time>
      </trkpt>
      <trkpt lat="28.249216666666666" lon="-16.4781">
        <ele>1349</ele>
        <time>2024-03-30T13:03:39.000Z</time>
      </trkpt>
      <trkpt lat="28.2491" lon="-16.4782">
        <ele>1348</ele>
        <time>2024-03-30T13:03:40.000Z</time>
      </trkpt>
      <trkpt lat="28.249016666666666" lon="-16.478283333333334">
        <ele>1348</ele>
        <time>2024-03-30T13:03:41.000Z</time>
      </trkpt>
      <trkpt lat="28.248933333333333" lon="-16.478366666666666">
        <ele>1348</ele>
        <time>2024-03-30T13:03:42.000Z</time>
      </trkpt>
      <trkpt lat="28.248866666666668" lon="-16.47845">
        <ele>1345</ele>
        <time>2024-03-30T13:03:43.000Z</time>
      </trkpt>
      <trkpt lat="28.2488" lon="-16.478533333333335">
        <ele>1341</ele>
        <time>2024-03-30T13:03:44.000Z</time>
      </trkpt>
      <trkpt lat="28.2487" lon="-16.478633333333335">
        <ele>1337</ele>
        <time>2024-03-30T13:03:45.000Z</time>
      </trkpt>
      <trkpt lat="28.2486" lon="-16.478733333333334">
        <ele>1334</ele>
        <time>2024-03-30T13:03:46.000Z</time>
      </trkpt>
      <trkpt lat="28.2485" lon="-16.47885">
        <ele>1333</ele>
        <time>2024-03-30T13:03:47.000Z</time>
      </trkpt>
      <trkpt lat="28.2484" lon="-16.47895">
        <ele>1333</ele>
        <time>2024-03-30T13:03:48.000Z</time>
      </trkpt>
      <trkpt lat="28.248316666666668" lon="-16.47905">
        <ele>1334</ele>
        <time>2024-03-30T13:03:49.000Z</time>
      </trkpt>
      <trkpt lat="28.24825" lon="-16.479116666666666">
        <ele>1333</ele>
        <time>2024-03-30T13:03:50.000Z</time>
      </trkpt>
      <trkpt lat="28.248166666666666" lon="-16.479166666666668">
        <ele>1331</ele>
        <time>2024-03-30T13:03:51.000Z</time>
      </trkpt>
      <trkpt lat="28.248083333333334" lon="-16.479233333333333">
        <ele>1328</ele>
        <time>2024-03-30T13:03:52.000Z</time>
      </trkpt>
      <trkpt lat="28.247983333333334" lon="-16.4793">
        <ele>1324</ele>
        <time>2024-03-30T13:03:53.000Z</time>
      </trkpt>
      <trkpt lat="28.247883333333334" lon="-16.479383333333335">
        <ele>1323</ele>
        <time>2024-03-30T13:03:54.000Z</time>
      </trkpt>
      <trkpt lat="28.2478" lon="-16.47945">
        <ele>1323</ele>
        <time>2024-03-30T13:03:55.000Z</time>
      </trkpt>
      <trkpt lat="28.247716666666665" lon="-16.4795">
        <ele>1322</ele>
        <time>2024-03-30T13:03:56.000Z</time>
      </trkpt>
      <trkpt lat="28.24765" lon="-16.479533333333332">
        <ele>1320</ele>
        <time>2024-03-30T13:03:57.000Z</time>
      </trkpt>
      <trkpt lat="28.24755" lon="-16.479566666666667">
        <ele>1316</ele>
        <time>2024-03-30T13:03:58.000Z</time>
      </trkpt>
      <trkpt lat="28.247433333333333" lon="-16.479616666666665">
        <ele>1313</ele>
        <time>2024-03-30T13:03:59.000Z</time>
      </trkpt>
      <trkpt lat="28.247316666666666" lon="-16.479683333333334">
        <ele>1312</ele>
        <time>2024-03-30T13:04:00.000Z</time>
      </trkpt>
      <trkpt lat="28.2472" lon="-16.479733333333332">
        <ele>1313</ele>
        <time>2024-03-30T13:04:01.000Z</time>
      </trkpt>
      <trkpt lat="28.247116666666667" lon="-16.479766666666666">
        <ele>1316</ele>
        <time>2024-03-30T13:04:02.000Z</time>
      </trkpt>
      <trkpt lat="28.247033333333334" lon="-16.4798">
        <ele>1316</ele>
        <time>2024-03-30T13:04:03.000Z</time>
      </trkpt>
      <trkpt lat="28.24695" lon="-16.479816666666668">
        <ele>1316</ele>
        <time>2024-03-30T13:04:04.000Z</time>
      </trkpt>
      <trkpt lat="28.24685" lon="-16.47985">
        <ele>1315</ele>
        <time>2024-03-30T13:04:05.000Z</time>
      </trkpt>
      <trkpt lat="28.24675" lon="-16.479883333333333">
        <ele>1313</ele>
        <time>2024-03-30T13:04:06.000Z</time>
      </trkpt>
      <trkpt lat="28.24663333333333" lon="-16.479933333333335">
        <ele>1312</ele>
        <time>2024-03-30T13:04:07.000Z</time>
      </trkpt>
      <trkpt lat="28.246533333333332" lon="-16.479966666666666">
        <ele>1312</ele>
        <time>2024-03-30T13:04:08.000Z</time>
      </trkpt>
      <trkpt lat="28.246433333333332" lon="-16.48">
        <ele>1312</ele>
        <time>2024-03-30T13:04:09.000Z</time>
      </trkpt>
      <trkpt lat="28.246333333333332" lon="-16.480033333333335">
        <ele>1311</ele>
        <time>2024-03-30T13:04:10.000Z</time>
      </trkpt>
      <trkpt lat="28.24625" lon="-16.480066666666666">
        <ele>1310</ele>
        <time>2024-03-30T13:04:11.000Z</time>
      </trkpt>
      <trkpt lat="28.24615" lon="-16.480116666666667">
        <ele>1307</ele>
        <time>2024-03-30T13:04:12.000Z</time>
      </trkpt>
      <trkpt lat="28.246033333333333" lon="-16.48015">
        <ele>1305</ele>
        <time>2024-03-30T13:04:13.000Z</time>
      </trkpt>
      <trkpt lat="28.245916666666666" lon="-16.4802">
        <ele>1305</ele>
        <time>2024-03-30T13:04:14.000Z</time>
      </trkpt>
      <trkpt lat="28.2458" lon="-16.480233333333334">
        <ele>1305</ele>
        <time>2024-03-30T13:04:15.000Z</time>
      </trkpt>
      <trkpt lat="28.2457" lon="-16.48025">
        <ele>1306</ele>
        <time>2024-03-30T13:04:16.000Z</time>
      </trkpt>
      <trkpt lat="28.245616666666667" lon="-16.48025">
        <ele>1305</ele>
        <time>2024-03-30T13:04:17.000Z</time>
      </trkpt>
      <trkpt lat="28.245533333333334" lon="-16.480266666666665">
        <ele>1303</ele>
        <time>2024-03-30T13:04:18.000Z</time>
      </trkpt>
      <trkpt lat="28.24545" lon="-16.480266666666665">
        <ele>1300</ele>
        <time>2024-03-30T13:04:19.000Z</time>
      </trkpt>
      <trkpt lat="28.24535" lon="-16.480266666666665">
        <ele>1299</ele>
        <time>2024-03-30T13:04:20.000Z</time>
      </trkpt>
      <trkpt lat="28.245233333333335" lon="-16.480266666666665">
        <ele>1299</ele>
        <time>2024-03-30T13:04:21.000Z</time>
      </trkpt>
      <trkpt lat="28.24515" lon="-16.480266666666665">
        <ele>1298</ele>
        <time>2024-03-30T13:04:22.000Z</time>
      </trkpt>
      <trkpt lat="28.24505" lon="-16.480266666666665">
        <ele>1298</ele>
        <time>2024-03-30T13:04:23.000Z</time>
      </trkpt>
      <trkpt lat="28.244966666666667" lon="-16.480283333333333">
        <ele>1296</ele>
        <time>2024-03-30T13:04:24.000Z</time>
      </trkpt>
      <trkpt lat="28.244866666666667" lon="-16.480316666666667">
        <ele>1294</ele>
        <time>2024-03-30T13:04:25.000Z</time>
      </trkpt>
      <trkpt lat="28.244766666666667" lon="-16.480333333333334">
        <ele>1292</ele>
        <time>2024-03-30T13:04:26.000Z</time>
      </trkpt>
      <trkpt lat="28.24465" lon="-16.480366666666665">
        <ele>1289</ele>
        <time>2024-03-30T13:04:27.000Z</time>
      </trkpt>
      <trkpt lat="28.244533333333333" lon="-16.480383333333332">
        <ele>1288</ele>
        <time>2024-03-30T13:04:28.000Z</time>
      </trkpt>
      <trkpt lat="28.244416666666666" lon="-16.480383333333332">
        <ele>1287</ele>
        <time>2024-03-30T13:04:29.000Z</time>
      </trkpt>
      <trkpt lat="28.244316666666666" lon="-16.4804">
        <ele>1286</ele>
        <time>2024-03-30T13:04:30.000Z</time>
      </trkpt>
      <trkpt lat="28.244216666666667" lon="-16.4804">
        <ele>1285</ele>
        <time>2024-03-30T13:04:31.000Z</time>
      </trkpt>
      <trkpt lat="28.244133333333334" lon="-16.480383333333332">
        <ele>1283</ele>
        <time>2024-03-30T13:04:32.000Z</time>
      </trkpt>
      <trkpt lat="28.24405" lon="-16.480366666666665">
        <ele>1280</ele>
        <time>2024-03-30T13:04:33.000Z</time>
      </trkpt>
      <trkpt lat="28.243933333333334" lon="-16.480366666666665">
        <ele>1276</ele>
        <time>2024-03-30T13:04:34.000Z</time>
      </trkpt>
      <trkpt lat="28.243816666666667" lon="-16.480383333333332">
        <ele>1273</ele>
        <time>2024-03-30T13:04:35.000Z</time>
      </trkpt>
      <trkpt lat="28.243683333333333" lon="-16.480433333333334">
        <ele>1273</ele>
        <time>2024-03-30T13:04:36.000Z</time>
      </trkpt>
      <trkpt lat="28.243566666666666" lon="-16.48045">
        <ele>1274</ele>
        <time>2024-03-30T13:04:37.000Z</time>
      </trkpt>
      <trkpt lat="28.243466666666666" lon="-16.480483333333332">
        <ele>1273</ele>
        <time>2024-03-30T13:04:38.000Z</time>
      </trkpt>
      <trkpt lat="28.243383333333334" lon="-16.480483333333332">
        <ele>1272</ele>
        <time>2024-03-30T13:04:39.000Z</time>
      </trkpt>
      <trkpt lat="28.243283333333334" lon="-16.4805">
        <ele>1268</ele>
        <time>2024-03-30T13:04:40.000Z</time>
      </trkpt>
      <trkpt lat="28.243183333333334" lon="-16.480533333333334">
        <ele>1265</ele>
        <time>2024-03-30T13:04:41.000Z</time>
      </trkpt>
      <trkpt lat="28.24305" lon="-16.480566666666668">
        <ele>1263</ele>
        <time>2024-03-30T13:04:42.000Z</time>
      </trkpt>
      <trkpt lat="28.242933333333333" lon="-16.4806">
        <ele>1263</ele>
        <time>2024-03-30T13:04:43.000Z</time>
      </trkpt>
      <trkpt lat="28.242833333333333" lon="-16.480633333333333">
        <ele>1263</ele>
        <time>2024-03-30T13:04:44.000Z</time>
      </trkpt>
      <trkpt lat="28.24275" lon="-16.48065">
        <ele>1264</ele>
        <time>2024-03-30T13:04:45.000Z</time>
      </trkpt>
      <trkpt lat="28.24266666666667" lon="-16.480666666666668">
        <ele>1263</ele>
        <time>2024-03-30T13:04:46.000Z</time>
      </trkpt>
      <trkpt lat="28.242566666666665" lon="-16.48068333333333">
        <ele>1261</ele>
        <time>2024-03-30T13:04:47.000Z</time>
      </trkpt>
      <trkpt lat="28.242466666666665" lon="-16.4807">
        <ele>1257</ele>
        <time>2024-03-30T13:04:48.000Z</time>
      </trkpt>
      <trkpt lat="28.24235" lon="-16.4807">
        <ele>1254</ele>
        <time>2024-03-30T13:04:49.000Z</time>
      </trkpt>
      <trkpt lat="28.242233333333335" lon="-16.480716666666666">
        <ele>1253</ele>
        <time>2024-03-30T13:04:50.000Z</time>
      </trkpt>
      <trkpt lat="28.242133333333335" lon="-16.480733333333333">
        <ele>1253</ele>
        <time>2024-03-30T13:04:51.000Z</time>
      </trkpt>
      <trkpt lat="28.242016666666668" lon="-16.480766666666668">
        <ele>1251</ele>
        <time>2024-03-30T13:04:52.000Z</time>
      </trkpt>
      <trkpt lat="28.241933333333332" lon="-16.4808">
        <ele>1250</ele>
        <time>2024-03-30T13:04:53.000Z</time>
      </trkpt>
      <trkpt lat="28.241833333333332" lon="-16.480833333333333">
        <ele>1248</ele>
        <time>2024-03-30T13:04:54.000Z</time>
      </trkpt>
      <trkpt lat="28.241733333333332" lon="-16.48085">
        <ele>1246</ele>
        <time>2024-03-30T13:04:55.000Z</time>
      </trkpt>
      <trkpt lat="28.241633333333333" lon="-16.4809">
        <ele>1243</ele>
        <time>2024-03-30T13:04:56.000Z</time>
      </trkpt>
      <trkpt lat="28.241533333333333" lon="-16.480933333333333">
        <ele>1242</ele>
        <time>2024-03-30T13:04:57.000Z</time>
      </trkpt>
      <trkpt lat="28.241433333333333" lon="-16.480966666666667">
        <ele>1240</ele>
        <time>2024-03-30T13:04:58.000Z</time>
      </trkpt>
      <trkpt lat="28.241316666666666" lon="-16.481">
        <ele>1238</ele>
        <time>2024-03-30T13:04:59.000Z</time>
      </trkpt>
      <trkpt lat="28.2412" lon="-16.481">
        <ele>1238</ele>
        <time>2024-03-30T13:05:00.000Z</time>
      </trkpt>
      <trkpt lat="28.241083333333332" lon="-16.481016666666665">
        <ele>1239</ele>
        <time>2024-03-30T13:05:01.000Z</time>
      </trkpt>
      <trkpt lat="28.241" lon="-16.48105">
        <ele>1241</ele>
        <time>2024-03-30T13:05:02.000Z</time>
      </trkpt>
      <trkpt lat="28.240916666666667" lon="-16.481066666666667">
        <ele>1242</ele>
        <time>2024-03-30T13:05:03.000Z</time>
      </trkpt>
      <trkpt lat="28.240866666666665" lon="-16.481066666666667">
        <ele>1243</ele>
        <time>2024-03-30T13:05:04.000Z</time>
      </trkpt>
      <trkpt lat="28.2408" lon="-16.481066666666667">
        <ele>1243</ele>
        <time>2024-03-30T13:05:05.000Z</time>
      </trkpt>
      <trkpt lat="28.240733333333335" lon="-16.481066666666667">
        <ele>1243</ele>
        <time>2024-03-30T13:05:06.000Z</time>
      </trkpt>
      <trkpt lat="28.240666666666666" lon="-16.48105">
        <ele>1242</ele>
        <time>2024-03-30T13:05:07.000Z</time>
      </trkpt>
      <trkpt lat="28.240566666666666" lon="-16.48105">
        <ele>1241</ele>
        <time>2024-03-30T13:05:08.000Z</time>
      </trkpt>
      <trkpt lat="28.240466666666666" lon="-16.48105">
        <ele>1241</ele>
        <time>2024-03-30T13:05:09.000Z</time>
      </trkpt>
      <trkpt lat="28.240383333333334" lon="-16.481033333333333">
        <ele>1242</ele>
        <time>2024-03-30T13:05:10.000Z</time>
      </trkpt>
      <trkpt lat="28.2403" lon="-16.481">
        <ele>1243</ele>
        <time>2024-03-30T13:05:11.000Z</time>
      </trkpt>
      <trkpt lat="28.240216666666665" lon="-16.480933333333333">
        <ele>1247</ele>
        <time>2024-03-30T13:05:12.000Z</time>
      </trkpt>
      <trkpt lat="28.240133333333333" lon="-16.4809">
        <ele>1251</ele>
        <time>2024-03-30T13:05:13.000Z</time>
      </trkpt>
      <trkpt lat="28.240083333333335" lon="-16.480883333333335">
        <ele>1255</ele>
        <time>2024-03-30T13:05:14.000Z</time>
      </trkpt>
      <trkpt lat="28.240033333333333" lon="-16.4809">
        <ele>1259</ele>
        <time>2024-03-30T13:05:15.000Z</time>
      </trkpt>
      <trkpt lat="28.24" lon="-16.4809">
        <ele>1261</ele>
        <time>2024-03-30T13:05:16.000Z</time>
      </trkpt>
      <trkpt lat="28.239983333333335" lon="-16.480883333333335">
        <ele>1261</ele>
        <time>2024-03-30T13:05:17.000Z</time>
      </trkpt>
      <trkpt lat="28.239983333333335" lon="-16.48085">
        <ele>1261</ele>
        <time>2024-03-30T13:05:18.000Z</time>
      </trkpt>
      <trkpt lat="28.240033333333333" lon="-16.480783333333335">
        <ele>1260</ele>
        <time>2024-03-30T13:05:19.000Z</time>
      </trkpt>
      <trkpt lat="28.240116666666665" lon="-16.48075">
        <ele>1261</ele>
        <time>2024-03-30T13:05:20.000Z</time>
      </trkpt>
      <trkpt lat="28.240233333333332" lon="-16.480766666666668">
        <ele>1262</ele>
        <time>2024-03-30T13:05:21.000Z</time>
      </trkpt>
      <trkpt lat="28.240333333333332" lon="-16.480883333333335">
        <ele>1262</ele>
        <time>2024-03-30T13:05:22.000Z</time>
      </trkpt>
      <trkpt lat="28.240366666666667" lon="-16.48105">
        <ele>1261</ele>
        <time>2024-03-30T13:05:23.000Z</time>
      </trkpt>
      <trkpt lat="28.2403" lon="-16.48121666666667">
        <ele>1261</ele>
        <time>2024-03-30T13:05:24.000Z</time>
      </trkpt>
      <trkpt lat="28.2402" lon="-16.481316666666668">
        <ele>1264</ele>
        <time>2024-03-30T13:05:25.000Z</time>
      </trkpt>
      <trkpt lat="28.240116666666665" lon="-16.48135">
        <ele>1266</ele>
        <time>2024-03-30T13:05:26.000Z</time>
      </trkpt>
      <trkpt lat="28.240066666666667" lon="-16.4813">
        <ele>1266</ele>
        <time>2024-03-30T13:05:27.000Z</time>
      </trkpt>
      <trkpt lat="28.240066666666667" lon="-16.481233333333332">
        <ele>1265</ele>
        <time>2024-03-30T13:05:28.000Z</time>
      </trkpt>
      <trkpt lat="28.240116666666665" lon="-16.481166666666667">
        <ele>1266</ele>
        <time>2024-03-30T13:05:29.000Z</time>
      </trkpt>
      <trkpt lat="28.2402" lon="-16.481133333333332">
        <ele>1268</ele>
        <time>2024-03-30T13:05:30.000Z</time>
      </trkpt>
      <trkpt lat="28.240283333333334" lon="-16.481183333333334">
        <ele>1268</ele>
        <time>2024-03-30T13:05:31.000Z</time>
      </trkpt>
      <trkpt lat="28.240333333333332" lon="-16.481266666666667">
        <ele>1268</ele>
        <time>2024-03-30T13:05:32.000Z</time>
      </trkpt>
      <trkpt lat="28.24035" lon="-16.481416666666668">
        <ele>1266</ele>
        <time>2024-03-30T13:05:33.000Z</time>
      </trkpt>
      <trkpt lat="28.240333333333332" lon="-16.481583333333333">
        <ele>1266</ele>
        <time>2024-03-30T13:05:34.000Z</time>
      </trkpt>
      <trkpt lat="28.240283333333334" lon="-16.481716666666667">
        <ele>1269</ele>
        <time>2024-03-30T13:05:35.000Z</time>
      </trkpt>
      <trkpt lat="28.2402" lon="-16.481783333333333">
        <ele>1271</ele>
        <time>2024-03-30T13:05:36.000Z</time>
      </trkpt>
      <trkpt lat="28.240133333333333" lon="-16.481816666666667">
        <ele>1272</ele>
        <time>2024-03-30T13:05:37.000Z</time>
      </trkpt>
      <trkpt lat="28.240066666666667" lon="-16.481833333333334">
        <ele>1272</ele>
        <time>2024-03-30T13:05:38.000Z</time>
      </trkpt>
      <trkpt lat="28.240016666666666" lon="-16.481833333333334">
        <ele>1272</ele>
        <time>2024-03-30T13:05:39.000Z</time>
      </trkpt>
      <trkpt lat="28.239933333333333" lon="-16.481816666666667">
        <ele>1274</ele>
        <time>2024-03-30T13:05:40.000Z</time>
      </trkpt>
      <trkpt lat="28.239866666666668" lon="-16.481816666666667">
        <ele>1278</ele>
        <time>2024-03-30T13:05:41.000Z</time>
      </trkpt>
      <trkpt lat="28.23985" lon="-16.481783333333333">
        <ele>1282</ele>
        <time>2024-03-30T13:05:42.000Z</time>
      </trkpt>
      <trkpt lat="28.239866666666668" lon="-16.48175">
        <ele>1283</ele>
        <time>2024-03-30T13:05:43.000Z</time>
      </trkpt>
      <trkpt lat="28.239933333333333" lon="-16.481716666666667">
        <ele>1283</ele>
        <time>2024-03-30T13:05:44.000Z</time>
      </trkpt>
      <trkpt lat="28.24005" lon="-16.48175">
        <ele>1284</ele>
        <time>2024-03-30T13:05:45.000Z</time>
      </trkpt>
      <trkpt lat="28.24015" lon="-16.48185">
        <ele>1285</ele>
        <time>2024-03-30T13:05:46.000Z</time>
      </trkpt>
      <trkpt lat="28.240216666666665" lon="-16.481983333333332">
        <ele>1287</ele>
        <time>2024-03-30T13:05:47.000Z</time>
      </trkpt>
      <trkpt lat="28.240216666666665" lon="-16.482133333333334">
        <ele>1288</ele>
        <time>2024-03-30T13:05:48.000Z</time>
      </trkpt>
      <trkpt lat="28.240183333333334" lon="-16.482283333333335">
        <ele>1290</ele>
        <time>2024-03-30T13:05:49.000Z</time>
      </trkpt>
      <trkpt lat="28.2401" lon="-16.482366666666667">
        <ele>1290</ele>
        <time>2024-03-30T13:05:50.000Z</time>
      </trkpt>
      <trkpt lat="28.240016666666666" lon="-16.482416666666666">
        <ele>1290</ele>
        <time>2024-03-30T13:05:51.000Z</time>
      </trkpt>
      <trkpt lat="28.239916666666666" lon="-16.48245">
        <ele>1290</ele>
        <time>2024-03-30T13:05:52.000Z</time>
      </trkpt>
      <trkpt lat="28.239833333333333" lon="-16.48245">
        <ele>1293</ele>
        <time>2024-03-30T13:05:53.000Z</time>
      </trkpt>
      <trkpt lat="28.23978333333333" lon="-16.482433333333333">
        <ele>1295</ele>
        <time>2024-03-30T13:05:54.000Z</time>
      </trkpt>
      <trkpt lat="28.23975" lon="-16.4824">
        <ele>1297</ele>
        <time>2024-03-30T13:05:55.000Z</time>
      </trkpt>
      <trkpt lat="28.239766666666668" lon="-16.48235">
        <ele>1298</ele>
        <time>2024-03-30T13:05:56.000Z</time>
      </trkpt>
      <trkpt lat="28.239833333333333" lon="-16.482333333333333">
        <ele>1297</ele>
        <time>2024-03-30T13:05:57.000Z</time>
      </trkpt>
      <trkpt lat="28.23995" lon="-16.482366666666667">
        <ele>1296</ele>
        <time>2024-03-30T13:05:58.000Z</time>
      </trkpt>
      <trkpt lat="28.24005" lon="-16.482483333333334">
        <ele>1297</ele>
        <time>2024-03-30T13:05:59.000Z</time>
      </trkpt>
      <trkpt lat="28.2401" lon="-16.48265">
        <ele>1300</ele>
        <time>2024-03-30T13:06:00.000Z</time>
      </trkpt>
      <trkpt lat="28.240083333333335" lon="-16.4828">
        <ele>1303</ele>
        <time>2024-03-30T13:06:01.000Z</time>
      </trkpt>
      <trkpt lat="28.240016666666666" lon="-16.48293333333333">
        <ele>1303</ele>
        <time>2024-03-30T13:06:02.000Z</time>
      </trkpt>
      <trkpt lat="28.239933333333333" lon="-16.483016666666668">
        <ele>1304</ele>
        <time>2024-03-30T13:06:03.000Z</time>
      </trkpt>
      <trkpt lat="28.239833333333333" lon="-16.483066666666666">
        <ele>1305</ele>
        <time>2024-03-30T13:06:04.000Z</time>
      </trkpt>
      <trkpt lat="28.23975" lon="-16.4831">
        <ele>1308</ele>
        <time>2024-03-30T13:06:05.000Z</time>
      </trkpt>
      <trkpt lat="28.239683333333332" lon="-16.4831">
        <ele>1310</ele>
        <time>2024-03-30T13:06:06.000Z</time>
      </trkpt>
      <trkpt lat="28.239633333333334" lon="-16.483083333333333">
        <ele>1311</ele>
        <time>2024-03-30T13:06:07.000Z</time>
      </trkpt>
      <trkpt lat="28.239633333333334" lon="-16.483033333333335">
        <ele>1311</ele>
        <time>2024-03-30T13:06:08.000Z</time>
      </trkpt>
      <trkpt lat="28.23966666666667" lon="-16.482983333333333">
        <ele>1309</ele>
        <time>2024-03-30T13:06:09.000Z</time>
      </trkpt>
      <trkpt lat="28.239766666666668" lon="-16.482966666666666">
        <ele>1308</ele>
        <time>2024-03-30T13:06:10.000Z</time>
      </trkpt>
      <trkpt lat="28.239883333333335" lon="-16.483016666666668">
        <ele>1307</ele>
        <time>2024-03-30T13:06:11.000Z</time>
      </trkpt>
      <trkpt lat="28.239983333333335" lon="-16.483133333333335">
        <ele>1309</ele>
        <time>2024-03-30T13:06:12.000Z</time>
      </trkpt>
      <trkpt lat="28.240033333333333" lon="-16.483266666666665">
        <ele>1312</ele>
        <time>2024-03-30T13:06:13.000Z</time>
      </trkpt>
      <trkpt lat="28.240033333333333" lon="-16.483433333333334">
        <ele>1314</ele>
        <time>2024-03-30T13:06:14.000Z</time>
      </trkpt>
      <trkpt lat="28.239983333333335" lon="-16.483583333333332">
        <ele>1314</ele>
        <time>2024-03-30T13:06:15.000Z</time>
      </trkpt>
      <trkpt lat="28.239916666666666" lon="-16.483716666666666">
        <ele>1315</ele>
        <time>2024-03-30T13:06:16.000Z</time>
      </trkpt>
      <trkpt lat="28.23985" lon="-16.483816666666666">
        <ele>1317</ele>
        <time>2024-03-30T13:06:17.000Z</time>
      </trkpt>
      <trkpt lat="28.23978333333333" lon="-16.483883333333335">
        <ele>1318</ele>
        <time>2024-03-30T13:06:18.000Z</time>
      </trkpt>
      <trkpt lat="28.2397" lon="-16.483933333333333">
        <ele>1318</ele>
        <time>2024-03-30T13:06:19.000Z</time>
      </trkpt>
      <trkpt lat="28.239616666666667" lon="-16.48395">
        <ele>1319</ele>
        <time>2024-03-30T13:06:20.000Z</time>
      </trkpt>
      <trkpt lat="28.239566666666665" lon="-16.483933333333333">
        <ele>1320</ele>
        <time>2024-03-30T13:06:21.000Z</time>
      </trkpt>
      <trkpt lat="28.23955" lon="-16.483883333333335">
        <ele>1320</ele>
        <time>2024-03-30T13:06:22.000Z</time>
      </trkpt>
      <trkpt lat="28.239566666666665" lon="-16.483833333333333">
        <ele>1320</ele>
        <time>2024-03-30T13:06:23.000Z</time>
      </trkpt>
      <trkpt lat="28.23966666666667" lon="-16.483816666666666">
        <ele>1319</ele>
        <time>2024-03-30T13:06:24.000Z</time>
      </trkpt>
      <trkpt lat="28.239766666666668" lon="-16.483866666666668">
        <ele>1317</ele>
        <time>2024-03-30T13:06:25.000Z</time>
      </trkpt>
      <trkpt lat="28.239883333333335" lon="-16.484">
        <ele>1317</ele>
        <time>2024-03-30T13:06:26.000Z</time>
      </trkpt>
      <trkpt lat="28.239933333333333" lon="-16.484166666666667">
        <ele>1318</ele>
        <time>2024-03-30T13:06:27.000Z</time>
      </trkpt>
      <trkpt lat="28.239916666666666" lon="-16.48435">
        <ele>1319</ele>
        <time>2024-03-30T13:06:28.000Z</time>
      </trkpt>
      <trkpt lat="28.239866666666668" lon="-16.4845">
        <ele>1319</ele>
        <time>2024-03-30T13:06:29.000Z</time>
      </trkpt>
      <trkpt lat="28.23978333333333" lon="-16.484616666666668">
        <ele>1320</ele>
        <time>2024-03-30T13:06:30.000Z</time>
      </trkpt>
      <trkpt lat="28.2397" lon="-16.484716666666667">
        <ele>1321</ele>
        <time>2024-03-30T13:06:31.000Z</time>
      </trkpt>
      <trkpt lat="28.239633333333334" lon="-16.4848">
        <ele>1322</ele>
        <time>2024-03-30T13:06:32.000Z</time>
      </trkpt>
      <trkpt lat="28.239583333333332" lon="-16.4849">
        <ele>1323</ele>
        <time>2024-03-30T13:06:33.000Z</time>
      </trkpt>
      <trkpt lat="28.239516666666667" lon="-16.484966666666665">
        <ele>1324</ele>
        <time>2024-03-30T13:06:34.000Z</time>
      </trkpt>
      <trkpt lat="28.23945" lon="-16.485016666666667">
        <ele>1325</ele>
        <time>2024-03-30T13:06:35.000Z</time>
      </trkpt>
      <trkpt lat="28.239383333333333" lon="-16.485016666666667">
        <ele>1325</ele>
        <time>2024-03-30T13:06:36.000Z</time>
      </trkpt>
      <trkpt lat="28.23935" lon="-16.48495">
        <ele>1325</ele>
        <time>2024-03-30T13:06:37.000Z</time>
      </trkpt>
      <trkpt lat="28.239366666666665" lon="-16.484883333333332">
        <ele>1326</ele>
        <time>2024-03-30T13:06:38.000Z</time>
      </trkpt>
      <trkpt lat="28.239416666666667" lon="-16.48485">
        <ele>1326</ele>
        <time>2024-03-30T13:06:39.000Z</time>
      </trkpt>
      <trkpt lat="28.239516666666667" lon="-16.484866666666665">
        <ele>1325</ele>
        <time>2024-03-30T13:06:40.000Z</time>
      </trkpt>
      <trkpt lat="28.239616666666667" lon="-16.484933333333334">
        <ele>1324</ele>
        <time>2024-03-30T13:06:41.000Z</time>
      </trkpt>
      <trkpt lat="28.2397" lon="-16.48506666666667">
        <ele>1324</ele>
        <time>2024-03-30T13:06:42.000Z</time>
      </trkpt>
      <trkpt lat="28.23975" lon="-16.485233333333333">
        <ele>1325</ele>
        <time>2024-03-30T13:06:43.000Z</time>
      </trkpt>
      <trkpt lat="28.239766666666668" lon="-16.4854">
        <ele>1325</ele>
        <time>2024-03-30T13:06:44.000Z</time>
      </trkpt>
      <trkpt lat="28.239733333333334" lon="-16.485566666666667">
        <ele>1326</ele>
        <time>2024-03-30T13:06:45.000Z</time>
      </trkpt>
      <trkpt lat="28.239683333333332" lon="-16.485716666666665">
        <ele>1327</ele>
        <time>2024-03-30T13:06:46.000Z</time>
      </trkpt>
      <trkpt lat="28.2396" lon="-16.485833333333332">
        <ele>1327</ele>
        <time>2024-03-30T13:06:47.000Z</time>
      </trkpt>
      <trkpt lat="28.239516666666667" lon="-16.485916666666668">
        <ele>1327</ele>
        <time>2024-03-30T13:06:48.000Z</time>
      </trkpt>
      <trkpt lat="28.239433333333334" lon="-16.485983333333333">
        <ele>1327</ele>
        <time>2024-03-30T13:06:49.000Z</time>
      </trkpt>
      <trkpt lat="28.23935" lon="-16.48605">
        <ele>1327</ele>
        <time>2024-03-30T13:06:50.000Z</time>
      </trkpt>
      <trkpt lat="28.23925" lon="-16.486133333333335">
        <ele>1326</ele>
        <time>2024-03-30T13:06:51.000Z</time>
      </trkpt>
      <trkpt lat="28.23915" lon="-16.486216666666667">
        <ele>1326</ele>
        <time>2024-03-30T13:06:52.000Z</time>
      </trkpt>
      <trkpt lat="28.23905" lon="-16.4863">
        <ele>1328</ele>
        <time>2024-03-30T13:06:53.000Z</time>
      </trkpt>
      <trkpt lat="28.238966666666666" lon="-16.486383333333333">
        <ele>1329</ele>
        <time>2024-03-30T13:06:54.000Z</time>
      </trkpt>
      <trkpt lat="28.238883333333334" lon="-16.486433333333334">
        <ele>1330</ele>
        <time>2024-03-30T13:06:55.000Z</time>
      </trkpt>
      <trkpt lat="28.2388" lon="-16.486466666666665">
        <ele>1329</ele>
        <time>2024-03-30T13:06:56.000Z</time>
      </trkpt>
      <trkpt lat="28.238683333333334" lon="-16.486483333333332">
        <ele>1329</ele>
        <time>2024-03-30T13:06:57.000Z</time>
      </trkpt>
      <trkpt lat="28.238566666666667" lon="-16.486516666666667">
        <ele>1331</ele>
        <time>2024-03-30T13:06:58.000Z</time>
      </trkpt>
      <trkpt lat="28.238466666666667" lon="-16.486533333333334">
        <ele>1334</ele>
        <time>2024-03-30T13:06:59.000Z</time>
      </trkpt>
      <trkpt lat="28.238383333333335" lon="-16.48655">
        <ele>1336</ele>
        <time>2024-03-30T13:07:00.000Z</time>
      </trkpt>
      <trkpt lat="28.238316666666666" lon="-16.48656666666667">
        <ele>1336</ele>
        <time>2024-03-30T13:07:01.000Z</time>
      </trkpt>
      <trkpt lat="28.23825" lon="-16.486583333333332">
        <ele>1334</ele>
        <time>2024-03-30T13:07:02.000Z</time>
      </trkpt>
      <trkpt lat="28.238183333333332" lon="-16.486583333333332">
        <ele>1332</ele>
        <time>2024-03-30T13:07:03.000Z</time>
      </trkpt>
      <trkpt lat="28.2381" lon="-16.4866">
        <ele>1328</ele>
        <time>2024-03-30T13:07:04.000Z</time>
      </trkpt>
      <trkpt lat="28.237983333333332" lon="-16.486616666666666">
        <ele>1324</ele>
        <time>2024-03-30T13:07:05.000Z</time>
      </trkpt>
      <trkpt lat="28.23785" lon="-16.48665">
        <ele>1323</ele>
        <time>2024-03-30T13:07:06.000Z</time>
      </trkpt>
      <trkpt lat="28.23775" lon="-16.486683333333332">
        <ele>1323</ele>
        <time>2024-03-30T13:07:07.000Z</time>
      </trkpt>
      <trkpt lat="28.237666666666666" lon="-16.48675">
        <ele>1324</ele>
        <time>2024-03-30T13:07:08.000Z</time>
      </trkpt>
      <trkpt lat="28.2376" lon="-16.4868">
        <ele>1324</ele>
        <time>2024-03-30T13:07:09.000Z</time>
      </trkpt>
      <trkpt lat="28.237516666666668" lon="-16.486866666666668">
        <ele>1324</ele>
        <time>2024-03-30T13:07:10.000Z</time>
      </trkpt>
      <trkpt lat="28.23745" lon="-16.486916666666666">
        <ele>1321</ele>
        <time>2024-03-30T13:07:11.000Z</time>
      </trkpt>
      <trkpt lat="28.23735" lon="-16.486966666666667">
        <ele>1318</ele>
        <time>2024-03-30T13:07:12.000Z</time>
      </trkpt>
      <trkpt lat="28.23725" lon="-16.487016666666666">
        <ele>1315</ele>
        <time>2024-03-30T13:07:13.000Z</time>
      </trkpt>
      <trkpt lat="28.237166666666667" lon="-16.4871">
        <ele>1313</ele>
        <time>2024-03-30T13:07:14.000Z</time>
      </trkpt>
      <trkpt lat="28.237083333333334" lon="-16.487183333333334">
        <ele>1313</ele>
        <time>2024-03-30T13:07:15.000Z</time>
      </trkpt>
      <trkpt lat="28.237016666666666" lon="-16.48725">
        <ele>1312</ele>
        <time>2024-03-30T13:07:16.000Z</time>
      </trkpt>
      <trkpt lat="28.236933333333333" lon="-16.4873">
        <ele>1310</ele>
        <time>2024-03-30T13:07:17.000Z</time>
      </trkpt>
      <trkpt lat="28.23685" lon="-16.48731666666667">
        <ele>1308</ele>
        <time>2024-03-30T13:07:18.000Z</time>
      </trkpt>
      <trkpt lat="28.236766666666668" lon="-16.487333333333332">
        <ele>1306</ele>
        <time>2024-03-30T13:07:19.000Z</time>
      </trkpt>
      <trkpt lat="28.236683333333332" lon="-16.48735">
        <ele>1305</ele>
        <time>2024-03-30T13:07:20.000Z</time>
      </trkpt>
      <trkpt lat="28.236616666666666" lon="-16.48735">
        <ele>1305</ele>
        <time>2024-03-30T13:07:21.000Z</time>
      </trkpt>
      <trkpt lat="28.23655" lon="-16.48735">
        <ele>1304</ele>
        <time>2024-03-30T13:07:22.000Z</time>
      </trkpt>
      <trkpt lat="28.2365" lon="-16.48731666666667">
        <ele>1303</ele>
        <time>2024-03-30T13:07:23.000Z</time>
      </trkpt>
      <trkpt lat="28.236416666666667" lon="-16.487283333333334">
        <ele>1302</ele>
        <time>2024-03-30T13:07:24.000Z</time>
      </trkpt>
      <trkpt lat="28.23635" lon="-16.487283333333334">
        <ele>1299</ele>
        <time>2024-03-30T13:07:25.000Z</time>
      </trkpt>
      <trkpt lat="28.23625" lon="-16.487283333333334">
        <ele>1298</ele>
        <time>2024-03-30T13:07:26.000Z</time>
      </trkpt>
      <trkpt lat="28.236166666666666" lon="-16.4873">
        <ele>1297</ele>
        <time>2024-03-30T13:07:27.000Z</time>
      </trkpt>
      <trkpt lat="28.236083333333333" lon="-16.4873">
        <ele>1297</ele>
        <time>2024-03-30T13:07:28.000Z</time>
      </trkpt>
      <trkpt lat="28.236016666666668" lon="-16.48731666666667">
        <ele>1296</ele>
        <time>2024-03-30T13:07:29.000Z</time>
      </trkpt>
      <trkpt lat="28.23593333333333" lon="-16.48731666666667">
        <ele>1294</ele>
        <time>2024-03-30T13:07:30.000Z</time>
      </trkpt>
      <trkpt lat="28.235833333333332" lon="-16.487333333333332">
        <ele>1292</ele>
        <time>2024-03-30T13:07:31.000Z</time>
      </trkpt>
      <trkpt lat="28.235733333333332" lon="-16.48735">
        <ele>1291</ele>
        <time>2024-03-30T13:07:32.000Z</time>
      </trkpt>
      <trkpt lat="28.235633333333332" lon="-16.487383333333334">
        <ele>1291</ele>
        <time>2024-03-30T13:07:33.000Z</time>
      </trkpt>
      <trkpt lat="28.235533333333333" lon="-16.487416666666668">
        <ele>1293</ele>
        <time>2024-03-30T13:07:34.000Z</time>
      </trkpt>
      <trkpt lat="28.235433333333333" lon="-16.487466666666666">
        <ele>1294</ele>
        <time>2024-03-30T13:07:35.000Z</time>
      </trkpt>
      <trkpt lat="28.23535" lon="-16.487516666666668">
        <ele>1295</ele>
        <time>2024-03-30T13:07:36.000Z</time>
      </trkpt>
      <trkpt lat="28.235266666666668" lon="-16.48755">
        <ele>1295</ele>
        <time>2024-03-30T13:07:37.000Z</time>
      </trkpt>
      <trkpt lat="28.23518333333333" lon="-16.4876">
        <ele>1296</ele>
        <time>2024-03-30T13:07:38.000Z</time>
      </trkpt>
      <trkpt lat="28.23506666666667" lon="-16.48765">
        <ele>1297</ele>
        <time>2024-03-30T13:07:39.000Z</time>
      </trkpt>
      <trkpt lat="28.234966666666665" lon="-16.487716666666667">
        <ele>1301</ele>
        <time>2024-03-30T13:07:40.000Z</time>
      </trkpt>
      <trkpt lat="28.234883333333332" lon="-16.4878">
        <ele>1306</ele>
        <time>2024-03-30T13:07:41.000Z</time>
      </trkpt>
      <trkpt lat="28.234816666666667" lon="-16.487866666666665">
        <ele>1309</ele>
        <time>2024-03-30T13:07:42.000Z</time>
      </trkpt>
      <trkpt lat="28.234766666666665" lon="-16.4879">
        <ele>1311</ele>
        <time>2024-03-30T13:07:43.000Z</time>
      </trkpt>
      <trkpt lat="28.2347" lon="-16.487916666666667">
        <ele>1312</ele>
        <time>2024-03-30T13:07:44.000Z</time>
      </trkpt>
      <trkpt lat="28.234633333333335" lon="-16.487866666666665">
        <ele>1312</ele>
        <time>2024-03-30T13:07:45.000Z</time>
      </trkpt>
      <trkpt lat="28.234633333333335" lon="-16.487783333333333">
        <ele>1314</ele>
        <time>2024-03-30T13:07:46.000Z</time>
      </trkpt>
      <trkpt lat="28.2347" lon="-16.487716666666667">
        <ele>1316</ele>
        <time>2024-03-30T13:07:47.000Z</time>
      </trkpt>
      <trkpt lat="28.2348" lon="-16.487716666666667">
        <ele>1318</ele>
        <time>2024-03-30T13:07:48.000Z</time>
      </trkpt>
      <trkpt lat="28.234883333333332" lon="-16.4878">
        <ele>1321</ele>
        <time>2024-03-30T13:07:49.000Z</time>
      </trkpt>
      <trkpt lat="28.234966666666665" lon="-16.487916666666667">
        <ele>1323</ele>
        <time>2024-03-30T13:07:50.000Z</time>
      </trkpt>
      <trkpt lat="28.234983333333332" lon="-16.48806666666667">
        <ele>1325</ele>
        <time>2024-03-30T13:07:51.000Z</time>
      </trkpt>
      <trkpt lat="28.23495" lon="-16.488233333333334">
        <ele>1326</ele>
        <time>2024-03-30T13:07:52.000Z</time>
      </trkpt>
      <trkpt lat="28.234883333333332" lon="-16.488366666666668">
        <ele>1328</ele>
        <time>2024-03-30T13:07:53.000Z</time>
      </trkpt>
      <trkpt lat="28.2348" lon="-16.48845">
        <ele>1330</ele>
        <time>2024-03-30T13:07:54.000Z</time>
      </trkpt>
      <trkpt lat="28.2347" lon="-16.488483333333335">
        <ele>1331</ele>
        <time>2024-03-30T13:07:55.000Z</time>
      </trkpt>
      <trkpt lat="28.234616666666668" lon="-16.488466666666667">
        <ele>1333</ele>
        <time>2024-03-30T13:07:56.000Z</time>
      </trkpt>
      <trkpt lat="28.23455" lon="-16.488416666666666">
        <ele>1335</ele>
        <time>2024-03-30T13:07:57.000Z</time>
      </trkpt>
      <trkpt lat="28.234533333333335" lon="-16.488366666666668">
        <ele>1337</ele>
        <time>2024-03-30T13:07:58.000Z</time>
      </trkpt>
      <trkpt lat="28.23455" lon="-16.4883">
        <ele>1339</ele>
        <time>2024-03-30T13:07:59.000Z</time>
      </trkpt>
      <trkpt lat="28.2346" lon="-16.488266666666668">
        <ele>1341</ele>
        <time>2024-03-30T13:08:00.000Z</time>
      </trkpt>
      <trkpt lat="28.2347" lon="-16.488266666666668">
        <ele>1341</ele>
        <time>2024-03-30T13:08:01.000Z</time>
      </trkpt>
      <trkpt lat="28.2348" lon="-16.4883">
        <ele>1341</ele>
        <time>2024-03-30T13:08:02.000Z</time>
      </trkpt>
      <trkpt lat="28.2349" lon="-16.488416666666666">
        <ele>1342</ele>
        <time>2024-03-30T13:08:03.000Z</time>
      </trkpt>
      <trkpt lat="28.234933333333334" lon="-16.488583333333334">
        <ele>1345</ele>
        <time>2024-03-30T13:08:04.000Z</time>
      </trkpt>
      <trkpt lat="28.234916666666667" lon="-16.488733333333332">
        <ele>1346</ele>
        <time>2024-03-30T13:08:05.000Z</time>
      </trkpt>
      <trkpt lat="28.23485" lon="-16.488866666666667">
        <ele>1345</ele>
        <time>2024-03-30T13:08:06.000Z</time>
      </trkpt>
      <trkpt lat="28.234733333333335" lon="-16.488933333333332">
        <ele>1345</ele>
        <time>2024-03-30T13:08:07.000Z</time>
      </trkpt>
      <trkpt lat="28.2346" lon="-16.488933333333332">
        <ele>1348</ele>
        <time>2024-03-30T13:08:08.000Z</time>
      </trkpt>
      <trkpt lat="28.234516666666668" lon="-16.488916666666668">
        <ele>1352</ele>
        <time>2024-03-30T13:08:09.000Z</time>
      </trkpt>
      <trkpt lat="28.234466666666666" lon="-16.488866666666667">
        <ele>1356</ele>
        <time>2024-03-30T13:08:10.000Z</time>
      </trkpt>
      <trkpt lat="28.23445" lon="-16.4888">
        <ele>1358</ele>
        <time>2024-03-30T13:08:11.000Z</time>
      </trkpt>
      <trkpt lat="28.234483333333333" lon="-16.48875">
        <ele>1358</ele>
        <time>2024-03-30T13:08:12.000Z</time>
      </trkpt>
      <trkpt lat="28.23455" lon="-16.488716666666665">
        <ele>1357</ele>
        <time>2024-03-30T13:08:13.000Z</time>
      </trkpt>
      <trkpt lat="28.23465" lon="-16.488716666666665">
        <ele>1357</ele>
        <time>2024-03-30T13:08:14.000Z</time>
      </trkpt>
      <trkpt lat="28.23475" lon="-16.4888">
        <ele>1358</ele>
        <time>2024-03-30T13:08:15.000Z</time>
      </trkpt>
      <trkpt lat="28.234816666666667" lon="-16.488933333333332">
        <ele>1359</ele>
        <time>2024-03-30T13:08:16.000Z</time>
      </trkpt>
      <trkpt lat="28.234833333333334" lon="-16.4891">
        <ele>1362</ele>
        <time>2024-03-30T13:08:17.000Z</time>
      </trkpt>
      <trkpt lat="28.2348" lon="-16.48925">
        <ele>1364</ele>
        <time>2024-03-30T13:08:18.000Z</time>
      </trkpt>
      <trkpt lat="28.234716666666667" lon="-16.48935">
        <ele>1365</ele>
        <time>2024-03-30T13:08:19.000Z</time>
      </trkpt>
      <trkpt lat="28.234583333333333" lon="-16.489416666666667">
        <ele>1365</ele>
        <time>2024-03-30T13:08:20.000Z</time>
      </trkpt>
      <trkpt lat="28.234466666666666" lon="-16.489416666666667">
        <ele>1366</ele>
        <time>2024-03-30T13:08:21.000Z</time>
      </trkpt>
      <trkpt lat="28.234383333333334" lon="-16.489383333333333">
        <ele>1370</ele>
        <time>2024-03-30T13:08:22.000Z</time>
      </trkpt>
      <trkpt lat="28.23435" lon="-16.489333333333335">
        <ele>1372</ele>
        <time>2024-03-30T13:08:23.000Z</time>
      </trkpt>
      <trkpt lat="28.234366666666666" lon="-16.489283333333333">
        <ele>1373</ele>
        <time>2024-03-30T13:08:24.000Z</time>
      </trkpt>
      <trkpt lat="28.234416666666668" lon="-16.489233333333335">
        <ele>1373</ele>
        <time>2024-03-30T13:08:25.000Z</time>
      </trkpt>
      <trkpt lat="28.2345" lon="-16.489183333333333">
        <ele>1373</ele>
        <time>2024-03-30T13:08:26.000Z</time>
      </trkpt>
      <trkpt lat="28.2346" lon="-16.4892">
        <ele>1373</ele>
        <time>2024-03-30T13:08:27.000Z</time>
      </trkpt>
      <trkpt lat="28.234683333333333" lon="-16.489266666666666">
        <ele>1373</ele>
        <time>2024-03-30T13:08:28.000Z</time>
      </trkpt>
      <trkpt lat="28.23475" lon="-16.4894">
        <ele>1375</ele>
        <time>2024-03-30T13:08:29.000Z</time>
      </trkpt>
      <trkpt lat="28.234766666666665" lon="-16.489533333333334">
        <ele>1376</ele>
        <time>2024-03-30T13:08:30.000Z</time>
      </trkpt>
      <trkpt lat="28.234766666666665" lon="-16.48966666666667">
        <ele>1378</ele>
        <time>2024-03-30T13:08:31.000Z</time>
      </trkpt>
      <trkpt lat="28.234716666666667" lon="-16.4898">
        <ele>1379</ele>
        <time>2024-03-30T13:08:32.000Z</time>
      </trkpt>
      <trkpt lat="28.23465" lon="-16.4899">
        <ele>1380</ele>
        <time>2024-03-30T13:08:33.000Z</time>
      </trkpt>
      <trkpt lat="28.234566666666666" lon="-16.489983333333335">
        <ele>1380</ele>
        <time>2024-03-30T13:08:34.000Z</time>
      </trkpt>
      <trkpt lat="28.234466666666666" lon="-16.49005">
        <ele>1381</ele>
        <time>2024-03-30T13:08:35.000Z</time>
      </trkpt>
      <trkpt lat="28.234366666666666" lon="-16.49005">
        <ele>1383</ele>
        <time>2024-03-30T13:08:36.000Z</time>
      </trkpt>
      <trkpt lat="28.2343" lon="-16.490016666666666">
        <ele>1385</ele>
        <time>2024-03-30T13:08:37.000Z</time>
      </trkpt>
      <trkpt lat="28.234266666666667" lon="-16.489966666666668">
        <ele>1385</ele>
        <time>2024-03-30T13:08:38.000Z</time>
      </trkpt>
      <trkpt lat="28.2343" lon="-16.489883333333335">
        <ele>1385</ele>
        <time>2024-03-30T13:08:39.000Z</time>
      </trkpt>
      <trkpt lat="28.234366666666666" lon="-16.489816666666666">
        <ele>1385</ele>
        <time>2024-03-30T13:08:40.000Z</time>
      </trkpt>
      <trkpt lat="28.234466666666666" lon="-16.489816666666666">
        <ele>1386</ele>
        <time>2024-03-30T13:08:41.000Z</time>
      </trkpt>
      <trkpt lat="28.234583333333333" lon="-16.489866666666668">
        <ele>1387</ele>
        <time>2024-03-30T13:08:42.000Z</time>
      </trkpt>
      <trkpt lat="28.234666666666666" lon="-16.489966666666668">
        <ele>1388</ele>
        <time>2024-03-30T13:08:43.000Z</time>
      </trkpt>
      <trkpt lat="28.234716666666667" lon="-16.490099999999998">
        <ele>1391</ele>
        <time>2024-03-30T13:08:44.000Z</time>
      </trkpt>
      <trkpt lat="28.234716666666667" lon="-16.49025">
        <ele>1394</ele>
        <time>2024-03-30T13:08:45.000Z</time>
      </trkpt>
      <trkpt lat="28.234733333333335" lon="-16.490383333333334">
        <ele>1396</ele>
        <time>2024-03-30T13:08:46.000Z</time>
      </trkpt>
      <trkpt lat="28.234733333333335" lon="-16.4905">
        <ele>1398</ele>
        <time>2024-03-30T13:08:47.000Z</time>
      </trkpt>
      <trkpt lat="28.234716666666667" lon="-16.490616666666668">
        <ele>1399</ele>
        <time>2024-03-30T13:08:48.000Z</time>
      </trkpt>
      <trkpt lat="28.234683333333333" lon="-16.49075">
        <ele>1400</ele>
        <time>2024-03-30T13:08:49.000Z</time>
      </trkpt>
      <trkpt lat="28.234616666666668" lon="-16.490883333333333">
        <ele>1401</ele>
        <time>2024-03-30T13:08:50.000Z</time>
      </trkpt>
      <trkpt lat="28.234533333333335" lon="-16.490983333333332">
        <ele>1403</ele>
        <time>2024-03-30T13:08:51.000Z</time>
      </trkpt>
      <trkpt lat="28.23445" lon="-16.491033333333334">
        <ele>1405</ele>
        <time>2024-03-30T13:08:52.000Z</time>
      </trkpt>
      <trkpt lat="28.234366666666666" lon="-16.491066666666665">
        <ele>1405</ele>
        <time>2024-03-30T13:08:53.000Z</time>
      </trkpt>
      <trkpt lat="28.2343" lon="-16.49105">
        <ele>1405</ele>
        <time>2024-03-30T13:08:54.000Z</time>
      </trkpt>
      <trkpt lat="28.23425" lon="-16.490966666666665">
        <ele>1406</ele>
        <time>2024-03-30T13:08:55.000Z</time>
      </trkpt>
      <trkpt lat="28.234233333333332" lon="-16.490883333333333">
        <ele>1408</ele>
        <time>2024-03-30T13:08:56.000Z</time>
      </trkpt>
      <trkpt lat="28.234266666666667" lon="-16.490816666666667">
        <ele>1411</ele>
        <time>2024-03-30T13:08:57.000Z</time>
      </trkpt>
      <trkpt lat="28.23431666666667" lon="-16.490783333333333">
        <ele>1412</ele>
        <time>2024-03-30T13:08:58.000Z</time>
      </trkpt>
      <trkpt lat="28.2344" lon="-16.4908">
        <ele>1413</ele>
        <time>2024-03-30T13:08:59.000Z</time>
      </trkpt>
      <trkpt lat="28.234483333333333" lon="-16.490866666666665">
        <ele>1414</ele>
        <time>2024-03-30T13:09:00.000Z</time>
      </trkpt>
      <trkpt lat="28.23455" lon="-16.490966666666665">
        <ele>1415</ele>
        <time>2024-03-30T13:09:01.000Z</time>
      </trkpt>
      <trkpt lat="28.2346" lon="-16.491083333333332">
        <ele>1416</ele>
        <time>2024-03-30T13:09:02.000Z</time>
      </trkpt>
      <trkpt lat="28.234633333333335" lon="-16.491216666666666">
        <ele>1418</ele>
        <time>2024-03-30T13:09:03.000Z</time>
      </trkpt>
      <trkpt lat="28.23465" lon="-16.49135">
        <ele>1421</ele>
        <time>2024-03-30T13:09:04.000Z</time>
      </trkpt>
      <trkpt lat="28.234666666666666" lon="-16.4915">
        <ele>1425</ele>
        <time>2024-03-30T13:09:05.000Z</time>
      </trkpt>
      <trkpt lat="28.23465" lon="-16.491616666666665">
        <ele>1428</ele>
        <time>2024-03-30T13:09:06.000Z</time>
      </trkpt>
      <trkpt lat="28.2346" lon="-16.4917">
        <ele>1428</ele>
        <time>2024-03-30T13:09:07.000Z</time>
      </trkpt>
      <trkpt lat="28.2345" lon="-16.491766666666667">
        <ele>1428</ele>
        <time>2024-03-30T13:09:08.000Z</time>
      </trkpt>
      <trkpt lat="28.2344" lon="-16.491816666666665">
        <ele>1429</ele>
        <time>2024-03-30T13:09:09.000Z</time>
      </trkpt>
      <trkpt lat="28.2343" lon="-16.491833333333332">
        <ele>1432</ele>
        <time>2024-03-30T13:09:10.000Z</time>
      </trkpt>
      <trkpt lat="28.234216666666665" lon="-16.491816666666665">
        <ele>1434</ele>
        <time>2024-03-30T13:09:11.000Z</time>
      </trkpt>
      <trkpt lat="28.234183333333334" lon="-16.491766666666667">
        <ele>1435</ele>
        <time>2024-03-30T13:09:12.000Z</time>
      </trkpt>
      <trkpt lat="28.234166666666667" lon="-16.4917">
        <ele>1436</ele>
        <time>2024-03-30T13:09:13.000Z</time>
      </trkpt>
      <trkpt lat="28.234216666666665" lon="-16.49165">
        <ele>1436</ele>
        <time>2024-03-30T13:09:14.000Z</time>
      </trkpt>
      <trkpt lat="28.234283333333334" lon="-16.491616666666665">
        <ele>1436</ele>
        <time>2024-03-30T13:09:15.000Z</time>
      </trkpt>
      <trkpt lat="28.234366666666666" lon="-16.4916">
        <ele>1437</ele>
        <time>2024-03-30T13:09:16.000Z</time>
      </trkpt>
      <trkpt lat="28.23445" lon="-16.491633333333333">
        <ele>1439</ele>
        <time>2024-03-30T13:09:17.000Z</time>
      </trkpt>
      <trkpt lat="28.234533333333335" lon="-16.4917">
        <ele>1442</ele>
        <time>2024-03-30T13:09:18.000Z</time>
      </trkpt>
      <trkpt lat="28.234583333333333" lon="-16.4918">
        <ele>1443</ele>
        <time>2024-03-30T13:09:19.000Z</time>
      </trkpt>
      <trkpt lat="28.234616666666668" lon="-16.491933333333332">
        <ele>1445</ele>
        <time>2024-03-30T13:09:20.000Z</time>
      </trkpt>
      <trkpt lat="28.234633333333335" lon="-16.492066666666666">
        <ele>1447</ele>
        <time>2024-03-30T13:09:21.000Z</time>
      </trkpt>
      <trkpt lat="28.234633333333335" lon="-16.4922">
        <ele>1450</ele>
        <time>2024-03-30T13:09:22.000Z</time>
      </trkpt>
      <trkpt lat="28.234616666666668" lon="-16.492333333333335">
        <ele>1452</ele>
        <time>2024-03-30T13:09:23.000Z</time>
      </trkpt>
      <trkpt lat="28.234566666666666" lon="-16.49245">
        <ele>1453</ele>
        <time>2024-03-30T13:09:24.000Z</time>
      </trkpt>
      <trkpt lat="28.234466666666666" lon="-16.492533333333334">
        <ele>1454</ele>
        <time>2024-03-30T13:09:25.000Z</time>
      </trkpt>
      <trkpt lat="28.23435" lon="-16.4926">
        <ele>1455</ele>
        <time>2024-03-30T13:09:26.000Z</time>
      </trkpt>
      <trkpt lat="28.234233333333332" lon="-16.492616666666667">
        <ele>1459</ele>
        <time>2024-03-30T13:09:27.000Z</time>
      </trkpt>
      <trkpt lat="28.23415" lon="-16.492616666666667">
        <ele>1462</ele>
        <time>2024-03-30T13:09:28.000Z</time>
      </trkpt>
      <trkpt lat="28.2341" lon="-16.4926">
        <ele>1463</ele>
        <time>2024-03-30T13:09:29.000Z</time>
      </trkpt>
      <trkpt lat="28.234083333333334" lon="-16.49255">
        <ele>1462</ele>
        <time>2024-03-30T13:09:30.000Z</time>
      </trkpt>
      <trkpt lat="28.2341" lon="-16.492483333333332">
        <ele>1460</ele>
        <time>2024-03-30T13:09:31.000Z</time>
      </trkpt>
      <trkpt lat="28.234133333333332" lon="-16.492416666666667">
        <ele>1461</ele>
        <time>2024-03-30T13:09:32.000Z</time>
      </trkpt>
      <trkpt lat="28.2342" lon="-16.492366666666666">
        <ele>1462</ele>
        <time>2024-03-30T13:09:33.000Z</time>
      </trkpt>
      <trkpt lat="28.234283333333334" lon="-16.492383333333333">
        <ele>1462</ele>
        <time>2024-03-30T13:09:34.000Z</time>
      </trkpt>
      <trkpt lat="28.234366666666666" lon="-16.492433333333334">
        <ele>1462</ele>
        <time>2024-03-30T13:09:35.000Z</time>
      </trkpt>
      <trkpt lat="28.23445" lon="-16.492516666666667">
        <ele>1464</ele>
        <time>2024-03-30T13:09:36.000Z</time>
      </trkpt>
      <trkpt lat="28.2345" lon="-16.492616666666667">
        <ele>1468</ele>
        <time>2024-03-30T13:09:37.000Z</time>
      </trkpt>
      <trkpt lat="28.23455" lon="-16.492716666666666">
        <ele>1471</ele>
        <time>2024-03-30T13:09:38.000Z</time>
      </trkpt>
      <trkpt lat="28.234566666666666" lon="-16.492816666666666">
        <ele>1473</ele>
        <time>2024-03-30T13:09:39.000Z</time>
      </trkpt>
      <trkpt lat="28.234566666666666" lon="-16.492933333333333">
        <ele>1474</ele>
        <time>2024-03-30T13:09:40.000Z</time>
      </trkpt>
      <trkpt lat="28.23455" lon="-16.49305">
        <ele>1475</ele>
        <time>2024-03-30T13:09:41.000Z</time>
      </trkpt>
      <trkpt lat="28.234533333333335" lon="-16.493183333333334">
        <ele>1474</ele>
        <time>2024-03-30T13:09:42.000Z</time>
      </trkpt>
      <trkpt lat="28.234483333333333" lon="-16.493333333333332">
        <ele>1476</ele>
        <time>2024-03-30T13:09:43.000Z</time>
      </trkpt>
      <trkpt lat="28.23443333333333" lon="-16.493466666666666">
        <ele>1478</ele>
        <time>2024-03-30T13:09:44.000Z</time>
      </trkpt>
      <trkpt lat="28.23435" lon="-16.49355">
        <ele>1481</ele>
        <time>2024-03-30T13:09:45.000Z</time>
      </trkpt>
      <trkpt lat="28.23425" lon="-16.493583333333333">
        <ele>1482</ele>
        <time>2024-03-30T13:09:46.000Z</time>
      </trkpt>
      <trkpt lat="28.234166666666667" lon="-16.493583333333333">
        <ele>1483</ele>
        <time>2024-03-30T13:09:47.000Z</time>
      </trkpt>
      <trkpt lat="28.234133333333332" lon="-16.493533333333332">
        <ele>1484</ele>
        <time>2024-03-30T13:09:48.000Z</time>
      </trkpt>
      <trkpt lat="28.234116666666665" lon="-16.493483333333334">
        <ele>1485</ele>
        <time>2024-03-30T13:09:49.000Z</time>
      </trkpt>
      <trkpt lat="28.23415" lon="-16.4934">
        <ele>1486</ele>
        <time>2024-03-30T13:09:50.000Z</time>
      </trkpt>
      <trkpt lat="28.2342" lon="-16.49335">
        <ele>1486</ele>
        <time>2024-03-30T13:09:51.000Z</time>
      </trkpt>
      <trkpt lat="28.234283333333334" lon="-16.493333333333332">
        <ele>1486</ele>
        <time>2024-03-30T13:09:52.000Z</time>
      </trkpt>
      <trkpt lat="28.23435" lon="-16.493333333333332">
        <ele>1487</ele>
        <time>2024-03-30T13:09:53.000Z</time>
      </trkpt>
      <trkpt lat="28.23443333333333" lon="-16.493366666666667">
        <ele>1488</ele>
        <time>2024-03-30T13:09:54.000Z</time>
      </trkpt>
      <trkpt lat="28.234516666666668" lon="-16.493433333333332">
        <ele>1489</ele>
        <time>2024-03-30T13:09:55.000Z</time>
      </trkpt>
      <trkpt lat="28.234583333333333" lon="-16.493533333333332">
        <ele>1491</ele>
        <time>2024-03-30T13:09:56.000Z</time>
      </trkpt>
      <trkpt lat="28.23465" lon="-16.49363333333333">
        <ele>1493</ele>
        <time>2024-03-30T13:09:57.000Z</time>
      </trkpt>
      <trkpt lat="28.2347" lon="-16.49375">
        <ele>1495</ele>
        <time>2024-03-30T13:09:58.000Z</time>
      </trkpt>
      <trkpt lat="28.234733333333335" lon="-16.493866666666666">
        <ele>1497</ele>
        <time>2024-03-30T13:09:59.000Z</time>
      </trkpt>
      <trkpt lat="28.23475" lon="-16.494">
        <ele>1498</ele>
        <time>2024-03-30T13:10:00.000Z</time>
      </trkpt>
      <trkpt lat="28.234733333333335" lon="-16.494133333333334">
        <ele>1498</ele>
        <time>2024-03-30T13:10:01.000Z</time>
      </trkpt>
      <trkpt lat="28.234683333333333" lon="-16.494283333333332">
        <ele>1499</ele>
        <time>2024-03-30T13:10:02.000Z</time>
      </trkpt>
      <trkpt lat="28.234616666666668" lon="-16.4944">
        <ele>1501</ele>
        <time>2024-03-30T13:10:03.000Z</time>
      </trkpt>
      <trkpt lat="28.23455" lon="-16.4945">
        <ele>1503</ele>
        <time>2024-03-30T13:10:04.000Z</time>
      </trkpt>
      <trkpt lat="28.234483333333333" lon="-16.494566666666667">
        <ele>1506</ele>
        <time>2024-03-30T13:10:05.000Z</time>
      </trkpt>
      <trkpt lat="28.2344" lon="-16.494616666666666">
        <ele>1508</ele>
        <time>2024-03-30T13:10:06.000Z</time>
      </trkpt>
      <trkpt lat="28.234333333333332" lon="-16.494633333333333">
        <ele>1508</ele>
        <time>2024-03-30T13:10:07.000Z</time>
      </trkpt>
      <trkpt lat="28.234266666666667" lon="-16.494616666666666">
        <ele>1509</ele>
        <time>2024-03-30T13:10:08.000Z</time>
      </trkpt>
      <trkpt lat="28.234216666666665" lon="-16.494583333333335">
        <ele>1511</ele>
        <time>2024-03-30T13:10:09.000Z</time>
      </trkpt>
      <trkpt lat="28.234183333333334" lon="-16.494533333333333">
        <ele>1513</ele>
        <time>2024-03-30T13:10:10.000Z</time>
      </trkpt>
      <trkpt lat="28.2342" lon="-16.494483333333335">
        <ele>1515</ele>
        <time>2024-03-30T13:10:11.000Z</time>
      </trkpt>
      <trkpt lat="28.234266666666667" lon="-16.494416666666666">
        <ele>1515</ele>
        <time>2024-03-30T13:10:12.000Z</time>
      </trkpt>
      <trkpt lat="28.23435" lon="-16.4944">
        <ele>1516</ele>
        <time>2024-03-30T13:10:13.000Z</time>
      </trkpt>
      <trkpt lat="28.234416666666668" lon="-16.494416666666666">
        <ele>1517</ele>
        <time>2024-03-30T13:10:14.000Z</time>
      </trkpt>
      <trkpt lat="28.234516666666668" lon="-16.494466666666668">
        <ele>1518</ele>
        <time>2024-03-30T13:10:15.000Z</time>
      </trkpt>
      <trkpt lat="28.2346" lon="-16.494533333333333">
        <ele>1520</ele>
        <time>2024-03-30T13:10:16.000Z</time>
      </trkpt>
      <trkpt lat="28.234666666666666" lon="-16.494633333333333">
        <ele>1522</ele>
        <time>2024-03-30T13:10:17.000Z</time>
      </trkpt>
      <trkpt lat="28.234716666666667" lon="-16.49475">
        <ele>1524</ele>
        <time>2024-03-30T13:10:18.000Z</time>
      </trkpt>
      <trkpt lat="28.23475" lon="-16.4949">
        <ele>1526</ele>
        <time>2024-03-30T13:10:19.000Z</time>
      </trkpt>
      <trkpt lat="28.23475" lon="-16.495066666666666">
        <ele>1527</ele>
        <time>2024-03-30T13:10:20.000Z</time>
      </trkpt>
      <trkpt lat="28.234716666666667" lon="-16.4952">
        <ele>1528</ele>
        <time>2024-03-30T13:10:21.000Z</time>
      </trkpt>
      <trkpt lat="28.234683333333333" lon="-16.495333333333335">
        <ele>1529</ele>
        <time>2024-03-30T13:10:22.000Z</time>
      </trkpt>
      <trkpt lat="28.234633333333335" lon="-16.49545">
        <ele>1530</ele>
        <time>2024-03-30T13:10:23.000Z</time>
      </trkpt>
      <trkpt lat="28.234566666666666" lon="-16.495583333333332">
        <ele>1531</ele>
        <time>2024-03-30T13:10:24.000Z</time>
      </trkpt>
      <trkpt lat="28.234483333333333" lon="-16.4957">
        <ele>1531</ele>
        <time>2024-03-30T13:10:25.000Z</time>
      </trkpt>
      <trkpt lat="28.2344" lon="-16.4958">
        <ele>1531</ele>
        <time>2024-03-30T13:10:26.000Z</time>
      </trkpt>
      <trkpt lat="28.23431666666667" lon="-16.4959">
        <ele>1531</ele>
        <time>2024-03-30T13:10:27.000Z</time>
      </trkpt>
      <trkpt lat="28.234233333333332" lon="-16.496">
        <ele>1531</ele>
        <time>2024-03-30T13:10:28.000Z</time>
      </trkpt>
      <trkpt lat="28.234116666666665" lon="-16.4961">
        <ele>1531</ele>
        <time>2024-03-30T13:10:29.000Z</time>
      </trkpt>
      <trkpt lat="28.234" lon="-16.496166666666667">
        <ele>1531</ele>
        <time>2024-03-30T13:10:30.000Z</time>
      </trkpt>
      <trkpt lat="28.2339" lon="-16.49625">
        <ele>1532</ele>
        <time>2024-03-30T13:10:31.000Z</time>
      </trkpt>
      <trkpt lat="28.233783333333335" lon="-16.496333333333332">
        <ele>1532</ele>
        <time>2024-03-30T13:10:32.000Z</time>
      </trkpt>
      <trkpt lat="28.23368333333333" lon="-16.496416666666665">
        <ele>1533</ele>
        <time>2024-03-30T13:10:33.000Z</time>
      </trkpt>
      <trkpt lat="28.233583333333332" lon="-16.4965">
        <ele>1534</ele>
        <time>2024-03-30T13:10:34.000Z</time>
      </trkpt>
      <trkpt lat="28.233483333333332" lon="-16.496583333333334">
        <ele>1536</ele>
        <time>2024-03-30T13:10:35.000Z</time>
      </trkpt>
      <trkpt lat="28.233383333333332" lon="-16.49665">
        <ele>1538</ele>
        <time>2024-03-30T13:10:36.000Z</time>
      </trkpt>
      <trkpt lat="28.2333" lon="-16.4967">
        <ele>1540</ele>
        <time>2024-03-30T13:10:37.000Z</time>
      </trkpt>
      <trkpt lat="28.233233333333335" lon="-16.49675">
        <ele>1540</ele>
        <time>2024-03-30T13:10:38.000Z</time>
      </trkpt>
      <trkpt lat="28.233166666666666" lon="-16.496816666666668">
        <ele>1540</ele>
        <time>2024-03-30T13:10:39.000Z</time>
      </trkpt>
      <trkpt lat="28.2331" lon="-16.4969">
        <ele>1540</ele>
        <time>2024-03-30T13:10:40.000Z</time>
      </trkpt>
      <trkpt lat="28.233016666666668" lon="-16.496983333333333">
        <ele>1540</ele>
        <time>2024-03-30T13:10:41.000Z</time>
      </trkpt>
      <trkpt lat="28.23293333333333" lon="-16.497066666666665">
        <ele>1542</ele>
        <time>2024-03-30T13:10:42.000Z</time>
      </trkpt>
      <trkpt lat="28.23285" lon="-16.49715">
        <ele>1545</ele>
        <time>2024-03-30T13:10:43.000Z</time>
      </trkpt>
      <trkpt lat="28.232766666666667" lon="-16.4972">
        <ele>1547</ele>
        <time>2024-03-30T13:10:44.000Z</time>
      </trkpt>
      <trkpt lat="28.232683333333334" lon="-16.497233333333334">
        <ele>1548</ele>
        <time>2024-03-30T13:10:45.000Z</time>
      </trkpt>
      <trkpt lat="28.2326" lon="-16.497283333333332">
        <ele>1547</ele>
        <time>2024-03-30T13:10:46.000Z</time>
      </trkpt>
      <trkpt lat="28.2325" lon="-16.497333333333334">
        <ele>1546</ele>
        <time>2024-03-30T13:10:47.000Z</time>
      </trkpt>
      <trkpt lat="28.2324" lon="-16.4974">
        <ele>1546</ele>
        <time>2024-03-30T13:10:48.000Z</time>
      </trkpt>
      <trkpt lat="28.232283333333335" lon="-16.497433333333333">
        <ele>1549</ele>
        <time>2024-03-30T13:10:49.000Z</time>
      </trkpt>
      <trkpt lat="28.23218333333333" lon="-16.497466666666668">
        <ele>1550</ele>
        <time>2024-03-30T13:10:50.000Z</time>
      </trkpt>
      <trkpt lat="28.2321" lon="-16.497516666666666">
        <ele>1549</ele>
        <time>2024-03-30T13:10:51.000Z</time>
      </trkpt>
      <trkpt lat="28.232" lon="-16.497566666666668">
        <ele>1546</ele>
        <time>2024-03-30T13:10:52.000Z</time>
      </trkpt>
      <trkpt lat="28.231916666666667" lon="-16.497633333333333">
        <ele>1542</ele>
        <time>2024-03-30T13:10:53.000Z</time>
      </trkpt>
      <trkpt lat="28.231816666666667" lon="-16.4977">
        <ele>1540</ele>
        <time>2024-03-30T13:10:54.000Z</time>
      </trkpt>
      <trkpt lat="28.231716666666667" lon="-16.497783333333334">
        <ele>1539</ele>
        <time>2024-03-30T13:10:55.000Z</time>
      </trkpt>
      <trkpt lat="28.231633333333335" lon="-16.497833333333332">
        <ele>1539</ele>
        <time>2024-03-30T13:10:56.000Z</time>
      </trkpt>
      <trkpt lat="28.23155" lon="-16.497866666666667">
        <ele>1538</ele>
        <time>2024-03-30T13:10:57.000Z</time>
      </trkpt>
      <trkpt lat="28.231466666666666" lon="-16.497883333333334">
        <ele>1536</ele>
        <time>2024-03-30T13:10:58.000Z</time>
      </trkpt>
      <trkpt lat="28.231366666666666" lon="-16.497916666666665">
        <ele>1532</ele>
        <time>2024-03-30T13:10:59.000Z</time>
      </trkpt>
      <trkpt lat="28.231266666666667" lon="-16.497966666666667">
        <ele>1528</ele>
        <time>2024-03-30T13:11:00.000Z</time>
      </trkpt>
      <trkpt lat="28.23115" lon="-16.498033333333332">
        <ele>1526</ele>
        <time>2024-03-30T13:11:01.000Z</time>
      </trkpt>
      <trkpt lat="28.23105" lon="-16.498116666666668">
        <ele>1525</ele>
        <time>2024-03-30T13:11:02.000Z</time>
      </trkpt>
      <trkpt lat="28.23095" lon="-16.498183333333333">
        <ele>1525</ele>
        <time>2024-03-30T13:11:03.000Z</time>
      </trkpt>
      <trkpt lat="28.23085" lon="-16.49825">
        <ele>1524</ele>
        <time>2024-03-30T13:11:04.000Z</time>
      </trkpt>
      <trkpt lat="28.23075" lon="-16.498316666666668">
        <ele>1522</ele>
        <time>2024-03-30T13:11:05.000Z</time>
      </trkpt>
      <trkpt lat="28.23065" lon="-16.498366666666666">
        <ele>1519</ele>
        <time>2024-03-30T13:11:06.000Z</time>
      </trkpt>
      <trkpt lat="28.230516666666666" lon="-16.498433333333335">
        <ele>1517</ele>
        <time>2024-03-30T13:11:07.000Z</time>
      </trkpt>
      <trkpt lat="28.2304" lon="-16.4985">
        <ele>1516</ele>
        <time>2024-03-30T13:11:08.000Z</time>
      </trkpt>
      <trkpt lat="28.2303" lon="-16.498583333333332">
        <ele>1515</ele>
        <time>2024-03-30T13:11:09.000Z</time>
      </trkpt>
      <trkpt lat="28.2302" lon="-16.498666666666665">
        <ele>1513</ele>
        <time>2024-03-30T13:11:10.000Z</time>
      </trkpt>
      <trkpt lat="28.2301" lon="-16.49875">
        <ele>1512</ele>
        <time>2024-03-30T13:11:11.000Z</time>
      </trkpt>
      <trkpt lat="28.23" lon="-16.49885">
        <ele>1512</ele>
        <time>2024-03-30T13:11:12.000Z</time>
      </trkpt>
      <trkpt lat="28.2299" lon="-16.498933333333333">
        <ele>1513</ele>
        <time>2024-03-30T13:11:13.000Z</time>
      </trkpt>
      <trkpt lat="28.2298" lon="-16.499">
        <ele>1513</ele>
        <time>2024-03-30T13:11:14.000Z</time>
      </trkpt>
      <trkpt lat="28.22971666666667" lon="-16.499066666666668">
        <ele>1512</ele>
        <time>2024-03-30T13:11:15.000Z</time>
      </trkpt>
      <trkpt lat="28.229616666666665" lon="-16.499116666666666">
        <ele>1508</ele>
        <time>2024-03-30T13:11:16.000Z</time>
      </trkpt>
      <trkpt lat="28.229516666666665" lon="-16.499183333333335">
        <ele>1505</ele>
        <time>2024-03-30T13:11:17.000Z</time>
      </trkpt>
      <trkpt lat="28.2294" lon="-16.49925">
        <ele>1502</ele>
        <time>2024-03-30T13:11:18.000Z</time>
      </trkpt>
      <trkpt lat="28.229283333333335" lon="-16.499316666666665">
        <ele>1500</ele>
        <time>2024-03-30T13:11:19.000Z</time>
      </trkpt>
      <trkpt lat="28.229166666666668" lon="-16.4994">
        <ele>1498</ele>
        <time>2024-03-30T13:11:20.000Z</time>
      </trkpt>
      <trkpt lat="28.229066666666668" lon="-16.499483333333334">
        <ele>1496</ele>
        <time>2024-03-30T13:11:21.000Z</time>
      </trkpt>
      <trkpt lat="28.22896666666667" lon="-16.49955">
        <ele>1494</ele>
        <time>2024-03-30T13:11:22.000Z</time>
      </trkpt>
      <trkpt lat="28.228866666666665" lon="-16.499633333333332">
        <ele>1491</ele>
        <time>2024-03-30T13:11:23.000Z</time>
      </trkpt>
      <trkpt lat="28.22875" lon="-16.4997">
        <ele>1488</ele>
        <time>2024-03-30T13:11:24.000Z</time>
      </trkpt>
      <trkpt lat="28.228616666666667" lon="-16.499766666666666">
        <ele>1485</ele>
        <time>2024-03-30T13:11:25.000Z</time>
      </trkpt>
      <trkpt lat="28.228483333333333" lon="-16.49985">
        <ele>1483</ele>
        <time>2024-03-30T13:11:26.000Z</time>
      </trkpt>
      <trkpt lat="28.228366666666666" lon="-16.4999">
        <ele>1482</ele>
        <time>2024-03-30T13:11:27.000Z</time>
      </trkpt>
      <trkpt lat="28.22825" lon="-16.49995">
        <ele>1482</ele>
        <time>2024-03-30T13:11:28.000Z</time>
      </trkpt>
      <trkpt lat="28.228166666666667" lon="-16.499983333333333">
        <ele>1479</ele>
        <time>2024-03-30T13:11:29.000Z</time>
      </trkpt>
      <trkpt lat="28.228066666666667" lon="-16.500033333333334">
        <ele>1475</ele>
        <time>2024-03-30T13:11:30.000Z</time>
      </trkpt>
      <trkpt lat="28.227966666666667" lon="-16.500083333333333">
        <ele>1471</ele>
        <time>2024-03-30T13:11:31.000Z</time>
      </trkpt>
      <trkpt lat="28.22785" lon="-16.50015">
        <ele>1467</ele>
        <time>2024-03-30T13:11:32.000Z</time>
      </trkpt>
      <trkpt lat="28.22775" lon="-16.500216666666667">
        <ele>1465</ele>
        <time>2024-03-30T13:11:33.000Z</time>
      </trkpt>
      <trkpt lat="28.227633333333333" lon="-16.500283333333332">
        <ele>1464</ele>
        <time>2024-03-30T13:11:34.000Z</time>
      </trkpt>
      <trkpt lat="28.227533333333334" lon="-16.50035">
        <ele>1463</ele>
        <time>2024-03-30T13:11:35.000Z</time>
      </trkpt>
      <trkpt lat="28.227433333333334" lon="-16.500416666666666">
        <ele>1461</ele>
        <time>2024-03-30T13:11:36.000Z</time>
      </trkpt>
      <trkpt lat="28.227316666666667" lon="-16.50048333333333">
        <ele>1458</ele>
        <time>2024-03-30T13:11:37.000Z</time>
      </trkpt>
      <trkpt lat="28.2272" lon="-16.50055">
        <ele>1454</ele>
        <time>2024-03-30T13:11:38.000Z</time>
      </trkpt>
      <trkpt lat="28.227083333333333" lon="-16.500616666666666">
        <ele>1450</ele>
        <time>2024-03-30T13:11:39.000Z</time>
      </trkpt>
      <trkpt lat="28.226933333333335" lon="-16.500666666666667">
        <ele>1447</ele>
        <time>2024-03-30T13:11:40.000Z</time>
      </trkpt>
      <trkpt lat="28.226816666666668" lon="-16.500716666666666">
        <ele>1446</ele>
        <time>2024-03-30T13:11:41.000Z</time>
      </trkpt>
      <trkpt lat="28.226683333333334" lon="-16.50075">
        <ele>1445</ele>
        <time>2024-03-30T13:11:42.000Z</time>
      </trkpt>
      <trkpt lat="28.226566666666667" lon="-16.5008">
        <ele>1444</ele>
        <time>2024-03-30T13:11:43.000Z</time>
      </trkpt>
      <trkpt lat="28.22645" lon="-16.500833333333333">
        <ele>1441</ele>
        <time>2024-03-30T13:11:44.000Z</time>
      </trkpt>
      <trkpt lat="28.226333333333333" lon="-16.500883333333334">
        <ele>1438</ele>
        <time>2024-03-30T13:11:45.000Z</time>
      </trkpt>
      <trkpt lat="28.226233333333333" lon="-16.50095">
        <ele>1434</ele>
        <time>2024-03-30T13:11:46.000Z</time>
      </trkpt>
      <trkpt lat="28.226116666666666" lon="-16.501033333333332">
        <ele>1432</ele>
        <time>2024-03-30T13:11:47.000Z</time>
      </trkpt>
      <trkpt lat="28.226" lon="-16.501116666666668">
        <ele>1431</ele>
        <time>2024-03-30T13:11:48.000Z</time>
      </trkpt>
      <trkpt lat="28.22586666666667" lon="-16.501166666666666">
        <ele>1431</ele>
        <time>2024-03-30T13:11:49.000Z</time>
      </trkpt>
      <trkpt lat="28.22575" lon="-16.501216666666668">
        <ele>1431</ele>
        <time>2024-03-30T13:11:50.000Z</time>
      </trkpt>
      <trkpt lat="28.22565" lon="-16.501266666666666">
        <ele>1430</ele>
        <time>2024-03-30T13:11:51.000Z</time>
      </trkpt>
      <trkpt lat="28.22555" lon="-16.501333333333335">
        <ele>1428</ele>
        <time>2024-03-30T13:11:52.000Z</time>
      </trkpt>
      <trkpt lat="28.225433333333335" lon="-16.501383333333333">
        <ele>1424</ele>
        <time>2024-03-30T13:11:53.000Z</time>
      </trkpt>
      <trkpt lat="28.2253" lon="-16.50145">
        <ele>1421</ele>
        <time>2024-03-30T13:11:54.000Z</time>
      </trkpt>
      <trkpt lat="28.225166666666667" lon="-16.5015">
        <ele>1420</ele>
        <time>2024-03-30T13:11:55.000Z</time>
      </trkpt>
      <trkpt lat="28.225033333333332" lon="-16.50155">
        <ele>1420</ele>
        <time>2024-03-30T13:11:56.000Z</time>
      </trkpt>
      <trkpt lat="28.224916666666665" lon="-16.501583333333333">
        <ele>1419</ele>
        <time>2024-03-30T13:11:57.000Z</time>
      </trkpt>
      <trkpt lat="28.2248" lon="-16.501616666666667">
        <ele>1418</ele>
        <time>2024-03-30T13:11:58.000Z</time>
      </trkpt>
      <trkpt lat="28.224666666666668" lon="-16.501633333333334">
        <ele>1417</ele>
        <time>2024-03-30T13:11:59.000Z</time>
      </trkpt>
      <trkpt lat="28.224533333333333" lon="-16.501683333333332">
        <ele>1415</ele>
        <time>2024-03-30T13:12:00.000Z</time>
      </trkpt>
      <trkpt lat="28.2244" lon="-16.501733333333334">
        <ele>1414</ele>
        <time>2024-03-30T13:12:01.000Z</time>
      </trkpt>
      <trkpt lat="28.224283333333332" lon="-16.501783333333332">
        <ele>1412</ele>
        <time>2024-03-30T13:12:02.000Z</time>
      </trkpt>
      <trkpt lat="28.22415" lon="-16.501833333333334">
        <ele>1412</ele>
        <time>2024-03-30T13:12:03.000Z</time>
      </trkpt>
      <trkpt lat="28.224033333333335" lon="-16.50186666666667">
        <ele>1411</ele>
        <time>2024-03-30T13:12:04.000Z</time>
      </trkpt>
      <trkpt lat="28.2239" lon="-16.501883333333332">
        <ele>1411</ele>
        <time>2024-03-30T13:12:05.000Z</time>
      </trkpt>
      <trkpt lat="28.223783333333333" lon="-16.501916666666666">
        <ele>1410</ele>
        <time>2024-03-30T13:12:06.000Z</time>
      </trkpt>
      <trkpt lat="28.223666666666666" lon="-16.50195">
        <ele>1408</ele>
        <time>2024-03-30T13:12:07.000Z</time>
      </trkpt>
      <trkpt lat="28.223533333333332" lon="-16.502">
        <ele>1407</ele>
        <time>2024-03-30T13:12:08.000Z</time>
      </trkpt>
      <trkpt lat="28.2234" lon="-16.502033333333333">
        <ele>1406</ele>
        <time>2024-03-30T13:12:09.000Z</time>
      </trkpt>
      <trkpt lat="28.223283333333335" lon="-16.502066666666668">
        <ele>1406</ele>
        <time>2024-03-30T13:12:10.000Z</time>
      </trkpt>
      <trkpt lat="28.223166666666668" lon="-16.5021">
        <ele>1406</ele>
        <time>2024-03-30T13:12:11.000Z</time>
      </trkpt>
      <trkpt lat="28.223033333333333" lon="-16.502166666666668">
        <ele>1405</ele>
        <time>2024-03-30T13:12:12.000Z</time>
      </trkpt>
      <trkpt lat="28.222933333333334" lon="-16.50225">
        <ele>1404</ele>
        <time>2024-03-30T13:12:13.000Z</time>
      </trkpt>
      <trkpt lat="28.222816666666667" lon="-16.502333333333333">
        <ele>1404</ele>
        <time>2024-03-30T13:12:14.000Z</time>
      </trkpt>
      <trkpt lat="28.2227" lon="-16.5024">
        <ele>1403</ele>
        <time>2024-03-30T13:12:15.000Z</time>
      </trkpt>
      <trkpt lat="28.2226" lon="-16.502466666666667">
        <ele>1401</ele>
        <time>2024-03-30T13:12:16.000Z</time>
      </trkpt>
      <trkpt lat="28.222483333333333" lon="-16.502533333333332">
        <ele>1398</ele>
        <time>2024-03-30T13:12:17.000Z</time>
      </trkpt>
      <trkpt lat="28.222366666666666" lon="-16.50261666666667">
        <ele>1396</ele>
        <time>2024-03-30T13:12:18.000Z</time>
      </trkpt>
      <trkpt lat="28.22225" lon="-16.502666666666666">
        <ele>1394</ele>
        <time>2024-03-30T13:12:19.000Z</time>
      </trkpt>
      <trkpt lat="28.222133333333332" lon="-16.502716666666668">
        <ele>1392</ele>
        <time>2024-03-30T13:12:20.000Z</time>
      </trkpt>
      <trkpt lat="28.222" lon="-16.50275">
        <ele>1391</ele>
        <time>2024-03-30T13:12:21.000Z</time>
      </trkpt>
      <trkpt lat="28.221883333333334" lon="-16.5028">
        <ele>1391</ele>
        <time>2024-03-30T13:12:22.000Z</time>
      </trkpt>
      <trkpt lat="28.22175" lon="-16.50285">
        <ele>1391</ele>
        <time>2024-03-30T13:12:23.000Z</time>
      </trkpt>
      <trkpt lat="28.221633333333333" lon="-16.502933333333335">
        <ele>1392</ele>
        <time>2024-03-30T13:12:24.000Z</time>
      </trkpt>
      <trkpt lat="28.221516666666666" lon="-16.503">
        <ele>1391</ele>
        <time>2024-03-30T13:12:25.000Z</time>
      </trkpt>
      <trkpt lat="28.2214" lon="-16.50305">
        <ele>1391</ele>
        <time>2024-03-30T13:12:26.000Z</time>
      </trkpt>
      <trkpt lat="28.22125" lon="-16.503083333333333">
        <ele>1390</ele>
        <time>2024-03-30T13:12:27.000Z</time>
      </trkpt>
      <trkpt lat="28.221116666666667" lon="-16.503116666666667">
        <ele>1392</ele>
        <time>2024-03-30T13:12:28.000Z</time>
      </trkpt>
      <trkpt lat="28.221" lon="-16.503166666666665">
        <ele>1394</ele>
        <time>2024-03-30T13:12:29.000Z</time>
      </trkpt>
      <trkpt lat="28.220883333333333" lon="-16.503233333333334">
        <ele>1394</ele>
        <time>2024-03-30T13:12:30.000Z</time>
      </trkpt>
      <trkpt lat="28.220766666666666" lon="-16.5033">
        <ele>1393</ele>
        <time>2024-03-30T13:12:31.000Z</time>
      </trkpt>
      <trkpt lat="28.22065" lon="-16.50336666666667">
        <ele>1391</ele>
        <time>2024-03-30T13:12:32.000Z</time>
      </trkpt>
      <trkpt lat="28.220483333333334" lon="-16.5034">
        <ele>1388</ele>
        <time>2024-03-30T13:12:33.000Z</time>
      </trkpt>
      <trkpt lat="28.220333333333333" lon="-16.50345">
        <ele>1386</ele>
        <time>2024-03-30T13:12:34.000Z</time>
      </trkpt>
      <trkpt lat="28.220166666666668" lon="-16.503516666666666">
        <ele>1385</ele>
        <time>2024-03-30T13:12:35.000Z</time>
      </trkpt>
      <trkpt lat="28.220033333333333" lon="-16.503616666666666">
        <ele>1389</ele>
        <time>2024-03-30T13:12:36.000Z</time>
      </trkpt>
      <trkpt lat="28.219933333333334" lon="-16.503716666666666">
        <ele>1393</ele>
        <time>2024-03-30T13:12:37.000Z</time>
      </trkpt>
      <trkpt lat="28.21985" lon="-16.503783333333335">
        <ele>1394</ele>
        <time>2024-03-30T13:12:38.000Z</time>
      </trkpt>
      <trkpt lat="28.219766666666665" lon="-16.503833333333333">
        <ele>1393</ele>
        <time>2024-03-30T13:12:39.000Z</time>
      </trkpt>
      <trkpt lat="28.21965" lon="-16.503866666666667">
        <ele>1390</ele>
        <time>2024-03-30T13:12:40.000Z</time>
      </trkpt>
      <trkpt lat="28.219516666666667" lon="-16.503933333333332">
        <ele>1388</ele>
        <time>2024-03-30T13:12:41.000Z</time>
      </trkpt>
      <trkpt lat="28.219383333333333" lon="-16.503983333333334">
        <ele>1387</ele>
        <time>2024-03-30T13:12:42.000Z</time>
      </trkpt>
      <trkpt lat="28.219283333333333" lon="-16.504033333333332">
        <ele>1389</ele>
        <time>2024-03-30T13:12:43.000Z</time>
      </trkpt>
      <trkpt lat="28.2192" lon="-16.504066666666667">
        <ele>1390</ele>
        <time>2024-03-30T13:12:44.000Z</time>
      </trkpt>
      <trkpt lat="28.2191" lon="-16.504083333333334">
        <ele>1389</ele>
        <time>2024-03-30T13:12:45.000Z</time>
      </trkpt>
      <trkpt lat="28.219" lon="-16.5041">
        <ele>1387</ele>
        <time>2024-03-30T13:12:46.000Z</time>
      </trkpt>
      <trkpt lat="28.2189" lon="-16.50411666666667">
        <ele>1385</ele>
        <time>2024-03-30T13:12:47.000Z</time>
      </trkpt>
      <trkpt lat="28.218783333333334" lon="-16.50415">
        <ele>1384</ele>
        <time>2024-03-30T13:12:48.000Z</time>
      </trkpt>
      <trkpt lat="28.218666666666667" lon="-16.5042">
        <ele>1384</ele>
        <time>2024-03-30T13:12:49.000Z</time>
      </trkpt>
      <trkpt lat="28.21855" lon="-16.50423333333333">
        <ele>1385</ele>
        <time>2024-03-30T13:12:50.000Z</time>
      </trkpt>
      <trkpt lat="28.218466666666668" lon="-16.504266666666666">
        <ele>1385</ele>
        <time>2024-03-30T13:12:51.000Z</time>
      </trkpt>
      <trkpt lat="28.218383333333332" lon="-16.504283333333333">
        <ele>1384</ele>
        <time>2024-03-30T13:12:52.000Z</time>
      </trkpt>
      <trkpt lat="28.218283333333332" lon="-16.504316666666668">
        <ele>1381</ele>
        <time>2024-03-30T13:12:53.000Z</time>
      </trkpt>
      <trkpt lat="28.218183333333332" lon="-16.50435">
        <ele>1379</ele>
        <time>2024-03-30T13:12:54.000Z</time>
      </trkpt>
      <trkpt lat="28.218066666666665" lon="-16.504383333333333">
        <ele>1378</ele>
        <time>2024-03-30T13:12:55.000Z</time>
      </trkpt>
      <trkpt lat="28.21795" lon="-16.504416666666668">
        <ele>1377</ele>
        <time>2024-03-30T13:12:56.000Z</time>
      </trkpt>
      <trkpt lat="28.217833333333335" lon="-16.504433333333335">
        <ele>1377</ele>
        <time>2024-03-30T13:12:57.000Z</time>
      </trkpt>
      <trkpt lat="28.217733333333335" lon="-16.504433333333335">
        <ele>1376</ele>
        <time>2024-03-30T13:12:58.000Z</time>
      </trkpt>
      <trkpt lat="28.217633333333332" lon="-16.504433333333335">
        <ele>1375</ele>
        <time>2024-03-30T13:12:59.000Z</time>
      </trkpt>
      <trkpt lat="28.217533333333332" lon="-16.50445">
        <ele>1373</ele>
        <time>2024-03-30T13:13:00.000Z</time>
      </trkpt>
      <trkpt lat="28.217416666666665" lon="-16.50445">
        <ele>1371</ele>
        <time>2024-03-30T13:13:01.000Z</time>
      </trkpt>
      <trkpt lat="28.2173" lon="-16.504466666666666">
        <ele>1370</ele>
        <time>2024-03-30T13:13:02.000Z</time>
      </trkpt>
      <trkpt lat="28.217166666666667" lon="-16.504466666666666">
        <ele>1370</ele>
        <time>2024-03-30T13:13:03.000Z</time>
      </trkpt>
      <trkpt lat="28.217066666666668" lon="-16.504483333333333">
        <ele>1371</ele>
        <time>2024-03-30T13:13:04.000Z</time>
      </trkpt>
      <trkpt lat="28.216966666666668" lon="-16.504483333333333">
        <ele>1371</ele>
        <time>2024-03-30T13:13:05.000Z</time>
      </trkpt>
      <trkpt lat="28.21688333333333" lon="-16.504483333333333">
        <ele>1371</ele>
        <time>2024-03-30T13:13:06.000Z</time>
      </trkpt>
      <trkpt lat="28.2168" lon="-16.504466666666666">
        <ele>1370</ele>
        <time>2024-03-30T13:13:07.000Z</time>
      </trkpt>
      <trkpt lat="28.216716666666667" lon="-16.504466666666666">
        <ele>1370</ele>
        <time>2024-03-30T13:13:08.000Z</time>
      </trkpt>
      <trkpt lat="28.21665" lon="-16.50445">
        <ele>1371</ele>
        <time>2024-03-30T13:13:09.000Z</time>
      </trkpt>
      <trkpt lat="28.216583333333332" lon="-16.50445">
        <ele>1373</ele>
        <time>2024-03-30T13:13:10.000Z</time>
      </trkpt>
      <trkpt lat="28.216516666666667" lon="-16.50445">
        <ele>1373</ele>
        <time>2024-03-30T13:13:11.000Z</time>
      </trkpt>
      <trkpt lat="28.21645" lon="-16.504433333333335">
        <ele>1374</ele>
        <time>2024-03-30T13:13:12.000Z</time>
      </trkpt>
      <trkpt lat="28.216366666666666" lon="-16.504433333333335">
        <ele>1376</ele>
        <time>2024-03-30T13:13:13.000Z</time>
      </trkpt>
      <trkpt lat="28.216283333333333" lon="-16.504433333333335">
        <ele>1379</ele>
        <time>2024-03-30T13:13:14.000Z</time>
      </trkpt>
      <trkpt lat="28.2162" lon="-16.504433333333335">
        <ele>1381</ele>
        <time>2024-03-30T13:13:15.000Z</time>
      </trkpt>
      <trkpt lat="28.216116666666668" lon="-16.50445">
        <ele>1383</ele>
        <time>2024-03-30T13:13:16.000Z</time>
      </trkpt>
      <trkpt lat="28.216033333333332" lon="-16.50445">
        <ele>1384</ele>
        <time>2024-03-30T13:13:17.000Z</time>
      </trkpt>
      <trkpt lat="28.21595" lon="-16.50445">
        <ele>1387</ele>
        <time>2024-03-30T13:13:18.000Z</time>
      </trkpt>
      <trkpt lat="28.215883333333334" lon="-16.504416666666668">
        <ele>1389</ele>
        <time>2024-03-30T13:13:19.000Z</time>
      </trkpt>
      <trkpt lat="28.21585" lon="-16.504383333333333">
        <ele>1390</ele>
        <time>2024-03-30T13:13:20.000Z</time>
      </trkpt>
      <trkpt lat="28.21585" lon="-16.50435">
        <ele>1392</ele>
        <time>2024-03-30T13:13:21.000Z</time>
      </trkpt>
      <trkpt lat="28.215866666666667" lon="-16.5043">
        <ele>1393</ele>
        <time>2024-03-30T13:13:22.000Z</time>
      </trkpt>
      <trkpt lat="28.2159" lon="-16.50425">
        <ele>1395</ele>
        <time>2024-03-30T13:13:23.000Z</time>
      </trkpt>
      <trkpt lat="28.215966666666667" lon="-16.50425">
        <ele>1397</ele>
        <time>2024-03-30T13:13:24.000Z</time>
      </trkpt>
      <trkpt lat="28.21605" lon="-16.5043">
        <ele>1399</ele>
        <time>2024-03-30T13:13:25.000Z</time>
      </trkpt>
      <trkpt lat="28.216116666666668" lon="-16.504416666666668">
        <ele>1400</ele>
        <time>2024-03-30T13:13:26.000Z</time>
      </trkpt>
      <trkpt lat="28.21613333333333" lon="-16.50455">
        <ele>1402</ele>
        <time>2024-03-30T13:13:27.000Z</time>
      </trkpt>
      <trkpt lat="28.216083333333334" lon="-16.504683333333332">
        <ele>1405</ele>
        <time>2024-03-30T13:13:28.000Z</time>
      </trkpt>
      <trkpt lat="28.216" lon="-16.5048">
        <ele>1406</ele>
        <time>2024-03-30T13:13:29.000Z</time>
      </trkpt>
      <trkpt lat="28.215883333333334" lon="-16.504833333333334">
        <ele>1407</ele>
        <time>2024-03-30T13:13:30.000Z</time>
      </trkpt>
      <trkpt lat="28.215783333333334" lon="-16.50485">
        <ele>1409</ele>
        <time>2024-03-30T13:13:31.000Z</time>
      </trkpt>
      <trkpt lat="28.2157" lon="-16.504816666666667">
        <ele>1413</ele>
        <time>2024-03-30T13:13:32.000Z</time>
      </trkpt>
      <trkpt lat="28.215666666666667" lon="-16.504766666666665">
        <ele>1415</ele>
        <time>2024-03-30T13:13:33.000Z</time>
      </trkpt>
      <trkpt lat="28.215683333333335" lon="-16.5047">
        <ele>1416</ele>
        <time>2024-03-30T13:13:34.000Z</time>
      </trkpt>
      <trkpt lat="28.215716666666665" lon="-16.504666666666665">
        <ele>1418</ele>
        <time>2024-03-30T13:13:35.000Z</time>
      </trkpt>
      <trkpt lat="28.215766666666667" lon="-16.504633333333334">
        <ele>1420</ele>
        <time>2024-03-30T13:13:36.000Z</time>
      </trkpt>
      <trkpt lat="28.21585" lon="-16.504633333333334">
        <ele>1422</ele>
        <time>2024-03-30T13:13:37.000Z</time>
      </trkpt>
      <trkpt lat="28.215933333333332" lon="-16.5047">
        <ele>1423</ele>
        <time>2024-03-30T13:13:38.000Z</time>
      </trkpt>
      <trkpt lat="28.216" lon="-16.504783333333332">
        <ele>1425</ele>
        <time>2024-03-30T13:13:39.000Z</time>
      </trkpt>
      <trkpt lat="28.21605" lon="-16.5049">
        <ele>1428</ele>
        <time>2024-03-30T13:13:40.000Z</time>
      </trkpt>
      <trkpt lat="28.21605" lon="-16.505">
        <ele>1431</ele>
        <time>2024-03-30T13:13:41.000Z</time>
      </trkpt>
      <trkpt lat="28.216033333333332" lon="-16.505133333333333">
        <ele>1433</ele>
        <time>2024-03-30T13:13:42.000Z</time>
      </trkpt>
      <trkpt lat="28.215966666666667" lon="-16.50525">
        <ele>1434</ele>
        <time>2024-03-30T13:13:43.000Z</time>
      </trkpt>
      <trkpt lat="28.215883333333334" lon="-16.505333333333333">
        <ele>1435</ele>
        <time>2024-03-30T13:13:44.000Z</time>
      </trkpt>
      <trkpt lat="28.215783333333334" lon="-16.505383333333334">
        <ele>1437</ele>
        <time>2024-03-30T13:13:45.000Z</time>
      </trkpt>
      <trkpt lat="28.2157" lon="-16.5054">
        <ele>1439</ele>
        <time>2024-03-30T13:13:46.000Z</time>
      </trkpt>
      <trkpt lat="28.215616666666666" lon="-16.5054">
        <ele>1441</ele>
        <time>2024-03-30T13:13:47.000Z</time>
      </trkpt>
      <trkpt lat="28.21555" lon="-16.505383333333334">
        <ele>1443</ele>
        <time>2024-03-30T13:13:48.000Z</time>
      </trkpt>
      <trkpt lat="28.215516666666666" lon="-16.5053">
        <ele>1444</ele>
        <time>2024-03-30T13:13:49.000Z</time>
      </trkpt>
      <trkpt lat="28.215516666666666" lon="-16.505233333333333">
        <ele>1447</ele>
        <time>2024-03-30T13:13:50.000Z</time>
      </trkpt>
      <trkpt lat="28.215566666666668" lon="-16.5052">
        <ele>1448</ele>
        <time>2024-03-30T13:13:51.000Z</time>
      </trkpt>
      <trkpt lat="28.21565" lon="-16.5052">
        <ele>1449</ele>
        <time>2024-03-30T13:13:52.000Z</time>
      </trkpt>
      <trkpt lat="28.215733333333333" lon="-16.505233333333333">
        <ele>1450</ele>
        <time>2024-03-30T13:13:53.000Z</time>
      </trkpt>
      <trkpt lat="28.2158" lon="-16.505283333333335">
        <ele>1451</ele>
        <time>2024-03-30T13:13:54.000Z</time>
      </trkpt>
      <trkpt lat="28.215883333333334" lon="-16.505333333333333">
        <ele>1453</ele>
        <time>2024-03-30T13:13:55.000Z</time>
      </trkpt>
      <trkpt lat="28.215933333333332" lon="-16.505416666666665">
        <ele>1455</ele>
        <time>2024-03-30T13:13:56.000Z</time>
      </trkpt>
      <trkpt lat="28.215983333333334" lon="-16.505516666666665">
        <ele>1458</ele>
        <time>2024-03-30T13:13:57.000Z</time>
      </trkpt>
      <trkpt lat="28.216" lon="-16.505633333333332">
        <ele>1462</ele>
        <time>2024-03-30T13:13:58.000Z</time>
      </trkpt>
      <trkpt lat="28.216" lon="-16.50575">
        <ele>1464</ele>
        <time>2024-03-30T13:13:59.000Z</time>
      </trkpt>
      <trkpt lat="28.215933333333332" lon="-16.505866666666666">
        <ele>1465</ele>
        <time>2024-03-30T13:14:00.000Z</time>
      </trkpt>
      <trkpt lat="28.21585" lon="-16.50595">
        <ele>1467</ele>
        <time>2024-03-30T13:14:01.000Z</time>
      </trkpt>
      <trkpt lat="28.215733333333333" lon="-16.505983333333333">
        <ele>1468</ele>
        <time>2024-03-30T13:14:02.000Z</time>
      </trkpt>
      <trkpt lat="28.21565" lon="-16.505966666666666">
        <ele>1469</ele>
        <time>2024-03-30T13:14:03.000Z</time>
      </trkpt>
      <trkpt lat="28.2156" lon="-16.505933333333335">
        <ele>1470</ele>
        <time>2024-03-30T13:14:04.000Z</time>
      </trkpt>
      <trkpt lat="28.2156" lon="-16.505866666666666">
        <ele>1472</ele>
        <time>2024-03-30T13:14:05.000Z</time>
      </trkpt>
      <trkpt lat="28.215633333333333" lon="-16.505833333333335">
        <ele>1472</ele>
        <time>2024-03-30T13:14:06.000Z</time>
      </trkpt>
      <trkpt lat="28.215716666666665" lon="-16.5058">
        <ele>1472</ele>
        <time>2024-03-30T13:14:07.000Z</time>
      </trkpt>
      <trkpt lat="28.2158" lon="-16.505816666666668">
        <ele>1472</ele>
        <time>2024-03-30T13:14:08.000Z</time>
      </trkpt>
      <trkpt lat="28.215883333333334" lon="-16.505833333333335">
        <ele>1474</ele>
        <time>2024-03-30T13:14:09.000Z</time>
      </trkpt>
      <trkpt lat="28.215983333333334" lon="-16.505883333333333">
        <ele>1476</ele>
        <time>2024-03-30T13:14:10.000Z</time>
      </trkpt>
      <trkpt lat="28.216066666666666" lon="-16.505933333333335">
        <ele>1479</ele>
        <time>2024-03-30T13:14:11.000Z</time>
      </trkpt>
      <trkpt lat="28.21615" lon="-16.506">
        <ele>1482</ele>
        <time>2024-03-30T13:14:12.000Z</time>
      </trkpt>
      <trkpt lat="28.216216666666668" lon="-16.506066666666666">
        <ele>1485</ele>
        <time>2024-03-30T13:14:13.000Z</time>
      </trkpt>
      <trkpt lat="28.216283333333333" lon="-16.50615">
        <ele>1488</ele>
        <time>2024-03-30T13:14:14.000Z</time>
      </trkpt>
      <trkpt lat="28.216316666666668" lon="-16.506233333333334">
        <ele>1492</ele>
        <time>2024-03-30T13:14:15.000Z</time>
      </trkpt>
      <trkpt lat="28.216316666666668" lon="-16.506333333333334">
        <ele>1493</ele>
        <time>2024-03-30T13:14:16.000Z</time>
      </trkpt>
      <trkpt lat="28.216283333333333" lon="-16.506466666666668">
        <ele>1491</ele>
        <time>2024-03-30T13:14:17.000Z</time>
      </trkpt>
      <trkpt lat="28.2162" lon="-16.50658333333333">
        <ele>1490</ele>
        <time>2024-03-30T13:14:18.000Z</time>
      </trkpt>
      <trkpt lat="28.2161" lon="-16.506666666666668">
        <ele>1490</ele>
        <time>2024-03-30T13:14:19.000Z</time>
      </trkpt>
      <trkpt lat="28.215983333333334" lon="-16.5067">
        <ele>1493</ele>
        <time>2024-03-30T13:14:20.000Z</time>
      </trkpt>
      <trkpt lat="28.215883333333334" lon="-16.5067">
        <ele>1496</ele>
        <time>2024-03-30T13:14:21.000Z</time>
      </trkpt>
      <trkpt lat="28.215816666666665" lon="-16.506666666666668">
        <ele>1498</ele>
        <time>2024-03-30T13:14:22.000Z</time>
      </trkpt>
      <trkpt lat="28.2158" lon="-16.5066">
        <ele>1501</ele>
        <time>2024-03-30T13:14:23.000Z</time>
      </trkpt>
      <trkpt lat="28.215816666666665" lon="-16.50655">
        <ele>1503</ele>
        <time>2024-03-30T13:14:24.000Z</time>
      </trkpt>
      <trkpt lat="28.21585" lon="-16.5065">
        <ele>1505</ele>
        <time>2024-03-30T13:14:25.000Z</time>
      </trkpt>
      <trkpt lat="28.215916666666665" lon="-16.506466666666668">
        <ele>1506</ele>
        <time>2024-03-30T13:14:26.000Z</time>
      </trkpt>
      <trkpt lat="28.215983333333334" lon="-16.50645">
        <ele>1507</ele>
        <time>2024-03-30T13:14:27.000Z</time>
      </trkpt>
      <trkpt lat="28.216066666666666" lon="-16.506466666666668">
        <ele>1509</ele>
        <time>2024-03-30T13:14:28.000Z</time>
      </trkpt>
      <trkpt lat="28.21615" lon="-16.506516666666666">
        <ele>1511</ele>
        <time>2024-03-30T13:14:29.000Z</time>
      </trkpt>
      <trkpt lat="28.216216666666668" lon="-16.5066">
        <ele>1514</ele>
        <time>2024-03-30T13:14:30.000Z</time>
      </trkpt>
      <trkpt lat="28.216266666666666" lon="-16.506716666666666">
        <ele>1515</ele>
        <time>2024-03-30T13:14:31.000Z</time>
      </trkpt>
      <trkpt lat="28.216283333333333" lon="-16.50685">
        <ele>1516</ele>
        <time>2024-03-30T13:14:32.000Z</time>
      </trkpt>
      <trkpt lat="28.21625" lon="-16.506966666666667">
        <ele>1516</ele>
        <time>2024-03-30T13:14:33.000Z</time>
      </trkpt>
      <trkpt lat="28.216216666666668" lon="-16.507066666666667">
        <ele>1516</ele>
        <time>2024-03-30T13:14:34.000Z</time>
      </trkpt>
      <trkpt lat="28.21615" lon="-16.50715">
        <ele>1516</ele>
        <time>2024-03-30T13:14:35.000Z</time>
      </trkpt>
      <trkpt lat="28.216083333333334" lon="-16.507216666666668">
        <ele>1516</ele>
        <time>2024-03-30T13:14:36.000Z</time>
      </trkpt>
      <trkpt lat="28.215983333333334" lon="-16.507266666666666">
        <ele>1517</ele>
        <time>2024-03-30T13:14:37.000Z</time>
      </trkpt>
      <trkpt lat="28.2159" lon="-16.5073">
        <ele>1520</ele>
        <time>2024-03-30T13:14:38.000Z</time>
      </trkpt>
      <trkpt lat="28.2158" lon="-16.50733333333333">
        <ele>1523</ele>
        <time>2024-03-30T13:14:39.000Z</time>
      </trkpt>
      <trkpt lat="28.215733333333333" lon="-16.50733333333333">
        <ele>1526</ele>
        <time>2024-03-30T13:14:40.000Z</time>
      </trkpt>
      <trkpt lat="28.215666666666667" lon="-16.50733333333333">
        <ele>1527</ele>
        <time>2024-03-30T13:14:41.000Z</time>
      </trkpt>
      <trkpt lat="28.215633333333333" lon="-16.5073">
        <ele>1528</ele>
        <time>2024-03-30T13:14:42.000Z</time>
      </trkpt>
      <trkpt lat="28.215616666666666" lon="-16.507266666666666">
        <ele>1528</ele>
        <time>2024-03-30T13:14:43.000Z</time>
      </trkpt>
      <trkpt lat="28.215616666666666" lon="-16.5072">
        <ele>1529</ele>
        <time>2024-03-30T13:14:44.000Z</time>
      </trkpt>
      <trkpt lat="28.215633333333333" lon="-16.50715">
        <ele>1530</ele>
        <time>2024-03-30T13:14:45.000Z</time>
      </trkpt>
      <trkpt lat="28.21565" lon="-16.507083333333334">
        <ele>1533</ele>
        <time>2024-03-30T13:14:46.000Z</time>
      </trkpt>
      <trkpt lat="28.21565" lon="-16.507033333333332">
        <ele>1535</ele>
        <time>2024-03-30T13:14:47.000Z</time>
      </trkpt>
      <trkpt lat="28.21565" lon="-16.506983333333334">
        <ele>1537</ele>
        <time>2024-03-30T13:14:48.000Z</time>
      </trkpt>
      <trkpt lat="28.215666666666667" lon="-16.506933333333333">
        <ele>1539</ele>
        <time>2024-03-30T13:14:49.000Z</time>
      </trkpt>
      <trkpt lat="28.2157" lon="-16.506866666666667">
        <ele>1540</ele>
        <time>2024-03-30T13:14:50.000Z</time>
      </trkpt>
      <trkpt lat="28.215733333333333" lon="-16.506816666666666">
        <ele>1542</ele>
        <time>2024-03-30T13:14:51.000Z</time>
      </trkpt>
      <trkpt lat="28.215783333333334" lon="-16.506783333333335">
        <ele>1544</ele>
        <time>2024-03-30T13:14:52.000Z</time>
      </trkpt>
      <trkpt lat="28.215833333333332" lon="-16.506766666666667">
        <ele>1545</ele>
        <time>2024-03-30T13:14:53.000Z</time>
      </trkpt>
      <trkpt lat="28.215883333333334" lon="-16.5068">
        <ele>1545</ele>
        <time>2024-03-30T13:14:54.000Z</time>
      </trkpt>
      <trkpt lat="28.21595" lon="-16.506883333333334">
        <ele>1544</ele>
        <time>2024-03-30T13:14:55.000Z</time>
      </trkpt>
      <trkpt lat="28.216" lon="-16.507">
        <ele>1543</ele>
        <time>2024-03-30T13:14:56.000Z</time>
      </trkpt>
      <trkpt lat="28.216033333333332" lon="-16.50715">
        <ele>1545</ele>
        <time>2024-03-30T13:14:57.000Z</time>
      </trkpt>
      <trkpt lat="28.21601666666667" lon="-16.507283333333334">
        <ele>1548</ele>
        <time>2024-03-30T13:14:58.000Z</time>
      </trkpt>
      <trkpt lat="28.215966666666667" lon="-16.5074">
        <ele>1549</ele>
        <time>2024-03-30T13:14:59.000Z</time>
      </trkpt>
      <trkpt lat="28.215883333333334" lon="-16.507483333333333">
        <ele>1549</ele>
        <time>2024-03-30T13:15:00.000Z</time>
      </trkpt>
      <trkpt lat="28.215766666666667" lon="-16.50755">
        <ele>1551</ele>
        <time>2024-03-30T13:15:01.000Z</time>
      </trkpt>
      <trkpt lat="28.215666666666667" lon="-16.507583333333333">
        <ele>1553</ele>
        <time>2024-03-30T13:15:02.000Z</time>
      </trkpt>
      <trkpt lat="28.215583333333335" lon="-16.507633333333334">
        <ele>1557</ele>
        <time>2024-03-30T13:15:03.000Z</time>
      </trkpt>
      <trkpt lat="28.215516666666666" lon="-16.50765">
        <ele>1561</ele>
        <time>2024-03-30T13:15:04.000Z</time>
      </trkpt>
      <trkpt lat="28.21545" lon="-16.507683333333333">
        <ele>1564</ele>
        <time>2024-03-30T13:15:05.000Z</time>
      </trkpt>
      <trkpt lat="28.2154" lon="-16.507733333333334">
        <ele>1566</ele>
        <time>2024-03-30T13:15:06.000Z</time>
      </trkpt>
      <trkpt lat="28.215333333333334" lon="-16.507783333333332">
        <ele>1568</ele>
        <time>2024-03-30T13:15:07.000Z</time>
      </trkpt>
      <trkpt lat="28.215283333333332" lon="-16.507816666666667">
        <ele>1568</ele>
        <time>2024-03-30T13:15:08.000Z</time>
      </trkpt>
      <trkpt lat="28.215216666666667" lon="-16.507816666666667">
        <ele>1568</ele>
        <time>2024-03-30T13:15:09.000Z</time>
      </trkpt>
      <trkpt lat="28.215183333333332" lon="-16.5078">
        <ele>1570</ele>
        <time>2024-03-30T13:15:10.000Z</time>
      </trkpt>
      <trkpt lat="28.215166666666665" lon="-16.50775">
        <ele>1570</ele>
        <time>2024-03-30T13:15:11.000Z</time>
      </trkpt>
      <trkpt lat="28.215233333333334" lon="-16.5077">
        <ele>1570</ele>
        <time>2024-03-30T13:15:12.000Z</time>
      </trkpt>
      <trkpt lat="28.215333333333334" lon="-16.507683333333333">
        <ele>1571</ele>
        <time>2024-03-30T13:15:13.000Z</time>
      </trkpt>
      <trkpt lat="28.21545" lon="-16.507733333333334">
        <ele>1572</ele>
        <time>2024-03-30T13:15:14.000Z</time>
      </trkpt>
      <trkpt lat="28.215533333333333" lon="-16.507816666666667">
        <ele>1576</ele>
        <time>2024-03-30T13:15:15.000Z</time>
      </trkpt>
      <trkpt lat="28.215583333333335" lon="-16.507916666666667">
        <ele>1580</ele>
        <time>2024-03-30T13:15:16.000Z</time>
      </trkpt>
      <trkpt lat="28.215633333333333" lon="-16.508">
        <ele>1583</ele>
        <time>2024-03-30T13:15:17.000Z</time>
      </trkpt>
      <trkpt lat="28.215666666666667" lon="-16.50808333333333">
        <ele>1585</ele>
        <time>2024-03-30T13:15:18.000Z</time>
      </trkpt>
      <trkpt lat="28.2157" lon="-16.508183333333335">
        <ele>1586</ele>
        <time>2024-03-30T13:15:19.000Z</time>
      </trkpt>
      <trkpt lat="28.215716666666665" lon="-16.508316666666666">
        <ele>1586</ele>
        <time>2024-03-30T13:15:20.000Z</time>
      </trkpt>
      <trkpt lat="28.215733333333333" lon="-16.50845">
        <ele>1584</ele>
        <time>2024-03-30T13:15:21.000Z</time>
      </trkpt>
      <trkpt lat="28.215733333333333" lon="-16.508583333333334">
        <ele>1583</ele>
        <time>2024-03-30T13:15:22.000Z</time>
      </trkpt>
      <trkpt lat="28.215716666666665" lon="-16.50871666666667">
        <ele>1584</ele>
        <time>2024-03-30T13:15:23.000Z</time>
      </trkpt>
      <trkpt lat="28.215683333333335" lon="-16.50883333333333">
        <ele>1585</ele>
        <time>2024-03-30T13:15:24.000Z</time>
      </trkpt>
      <trkpt lat="28.215616666666666" lon="-16.508916666666668">
        <ele>1586</ele>
        <time>2024-03-30T13:15:25.000Z</time>
      </trkpt>
      <trkpt lat="28.21555" lon="-16.508983333333333">
        <ele>1586</ele>
        <time>2024-03-30T13:15:26.000Z</time>
      </trkpt>
      <trkpt lat="28.21545" lon="-16.509016666666668">
        <ele>1585</ele>
        <time>2024-03-30T13:15:27.000Z</time>
      </trkpt>
      <trkpt lat="28.21535" lon="-16.509016666666668">
        <ele>1586</ele>
        <time>2024-03-30T13:15:28.000Z</time>
      </trkpt>
      <trkpt lat="28.21526666666667" lon="-16.508983333333333">
        <ele>1588</ele>
        <time>2024-03-30T13:15:29.000Z</time>
      </trkpt>
      <trkpt lat="28.215216666666667" lon="-16.50895">
        <ele>1589</ele>
        <time>2024-03-30T13:15:30.000Z</time>
      </trkpt>
      <trkpt lat="28.2152" lon="-16.508916666666668">
        <ele>1590</ele>
        <time>2024-03-30T13:15:31.000Z</time>
      </trkpt>
      <trkpt lat="28.215183333333332" lon="-16.508883333333333">
        <ele>1591</ele>
        <time>2024-03-30T13:15:32.000Z</time>
      </trkpt>
      <trkpt lat="28.215183333333332" lon="-16.50883333333333">
        <ele>1592</ele>
        <time>2024-03-30T13:15:33.000Z</time>
      </trkpt>
      <trkpt lat="28.215166666666665" lon="-16.508766666666666">
        <ele>1593</ele>
        <time>2024-03-30T13:15:34.000Z</time>
      </trkpt>
      <trkpt lat="28.215166666666665" lon="-16.50871666666667">
        <ele>1593</ele>
        <time>2024-03-30T13:15:35.000Z</time>
      </trkpt>
      <trkpt lat="28.215133333333334" lon="-16.508666666666667">
        <ele>1595</ele>
        <time>2024-03-30T13:15:36.000Z</time>
      </trkpt>
      <trkpt lat="28.2151" lon="-16.508616666666665">
        <ele>1596</ele>
        <time>2024-03-30T13:15:37.000Z</time>
      </trkpt>
      <trkpt lat="28.215066666666665" lon="-16.508583333333334">
        <ele>1597</ele>
        <time>2024-03-30T13:15:38.000Z</time>
      </trkpt>
      <trkpt lat="28.215033333333334" lon="-16.508533333333332">
        <ele>1598</ele>
        <time>2024-03-30T13:15:39.000Z</time>
      </trkpt>
      <trkpt lat="28.215" lon="-16.5085">
        <ele>1598</ele>
        <time>2024-03-30T13:15:40.000Z</time>
      </trkpt>
      <trkpt lat="28.214983333333333" lon="-16.50845">
        <ele>1598</ele>
        <time>2024-03-30T13:15:41.000Z</time>
      </trkpt>
      <trkpt lat="28.214983333333333" lon="-16.508383333333335">
        <ele>1597</ele>
        <time>2024-03-30T13:15:42.000Z</time>
      </trkpt>
      <trkpt lat="28.214966666666665" lon="-16.508316666666666">
        <ele>1598</ele>
        <time>2024-03-30T13:15:43.000Z</time>
      </trkpt>
      <trkpt lat="28.214966666666665" lon="-16.508233333333333">
        <ele>1600</ele>
        <time>2024-03-30T13:15:44.000Z</time>
      </trkpt>
      <trkpt lat="28.214966666666665" lon="-16.508166666666668">
        <ele>1602</ele>
        <time>2024-03-30T13:15:45.000Z</time>
      </trkpt>
      <trkpt lat="28.214983333333333" lon="-16.5081">
        <ele>1604</ele>
        <time>2024-03-30T13:15:46.000Z</time>
      </trkpt>
      <trkpt lat="28.214983333333333" lon="-16.508033333333334">
        <ele>1606</ele>
        <time>2024-03-30T13:15:47.000Z</time>
      </trkpt>
      <trkpt lat="28.214983333333333" lon="-16.50796666666667">
        <ele>1607</ele>
        <time>2024-03-30T13:15:48.000Z</time>
      </trkpt>
      <trkpt lat="28.215" lon="-16.507916666666667">
        <ele>1609</ele>
        <time>2024-03-30T13:15:49.000Z</time>
      </trkpt>
      <trkpt lat="28.215" lon="-16.507866666666665">
        <ele>1610</ele>
        <time>2024-03-30T13:15:50.000Z</time>
      </trkpt>
      <trkpt lat="28.215016666666667" lon="-16.5078">
        <ele>1612</ele>
        <time>2024-03-30T13:15:51.000Z</time>
      </trkpt>
      <trkpt lat="28.215033333333334" lon="-16.507733333333334">
        <ele>1615</ele>
        <time>2024-03-30T13:15:52.000Z</time>
      </trkpt>
      <trkpt lat="28.215033333333334" lon="-16.50765">
        <ele>1618</ele>
        <time>2024-03-30T13:15:53.000Z</time>
      </trkpt>
      <trkpt lat="28.215016666666667" lon="-16.5076">
        <ele>1620</ele>
        <time>2024-03-30T13:15:54.000Z</time>
      </trkpt>
      <trkpt lat="28.215" lon="-16.507533333333335">
        <ele>1621</ele>
        <time>2024-03-30T13:15:55.000Z</time>
      </trkpt>
      <trkpt lat="28.214966666666665" lon="-16.507466666666666">
        <ele>1622</ele>
        <time>2024-03-30T13:15:56.000Z</time>
      </trkpt>
      <trkpt lat="28.214966666666665" lon="-16.507383333333333">
        <ele>1623</ele>
        <time>2024-03-30T13:15:57.000Z</time>
      </trkpt>
      <trkpt lat="28.214966666666665" lon="-16.507316666666668">
        <ele>1625</ele>
        <time>2024-03-30T13:15:58.000Z</time>
      </trkpt>
      <trkpt lat="28.214966666666665" lon="-16.507233333333332">
        <ele>1626</ele>
        <time>2024-03-30T13:15:59.000Z</time>
      </trkpt>
      <trkpt lat="28.214983333333333" lon="-16.50715">
        <ele>1627</ele>
        <time>2024-03-30T13:16:00.000Z</time>
      </trkpt>
      <trkpt lat="28.214983333333333" lon="-16.507083333333334">
        <ele>1628</ele>
        <time>2024-03-30T13:16:01.000Z</time>
      </trkpt>
      <trkpt lat="28.214966666666665" lon="-16.507016666666665">
        <ele>1629</ele>
        <time>2024-03-30T13:16:02.000Z</time>
      </trkpt>
      <trkpt lat="28.214966666666665" lon="-16.50695">
        <ele>1628</ele>
        <time>2024-03-30T13:16:03.000Z</time>
      </trkpt>
      <trkpt lat="28.214966666666665" lon="-16.506866666666667">
        <ele>1626</ele>
        <time>2024-03-30T13:16:04.000Z</time>
      </trkpt>
      <trkpt lat="28.214966666666665" lon="-16.506766666666667">
        <ele>1625</ele>
        <time>2024-03-30T13:16:05.000Z</time>
      </trkpt>
      <trkpt lat="28.214966666666665" lon="-16.50665">
        <ele>1625</ele>
        <time>2024-03-30T13:16:06.000Z</time>
      </trkpt>
      <trkpt lat="28.214966666666665" lon="-16.50655">
        <ele>1626</ele>
        <time>2024-03-30T13:16:07.000Z</time>
      </trkpt>
      <trkpt lat="28.214966666666665" lon="-16.506433333333334">
        <ele>1627</ele>
        <time>2024-03-30T13:16:08.000Z</time>
      </trkpt>
      <trkpt lat="28.214983333333333" lon="-16.50635">
        <ele>1628</ele>
        <time>2024-03-30T13:16:09.000Z</time>
      </trkpt>
      <trkpt lat="28.214983333333333" lon="-16.50625">
        <ele>1630</ele>
        <time>2024-03-30T13:16:10.000Z</time>
      </trkpt>
      <trkpt lat="28.214983333333333" lon="-16.506166666666665">
        <ele>1632</ele>
        <time>2024-03-30T13:16:11.000Z</time>
      </trkpt>
      <trkpt lat="28.214983333333333" lon="-16.506083333333333">
        <ele>1634</ele>
        <time>2024-03-30T13:16:12.000Z</time>
      </trkpt>
      <trkpt lat="28.214983333333333" lon="-16.506">
        <ele>1635</ele>
        <time>2024-03-30T13:16:13.000Z</time>
      </trkpt>
      <trkpt lat="28.214966666666665" lon="-16.505916666666668">
        <ele>1636</ele>
        <time>2024-03-30T13:16:14.000Z</time>
      </trkpt>
      <trkpt lat="28.214966666666665" lon="-16.505833333333335">
        <ele>1638</ele>
        <time>2024-03-30T13:16:15.000Z</time>
      </trkpt>
      <trkpt lat="28.214966666666665" lon="-16.505733333333332">
        <ele>1639</ele>
        <time>2024-03-30T13:16:16.000Z</time>
      </trkpt>
      <trkpt lat="28.21495" lon="-16.505633333333332">
        <ele>1640</ele>
        <time>2024-03-30T13:16:17.000Z</time>
      </trkpt>
      <trkpt lat="28.214933333333335" lon="-16.505566666666667">
        <ele>1640</ele>
        <time>2024-03-30T13:16:18.000Z</time>
      </trkpt>
      <trkpt lat="28.214916666666667" lon="-16.505483333333334">
        <ele>1640</ele>
        <time>2024-03-30T13:16:19.000Z</time>
      </trkpt>
      <trkpt lat="28.214883333333333" lon="-16.5054">
        <ele>1641</ele>
        <time>2024-03-30T13:16:20.000Z</time>
      </trkpt>
      <trkpt lat="28.214866666666666" lon="-16.505316666666666">
        <ele>1641</ele>
        <time>2024-03-30T13:16:21.000Z</time>
      </trkpt>
      <trkpt lat="28.214833333333335" lon="-16.505233333333333">
        <ele>1643</ele>
        <time>2024-03-30T13:16:22.000Z</time>
      </trkpt>
      <trkpt lat="28.214833333333335" lon="-16.505133333333333">
        <ele>1644</ele>
        <time>2024-03-30T13:16:23.000Z</time>
      </trkpt>
      <trkpt lat="28.214833333333335" lon="-16.50505">
        <ele>1645</ele>
        <time>2024-03-30T13:16:24.000Z</time>
      </trkpt>
      <trkpt lat="28.21485" lon="-16.50495">
        <ele>1647</ele>
        <time>2024-03-30T13:16:25.000Z</time>
      </trkpt>
      <trkpt lat="28.214833333333335" lon="-16.50486666666667">
        <ele>1650</ele>
        <time>2024-03-30T13:16:26.000Z</time>
      </trkpt>
      <trkpt lat="28.214816666666668" lon="-16.504783333333332">
        <ele>1652</ele>
        <time>2024-03-30T13:16:27.000Z</time>
      </trkpt>
      <trkpt lat="28.214783333333333" lon="-16.504716666666667">
        <ele>1653</ele>
        <time>2024-03-30T13:16:28.000Z</time>
      </trkpt>
      <trkpt lat="28.21475" lon="-16.504633333333334">
        <ele>1655</ele>
        <time>2024-03-30T13:16:29.000Z</time>
      </trkpt>
      <trkpt lat="28.214716666666668" lon="-16.504533333333335">
        <ele>1656</ele>
        <time>2024-03-30T13:16:30.000Z</time>
      </trkpt>
      <trkpt lat="28.214683333333333" lon="-16.504466666666666">
        <ele>1658</ele>
        <time>2024-03-30T13:16:31.000Z</time>
      </trkpt>
      <trkpt lat="28.21465" lon="-16.504383333333333">
        <ele>1660</ele>
        <time>2024-03-30T13:16:32.000Z</time>
      </trkpt>
      <trkpt lat="28.21463333333333" lon="-16.5043">
        <ele>1661</ele>
        <time>2024-03-30T13:16:33.000Z</time>
      </trkpt>
      <trkpt lat="28.21463333333333" lon="-16.504216666666668">
        <ele>1663</ele>
        <time>2024-03-30T13:16:34.000Z</time>
      </trkpt>
      <trkpt lat="28.21465" lon="-16.504133333333332">
        <ele>1665</ele>
        <time>2024-03-30T13:16:35.000Z</time>
      </trkpt>
      <trkpt lat="28.214716666666668" lon="-16.504066666666667">
        <ele>1667</ele>
        <time>2024-03-30T13:16:36.000Z</time>
      </trkpt>
      <trkpt lat="28.214783333333333" lon="-16.50405">
        <ele>1669</ele>
        <time>2024-03-30T13:16:37.000Z</time>
      </trkpt>
      <trkpt lat="28.214833333333335" lon="-16.504066666666667">
        <ele>1671</ele>
        <time>2024-03-30T13:16:38.000Z</time>
      </trkpt>
      <trkpt lat="28.214883333333333" lon="-16.5041">
        <ele>1672</ele>
        <time>2024-03-30T13:16:39.000Z</time>
      </trkpt>
      <trkpt lat="28.214933333333335" lon="-16.504166666666666">
        <ele>1674</ele>
        <time>2024-03-30T13:16:40.000Z</time>
      </trkpt>
      <trkpt lat="28.21495" lon="-16.50425">
        <ele>1675</ele>
        <time>2024-03-30T13:16:41.000Z</time>
      </trkpt>
      <trkpt lat="28.21495" lon="-16.50435">
        <ele>1676</ele>
        <time>2024-03-30T13:16:42.000Z</time>
      </trkpt>
      <trkpt lat="28.21495" lon="-16.504466666666666">
        <ele>1678</ele>
        <time>2024-03-30T13:16:43.000Z</time>
      </trkpt>
      <trkpt lat="28.214916666666667" lon="-16.50455">
        <ele>1679</ele>
        <time>2024-03-30T13:16:44.000Z</time>
      </trkpt>
      <trkpt lat="28.214866666666666" lon="-16.50465">
        <ele>1679</ele>
        <time>2024-03-30T13:16:45.000Z</time>
      </trkpt>
      <trkpt lat="28.214783333333333" lon="-16.504716666666667">
        <ele>1679</ele>
        <time>2024-03-30T13:16:46.000Z</time>
      </trkpt>
      <trkpt lat="28.2147" lon="-16.504783333333332">
        <ele>1679</ele>
        <time>2024-03-30T13:16:47.000Z</time>
      </trkpt>
      <trkpt lat="28.214616666666668" lon="-16.504833333333334">
        <ele>1680</ele>
        <time>2024-03-30T13:16:48.000Z</time>
      </trkpt>
      <trkpt lat="28.21451666666667" lon="-16.504883333333332">
        <ele>1680</ele>
        <time>2024-03-30T13:16:49.000Z</time>
      </trkpt>
      <trkpt lat="28.214433333333332" lon="-16.50495">
        <ele>1682</ele>
        <time>2024-03-30T13:16:50.000Z</time>
      </trkpt>
      <trkpt lat="28.214333333333332" lon="-16.505016666666666">
        <ele>1684</ele>
        <time>2024-03-30T13:16:51.000Z</time>
      </trkpt>
      <trkpt lat="28.21425" lon="-16.50505">
        <ele>1686</ele>
        <time>2024-03-30T13:16:52.000Z</time>
      </trkpt>
      <trkpt lat="28.21415" lon="-16.50508333333333">
        <ele>1688</ele>
        <time>2024-03-30T13:16:53.000Z</time>
      </trkpt>
      <trkpt lat="28.214066666666668" lon="-16.5051">
        <ele>1689</ele>
        <time>2024-03-30T13:16:54.000Z</time>
      </trkpt>
      <trkpt lat="28.213966666666668" lon="-16.5051">
        <ele>1690</ele>
        <time>2024-03-30T13:16:55.000Z</time>
      </trkpt>
      <trkpt lat="28.21388333333333" lon="-16.505066666666668">
        <ele>1691</ele>
        <time>2024-03-30T13:16:56.000Z</time>
      </trkpt>
      <trkpt lat="28.2138" lon="-16.505">
        <ele>1692</ele>
        <time>2024-03-30T13:16:57.000Z</time>
      </trkpt>
      <trkpt lat="28.213766666666668" lon="-16.504916666666666">
        <ele>1694</ele>
        <time>2024-03-30T13:16:58.000Z</time>
      </trkpt>
      <trkpt lat="28.2138" lon="-16.504833333333334">
        <ele>1696</ele>
        <time>2024-03-30T13:16:59.000Z</time>
      </trkpt>
      <trkpt lat="28.21385" lon="-16.504783333333332">
        <ele>1696</ele>
        <time>2024-03-30T13:17:00.000Z</time>
      </trkpt>
      <trkpt lat="28.21395" lon="-16.5048">
        <ele>1695</ele>
        <time>2024-03-30T13:17:01.000Z</time>
      </trkpt>
      <trkpt lat="28.214033333333333" lon="-16.504883333333332">
        <ele>1695</ele>
        <time>2024-03-30T13:17:02.000Z</time>
      </trkpt>
      <trkpt lat="28.214083333333335" lon="-16.505">
        <ele>1696</ele>
        <time>2024-03-30T13:17:03.000Z</time>
      </trkpt>
      <trkpt lat="28.214066666666668" lon="-16.50515">
        <ele>1697</ele>
        <time>2024-03-30T13:17:04.000Z</time>
      </trkpt>
      <trkpt lat="28.214016666666666" lon="-16.505283333333335">
        <ele>1700</ele>
        <time>2024-03-30T13:17:05.000Z</time>
      </trkpt>
      <trkpt lat="28.21395" lon="-16.505383333333334">
        <ele>1703</ele>
        <time>2024-03-30T13:17:06.000Z</time>
      </trkpt>
      <trkpt lat="28.21388333333333" lon="-16.505466666666667">
        <ele>1705</ele>
        <time>2024-03-30T13:17:07.000Z</time>
      </trkpt>
      <trkpt lat="28.213833333333334" lon="-16.505566666666667">
        <ele>1705</ele>
        <time>2024-03-30T13:17:08.000Z</time>
      </trkpt>
      <trkpt lat="28.213766666666668" lon="-16.505666666666666">
        <ele>1705</ele>
        <time>2024-03-30T13:17:09.000Z</time>
      </trkpt>
      <trkpt lat="28.2137" lon="-16.50575">
        <ele>1706</ele>
        <time>2024-03-30T13:17:10.000Z</time>
      </trkpt>
      <trkpt lat="28.213616666666667" lon="-16.505833333333335">
        <ele>1706</ele>
        <time>2024-03-30T13:17:11.000Z</time>
      </trkpt>
      <trkpt lat="28.213533333333334" lon="-16.505916666666668">
        <ele>1706</ele>
        <time>2024-03-30T13:17:12.000Z</time>
      </trkpt>
      <trkpt lat="28.21345" lon="-16.506016666666667">
        <ele>1705</ele>
        <time>2024-03-30T13:17:13.000Z</time>
      </trkpt>
      <trkpt lat="28.213366666666666" lon="-16.5061">
        <ele>1704</ele>
        <time>2024-03-30T13:17:14.000Z</time>
      </trkpt>
      <trkpt lat="28.213283333333333" lon="-16.506183333333333">
        <ele>1704</ele>
        <time>2024-03-30T13:17:15.000Z</time>
      </trkpt>
      <trkpt lat="28.2132" lon="-16.50625">
        <ele>1703</ele>
        <time>2024-03-30T13:17:16.000Z</time>
      </trkpt>
      <trkpt lat="28.213116666666668" lon="-16.5063">
        <ele>1702</ele>
        <time>2024-03-30T13:17:17.000Z</time>
      </trkpt>
      <trkpt lat="28.213033333333332" lon="-16.50636666666667">
        <ele>1701</ele>
        <time>2024-03-30T13:17:18.000Z</time>
      </trkpt>
      <trkpt lat="28.21295" lon="-16.50645">
        <ele>1699</ele>
        <time>2024-03-30T13:17:19.000Z</time>
      </trkpt>
      <trkpt lat="28.212866666666667" lon="-16.506533333333334">
        <ele>1696</ele>
        <time>2024-03-30T13:17:20.000Z</time>
      </trkpt>
      <trkpt lat="28.212783333333334" lon="-16.506616666666666">
        <ele>1695</ele>
        <time>2024-03-30T13:17:21.000Z</time>
      </trkpt>
      <trkpt lat="28.212683333333334" lon="-16.506683333333335">
        <ele>1694</ele>
        <time>2024-03-30T13:17:22.000Z</time>
      </trkpt>
      <trkpt lat="28.212583333333335" lon="-16.50675">
        <ele>1694</ele>
        <time>2024-03-30T13:17:23.000Z</time>
      </trkpt>
      <trkpt lat="28.212466666666668" lon="-16.506783333333335">
        <ele>1694</ele>
        <time>2024-03-30T13:17:24.000Z</time>
      </trkpt>
      <trkpt lat="28.212366666666668" lon="-16.506833333333333">
        <ele>1694</ele>
        <time>2024-03-30T13:17:25.000Z</time>
      </trkpt>
      <trkpt lat="28.21225" lon="-16.506883333333334">
        <ele>1693</ele>
        <time>2024-03-30T13:17:26.000Z</time>
      </trkpt>
      <trkpt lat="28.21216666666667" lon="-16.506966666666667">
        <ele>1691</ele>
        <time>2024-03-30T13:17:27.000Z</time>
      </trkpt>
      <trkpt lat="28.212083333333332" lon="-16.50705">
        <ele>1689</ele>
        <time>2024-03-30T13:17:28.000Z</time>
      </trkpt>
      <trkpt lat="28.211983333333333" lon="-16.507133333333332">
        <ele>1687</ele>
        <time>2024-03-30T13:17:29.000Z</time>
      </trkpt>
      <trkpt lat="28.21185" lon="-16.5072">
        <ele>1686</ele>
        <time>2024-03-30T13:17:30.000Z</time>
      </trkpt>
      <trkpt lat="28.211733333333335" lon="-16.50725">
        <ele>1685</ele>
        <time>2024-03-30T13:17:31.000Z</time>
      </trkpt>
      <trkpt lat="28.21163333333333" lon="-16.5073">
        <ele>1683</ele>
        <time>2024-03-30T13:17:32.000Z</time>
      </trkpt>
      <trkpt lat="28.211533333333332" lon="-16.507383333333333">
        <ele>1680</ele>
        <time>2024-03-30T13:17:33.000Z</time>
      </trkpt>
      <trkpt lat="28.21145" lon="-16.507483333333333">
        <ele>1676</ele>
        <time>2024-03-30T13:17:34.000Z</time>
      </trkpt>
      <trkpt lat="28.21135" lon="-16.507566666666666">
        <ele>1673</ele>
        <time>2024-03-30T13:17:35.000Z</time>
      </trkpt>
      <trkpt lat="28.21125" lon="-16.50765">
        <ele>1672</ele>
        <time>2024-03-30T13:17:36.000Z</time>
      </trkpt>
      <trkpt lat="28.211166666666667" lon="-16.507716666666667">
        <ele>1672</ele>
        <time>2024-03-30T13:17:37.000Z</time>
      </trkpt>
      <trkpt lat="28.211083333333335" lon="-16.5078">
        <ele>1671</ele>
        <time>2024-03-30T13:17:38.000Z</time>
      </trkpt>
      <trkpt lat="28.211016666666666" lon="-16.507866666666665">
        <ele>1667</ele>
        <time>2024-03-30T13:17:39.000Z</time>
      </trkpt>
      <trkpt lat="28.21095" lon="-16.50796666666667">
        <ele>1663</ele>
        <time>2024-03-30T13:17:40.000Z</time>
      </trkpt>
      <trkpt lat="28.21085" lon="-16.50808333333333">
        <ele>1659</ele>
        <time>2024-03-30T13:17:41.000Z</time>
      </trkpt>
      <trkpt lat="28.210733333333334" lon="-16.5082">
        <ele>1658</ele>
        <time>2024-03-30T13:17:42.000Z</time>
      </trkpt>
      <trkpt lat="28.210633333333334" lon="-16.508316666666666">
        <ele>1658</ele>
        <time>2024-03-30T13:17:43.000Z</time>
      </trkpt>
      <trkpt lat="28.210533333333334" lon="-16.5084">
        <ele>1659</ele>
        <time>2024-03-30T13:17:44.000Z</time>
      </trkpt>
      <trkpt lat="28.210433333333334" lon="-16.508483333333334">
        <ele>1659</ele>
        <time>2024-03-30T13:17:45.000Z</time>
      </trkpt>
      <trkpt lat="28.210333333333335" lon="-16.508583333333334">
        <ele>1657</ele>
        <time>2024-03-30T13:17:46.000Z</time>
      </trkpt>
      <trkpt lat="28.21025" lon="-16.5087">
        <ele>1653</ele>
        <time>2024-03-30T13:17:47.000Z</time>
      </trkpt>
      <trkpt lat="28.21015" lon="-16.50883333333333">
        <ele>1651</ele>
        <time>2024-03-30T13:17:48.000Z</time>
      </trkpt>
      <trkpt lat="28.210066666666666" lon="-16.50895">
        <ele>1651</ele>
        <time>2024-03-30T13:17:49.000Z</time>
      </trkpt>
      <trkpt lat="28.209966666666666" lon="-16.509066666666666">
        <ele>1652</ele>
        <time>2024-03-30T13:17:50.000Z</time>
      </trkpt>
      <trkpt lat="28.209883333333334" lon="-16.509166666666665">
        <ele>1654</ele>
        <time>2024-03-30T13:17:51.000Z</time>
      </trkpt>
      <trkpt lat="28.2098" lon="-16.50925">
        <ele>1655</ele>
        <time>2024-03-30T13:17:52.000Z</time>
      </trkpt>
      <trkpt lat="28.209733333333332" lon="-16.509333333333334">
        <ele>1654</ele>
        <time>2024-03-30T13:17:53.000Z</time>
      </trkpt>
      <trkpt lat="28.20965" lon="-16.509433333333334">
        <ele>1651</ele>
        <time>2024-03-30T13:17:54.000Z</time>
      </trkpt>
      <trkpt lat="28.20955" lon="-16.509533333333334">
        <ele>1648</ele>
        <time>2024-03-30T13:17:55.000Z</time>
      </trkpt>
      <trkpt lat="28.20945" lon="-16.50965">
        <ele>1646</ele>
        <time>2024-03-30T13:17:56.000Z</time>
      </trkpt>
      <trkpt lat="28.20935" lon="-16.509766666666668">
        <ele>1647</ele>
        <time>2024-03-30T13:17:57.000Z</time>
      </trkpt>
      <trkpt lat="28.209266666666668" lon="-16.509900000000002">
        <ele>1649</ele>
        <time>2024-03-30T13:17:58.000Z</time>
      </trkpt>
      <trkpt lat="28.2092" lon="-16.51">
        <ele>1650</ele>
        <time>2024-03-30T13:17:59.000Z</time>
      </trkpt>
      <trkpt lat="28.209133333333334" lon="-16.5101">
        <ele>1649</ele>
        <time>2024-03-30T13:18:00.000Z</time>
      </trkpt>
      <trkpt lat="28.20905" lon="-16.5102">
        <ele>1647</ele>
        <time>2024-03-30T13:18:01.000Z</time>
      </trkpt>
      <trkpt lat="28.208966666666665" lon="-16.5103">
        <ele>1643</ele>
        <time>2024-03-30T13:18:02.000Z</time>
      </trkpt>
      <trkpt lat="28.20885" lon="-16.510416666666668">
        <ele>1639</ele>
        <time>2024-03-30T13:18:03.000Z</time>
      </trkpt>
      <trkpt lat="28.208733333333335" lon="-16.510533333333335">
        <ele>1637</ele>
        <time>2024-03-30T13:18:04.000Z</time>
      </trkpt>
      <trkpt lat="28.208633333333335" lon="-16.51065">
        <ele>1637</ele>
        <time>2024-03-30T13:18:05.000Z</time>
      </trkpt>
      <trkpt lat="28.20853333333333" lon="-16.51075">
        <ele>1638</ele>
        <time>2024-03-30T13:18:06.000Z</time>
      </trkpt>
      <trkpt lat="28.208433333333332" lon="-16.510833333333334">
        <ele>1638</ele>
        <time>2024-03-30T13:18:07.000Z</time>
      </trkpt>
      <trkpt lat="28.20835" lon="-16.510933333333334">
        <ele>1636</ele>
        <time>2024-03-30T13:18:08.000Z</time>
      </trkpt>
      <trkpt lat="28.20825" lon="-16.511033333333334">
        <ele>1632</ele>
        <time>2024-03-30T13:18:09.000Z</time>
      </trkpt>
      <trkpt lat="28.208133333333333" lon="-16.511133333333333">
        <ele>1628</ele>
        <time>2024-03-30T13:18:10.000Z</time>
      </trkpt>
      <trkpt lat="28.208" lon="-16.51125">
        <ele>1626</ele>
        <time>2024-03-30T13:18:11.000Z</time>
      </trkpt>
      <trkpt lat="28.207866666666668" lon="-16.51135">
        <ele>1627</ele>
        <time>2024-03-30T13:18:12.000Z</time>
      </trkpt>
      <trkpt lat="28.207766666666668" lon="-16.51145">
        <ele>1628</ele>
        <time>2024-03-30T13:18:13.000Z</time>
      </trkpt>
      <trkpt lat="28.207683333333332" lon="-16.511533333333333">
        <ele>1629</ele>
        <time>2024-03-30T13:18:14.000Z</time>
      </trkpt>
      <trkpt lat="28.2076" lon="-16.511616666666665">
        <ele>1627</ele>
        <time>2024-03-30T13:18:15.000Z</time>
      </trkpt>
      <trkpt lat="28.207516666666667" lon="-16.51171666666667">
        <ele>1623</ele>
        <time>2024-03-30T13:18:16.000Z</time>
      </trkpt>
      <trkpt lat="28.2074" lon="-16.511816666666668">
        <ele>1619</ele>
        <time>2024-03-30T13:18:17.000Z</time>
      </trkpt>
      <trkpt lat="28.207266666666666" lon="-16.5119">
        <ele>1617</ele>
        <time>2024-03-30T13:18:18.000Z</time>
      </trkpt>
      <trkpt lat="28.20715" lon="-16.511983333333333">
        <ele>1617</ele>
        <time>2024-03-30T13:18:19.000Z</time>
      </trkpt>
      <trkpt lat="28.207066666666666" lon="-16.512066666666666">
        <ele>1618</ele>
        <time>2024-03-30T13:18:20.000Z</time>
      </trkpt>
      <trkpt lat="28.207" lon="-16.51215">
        <ele>1617</ele>
        <time>2024-03-30T13:18:21.000Z</time>
      </trkpt>
      <trkpt lat="28.206916666666668" lon="-16.512233333333334">
        <ele>1615</ele>
        <time>2024-03-30T13:18:22.000Z</time>
      </trkpt>
      <trkpt lat="28.20685" lon="-16.512333333333334">
        <ele>1613</ele>
        <time>2024-03-30T13:18:23.000Z</time>
      </trkpt>
      <trkpt lat="28.206766666666667" lon="-16.51245">
        <ele>1610</ele>
        <time>2024-03-30T13:18:24.000Z</time>
      </trkpt>
      <trkpt lat="28.206666666666667" lon="-16.51255">
        <ele>1609</ele>
        <time>2024-03-30T13:18:25.000Z</time>
      </trkpt>
      <trkpt lat="28.206566666666667" lon="-16.512633333333333">
        <ele>1609</ele>
        <time>2024-03-30T13:18:26.000Z</time>
      </trkpt>
      <trkpt lat="28.206466666666667" lon="-16.51268333333333">
        <ele>1609</ele>
        <time>2024-03-30T13:18:27.000Z</time>
      </trkpt>
      <trkpt lat="28.206383333333335" lon="-16.512733333333333">
        <ele>1607</ele>
        <time>2024-03-30T13:18:28.000Z</time>
      </trkpt>
      <trkpt lat="28.2063" lon="-16.512833333333333">
        <ele>1603</ele>
        <time>2024-03-30T13:18:29.000Z</time>
      </trkpt>
      <trkpt lat="28.206233333333333" lon="-16.512966666666667">
        <ele>1601</ele>
        <time>2024-03-30T13:18:30.000Z</time>
      </trkpt>
      <trkpt lat="28.20615" lon="-16.5131">
        <ele>1599</ele>
        <time>2024-03-30T13:18:31.000Z</time>
      </trkpt>
      <trkpt lat="28.206083333333332" lon="-16.5132">
        <ele>1600</ele>
        <time>2024-03-30T13:18:32.000Z</time>
      </trkpt>
      <trkpt lat="28.206016666666667" lon="-16.513283333333334">
        <ele>1601</ele>
        <time>2024-03-30T13:18:33.000Z</time>
      </trkpt>
      <trkpt lat="28.20595" lon="-16.513366666666666">
        <ele>1600</ele>
        <time>2024-03-30T13:18:34.000Z</time>
      </trkpt>
      <trkpt lat="28.205883333333333" lon="-16.51345">
        <ele>1598</ele>
        <time>2024-03-30T13:18:35.000Z</time>
      </trkpt>
      <trkpt lat="28.205816666666667" lon="-16.513566666666666">
        <ele>1597</ele>
        <time>2024-03-30T13:18:36.000Z</time>
      </trkpt>
      <trkpt lat="28.205733333333335" lon="-16.513683333333333">
        <ele>1596</ele>
        <time>2024-03-30T13:18:37.000Z</time>
      </trkpt>
      <trkpt lat="28.20565" lon="-16.5138">
        <ele>1595</ele>
        <time>2024-03-30T13:18:38.000Z</time>
      </trkpt>
      <trkpt lat="28.205566666666666" lon="-16.513916666666667">
        <ele>1596</ele>
        <time>2024-03-30T13:18:39.000Z</time>
      </trkpt>
      <trkpt lat="28.2055" lon="-16.514016666666667">
        <ele>1596</ele>
        <time>2024-03-30T13:18:40.000Z</time>
      </trkpt>
      <trkpt lat="28.205433333333332" lon="-16.5141">
        <ele>1596</ele>
        <time>2024-03-30T13:18:41.000Z</time>
      </trkpt>
      <trkpt lat="28.205366666666666" lon="-16.5142">
        <ele>1595</ele>
        <time>2024-03-30T13:18:42.000Z</time>
      </trkpt>
      <trkpt lat="28.2053" lon="-16.514316666666666">
        <ele>1594</ele>
        <time>2024-03-30T13:18:43.000Z</time>
      </trkpt>
      <trkpt lat="28.205233333333332" lon="-16.514433333333333">
        <ele>1593</ele>
        <time>2024-03-30T13:18:44.000Z</time>
      </trkpt>
      <trkpt lat="28.205166666666667" lon="-16.51455">
        <ele>1592</ele>
        <time>2024-03-30T13:18:45.000Z</time>
      </trkpt>
      <trkpt lat="28.205066666666667" lon="-16.514633333333332">
        <ele>1593</ele>
        <time>2024-03-30T13:18:46.000Z</time>
      </trkpt>
      <trkpt lat="28.204983333333335" lon="-16.5147">
        <ele>1595</ele>
        <time>2024-03-30T13:18:47.000Z</time>
      </trkpt>
      <trkpt lat="28.2049" lon="-16.514766666666667">
        <ele>1596</ele>
        <time>2024-03-30T13:18:48.000Z</time>
      </trkpt>
      <trkpt lat="28.20485" lon="-16.51485">
        <ele>1597</ele>
        <time>2024-03-30T13:18:49.000Z</time>
      </trkpt>
      <trkpt lat="28.2048" lon="-16.514916666666668">
        <ele>1596</ele>
        <time>2024-03-30T13:18:50.000Z</time>
      </trkpt>
      <trkpt lat="28.20475" lon="-16.515">
        <ele>1594</ele>
        <time>2024-03-30T13:18:51.000Z</time>
      </trkpt>
      <trkpt lat="28.20468333333333" lon="-16.5151">
        <ele>1592</ele>
        <time>2024-03-30T13:18:52.000Z</time>
      </trkpt>
      <trkpt lat="28.2046" lon="-16.515183333333333">
        <ele>1592</ele>
        <time>2024-03-30T13:18:53.000Z</time>
      </trkpt>
      <trkpt lat="28.204516666666667" lon="-16.515283333333333">
        <ele>1592</ele>
        <time>2024-03-30T13:18:54.000Z</time>
      </trkpt>
      <trkpt lat="28.204433333333334" lon="-16.515366666666665">
        <ele>1592</ele>
        <time>2024-03-30T13:18:55.000Z</time>
      </trkpt>
      <trkpt lat="28.204383333333332" lon="-16.515466666666665">
        <ele>1591</ele>
        <time>2024-03-30T13:18:56.000Z</time>
      </trkpt>
      <trkpt lat="28.204333333333334" lon="-16.51556666666667">
        <ele>1591</ele>
        <time>2024-03-30T13:18:57.000Z</time>
      </trkpt>
      <trkpt lat="28.204266666666665" lon="-16.51565">
        <ele>1590</ele>
        <time>2024-03-30T13:18:58.000Z</time>
      </trkpt>
      <trkpt lat="28.2042" lon="-16.51575">
        <ele>1589</ele>
        <time>2024-03-30T13:18:59.000Z</time>
      </trkpt>
      <trkpt lat="28.204116666666668" lon="-16.51585">
        <ele>1589</ele>
        <time>2024-03-30T13:19:00.000Z</time>
      </trkpt>
      <trkpt lat="28.204016666666668" lon="-16.51595">
        <ele>1589</ele>
        <time>2024-03-30T13:19:01.000Z</time>
      </trkpt>
      <trkpt lat="28.20393333333333" lon="-16.51605">
        <ele>1590</ele>
        <time>2024-03-30T13:19:02.000Z</time>
      </trkpt>
      <trkpt lat="28.203866666666666" lon="-16.51615">
        <ele>1590</ele>
        <time>2024-03-30T13:19:03.000Z</time>
      </trkpt>
      <trkpt lat="28.20381666666667" lon="-16.516266666666667">
        <ele>1590</ele>
        <time>2024-03-30T13:19:04.000Z</time>
      </trkpt>
      <trkpt lat="28.20375" lon="-16.516366666666666">
        <ele>1590</ele>
        <time>2024-03-30T13:19:05.000Z</time>
      </trkpt>
      <trkpt lat="28.203666666666667" lon="-16.516466666666666">
        <ele>1590</ele>
        <time>2024-03-30T13:19:06.000Z</time>
      </trkpt>
      <trkpt lat="28.203566666666667" lon="-16.51655">
        <ele>1591</ele>
        <time>2024-03-30T13:19:07.000Z</time>
      </trkpt>
      <trkpt lat="28.203483333333335" lon="-16.516616666666668">
        <ele>1593</ele>
        <time>2024-03-30T13:19:08.000Z</time>
      </trkpt>
      <trkpt lat="28.203416666666666" lon="-16.516683333333333">
        <ele>1593</ele>
        <time>2024-03-30T13:19:09.000Z</time>
      </trkpt>
      <trkpt lat="28.20335" lon="-16.516766666666665">
        <ele>1592</ele>
        <time>2024-03-30T13:19:10.000Z</time>
      </trkpt>
      <trkpt lat="28.203283333333335" lon="-16.516833333333334">
        <ele>1589</ele>
        <time>2024-03-30T13:19:11.000Z</time>
      </trkpt>
      <trkpt lat="28.2032" lon="-16.516916666666667">
        <ele>1584</ele>
        <time>2024-03-30T13:19:12.000Z</time>
      </trkpt>
      <trkpt lat="28.203083333333332" lon="-16.517016666666667">
        <ele>1582</ele>
        <time>2024-03-30T13:19:13.000Z</time>
      </trkpt>
      <trkpt lat="28.202966666666665" lon="-16.51715">
        <ele>1584</ele>
        <time>2024-03-30T13:19:14.000Z</time>
      </trkpt>
      <trkpt lat="28.202883333333332" lon="-16.517266666666668">
        <ele>1588</ele>
        <time>2024-03-30T13:19:15.000Z</time>
      </trkpt>
      <trkpt lat="28.202833333333334" lon="-16.517383333333335">
        <ele>1593</ele>
        <time>2024-03-30T13:19:16.000Z</time>
      </trkpt>
      <trkpt lat="28.202783333333333" lon="-16.517483333333335">
        <ele>1596</ele>
        <time>2024-03-30T13:19:17.000Z</time>
      </trkpt>
      <trkpt lat="28.202733333333335" lon="-16.517566666666667">
        <ele>1596</ele>
        <time>2024-03-30T13:19:18.000Z</time>
      </trkpt>
      <trkpt lat="28.20265" lon="-16.517633333333333">
        <ele>1594</ele>
        <time>2024-03-30T13:19:19.000Z</time>
      </trkpt>
      <trkpt lat="28.202566666666666" lon="-16.517733333333332">
        <ele>1590</ele>
        <time>2024-03-30T13:19:20.000Z</time>
      </trkpt>
      <trkpt lat="28.20245" lon="-16.517833333333332">
        <ele>1588</ele>
        <time>2024-03-30T13:19:21.000Z</time>
      </trkpt>
      <trkpt lat="28.20235" lon="-16.51795">
        <ele>1586</ele>
        <time>2024-03-30T13:19:22.000Z</time>
      </trkpt>
      <trkpt lat="28.20225" lon="-16.518083333333333">
        <ele>1587</ele>
        <time>2024-03-30T13:19:23.000Z</time>
      </trkpt>
      <trkpt lat="28.202183333333334" lon="-16.518216666666667">
        <ele>1589</ele>
        <time>2024-03-30T13:19:24.000Z</time>
      </trkpt>
      <trkpt lat="28.20215" lon="-16.51835">
        <ele>1591</ele>
        <time>2024-03-30T13:19:25.000Z</time>
      </trkpt>
      <trkpt lat="28.202116666666665" lon="-16.518466666666665">
        <ele>1592</ele>
        <time>2024-03-30T13:19:26.000Z</time>
      </trkpt>
      <trkpt lat="28.202066666666667" lon="-16.518583333333332">
        <ele>1591</ele>
        <time>2024-03-30T13:19:27.000Z</time>
      </trkpt>
      <trkpt lat="28.202" lon="-16.518716666666666">
        <ele>1590</ele>
        <time>2024-03-30T13:19:28.000Z</time>
      </trkpt>
      <trkpt lat="28.201933333333333" lon="-16.518833333333333">
        <ele>1590</ele>
        <time>2024-03-30T13:19:29.000Z</time>
      </trkpt>
      <trkpt lat="28.20185" lon="-16.518983333333335">
        <ele>1590</ele>
        <time>2024-03-30T13:19:30.000Z</time>
      </trkpt>
      <trkpt lat="28.201783333333335" lon="-16.519116666666665">
        <ele>1590</ele>
        <time>2024-03-30T13:19:31.000Z</time>
      </trkpt>
      <trkpt lat="28.2017" lon="-16.519233333333332">
        <ele>1591</ele>
        <time>2024-03-30T13:19:32.000Z</time>
      </trkpt>
      <trkpt lat="28.201633333333334" lon="-16.51935">
        <ele>1590</ele>
        <time>2024-03-30T13:19:33.000Z</time>
      </trkpt>
      <trkpt lat="28.20156666666667" lon="-16.519466666666666">
        <ele>1588</ele>
        <time>2024-03-30T13:19:34.000Z</time>
      </trkpt>
      <trkpt lat="28.201483333333332" lon="-16.519583333333333">
        <ele>1585</ele>
        <time>2024-03-30T13:19:35.000Z</time>
      </trkpt>
      <trkpt lat="28.201416666666667" lon="-16.519716666666667">
        <ele>1582</ele>
        <time>2024-03-30T13:19:36.000Z</time>
      </trkpt>
      <trkpt lat="28.201333333333334" lon="-16.519866666666665">
        <ele>1581</ele>
        <time>2024-03-30T13:19:37.000Z</time>
      </trkpt>
      <trkpt lat="28.201266666666665" lon="-16.52">
        <ele>1581</ele>
        <time>2024-03-30T13:19:38.000Z</time>
      </trkpt>
      <trkpt lat="28.2012" lon="-16.520116666666667">
        <ele>1581</ele>
        <time>2024-03-30T13:19:39.000Z</time>
      </trkpt>
      <trkpt lat="28.20115" lon="-16.520216666666666">
        <ele>1580</ele>
        <time>2024-03-30T13:19:40.000Z</time>
      </trkpt>
      <trkpt lat="28.201083333333333" lon="-16.520316666666666">
        <ele>1577</ele>
        <time>2024-03-30T13:19:41.000Z</time>
      </trkpt>
      <trkpt lat="28.201016666666668" lon="-16.520433333333333">
        <ele>1573</ele>
        <time>2024-03-30T13:19:42.000Z</time>
      </trkpt>
      <trkpt lat="28.200966666666666" lon="-16.520566666666667">
        <ele>1569</ele>
        <time>2024-03-30T13:19:43.000Z</time>
      </trkpt>
      <trkpt lat="28.200916666666668" lon="-16.520733333333332">
        <ele>1567</ele>
        <time>2024-03-30T13:19:44.000Z</time>
      </trkpt>
      <trkpt lat="28.200866666666666" lon="-16.520883333333334">
        <ele>1567</ele>
        <time>2024-03-30T13:19:45.000Z</time>
      </trkpt>
      <trkpt lat="28.2008" lon="-16.521">
        <ele>1567</ele>
        <time>2024-03-30T13:19:46.000Z</time>
      </trkpt>
      <trkpt lat="28.200716666666665" lon="-16.521116666666668">
        <ele>1566</ele>
        <time>2024-03-30T13:19:47.000Z</time>
      </trkpt>
      <trkpt lat="28.200633333333332" lon="-16.521216666666668">
        <ele>1565</ele>
        <time>2024-03-30T13:19:48.000Z</time>
      </trkpt>
      <trkpt lat="28.200566666666667" lon="-16.521333333333335">
        <ele>1563</ele>
        <time>2024-03-30T13:19:49.000Z</time>
      </trkpt>
      <trkpt lat="28.200516666666665" lon="-16.52145">
        <ele>1561</ele>
        <time>2024-03-30T13:19:50.000Z</time>
      </trkpt>
      <trkpt lat="28.20045" lon="-16.521583333333332">
        <ele>1558</ele>
        <time>2024-03-30T13:19:51.000Z</time>
      </trkpt>
      <trkpt lat="28.200366666666667" lon="-16.521716666666666">
        <ele>1556</ele>
        <time>2024-03-30T13:19:52.000Z</time>
      </trkpt>
      <trkpt lat="28.2003" lon="-16.52185">
        <ele>1555</ele>
        <time>2024-03-30T13:19:53.000Z</time>
      </trkpt>
      <trkpt lat="28.200216666666666" lon="-16.521983333333335">
        <ele>1554</ele>
        <time>2024-03-30T13:19:54.000Z</time>
      </trkpt>
      <trkpt lat="28.20015" lon="-16.522100000000002">
        <ele>1554</ele>
        <time>2024-03-30T13:19:55.000Z</time>
      </trkpt>
      <trkpt lat="28.200083333333332" lon="-16.522216666666665">
        <ele>1552</ele>
        <time>2024-03-30T13:19:56.000Z</time>
      </trkpt>
      <trkpt lat="28.200016666666667" lon="-16.522333333333332">
        <ele>1549</ele>
        <time>2024-03-30T13:19:57.000Z</time>
      </trkpt>
      <trkpt lat="28.19995" lon="-16.52245">
        <ele>1546</ele>
        <time>2024-03-30T13:19:58.000Z</time>
      </trkpt>
      <trkpt lat="28.199866666666665" lon="-16.522583333333333">
        <ele>1543</ele>
        <time>2024-03-30T13:19:59.000Z</time>
      </trkpt>
      <trkpt lat="28.1998" lon="-16.522733333333335">
        <ele>1541</ele>
        <time>2024-03-30T13:20:00.000Z</time>
      </trkpt>
      <trkpt lat="28.1997" lon="-16.52285">
        <ele>1540</ele>
        <time>2024-03-30T13:20:01.000Z</time>
      </trkpt>
      <trkpt lat="28.1996" lon="-16.522966666666665">
        <ele>1539</ele>
        <time>2024-03-30T13:20:02.000Z</time>
      </trkpt>
      <trkpt lat="28.199483333333333" lon="-16.523066666666665">
        <ele>1538</ele>
        <time>2024-03-30T13:20:03.000Z</time>
      </trkpt>
      <trkpt lat="28.199383333333333" lon="-16.523183333333332">
        <ele>1538</ele>
        <time>2024-03-30T13:20:04.000Z</time>
      </trkpt>
      <trkpt lat="28.1993" lon="-16.52328333333333">
        <ele>1536</ele>
        <time>2024-03-30T13:20:05.000Z</time>
      </trkpt>
      <trkpt lat="28.19921666666667" lon="-16.5234">
        <ele>1534</ele>
        <time>2024-03-30T13:20:06.000Z</time>
      </trkpt>
      <trkpt lat="28.19915" lon="-16.523533333333333">
        <ele>1533</ele>
        <time>2024-03-30T13:20:07.000Z</time>
      </trkpt>
      <trkpt lat="28.19905" lon="-16.523666666666667">
        <ele>1532</ele>
        <time>2024-03-30T13:20:08.000Z</time>
      </trkpt>
      <trkpt lat="28.198966666666667" lon="-16.523783333333334">
        <ele>1533</ele>
        <time>2024-03-30T13:20:09.000Z</time>
      </trkpt>
      <trkpt lat="28.198883333333335" lon="-16.5239">
        <ele>1533</ele>
        <time>2024-03-30T13:20:10.000Z</time>
      </trkpt>
      <trkpt lat="28.1988" lon="-16.524016666666668">
        <ele>1533</ele>
        <time>2024-03-30T13:20:11.000Z</time>
      </trkpt>
      <trkpt lat="28.198733333333333" lon="-16.524116666666668">
        <ele>1533</ele>
        <time>2024-03-30T13:20:12.000Z</time>
      </trkpt>
      <trkpt lat="28.198666666666668" lon="-16.524233333333335">
        <ele>1532</ele>
        <time>2024-03-30T13:20:13.000Z</time>
      </trkpt>
      <trkpt lat="28.198566666666668" lon="-16.52435">
        <ele>1529</ele>
        <time>2024-03-30T13:20:14.000Z</time>
      </trkpt>
      <trkpt lat="28.198483333333332" lon="-16.52445">
        <ele>1527</ele>
        <time>2024-03-30T13:20:15.000Z</time>
      </trkpt>
      <trkpt lat="28.198383333333332" lon="-16.524566666666665">
        <ele>1525</ele>
        <time>2024-03-30T13:20:16.000Z</time>
      </trkpt>
      <trkpt lat="28.198316666666667" lon="-16.524683333333332">
        <ele>1524</ele>
        <time>2024-03-30T13:20:17.000Z</time>
      </trkpt>
      <trkpt lat="28.198233333333334" lon="-16.524783333333332">
        <ele>1523</ele>
        <time>2024-03-30T13:20:18.000Z</time>
      </trkpt>
      <trkpt lat="28.19815" lon="-16.52488333333333">
        <ele>1521</ele>
        <time>2024-03-30T13:20:19.000Z</time>
      </trkpt>
      <trkpt lat="28.198066666666666" lon="-16.524983333333335">
        <ele>1519</ele>
        <time>2024-03-30T13:20:20.000Z</time>
      </trkpt>
      <trkpt lat="28.197983333333333" lon="-16.525083333333335">
        <ele>1515</ele>
        <time>2024-03-30T13:20:21.000Z</time>
      </trkpt>
      <trkpt lat="28.197916666666668" lon="-16.525216666666665">
        <ele>1511</ele>
        <time>2024-03-30T13:20:22.000Z</time>
      </trkpt>
      <trkpt lat="28.197866666666666" lon="-16.52535">
        <ele>1509</ele>
        <time>2024-03-30T13:20:23.000Z</time>
      </trkpt>
      <trkpt lat="28.197816666666668" lon="-16.525483333333334">
        <ele>1509</ele>
        <time>2024-03-30T13:20:24.000Z</time>
      </trkpt>
      <trkpt lat="28.19775" lon="-16.525583333333334">
        <ele>1510</ele>
        <time>2024-03-30T13:20:25.000Z</time>
      </trkpt>
      <trkpt lat="28.197683333333334" lon="-16.525666666666666">
        <ele>1509</ele>
        <time>2024-03-30T13:20:26.000Z</time>
      </trkpt>
      <trkpt lat="28.197633333333332" lon="-16.52575">
        <ele>1507</ele>
        <time>2024-03-30T13:20:27.000Z</time>
      </trkpt>
      <trkpt lat="28.197583333333334" lon="-16.52585">
        <ele>1503</ele>
        <time>2024-03-30T13:20:28.000Z</time>
      </trkpt>
      <trkpt lat="28.197533333333332" lon="-16.525966666666665">
        <ele>1499</ele>
        <time>2024-03-30T13:20:29.000Z</time>
      </trkpt>
      <trkpt lat="28.197466666666667" lon="-16.5261">
        <ele>1496</ele>
        <time>2024-03-30T13:20:30.000Z</time>
      </trkpt>
      <trkpt lat="28.1974" lon="-16.526233333333334">
        <ele>1496</ele>
        <time>2024-03-30T13:20:31.000Z</time>
      </trkpt>
      <trkpt lat="28.197316666666666" lon="-16.526333333333334">
        <ele>1496</ele>
        <time>2024-03-30T13:20:32.000Z</time>
      </trkpt>
      <trkpt lat="28.19725" lon="-16.52645">
        <ele>1496</ele>
        <time>2024-03-30T13:20:33.000Z</time>
      </trkpt>
      <trkpt lat="28.197183333333335" lon="-16.52655">
        <ele>1495</ele>
        <time>2024-03-30T13:20:34.000Z</time>
      </trkpt>
      <trkpt lat="28.197133333333333" lon="-16.52665">
        <ele>1493</ele>
        <time>2024-03-30T13:20:35.000Z</time>
      </trkpt>
      <trkpt lat="28.197066666666668" lon="-16.52675">
        <ele>1490</ele>
        <time>2024-03-30T13:20:36.000Z</time>
      </trkpt>
      <trkpt lat="28.196983333333332" lon="-16.526866666666667">
        <ele>1487</ele>
        <time>2024-03-30T13:20:37.000Z</time>
      </trkpt>
      <trkpt lat="28.196883333333332" lon="-16.526966666666667">
        <ele>1485</ele>
        <time>2024-03-30T13:20:38.000Z</time>
      </trkpt>
      <trkpt lat="28.1968" lon="-16.527083333333334">
        <ele>1486</ele>
        <time>2024-03-30T13:20:39.000Z</time>
      </trkpt>
      <trkpt lat="28.196716666666667" lon="-16.527183333333333">
        <ele>1486</ele>
        <time>2024-03-30T13:20:40.000Z</time>
      </trkpt>
      <trkpt lat="28.196666666666665" lon="-16.527266666666666">
        <ele>1487</ele>
        <time>2024-03-30T13:20:41.000Z</time>
      </trkpt>
      <trkpt lat="28.1966" lon="-16.52735">
        <ele>1486</ele>
        <time>2024-03-30T13:20:42.000Z</time>
      </trkpt>
      <trkpt lat="28.196533333333335" lon="-16.527416666666667">
        <ele>1485</ele>
        <time>2024-03-30T13:20:43.000Z</time>
      </trkpt>
      <trkpt lat="28.19645" lon="-16.5275">
        <ele>1482</ele>
        <time>2024-03-30T13:20:44.000Z</time>
      </trkpt>
      <trkpt lat="28.196366666666666" lon="-16.527583333333332">
        <ele>1480</ele>
        <time>2024-03-30T13:20:45.000Z</time>
      </trkpt>
      <trkpt lat="28.196283333333334" lon="-16.5277">
        <ele>1479</ele>
        <time>2024-03-30T13:20:46.000Z</time>
      </trkpt>
      <trkpt lat="28.19621666666667" lon="-16.5278">
        <ele>1482</ele>
        <time>2024-03-30T13:20:47.000Z</time>
      </trkpt>
      <trkpt lat="28.19615" lon="-16.527866666666668">
        <ele>1485</ele>
        <time>2024-03-30T13:20:48.000Z</time>
      </trkpt>
      <trkpt lat="28.1961" lon="-16.527933333333333">
        <ele>1486</ele>
        <time>2024-03-30T13:20:49.000Z</time>
      </trkpt>
      <trkpt lat="28.196033333333332" lon="-16.527983333333335">
        <ele>1486</ele>
        <time>2024-03-30T13:20:50.000Z</time>
      </trkpt>
      <trkpt lat="28.195983333333334" lon="-16.52805">
        <ele>1485</ele>
        <time>2024-03-30T13:20:51.000Z</time>
      </trkpt>
      <trkpt lat="28.195916666666665" lon="-16.528116666666666">
        <ele>1483</ele>
        <time>2024-03-30T13:20:52.000Z</time>
      </trkpt>
      <trkpt lat="28.195866666666667" lon="-16.5282">
        <ele>1483</ele>
        <time>2024-03-30T13:20:53.000Z</time>
      </trkpt>
      <trkpt lat="28.195816666666666" lon="-16.528283333333334">
        <ele>1483</ele>
        <time>2024-03-30T13:20:54.000Z</time>
      </trkpt>
      <trkpt lat="28.19575" lon="-16.528366666666667">
        <ele>1483</ele>
        <time>2024-03-30T13:20:55.000Z</time>
      </trkpt>
      <trkpt lat="28.195683333333335" lon="-16.52845">
        <ele>1482</ele>
        <time>2024-03-30T13:20:56.000Z</time>
      </trkpt>
      <trkpt lat="28.195616666666666" lon="-16.52851666666667">
        <ele>1483</ele>
        <time>2024-03-30T13:20:57.000Z</time>
      </trkpt>
      <trkpt lat="28.19555" lon="-16.5286">
        <ele>1482</ele>
        <time>2024-03-30T13:20:58.000Z</time>
      </trkpt>
      <trkpt lat="28.195483333333332" lon="-16.5287">
        <ele>1481</ele>
        <time>2024-03-30T13:20:59.000Z</time>
      </trkpt>
      <trkpt lat="28.195416666666667" lon="-16.5288">
        <ele>1479</ele>
        <time>2024-03-30T13:21:00.000Z</time>
      </trkpt>
      <trkpt lat="28.19535" lon="-16.528916666666667">
        <ele>1479</ele>
        <time>2024-03-30T13:21:01.000Z</time>
      </trkpt>
      <trkpt lat="28.195283333333332" lon="-16.529016666666667">
        <ele>1479</ele>
        <time>2024-03-30T13:21:02.000Z</time>
      </trkpt>
      <trkpt lat="28.195216666666667" lon="-16.529133333333334">
        <ele>1480</ele>
        <time>2024-03-30T13:21:03.000Z</time>
      </trkpt>
      <trkpt lat="28.19515" lon="-16.5292">
        <ele>1479</ele>
        <time>2024-03-30T13:21:04.000Z</time>
      </trkpt>
      <trkpt lat="28.195066666666666" lon="-16.52926666666667">
        <ele>1477</ele>
        <time>2024-03-30T13:21:05.000Z</time>
      </trkpt>
      <trkpt lat="28.194966666666666" lon="-16.529333333333334">
        <ele>1474</ele>
        <time>2024-03-30T13:21:06.000Z</time>
      </trkpt>
      <trkpt lat="28.194883333333333" lon="-16.52945">
        <ele>1471</ele>
        <time>2024-03-30T13:21:07.000Z</time>
      </trkpt>
      <trkpt lat="28.194816666666668" lon="-16.529583333333335">
        <ele>1469</ele>
        <time>2024-03-30T13:21:08.000Z</time>
      </trkpt>
      <trkpt lat="28.19475" lon="-16.529683333333335">
        <ele>1470</ele>
        <time>2024-03-30T13:21:09.000Z</time>
      </trkpt>
      <trkpt lat="28.194666666666667" lon="-16.529783333333334">
        <ele>1472</ele>
        <time>2024-03-30T13:21:10.000Z</time>
      </trkpt>
      <trkpt lat="28.1946" lon="-16.529866666666667">
        <ele>1473</ele>
        <time>2024-03-30T13:21:11.000Z</time>
      </trkpt>
      <trkpt lat="28.194533333333332" lon="-16.529966666666667">
        <ele>1473</ele>
        <time>2024-03-30T13:21:12.000Z</time>
      </trkpt>
      <trkpt lat="28.194466666666667" lon="-16.530083333333334">
        <ele>1473</ele>
        <time>2024-03-30T13:21:13.000Z</time>
      </trkpt>
      <trkpt lat="28.194433333333333" lon="-16.530216666666668">
        <ele>1474</ele>
        <time>2024-03-30T13:21:14.000Z</time>
      </trkpt>
      <trkpt lat="28.194383333333334" lon="-16.530316666666668">
        <ele>1476</ele>
        <time>2024-03-30T13:21:15.000Z</time>
      </trkpt>
      <trkpt lat="28.194333333333333" lon="-16.530416666666667">
        <ele>1477</ele>
        <time>2024-03-30T13:21:16.000Z</time>
      </trkpt>
      <trkpt lat="28.194266666666667" lon="-16.5305">
        <ele>1478</ele>
        <time>2024-03-30T13:21:17.000Z</time>
      </trkpt>
      <trkpt lat="28.194216666666666" lon="-16.530583333333333">
        <ele>1480</ele>
        <time>2024-03-30T13:21:18.000Z</time>
      </trkpt>
      <trkpt lat="28.19415" lon="-16.530666666666665">
        <ele>1483</ele>
        <time>2024-03-30T13:21:19.000Z</time>
      </trkpt>
      <trkpt lat="28.19408333333333" lon="-16.5307">
        <ele>1484</ele>
        <time>2024-03-30T13:21:20.000Z</time>
      </trkpt>
      <trkpt lat="28.193983333333332" lon="-16.5307">
        <ele>1484</ele>
        <time>2024-03-30T13:21:21.000Z</time>
      </trkpt>
      <trkpt lat="28.1939" lon="-16.53065">
        <ele>1484</ele>
        <time>2024-03-30T13:21:22.000Z</time>
      </trkpt>
      <trkpt lat="28.19385" lon="-16.530566666666665">
        <ele>1486</ele>
        <time>2024-03-30T13:21:23.000Z</time>
      </trkpt>
      <trkpt lat="28.193833333333334" lon="-16.530466666666666">
        <ele>1488</ele>
        <time>2024-03-30T13:21:24.000Z</time>
      </trkpt>
      <trkpt lat="28.193883333333332" lon="-16.5304">
        <ele>1489</ele>
        <time>2024-03-30T13:21:25.000Z</time>
      </trkpt>
      <trkpt lat="28.193966666666668" lon="-16.530366666666666">
        <ele>1489</ele>
        <time>2024-03-30T13:21:26.000Z</time>
      </trkpt>
      <trkpt lat="28.194066666666668" lon="-16.5304">
        <ele>1489</ele>
        <time>2024-03-30T13:21:27.000Z</time>
      </trkpt>
      <trkpt lat="28.19415" lon="-16.530466666666666">
        <ele>1490</ele>
        <time>2024-03-30T13:21:28.000Z</time>
      </trkpt>
      <trkpt lat="28.194216666666666" lon="-16.53055">
        <ele>1492</ele>
        <time>2024-03-30T13:21:29.000Z</time>
      </trkpt>
      <trkpt lat="28.194266666666667" lon="-16.530616666666667">
        <ele>1495</ele>
        <time>2024-03-30T13:21:30.000Z</time>
      </trkpt>
      <trkpt lat="28.1943" lon="-16.530683333333332">
        <ele>1497</ele>
        <time>2024-03-30T13:21:31.000Z</time>
      </trkpt>
      <trkpt lat="28.194316666666666" lon="-16.53076666666667">
        <ele>1498</ele>
        <time>2024-03-30T13:21:32.000Z</time>
      </trkpt>
      <trkpt lat="28.194333333333333" lon="-16.53085">
        <ele>1497</ele>
        <time>2024-03-30T13:21:33.000Z</time>
      </trkpt>
      <trkpt lat="28.194316666666666" lon="-16.530966666666668">
        <ele>1497</ele>
        <time>2024-03-30T13:21:34.000Z</time>
      </trkpt>
      <trkpt lat="28.194266666666667" lon="-16.531083333333335">
        <ele>1498</ele>
        <time>2024-03-30T13:21:35.000Z</time>
      </trkpt>
      <trkpt lat="28.194183333333335" lon="-16.531166666666667">
        <ele>1499</ele>
        <time>2024-03-30T13:21:36.000Z</time>
      </trkpt>
      <trkpt lat="28.1941" lon="-16.5312">
        <ele>1500</ele>
        <time>2024-03-30T13:21:37.000Z</time>
      </trkpt>
      <trkpt lat="28.194" lon="-16.531216666666666">
        <ele>1500</ele>
        <time>2024-03-30T13:21:38.000Z</time>
      </trkpt>
      <trkpt lat="28.193883333333332" lon="-16.531183333333335">
        <ele>1500</ele>
        <time>2024-03-30T13:21:39.000Z</time>
      </trkpt>
      <trkpt lat="28.1938" lon="-16.53115">
        <ele>1502</ele>
        <time>2024-03-30T13:21:40.000Z</time>
      </trkpt>
      <trkpt lat="28.193733333333334" lon="-16.531083333333335">
        <ele>1504</ele>
        <time>2024-03-30T13:21:41.000Z</time>
      </trkpt>
      <trkpt lat="28.1937" lon="-16.53098333333333">
        <ele>1506</ele>
        <time>2024-03-30T13:21:42.000Z</time>
      </trkpt>
      <trkpt lat="28.193716666666667" lon="-16.530883333333332">
        <ele>1506</ele>
        <time>2024-03-30T13:21:43.000Z</time>
      </trkpt>
      <trkpt lat="28.193766666666665" lon="-16.530816666666666">
        <ele>1506</ele>
        <time>2024-03-30T13:21:44.000Z</time>
      </trkpt>
      <trkpt lat="28.19385" lon="-16.53076666666667">
        <ele>1505</ele>
        <time>2024-03-30T13:21:45.000Z</time>
      </trkpt>
      <trkpt lat="28.193933333333334" lon="-16.53076666666667">
        <ele>1506</ele>
        <time>2024-03-30T13:21:46.000Z</time>
      </trkpt>
      <trkpt lat="28.194" lon="-16.530783333333332">
        <ele>1506</ele>
        <time>2024-03-30T13:21:47.000Z</time>
      </trkpt>
      <trkpt lat="28.19408333333333" lon="-16.530816666666666">
        <ele>1507</ele>
        <time>2024-03-30T13:21:48.000Z</time>
      </trkpt>
      <trkpt lat="28.19415" lon="-16.530866666666668">
        <ele>1507</ele>
        <time>2024-03-30T13:21:49.000Z</time>
      </trkpt>
      <trkpt lat="28.1942" lon="-16.53095">
        <ele>1507</ele>
        <time>2024-03-30T13:21:50.000Z</time>
      </trkpt>
      <trkpt lat="28.194216666666666" lon="-16.53105">
        <ele>1508</ele>
        <time>2024-03-30T13:21:51.000Z</time>
      </trkpt>
      <trkpt lat="28.1942" lon="-16.53115">
        <ele>1509</ele>
        <time>2024-03-30T13:21:52.000Z</time>
      </trkpt>
      <trkpt lat="28.19415" lon="-16.53125">
        <ele>1510</ele>
        <time>2024-03-30T13:21:53.000Z</time>
      </trkpt>
      <trkpt lat="28.19408333333333" lon="-16.531316666666665">
        <ele>1511</ele>
        <time>2024-03-30T13:21:54.000Z</time>
      </trkpt>
      <trkpt lat="28.194" lon="-16.531383333333334">
        <ele>1512</ele>
        <time>2024-03-30T13:21:55.000Z</time>
      </trkpt>
      <trkpt lat="28.193916666666667" lon="-16.531433333333332">
        <ele>1513</ele>
        <time>2024-03-30T13:21:56.000Z</time>
      </trkpt>
      <trkpt lat="28.193816666666667" lon="-16.53145">
        <ele>1513</ele>
        <time>2024-03-30T13:21:57.000Z</time>
      </trkpt>
      <trkpt lat="28.1937" lon="-16.53145">
        <ele>1514</ele>
        <time>2024-03-30T13:21:58.000Z</time>
      </trkpt>
      <trkpt lat="28.1936" lon="-16.531416666666665">
        <ele>1516</ele>
        <time>2024-03-30T13:21:59.000Z</time>
      </trkpt>
      <trkpt lat="28.193533333333335" lon="-16.531366666666667">
        <ele>1518</ele>
        <time>2024-03-30T13:22:00.000Z</time>
      </trkpt>
      <trkpt lat="28.193533333333335" lon="-16.531266666666667">
        <ele>1518</ele>
        <time>2024-03-30T13:22:01.000Z</time>
      </trkpt>
      <trkpt lat="28.193566666666666" lon="-16.531166666666667">
        <ele>1516</ele>
        <time>2024-03-30T13:22:02.000Z</time>
      </trkpt>
      <trkpt lat="28.193616666666667" lon="-16.531116666666666">
        <ele>1516</ele>
        <time>2024-03-30T13:22:03.000Z</time>
      </trkpt>
      <trkpt lat="28.1937" lon="-16.531066666666668">
        <ele>1516</ele>
        <time>2024-03-30T13:22:04.000Z</time>
      </trkpt>
      <trkpt lat="28.193783333333332" lon="-16.531066666666668">
        <ele>1517</ele>
        <time>2024-03-30T13:22:05.000Z</time>
      </trkpt>
      <trkpt lat="28.19385" lon="-16.531066666666668">
        <ele>1517</ele>
        <time>2024-03-30T13:22:06.000Z</time>
      </trkpt>
      <trkpt lat="28.193933333333334" lon="-16.531066666666668">
        <ele>1519</ele>
        <time>2024-03-30T13:22:07.000Z</time>
      </trkpt>
      <trkpt lat="28.194" lon="-16.531116666666666">
        <ele>1520</ele>
        <time>2024-03-30T13:22:08.000Z</time>
      </trkpt>
      <trkpt lat="28.19405" lon="-16.531183333333335">
        <ele>1520</ele>
        <time>2024-03-30T13:22:09.000Z</time>
      </trkpt>
      <trkpt lat="28.1941" lon="-16.53125">
        <ele>1521</ele>
        <time>2024-03-30T13:22:10.000Z</time>
      </trkpt>
      <trkpt lat="28.194133333333333" lon="-16.53135">
        <ele>1521</ele>
        <time>2024-03-30T13:22:11.000Z</time>
      </trkpt>
      <trkpt lat="28.194133333333333" lon="-16.53145">
        <ele>1522</ele>
        <time>2024-03-30T13:22:12.000Z</time>
      </trkpt>
      <trkpt lat="28.194116666666666" lon="-16.53155">
        <ele>1522</ele>
        <time>2024-03-30T13:22:13.000Z</time>
      </trkpt>
      <trkpt lat="28.19408333333333" lon="-16.531633333333332">
        <ele>1522</ele>
        <time>2024-03-30T13:22:14.000Z</time>
      </trkpt>
      <trkpt lat="28.19405" lon="-16.53173333333333">
        <ele>1522</ele>
        <time>2024-03-30T13:22:15.000Z</time>
      </trkpt>
      <trkpt lat="28.193983333333332" lon="-16.531816666666668">
        <ele>1522</ele>
        <time>2024-03-30T13:22:16.000Z</time>
      </trkpt>
      <trkpt lat="28.193933333333334" lon="-16.5319">
        <ele>1521</ele>
        <time>2024-03-30T13:22:17.000Z</time>
      </trkpt>
      <trkpt lat="28.1939" lon="-16.531983333333333">
        <ele>1520</ele>
        <time>2024-03-30T13:22:18.000Z</time>
      </trkpt>
      <trkpt lat="28.19385" lon="-16.532083333333333">
        <ele>1520</ele>
        <time>2024-03-30T13:22:19.000Z</time>
      </trkpt>
      <trkpt lat="28.193783333333332" lon="-16.532183333333332">
        <ele>1520</ele>
        <time>2024-03-30T13:22:20.000Z</time>
      </trkpt>
      <trkpt lat="28.1937" lon="-16.5323">
        <ele>1522</ele>
        <time>2024-03-30T13:22:21.000Z</time>
      </trkpt>
      <trkpt lat="28.193616666666667" lon="-16.532383333333332">
        <ele>1523</ele>
        <time>2024-03-30T13:22:22.000Z</time>
      </trkpt>
      <trkpt lat="28.19355" lon="-16.53245">
        <ele>1526</ele>
        <time>2024-03-30T13:22:23.000Z</time>
      </trkpt>
      <trkpt lat="28.193466666666666" lon="-16.53248333333333">
        <ele>1527</ele>
        <time>2024-03-30T13:22:24.000Z</time>
      </trkpt>
      <trkpt lat="28.19335" lon="-16.5325">
        <ele>1526</ele>
        <time>2024-03-30T13:22:25.000Z</time>
      </trkpt>
      <trkpt lat="28.193233333333332" lon="-16.532466666666668">
        <ele>1526</ele>
        <time>2024-03-30T13:22:26.000Z</time>
      </trkpt>
      <trkpt lat="28.19315" lon="-16.5324">
        <ele>1528</ele>
        <time>2024-03-30T13:22:27.000Z</time>
      </trkpt>
      <trkpt lat="28.1931" lon="-16.532316666666667">
        <ele>1530</ele>
        <time>2024-03-30T13:22:28.000Z</time>
      </trkpt>
      <trkpt lat="28.1931" lon="-16.532233333333334">
        <ele>1533</ele>
        <time>2024-03-30T13:22:29.000Z</time>
      </trkpt>
      <trkpt lat="28.193133333333332" lon="-16.532166666666665">
        <ele>1533</ele>
        <time>2024-03-30T13:22:30.000Z</time>
      </trkpt>
      <trkpt lat="28.1932" lon="-16.53215">
        <ele>1533</ele>
        <time>2024-03-30T13:22:31.000Z</time>
      </trkpt>
      <trkpt lat="28.193283333333333" lon="-16.5322">
        <ele>1532</ele>
        <time>2024-03-30T13:22:32.000Z</time>
      </trkpt>
      <trkpt lat="28.193366666666666" lon="-16.5323">
        <ele>1532</ele>
        <time>2024-03-30T13:22:33.000Z</time>
      </trkpt>
      <trkpt lat="28.1934" lon="-16.532416666666666">
        <ele>1533</ele>
        <time>2024-03-30T13:22:34.000Z</time>
      </trkpt>
      <trkpt lat="28.1934" lon="-16.532516666666666">
        <ele>1535</ele>
        <time>2024-03-30T13:22:35.000Z</time>
      </trkpt>
      <trkpt lat="28.193383333333333" lon="-16.532616666666666">
        <ele>1537</ele>
        <time>2024-03-30T13:22:36.000Z</time>
      </trkpt>
      <trkpt lat="28.19335" lon="-16.532733333333333">
        <ele>1538</ele>
        <time>2024-03-30T13:22:37.000Z</time>
      </trkpt>
      <trkpt lat="28.1933" lon="-16.532833333333333">
        <ele>1539</ele>
        <time>2024-03-30T13:22:38.000Z</time>
      </trkpt>
      <trkpt lat="28.193216666666668" lon="-16.532916666666665">
        <ele>1540</ele>
        <time>2024-03-30T13:22:39.000Z</time>
      </trkpt>
      <trkpt lat="28.19311666666667" lon="-16.532983333333334">
        <ele>1540</ele>
        <time>2024-03-30T13:22:40.000Z</time>
      </trkpt>
      <trkpt lat="28.193016666666665" lon="-16.533">
        <ele>1541</ele>
        <time>2024-03-30T13:22:41.000Z</time>
      </trkpt>
      <trkpt lat="28.1929" lon="-16.533">
        <ele>1542</ele>
        <time>2024-03-30T13:22:42.000Z</time>
      </trkpt>
      <trkpt lat="28.1928" lon="-16.532966666666667">
        <ele>1542</ele>
        <time>2024-03-30T13:22:43.000Z</time>
      </trkpt>
      <trkpt lat="28.192733333333333" lon="-16.532933333333332">
        <ele>1543</ele>
        <time>2024-03-30T13:22:44.000Z</time>
      </trkpt>
      <trkpt lat="28.1927" lon="-16.532866666666667">
        <ele>1544</ele>
        <time>2024-03-30T13:22:45.000Z</time>
      </trkpt>
      <trkpt lat="28.192683333333335" lon="-16.5328">
        <ele>1544</ele>
        <time>2024-03-30T13:22:46.000Z</time>
      </trkpt>
      <trkpt lat="28.192716666666666" lon="-16.532733333333333">
        <ele>1542</ele>
        <time>2024-03-30T13:22:47.000Z</time>
      </trkpt>
      <trkpt lat="28.192783333333335" lon="-16.532666666666668">
        <ele>1541</ele>
        <time>2024-03-30T13:22:48.000Z</time>
      </trkpt>
      <trkpt lat="28.192866666666667" lon="-16.532633333333333">
        <ele>1540</ele>
        <time>2024-03-30T13:22:49.000Z</time>
      </trkpt>
      <trkpt lat="28.19295" lon="-16.532633333333333">
        <ele>1540</ele>
        <time>2024-03-30T13:22:50.000Z</time>
      </trkpt>
      <trkpt lat="28.193016666666665" lon="-16.532683333333335">
        <ele>1539</ele>
        <time>2024-03-30T13:22:51.000Z</time>
      </trkpt>
      <trkpt lat="28.193083333333334" lon="-16.532766666666667">
        <ele>1539</ele>
        <time>2024-03-30T13:22:52.000Z</time>
      </trkpt>
      <trkpt lat="28.19311666666667" lon="-16.53285">
        <ele>1540</ele>
        <time>2024-03-30T13:22:53.000Z</time>
      </trkpt>
      <trkpt lat="28.19315" lon="-16.532966666666667">
        <ele>1541</ele>
        <time>2024-03-30T13:22:54.000Z</time>
      </trkpt>
      <trkpt lat="28.193166666666666" lon="-16.533066666666667">
        <ele>1541</ele>
        <time>2024-03-30T13:22:55.000Z</time>
      </trkpt>
      <trkpt lat="28.193166666666666" lon="-16.533166666666666">
        <ele>1541</ele>
        <time>2024-03-30T13:22:56.000Z</time>
      </trkpt>
      <trkpt lat="28.193166666666666" lon="-16.533266666666666">
        <ele>1541</ele>
        <time>2024-03-30T13:22:57.000Z</time>
      </trkpt>
      <trkpt lat="28.19315" lon="-16.533366666666666">
        <ele>1541</ele>
        <time>2024-03-30T13:22:58.000Z</time>
      </trkpt>
      <trkpt lat="28.19311666666667" lon="-16.533466666666666">
        <ele>1541</ele>
        <time>2024-03-30T13:22:59.000Z</time>
      </trkpt>
      <trkpt lat="28.193083333333334" lon="-16.533566666666665">
        <ele>1540</ele>
        <time>2024-03-30T13:23:00.000Z</time>
      </trkpt>
      <trkpt lat="28.19305" lon="-16.533683333333332">
        <ele>1540</ele>
        <time>2024-03-30T13:23:01.000Z</time>
      </trkpt>
      <trkpt lat="28.193016666666665" lon="-16.5338">
        <ele>1540</ele>
        <time>2024-03-30T13:23:02.000Z</time>
      </trkpt>
      <trkpt lat="28.192983333333334" lon="-16.533933333333334">
        <ele>1541</ele>
        <time>2024-03-30T13:23:03.000Z</time>
      </trkpt>
      <trkpt lat="28.19295" lon="-16.534033333333333">
        <ele>1542</ele>
        <time>2024-03-30T13:23:04.000Z</time>
      </trkpt>
      <trkpt lat="28.192883333333334" lon="-16.534116666666666">
        <ele>1542</ele>
        <time>2024-03-30T13:23:05.000Z</time>
      </trkpt>
      <trkpt lat="28.192833333333333" lon="-16.5342">
        <ele>1541</ele>
        <time>2024-03-30T13:23:06.000Z</time>
      </trkpt>
      <trkpt lat="28.192766666666667" lon="-16.534266666666667">
        <ele>1539</ele>
        <time>2024-03-30T13:23:07.000Z</time>
      </trkpt>
      <trkpt lat="28.1927" lon="-16.53435">
        <ele>1536</ele>
        <time>2024-03-30T13:23:08.000Z</time>
      </trkpt>
      <trkpt lat="28.192633333333333" lon="-16.53445">
        <ele>1533</ele>
        <time>2024-03-30T13:23:09.000Z</time>
      </trkpt>
      <trkpt lat="28.192566666666668" lon="-16.53455">
        <ele>1531</ele>
        <time>2024-03-30T13:23:10.000Z</time>
      </trkpt>
      <trkpt lat="28.1925" lon="-16.53465">
        <ele>1531</ele>
        <time>2024-03-30T13:23:11.000Z</time>
      </trkpt>
      <trkpt lat="28.192433333333334" lon="-16.53475">
        <ele>1531</ele>
        <time>2024-03-30T13:23:12.000Z</time>
      </trkpt>
      <trkpt lat="28.19236666666667" lon="-16.534816666666668">
        <ele>1530</ele>
        <time>2024-03-30T13:23:13.000Z</time>
      </trkpt>
      <trkpt lat="28.1923" lon="-16.5349">
        <ele>1529</ele>
        <time>2024-03-30T13:23:14.000Z</time>
      </trkpt>
      <trkpt lat="28.192233333333334" lon="-16.534966666666666">
        <ele>1527</ele>
        <time>2024-03-30T13:23:15.000Z</time>
      </trkpt>
      <trkpt lat="28.19215" lon="-16.535033333333335">
        <ele>1527</ele>
        <time>2024-03-30T13:23:16.000Z</time>
      </trkpt>
      <trkpt lat="28.192066666666665" lon="-16.535083333333333">
        <ele>1528</ele>
        <time>2024-03-30T13:23:17.000Z</time>
      </trkpt>
      <trkpt lat="28.191983333333333" lon="-16.535133333333334">
        <ele>1530</ele>
        <time>2024-03-30T13:23:18.000Z</time>
      </trkpt>
      <trkpt lat="28.191933333333335" lon="-16.535183333333332">
        <ele>1530</ele>
        <time>2024-03-30T13:23:19.000Z</time>
      </trkpt>
      <trkpt lat="28.191866666666666" lon="-16.535216666666667">
        <ele>1530</ele>
        <time>2024-03-30T13:23:20.000Z</time>
      </trkpt>
      <trkpt lat="28.1918" lon="-16.535283333333332">
        <ele>1529</ele>
        <time>2024-03-30T13:23:21.000Z</time>
      </trkpt>
      <trkpt lat="28.19173333333333" lon="-16.53535">
        <ele>1527</ele>
        <time>2024-03-30T13:23:22.000Z</time>
      </trkpt>
      <trkpt lat="28.191633333333332" lon="-16.535433333333334">
        <ele>1526</ele>
        <time>2024-03-30T13:23:23.000Z</time>
      </trkpt>
      <trkpt lat="28.19155" lon="-16.5355">
        <ele>1526</ele>
        <time>2024-03-30T13:23:24.000Z</time>
      </trkpt>
      <trkpt lat="28.19145" lon="-16.53555">
        <ele>1525</ele>
        <time>2024-03-30T13:23:25.000Z</time>
      </trkpt>
      <trkpt lat="28.19135" lon="-16.535583333333335">
        <ele>1525</ele>
        <time>2024-03-30T13:23:26.000Z</time>
      </trkpt>
      <trkpt lat="28.191266666666667" lon="-16.535616666666666">
        <ele>1524</ele>
        <time>2024-03-30T13:23:27.000Z</time>
      </trkpt>
      <trkpt lat="28.191166666666668" lon="-16.535633333333333">
        <ele>1522</ele>
        <time>2024-03-30T13:23:28.000Z</time>
      </trkpt>
      <trkpt lat="28.191083333333335" lon="-16.535633333333333">
        <ele>1520</ele>
        <time>2024-03-30T13:23:29.000Z</time>
      </trkpt>
      <trkpt lat="28.191" lon="-16.535666666666668">
        <ele>1515</ele>
        <time>2024-03-30T13:23:30.000Z</time>
      </trkpt>
      <trkpt lat="28.190916666666666" lon="-16.535683333333335">
        <ele>1508</ele>
        <time>2024-03-30T13:23:31.000Z</time>
      </trkpt>
      <trkpt lat="28.190783333333332" lon="-16.535733333333333">
        <ele>1500</ele>
        <time>2024-03-30T13:23:32.000Z</time>
      </trkpt>
      <trkpt lat="28.190666666666665" lon="-16.535816666666665">
        <ele>1494</ele>
        <time>2024-03-30T13:23:33.000Z</time>
      </trkpt>
      <trkpt lat="28.190516666666667" lon="-16.535916666666665">
        <ele>1492</ele>
        <time>2024-03-30T13:23:34.000Z</time>
      </trkpt>
      <trkpt lat="28.190383333333333" lon="-16.536">
        <ele>1494</ele>
        <time>2024-03-30T13:23:35.000Z</time>
      </trkpt>
      <trkpt lat="28.190266666666666" lon="-16.53605">
        <ele>1497</ele>
        <time>2024-03-30T13:23:36.000Z</time>
      </trkpt>
      <trkpt lat="28.19015" lon="-16.5361">
        <ele>1502</ele>
        <time>2024-03-30T13:23:37.000Z</time>
      </trkpt>
      <trkpt lat="28.19005" lon="-16.53615">
        <ele>1505</ele>
        <time>2024-03-30T13:23:38.000Z</time>
      </trkpt>
      <trkpt lat="28.189966666666667" lon="-16.536216666666668">
        <ele>1506</ele>
        <time>2024-03-30T13:23:39.000Z</time>
      </trkpt>
      <trkpt lat="28.189883333333334" lon="-16.536283333333333">
        <ele>1508</ele>
        <time>2024-03-30T13:23:40.000Z</time>
      </trkpt>
      <trkpt lat="28.1898" lon="-16.53633333333333">
        <ele>1510</ele>
        <time>2024-03-30T13:23:41.000Z</time>
      </trkpt>
      <trkpt lat="28.189733333333333" lon="-16.536383333333333">
        <ele>1514</ele>
        <time>2024-03-30T13:23:42.000Z</time>
      </trkpt>
      <trkpt lat="28.18965" lon="-16.536383333333333">
        <ele>1517</ele>
        <time>2024-03-30T13:23:43.000Z</time>
      </trkpt>
      <trkpt lat="28.189583333333335" lon="-16.536366666666666">
        <ele>1520</ele>
        <time>2024-03-30T13:23:44.000Z</time>
      </trkpt>
      <trkpt lat="28.18955" lon="-16.5363">
        <ele>1520</ele>
        <time>2024-03-30T13:23:45.000Z</time>
      </trkpt>
      <trkpt lat="28.18955" lon="-16.536216666666668">
        <ele>1520</ele>
        <time>2024-03-30T13:23:46.000Z</time>
      </trkpt>
      <trkpt lat="28.189566666666668" lon="-16.53611666666667">
        <ele>1521</ele>
        <time>2024-03-30T13:23:47.000Z</time>
      </trkpt>
      <trkpt lat="28.189666666666668" lon="-16.536016666666665">
        <ele>1522</ele>
        <time>2024-03-30T13:23:48.000Z</time>
      </trkpt>
      <trkpt lat="28.189766666666667" lon="-16.536">
        <ele>1524</ele>
        <time>2024-03-30T13:23:49.000Z</time>
      </trkpt>
      <trkpt lat="28.189866666666667" lon="-16.536066666666667">
        <ele>1526</ele>
        <time>2024-03-30T13:23:50.000Z</time>
      </trkpt>
      <trkpt lat="28.189933333333332" lon="-16.5362">
        <ele>1527</ele>
        <time>2024-03-30T13:23:51.000Z</time>
      </trkpt>
      <trkpt lat="28.1899" lon="-16.53635">
        <ele>1525</ele>
        <time>2024-03-30T13:23:52.000Z</time>
      </trkpt>
      <trkpt lat="28.189833333333333" lon="-16.536483333333333">
        <ele>1527</ele>
        <time>2024-03-30T13:23:53.000Z</time>
      </trkpt>
      <trkpt lat="28.189733333333333" lon="-16.536566666666666">
        <ele>1531</ele>
        <time>2024-03-30T13:23:54.000Z</time>
      </trkpt>
      <trkpt lat="28.189633333333333" lon="-16.5366">
        <ele>1536</ele>
        <time>2024-03-30T13:23:55.000Z</time>
      </trkpt>
      <trkpt lat="28.18955" lon="-16.536616666666667">
        <ele>1540</ele>
        <time>2024-03-30T13:23:56.000Z</time>
      </trkpt>
      <trkpt lat="28.18948333333333" lon="-16.536616666666667">
        <ele>1541</ele>
        <time>2024-03-30T13:23:57.000Z</time>
      </trkpt>
      <trkpt lat="28.18945" lon="-16.536583333333333">
        <ele>1542</ele>
        <time>2024-03-30T13:23:58.000Z</time>
      </trkpt>
      <trkpt lat="28.189383333333332" lon="-16.536533333333335">
        <ele>1542</ele>
        <time>2024-03-30T13:23:59.000Z</time>
      </trkpt>
      <trkpt lat="28.18935" lon="-16.53645">
        <ele>1543</ele>
        <time>2024-03-30T13:24:00.000Z</time>
      </trkpt>
      <trkpt lat="28.189316666666667" lon="-16.53635">
        <ele>1546</ele>
        <time>2024-03-30T13:24:01.000Z</time>
      </trkpt>
      <trkpt lat="28.189333333333334" lon="-16.536266666666666">
        <ele>1549</ele>
        <time>2024-03-30T13:24:02.000Z</time>
      </trkpt>
      <trkpt lat="28.189383333333332" lon="-16.5362">
        <ele>1550</ele>
        <time>2024-03-30T13:24:03.000Z</time>
      </trkpt>
      <trkpt lat="28.18945" lon="-16.53615">
        <ele>1550</ele>
        <time>2024-03-30T13:24:04.000Z</time>
      </trkpt>
      <trkpt lat="28.189533333333333" lon="-16.536133333333332">
        <ele>1549</ele>
        <time>2024-03-30T13:24:05.000Z</time>
      </trkpt>
      <trkpt lat="28.189633333333333" lon="-16.536166666666666">
        <ele>1551</ele>
        <time>2024-03-30T13:24:06.000Z</time>
      </trkpt>
      <trkpt lat="28.1897" lon="-16.536233333333332">
        <ele>1554</ele>
        <time>2024-03-30T13:24:07.000Z</time>
      </trkpt>
      <trkpt lat="28.189716666666666" lon="-16.53633333333333">
        <ele>1555</ele>
        <time>2024-03-30T13:24:08.000Z</time>
      </trkpt>
      <trkpt lat="28.189716666666666" lon="-16.536466666666666">
        <ele>1556</ele>
        <time>2024-03-30T13:24:09.000Z</time>
      </trkpt>
      <trkpt lat="28.189666666666668" lon="-16.536583333333333">
        <ele>1558</ele>
        <time>2024-03-30T13:24:10.000Z</time>
      </trkpt>
      <trkpt lat="28.1896" lon="-16.536683333333333">
        <ele>1560</ele>
        <time>2024-03-30T13:24:11.000Z</time>
      </trkpt>
      <trkpt lat="28.18955" lon="-16.53675">
        <ele>1563</ele>
        <time>2024-03-30T13:24:12.000Z</time>
      </trkpt>
      <trkpt lat="28.18948333333333" lon="-16.5368">
        <ele>1564</ele>
        <time>2024-03-30T13:24:13.000Z</time>
      </trkpt>
      <trkpt lat="28.1894" lon="-16.536816666666667">
        <ele>1565</ele>
        <time>2024-03-30T13:24:14.000Z</time>
      </trkpt>
      <trkpt lat="28.189316666666667" lon="-16.5368">
        <ele>1566</ele>
        <time>2024-03-30T13:24:15.000Z</time>
      </trkpt>
      <trkpt lat="28.189233333333334" lon="-16.53675">
        <ele>1568</ele>
        <time>2024-03-30T13:24:16.000Z</time>
      </trkpt>
      <trkpt lat="28.189183333333332" lon="-16.5367">
        <ele>1569</ele>
        <time>2024-03-30T13:24:17.000Z</time>
      </trkpt>
      <trkpt lat="28.189183333333332" lon="-16.536616666666667">
        <ele>1570</ele>
        <time>2024-03-30T13:24:18.000Z</time>
      </trkpt>
      <trkpt lat="28.1892" lon="-16.536516666666667">
        <ele>1570</ele>
        <time>2024-03-30T13:24:19.000Z</time>
      </trkpt>
      <trkpt lat="28.189266666666665" lon="-16.536416666666668">
        <ele>1570</ele>
        <time>2024-03-30T13:24:20.000Z</time>
      </trkpt>
      <trkpt lat="28.18935" lon="-16.536366666666666">
        <ele>1572</ele>
        <time>2024-03-30T13:24:21.000Z</time>
      </trkpt>
      <trkpt lat="28.18945" lon="-16.536366666666666">
        <ele>1574</ele>
        <time>2024-03-30T13:24:22.000Z</time>
      </trkpt>
      <trkpt lat="28.189516666666666" lon="-16.53645">
        <ele>1575</ele>
        <time>2024-03-30T13:24:23.000Z</time>
      </trkpt>
      <trkpt lat="28.189566666666668" lon="-16.53655">
        <ele>1575</ele>
        <time>2024-03-30T13:24:24.000Z</time>
      </trkpt>
      <trkpt lat="28.189566666666668" lon="-16.536666666666665">
        <ele>1576</ele>
        <time>2024-03-30T13:24:25.000Z</time>
      </trkpt>
      <trkpt lat="28.189516666666666" lon="-16.536766666666665">
        <ele>1577</ele>
        <time>2024-03-30T13:24:26.000Z</time>
      </trkpt>
      <trkpt lat="28.18945" lon="-16.53685">
        <ele>1579</ele>
        <time>2024-03-30T13:24:27.000Z</time>
      </trkpt>
      <trkpt lat="28.1894" lon="-16.5369">
        <ele>1582</ele>
        <time>2024-03-30T13:24:28.000Z</time>
      </trkpt>
      <trkpt lat="28.189333333333334" lon="-16.53695">
        <ele>1584</ele>
        <time>2024-03-30T13:24:29.000Z</time>
      </trkpt>
      <trkpt lat="28.189283333333332" lon="-16.536983333333332">
        <ele>1585</ele>
        <time>2024-03-30T13:24:30.000Z</time>
      </trkpt>
      <trkpt lat="28.189216666666667" lon="-16.537016666666666">
        <ele>1585</ele>
        <time>2024-03-30T13:24:31.000Z</time>
      </trkpt>
      <trkpt lat="28.18915" lon="-16.53705">
        <ele>1584</ele>
        <time>2024-03-30T13:24:32.000Z</time>
      </trkpt>
      <trkpt lat="28.189066666666665" lon="-16.5371">
        <ele>1584</ele>
        <time>2024-03-30T13:24:33.000Z</time>
      </trkpt>
      <trkpt lat="28.188983333333333" lon="-16.537133333333333">
        <ele>1584</ele>
        <time>2024-03-30T13:24:34.000Z</time>
      </trkpt>
      <trkpt lat="28.1889" lon="-16.537183333333335">
        <ele>1583</ele>
        <time>2024-03-30T13:24:35.000Z</time>
      </trkpt>
      <trkpt lat="28.1888" lon="-16.537233333333333">
        <ele>1583</ele>
        <time>2024-03-30T13:24:36.000Z</time>
      </trkpt>
      <trkpt lat="28.1887" lon="-16.537283333333335">
        <ele>1583</ele>
        <time>2024-03-30T13:24:37.000Z</time>
      </trkpt>
      <trkpt lat="28.188583333333334" lon="-16.537316666666666">
        <ele>1581</ele>
        <time>2024-03-30T13:24:38.000Z</time>
      </trkpt>
      <trkpt lat="28.188466666666667" lon="-16.53735">
        <ele>1579</ele>
        <time>2024-03-30T13:24:39.000Z</time>
      </trkpt>
      <trkpt lat="28.188316666666665" lon="-16.537366666666667">
        <ele>1579</ele>
        <time>2024-03-30T13:24:40.000Z</time>
      </trkpt>
      <trkpt lat="28.1882" lon="-16.537383333333334">
        <ele>1581</ele>
        <time>2024-03-30T13:24:41.000Z</time>
      </trkpt>
      <trkpt lat="28.188083333333335" lon="-16.537383333333334">
        <ele>1582</ele>
        <time>2024-03-30T13:24:42.000Z</time>
      </trkpt>
      <trkpt lat="28.18798333333333" lon="-16.5374">
        <ele>1581</ele>
        <time>2024-03-30T13:24:43.000Z</time>
      </trkpt>
      <trkpt lat="28.187883333333332" lon="-16.537416666666665">
        <ele>1579</ele>
        <time>2024-03-30T13:24:44.000Z</time>
      </trkpt>
      <trkpt lat="28.18776666666667" lon="-16.53745">
        <ele>1575</ele>
        <time>2024-03-30T13:24:45.000Z</time>
      </trkpt>
      <trkpt lat="28.187633333333334" lon="-16.537483333333334">
        <ele>1572</ele>
        <time>2024-03-30T13:24:46.000Z</time>
      </trkpt>
      <trkpt lat="28.1875" lon="-16.5375">
        <ele>1570</ele>
        <time>2024-03-30T13:24:47.000Z</time>
      </trkpt>
      <trkpt lat="28.187366666666666" lon="-16.537533333333332">
        <ele>1570</ele>
        <time>2024-03-30T13:24:48.000Z</time>
      </trkpt>
      <trkpt lat="28.187266666666666" lon="-16.537566666666667">
        <ele>1570</ele>
        <time>2024-03-30T13:24:49.000Z</time>
      </trkpt>
      <trkpt lat="28.187166666666666" lon="-16.5376">
        <ele>1568</ele>
        <time>2024-03-30T13:24:50.000Z</time>
      </trkpt>
      <trkpt lat="28.18705" lon="-16.537633333333332">
        <ele>1567</ele>
        <time>2024-03-30T13:24:51.000Z</time>
      </trkpt>
      <trkpt lat="28.18695" lon="-16.537666666666667">
        <ele>1564</ele>
        <time>2024-03-30T13:24:52.000Z</time>
      </trkpt>
      <trkpt lat="28.186833333333333" lon="-16.5377">
        <ele>1561</ele>
        <time>2024-03-30T13:24:53.000Z</time>
      </trkpt>
      <trkpt lat="28.1867" lon="-16.537733333333332">
        <ele>1559</ele>
        <time>2024-03-30T13:24:54.000Z</time>
      </trkpt>
      <trkpt lat="28.186583333333335" lon="-16.5378">
        <ele>1559</ele>
        <time>2024-03-30T13:24:55.000Z</time>
      </trkpt>
      <trkpt lat="28.186483333333335" lon="-16.53785">
        <ele>1559</ele>
        <time>2024-03-30T13:24:56.000Z</time>
      </trkpt>
      <trkpt lat="28.186383333333332" lon="-16.5379">
        <ele>1560</ele>
        <time>2024-03-30T13:24:57.000Z</time>
      </trkpt>
      <trkpt lat="28.186283333333332" lon="-16.53795">
        <ele>1559</ele>
        <time>2024-03-30T13:24:58.000Z</time>
      </trkpt>
      <trkpt lat="28.186166666666665" lon="-16.537983333333333">
        <ele>1558</ele>
        <time>2024-03-30T13:24:59.000Z</time>
      </trkpt>
      <trkpt lat="28.18605" lon="-16.538016666666667">
        <ele>1556</ele>
        <time>2024-03-30T13:25:00.000Z</time>
      </trkpt>
      <trkpt lat="28.185933333333335" lon="-16.538066666666666">
        <ele>1555</ele>
        <time>2024-03-30T13:25:01.000Z</time>
      </trkpt>
      <trkpt lat="28.185833333333335" lon="-16.538133333333334">
        <ele>1554</ele>
        <time>2024-03-30T13:25:02.000Z</time>
      </trkpt>
      <trkpt lat="28.185716666666668" lon="-16.538183333333333">
        <ele>1554</ele>
        <time>2024-03-30T13:25:03.000Z</time>
      </trkpt>
      <trkpt lat="28.1856" lon="-16.53825">
        <ele>1554</ele>
        <time>2024-03-30T13:25:04.000Z</time>
      </trkpt>
      <trkpt lat="28.1855" lon="-16.5383">
        <ele>1554</ele>
        <time>2024-03-30T13:25:05.000Z</time>
      </trkpt>
      <trkpt lat="28.1854" lon="-16.53835">
        <ele>1553</ele>
        <time>2024-03-30T13:25:06.000Z</time>
      </trkpt>
      <trkpt lat="28.185283333333334" lon="-16.538416666666667">
        <ele>1552</ele>
        <time>2024-03-30T13:25:07.000Z</time>
      </trkpt>
      <trkpt lat="28.185166666666667" lon="-16.538466666666668">
        <ele>1551</ele>
        <time>2024-03-30T13:25:08.000Z</time>
      </trkpt>
      <trkpt lat="28.18505" lon="-16.538516666666666">
        <ele>1551</ele>
        <time>2024-03-30T13:25:09.000Z</time>
      </trkpt>
      <trkpt lat="28.184933333333333" lon="-16.538566666666668">
        <ele>1550</ele>
        <time>2024-03-30T13:25:10.000Z</time>
      </trkpt>
      <trkpt lat="28.184816666666666" lon="-16.5386">
        <ele>1549</ele>
        <time>2024-03-30T13:25:11.000Z</time>
      </trkpt>
      <trkpt lat="28.184716666666667" lon="-16.53865">
        <ele>1548</ele>
        <time>2024-03-30T13:25:12.000Z</time>
      </trkpt>
      <trkpt lat="28.1846" lon="-16.538716666666666">
        <ele>1546</ele>
        <time>2024-03-30T13:25:13.000Z</time>
      </trkpt>
      <trkpt lat="28.184483333333333" lon="-16.538783333333335">
        <ele>1546</ele>
        <time>2024-03-30T13:25:14.000Z</time>
      </trkpt>
      <trkpt lat="28.184366666666666" lon="-16.538833333333333">
        <ele>1546</ele>
        <time>2024-03-30T13:25:15.000Z</time>
      </trkpt>
      <trkpt lat="28.18425" lon="-16.5389">
        <ele>1546</ele>
        <time>2024-03-30T13:25:16.000Z</time>
      </trkpt>
      <trkpt lat="28.18415" lon="-16.53895">
        <ele>1547</ele>
        <time>2024-03-30T13:25:17.000Z</time>
      </trkpt>
      <trkpt lat="28.18405" lon="-16.539">
        <ele>1546</ele>
        <time>2024-03-30T13:25:18.000Z</time>
      </trkpt>
      <trkpt lat="28.183933333333332" lon="-16.53905">
        <ele>1546</ele>
        <time>2024-03-30T13:25:19.000Z</time>
      </trkpt>
      <trkpt lat="28.183816666666665" lon="-16.5391">
        <ele>1545</ele>
        <time>2024-03-30T13:25:20.000Z</time>
      </trkpt>
      <trkpt lat="28.1837" lon="-16.539166666666667">
        <ele>1546</ele>
        <time>2024-03-30T13:25:21.000Z</time>
      </trkpt>
      <trkpt lat="28.183583333333335" lon="-16.539233333333332">
        <ele>1549</ele>
        <time>2024-03-30T13:25:22.000Z</time>
      </trkpt>
      <trkpt lat="28.1835" lon="-16.539283333333334">
        <ele>1553</ele>
        <time>2024-03-30T13:25:23.000Z</time>
      </trkpt>
      <trkpt lat="28.183416666666666" lon="-16.53933333333333">
        <ele>1555</ele>
        <time>2024-03-30T13:25:24.000Z</time>
      </trkpt>
      <trkpt lat="28.183316666666666" lon="-16.539366666666666">
        <ele>1555</ele>
        <time>2024-03-30T13:25:25.000Z</time>
      </trkpt>
      <trkpt lat="28.183233333333334" lon="-16.5394">
        <ele>1556</ele>
        <time>2024-03-30T13:25:26.000Z</time>
      </trkpt>
      <trkpt lat="28.183133333333334" lon="-16.539433333333335">
        <ele>1556</ele>
        <time>2024-03-30T13:25:27.000Z</time>
      </trkpt>
      <trkpt lat="28.183033333333334" lon="-16.539466666666666">
        <ele>1557</ele>
        <time>2024-03-30T13:25:28.000Z</time>
      </trkpt>
      <trkpt lat="28.18295" lon="-16.5395">
        <ele>1559</ele>
        <time>2024-03-30T13:25:29.000Z</time>
      </trkpt>
      <trkpt lat="28.182866666666666" lon="-16.539533333333335">
        <ele>1560</ele>
        <time>2024-03-30T13:25:30.000Z</time>
      </trkpt>
      <trkpt lat="28.1828" lon="-16.539583333333333">
        <ele>1560</ele>
        <time>2024-03-30T13:25:31.000Z</time>
      </trkpt>
      <trkpt lat="28.182766666666666" lon="-16.539633333333335">
        <ele>1560</ele>
        <time>2024-03-30T13:25:32.000Z</time>
      </trkpt>
      <trkpt lat="28.182716666666668" lon="-16.5397">
        <ele>1559</ele>
        <time>2024-03-30T13:25:33.000Z</time>
      </trkpt>
      <trkpt lat="28.18265" lon="-16.53975">
        <ele>1559</ele>
        <time>2024-03-30T13:25:34.000Z</time>
      </trkpt>
      <trkpt lat="28.182566666666666" lon="-16.5398">
        <ele>1556</ele>
        <time>2024-03-30T13:25:35.000Z</time>
      </trkpt>
      <trkpt lat="28.182466666666667" lon="-16.53985">
        <ele>1552</ele>
        <time>2024-03-30T13:25:36.000Z</time>
      </trkpt>
      <trkpt lat="28.182383333333334" lon="-16.5399">
        <ele>1548</ele>
        <time>2024-03-30T13:25:37.000Z</time>
      </trkpt>
      <trkpt lat="28.182316666666665" lon="-16.539933333333334">
        <ele>1546</ele>
        <time>2024-03-30T13:25:38.000Z</time>
      </trkpt>
      <trkpt lat="28.182233333333333" lon="-16.53996666666667">
        <ele>1542</ele>
        <time>2024-03-30T13:25:39.000Z</time>
      </trkpt>
      <trkpt lat="28.182166666666667" lon="-16.540016666666666">
        <ele>1538</ele>
        <time>2024-03-30T13:25:40.000Z</time>
      </trkpt>
      <trkpt lat="28.1821" lon="-16.540066666666668">
        <ele>1536</ele>
        <time>2024-03-30T13:25:41.000Z</time>
      </trkpt>
      <trkpt lat="28.182033333333333" lon="-16.540133333333333">
        <ele>1536</ele>
        <time>2024-03-30T13:25:42.000Z</time>
      </trkpt>
      <trkpt lat="28.18195" lon="-16.5402">
        <ele>1535</ele>
        <time>2024-03-30T13:25:43.000Z</time>
      </trkpt>
      <trkpt lat="28.18188333333333" lon="-16.54025">
        <ele>1536</ele>
        <time>2024-03-30T13:25:44.000Z</time>
      </trkpt>
      <trkpt lat="28.181816666666666" lon="-16.5403">
        <ele>1537</ele>
        <time>2024-03-30T13:25:45.000Z</time>
      </trkpt>
      <trkpt lat="28.18175" lon="-16.54035">
        <ele>1538</ele>
        <time>2024-03-30T13:25:46.000Z</time>
      </trkpt>
      <trkpt lat="28.1817" lon="-16.540399999999998">
        <ele>1538</ele>
        <time>2024-03-30T13:25:47.000Z</time>
      </trkpt>
      <trkpt lat="28.18166666666667" lon="-16.540466666666667">
        <ele>1539</ele>
        <time>2024-03-30T13:25:48.000Z</time>
      </trkpt>
      <trkpt lat="28.181616666666667" lon="-16.540516666666665">
        <ele>1540</ele>
        <time>2024-03-30T13:25:49.000Z</time>
      </trkpt>
      <trkpt lat="28.181566666666665" lon="-16.540583333333334">
        <ele>1541</ele>
        <time>2024-03-30T13:25:50.000Z</time>
      </trkpt>
      <trkpt lat="28.181516666666667" lon="-16.540633333333332">
        <ele>1543</ele>
        <time>2024-03-30T13:25:51.000Z</time>
      </trkpt>
      <trkpt lat="28.181466666666665" lon="-16.5407">
        <ele>1545</ele>
        <time>2024-03-30T13:25:52.000Z</time>
      </trkpt>
      <trkpt lat="28.1814" lon="-16.54075">
        <ele>1546</ele>
        <time>2024-03-30T13:25:53.000Z</time>
      </trkpt>
      <trkpt lat="28.18135" lon="-16.5408">
        <ele>1547</ele>
        <time>2024-03-30T13:25:54.000Z</time>
      </trkpt>
      <trkpt lat="28.181316666666667" lon="-16.540866666666666">
        <ele>1549</ele>
        <time>2024-03-30T13:25:55.000Z</time>
      </trkpt>
      <trkpt lat="28.181316666666667" lon="-16.540933333333335">
        <ele>1550</ele>
        <time>2024-03-30T13:25:56.000Z</time>
      </trkpt>
      <trkpt lat="28.181333333333335" lon="-16.541016666666668">
        <ele>1551</ele>
        <time>2024-03-30T13:25:57.000Z</time>
      </trkpt>
      <trkpt lat="28.1814" lon="-16.541083333333333">
        <ele>1550</ele>
        <time>2024-03-30T13:25:58.000Z</time>
      </trkpt>
      <trkpt lat="28.181466666666665" lon="-16.541150000000002">
        <ele>1550</ele>
        <time>2024-03-30T13:25:59.000Z</time>
      </trkpt>
      <trkpt lat="28.181566666666665" lon="-16.541183333333333">
        <ele>1550</ele>
        <time>2024-03-30T13:26:00.000Z</time>
      </trkpt>
      <trkpt lat="28.181683333333332" lon="-16.541183333333333">
        <ele>1550</ele>
        <time>2024-03-30T13:26:01.000Z</time>
      </trkpt>
      <trkpt lat="28.1818" lon="-16.541133333333335">
        <ele>1551</ele>
        <time>2024-03-30T13:26:02.000Z</time>
      </trkpt>
      <trkpt lat="28.18188333333333" lon="-16.541066666666666">
        <ele>1552</ele>
        <time>2024-03-30T13:26:03.000Z</time>
      </trkpt>
      <trkpt lat="28.181916666666666" lon="-16.540983333333333">
        <ele>1553</ele>
        <time>2024-03-30T13:26:04.000Z</time>
      </trkpt>
      <trkpt lat="28.181916666666666" lon="-16.540866666666666">
        <ele>1551</ele>
        <time>2024-03-30T13:26:05.000Z</time>
      </trkpt>
      <trkpt lat="28.181866666666668" lon="-16.54075">
        <ele>1550</ele>
        <time>2024-03-30T13:26:06.000Z</time>
      </trkpt>
      <trkpt lat="28.181783333333332" lon="-16.540666666666667">
        <ele>1550</ele>
        <time>2024-03-30T13:26:07.000Z</time>
      </trkpt>
      <trkpt lat="28.1817" lon="-16.540616666666665">
        <ele>1551</ele>
        <time>2024-03-30T13:26:08.000Z</time>
      </trkpt>
      <trkpt lat="28.1816" lon="-16.5406">
        <ele>1553</ele>
        <time>2024-03-30T13:26:09.000Z</time>
      </trkpt>
      <trkpt lat="28.181533333333334" lon="-16.5406">
        <ele>1554</ele>
        <time>2024-03-30T13:26:10.000Z</time>
      </trkpt>
      <trkpt lat="28.181483333333333" lon="-16.5406">
        <ele>1554</ele>
        <time>2024-03-30T13:26:11.000Z</time>
      </trkpt>
      <trkpt lat="28.181416666666667" lon="-16.540616666666665">
        <ele>1554</ele>
        <time>2024-03-30T13:26:12.000Z</time>
      </trkpt>
      <trkpt lat="28.18135" lon="-16.540666666666667">
        <ele>1552</ele>
        <time>2024-03-30T13:26:13.000Z</time>
      </trkpt>
      <trkpt lat="28.18125" lon="-16.54071666666667">
        <ele>1552</ele>
        <time>2024-03-30T13:26:14.000Z</time>
      </trkpt>
      <trkpt lat="28.18115" lon="-16.540766666666666">
        <ele>1551</ele>
        <time>2024-03-30T13:26:15.000Z</time>
      </trkpt>
      <trkpt lat="28.181066666666666" lon="-16.54083333333333">
        <ele>1552</ele>
        <time>2024-03-30T13:26:16.000Z</time>
      </trkpt>
      <trkpt lat="28.180966666666666" lon="-16.540883333333333">
        <ele>1553</ele>
        <time>2024-03-30T13:26:17.000Z</time>
      </trkpt>
      <trkpt lat="28.180883333333334" lon="-16.54095">
        <ele>1554</ele>
        <time>2024-03-30T13:26:18.000Z</time>
      </trkpt>
      <trkpt lat="28.1808" lon="-16.541">
        <ele>1555</ele>
        <time>2024-03-30T13:26:19.000Z</time>
      </trkpt>
      <trkpt lat="28.1807" lon="-16.541066666666666">
        <ele>1554</ele>
        <time>2024-03-30T13:26:20.000Z</time>
      </trkpt>
      <trkpt lat="28.180583333333335" lon="-16.541116666666667">
        <ele>1552</ele>
        <time>2024-03-30T13:26:21.000Z</time>
      </trkpt>
      <trkpt lat="28.18045" lon="-16.541166666666665">
        <ele>1551</ele>
        <time>2024-03-30T13:26:22.000Z</time>
      </trkpt>
      <trkpt lat="28.180316666666666" lon="-16.54125">
        <ele>1552</ele>
        <time>2024-03-30T13:26:23.000Z</time>
      </trkpt>
      <trkpt lat="28.18016666666667" lon="-16.541316666666667">
        <ele>1555</ele>
        <time>2024-03-30T13:26:24.000Z</time>
      </trkpt>
      <trkpt lat="28.18005" lon="-16.541383333333332">
        <ele>1560</ele>
        <time>2024-03-30T13:26:25.000Z</time>
      </trkpt>
      <trkpt lat="28.17995" lon="-16.541433333333334">
        <ele>1562</ele>
        <time>2024-03-30T13:26:26.000Z</time>
      </trkpt>
      <trkpt lat="28.17985" lon="-16.54146666666667">
        <ele>1563</ele>
        <time>2024-03-30T13:26:27.000Z</time>
      </trkpt>
      <trkpt lat="28.179733333333335" lon="-16.541516666666666">
        <ele>1564</ele>
        <time>2024-03-30T13:26:28.000Z</time>
      </trkpt>
      <trkpt lat="28.1796" lon="-16.541566666666668">
        <ele>1564</ele>
        <time>2024-03-30T13:26:29.000Z</time>
      </trkpt>
      <trkpt lat="28.179466666666666" lon="-16.541616666666666">
        <ele>1566</ele>
        <time>2024-03-30T13:26:30.000Z</time>
      </trkpt>
      <trkpt lat="28.17935" lon="-16.541666666666668">
        <ele>1568</ele>
        <time>2024-03-30T13:26:31.000Z</time>
      </trkpt>
      <trkpt lat="28.179216666666665" lon="-16.541716666666666">
        <ele>1570</ele>
        <time>2024-03-30T13:26:32.000Z</time>
      </trkpt>
      <trkpt lat="28.1791" lon="-16.541766666666668">
        <ele>1572</ele>
        <time>2024-03-30T13:26:33.000Z</time>
      </trkpt>
      <trkpt lat="28.178966666666668" lon="-16.541833333333333">
        <ele>1574</ele>
        <time>2024-03-30T13:26:34.000Z</time>
      </trkpt>
      <trkpt lat="28.17885" lon="-16.541866666666667">
        <ele>1576</ele>
        <time>2024-03-30T13:26:35.000Z</time>
      </trkpt>
      <trkpt lat="28.178733333333334" lon="-16.541916666666665">
        <ele>1577</ele>
        <time>2024-03-30T13:26:36.000Z</time>
      </trkpt>
      <trkpt lat="28.1786" lon="-16.54195">
        <ele>1578</ele>
        <time>2024-03-30T13:26:37.000Z</time>
      </trkpt>
      <trkpt lat="28.178483333333332" lon="-16.542">
        <ele>1579</ele>
        <time>2024-03-30T13:26:38.000Z</time>
      </trkpt>
      <trkpt lat="28.178366666666665" lon="-16.542066666666667">
        <ele>1580</ele>
        <time>2024-03-30T13:26:39.000Z</time>
      </trkpt>
      <trkpt lat="28.178266666666666" lon="-16.542133333333332">
        <ele>1580</ele>
        <time>2024-03-30T13:26:40.000Z</time>
      </trkpt>
      <trkpt lat="28.178166666666666" lon="-16.54221666666667">
        <ele>1579</ele>
        <time>2024-03-30T13:26:41.000Z</time>
      </trkpt>
      <trkpt lat="28.178066666666666" lon="-16.542316666666668">
        <ele>1576</ele>
        <time>2024-03-30T13:26:42.000Z</time>
      </trkpt>
      <trkpt lat="28.177933333333332" lon="-16.5424">
        <ele>1573</ele>
        <time>2024-03-30T13:26:43.000Z</time>
      </trkpt>
      <trkpt lat="28.177816666666665" lon="-16.5425">
        <ele>1571</ele>
        <time>2024-03-30T13:26:44.000Z</time>
      </trkpt>
      <trkpt lat="28.177683333333334" lon="-16.542566666666666">
        <ele>1572</ele>
        <time>2024-03-30T13:26:45.000Z</time>
      </trkpt>
      <trkpt lat="28.177566666666667" lon="-16.542616666666667">
        <ele>1573</ele>
        <time>2024-03-30T13:26:46.000Z</time>
      </trkpt>
      <trkpt lat="28.17745" lon="-16.542633333333335">
        <ele>1573</ele>
        <time>2024-03-30T13:26:47.000Z</time>
      </trkpt>
      <trkpt lat="28.17735" lon="-16.54265">
        <ele>1573</ele>
        <time>2024-03-30T13:26:48.000Z</time>
      </trkpt>
      <trkpt lat="28.17725" lon="-16.54265">
        <ele>1573</ele>
        <time>2024-03-30T13:26:49.000Z</time>
      </trkpt>
      <trkpt lat="28.17715" lon="-16.542666666666666">
        <ele>1571</ele>
        <time>2024-03-30T13:26:50.000Z</time>
      </trkpt>
      <trkpt lat="28.177033333333334" lon="-16.542716666666667">
        <ele>1568</ele>
        <time>2024-03-30T13:26:51.000Z</time>
      </trkpt>
      <trkpt lat="28.176916666666667" lon="-16.542783333333333">
        <ele>1566</ele>
        <time>2024-03-30T13:26:52.000Z</time>
      </trkpt>
      <trkpt lat="28.1768" lon="-16.54285">
        <ele>1565</ele>
        <time>2024-03-30T13:26:53.000Z</time>
      </trkpt>
      <trkpt lat="28.176683333333333" lon="-16.5429">
        <ele>1565</ele>
        <time>2024-03-30T13:26:54.000Z</time>
      </trkpt>
      <trkpt lat="28.176583333333333" lon="-16.54295">
        <ele>1566</ele>
        <time>2024-03-30T13:26:55.000Z</time>
      </trkpt>
      <trkpt lat="28.176483333333334" lon="-16.542983333333332">
        <ele>1567</ele>
        <time>2024-03-30T13:26:56.000Z</time>
      </trkpt>
      <trkpt lat="28.1764" lon="-16.543033333333334">
        <ele>1565</ele>
        <time>2024-03-30T13:26:57.000Z</time>
      </trkpt>
      <trkpt lat="28.1763" lon="-16.5431">
        <ele>1562</ele>
        <time>2024-03-30T13:26:58.000Z</time>
      </trkpt>
      <trkpt lat="28.176166666666667" lon="-16.54315">
        <ele>1559</ele>
        <time>2024-03-30T13:26:59.000Z</time>
      </trkpt>
      <trkpt lat="28.17605" lon="-16.543216666666666">
        <ele>1558</ele>
        <time>2024-03-30T13:27:00.000Z</time>
      </trkpt>
      <trkpt lat="28.175933333333333" lon="-16.543283333333335">
        <ele>1560</ele>
        <time>2024-03-30T13:27:01.000Z</time>
      </trkpt>
      <trkpt lat="28.175816666666666" lon="-16.543316666666666">
        <ele>1562</ele>
        <time>2024-03-30T13:27:02.000Z</time>
      </trkpt>
      <trkpt lat="28.175733333333334" lon="-16.54335">
        <ele>1562</ele>
        <time>2024-03-30T13:27:03.000Z</time>
      </trkpt>
      <trkpt lat="28.17565" lon="-16.54335">
        <ele>1558</ele>
        <time>2024-03-30T13:27:04.000Z</time>
      </trkpt>
      <trkpt lat="28.17555" lon="-16.54335">
        <ele>1552</ele>
        <time>2024-03-30T13:27:05.000Z</time>
      </trkpt>
      <trkpt lat="28.175416666666667" lon="-16.543383333333335">
        <ele>1546</ele>
        <time>2024-03-30T13:27:06.000Z</time>
      </trkpt>
      <trkpt lat="28.175266666666666" lon="-16.543433333333333">
        <ele>1541</ele>
        <time>2024-03-30T13:27:07.000Z</time>
      </trkpt>
      <trkpt lat="28.175133333333335" lon="-16.543483333333334">
        <ele>1540</ele>
        <time>2024-03-30T13:27:08.000Z</time>
      </trkpt>
      <trkpt lat="28.17503333333333" lon="-16.543516666666665">
        <ele>1541</ele>
        <time>2024-03-30T13:27:09.000Z</time>
      </trkpt>
      <trkpt lat="28.17495" lon="-16.54355">
        <ele>1542</ele>
        <time>2024-03-30T13:27:10.000Z</time>
      </trkpt>
      <trkpt lat="28.174883333333334" lon="-16.543583333333334">
        <ele>1541</ele>
        <time>2024-03-30T13:27:11.000Z</time>
      </trkpt>
      <trkpt lat="28.17481666666667" lon="-16.543616666666665">
        <ele>1539</ele>
        <time>2024-03-30T13:27:12.000Z</time>
      </trkpt>
      <trkpt lat="28.174733333333332" lon="-16.543666666666667">
        <ele>1536</ele>
        <time>2024-03-30T13:27:13.000Z</time>
      </trkpt>
      <trkpt lat="28.17465" lon="-16.54371666666667">
        <ele>1534</ele>
        <time>2024-03-30T13:27:14.000Z</time>
      </trkpt>
      <trkpt lat="28.17455" lon="-16.543766666666667">
        <ele>1532</ele>
        <time>2024-03-30T13:27:15.000Z</time>
      </trkpt>
      <trkpt lat="28.17445" lon="-16.543833333333332">
        <ele>1533</ele>
        <time>2024-03-30T13:27:16.000Z</time>
      </trkpt>
      <trkpt lat="28.17435" lon="-16.543883333333333">
        <ele>1536</ele>
        <time>2024-03-30T13:27:17.000Z</time>
      </trkpt>
      <trkpt lat="28.174266666666668" lon="-16.543916666666668">
        <ele>1538</ele>
        <time>2024-03-30T13:27:18.000Z</time>
      </trkpt>
      <trkpt lat="28.174183333333332" lon="-16.543933333333335">
        <ele>1538</ele>
        <time>2024-03-30T13:27:19.000Z</time>
      </trkpt>
      <trkpt lat="28.1741" lon="-16.54395">
        <ele>1537</ele>
        <time>2024-03-30T13:27:20.000Z</time>
      </trkpt>
      <trkpt lat="28.174" lon="-16.543966666666666">
        <ele>1536</ele>
        <time>2024-03-30T13:27:21.000Z</time>
      </trkpt>
      <trkpt lat="28.1739" lon="-16.544">
        <ele>1534</ele>
        <time>2024-03-30T13:27:22.000Z</time>
      </trkpt>
      <trkpt lat="28.173783333333333" lon="-16.544033333333335">
        <ele>1532</ele>
        <time>2024-03-30T13:27:23.000Z</time>
      </trkpt>
      <trkpt lat="28.173666666666666" lon="-16.544083333333333">
        <ele>1533</ele>
        <time>2024-03-30T13:27:24.000Z</time>
      </trkpt>
      <trkpt lat="28.173566666666666" lon="-16.544133333333335">
        <ele>1535</ele>
        <time>2024-03-30T13:27:25.000Z</time>
      </trkpt>
      <trkpt lat="28.173483333333333" lon="-16.544183333333333">
        <ele>1536</ele>
        <time>2024-03-30T13:27:26.000Z</time>
      </trkpt>
      <trkpt lat="28.173416666666668" lon="-16.544233333333334">
        <ele>1537</ele>
        <time>2024-03-30T13:27:27.000Z</time>
      </trkpt>
      <trkpt lat="28.173333333333332" lon="-16.544283333333333">
        <ele>1536</ele>
        <time>2024-03-30T13:27:28.000Z</time>
      </trkpt>
      <trkpt lat="28.17325" lon="-16.544333333333334">
        <ele>1533</ele>
        <time>2024-03-30T13:27:29.000Z</time>
      </trkpt>
      <trkpt lat="28.173133333333332" lon="-16.544383333333332">
        <ele>1531</ele>
        <time>2024-03-30T13:27:30.000Z</time>
      </trkpt>
      <trkpt lat="28.173033333333333" lon="-16.54445">
        <ele>1530</ele>
        <time>2024-03-30T13:27:31.000Z</time>
      </trkpt>
      <trkpt lat="28.172933333333333" lon="-16.544533333333334">
        <ele>1530</ele>
        <time>2024-03-30T13:27:32.000Z</time>
      </trkpt>
      <trkpt lat="28.17285" lon="-16.544616666666666">
        <ele>1530</ele>
        <time>2024-03-30T13:27:33.000Z</time>
      </trkpt>
      <trkpt lat="28.172783333333335" lon="-16.54468333333333">
        <ele>1530</ele>
        <time>2024-03-30T13:27:34.000Z</time>
      </trkpt>
      <trkpt lat="28.172716666666666" lon="-16.54475">
        <ele>1528</ele>
        <time>2024-03-30T13:27:35.000Z</time>
      </trkpt>
      <trkpt lat="28.17265" lon="-16.544816666666666">
        <ele>1524</ele>
        <time>2024-03-30T13:27:36.000Z</time>
      </trkpt>
      <trkpt lat="28.17255" lon="-16.544883333333335">
        <ele>1521</ele>
        <time>2024-03-30T13:27:37.000Z</time>
      </trkpt>
      <trkpt lat="28.172466666666665" lon="-16.54495">
        <ele>1520</ele>
        <time>2024-03-30T13:27:38.000Z</time>
      </trkpt>
      <trkpt lat="28.172383333333332" lon="-16.545016666666665">
        <ele>1520</ele>
        <time>2024-03-30T13:27:39.000Z</time>
      </trkpt>
      <trkpt lat="28.172316666666667" lon="-16.545083333333334">
        <ele>1520</ele>
        <time>2024-03-30T13:27:40.000Z</time>
      </trkpt>
      <trkpt lat="28.17225" lon="-16.54515">
        <ele>1519</ele>
        <time>2024-03-30T13:27:41.000Z</time>
      </trkpt>
      <trkpt lat="28.172183333333333" lon="-16.54521666666667">
        <ele>1517</ele>
        <time>2024-03-30T13:27:42.000Z</time>
      </trkpt>
      <trkpt lat="28.1721" lon="-16.5453">
        <ele>1515</ele>
        <time>2024-03-30T13:27:43.000Z</time>
      </trkpt>
      <trkpt lat="28.172016666666668" lon="-16.545366666666666">
        <ele>1514</ele>
        <time>2024-03-30T13:27:44.000Z</time>
      </trkpt>
      <trkpt lat="28.1719" lon="-16.545416666666668">
        <ele>1514</ele>
        <time>2024-03-30T13:27:45.000Z</time>
      </trkpt>
      <trkpt lat="28.1718" lon="-16.54545">
        <ele>1513</ele>
        <time>2024-03-30T13:27:46.000Z</time>
      </trkpt>
      <trkpt lat="28.1717" lon="-16.545483333333333">
        <ele>1513</ele>
        <time>2024-03-30T13:27:47.000Z</time>
      </trkpt>
      <trkpt lat="28.171633333333332" lon="-16.545533333333335">
        <ele>1511</ele>
        <time>2024-03-30T13:27:48.000Z</time>
      </trkpt>
      <trkpt lat="28.17155" lon="-16.545616666666668">
        <ele>1508</ele>
        <time>2024-03-30T13:27:49.000Z</time>
      </trkpt>
      <trkpt lat="28.17145" lon="-16.5457">
        <ele>1505</ele>
        <time>2024-03-30T13:27:50.000Z</time>
      </trkpt>
      <trkpt lat="28.171366666666668" lon="-16.545783333333333">
        <ele>1502</ele>
        <time>2024-03-30T13:27:51.000Z</time>
      </trkpt>
      <trkpt lat="28.17125" lon="-16.545833333333334">
        <ele>1499</ele>
        <time>2024-03-30T13:27:52.000Z</time>
      </trkpt>
      <trkpt lat="28.171133333333334" lon="-16.545866666666665">
        <ele>1498</ele>
        <time>2024-03-30T13:27:53.000Z</time>
      </trkpt>
      <trkpt lat="28.171016666666667" lon="-16.545916666666667">
        <ele>1496</ele>
        <time>2024-03-30T13:27:54.000Z</time>
      </trkpt>
      <trkpt lat="28.1709" lon="-16.545966666666665">
        <ele>1495</ele>
        <time>2024-03-30T13:27:55.000Z</time>
      </trkpt>
      <trkpt lat="28.1708" lon="-16.546033333333334">
        <ele>1493</ele>
        <time>2024-03-30T13:27:56.000Z</time>
      </trkpt>
      <trkpt lat="28.1707" lon="-16.5461">
        <ele>1491</ele>
        <time>2024-03-30T13:27:57.000Z</time>
      </trkpt>
      <trkpt lat="28.1706" lon="-16.54615">
        <ele>1490</ele>
        <time>2024-03-30T13:27:58.000Z</time>
      </trkpt>
      <trkpt lat="28.170466666666666" lon="-16.5462">
        <ele>1487</ele>
        <time>2024-03-30T13:27:59.000Z</time>
      </trkpt>
      <trkpt lat="28.170333333333332" lon="-16.546233333333333">
        <ele>1486</ele>
        <time>2024-03-30T13:28:00.000Z</time>
      </trkpt>
      <trkpt lat="28.170216666666665" lon="-16.546283333333335">
        <ele>1485</ele>
        <time>2024-03-30T13:28:01.000Z</time>
      </trkpt>
      <trkpt lat="28.1701" lon="-16.546333333333333">
        <ele>1485</ele>
        <time>2024-03-30T13:28:02.000Z</time>
      </trkpt>
      <trkpt lat="28.17" lon="-16.546366666666668">
        <ele>1486</ele>
        <time>2024-03-30T13:28:03.000Z</time>
      </trkpt>
      <trkpt lat="28.1699" lon="-16.546366666666668">
        <ele>1485</ele>
        <time>2024-03-30T13:28:04.000Z</time>
      </trkpt>
      <trkpt lat="28.169833333333333" lon="-16.5463">
        <ele>1482</ele>
        <time>2024-03-30T13:28:05.000Z</time>
      </trkpt>
      <trkpt lat="28.169816666666666" lon="-16.54618333333333">
        <ele>1478</ele>
        <time>2024-03-30T13:28:06.000Z</time>
      </trkpt>
      <trkpt lat="28.16985" lon="-16.54605">
        <ele>1476</ele>
        <time>2024-03-30T13:28:07.000Z</time>
      </trkpt>
      <trkpt lat="28.169916666666666" lon="-16.545966666666665">
        <ele>1477</ele>
        <time>2024-03-30T13:28:08.000Z</time>
      </trkpt>
      <trkpt lat="28.17" lon="-16.545933333333334">
        <ele>1478</ele>
        <time>2024-03-30T13:28:09.000Z</time>
      </trkpt>
      <trkpt lat="28.170083333333334" lon="-16.545933333333334">
        <ele>1476</ele>
        <time>2024-03-30T13:28:10.000Z</time>
      </trkpt>
      <trkpt lat="28.17015" lon="-16.54595">
        <ele>1474</ele>
        <time>2024-03-30T13:28:11.000Z</time>
      </trkpt>
      <trkpt lat="28.170216666666665" lon="-16.54595">
        <ele>1470</ele>
        <time>2024-03-30T13:28:12.000Z</time>
      </trkpt>
      <trkpt lat="28.170333333333332" lon="-16.545933333333334">
        <ele>1466</ele>
        <time>2024-03-30T13:28:13.000Z</time>
      </trkpt>
      <trkpt lat="28.17045" lon="-16.545916666666667">
        <ele>1464</ele>
        <time>2024-03-30T13:28:14.000Z</time>
      </trkpt>
      <trkpt lat="28.170566666666666" lon="-16.545916666666667">
        <ele>1465</ele>
        <time>2024-03-30T13:28:15.000Z</time>
      </trkpt>
      <trkpt lat="28.170666666666666" lon="-16.54595">
        <ele>1466</ele>
        <time>2024-03-30T13:28:16.000Z</time>
      </trkpt>
      <trkpt lat="28.17075" lon="-16.545966666666665">
        <ele>1465</ele>
        <time>2024-03-30T13:28:17.000Z</time>
      </trkpt>
      <trkpt lat="28.170816666666667" lon="-16.545983333333332">
        <ele>1462</ele>
        <time>2024-03-30T13:28:18.000Z</time>
      </trkpt>
      <trkpt lat="28.170916666666667" lon="-16.545983333333332">
        <ele>1457</ele>
        <time>2024-03-30T13:28:19.000Z</time>
      </trkpt>
      <trkpt lat="28.171033333333334" lon="-16.546">
        <ele>1452</ele>
        <time>2024-03-30T13:28:20.000Z</time>
      </trkpt>
      <trkpt lat="28.17115" lon="-16.545983333333332">
        <ele>1448</ele>
        <time>2024-03-30T13:28:21.000Z</time>
      </trkpt>
      <trkpt lat="28.1713" lon="-16.54595">
        <ele>1444</ele>
        <time>2024-03-30T13:28:22.000Z</time>
      </trkpt>
      <trkpt lat="28.171433333333333" lon="-16.545916666666667">
        <ele>1443</ele>
        <time>2024-03-30T13:28:23.000Z</time>
      </trkpt>
      <trkpt lat="28.17155" lon="-16.545866666666665">
        <ele>1442</ele>
        <time>2024-03-30T13:28:24.000Z</time>
      </trkpt>
      <trkpt lat="28.171666666666667" lon="-16.545816666666667">
        <ele>1441</ele>
        <time>2024-03-30T13:28:25.000Z</time>
      </trkpt>
      <trkpt lat="28.171766666666667" lon="-16.545783333333333">
        <ele>1440</ele>
        <time>2024-03-30T13:28:26.000Z</time>
      </trkpt>
      <trkpt lat="28.171866666666666" lon="-16.545766666666665">
        <ele>1439</ele>
        <time>2024-03-30T13:28:27.000Z</time>
      </trkpt>
      <trkpt lat="28.171966666666666" lon="-16.545749999999998">
        <ele>1437</ele>
        <time>2024-03-30T13:28:28.000Z</time>
      </trkpt>
      <trkpt lat="28.172066666666666" lon="-16.545733333333335">
        <ele>1434</ele>
        <time>2024-03-30T13:28:29.000Z</time>
      </trkpt>
      <trkpt lat="28.172183333333333" lon="-16.545716666666667">
        <ele>1430</ele>
        <time>2024-03-30T13:28:30.000Z</time>
      </trkpt>
      <trkpt lat="28.1723" lon="-16.5457">
        <ele>1426</ele>
        <time>2024-03-30T13:28:31.000Z</time>
      </trkpt>
      <trkpt lat="28.172416666666667" lon="-16.545666666666666">
        <ele>1423</ele>
        <time>2024-03-30T13:28:32.000Z</time>
      </trkpt>
      <trkpt lat="28.1725" lon="-16.545583333333333">
        <ele>1420</ele>
        <time>2024-03-30T13:28:33.000Z</time>
      </trkpt>
      <trkpt lat="28.172583333333332" lon="-16.5455">
        <ele>1419</ele>
        <time>2024-03-30T13:28:34.000Z</time>
      </trkpt>
      <trkpt lat="28.172666666666668" lon="-16.54545">
        <ele>1418</ele>
        <time>2024-03-30T13:28:35.000Z</time>
      </trkpt>
      <trkpt lat="28.172766666666668" lon="-16.545416666666668">
        <ele>1417</ele>
        <time>2024-03-30T13:28:36.000Z</time>
      </trkpt>
      <trkpt lat="28.172866666666668" lon="-16.545416666666668">
        <ele>1416</ele>
        <time>2024-03-30T13:28:37.000Z</time>
      </trkpt>
      <trkpt lat="28.172966666666667" lon="-16.5454">
        <ele>1413</ele>
        <time>2024-03-30T13:28:38.000Z</time>
      </trkpt>
      <trkpt lat="28.173066666666667" lon="-16.5454">
        <ele>1409</ele>
        <time>2024-03-30T13:28:39.000Z</time>
      </trkpt>
      <trkpt lat="28.173166666666667" lon="-16.545366666666666">
        <ele>1404</ele>
        <time>2024-03-30T13:28:40.000Z</time>
      </trkpt>
      <trkpt lat="28.1733" lon="-16.54531666666667">
        <ele>1401</ele>
        <time>2024-03-30T13:28:41.000Z</time>
      </trkpt>
      <trkpt lat="28.173416666666668" lon="-16.545266666666667">
        <ele>1399</ele>
        <time>2024-03-30T13:28:42.000Z</time>
      </trkpt>
      <trkpt lat="28.173533333333335" lon="-16.54525">
        <ele>1398</ele>
        <time>2024-03-30T13:28:43.000Z</time>
      </trkpt>
      <trkpt lat="28.17365" lon="-16.545233333333332">
        <ele>1397</ele>
        <time>2024-03-30T13:28:44.000Z</time>
      </trkpt>
      <trkpt lat="28.173766666666666" lon="-16.54525">
        <ele>1397</ele>
        <time>2024-03-30T13:28:45.000Z</time>
      </trkpt>
      <trkpt lat="28.173866666666665" lon="-16.54525">
        <ele>1395</ele>
        <time>2024-03-30T13:28:46.000Z</time>
      </trkpt>
      <trkpt lat="28.173966666666665" lon="-16.54521666666667">
        <ele>1392</ele>
        <time>2024-03-30T13:28:47.000Z</time>
      </trkpt>
      <trkpt lat="28.17406666666667" lon="-16.54515">
        <ele>1389</ele>
        <time>2024-03-30T13:28:48.000Z</time>
      </trkpt>
      <trkpt lat="28.174166666666668" lon="-16.545083333333334">
        <ele>1388</ele>
        <time>2024-03-30T13:28:49.000Z</time>
      </trkpt>
      <trkpt lat="28.174283333333335" lon="-16.54505">
        <ele>1388</ele>
        <time>2024-03-30T13:28:50.000Z</time>
      </trkpt>
      <trkpt lat="28.174383333333335" lon="-16.545">
        <ele>1388</ele>
        <time>2024-03-30T13:28:51.000Z</time>
      </trkpt>
      <trkpt lat="28.174483333333335" lon="-16.54495">
        <ele>1387</ele>
        <time>2024-03-30T13:28:52.000Z</time>
      </trkpt>
      <trkpt lat="28.17455" lon="-16.544883333333335">
        <ele>1386</ele>
        <time>2024-03-30T13:28:53.000Z</time>
      </trkpt>
      <trkpt lat="28.174616666666665" lon="-16.5448">
        <ele>1385</ele>
        <time>2024-03-30T13:28:54.000Z</time>
      </trkpt>
      <trkpt lat="28.174683333333334" lon="-16.5447">
        <ele>1384</ele>
        <time>2024-03-30T13:28:55.000Z</time>
      </trkpt>
      <trkpt lat="28.174766666666667" lon="-16.544633333333334">
        <ele>1383</ele>
        <time>2024-03-30T13:28:56.000Z</time>
      </trkpt>
      <trkpt lat="28.174833333333332" lon="-16.54455">
        <ele>1382</ele>
        <time>2024-03-30T13:28:57.000Z</time>
      </trkpt>
      <trkpt lat="28.174916666666668" lon="-16.544483333333332">
        <ele>1380</ele>
        <time>2024-03-30T13:28:58.000Z</time>
      </trkpt>
      <trkpt lat="28.175" lon="-16.544416666666667">
        <ele>1379</ele>
        <time>2024-03-30T13:28:59.000Z</time>
      </trkpt>
      <trkpt lat="28.1751" lon="-16.544366666666665">
        <ele>1378</ele>
        <time>2024-03-30T13:29:00.000Z</time>
      </trkpt>
      <trkpt lat="28.1752" lon="-16.544316666666667">
        <ele>1375</ele>
        <time>2024-03-30T13:29:01.000Z</time>
      </trkpt>
      <trkpt lat="28.1753" lon="-16.544283333333333">
        <ele>1373</ele>
        <time>2024-03-30T13:29:02.000Z</time>
      </trkpt>
      <trkpt lat="28.175383333333333" lon="-16.544233333333334">
        <ele>1368</ele>
        <time>2024-03-30T13:29:03.000Z</time>
      </trkpt>
      <trkpt lat="28.1755" lon="-16.544183333333333">
        <ele>1365</ele>
        <time>2024-03-30T13:29:04.000Z</time>
      </trkpt>
      <trkpt lat="28.1756" lon="-16.544133333333335">
        <ele>1364</ele>
        <time>2024-03-30T13:29:05.000Z</time>
      </trkpt>
      <trkpt lat="28.175716666666666" lon="-16.5441">
        <ele>1363</ele>
        <time>2024-03-30T13:29:06.000Z</time>
      </trkpt>
      <trkpt lat="28.1758" lon="-16.54405">
        <ele>1363</ele>
        <time>2024-03-30T13:29:07.000Z</time>
      </trkpt>
      <trkpt lat="28.175866666666668" lon="-16.544016666666668">
        <ele>1361</ele>
        <time>2024-03-30T13:29:08.000Z</time>
      </trkpt>
      <trkpt lat="28.175933333333333" lon="-16.54395">
        <ele>1359</ele>
        <time>2024-03-30T13:29:09.000Z</time>
      </trkpt>
      <trkpt lat="28.176" lon="-16.543883333333333">
        <ele>1356</ele>
        <time>2024-03-30T13:29:10.000Z</time>
      </trkpt>
      <trkpt lat="28.176066666666667" lon="-16.543833333333332">
        <ele>1353</ele>
        <time>2024-03-30T13:29:11.000Z</time>
      </trkpt>
      <trkpt lat="28.17615" lon="-16.543783333333334">
        <ele>1351</ele>
        <time>2024-03-30T13:29:12.000Z</time>
      </trkpt>
      <trkpt lat="28.176216666666665" lon="-16.543733333333332">
        <ele>1349</ele>
        <time>2024-03-30T13:29:13.000Z</time>
      </trkpt>
      <trkpt lat="28.1763" lon="-16.5437">
        <ele>1348</ele>
        <time>2024-03-30T13:29:14.000Z</time>
      </trkpt>
      <trkpt lat="28.17635" lon="-16.54365">
        <ele>1346</ele>
        <time>2024-03-30T13:29:15.000Z</time>
      </trkpt>
      <trkpt lat="28.1764" lon="-16.5436">
        <ele>1343</ele>
        <time>2024-03-30T13:29:16.000Z</time>
      </trkpt>
      <trkpt lat="28.176466666666666" lon="-16.543566666666667">
        <ele>1339</ele>
        <time>2024-03-30T13:29:17.000Z</time>
      </trkpt>
      <trkpt lat="28.17655" lon="-16.543516666666665">
        <ele>1336</ele>
        <time>2024-03-30T13:29:18.000Z</time>
      </trkpt>
      <trkpt lat="28.176616666666668" lon="-16.54345">
        <ele>1334</ele>
        <time>2024-03-30T13:29:19.000Z</time>
      </trkpt>
      <trkpt lat="28.1767" lon="-16.543366666666667">
        <ele>1333</ele>
        <time>2024-03-30T13:29:20.000Z</time>
      </trkpt>
      <trkpt lat="28.1768" lon="-16.5433">
        <ele>1333</ele>
        <time>2024-03-30T13:29:21.000Z</time>
      </trkpt>
      <trkpt lat="28.176883333333333" lon="-16.543266666666668">
        <ele>1333</ele>
        <time>2024-03-30T13:29:22.000Z</time>
      </trkpt>
      <trkpt lat="28.176966666666665" lon="-16.543216666666666">
        <ele>1332</ele>
        <time>2024-03-30T13:29:23.000Z</time>
      </trkpt>
      <trkpt lat="28.17705" lon="-16.54315">
        <ele>1330</ele>
        <time>2024-03-30T13:29:24.000Z</time>
      </trkpt>
      <trkpt lat="28.17715" lon="-16.543083333333332">
        <ele>1329</ele>
        <time>2024-03-30T13:29:25.000Z</time>
      </trkpt>
      <trkpt lat="28.177216666666666" lon="-16.542983333333332">
        <ele>1329</ele>
        <time>2024-03-30T13:29:26.000Z</time>
      </trkpt>
      <trkpt lat="28.1773" lon="-16.5429">
        <ele>1331</ele>
        <time>2024-03-30T13:29:27.000Z</time>
      </trkpt>
      <trkpt lat="28.177366666666668" lon="-16.542833333333334">
        <ele>1335</ele>
        <time>2024-03-30T13:29:28.000Z</time>
      </trkpt>
      <trkpt lat="28.177433333333333" lon="-16.5428">
        <ele>1337</ele>
        <time>2024-03-30T13:29:29.000Z</time>
      </trkpt>
      <trkpt lat="28.1775" lon="-16.542783333333333">
        <ele>1336</ele>
        <time>2024-03-30T13:29:30.000Z</time>
      </trkpt>
      <trkpt lat="28.177566666666667" lon="-16.54275">
        <ele>1334</ele>
        <time>2024-03-30T13:29:31.000Z</time>
      </trkpt>
      <trkpt lat="28.177633333333333" lon="-16.542733333333334">
        <ele>1332</ele>
        <time>2024-03-30T13:29:32.000Z</time>
      </trkpt>
      <trkpt lat="28.177733333333332" lon="-16.5427">
        <ele>1332</ele>
        <time>2024-03-30T13:29:33.000Z</time>
      </trkpt>
      <trkpt lat="28.17785" lon="-16.542666666666666">
        <ele>1333</ele>
        <time>2024-03-30T13:29:34.000Z</time>
      </trkpt>
      <trkpt lat="28.17795" lon="-16.542666666666666">
        <ele>1335</ele>
        <time>2024-03-30T13:29:35.000Z</time>
      </trkpt>
      <trkpt lat="28.17805" lon="-16.54265">
        <ele>1338</ele>
        <time>2024-03-30T13:29:36.000Z</time>
      </trkpt>
      <trkpt lat="28.178133333333335" lon="-16.54265">
        <ele>1341</ele>
        <time>2024-03-30T13:29:37.000Z</time>
      </trkpt>
      <trkpt lat="28.178183333333333" lon="-16.542616666666667">
        <ele>1342</ele>
        <time>2024-03-30T13:29:38.000Z</time>
      </trkpt>
      <trkpt lat="28.178216666666668" lon="-16.542583333333333">
        <ele>1342</ele>
        <time>2024-03-30T13:29:39.000Z</time>
      </trkpt>
      <trkpt lat="28.178233333333335" lon="-16.542533333333335">
        <ele>1343</ele>
        <time>2024-03-30T13:29:40.000Z</time>
      </trkpt>
      <trkpt lat="28.178216666666668" lon="-16.542483333333333">
        <ele>1344</ele>
        <time>2024-03-30T13:29:41.000Z</time>
      </trkpt>
      <trkpt lat="28.178166666666666" lon="-16.542416666666668">
        <ele>1344</ele>
        <time>2024-03-30T13:29:42.000Z</time>
      </trkpt>
      <trkpt lat="28.178083333333333" lon="-16.542383333333333">
        <ele>1345</ele>
        <time>2024-03-30T13:29:43.000Z</time>
      </trkpt>
      <trkpt lat="28.177983333333334" lon="-16.542416666666668">
        <ele>1346</ele>
        <time>2024-03-30T13:29:44.000Z</time>
      </trkpt>
      <trkpt lat="28.17791666666667" lon="-16.542516666666668">
        <ele>1349</ele>
        <time>2024-03-30T13:29:45.000Z</time>
      </trkpt>
      <trkpt lat="28.177883333333334" lon="-16.542633333333335">
        <ele>1352</ele>
        <time>2024-03-30T13:29:46.000Z</time>
      </trkpt>
      <trkpt lat="28.17791666666667" lon="-16.542783333333333">
        <ele>1354</ele>
        <time>2024-03-30T13:29:47.000Z</time>
      </trkpt>
      <trkpt lat="28.178" lon="-16.542916666666667">
        <ele>1354</ele>
        <time>2024-03-30T13:29:48.000Z</time>
      </trkpt>
      <trkpt lat="28.1781" lon="-16.543016666666666">
        <ele>1356</ele>
        <time>2024-03-30T13:29:49.000Z</time>
      </trkpt>
      <trkpt lat="28.1782" lon="-16.543083333333332">
        <ele>1358</ele>
        <time>2024-03-30T13:29:50.000Z</time>
      </trkpt>
      <trkpt lat="28.1783" lon="-16.543116666666666">
        <ele>1360</ele>
        <time>2024-03-30T13:29:51.000Z</time>
      </trkpt>
      <trkpt lat="28.178416666666667" lon="-16.543133333333333">
        <ele>1362</ele>
        <time>2024-03-30T13:29:52.000Z</time>
      </trkpt>
      <trkpt lat="28.1785" lon="-16.543116666666666">
        <ele>1364</ele>
        <time>2024-03-30T13:29:53.000Z</time>
      </trkpt>
      <trkpt lat="28.178566666666665" lon="-16.5431">
        <ele>1365</ele>
        <time>2024-03-30T13:29:54.000Z</time>
      </trkpt>
      <trkpt lat="28.178583333333332" lon="-16.54305">
        <ele>1364</ele>
        <time>2024-03-30T13:29:55.000Z</time>
      </trkpt>
      <trkpt lat="28.178583333333332" lon="-16.54296666666667">
        <ele>1364</ele>
        <time>2024-03-30T13:29:56.000Z</time>
      </trkpt>
      <trkpt lat="28.178533333333334" lon="-16.5429">
        <ele>1364</ele>
        <time>2024-03-30T13:29:57.000Z</time>
      </trkpt>
      <trkpt lat="28.17845" lon="-16.542883333333332">
        <ele>1365</ele>
        <time>2024-03-30T13:29:58.000Z</time>
      </trkpt>
      <trkpt lat="28.178366666666665" lon="-16.5429">
        <ele>1367</ele>
        <time>2024-03-30T13:29:59.000Z</time>
      </trkpt>
      <trkpt lat="28.1783" lon="-16.54296666666667">
        <ele>1370</ele>
        <time>2024-03-30T13:30:00.000Z</time>
      </trkpt>
      <trkpt lat="28.17825" lon="-16.543033333333334">
        <ele>1374</ele>
        <time>2024-03-30T13:30:01.000Z</time>
      </trkpt>
      <trkpt lat="28.178233333333335" lon="-16.543133333333333">
        <ele>1375</ele>
        <time>2024-03-30T13:30:02.000Z</time>
      </trkpt>
      <trkpt lat="28.178216666666668" lon="-16.543233333333333">
        <ele>1375</ele>
        <time>2024-03-30T13:30:03.000Z</time>
      </trkpt>
      <trkpt lat="28.17825" lon="-16.543383333333335">
        <ele>1374</ele>
        <time>2024-03-30T13:30:04.000Z</time>
      </trkpt>
      <trkpt lat="28.178316666666667" lon="-16.543516666666665">
        <ele>1374</ele>
        <time>2024-03-30T13:30:05.000Z</time>
      </trkpt>
      <trkpt lat="28.1784" lon="-16.543633333333332">
        <ele>1375</ele>
        <time>2024-03-30T13:30:06.000Z</time>
      </trkpt>
      <trkpt lat="28.178516666666667" lon="-16.5437">
        <ele>1377</ele>
        <time>2024-03-30T13:30:07.000Z</time>
      </trkpt>
      <trkpt lat="28.178616666666667" lon="-16.54371666666667">
        <ele>1380</ele>
        <time>2024-03-30T13:30:08.000Z</time>
      </trkpt>
      <trkpt lat="28.178716666666666" lon="-16.5437">
        <ele>1381</ele>
        <time>2024-03-30T13:30:09.000Z</time>
      </trkpt>
      <trkpt lat="28.17878333333333" lon="-16.543666666666667">
        <ele>1380</ele>
        <time>2024-03-30T13:30:10.000Z</time>
      </trkpt>
      <trkpt lat="28.178816666666666" lon="-16.543616666666665">
        <ele>1381</ele>
        <time>2024-03-30T13:30:11.000Z</time>
      </trkpt>
      <trkpt lat="28.178833333333333" lon="-16.543583333333334">
        <ele>1381</ele>
        <time>2024-03-30T13:30:12.000Z</time>
      </trkpt>
      <trkpt lat="28.178833333333333" lon="-16.543516666666665">
        <ele>1381</ele>
        <time>2024-03-30T13:30:13.000Z</time>
      </trkpt>
      <trkpt lat="28.178816666666666" lon="-16.543433333333333">
        <ele>1382</ele>
        <time>2024-03-30T13:30:14.000Z</time>
      </trkpt>
      <trkpt lat="28.178766666666668" lon="-16.5434">
        <ele>1382</ele>
        <time>2024-03-30T13:30:15.000Z</time>
      </trkpt>
      <trkpt lat="28.1787" lon="-16.5434">
        <ele>1383</ele>
        <time>2024-03-30T13:30:16.000Z</time>
      </trkpt>
      <trkpt lat="28.178633333333334" lon="-16.54345">
        <ele>1382</ele>
        <time>2024-03-30T13:30:17.000Z</time>
      </trkpt>
      <trkpt lat="28.178566666666665" lon="-16.54355">
        <ele>1383</ele>
        <time>2024-03-30T13:30:18.000Z</time>
      </trkpt>
      <trkpt lat="28.178533333333334" lon="-16.543683333333334">
        <ele>1383</ele>
        <time>2024-03-30T13:30:19.000Z</time>
      </trkpt>
      <trkpt lat="28.178533333333334" lon="-16.543833333333332">
        <ele>1384</ele>
        <time>2024-03-30T13:30:20.000Z</time>
      </trkpt>
      <trkpt lat="28.178566666666665" lon="-16.54395">
        <ele>1386</ele>
        <time>2024-03-30T13:30:21.000Z</time>
      </trkpt>
      <trkpt lat="28.178616666666667" lon="-16.544066666666666">
        <ele>1387</ele>
        <time>2024-03-30T13:30:22.000Z</time>
      </trkpt>
      <trkpt lat="28.1787" lon="-16.54415">
        <ele>1387</ele>
        <time>2024-03-30T13:30:23.000Z</time>
      </trkpt>
      <trkpt lat="28.17878333333333" lon="-16.544216666666667">
        <ele>1388</ele>
        <time>2024-03-30T13:30:24.000Z</time>
      </trkpt>
      <trkpt lat="28.178883333333335" lon="-16.544266666666665">
        <ele>1387</ele>
        <time>2024-03-30T13:30:25.000Z</time>
      </trkpt>
      <trkpt lat="28.178983333333335" lon="-16.544283333333333">
        <ele>1387</ele>
        <time>2024-03-30T13:30:26.000Z</time>
      </trkpt>
      <trkpt lat="28.1791" lon="-16.544283333333333">
        <ele>1386</ele>
        <time>2024-03-30T13:30:27.000Z</time>
      </trkpt>
      <trkpt lat="28.1792" lon="-16.544266666666665">
        <ele>1386</ele>
        <time>2024-03-30T13:30:28.000Z</time>
      </trkpt>
      <trkpt lat="28.179316666666665" lon="-16.54425">
        <ele>1386</ele>
        <time>2024-03-30T13:30:29.000Z</time>
      </trkpt>
      <trkpt lat="28.17941666666667" lon="-16.544233333333334">
        <ele>1386</ele>
        <time>2024-03-30T13:30:30.000Z</time>
      </trkpt>
      <trkpt lat="28.179516666666668" lon="-16.544216666666667">
        <ele>1386</ele>
        <time>2024-03-30T13:30:31.000Z</time>
      </trkpt>
      <trkpt lat="28.1796" lon="-16.544183333333333">
        <ele>1385</ele>
        <time>2024-03-30T13:30:32.000Z</time>
      </trkpt>
      <trkpt lat="28.179683333333333" lon="-16.54415">
        <ele>1383</ele>
        <time>2024-03-30T13:30:33.000Z</time>
      </trkpt>
      <trkpt lat="28.17975" lon="-16.544083333333333">
        <ele>1382</ele>
        <time>2024-03-30T13:30:34.000Z</time>
      </trkpt>
      <trkpt lat="28.179816666666667" lon="-16.544016666666668">
        <ele>1380</ele>
        <time>2024-03-30T13:30:35.000Z</time>
      </trkpt>
      <trkpt lat="28.1799" lon="-16.54395">
        <ele>1379</ele>
        <time>2024-03-30T13:30:36.000Z</time>
      </trkpt>
      <trkpt lat="28.17995" lon="-16.543883333333333">
        <ele>1378</ele>
        <time>2024-03-30T13:30:37.000Z</time>
      </trkpt>
      <trkpt lat="28.179983333333332" lon="-16.5438">
        <ele>1376</ele>
        <time>2024-03-30T13:30:38.000Z</time>
      </trkpt>
      <trkpt lat="28.180033333333334" lon="-16.54371666666667">
        <ele>1374</ele>
        <time>2024-03-30T13:30:39.000Z</time>
      </trkpt>
      <trkpt lat="28.180066666666665" lon="-16.543633333333332">
        <ele>1371</ele>
        <time>2024-03-30T13:30:40.000Z</time>
      </trkpt>
      <trkpt lat="28.180133333333334" lon="-16.543533333333333">
        <ele>1369</ele>
        <time>2024-03-30T13:30:41.000Z</time>
      </trkpt>
      <trkpt lat="28.1802" lon="-16.54345">
        <ele>1369</ele>
        <time>2024-03-30T13:30:42.000Z</time>
      </trkpt>
      <trkpt lat="28.180266666666668" lon="-16.543383333333335">
        <ele>1369</ele>
        <time>2024-03-30T13:30:43.000Z</time>
      </trkpt>
      <trkpt lat="28.180316666666666" lon="-16.543283333333335">
        <ele>1369</ele>
        <time>2024-03-30T13:30:44.000Z</time>
      </trkpt>
      <trkpt lat="28.180366666666668" lon="-16.54318333333333">
        <ele>1370</ele>
        <time>2024-03-30T13:30:45.000Z</time>
      </trkpt>
      <trkpt lat="28.180416666666666" lon="-16.543066666666668">
        <ele>1372</ele>
        <time>2024-03-30T13:30:46.000Z</time>
      </trkpt>
      <trkpt lat="28.18045" lon="-16.543">
        <ele>1374</ele>
        <time>2024-03-30T13:30:47.000Z</time>
      </trkpt>
      <trkpt lat="28.1805" lon="-16.542933333333334">
        <ele>1374</ele>
        <time>2024-03-30T13:30:48.000Z</time>
      </trkpt>
      <trkpt lat="28.180533333333333" lon="-16.542883333333332">
        <ele>1372</ele>
        <time>2024-03-30T13:30:49.000Z</time>
      </trkpt>
      <trkpt lat="28.180566666666667" lon="-16.542816666666667">
        <ele>1369</ele>
        <time>2024-03-30T13:30:50.000Z</time>
      </trkpt>
      <trkpt lat="28.180616666666666" lon="-16.542733333333334">
        <ele>1366</ele>
        <time>2024-03-30T13:30:51.000Z</time>
      </trkpt>
      <trkpt lat="28.18065" lon="-16.54265">
        <ele>1364</ele>
        <time>2024-03-30T13:30:52.000Z</time>
      </trkpt>
      <trkpt lat="28.1807" lon="-16.54255">
        <ele>1363</ele>
        <time>2024-03-30T13:30:53.000Z</time>
      </trkpt>
      <trkpt lat="28.18075" lon="-16.542466666666666">
        <ele>1364</ele>
        <time>2024-03-30T13:30:54.000Z</time>
      </trkpt>
      <trkpt lat="28.180783333333334" lon="-16.542416666666668">
        <ele>1364</ele>
        <time>2024-03-30T13:30:55.000Z</time>
      </trkpt>
      <trkpt lat="28.180833333333332" lon="-16.542366666666666">
        <ele>1362</ele>
        <time>2024-03-30T13:30:56.000Z</time>
      </trkpt>
      <trkpt lat="28.180883333333334" lon="-16.542316666666668">
        <ele>1360</ele>
        <time>2024-03-30T13:30:57.000Z</time>
      </trkpt>
      <trkpt lat="28.180933333333332" lon="-16.54225">
        <ele>1356</ele>
        <time>2024-03-30T13:30:58.000Z</time>
      </trkpt>
      <trkpt lat="28.181" lon="-16.542183333333334">
        <ele>1354</ele>
        <time>2024-03-30T13:30:59.000Z</time>
      </trkpt>
      <trkpt lat="28.181033333333332" lon="-16.542083333333334">
        <ele>1352</ele>
        <time>2024-03-30T13:31:00.000Z</time>
      </trkpt>
      <trkpt lat="28.181083333333333" lon="-16.542">
        <ele>1351</ele>
        <time>2024-03-30T13:31:01.000Z</time>
      </trkpt>
      <trkpt lat="28.1811" lon="-16.5419">
        <ele>1351</ele>
        <time>2024-03-30T13:31:02.000Z</time>
      </trkpt>
      <trkpt lat="28.181116666666668" lon="-16.541833333333333">
        <ele>1351</ele>
        <time>2024-03-30T13:31:03.000Z</time>
      </trkpt>
      <trkpt lat="28.18113333333333" lon="-16.541766666666668">
        <ele>1351</ele>
        <time>2024-03-30T13:31:04.000Z</time>
      </trkpt>
      <trkpt lat="28.18115" lon="-16.5417">
        <ele>1351</ele>
        <time>2024-03-30T13:31:05.000Z</time>
      </trkpt>
      <trkpt lat="28.181183333333333" lon="-16.541633333333333">
        <ele>1350</ele>
        <time>2024-03-30T13:31:06.000Z</time>
      </trkpt>
      <trkpt lat="28.1812" lon="-16.54155">
        <ele>1348</ele>
        <time>2024-03-30T13:31:07.000Z</time>
      </trkpt>
      <trkpt lat="28.18125" lon="-16.54146666666667">
        <ele>1345</ele>
        <time>2024-03-30T13:31:08.000Z</time>
      </trkpt>
      <trkpt lat="28.1813" lon="-16.541383333333332">
        <ele>1341</ele>
        <time>2024-03-30T13:31:09.000Z</time>
      </trkpt>
      <trkpt lat="28.18135" lon="-16.541316666666667">
        <ele>1337</ele>
        <time>2024-03-30T13:31:10.000Z</time>
      </trkpt>
      <trkpt lat="28.181433333333334" lon="-16.541233333333334">
        <ele>1332</ele>
        <time>2024-03-30T13:31:11.000Z</time>
      </trkpt>
      <trkpt lat="28.181483333333333" lon="-16.541133333333335">
        <ele>1328</ele>
        <time>2024-03-30T13:31:12.000Z</time>
      </trkpt>
      <trkpt lat="28.181533333333334" lon="-16.541033333333335">
        <ele>1324</ele>
        <time>2024-03-30T13:31:13.000Z</time>
      </trkpt>
      <trkpt lat="28.181566666666665" lon="-16.5409">
        <ele>1321</ele>
        <time>2024-03-30T13:31:14.000Z</time>
      </trkpt>
      <trkpt lat="28.181583333333332" lon="-16.540783333333334">
        <ele>1320</ele>
        <time>2024-03-30T13:31:15.000Z</time>
      </trkpt>
      <trkpt lat="28.1816" lon="-16.540666666666667">
        <ele>1320</ele>
        <time>2024-03-30T13:31:16.000Z</time>
      </trkpt>
      <trkpt lat="28.181633333333334" lon="-16.540583333333334">
        <ele>1321</ele>
        <time>2024-03-30T13:31:17.000Z</time>
      </trkpt>
      <trkpt lat="28.18165" lon="-16.5405">
        <ele>1320</ele>
        <time>2024-03-30T13:31:18.000Z</time>
      </trkpt>
      <trkpt lat="28.18166666666667" lon="-16.540416666666665">
        <ele>1319</ele>
        <time>2024-03-30T13:31:19.000Z</time>
      </trkpt>
      <trkpt lat="28.1817" lon="-16.540333333333333">
        <ele>1316</ele>
        <time>2024-03-30T13:31:20.000Z</time>
      </trkpt>
      <trkpt lat="28.181716666666667" lon="-16.540233333333333">
        <ele>1312</ele>
        <time>2024-03-30T13:31:21.000Z</time>
      </trkpt>
      <trkpt lat="28.181766666666668" lon="-16.540116666666666">
        <ele>1309</ele>
        <time>2024-03-30T13:31:22.000Z</time>
      </trkpt>
      <trkpt lat="28.181816666666666" lon="-16.540016666666666">
        <ele>1308</ele>
        <time>2024-03-30T13:31:23.000Z</time>
      </trkpt>
      <trkpt lat="28.181866666666668" lon="-16.539916666666667">
        <ele>1307</ele>
        <time>2024-03-30T13:31:24.000Z</time>
      </trkpt>
      <trkpt lat="28.1819" lon="-16.539816666666667">
        <ele>1306</ele>
        <time>2024-03-30T13:31:25.000Z</time>
      </trkpt>
      <trkpt lat="28.18195" lon="-16.539716666666667">
        <ele>1304</ele>
        <time>2024-03-30T13:31:26.000Z</time>
      </trkpt>
      <trkpt lat="28.181983333333335" lon="-16.539616666666667">
        <ele>1302</ele>
        <time>2024-03-30T13:31:27.000Z</time>
      </trkpt>
      <trkpt lat="28.182033333333333" lon="-16.539516666666668">
        <ele>1300</ele>
        <time>2024-03-30T13:31:28.000Z</time>
      </trkpt>
      <trkpt lat="28.182083333333335" lon="-16.539416666666668">
        <ele>1298</ele>
        <time>2024-03-30T13:31:29.000Z</time>
      </trkpt>
      <trkpt lat="28.182133333333333" lon="-16.5393">
        <ele>1297</ele>
        <time>2024-03-30T13:31:30.000Z</time>
      </trkpt>
      <trkpt lat="28.182166666666667" lon="-16.53921666666667">
        <ele>1296</ele>
        <time>2024-03-30T13:31:31.000Z</time>
      </trkpt>
      <trkpt lat="28.1822" lon="-16.539116666666665">
        <ele>1295</ele>
        <time>2024-03-30T13:31:32.000Z</time>
      </trkpt>
      <trkpt lat="28.182233333333333" lon="-16.539033333333332">
        <ele>1293</ele>
        <time>2024-03-30T13:31:33.000Z</time>
      </trkpt>
      <trkpt lat="28.182266666666667" lon="-16.53895">
        <ele>1289</ele>
        <time>2024-03-30T13:31:34.000Z</time>
      </trkpt>
      <trkpt lat="28.1823" lon="-16.538833333333333">
        <ele>1287</ele>
        <time>2024-03-30T13:31:35.000Z</time>
      </trkpt>
      <trkpt lat="28.182333333333332" lon="-16.538716666666666">
        <ele>1286</ele>
        <time>2024-03-30T13:31:36.000Z</time>
      </trkpt>
      <trkpt lat="28.18235" lon="-16.538616666666666">
        <ele>1287</ele>
        <time>2024-03-30T13:31:37.000Z</time>
      </trkpt>
      <trkpt lat="28.18235" lon="-16.538516666666666">
        <ele>1288</ele>
        <time>2024-03-30T13:31:38.000Z</time>
      </trkpt>
      <trkpt lat="28.182333333333332" lon="-16.53845">
        <ele>1288</ele>
        <time>2024-03-30T13:31:39.000Z</time>
      </trkpt>
      <trkpt lat="28.18235" lon="-16.53836666666667">
        <ele>1286</ele>
        <time>2024-03-30T13:31:40.000Z</time>
      </trkpt>
      <trkpt lat="28.18235" lon="-16.538266666666665">
        <ele>1284</ele>
        <time>2024-03-30T13:31:41.000Z</time>
      </trkpt>
      <trkpt lat="28.18235" lon="-16.538166666666665">
        <ele>1281</ele>
        <time>2024-03-30T13:31:42.000Z</time>
      </trkpt>
      <trkpt lat="28.18235" lon="-16.53805">
        <ele>1280</ele>
        <time>2024-03-30T13:31:43.000Z</time>
      </trkpt>
      <trkpt lat="28.182333333333332" lon="-16.53795">
        <ele>1280</ele>
        <time>2024-03-30T13:31:44.000Z</time>
      </trkpt>
      <trkpt lat="28.182333333333332" lon="-16.53785">
        <ele>1280</ele>
        <time>2024-03-30T13:31:45.000Z</time>
      </trkpt>
      <trkpt lat="28.182333333333332" lon="-16.53775">
        <ele>1280</ele>
        <time>2024-03-30T13:31:46.000Z</time>
      </trkpt>
      <trkpt lat="28.182333333333332" lon="-16.537666666666667">
        <ele>1277</ele>
        <time>2024-03-30T13:31:47.000Z</time>
      </trkpt>
      <trkpt lat="28.182333333333332" lon="-16.537566666666667">
        <ele>1274</ele>
        <time>2024-03-30T13:31:48.000Z</time>
      </trkpt>
      <trkpt lat="28.18235" lon="-16.537466666666667">
        <ele>1270</ele>
        <time>2024-03-30T13:31:49.000Z</time>
      </trkpt>
      <trkpt lat="28.18235" lon="-16.53735">
        <ele>1267</ele>
        <time>2024-03-30T13:31:50.000Z</time>
      </trkpt>
      <trkpt lat="28.182366666666667" lon="-16.537233333333333">
        <ele>1264</ele>
        <time>2024-03-30T13:31:51.000Z</time>
      </trkpt>
      <trkpt lat="28.182366666666667" lon="-16.537133333333333">
        <ele>1263</ele>
        <time>2024-03-30T13:31:52.000Z</time>
      </trkpt>
      <trkpt lat="28.182383333333334" lon="-16.537033333333333">
        <ele>1263</ele>
        <time>2024-03-30T13:31:53.000Z</time>
      </trkpt>
      <trkpt lat="28.1824" lon="-16.53695">
        <ele>1263</ele>
        <time>2024-03-30T13:31:54.000Z</time>
      </trkpt>
      <trkpt lat="28.18241666666667" lon="-16.53686666666667">
        <ele>1262</ele>
        <time>2024-03-30T13:31:55.000Z</time>
      </trkpt>
      <trkpt lat="28.182433333333332" lon="-16.5368">
        <ele>1261</ele>
        <time>2024-03-30T13:31:56.000Z</time>
      </trkpt>
      <trkpt lat="28.18245" lon="-16.536716666666667">
        <ele>1258</ele>
        <time>2024-03-30T13:31:57.000Z</time>
      </trkpt>
      <trkpt lat="28.182466666666667" lon="-16.536633333333334">
        <ele>1256</ele>
        <time>2024-03-30T13:31:58.000Z</time>
      </trkpt>
      <trkpt lat="28.182483333333334" lon="-16.536533333333335">
        <ele>1254</ele>
        <time>2024-03-30T13:31:59.000Z</time>
      </trkpt>
      <trkpt lat="28.182483333333334" lon="-16.536433333333335">
        <ele>1253</ele>
        <time>2024-03-30T13:32:00.000Z</time>
      </trkpt>
      <trkpt lat="28.182483333333334" lon="-16.53633333333333">
        <ele>1253</ele>
        <time>2024-03-30T13:32:01.000Z</time>
      </trkpt>
      <trkpt lat="28.182466666666667" lon="-16.536266666666666">
        <ele>1253</ele>
        <time>2024-03-30T13:32:02.000Z</time>
      </trkpt>
      <trkpt lat="28.182483333333334" lon="-16.536183333333334">
        <ele>1253</ele>
        <time>2024-03-30T13:32:03.000Z</time>
      </trkpt>
      <trkpt lat="28.182483333333334" lon="-16.53611666666667">
        <ele>1252</ele>
        <time>2024-03-30T13:32:04.000Z</time>
      </trkpt>
      <trkpt lat="28.1825" lon="-16.53605">
        <ele>1250</ele>
        <time>2024-03-30T13:32:05.000Z</time>
      </trkpt>
      <trkpt lat="28.182516666666668" lon="-16.535983333333334">
        <ele>1247</ele>
        <time>2024-03-30T13:32:06.000Z</time>
      </trkpt>
      <trkpt lat="28.182533333333332" lon="-16.5359">
        <ele>1243</ele>
        <time>2024-03-30T13:32:07.000Z</time>
      </trkpt>
      <trkpt lat="28.18255" lon="-16.535816666666665">
        <ele>1241</ele>
        <time>2024-03-30T13:32:08.000Z</time>
      </trkpt>
      <trkpt lat="28.18255" lon="-16.535733333333333">
        <ele>1240</ele>
        <time>2024-03-30T13:32:09.000Z</time>
      </trkpt>
      <trkpt lat="28.182566666666666" lon="-16.53565">
        <ele>1240</ele>
        <time>2024-03-30T13:32:10.000Z</time>
      </trkpt>
      <trkpt lat="28.182566666666666" lon="-16.535566666666668">
        <ele>1240</ele>
        <time>2024-03-30T13:32:11.000Z</time>
      </trkpt>
      <trkpt lat="28.182566666666666" lon="-16.5355">
        <ele>1241</ele>
        <time>2024-03-30T13:32:12.000Z</time>
      </trkpt>
      <trkpt lat="28.182566666666666" lon="-16.535416666666666">
        <ele>1240</ele>
        <time>2024-03-30T13:32:13.000Z</time>
      </trkpt>
      <trkpt lat="28.18255" lon="-16.53536666666667">
        <ele>1240</ele>
        <time>2024-03-30T13:32:14.000Z</time>
      </trkpt>
      <trkpt lat="28.18255" lon="-16.5353">
        <ele>1237</ele>
        <time>2024-03-30T13:32:15.000Z</time>
      </trkpt>
      <trkpt lat="28.18255" lon="-16.5352">
        <ele>1236</ele>
        <time>2024-03-30T13:32:16.000Z</time>
      </trkpt>
      <trkpt lat="28.18255" lon="-16.5351">
        <ele>1237</ele>
        <time>2024-03-30T13:32:17.000Z</time>
      </trkpt>
      <trkpt lat="28.18255" lon="-16.535016666666667">
        <ele>1241</ele>
        <time>2024-03-30T13:32:18.000Z</time>
      </trkpt>
      <trkpt lat="28.182533333333332" lon="-16.53495">
        <ele>1245</ele>
        <time>2024-03-30T13:32:19.000Z</time>
      </trkpt>
      <trkpt lat="28.182533333333332" lon="-16.534916666666668">
        <ele>1248</ele>
        <time>2024-03-30T13:32:20.000Z</time>
      </trkpt>
      <trkpt lat="28.182533333333332" lon="-16.534883333333333">
        <ele>1248</ele>
        <time>2024-03-30T13:32:21.000Z</time>
      </trkpt>
      <trkpt lat="28.182533333333332" lon="-16.534866666666666">
        <ele>1247</ele>
        <time>2024-03-30T13:32:22.000Z</time>
      </trkpt>
      <trkpt lat="28.182533333333332" lon="-16.534816666666668">
        <ele>1244</ele>
        <time>2024-03-30T13:32:23.000Z</time>
      </trkpt>
      <trkpt lat="28.18255" lon="-16.53475">
        <ele>1242</ele>
        <time>2024-03-30T13:32:24.000Z</time>
      </trkpt>
      <trkpt lat="28.182566666666666" lon="-16.534683333333334">
        <ele>1241</ele>
        <time>2024-03-30T13:32:25.000Z</time>
      </trkpt>
      <trkpt lat="28.182583333333334" lon="-16.53461666666667">
        <ele>1242</ele>
        <time>2024-03-30T13:32:26.000Z</time>
      </trkpt>
      <trkpt lat="28.1826" lon="-16.53455">
        <ele>1244</ele>
        <time>2024-03-30T13:32:27.000Z</time>
      </trkpt>
      <trkpt lat="28.182616666666668" lon="-16.5345">
        <ele>1245</ele>
        <time>2024-03-30T13:32:28.000Z</time>
      </trkpt>
      <trkpt lat="28.18263333333333" lon="-16.534466666666667">
        <ele>1247</ele>
        <time>2024-03-30T13:32:29.000Z</time>
      </trkpt>
      <trkpt lat="28.18265" lon="-16.534416666666665">
        <ele>1248</ele>
        <time>2024-03-30T13:32:30.000Z</time>
      </trkpt>
      <trkpt lat="28.18265" lon="-16.53435">
        <ele>1248</ele>
        <time>2024-03-30T13:32:31.000Z</time>
      </trkpt>
      <trkpt lat="28.182666666666666" lon="-16.5343">
        <ele>1248</ele>
        <time>2024-03-30T13:32:32.000Z</time>
      </trkpt>
      <trkpt lat="28.182666666666666" lon="-16.53425">
        <ele>1248</ele>
        <time>2024-03-30T13:32:33.000Z</time>
      </trkpt>
      <trkpt lat="28.182666666666666" lon="-16.5342">
        <ele>1247</ele>
        <time>2024-03-30T13:32:34.000Z</time>
      </trkpt>
      <trkpt lat="28.182666666666666" lon="-16.534133333333333">
        <ele>1247</ele>
        <time>2024-03-30T13:32:35.000Z</time>
      </trkpt>
      <trkpt lat="28.182666666666666" lon="-16.53405">
        <ele>1248</ele>
        <time>2024-03-30T13:32:36.000Z</time>
      </trkpt>
      <trkpt lat="28.182683333333333" lon="-16.533966666666668">
        <ele>1250</ele>
        <time>2024-03-30T13:32:37.000Z</time>
      </trkpt>
      <trkpt lat="28.1827" lon="-16.533883333333332">
        <ele>1253</ele>
        <time>2024-03-30T13:32:38.000Z</time>
      </trkpt>
      <trkpt lat="28.182716666666668" lon="-16.533833333333334">
        <ele>1256</ele>
        <time>2024-03-30T13:32:39.000Z</time>
      </trkpt>
      <trkpt lat="28.182716666666668" lon="-16.533783333333332">
        <ele>1258</ele>
        <time>2024-03-30T13:32:40.000Z</time>
      </trkpt>
      <trkpt lat="28.182733333333335" lon="-16.533733333333334">
        <ele>1259</ele>
        <time>2024-03-30T13:32:41.000Z</time>
      </trkpt>
      <trkpt lat="28.182716666666668" lon="-16.533666666666665">
        <ele>1261</ele>
        <time>2024-03-30T13:32:42.000Z</time>
      </trkpt>
      <trkpt lat="28.182666666666666" lon="-16.533583333333333">
        <ele>1262</ele>
        <time>2024-03-30T13:32:43.000Z</time>
      </trkpt>
      <trkpt lat="28.182583333333334" lon="-16.533549999999998">
        <ele>1264</ele>
        <time>2024-03-30T13:32:44.000Z</time>
      </trkpt>
      <trkpt lat="28.182466666666667" lon="-16.5336">
        <ele>1263</ele>
        <time>2024-03-30T13:32:45.000Z</time>
      </trkpt>
      <trkpt lat="28.182366666666667" lon="-16.533733333333334">
        <ele>1261</ele>
        <time>2024-03-30T13:32:46.000Z</time>
      </trkpt>
      <trkpt lat="28.182316666666665" lon="-16.5339">
        <ele>1261</ele>
        <time>2024-03-30T13:32:47.000Z</time>
      </trkpt>
      <trkpt lat="28.1823" lon="-16.53405">
        <ele>1262</ele>
        <time>2024-03-30T13:32:48.000Z</time>
      </trkpt>
      <trkpt lat="28.18235" lon="-16.53415">
        <ele>1266</ele>
        <time>2024-03-30T13:32:49.000Z</time>
      </trkpt>
      <trkpt lat="28.182433333333332" lon="-16.534216666666666">
        <ele>1268</ele>
        <time>2024-03-30T13:32:50.000Z</time>
      </trkpt>
      <trkpt lat="28.182516666666668" lon="-16.534233333333333">
        <ele>1269</ele>
        <time>2024-03-30T13:32:51.000Z</time>
      </trkpt>
      <trkpt lat="28.1826" lon="-16.534233333333333">
        <ele>1269</ele>
        <time>2024-03-30T13:32:52.000Z</time>
      </trkpt>
      <trkpt lat="28.182683333333333" lon="-16.5342">
        <ele>1271</ele>
        <time>2024-03-30T13:32:53.000Z</time>
      </trkpt>
      <trkpt lat="28.18275" lon="-16.53415">
        <ele>1273</ele>
        <time>2024-03-30T13:32:54.000Z</time>
      </trkpt>
      <trkpt lat="28.182816666666668" lon="-16.534116666666666">
        <ele>1276</ele>
        <time>2024-03-30T13:32:55.000Z</time>
      </trkpt>
      <trkpt lat="28.18285" lon="-16.5341">
        <ele>1279</ele>
        <time>2024-03-30T13:32:56.000Z</time>
      </trkpt>
      <trkpt lat="28.182883333333333" lon="-16.534083333333335">
        <ele>1279</ele>
        <time>2024-03-30T13:32:57.000Z</time>
      </trkpt>
      <trkpt lat="28.1829" lon="-16.53405">
        <ele>1279</ele>
        <time>2024-03-30T13:32:58.000Z</time>
      </trkpt>
      <trkpt lat="28.182883333333333" lon="-16.534">
        <ele>1279</ele>
        <time>2024-03-30T13:32:59.000Z</time>
      </trkpt>
      <trkpt lat="28.182833333333335" lon="-16.533933333333334">
        <ele>1279</ele>
        <time>2024-03-30T13:33:00.000Z</time>
      </trkpt>
      <trkpt lat="28.18275" lon="-16.533916666666666">
        <ele>1279</ele>
        <time>2024-03-30T13:33:01.000Z</time>
      </trkpt>
      <trkpt lat="28.18263333333333" lon="-16.533966666666668">
        <ele>1280</ele>
        <time>2024-03-30T13:33:02.000Z</time>
      </trkpt>
      <trkpt lat="28.182566666666666" lon="-16.534083333333335">
        <ele>1280</ele>
        <time>2024-03-30T13:33:03.000Z</time>
      </trkpt>
      <trkpt lat="28.182516666666668" lon="-16.534233333333333">
        <ele>1281</ele>
        <time>2024-03-30T13:33:04.000Z</time>
      </trkpt>
      <trkpt lat="28.1825" lon="-16.534383333333334">
        <ele>1282</ele>
        <time>2024-03-30T13:33:05.000Z</time>
      </trkpt>
      <trkpt lat="28.182533333333332" lon="-16.534516666666665">
        <ele>1281</ele>
        <time>2024-03-30T13:33:06.000Z</time>
      </trkpt>
      <trkpt lat="28.1826" lon="-16.534633333333332">
        <ele>1280</ele>
        <time>2024-03-30T13:33:07.000Z</time>
      </trkpt>
      <trkpt lat="28.182666666666666" lon="-16.534716666666668">
        <ele>1281</ele>
        <time>2024-03-30T13:33:08.000Z</time>
      </trkpt>
      <trkpt lat="28.18275" lon="-16.534766666666666">
        <ele>1282</ele>
        <time>2024-03-30T13:33:09.000Z</time>
      </trkpt>
      <trkpt lat="28.182833333333335" lon="-16.534816666666668">
        <ele>1282</ele>
        <time>2024-03-30T13:33:10.000Z</time>
      </trkpt>
      <trkpt lat="28.182933333333335" lon="-16.534833333333335">
        <ele>1284</ele>
        <time>2024-03-30T13:33:11.000Z</time>
      </trkpt>
      <trkpt lat="28.183033333333334" lon="-16.534833333333335">
        <ele>1285</ele>
        <time>2024-03-30T13:33:12.000Z</time>
      </trkpt>
      <trkpt lat="28.183133333333334" lon="-16.534816666666668">
        <ele>1286</ele>
        <time>2024-03-30T13:33:13.000Z</time>
      </trkpt>
      <trkpt lat="28.1832" lon="-16.534783333333333">
        <ele>1287</ele>
        <time>2024-03-30T13:33:14.000Z</time>
      </trkpt>
      <trkpt lat="28.18325" lon="-16.534716666666668">
        <ele>1289</ele>
        <time>2024-03-30T13:33:15.000Z</time>
      </trkpt>
      <trkpt lat="28.183283333333332" lon="-16.534683333333334">
        <ele>1289</ele>
        <time>2024-03-30T13:33:16.000Z</time>
      </trkpt>
      <trkpt lat="28.183333333333334" lon="-16.53465">
        <ele>1290</ele>
        <time>2024-03-30T13:33:17.000Z</time>
      </trkpt>
      <trkpt lat="28.183416666666666" lon="-16.5346">
        <ele>1291</ele>
        <time>2024-03-30T13:33:18.000Z</time>
      </trkpt>
      <trkpt lat="28.183483333333335" lon="-16.53455">
        <ele>1292</ele>
        <time>2024-03-30T13:33:19.000Z</time>
      </trkpt>
      <trkpt lat="28.18355" lon="-16.534483333333334">
        <ele>1295</ele>
        <time>2024-03-30T13:33:20.000Z</time>
      </trkpt>
      <trkpt lat="28.183583333333335" lon="-16.534433333333332">
        <ele>1296</ele>
        <time>2024-03-30T13:33:21.000Z</time>
      </trkpt>
      <trkpt lat="28.1836" lon="-16.534366666666667">
        <ele>1295</ele>
        <time>2024-03-30T13:33:22.000Z</time>
      </trkpt>
      <trkpt lat="28.183566666666668" lon="-16.5343">
        <ele>1293</ele>
        <time>2024-03-30T13:33:23.000Z</time>
      </trkpt>
      <trkpt lat="28.183483333333335" lon="-16.534233333333333">
        <ele>1291</ele>
        <time>2024-03-30T13:33:24.000Z</time>
      </trkpt>
      <trkpt lat="28.18338333333333" lon="-16.5342">
        <ele>1291</ele>
        <time>2024-03-30T13:33:25.000Z</time>
      </trkpt>
      <trkpt lat="28.183283333333332" lon="-16.534233333333333">
        <ele>1292</ele>
        <time>2024-03-30T13:33:26.000Z</time>
      </trkpt>
      <trkpt lat="28.183216666666667" lon="-16.534333333333333">
        <ele>1293</ele>
        <time>2024-03-30T13:33:27.000Z</time>
      </trkpt>
      <trkpt lat="28.183166666666665" lon="-16.534466666666667">
        <ele>1293</ele>
        <time>2024-03-30T13:33:28.000Z</time>
      </trkpt>
      <trkpt lat="28.183166666666665" lon="-16.5346">
        <ele>1291</ele>
        <time>2024-03-30T13:33:29.000Z</time>
      </trkpt>
      <trkpt lat="28.183183333333332" lon="-16.534716666666668">
        <ele>1291</ele>
        <time>2024-03-30T13:33:30.000Z</time>
      </trkpt>
      <trkpt lat="28.183216666666667" lon="-16.534816666666668">
        <ele>1292</ele>
        <time>2024-03-30T13:33:31.000Z</time>
      </trkpt>
      <trkpt lat="28.183283333333332" lon="-16.5349">
        <ele>1293</ele>
        <time>2024-03-30T13:33:32.000Z</time>
      </trkpt>
      <trkpt lat="28.18335" lon="-16.53495">
        <ele>1295</ele>
        <time>2024-03-30T13:33:33.000Z</time>
      </trkpt>
      <trkpt lat="28.183433333333333" lon="-16.534983333333333">
        <ele>1296</ele>
        <time>2024-03-30T13:33:34.000Z</time>
      </trkpt>
      <trkpt lat="28.183533333333333" lon="-16.535016666666667">
        <ele>1298</ele>
        <time>2024-03-30T13:33:35.000Z</time>
      </trkpt>
      <trkpt lat="28.183616666666666" lon="-16.535033333333335">
        <ele>1299</ele>
        <time>2024-03-30T13:33:36.000Z</time>
      </trkpt>
      <trkpt lat="28.183716666666665" lon="-16.535">
        <ele>1299</ele>
        <time>2024-03-30T13:33:37.000Z</time>
      </trkpt>
      <trkpt lat="28.183783333333334" lon="-16.534966666666666">
        <ele>1299</ele>
        <time>2024-03-30T13:33:38.000Z</time>
      </trkpt>
      <trkpt lat="28.18385" lon="-16.5349">
        <ele>1297</ele>
        <time>2024-03-30T13:33:39.000Z</time>
      </trkpt>
      <trkpt lat="28.1839" lon="-16.534816666666668">
        <ele>1297</ele>
        <time>2024-03-30T13:33:40.000Z</time>
      </trkpt>
      <trkpt lat="28.18395" lon="-16.534766666666666">
        <ele>1296</ele>
        <time>2024-03-30T13:33:41.000Z</time>
      </trkpt>
      <trkpt lat="28.184033333333332" lon="-16.534716666666668">
        <ele>1293</ele>
        <time>2024-03-30T13:33:42.000Z</time>
      </trkpt>
      <trkpt lat="28.1841" lon="-16.53465">
        <ele>1291</ele>
        <time>2024-03-30T13:33:43.000Z</time>
      </trkpt>
      <trkpt lat="28.184166666666666" lon="-16.534583333333334">
        <ele>1288</ele>
        <time>2024-03-30T13:33:44.000Z</time>
      </trkpt>
      <trkpt lat="28.184233333333335" lon="-16.534483333333334">
        <ele>1287</ele>
        <time>2024-03-30T13:33:45.000Z</time>
      </trkpt>
      <trkpt lat="28.184266666666666" lon="-16.534416666666665">
        <ele>1288</ele>
        <time>2024-03-30T13:33:46.000Z</time>
      </trkpt>
      <trkpt lat="28.184283333333333" lon="-16.534366666666667">
        <ele>1289</ele>
        <time>2024-03-30T13:33:47.000Z</time>
      </trkpt>
      <trkpt lat="28.184283333333333" lon="-16.534333333333333">
        <ele>1288</ele>
        <time>2024-03-30T13:33:48.000Z</time>
      </trkpt>
      <trkpt lat="28.1843" lon="-16.534283333333335">
        <ele>1285</ele>
        <time>2024-03-30T13:33:49.000Z</time>
      </trkpt>
      <trkpt lat="28.184333333333335" lon="-16.534216666666666">
        <ele>1282</ele>
        <time>2024-03-30T13:33:50.000Z</time>
      </trkpt>
      <trkpt lat="28.184383333333333" lon="-16.534133333333333">
        <ele>1279</ele>
        <time>2024-03-30T13:33:51.000Z</time>
      </trkpt>
      <trkpt lat="28.184433333333335" lon="-16.534033333333333">
        <ele>1277</ele>
        <time>2024-03-30T13:33:52.000Z</time>
      </trkpt>
      <trkpt lat="28.184483333333333" lon="-16.53395">
        <ele>1276</ele>
        <time>2024-03-30T13:33:53.000Z</time>
      </trkpt>
      <trkpt lat="28.18455" lon="-16.53386666666667">
        <ele>1277</ele>
        <time>2024-03-30T13:33:54.000Z</time>
      </trkpt>
      <trkpt lat="28.184633333333334" lon="-16.5338">
        <ele>1278</ele>
        <time>2024-03-30T13:33:55.000Z</time>
      </trkpt>
      <trkpt lat="28.184683333333332" lon="-16.533716666666667">
        <ele>1279</ele>
        <time>2024-03-30T13:33:56.000Z</time>
      </trkpt>
      <trkpt lat="28.184666666666665" lon="-16.53365">
        <ele>1280</ele>
        <time>2024-03-30T13:33:57.000Z</time>
      </trkpt>
      <trkpt lat="28.184633333333334" lon="-16.533583333333333">
        <ele>1282</ele>
        <time>2024-03-30T13:33:58.000Z</time>
      </trkpt>
      <trkpt lat="28.184616666666667" lon="-16.5335">
        <ele>1283</ele>
        <time>2024-03-30T13:33:59.000Z</time>
      </trkpt>
      <trkpt lat="28.18465" lon="-16.533416666666668">
        <ele>1282</ele>
        <time>2024-03-30T13:34:00.000Z</time>
      </trkpt>
      <trkpt lat="28.184716666666667" lon="-16.533316666666668">
        <ele>1282</ele>
        <time>2024-03-30T13:34:01.000Z</time>
      </trkpt>
      <trkpt lat="28.184783333333332" lon="-16.53325">
        <ele>1282</ele>
        <time>2024-03-30T13:34:02.000Z</time>
      </trkpt>
      <trkpt lat="28.184833333333334" lon="-16.533166666666666">
        <ele>1284</ele>
        <time>2024-03-30T13:34:03.000Z</time>
      </trkpt>
      <trkpt lat="28.184866666666668" lon="-16.5331">
        <ele>1284</ele>
        <time>2024-03-30T13:34:04.000Z</time>
      </trkpt>
      <trkpt lat="28.1849" lon="-16.533066666666667">
        <ele>1283</ele>
        <time>2024-03-30T13:34:05.000Z</time>
      </trkpt>
      <trkpt lat="28.184933333333333" lon="-16.53301666666667">
        <ele>1280</ele>
        <time>2024-03-30T13:34:06.000Z</time>
      </trkpt>
      <trkpt lat="28.184983333333335" lon="-16.532983333333334">
        <ele>1276</ele>
        <time>2024-03-30T13:34:07.000Z</time>
      </trkpt>
      <trkpt lat="28.185066666666668" lon="-16.532916666666665">
        <ele>1274</ele>
        <time>2024-03-30T13:34:08.000Z</time>
      </trkpt>
      <trkpt lat="28.185133333333333" lon="-16.532833333333333">
        <ele>1273</ele>
        <time>2024-03-30T13:34:09.000Z</time>
      </trkpt>
      <trkpt lat="28.185183333333335" lon="-16.532766666666667">
        <ele>1274</ele>
        <time>2024-03-30T13:34:10.000Z</time>
      </trkpt>
      <trkpt lat="28.185216666666665" lon="-16.5327">
        <ele>1275</ele>
        <time>2024-03-30T13:34:11.000Z</time>
      </trkpt>
      <trkpt lat="28.185233333333333" lon="-16.532666666666668">
        <ele>1275</ele>
        <time>2024-03-30T13:34:12.000Z</time>
      </trkpt>
      <trkpt lat="28.18525" lon="-16.532616666666666">
        <ele>1273</ele>
        <time>2024-03-30T13:34:13.000Z</time>
      </trkpt>
      <trkpt lat="28.185283333333334" lon="-16.532583333333335">
        <ele>1270</ele>
        <time>2024-03-30T13:34:14.000Z</time>
      </trkpt>
      <trkpt lat="28.185333333333332" lon="-16.532516666666666">
        <ele>1266</ele>
        <time>2024-03-30T13:34:15.000Z</time>
      </trkpt>
      <trkpt lat="28.1854" lon="-16.53245">
        <ele>1264</ele>
        <time>2024-03-30T13:34:16.000Z</time>
      </trkpt>
      <trkpt lat="28.185466666666667" lon="-16.532366666666668">
        <ele>1263</ele>
        <time>2024-03-30T13:34:17.000Z</time>
      </trkpt>
      <trkpt lat="28.18555" lon="-16.5323">
        <ele>1262</ele>
        <time>2024-03-30T13:34:18.000Z</time>
      </trkpt>
      <trkpt lat="28.185616666666668" lon="-16.532233333333334">
        <ele>1263</ele>
        <time>2024-03-30T13:34:19.000Z</time>
      </trkpt>
      <trkpt lat="28.185666666666666" lon="-16.532183333333332">
        <ele>1263</ele>
        <time>2024-03-30T13:34:20.000Z</time>
      </trkpt>
      <trkpt lat="28.1857" lon="-16.532133333333334">
        <ele>1262</ele>
        <time>2024-03-30T13:34:21.000Z</time>
      </trkpt>
      <trkpt lat="28.18575" lon="-16.532083333333333">
        <ele>1260</ele>
        <time>2024-03-30T13:34:22.000Z</time>
      </trkpt>
      <trkpt lat="28.185816666666668" lon="-16.532016666666667">
        <ele>1256</ele>
        <time>2024-03-30T13:34:23.000Z</time>
      </trkpt>
      <trkpt lat="28.185883333333333" lon="-16.531933333333335">
        <ele>1253</ele>
        <time>2024-03-30T13:34:24.000Z</time>
      </trkpt>
      <trkpt lat="28.18595" lon="-16.531866666666666">
        <ele>1252</ele>
        <time>2024-03-30T13:34:25.000Z</time>
      </trkpt>
      <trkpt lat="28.186" lon="-16.5318">
        <ele>1251</ele>
        <time>2024-03-30T13:34:26.000Z</time>
      </trkpt>
      <trkpt lat="28.18605" lon="-16.531766666666666">
        <ele>1251</ele>
        <time>2024-03-30T13:34:27.000Z</time>
      </trkpt>
      <trkpt lat="28.1861" lon="-16.531716666666668">
        <ele>1249</ele>
        <time>2024-03-30T13:34:28.000Z</time>
      </trkpt>
      <trkpt lat="28.18615" lon="-16.531666666666666">
        <ele>1247</ele>
        <time>2024-03-30T13:34:29.000Z</time>
      </trkpt>
      <trkpt lat="28.186216666666667" lon="-16.5316">
        <ele>1243</ele>
        <time>2024-03-30T13:34:30.000Z</time>
      </trkpt>
      <trkpt lat="28.1863" lon="-16.53155">
        <ele>1241</ele>
        <time>2024-03-30T13:34:31.000Z</time>
      </trkpt>
      <trkpt lat="28.186383333333332" lon="-16.531483333333334">
        <ele>1240</ele>
        <time>2024-03-30T13:34:32.000Z</time>
      </trkpt>
      <trkpt lat="28.186466666666668" lon="-16.53145">
        <ele>1240</ele>
        <time>2024-03-30T13:34:33.000Z</time>
      </trkpt>
      <trkpt lat="28.18655" lon="-16.5314">
        <ele>1238</ele>
        <time>2024-03-30T13:34:34.000Z</time>
      </trkpt>
      <trkpt lat="28.186616666666666" lon="-16.531366666666667">
        <ele>1235</ele>
        <time>2024-03-30T13:34:35.000Z</time>
      </trkpt>
      <trkpt lat="28.186683333333335" lon="-16.531316666666665">
        <ele>1232</ele>
        <time>2024-03-30T13:34:36.000Z</time>
      </trkpt>
      <trkpt lat="28.186783333333334" lon="-16.531266666666667">
        <ele>1229</ele>
        <time>2024-03-30T13:34:37.000Z</time>
      </trkpt>
      <trkpt lat="28.186883333333334" lon="-16.5312">
        <ele>1230</ele>
        <time>2024-03-30T13:34:38.000Z</time>
      </trkpt>
      <trkpt lat="28.186966666666667" lon="-16.531133333333333">
        <ele>1232</ele>
        <time>2024-03-30T13:34:39.000Z</time>
      </trkpt>
      <trkpt lat="28.187033333333332" lon="-16.531083333333335">
        <ele>1234</ele>
        <time>2024-03-30T13:34:40.000Z</time>
      </trkpt>
      <trkpt lat="28.187083333333334" lon="-16.53105">
        <ele>1236</ele>
        <time>2024-03-30T13:34:41.000Z</time>
      </trkpt>
      <trkpt lat="28.18715" lon="-16.531016666666666">
        <ele>1237</ele>
        <time>2024-03-30T13:34:42.000Z</time>
      </trkpt>
      <trkpt lat="28.187216666666668" lon="-16.53098333333333">
        <ele>1238</ele>
        <time>2024-03-30T13:34:43.000Z</time>
      </trkpt>
      <trkpt lat="28.1873" lon="-16.530966666666668">
        <ele>1238</ele>
        <time>2024-03-30T13:34:44.000Z</time>
      </trkpt>
      <trkpt lat="28.187366666666666" lon="-16.530933333333333">
        <ele>1239</ele>
        <time>2024-03-30T13:34:45.000Z</time>
      </trkpt>
      <trkpt lat="28.187433333333335" lon="-16.530883333333332">
        <ele>1240</ele>
        <time>2024-03-30T13:34:46.000Z</time>
      </trkpt>
      <trkpt lat="28.187483333333333" lon="-16.530833333333334">
        <ele>1240</ele>
        <time>2024-03-30T13:34:47.000Z</time>
      </trkpt>
      <trkpt lat="28.1875" lon="-16.530783333333332">
        <ele>1241</ele>
        <time>2024-03-30T13:34:48.000Z</time>
      </trkpt>
      <trkpt lat="28.187483333333333" lon="-16.530716666666667">
        <ele>1242</ele>
        <time>2024-03-30T13:34:49.000Z</time>
      </trkpt>
      <trkpt lat="28.187433333333335" lon="-16.530683333333332">
        <ele>1242</ele>
        <time>2024-03-30T13:34:50.000Z</time>
      </trkpt>
      <trkpt lat="28.187333333333335" lon="-16.530716666666667">
        <ele>1240</ele>
        <time>2024-03-30T13:34:51.000Z</time>
      </trkpt>
      <trkpt lat="28.18723333333333" lon="-16.5308">
        <ele>1238</ele>
        <time>2024-03-30T13:34:52.000Z</time>
      </trkpt>
      <trkpt lat="28.1872" lon="-16.53095">
        <ele>1240</ele>
        <time>2024-03-30T13:34:53.000Z</time>
      </trkpt>
      <trkpt lat="28.187216666666668" lon="-16.531083333333335">
        <ele>1241</ele>
        <time>2024-03-30T13:34:54.000Z</time>
      </trkpt>
      <trkpt lat="28.187283333333333" lon="-16.531183333333335">
        <ele>1241</ele>
        <time>2024-03-30T13:34:55.000Z</time>
      </trkpt>
      <trkpt lat="28.187383333333333" lon="-16.531266666666667">
        <ele>1242</ele>
        <time>2024-03-30T13:34:56.000Z</time>
      </trkpt>
      <trkpt lat="28.187466666666666" lon="-16.5313">
        <ele>1242</ele>
        <time>2024-03-30T13:34:57.000Z</time>
      </trkpt>
      <trkpt lat="28.187566666666665" lon="-16.531316666666665">
        <ele>1243</ele>
        <time>2024-03-30T13:34:58.000Z</time>
      </trkpt>
      <trkpt lat="28.18765" lon="-16.531316666666665">
        <ele>1245</ele>
        <time>2024-03-30T13:34:59.000Z</time>
      </trkpt>
      <trkpt lat="28.18775" lon="-16.531316666666665">
        <ele>1247</ele>
        <time>2024-03-30T13:35:00.000Z</time>
      </trkpt>
      <trkpt lat="28.187833333333334" lon="-16.5313">
        <ele>1247</ele>
        <time>2024-03-30T13:35:01.000Z</time>
      </trkpt>
      <trkpt lat="28.187916666666666" lon="-16.531283333333334">
        <ele>1247</ele>
        <time>2024-03-30T13:35:02.000Z</time>
      </trkpt>
      <trkpt lat="28.18798333333333" lon="-16.53125">
        <ele>1247</ele>
        <time>2024-03-30T13:35:03.000Z</time>
      </trkpt>
      <trkpt lat="28.18805" lon="-16.5312">
        <ele>1248</ele>
        <time>2024-03-30T13:35:04.000Z</time>
      </trkpt>
      <trkpt lat="28.188116666666666" lon="-16.53115">
        <ele>1249</ele>
        <time>2024-03-30T13:35:05.000Z</time>
      </trkpt>
      <trkpt lat="28.188183333333335" lon="-16.5311">
        <ele>1249</ele>
        <time>2024-03-30T13:35:06.000Z</time>
      </trkpt>
      <trkpt lat="28.18825" lon="-16.531033333333333">
        <ele>1249</ele>
        <time>2024-03-30T13:35:07.000Z</time>
      </trkpt>
      <trkpt lat="28.1883" lon="-16.530966666666668">
        <ele>1249</ele>
        <time>2024-03-30T13:35:08.000Z</time>
      </trkpt>
      <trkpt lat="28.18835" lon="-16.5309">
        <ele>1249</ele>
        <time>2024-03-30T13:35:09.000Z</time>
      </trkpt>
      <trkpt lat="28.188366666666667" lon="-16.530833333333334">
        <ele>1249</ele>
        <time>2024-03-30T13:35:10.000Z</time>
      </trkpt>
      <trkpt lat="28.1884" lon="-16.530783333333332">
        <ele>1248</ele>
        <time>2024-03-30T13:35:11.000Z</time>
      </trkpt>
      <trkpt lat="28.188433333333332" lon="-16.530733333333334">
        <ele>1247</ele>
        <time>2024-03-30T13:35:12.000Z</time>
      </trkpt>
      <trkpt lat="28.188466666666667" lon="-16.530666666666665">
        <ele>1247</ele>
        <time>2024-03-30T13:35:13.000Z</time>
      </trkpt>
      <trkpt lat="28.188516666666665" lon="-16.5306">
        <ele>1246</ele>
        <time>2024-03-30T13:35:14.000Z</time>
      </trkpt>
      <trkpt lat="28.18855" lon="-16.530516666666667">
        <ele>1246</ele>
        <time>2024-03-30T13:35:15.000Z</time>
      </trkpt>
      <trkpt lat="28.188583333333334" lon="-16.530433333333335">
        <ele>1247</ele>
        <time>2024-03-30T13:35:16.000Z</time>
      </trkpt>
      <trkpt lat="28.188616666666668" lon="-16.53035">
        <ele>1246</ele>
        <time>2024-03-30T13:35:17.000Z</time>
      </trkpt>
      <trkpt lat="28.188633333333332" lon="-16.530283333333333">
        <ele>1246</ele>
        <time>2024-03-30T13:35:18.000Z</time>
      </trkpt>
      <trkpt lat="28.188683333333334" lon="-16.530233333333335">
        <ele>1245</ele>
        <time>2024-03-30T13:35:19.000Z</time>
      </trkpt>
      <trkpt lat="28.188716666666668" lon="-16.530183333333333">
        <ele>1242</ele>
        <time>2024-03-30T13:35:20.000Z</time>
      </trkpt>
      <trkpt lat="28.188783333333333" lon="-16.530133333333332">
        <ele>1240</ele>
        <time>2024-03-30T13:35:21.000Z</time>
      </trkpt>
      <trkpt lat="28.188833333333335" lon="-16.53005">
        <ele>1238</ele>
        <time>2024-03-30T13:35:22.000Z</time>
      </trkpt>
      <trkpt lat="28.188883333333333" lon="-16.529983333333334">
        <ele>1239</ele>
        <time>2024-03-30T13:35:23.000Z</time>
      </trkpt>
      <trkpt lat="28.188916666666668" lon="-16.529916666666665">
        <ele>1238</ele>
        <time>2024-03-30T13:35:24.000Z</time>
      </trkpt>
      <trkpt lat="28.188933333333335" lon="-16.529883333333334">
        <ele>1238</ele>
        <time>2024-03-30T13:35:25.000Z</time>
      </trkpt>
      <trkpt lat="28.188966666666666" lon="-16.529833333333332">
        <ele>1237</ele>
        <time>2024-03-30T13:35:26.000Z</time>
      </trkpt>
      <trkpt lat="28.189" lon="-16.529783333333334">
        <ele>1236</ele>
        <time>2024-03-30T13:35:27.000Z</time>
      </trkpt>
      <trkpt lat="28.189033333333334" lon="-16.529716666666666">
        <ele>1235</ele>
        <time>2024-03-30T13:35:28.000Z</time>
      </trkpt>
      <trkpt lat="28.189066666666665" lon="-16.529633333333333">
        <ele>1234</ele>
        <time>2024-03-30T13:35:29.000Z</time>
      </trkpt>
      <trkpt lat="28.189116666666667" lon="-16.52955">
        <ele>1232</ele>
        <time>2024-03-30T13:35:30.000Z</time>
      </trkpt>
      <trkpt lat="28.189166666666665" lon="-16.529466666666668">
        <ele>1229</ele>
        <time>2024-03-30T13:35:31.000Z</time>
      </trkpt>
      <trkpt lat="28.189233333333334" lon="-16.5294">
        <ele>1226</ele>
        <time>2024-03-30T13:35:32.000Z</time>
      </trkpt>
      <trkpt lat="28.1893" lon="-16.529316666666666">
        <ele>1222</ele>
        <time>2024-03-30T13:35:33.000Z</time>
      </trkpt>
      <trkpt lat="28.18935" lon="-16.5292">
        <ele>1219</ele>
        <time>2024-03-30T13:35:34.000Z</time>
      </trkpt>
      <trkpt lat="28.1894" lon="-16.529083333333332">
        <ele>1217</ele>
        <time>2024-03-30T13:35:35.000Z</time>
      </trkpt>
      <trkpt lat="28.189433333333334" lon="-16.528983333333333">
        <ele>1216</ele>
        <time>2024-03-30T13:35:36.000Z</time>
      </trkpt>
      <trkpt lat="28.18948333333333" lon="-16.528883333333333">
        <ele>1216</ele>
        <time>2024-03-30T13:35:37.000Z</time>
      </trkpt>
      <trkpt lat="28.189533333333333" lon="-16.5288">
        <ele>1215</ele>
        <time>2024-03-30T13:35:38.000Z</time>
      </trkpt>
      <trkpt lat="28.189583333333335" lon="-16.528716666666668">
        <ele>1213</ele>
        <time>2024-03-30T13:35:39.000Z</time>
      </trkpt>
      <trkpt lat="28.189616666666666" lon="-16.528616666666668">
        <ele>1211</ele>
        <time>2024-03-30T13:35:40.000Z</time>
      </trkpt>
      <trkpt lat="28.18965" lon="-16.52851666666667">
        <ele>1209</ele>
        <time>2024-03-30T13:35:41.000Z</time>
      </trkpt>
      <trkpt lat="28.189683333333335" lon="-16.528416666666665">
        <ele>1207</ele>
        <time>2024-03-30T13:35:42.000Z</time>
      </trkpt>
      <trkpt lat="28.1897" lon="-16.528316666666665">
        <ele>1205</ele>
        <time>2024-03-30T13:35:43.000Z</time>
      </trkpt>
      <trkpt lat="28.189733333333333" lon="-16.528216666666665">
        <ele>1203</ele>
        <time>2024-03-30T13:35:44.000Z</time>
      </trkpt>
      <trkpt lat="28.189766666666667" lon="-16.5281">
        <ele>1201</ele>
        <time>2024-03-30T13:35:45.000Z</time>
      </trkpt>
      <trkpt lat="28.1898" lon="-16.528">
        <ele>1197</ele>
        <time>2024-03-30T13:35:46.000Z</time>
      </trkpt>
      <trkpt lat="28.189833333333333" lon="-16.5279">
        <ele>1194</ele>
        <time>2024-03-30T13:35:47.000Z</time>
      </trkpt>
      <trkpt lat="28.189883333333334" lon="-16.5278">
        <ele>1191</ele>
        <time>2024-03-30T13:35:48.000Z</time>
      </trkpt>
      <trkpt lat="28.18995" lon="-16.527716666666667">
        <ele>1189</ele>
        <time>2024-03-30T13:35:49.000Z</time>
      </trkpt>
      <trkpt lat="28.190016666666665" lon="-16.527633333333334">
        <ele>1187</ele>
        <time>2024-03-30T13:35:50.000Z</time>
      </trkpt>
      <trkpt lat="28.190066666666667" lon="-16.52755">
        <ele>1187</ele>
        <time>2024-03-30T13:35:51.000Z</time>
      </trkpt>
      <trkpt lat="28.19011666666667" lon="-16.52745">
        <ele>1187</ele>
        <time>2024-03-30T13:35:52.000Z</time>
      </trkpt>
      <trkpt lat="28.190166666666666" lon="-16.527366666666666">
        <ele>1187</ele>
        <time>2024-03-30T13:35:53.000Z</time>
      </trkpt>
      <trkpt lat="28.1902" lon="-16.5273">
        <ele>1188</ele>
        <time>2024-03-30T13:35:54.000Z</time>
      </trkpt>
      <trkpt lat="28.190216666666668" lon="-16.527266666666666">
        <ele>1188</ele>
        <time>2024-03-30T13:35:55.000Z</time>
      </trkpt>
      <trkpt lat="28.190266666666666" lon="-16.52725">
        <ele>1186</ele>
        <time>2024-03-30T13:35:56.000Z</time>
      </trkpt>
      <trkpt lat="28.190333333333335" lon="-16.5272">
        <ele>1185</ele>
        <time>2024-03-30T13:35:57.000Z</time>
      </trkpt>
      <trkpt lat="28.190383333333333" lon="-16.52715">
        <ele>1184</ele>
        <time>2024-03-30T13:35:58.000Z</time>
      </trkpt>
      <trkpt lat="28.190433333333335" lon="-16.527083333333334">
        <ele>1184</ele>
        <time>2024-03-30T13:35:59.000Z</time>
      </trkpt>
      <trkpt lat="28.190483333333333" lon="-16.527033333333332">
        <ele>1183</ele>
        <time>2024-03-30T13:36:00.000Z</time>
      </trkpt>
      <trkpt lat="28.190533333333335" lon="-16.526966666666667">
        <ele>1185</ele>
        <time>2024-03-30T13:36:01.000Z</time>
      </trkpt>
      <trkpt lat="28.190583333333333" lon="-16.526916666666665">
        <ele>1186</ele>
        <time>2024-03-30T13:36:02.000Z</time>
      </trkpt>
      <trkpt lat="28.190616666666667" lon="-16.526866666666667">
        <ele>1187</ele>
        <time>2024-03-30T13:36:03.000Z</time>
      </trkpt>
      <trkpt lat="28.190633333333334" lon="-16.526816666666665">
        <ele>1187</ele>
        <time>2024-03-30T13:36:04.000Z</time>
      </trkpt>
      <trkpt lat="28.190633333333334" lon="-16.526766666666667">
        <ele>1186</ele>
        <time>2024-03-30T13:36:05.000Z</time>
      </trkpt>
      <trkpt lat="28.190666666666665" lon="-16.5267">
        <ele>1184</ele>
        <time>2024-03-30T13:36:06.000Z</time>
      </trkpt>
      <trkpt lat="28.190716666666667" lon="-16.526633333333333">
        <ele>1183</ele>
        <time>2024-03-30T13:36:07.000Z</time>
      </trkpt>
      <trkpt lat="28.190783333333332" lon="-16.526583333333335">
        <ele>1183</ele>
        <time>2024-03-30T13:36:08.000Z</time>
      </trkpt>
      <trkpt lat="28.19085" lon="-16.52655">
        <ele>1184</ele>
        <time>2024-03-30T13:36:09.000Z</time>
      </trkpt>
      <trkpt lat="28.1909" lon="-16.5265">
        <ele>1184</ele>
        <time>2024-03-30T13:36:10.000Z</time>
      </trkpt>
      <trkpt lat="28.190933333333334" lon="-16.52645">
        <ele>1184</ele>
        <time>2024-03-30T13:36:11.000Z</time>
      </trkpt>
      <trkpt lat="28.19095" lon="-16.5264">
        <ele>1183</ele>
        <time>2024-03-30T13:36:12.000Z</time>
      </trkpt>
      <trkpt lat="28.19098333333333" lon="-16.526333333333334">
        <ele>1183</ele>
        <time>2024-03-30T13:36:13.000Z</time>
      </trkpt>
      <trkpt lat="28.191033333333333" lon="-16.526266666666668">
        <ele>1183</ele>
        <time>2024-03-30T13:36:14.000Z</time>
      </trkpt>
      <trkpt lat="28.191083333333335" lon="-16.5262">
        <ele>1184</ele>
        <time>2024-03-30T13:36:15.000Z</time>
      </trkpt>
      <trkpt lat="28.19115" lon="-16.52615">
        <ele>1185</ele>
        <time>2024-03-30T13:36:16.000Z</time>
      </trkpt>
      <trkpt lat="28.1912" lon="-16.5261">
        <ele>1185</ele>
        <time>2024-03-30T13:36:17.000Z</time>
      </trkpt>
      <trkpt lat="28.191216666666666" lon="-16.52605">
        <ele>1185</ele>
        <time>2024-03-30T13:36:18.000Z</time>
      </trkpt>
      <trkpt lat="28.1912" lon="-16.525983333333333">
        <ele>1185</ele>
        <time>2024-03-30T13:36:19.000Z</time>
      </trkpt>
      <trkpt lat="28.19115" lon="-16.525916666666667">
        <ele>1185</ele>
        <time>2024-03-30T13:36:20.000Z</time>
      </trkpt>
      <trkpt lat="28.191066666666668" lon="-16.525916666666667">
        <ele>1185</ele>
        <time>2024-03-30T13:36:21.000Z</time>
      </trkpt>
      <trkpt lat="28.190966666666668" lon="-16.525983333333333">
        <ele>1184</ele>
        <time>2024-03-30T13:36:22.000Z</time>
      </trkpt>
      <trkpt lat="28.1909" lon="-16.526083333333332">
        <ele>1183</ele>
        <time>2024-03-30T13:36:23.000Z</time>
      </trkpt>
      <trkpt lat="28.19086666666667" lon="-16.526233333333334">
        <ele>1181</ele>
        <time>2024-03-30T13:36:24.000Z</time>
      </trkpt>
      <trkpt lat="28.190933333333334" lon="-16.52638333333333">
        <ele>1179</ele>
        <time>2024-03-30T13:36:25.000Z</time>
      </trkpt>
      <trkpt lat="28.191016666666666" lon="-16.5265">
        <ele>1178</ele>
        <time>2024-03-30T13:36:26.000Z</time>
      </trkpt>
      <trkpt lat="28.191116666666666" lon="-16.526583333333335">
        <ele>1177</ele>
        <time>2024-03-30T13:36:27.000Z</time>
      </trkpt>
      <trkpt lat="28.191233333333333" lon="-16.52665">
        <ele>1177</ele>
        <time>2024-03-30T13:36:28.000Z</time>
      </trkpt>
      <trkpt lat="28.19135" lon="-16.526666666666667">
        <ele>1179</ele>
        <time>2024-03-30T13:36:29.000Z</time>
      </trkpt>
      <trkpt lat="28.191433333333332" lon="-16.526683333333335">
        <ele>1181</ele>
        <time>2024-03-30T13:36:30.000Z</time>
      </trkpt>
      <trkpt lat="28.191516666666665" lon="-16.526683333333335">
        <ele>1183</ele>
        <time>2024-03-30T13:36:31.000Z</time>
      </trkpt>
      <trkpt lat="28.1916" lon="-16.5267">
        <ele>1185</ele>
        <time>2024-03-30T13:36:32.000Z</time>
      </trkpt>
      <trkpt lat="28.191666666666666" lon="-16.5267">
        <ele>1186</ele>
        <time>2024-03-30T13:36:33.000Z</time>
      </trkpt>
      <trkpt lat="28.19173333333333" lon="-16.526683333333335">
        <ele>1186</ele>
        <time>2024-03-30T13:36:34.000Z</time>
      </trkpt>
      <trkpt lat="28.1918" lon="-16.52665">
        <ele>1187</ele>
        <time>2024-03-30T13:36:35.000Z</time>
      </trkpt>
      <trkpt lat="28.191866666666666" lon="-16.5266">
        <ele>1188</ele>
        <time>2024-03-30T13:36:36.000Z</time>
      </trkpt>
      <trkpt lat="28.19195" lon="-16.526566666666668">
        <ele>1189</ele>
        <time>2024-03-30T13:36:37.000Z</time>
      </trkpt>
      <trkpt lat="28.192016666666667" lon="-16.526516666666666">
        <ele>1191</ele>
        <time>2024-03-30T13:36:38.000Z</time>
      </trkpt>
      <trkpt lat="28.1921" lon="-16.526466666666668">
        <ele>1194</ele>
        <time>2024-03-30T13:36:39.000Z</time>
      </trkpt>
      <trkpt lat="28.19215" lon="-16.526416666666666">
        <ele>1195</ele>
        <time>2024-03-30T13:36:40.000Z</time>
      </trkpt>
      <trkpt lat="28.192166666666665" lon="-16.52635">
        <ele>1196</ele>
        <time>2024-03-30T13:36:41.000Z</time>
      </trkpt>
      <trkpt lat="28.19215" lon="-16.5263">
        <ele>1196</ele>
        <time>2024-03-30T13:36:42.000Z</time>
      </trkpt>
      <trkpt lat="28.192083333333333" lon="-16.52625">
        <ele>1194</ele>
        <time>2024-03-30T13:36:43.000Z</time>
      </trkpt>
      <trkpt lat="28.191983333333333" lon="-16.526233333333334">
        <ele>1193</ele>
        <time>2024-03-30T13:36:44.000Z</time>
      </trkpt>
      <trkpt lat="28.191883333333333" lon="-16.526266666666668">
        <ele>1194</ele>
        <time>2024-03-30T13:36:45.000Z</time>
      </trkpt>
      <trkpt lat="28.1918" lon="-16.526333333333334">
        <ele>1195</ele>
        <time>2024-03-30T13:36:46.000Z</time>
      </trkpt>
      <trkpt lat="28.191766666666666" lon="-16.526433333333333">
        <ele>1196</ele>
        <time>2024-03-30T13:36:47.000Z</time>
      </trkpt>
      <trkpt lat="28.191783333333333" lon="-16.52655">
        <ele>1196</ele>
        <time>2024-03-30T13:36:48.000Z</time>
      </trkpt>
      <trkpt lat="28.19185" lon="-16.526666666666667">
        <ele>1196</ele>
        <time>2024-03-30T13:36:49.000Z</time>
      </trkpt>
      <trkpt lat="28.191933333333335" lon="-16.526766666666667">
        <ele>1196</ele>
        <time>2024-03-30T13:36:50.000Z</time>
      </trkpt>
      <trkpt lat="28.192016666666667" lon="-16.526816666666665">
        <ele>1197</ele>
        <time>2024-03-30T13:36:51.000Z</time>
      </trkpt>
      <trkpt lat="28.192133333333334" lon="-16.526816666666665">
        <ele>1200</ele>
        <time>2024-03-30T13:36:52.000Z</time>
      </trkpt>
      <trkpt lat="28.192233333333334" lon="-16.526783333333334">
        <ele>1201</ele>
        <time>2024-03-30T13:36:53.000Z</time>
      </trkpt>
      <trkpt lat="28.192283333333332" lon="-16.526716666666665">
        <ele>1203</ele>
        <time>2024-03-30T13:36:54.000Z</time>
      </trkpt>
      <trkpt lat="28.192283333333332" lon="-16.52665">
        <ele>1203</ele>
        <time>2024-03-30T13:36:55.000Z</time>
      </trkpt>
      <trkpt lat="28.192233333333334" lon="-16.526583333333335">
        <ele>1203</ele>
        <time>2024-03-30T13:36:56.000Z</time>
      </trkpt>
      <trkpt lat="28.192183333333332" lon="-16.526533333333333">
        <ele>1203</ele>
        <time>2024-03-30T13:36:57.000Z</time>
      </trkpt>
      <trkpt lat="28.1921" lon="-16.5265">
        <ele>1202</ele>
        <time>2024-03-30T13:36:58.000Z</time>
      </trkpt>
      <trkpt lat="28.192033333333335" lon="-16.5265">
        <ele>1202</ele>
        <time>2024-03-30T13:36:59.000Z</time>
      </trkpt>
      <trkpt lat="28.19195" lon="-16.52655">
        <ele>1203</ele>
        <time>2024-03-30T13:37:00.000Z</time>
      </trkpt>
      <trkpt lat="28.1919" lon="-16.526633333333333">
        <ele>1203</ele>
        <time>2024-03-30T13:37:01.000Z</time>
      </trkpt>
      <trkpt lat="28.191866666666666" lon="-16.52675">
        <ele>1202</ele>
        <time>2024-03-30T13:37:02.000Z</time>
      </trkpt>
      <trkpt lat="28.191866666666666" lon="-16.5269">
        <ele>1201</ele>
        <time>2024-03-30T13:37:03.000Z</time>
      </trkpt>
      <trkpt lat="28.191916666666668" lon="-16.527033333333332">
        <ele>1200</ele>
        <time>2024-03-30T13:37:04.000Z</time>
      </trkpt>
      <trkpt lat="28.192" lon="-16.527166666666666">
        <ele>1201</ele>
        <time>2024-03-30T13:37:05.000Z</time>
      </trkpt>
      <trkpt lat="28.192066666666665" lon="-16.527233333333335">
        <ele>1202</ele>
        <time>2024-03-30T13:37:06.000Z</time>
      </trkpt>
      <trkpt lat="28.19215" lon="-16.527283333333333">
        <ele>1203</ele>
        <time>2024-03-30T13:37:07.000Z</time>
      </trkpt>
      <trkpt lat="28.192233333333334" lon="-16.527316666666668">
        <ele>1204</ele>
        <time>2024-03-30T13:37:08.000Z</time>
      </trkpt>
      <trkpt lat="28.192333333333334" lon="-16.527316666666668">
        <ele>1205</ele>
        <time>2024-03-30T13:37:09.000Z</time>
      </trkpt>
      <trkpt lat="28.192433333333334" lon="-16.5273">
        <ele>1206</ele>
        <time>2024-03-30T13:37:10.000Z</time>
      </trkpt>
      <trkpt lat="28.1925" lon="-16.527266666666666">
        <ele>1205</ele>
        <time>2024-03-30T13:37:11.000Z</time>
      </trkpt>
      <trkpt lat="28.192566666666668" lon="-16.5272">
        <ele>1205</ele>
        <time>2024-03-30T13:37:12.000Z</time>
      </trkpt>
      <trkpt lat="28.1926" lon="-16.52713333333333">
        <ele>1204</ele>
        <time>2024-03-30T13:37:13.000Z</time>
      </trkpt>
      <trkpt lat="28.19265" lon="-16.527033333333332">
        <ele>1204</ele>
        <time>2024-03-30T13:37:14.000Z</time>
      </trkpt>
      <trkpt lat="28.192666666666668" lon="-16.526933333333332">
        <ele>1206</ele>
        <time>2024-03-30T13:37:15.000Z</time>
      </trkpt>
      <trkpt lat="28.192716666666666" lon="-16.526866666666667">
        <ele>1207</ele>
        <time>2024-03-30T13:37:16.000Z</time>
      </trkpt>
      <trkpt lat="28.19275" lon="-16.526783333333334">
        <ele>1208</ele>
        <time>2024-03-30T13:37:17.000Z</time>
      </trkpt>
      <trkpt lat="28.1928" lon="-16.526716666666665">
        <ele>1208</ele>
        <time>2024-03-30T13:37:18.000Z</time>
      </trkpt>
      <trkpt lat="28.192833333333333" lon="-16.52665">
        <ele>1208</ele>
        <time>2024-03-30T13:37:19.000Z</time>
      </trkpt>
      <trkpt lat="28.192883333333334" lon="-16.526583333333335">
        <ele>1208</ele>
        <time>2024-03-30T13:37:20.000Z</time>
      </trkpt>
      <trkpt lat="28.192916666666665" lon="-16.526516666666666">
        <ele>1208</ele>
        <time>2024-03-30T13:37:21.000Z</time>
      </trkpt>
      <trkpt lat="28.19295" lon="-16.526433333333333">
        <ele>1209</ele>
        <time>2024-03-30T13:37:22.000Z</time>
      </trkpt>
      <trkpt lat="28.192966666666667" lon="-16.52635">
        <ele>1211</ele>
        <time>2024-03-30T13:37:23.000Z</time>
      </trkpt>
      <trkpt lat="28.192966666666667" lon="-16.526283333333332">
        <ele>1213</ele>
        <time>2024-03-30T13:37:24.000Z</time>
      </trkpt>
      <trkpt lat="28.192966666666667" lon="-16.526233333333334">
        <ele>1214</ele>
        <time>2024-03-30T13:37:25.000Z</time>
      </trkpt>
      <trkpt lat="28.192933333333333" lon="-16.526183333333332">
        <ele>1213</ele>
        <time>2024-03-30T13:37:26.000Z</time>
      </trkpt>
      <trkpt lat="28.19285" lon="-16.526183333333332">
        <ele>1212</ele>
        <time>2024-03-30T13:37:27.000Z</time>
      </trkpt>
      <trkpt lat="28.192733333333333" lon="-16.526233333333334">
        <ele>1211</ele>
        <time>2024-03-30T13:37:28.000Z</time>
      </trkpt>
      <trkpt lat="28.19265" lon="-16.52635">
        <ele>1211</ele>
        <time>2024-03-30T13:37:29.000Z</time>
      </trkpt>
      <trkpt lat="28.19258333333333" lon="-16.526483333333335">
        <ele>1211</ele>
        <time>2024-03-30T13:37:30.000Z</time>
      </trkpt>
      <trkpt lat="28.1926" lon="-16.526616666666666">
        <ele>1212</ele>
        <time>2024-03-30T13:37:31.000Z</time>
      </trkpt>
      <trkpt lat="28.192683333333335" lon="-16.526733333333333">
        <ele>1212</ele>
        <time>2024-03-30T13:37:32.000Z</time>
      </trkpt>
      <trkpt lat="28.192783333333335" lon="-16.5268">
        <ele>1211</ele>
        <time>2024-03-30T13:37:33.000Z</time>
      </trkpt>
      <trkpt lat="28.192916666666665" lon="-16.5268">
        <ele>1212</ele>
        <time>2024-03-30T13:37:34.000Z</time>
      </trkpt>
      <trkpt lat="28.193016666666665" lon="-16.526766666666667">
        <ele>1214</ele>
        <time>2024-03-30T13:37:35.000Z</time>
      </trkpt>
      <trkpt lat="28.193066666666667" lon="-16.526716666666665">
        <ele>1215</ele>
        <time>2024-03-30T13:37:36.000Z</time>
      </trkpt>
      <trkpt lat="28.193083333333334" lon="-16.526683333333335">
        <ele>1217</ele>
        <time>2024-03-30T13:37:37.000Z</time>
      </trkpt>
      <trkpt lat="28.1931" lon="-16.526633333333333">
        <ele>1219</ele>
        <time>2024-03-30T13:37:38.000Z</time>
      </trkpt>
      <trkpt lat="28.193083333333334" lon="-16.526583333333335">
        <ele>1219</ele>
        <time>2024-03-30T13:37:39.000Z</time>
      </trkpt>
      <trkpt lat="28.19305" lon="-16.526533333333333">
        <ele>1219</ele>
        <time>2024-03-30T13:37:40.000Z</time>
      </trkpt>
      <trkpt lat="28.192983333333334" lon="-16.5265">
        <ele>1220</ele>
        <time>2024-03-30T13:37:41.000Z</time>
      </trkpt>
      <trkpt lat="28.1929" lon="-16.5265">
        <ele>1221</ele>
        <time>2024-03-30T13:37:42.000Z</time>
      </trkpt>
      <trkpt lat="28.192816666666666" lon="-16.526566666666668">
        <ele>1219</ele>
        <time>2024-03-30T13:37:43.000Z</time>
      </trkpt>
      <trkpt lat="28.19275" lon="-16.526683333333335">
        <ele>1220</ele>
        <time>2024-03-30T13:37:44.000Z</time>
      </trkpt>
      <trkpt lat="28.192716666666666" lon="-16.526833333333332">
        <ele>1221</ele>
        <time>2024-03-30T13:37:45.000Z</time>
      </trkpt>
      <trkpt lat="28.19275" lon="-16.526983333333334">
        <ele>1221</ele>
        <time>2024-03-30T13:37:46.000Z</time>
      </trkpt>
      <trkpt lat="28.192816666666666" lon="-16.527083333333334">
        <ele>1220</ele>
        <time>2024-03-30T13:37:47.000Z</time>
      </trkpt>
      <trkpt lat="28.1929" lon="-16.527166666666666">
        <ele>1219</ele>
        <time>2024-03-30T13:37:48.000Z</time>
      </trkpt>
      <trkpt lat="28.193016666666665" lon="-16.527183333333333">
        <ele>1218</ele>
        <time>2024-03-30T13:37:49.000Z</time>
      </trkpt>
      <trkpt lat="28.193133333333332" lon="-16.527183333333333">
        <ele>1219</ele>
        <time>2024-03-30T13:37:50.000Z</time>
      </trkpt>
      <trkpt lat="28.193216666666668" lon="-16.52715">
        <ele>1222</ele>
        <time>2024-03-30T13:37:51.000Z</time>
      </trkpt>
      <trkpt lat="28.19325" lon="-16.52713333333333">
        <ele>1224</ele>
        <time>2024-03-30T13:37:52.000Z</time>
      </trkpt>
      <trkpt lat="28.193266666666666" lon="-16.5271">
        <ele>1224</ele>
        <time>2024-03-30T13:37:53.000Z</time>
      </trkpt>
      <trkpt lat="28.193266666666666" lon="-16.52705">
        <ele>1223</ele>
        <time>2024-03-30T13:37:54.000Z</time>
      </trkpt>
      <trkpt lat="28.193233333333332" lon="-16.526983333333334">
        <ele>1223</ele>
        <time>2024-03-30T13:37:55.000Z</time>
      </trkpt>
      <trkpt lat="28.193166666666666" lon="-16.526933333333332">
        <ele>1223</ele>
        <time>2024-03-30T13:37:56.000Z</time>
      </trkpt>
      <trkpt lat="28.1931" lon="-16.526933333333332">
        <ele>1223</ele>
        <time>2024-03-30T13:37:57.000Z</time>
      </trkpt>
      <trkpt lat="28.193" lon="-16.526983333333334">
        <ele>1223</ele>
        <time>2024-03-30T13:37:58.000Z</time>
      </trkpt>
      <trkpt lat="28.192933333333333" lon="-16.5271">
        <ele>1223</ele>
        <time>2024-03-30T13:37:59.000Z</time>
      </trkpt>
      <trkpt lat="28.192883333333334" lon="-16.527216666666668">
        <ele>1223</ele>
        <time>2024-03-30T13:38:00.000Z</time>
      </trkpt>
      <trkpt lat="28.192833333333333" lon="-16.52735">
        <ele>1223</ele>
        <time>2024-03-30T13:38:01.000Z</time>
      </trkpt>
      <trkpt lat="28.192816666666666" lon="-16.5275">
        <ele>1223</ele>
        <time>2024-03-30T13:38:02.000Z</time>
      </trkpt>
      <trkpt lat="28.192783333333335" lon="-16.5276">
        <ele>1223</ele>
        <time>2024-03-30T13:38:03.000Z</time>
      </trkpt>
      <trkpt lat="28.192716666666666" lon="-16.5277">
        <ele>1223</ele>
        <time>2024-03-30T13:38:04.000Z</time>
      </trkpt>
      <trkpt lat="28.192616666666666" lon="-16.52775">
        <ele>1222</ele>
        <time>2024-03-30T13:38:05.000Z</time>
      </trkpt>
      <trkpt lat="28.192516666666666" lon="-16.527783333333332">
        <ele>1220</ele>
        <time>2024-03-30T13:38:06.000Z</time>
      </trkpt>
      <trkpt lat="28.192416666666666" lon="-16.5278">
        <ele>1220</ele>
        <time>2024-03-30T13:38:07.000Z</time>
      </trkpt>
      <trkpt lat="28.192333333333334" lon="-16.5278">
        <ele>1221</ele>
        <time>2024-03-30T13:38:08.000Z</time>
      </trkpt>
      <trkpt lat="28.19225" lon="-16.52776666666667">
        <ele>1221</ele>
        <time>2024-03-30T13:38:09.000Z</time>
      </trkpt>
      <trkpt lat="28.1922" lon="-16.527716666666667">
        <ele>1222</ele>
        <time>2024-03-30T13:38:10.000Z</time>
      </trkpt>
      <trkpt lat="28.19215" lon="-16.527683333333332">
        <ele>1223</ele>
        <time>2024-03-30T13:38:11.000Z</time>
      </trkpt>
      <trkpt lat="28.1921" lon="-16.52765">
        <ele>1224</ele>
        <time>2024-03-30T13:38:12.000Z</time>
      </trkpt>
      <trkpt lat="28.19205" lon="-16.527633333333334">
        <ele>1222</ele>
        <time>2024-03-30T13:38:13.000Z</time>
      </trkpt>
      <trkpt lat="28.192" lon="-16.5276">
        <ele>1220</ele>
        <time>2024-03-30T13:38:14.000Z</time>
      </trkpt>
      <trkpt lat="28.19195" lon="-16.52755">
        <ele>1217</ele>
        <time>2024-03-30T13:38:15.000Z</time>
      </trkpt>
      <trkpt lat="28.191916666666668" lon="-16.5275">
        <ele>1215</ele>
        <time>2024-03-30T13:38:16.000Z</time>
      </trkpt>
      <trkpt lat="28.1919" lon="-16.527433333333335">
        <ele>1215</ele>
        <time>2024-03-30T13:38:17.000Z</time>
      </trkpt>
      <trkpt lat="28.1919" lon="-16.527366666666666">
        <ele>1216</ele>
        <time>2024-03-30T13:38:18.000Z</time>
      </trkpt>
      <trkpt lat="28.191883333333333" lon="-16.527333333333335">
        <ele>1217</ele>
        <time>2024-03-30T13:38:19.000Z</time>
      </trkpt>
      <trkpt lat="28.191883333333333" lon="-16.5273">
        <ele>1217</ele>
        <time>2024-03-30T13:38:20.000Z</time>
      </trkpt>
      <trkpt lat="28.191883333333333" lon="-16.527283333333333">
        <ele>1216</ele>
        <time>2024-03-30T13:38:21.000Z</time>
      </trkpt>
      <trkpt lat="28.1919" lon="-16.527233333333335">
        <ele>1213</ele>
        <time>2024-03-30T13:38:22.000Z</time>
      </trkpt>
      <trkpt lat="28.1919" lon="-16.527166666666666">
        <ele>1208</ele>
        <time>2024-03-30T13:38:23.000Z</time>
      </trkpt>
      <trkpt lat="28.191933333333335" lon="-16.527083333333334">
        <ele>1206</ele>
        <time>2024-03-30T13:38:24.000Z</time>
      </trkpt>
      <trkpt lat="28.191983333333333" lon="-16.527">
        <ele>1205</ele>
        <time>2024-03-30T13:38:25.000Z</time>
      </trkpt>
      <trkpt lat="28.192" lon="-16.526933333333332">
        <ele>1207</ele>
        <time>2024-03-30T13:38:26.000Z</time>
      </trkpt>
      <trkpt lat="28.192" lon="-16.526866666666667">
        <ele>1209</ele>
        <time>2024-03-30T13:38:27.000Z</time>
      </trkpt>
      <trkpt lat="28.191983333333333" lon="-16.526816666666665">
        <ele>1211</ele>
        <time>2024-03-30T13:38:28.000Z</time>
      </trkpt>
      <trkpt lat="28.191966666666666" lon="-16.526766666666667">
        <ele>1212</ele>
        <time>2024-03-30T13:38:29.000Z</time>
      </trkpt>
      <trkpt lat="28.191983333333333" lon="-16.526716666666665">
        <ele>1212</ele>
        <time>2024-03-30T13:38:30.000Z</time>
      </trkpt>
      <trkpt lat="28.191983333333333" lon="-16.526666666666667">
        <ele>1212</ele>
        <time>2024-03-30T13:38:31.000Z</time>
      </trkpt>
      <trkpt lat="28.192016666666667" lon="-16.5266">
        <ele>1210</ele>
        <time>2024-03-30T13:38:32.000Z</time>
      </trkpt>
      <trkpt lat="28.19205" lon="-16.526516666666666">
        <ele>1209</ele>
        <time>2024-03-30T13:38:33.000Z</time>
      </trkpt>
      <trkpt lat="28.192083333333333" lon="-16.526416666666666">
        <ele>1209</ele>
        <time>2024-03-30T13:38:34.000Z</time>
      </trkpt>
      <trkpt lat="28.192083333333333" lon="-16.526316666666666">
        <ele>1209</ele>
        <time>2024-03-30T13:38:35.000Z</time>
      </trkpt>
      <trkpt lat="28.192083333333333" lon="-16.526216666666667">
        <ele>1208</ele>
        <time>2024-03-30T13:38:36.000Z</time>
      </trkpt>
      <trkpt lat="28.192083333333333" lon="-16.526133333333334">
        <ele>1208</ele>
        <time>2024-03-30T13:38:37.000Z</time>
      </trkpt>
      <trkpt lat="28.192083333333333" lon="-16.526066666666665">
        <ele>1208</ele>
        <time>2024-03-30T13:38:38.000Z</time>
      </trkpt>
      <trkpt lat="28.1921" lon="-16.525983333333333">
        <ele>1208</ele>
        <time>2024-03-30T13:38:39.000Z</time>
      </trkpt>
      <trkpt lat="28.1921" lon="-16.525916666666667">
        <ele>1207</ele>
        <time>2024-03-30T13:38:40.000Z</time>
      </trkpt>
      <trkpt lat="28.192116666666667" lon="-16.525833333333335">
        <ele>1207</ele>
        <time>2024-03-30T13:38:41.000Z</time>
      </trkpt>
      <trkpt lat="28.19215" lon="-16.52575">
        <ele>1206</ele>
        <time>2024-03-30T13:38:42.000Z</time>
      </trkpt>
      <trkpt lat="28.192166666666665" lon="-16.525666666666666">
        <ele>1204</ele>
        <time>2024-03-30T13:38:43.000Z</time>
      </trkpt>
      <trkpt lat="28.192166666666665" lon="-16.525566666666666">
        <ele>1203</ele>
        <time>2024-03-30T13:38:44.000Z</time>
      </trkpt>
      <trkpt lat="28.192166666666665" lon="-16.525483333333334">
        <ele>1204</ele>
        <time>2024-03-30T13:38:45.000Z</time>
      </trkpt>
      <trkpt lat="28.19215" lon="-16.5254">
        <ele>1205</ele>
        <time>2024-03-30T13:38:46.000Z</time>
      </trkpt>
      <trkpt lat="28.192133333333334" lon="-16.525333333333332">
        <ele>1205</ele>
        <time>2024-03-30T13:38:47.000Z</time>
      </trkpt>
      <trkpt lat="28.192116666666667" lon="-16.52525">
        <ele>1203</ele>
        <time>2024-03-30T13:38:48.000Z</time>
      </trkpt>
      <trkpt lat="28.192116666666667" lon="-16.525183333333334">
        <ele>1199</ele>
        <time>2024-03-30T13:38:49.000Z</time>
      </trkpt>
      <trkpt lat="28.192083333333333" lon="-16.525083333333335">
        <ele>1195</ele>
        <time>2024-03-30T13:38:50.000Z</time>
      </trkpt>
      <trkpt lat="28.192066666666665" lon="-16.524966666666668">
        <ele>1193</ele>
        <time>2024-03-30T13:38:51.000Z</time>
      </trkpt>
      <trkpt lat="28.19205" lon="-16.524866666666668">
        <ele>1194</ele>
        <time>2024-03-30T13:38:52.000Z</time>
      </trkpt>
      <trkpt lat="28.192016666666667" lon="-16.524783333333332">
        <ele>1197</ele>
        <time>2024-03-30T13:38:53.000Z</time>
      </trkpt>
      <trkpt lat="28.192016666666667" lon="-16.524733333333334">
        <ele>1198</ele>
        <time>2024-03-30T13:38:54.000Z</time>
      </trkpt>
      <trkpt lat="28.192016666666667" lon="-16.52466666666667">
        <ele>1197</ele>
        <time>2024-03-30T13:38:55.000Z</time>
      </trkpt>
      <trkpt lat="28.192033333333335" lon="-16.524616666666667">
        <ele>1197</ele>
        <time>2024-03-30T13:38:56.000Z</time>
      </trkpt>
      <trkpt lat="28.192066666666665" lon="-16.52455">
        <ele>1195</ele>
        <time>2024-03-30T13:38:57.000Z</time>
      </trkpt>
      <trkpt lat="28.192083333333333" lon="-16.52445">
        <ele>1194</ele>
        <time>2024-03-30T13:38:58.000Z</time>
      </trkpt>
      <trkpt lat="28.192083333333333" lon="-16.524366666666666">
        <ele>1192</ele>
        <time>2024-03-30T13:38:59.000Z</time>
      </trkpt>
      <trkpt lat="28.192083333333333" lon="-16.524266666666666">
        <ele>1192</ele>
        <time>2024-03-30T13:39:00.000Z</time>
      </trkpt>
      <trkpt lat="28.1921" lon="-16.524166666666666">
        <ele>1192</ele>
        <time>2024-03-30T13:39:01.000Z</time>
      </trkpt>
      <trkpt lat="28.1921" lon="-16.524083333333333">
        <ele>1192</ele>
        <time>2024-03-30T13:39:02.000Z</time>
      </trkpt>
      <trkpt lat="28.192116666666667" lon="-16.524">
        <ele>1192</ele>
        <time>2024-03-30T13:39:03.000Z</time>
      </trkpt>
      <trkpt lat="28.192133333333334" lon="-16.52391666666667">
        <ele>1191</ele>
        <time>2024-03-30T13:39:04.000Z</time>
      </trkpt>
      <trkpt lat="28.19215" lon="-16.523816666666665">
        <ele>1190</ele>
        <time>2024-03-30T13:39:05.000Z</time>
      </trkpt>
      <trkpt lat="28.19215" lon="-16.523716666666665">
        <ele>1187</ele>
        <time>2024-03-30T13:39:06.000Z</time>
      </trkpt>
      <trkpt lat="28.192133333333334" lon="-16.5236">
        <ele>1186</ele>
        <time>2024-03-30T13:39:07.000Z</time>
      </trkpt>
      <trkpt lat="28.192116666666667" lon="-16.5235">
        <ele>1185</ele>
        <time>2024-03-30T13:39:08.000Z</time>
      </trkpt>
      <trkpt lat="28.19215" lon="-16.5234">
        <ele>1185</ele>
        <time>2024-03-30T13:39:09.000Z</time>
      </trkpt>
      <trkpt lat="28.192183333333332" lon="-16.523316666666666">
        <ele>1185</ele>
        <time>2024-03-30T13:39:10.000Z</time>
      </trkpt>
      <trkpt lat="28.192233333333334" lon="-16.523233333333334">
        <ele>1185</ele>
        <time>2024-03-30T13:39:11.000Z</time>
      </trkpt>
      <trkpt lat="28.192266666666665" lon="-16.52315">
        <ele>1184</ele>
        <time>2024-03-30T13:39:12.000Z</time>
      </trkpt>
      <trkpt lat="28.192283333333332" lon="-16.523066666666665">
        <ele>1183</ele>
        <time>2024-03-30T13:39:13.000Z</time>
      </trkpt>
      <trkpt lat="28.192283333333332" lon="-16.522983333333332">
        <ele>1181</ele>
        <time>2024-03-30T13:39:14.000Z</time>
      </trkpt>
      <trkpt lat="28.192283333333332" lon="-16.5229">
        <ele>1178</ele>
        <time>2024-03-30T13:39:15.000Z</time>
      </trkpt>
      <trkpt lat="28.192283333333332" lon="-16.522783333333333">
        <ele>1175</ele>
        <time>2024-03-30T13:39:16.000Z</time>
      </trkpt>
      <trkpt lat="28.1923" lon="-16.522683333333333">
        <ele>1174</ele>
        <time>2024-03-30T13:39:17.000Z</time>
      </trkpt>
      <trkpt lat="28.192316666666667" lon="-16.522566666666666">
        <ele>1173</ele>
        <time>2024-03-30T13:39:18.000Z</time>
      </trkpt>
      <trkpt lat="28.192333333333334" lon="-16.522466666666666">
        <ele>1173</ele>
        <time>2024-03-30T13:39:19.000Z</time>
      </trkpt>
      <trkpt lat="28.19236666666667" lon="-16.522383333333334">
        <ele>1173</ele>
        <time>2024-03-30T13:39:20.000Z</time>
      </trkpt>
      <trkpt lat="28.192383333333332" lon="-16.522283333333334">
        <ele>1172</ele>
        <time>2024-03-30T13:39:21.000Z</time>
      </trkpt>
      <trkpt lat="28.1924" lon="-16.5222">
        <ele>1171</ele>
        <time>2024-03-30T13:39:22.000Z</time>
      </trkpt>
      <trkpt lat="28.192416666666666" lon="-16.522100000000002">
        <ele>1169</ele>
        <time>2024-03-30T13:39:23.000Z</time>
      </trkpt>
      <trkpt lat="28.192433333333334" lon="-16.522016666666666">
        <ele>1166</ele>
        <time>2024-03-30T13:39:24.000Z</time>
      </trkpt>
      <trkpt lat="28.192466666666668" lon="-16.521916666666666">
        <ele>1163</ele>
        <time>2024-03-30T13:39:25.000Z</time>
      </trkpt>
      <trkpt lat="28.192516666666666" lon="-16.521833333333333">
        <ele>1160</ele>
        <time>2024-03-30T13:39:26.000Z</time>
      </trkpt>
      <trkpt lat="28.19255" lon="-16.521733333333334">
        <ele>1159</ele>
        <time>2024-03-30T13:39:27.000Z</time>
      </trkpt>
      <trkpt lat="28.19258333333333" lon="-16.52166666666667">
        <ele>1157</ele>
        <time>2024-03-30T13:39:28.000Z</time>
      </trkpt>
      <trkpt lat="28.1926" lon="-16.521583333333332">
        <ele>1155</ele>
        <time>2024-03-30T13:39:29.000Z</time>
      </trkpt>
      <trkpt lat="28.192616666666666" lon="-16.5215">
        <ele>1153</ele>
        <time>2024-03-30T13:39:30.000Z</time>
      </trkpt>
      <trkpt lat="28.19265" lon="-16.521416666666667">
        <ele>1150</ele>
        <time>2024-03-30T13:39:31.000Z</time>
      </trkpt>
      <trkpt lat="28.192683333333335" lon="-16.521333333333335">
        <ele>1147</ele>
        <time>2024-03-30T13:39:32.000Z</time>
      </trkpt>
      <trkpt lat="28.192716666666666" lon="-16.521233333333335">
        <ele>1145</ele>
        <time>2024-03-30T13:39:33.000Z</time>
      </trkpt>
      <trkpt lat="28.192733333333333" lon="-16.521116666666668">
        <ele>1144</ele>
        <time>2024-03-30T13:39:34.000Z</time>
      </trkpt>
      <trkpt lat="28.192766666666667" lon="-16.521016666666668">
        <ele>1144</ele>
        <time>2024-03-30T13:39:35.000Z</time>
      </trkpt>
      <trkpt lat="28.1928" lon="-16.520933333333332">
        <ele>1143</ele>
        <time>2024-03-30T13:39:36.000Z</time>
      </trkpt>
      <trkpt lat="28.192833333333333" lon="-16.520866666666667">
        <ele>1142</ele>
        <time>2024-03-30T13:39:37.000Z</time>
      </trkpt>
      <trkpt lat="28.19285" lon="-16.520783333333334">
        <ele>1139</ele>
        <time>2024-03-30T13:39:38.000Z</time>
      </trkpt>
      <trkpt lat="28.192866666666667" lon="-16.520683333333334">
        <ele>1136</ele>
        <time>2024-03-30T13:39:39.000Z</time>
      </trkpt>
      <trkpt lat="28.192883333333334" lon="-16.520583333333335">
        <ele>1133</ele>
        <time>2024-03-30T13:39:40.000Z</time>
      </trkpt>
      <trkpt lat="28.1929" lon="-16.520483333333335">
        <ele>1131</ele>
        <time>2024-03-30T13:39:41.000Z</time>
      </trkpt>
      <trkpt lat="28.192916666666665" lon="-16.520383333333335">
        <ele>1131</ele>
        <time>2024-03-30T13:39:42.000Z</time>
      </trkpt>
      <trkpt lat="28.192933333333333" lon="-16.5203">
        <ele>1130</ele>
        <time>2024-03-30T13:39:43.000Z</time>
      </trkpt>
      <trkpt lat="28.192966666666667" lon="-16.5202">
        <ele>1128</ele>
        <time>2024-03-30T13:39:44.000Z</time>
      </trkpt>
      <trkpt lat="28.192983333333334" lon="-16.520116666666667">
        <ele>1126</ele>
        <time>2024-03-30T13:39:45.000Z</time>
      </trkpt>
      <trkpt lat="28.193016666666665" lon="-16.520033333333334">
        <ele>1124</ele>
        <time>2024-03-30T13:39:46.000Z</time>
      </trkpt>
      <trkpt lat="28.193066666666667" lon="-16.519933333333334">
        <ele>1123</ele>
        <time>2024-03-30T13:39:47.000Z</time>
      </trkpt>
      <trkpt lat="28.1931" lon="-16.51985">
        <ele>1121</ele>
        <time>2024-03-30T13:39:48.000Z</time>
      </trkpt>
      <trkpt lat="28.19311666666667" lon="-16.51975">
        <ele>1120</ele>
        <time>2024-03-30T13:39:49.000Z</time>
      </trkpt>
      <trkpt lat="28.19311666666667" lon="-16.51965">
        <ele>1119</ele>
        <time>2024-03-30T13:39:50.000Z</time>
      </trkpt>
      <trkpt lat="28.19311666666667" lon="-16.519566666666666">
        <ele>1119</ele>
        <time>2024-03-30T13:39:51.000Z</time>
      </trkpt>
      <trkpt lat="28.19311666666667" lon="-16.519483333333334">
        <ele>1118</ele>
        <time>2024-03-30T13:39:52.000Z</time>
      </trkpt>
      <trkpt lat="28.193133333333332" lon="-16.519416666666668">
        <ele>1116</ele>
        <time>2024-03-30T13:39:53.000Z</time>
      </trkpt>
      <trkpt lat="28.193166666666666" lon="-16.51935">
        <ele>1114</ele>
        <time>2024-03-30T13:39:54.000Z</time>
      </trkpt>
      <trkpt lat="28.1932" lon="-16.519266666666667">
        <ele>1111</ele>
        <time>2024-03-30T13:39:55.000Z</time>
      </trkpt>
      <trkpt lat="28.19325" lon="-16.5192">
        <ele>1108</ele>
        <time>2024-03-30T13:39:56.000Z</time>
      </trkpt>
      <trkpt lat="28.193316666666668" lon="-16.519116666666665">
        <ele>1107</ele>
        <time>2024-03-30T13:39:57.000Z</time>
      </trkpt>
      <trkpt lat="28.19335" lon="-16.519066666666667">
        <ele>1105</ele>
        <time>2024-03-30T13:39:58.000Z</time>
      </trkpt>
      <trkpt lat="28.193416666666668" lon="-16.519">
        <ele>1103</ele>
        <time>2024-03-30T13:39:59.000Z</time>
      </trkpt>
      <trkpt lat="28.19345" lon="-16.518933333333333">
        <ele>1100</ele>
        <time>2024-03-30T13:40:00.000Z</time>
      </trkpt>
      <trkpt lat="28.193483333333333" lon="-16.51885">
        <ele>1098</ele>
        <time>2024-03-30T13:40:01.000Z</time>
      </trkpt>
      <trkpt lat="28.193516666666667" lon="-16.518766666666668">
        <ele>1096</ele>
        <time>2024-03-30T13:40:02.000Z</time>
      </trkpt>
      <trkpt lat="28.193533333333335" lon="-16.518683333333332">
        <ele>1094</ele>
        <time>2024-03-30T13:40:03.000Z</time>
      </trkpt>
      <trkpt lat="28.19355" lon="-16.518583333333332">
        <ele>1093</ele>
        <time>2024-03-30T13:40:04.000Z</time>
      </trkpt>
      <trkpt lat="28.193566666666666" lon="-16.5185">
        <ele>1093</ele>
        <time>2024-03-30T13:40:05.000Z</time>
      </trkpt>
      <trkpt lat="28.193583333333333" lon="-16.518433333333334">
        <ele>1094</ele>
        <time>2024-03-30T13:40:06.000Z</time>
      </trkpt>
      <trkpt lat="28.193616666666667" lon="-16.518383333333333">
        <ele>1094</ele>
        <time>2024-03-30T13:40:07.000Z</time>
      </trkpt>
      <trkpt lat="28.193633333333334" lon="-16.51835">
        <ele>1093</ele>
        <time>2024-03-30T13:40:08.000Z</time>
      </trkpt>
      <trkpt lat="28.193666666666665" lon="-16.518283333333333">
        <ele>1091</ele>
        <time>2024-03-30T13:40:09.000Z</time>
      </trkpt>
      <trkpt lat="28.193683333333333" lon="-16.5182">
        <ele>1089</ele>
        <time>2024-03-30T13:40:10.000Z</time>
      </trkpt>
      <trkpt lat="28.193716666666667" lon="-16.5181">
        <ele>1088</ele>
        <time>2024-03-30T13:40:11.000Z</time>
      </trkpt>
      <trkpt lat="28.193733333333334" lon="-16.518016666666668">
        <ele>1088</ele>
        <time>2024-03-30T13:40:12.000Z</time>
      </trkpt>
      <trkpt lat="28.193766666666665" lon="-16.51795">
        <ele>1088</ele>
        <time>2024-03-30T13:40:13.000Z</time>
      </trkpt>
      <trkpt lat="28.1938" lon="-16.517883333333334">
        <ele>1087</ele>
        <time>2024-03-30T13:40:14.000Z</time>
      </trkpt>
      <trkpt lat="28.193833333333334" lon="-16.51781666666667">
        <ele>1086</ele>
        <time>2024-03-30T13:40:15.000Z</time>
      </trkpt>
      <trkpt lat="28.19386666666667" lon="-16.517733333333332">
        <ele>1085</ele>
        <time>2024-03-30T13:40:16.000Z</time>
      </trkpt>
      <trkpt lat="28.193883333333332" lon="-16.517666666666667">
        <ele>1084</ele>
        <time>2024-03-30T13:40:17.000Z</time>
      </trkpt>
      <trkpt lat="28.1939" lon="-16.517566666666667">
        <ele>1083</ele>
        <time>2024-03-30T13:40:18.000Z</time>
      </trkpt>
      <trkpt lat="28.193916666666667" lon="-16.5175">
        <ele>1082</ele>
        <time>2024-03-30T13:40:19.000Z</time>
      </trkpt>
      <trkpt lat="28.193933333333334" lon="-16.517416666666666">
        <ele>1080</ele>
        <time>2024-03-30T13:40:20.000Z</time>
      </trkpt>
      <trkpt lat="28.193933333333334" lon="-16.517333333333333">
        <ele>1080</ele>
        <time>2024-03-30T13:40:21.000Z</time>
      </trkpt>
      <trkpt lat="28.19395" lon="-16.51725">
        <ele>1081</ele>
        <time>2024-03-30T13:40:22.000Z</time>
      </trkpt>
      <trkpt lat="28.193966666666668" lon="-16.5172">
        <ele>1084</ele>
        <time>2024-03-30T13:40:23.000Z</time>
      </trkpt>
      <trkpt lat="28.193966666666668" lon="-16.51718333333333">
        <ele>1086</ele>
        <time>2024-03-30T13:40:24.000Z</time>
      </trkpt>
      <trkpt lat="28.193983333333332" lon="-16.517166666666668">
        <ele>1087</ele>
        <time>2024-03-30T13:40:25.000Z</time>
      </trkpt>
      <trkpt lat="28.193983333333332" lon="-16.51715">
        <ele>1086</ele>
        <time>2024-03-30T13:40:26.000Z</time>
      </trkpt>
      <trkpt lat="28.194" lon="-16.5171">
        <ele>1085</ele>
        <time>2024-03-30T13:40:27.000Z</time>
      </trkpt>
      <trkpt lat="28.194" lon="-16.517033333333334">
        <ele>1084</ele>
        <time>2024-03-30T13:40:28.000Z</time>
      </trkpt>
      <trkpt lat="28.193983333333332" lon="-16.516966666666665">
        <ele>1084</ele>
        <time>2024-03-30T13:40:29.000Z</time>
      </trkpt>
      <trkpt lat="28.193983333333332" lon="-16.5169">
        <ele>1083</ele>
        <time>2024-03-30T13:40:30.000Z</time>
      </trkpt>
      <trkpt lat="28.193983333333332" lon="-16.516866666666665">
        <ele>1082</ele>
        <time>2024-03-30T13:40:31.000Z</time>
      </trkpt>
      <trkpt lat="28.194" lon="-16.516816666666667">
        <ele>1082</ele>
        <time>2024-03-30T13:40:32.000Z</time>
      </trkpt>
      <trkpt lat="28.194" lon="-16.516766666666665">
        <ele>1080</ele>
        <time>2024-03-30T13:40:33.000Z</time>
      </trkpt>
      <trkpt lat="28.194" lon="-16.516716666666667">
        <ele>1077</ele>
        <time>2024-03-30T13:40:34.000Z</time>
      </trkpt>
      <trkpt lat="28.193983333333332" lon="-16.516666666666666">
        <ele>1075</ele>
        <time>2024-03-30T13:40:35.000Z</time>
      </trkpt>
      <trkpt lat="28.193983333333332" lon="-16.5166">
        <ele>1074</ele>
        <time>2024-03-30T13:40:36.000Z</time>
      </trkpt>
      <trkpt lat="28.193983333333332" lon="-16.516533333333335">
        <ele>1073</ele>
        <time>2024-03-30T13:40:37.000Z</time>
      </trkpt>
      <trkpt lat="28.193983333333332" lon="-16.516466666666666">
        <ele>1072</ele>
        <time>2024-03-30T13:40:38.000Z</time>
      </trkpt>
      <trkpt lat="28.193983333333332" lon="-16.5164">
        <ele>1071</ele>
        <time>2024-03-30T13:40:39.000Z</time>
      </trkpt>
      <trkpt lat="28.193966666666668" lon="-16.516333333333332">
        <ele>1071</ele>
        <time>2024-03-30T13:40:40.000Z</time>
      </trkpt>
      <trkpt lat="28.193983333333332" lon="-16.51625">
        <ele>1070</ele>
        <time>2024-03-30T13:40:41.000Z</time>
      </trkpt>
      <trkpt lat="28.194" lon="-16.516183333333334">
        <ele>1072</ele>
        <time>2024-03-30T13:40:42.000Z</time>
      </trkpt>
      <trkpt lat="28.194033333333334" lon="-16.516116666666665">
        <ele>1073</ele>
        <time>2024-03-30T13:40:43.000Z</time>
      </trkpt>
      <trkpt lat="28.194033333333334" lon="-16.516066666666667">
        <ele>1075</ele>
        <time>2024-03-30T13:40:44.000Z</time>
      </trkpt>
      <trkpt lat="28.194016666666666" lon="-16.516016666666665">
        <ele>1075</ele>
        <time>2024-03-30T13:40:45.000Z</time>
      </trkpt>
      <trkpt lat="28.193983333333332" lon="-16.515966666666667">
        <ele>1075</ele>
        <time>2024-03-30T13:40:46.000Z</time>
      </trkpt>
      <trkpt lat="28.193966666666668" lon="-16.5159">
        <ele>1075</ele>
        <time>2024-03-30T13:40:47.000Z</time>
      </trkpt>
      <trkpt lat="28.193983333333332" lon="-16.515833333333333">
        <ele>1074</ele>
        <time>2024-03-30T13:40:48.000Z</time>
      </trkpt>
      <trkpt lat="28.194" lon="-16.515783333333335">
        <ele>1073</ele>
        <time>2024-03-30T13:40:49.000Z</time>
      </trkpt>
      <trkpt lat="28.194033333333334" lon="-16.515716666666666">
        <ele>1073</ele>
        <time>2024-03-30T13:40:50.000Z</time>
      </trkpt>
      <trkpt lat="28.19405" lon="-16.51565">
        <ele>1073</ele>
        <time>2024-03-30T13:40:51.000Z</time>
      </trkpt>
      <trkpt lat="28.19405" lon="-16.5156">
        <ele>1073</ele>
        <time>2024-03-30T13:40:52.000Z</time>
      </trkpt>
      <trkpt lat="28.19405" lon="-16.515533333333334">
        <ele>1073</ele>
        <time>2024-03-30T13:40:53.000Z</time>
      </trkpt>
      <trkpt lat="28.19405" lon="-16.515483333333332">
        <ele>1072</ele>
        <time>2024-03-30T13:40:54.000Z</time>
      </trkpt>
      <trkpt lat="28.19408333333333" lon="-16.515433333333334">
        <ele>1072</ele>
        <time>2024-03-30T13:40:55.000Z</time>
      </trkpt>
      <trkpt lat="28.194116666666666" lon="-16.515366666666665">
        <ele>1073</ele>
        <time>2024-03-30T13:40:56.000Z</time>
      </trkpt>
      <trkpt lat="28.19415" lon="-16.5153">
        <ele>1075</ele>
        <time>2024-03-30T13:40:57.000Z</time>
      </trkpt>
      <trkpt lat="28.194183333333335" lon="-16.51525">
        <ele>1077</ele>
        <time>2024-03-30T13:40:58.000Z</time>
      </trkpt>
      <trkpt lat="28.194216666666666" lon="-16.515216666666667">
        <ele>1079</ele>
        <time>2024-03-30T13:40:59.000Z</time>
      </trkpt>
      <trkpt lat="28.194233333333333" lon="-16.5152">
        <ele>1080</ele>
        <time>2024-03-30T13:41:00.000Z</time>
      </trkpt>
      <trkpt lat="28.19425" lon="-16.515183333333333">
        <ele>1080</ele>
        <time>2024-03-30T13:41:01.000Z</time>
      </trkpt>
      <trkpt lat="28.194283333333335" lon="-16.515133333333335">
        <ele>1079</ele>
        <time>2024-03-30T13:41:02.000Z</time>
      </trkpt>
      <trkpt lat="28.19435" lon="-16.515066666666666">
        <ele>1079</ele>
        <time>2024-03-30T13:41:03.000Z</time>
      </trkpt>
      <trkpt lat="28.194416666666665" lon="-16.515016666666668">
        <ele>1081</ele>
        <time>2024-03-30T13:41:04.000Z</time>
      </trkpt>
      <trkpt lat="28.194483333333334" lon="-16.514983333333333">
        <ele>1083</ele>
        <time>2024-03-30T13:41:05.000Z</time>
      </trkpt>
      <trkpt lat="28.194533333333332" lon="-16.51495">
        <ele>1085</ele>
        <time>2024-03-30T13:41:06.000Z</time>
      </trkpt>
      <trkpt lat="28.194533333333332" lon="-16.514916666666668">
        <ele>1086</ele>
        <time>2024-03-30T13:41:07.000Z</time>
      </trkpt>
      <trkpt lat="28.194533333333332" lon="-16.514883333333334">
        <ele>1085</ele>
        <time>2024-03-30T13:41:08.000Z</time>
      </trkpt>
      <trkpt lat="28.194516666666665" lon="-16.514833333333332">
        <ele>1084</ele>
        <time>2024-03-30T13:41:09.000Z</time>
      </trkpt>
      <trkpt lat="28.194516666666665" lon="-16.514783333333334">
        <ele>1082</ele>
        <time>2024-03-30T13:41:10.000Z</time>
      </trkpt>
      <trkpt lat="28.194533333333332" lon="-16.514716666666665">
        <ele>1081</ele>
        <time>2024-03-30T13:41:11.000Z</time>
      </trkpt>
      <trkpt lat="28.194583333333334" lon="-16.514633333333332">
        <ele>1081</ele>
        <time>2024-03-30T13:41:12.000Z</time>
      </trkpt>
      <trkpt lat="28.194633333333332" lon="-16.514566666666667">
        <ele>1082</ele>
        <time>2024-03-30T13:41:13.000Z</time>
      </trkpt>
      <trkpt lat="28.194666666666667" lon="-16.5145">
        <ele>1085</ele>
        <time>2024-03-30T13:41:14.000Z</time>
      </trkpt>
      <trkpt lat="28.1947" lon="-16.514433333333333">
        <ele>1089</ele>
        <time>2024-03-30T13:41:15.000Z</time>
      </trkpt>
      <trkpt lat="28.194733333333332" lon="-16.514383333333335">
        <ele>1093</ele>
        <time>2024-03-30T13:41:16.000Z</time>
      </trkpt>
      <trkpt lat="28.194766666666666" lon="-16.514383333333335">
        <ele>1097</ele>
        <time>2024-03-30T13:41:17.000Z</time>
      </trkpt>
      <trkpt lat="28.1948" lon="-16.514433333333333">
        <ele>1097</ele>
        <time>2024-03-30T13:41:18.000Z</time>
      </trkpt>
      <trkpt lat="28.19483333333333" lon="-16.514533333333333">
        <ele>1095</ele>
        <time>2024-03-30T13:41:19.000Z</time>
      </trkpt>
      <trkpt lat="28.194883333333333" lon="-16.514666666666667">
        <ele>1092</ele>
        <time>2024-03-30T13:41:20.000Z</time>
      </trkpt>
      <trkpt lat="28.19485" lon="-16.514833333333332">
        <ele>1092</ele>
        <time>2024-03-30T13:41:21.000Z</time>
      </trkpt>
      <trkpt lat="28.194783333333334" lon="-16.514983333333333">
        <ele>1094</ele>
        <time>2024-03-30T13:41:22.000Z</time>
      </trkpt>
      <trkpt lat="28.194666666666667" lon="-16.515083333333333">
        <ele>1096</ele>
        <time>2024-03-30T13:41:23.000Z</time>
      </trkpt>
      <trkpt lat="28.194516666666665" lon="-16.5151">
        <ele>1098</ele>
        <time>2024-03-30T13:41:24.000Z</time>
      </trkpt>
      <trkpt lat="28.194416666666665" lon="-16.515083333333333">
        <ele>1101</ele>
        <time>2024-03-30T13:41:25.000Z</time>
      </trkpt>
      <trkpt lat="28.194383333333334" lon="-16.51505">
        <ele>1102</ele>
        <time>2024-03-30T13:41:26.000Z</time>
      </trkpt>
      <trkpt lat="28.194383333333334" lon="-16.514983333333333">
        <ele>1103</ele>
        <time>2024-03-30T13:41:27.000Z</time>
      </trkpt>
      <trkpt lat="28.1944" lon="-16.5149">
        <ele>1104</ele>
        <time>2024-03-30T13:41:28.000Z</time>
      </trkpt>
      <trkpt lat="28.194416666666665" lon="-16.514833333333332">
        <ele>1106</ele>
        <time>2024-03-30T13:41:29.000Z</time>
      </trkpt>
      <trkpt lat="28.194416666666665" lon="-16.514766666666667">
        <ele>1108</ele>
        <time>2024-03-30T13:41:30.000Z</time>
      </trkpt>
      <trkpt lat="28.19445" lon="-16.514733333333332">
        <ele>1109</ele>
        <time>2024-03-30T13:41:31.000Z</time>
      </trkpt>
      <trkpt lat="28.194483333333334" lon="-16.514716666666665">
        <ele>1110</ele>
        <time>2024-03-30T13:41:32.000Z</time>
      </trkpt>
      <trkpt lat="28.194533333333332" lon="-16.514716666666665">
        <ele>1110</ele>
        <time>2024-03-30T13:41:33.000Z</time>
      </trkpt>
      <trkpt lat="28.194566666666667" lon="-16.5147">
        <ele>1109</ele>
        <time>2024-03-30T13:41:34.000Z</time>
      </trkpt>
      <trkpt lat="28.1946" lon="-16.514683333333334">
        <ele>1108</ele>
        <time>2024-03-30T13:41:35.000Z</time>
      </trkpt>
      <trkpt lat="28.19465" lon="-16.51465">
        <ele>1106</ele>
        <time>2024-03-30T13:41:36.000Z</time>
      </trkpt>
      <trkpt lat="28.1947" lon="-16.514633333333332">
        <ele>1104</ele>
        <time>2024-03-30T13:41:37.000Z</time>
      </trkpt>
      <trkpt lat="28.19475" lon="-16.514583333333334">
        <ele>1103</ele>
        <time>2024-03-30T13:41:38.000Z</time>
      </trkpt>
      <trkpt lat="28.194816666666668" lon="-16.51455">
        <ele>1102</ele>
        <time>2024-03-30T13:41:39.000Z</time>
      </trkpt>
      <trkpt lat="28.19485" lon="-16.5145">
        <ele>1102</ele>
        <time>2024-03-30T13:41:40.000Z</time>
      </trkpt>
      <trkpt lat="28.1949" lon="-16.51445">
        <ele>1101</ele>
        <time>2024-03-30T13:41:41.000Z</time>
      </trkpt>
      <trkpt lat="28.194916666666668" lon="-16.5144">
        <ele>1100</ele>
        <time>2024-03-30T13:41:42.000Z</time>
      </trkpt>
      <trkpt lat="28.19495" lon="-16.51435">
        <ele>1099</ele>
        <time>2024-03-30T13:41:43.000Z</time>
      </trkpt>
      <trkpt lat="28.194966666666666" lon="-16.514283333333335">
        <ele>1097</ele>
        <time>2024-03-30T13:41:44.000Z</time>
      </trkpt>
      <trkpt lat="28.194983333333333" lon="-16.514216666666666">
        <ele>1094</ele>
        <time>2024-03-30T13:41:45.000Z</time>
      </trkpt>
      <trkpt lat="28.195016666666668" lon="-16.51415">
        <ele>1091</ele>
        <time>2024-03-30T13:41:46.000Z</time>
      </trkpt>
      <trkpt lat="28.195033333333335" lon="-16.51406666666667">
        <ele>1088</ele>
        <time>2024-03-30T13:41:47.000Z</time>
      </trkpt>
      <trkpt lat="28.195066666666666" lon="-16.513983333333332">
        <ele>1085</ele>
        <time>2024-03-30T13:41:48.000Z</time>
      </trkpt>
      <trkpt lat="28.195083333333333" lon="-16.513883333333332">
        <ele>1084</ele>
        <time>2024-03-30T13:41:49.000Z</time>
      </trkpt>
      <trkpt lat="28.195083333333333" lon="-16.5138">
        <ele>1084</ele>
        <time>2024-03-30T13:41:50.000Z</time>
      </trkpt>
      <trkpt lat="28.1951" lon="-16.513733333333334">
        <ele>1083</ele>
        <time>2024-03-30T13:41:51.000Z</time>
      </trkpt>
      <trkpt lat="28.1951" lon="-16.51365">
        <ele>1081</ele>
        <time>2024-03-30T13:41:52.000Z</time>
      </trkpt>
      <trkpt lat="28.1951" lon="-16.513583333333333">
        <ele>1079</ele>
        <time>2024-03-30T13:41:53.000Z</time>
      </trkpt>
      <trkpt lat="28.1951" lon="-16.513483333333333">
        <ele>1075</ele>
        <time>2024-03-30T13:41:54.000Z</time>
      </trkpt>
      <trkpt lat="28.1951" lon="-16.513383333333334">
        <ele>1072</ele>
        <time>2024-03-30T13:41:55.000Z</time>
      </trkpt>
      <trkpt lat="28.195116666666667" lon="-16.513283333333334">
        <ele>1070</ele>
        <time>2024-03-30T13:41:56.000Z</time>
      </trkpt>
      <trkpt lat="28.195133333333334" lon="-16.513166666666667">
        <ele>1070</ele>
        <time>2024-03-30T13:41:57.000Z</time>
      </trkpt>
      <trkpt lat="28.19515" lon="-16.51305">
        <ele>1071</ele>
        <time>2024-03-30T13:41:58.000Z</time>
      </trkpt>
      <trkpt lat="28.195166666666665" lon="-16.512983333333334">
        <ele>1075</ele>
        <time>2024-03-30T13:41:59.000Z</time>
      </trkpt>
      <trkpt lat="28.195166666666665" lon="-16.512933333333333">
        <ele>1081</ele>
        <time>2024-03-30T13:42:00.000Z</time>
      </trkpt>
      <trkpt lat="28.195166666666665" lon="-16.512916666666666">
        <ele>1082</ele>
        <time>2024-03-30T13:42:01.000Z</time>
      </trkpt>
      <trkpt lat="28.19515" lon="-16.512916666666666">
        <ele>1081</ele>
        <time>2024-03-30T13:42:02.000Z</time>
      </trkpt>
      <trkpt lat="28.195116666666667" lon="-16.512883333333335">
        <ele>1078</ele>
        <time>2024-03-30T13:42:03.000Z</time>
      </trkpt>
      <trkpt lat="28.1951" lon="-16.512833333333333">
        <ele>1075</ele>
        <time>2024-03-30T13:42:04.000Z</time>
      </trkpt>
      <trkpt lat="28.1951" lon="-16.512733333333333">
        <ele>1071</ele>
        <time>2024-03-30T13:42:05.000Z</time>
      </trkpt>
      <trkpt lat="28.195116666666667" lon="-16.512633333333333">
        <ele>1069</ele>
        <time>2024-03-30T13:42:06.000Z</time>
      </trkpt>
      <trkpt lat="28.195133333333334" lon="-16.512566666666668">
        <ele>1070</ele>
        <time>2024-03-30T13:42:07.000Z</time>
      </trkpt>
      <trkpt lat="28.195166666666665" lon="-16.512516666666667">
        <ele>1071</ele>
        <time>2024-03-30T13:42:08.000Z</time>
      </trkpt>
      <trkpt lat="28.195166666666665" lon="-16.512483333333332">
        <ele>1070</ele>
        <time>2024-03-30T13:42:09.000Z</time>
      </trkpt>
      <trkpt lat="28.195183333333333" lon="-16.51245">
        <ele>1069</ele>
        <time>2024-03-30T13:42:10.000Z</time>
      </trkpt>
      <trkpt lat="28.195183333333333" lon="-16.5124">
        <ele>1067</ele>
        <time>2024-03-30T13:42:11.000Z</time>
      </trkpt>
      <trkpt lat="28.195183333333333" lon="-16.512333333333334">
        <ele>1064</ele>
        <time>2024-03-30T13:42:12.000Z</time>
      </trkpt>
      <trkpt lat="28.1952" lon="-16.512266666666665">
        <ele>1063</ele>
        <time>2024-03-30T13:42:13.000Z</time>
      </trkpt>
      <trkpt lat="28.1952" lon="-16.512216666666667">
        <ele>1063</ele>
        <time>2024-03-30T13:42:14.000Z</time>
      </trkpt>
      <trkpt lat="28.1952" lon="-16.512183333333333">
        <ele>1062</ele>
        <time>2024-03-30T13:42:15.000Z</time>
      </trkpt>
      <trkpt lat="28.195183333333333" lon="-16.512183333333333">
        <ele>1061</ele>
        <time>2024-03-30T13:42:16.000Z</time>
      </trkpt>
      <trkpt lat="28.195166666666665" lon="-16.512166666666666">
        <ele>1058</ele>
        <time>2024-03-30T13:42:17.000Z</time>
      </trkpt>
      <trkpt lat="28.195166666666665" lon="-16.512116666666667">
        <ele>1054</ele>
        <time>2024-03-30T13:42:18.000Z</time>
      </trkpt>
      <trkpt lat="28.195166666666665" lon="-16.51205">
        <ele>1049</ele>
        <time>2024-03-30T13:42:19.000Z</time>
      </trkpt>
      <trkpt lat="28.195166666666665" lon="-16.511966666666666">
        <ele>1046</ele>
        <time>2024-03-30T13:42:20.000Z</time>
      </trkpt>
      <trkpt lat="28.195183333333333" lon="-16.5119">
        <ele>1043</ele>
        <time>2024-03-30T13:42:21.000Z</time>
      </trkpt>
      <trkpt lat="28.195183333333333" lon="-16.511816666666668">
        <ele>1041</ele>
        <time>2024-03-30T13:42:22.000Z</time>
      </trkpt>
      <trkpt lat="28.1952" lon="-16.511733333333332">
        <ele>1040</ele>
        <time>2024-03-30T13:42:23.000Z</time>
      </trkpt>
      <trkpt lat="28.195216666666667" lon="-16.511633333333332">
        <ele>1040</ele>
        <time>2024-03-30T13:42:24.000Z</time>
      </trkpt>
      <trkpt lat="28.195216666666667" lon="-16.51155">
        <ele>1041</ele>
        <time>2024-03-30T13:42:25.000Z</time>
      </trkpt>
      <trkpt lat="28.195233333333334" lon="-16.511483333333334">
        <ele>1043</ele>
        <time>2024-03-30T13:42:26.000Z</time>
      </trkpt>
      <trkpt lat="28.195233333333334" lon="-16.511433333333333">
        <ele>1044</ele>
        <time>2024-03-30T13:42:27.000Z</time>
      </trkpt>
      <trkpt lat="28.19525" lon="-16.5114">
        <ele>1043</ele>
        <time>2024-03-30T13:42:28.000Z</time>
      </trkpt>
      <trkpt lat="28.195266666666665" lon="-16.511333333333333">
        <ele>1041</ele>
        <time>2024-03-30T13:42:29.000Z</time>
      </trkpt>
      <trkpt lat="28.195283333333332" lon="-16.51125">
        <ele>1037</ele>
        <time>2024-03-30T13:42:30.000Z</time>
      </trkpt>
      <trkpt lat="28.1953" lon="-16.511166666666668">
        <ele>1034</ele>
        <time>2024-03-30T13:42:31.000Z</time>
      </trkpt>
      <trkpt lat="28.1953" lon="-16.511083333333332">
        <ele>1034</ele>
        <time>2024-03-30T13:42:32.000Z</time>
      </trkpt>
      <trkpt lat="28.1953" lon="-16.511033333333334">
        <ele>1033</ele>
        <time>2024-03-30T13:42:33.000Z</time>
      </trkpt>
      <trkpt lat="28.1953" lon="-16.510983333333332">
        <ele>1031</ele>
        <time>2024-03-30T13:42:34.000Z</time>
      </trkpt>
      <trkpt lat="28.195283333333332" lon="-16.510916666666667">
        <ele>1027</ele>
        <time>2024-03-30T13:42:35.000Z</time>
      </trkpt>
      <trkpt lat="28.195283333333332" lon="-16.510833333333334">
        <ele>1024</ele>
        <time>2024-03-30T13:42:36.000Z</time>
      </trkpt>
      <trkpt lat="28.195283333333332" lon="-16.510733333333334">
        <ele>1022</ele>
        <time>2024-03-30T13:42:37.000Z</time>
      </trkpt>
      <trkpt lat="28.195283333333332" lon="-16.510616666666667">
        <ele>1023</ele>
        <time>2024-03-30T13:42:38.000Z</time>
      </trkpt>
      <trkpt lat="28.195283333333332" lon="-16.510516666666668">
        <ele>1024</ele>
        <time>2024-03-30T13:42:39.000Z</time>
      </trkpt>
      <trkpt lat="28.1953" lon="-16.510433333333335">
        <ele>1027</ele>
        <time>2024-03-30T13:42:40.000Z</time>
      </trkpt>
      <trkpt lat="28.195316666666667" lon="-16.510366666666666">
        <ele>1029</ele>
        <time>2024-03-30T13:42:41.000Z</time>
      </trkpt>
      <trkpt lat="28.195316666666667" lon="-16.5103">
        <ele>1029</ele>
        <time>2024-03-30T13:42:42.000Z</time>
      </trkpt>
      <trkpt lat="28.195316666666667" lon="-16.510266666666666">
        <ele>1027</ele>
        <time>2024-03-30T13:42:43.000Z</time>
      </trkpt>
      <trkpt lat="28.195316666666667" lon="-16.51021666666667">
        <ele>1025</ele>
        <time>2024-03-30T13:42:44.000Z</time>
      </trkpt>
      <trkpt lat="28.195316666666667" lon="-16.51015">
        <ele>1020</ele>
        <time>2024-03-30T13:42:45.000Z</time>
      </trkpt>
      <trkpt lat="28.195333333333334" lon="-16.51005">
        <ele>1017</ele>
        <time>2024-03-30T13:42:46.000Z</time>
      </trkpt>
      <trkpt lat="28.195333333333334" lon="-16.509966666666667">
        <ele>1016</ele>
        <time>2024-03-30T13:42:47.000Z</time>
      </trkpt>
      <trkpt lat="28.19535" lon="-16.509883333333335">
        <ele>1016</ele>
        <time>2024-03-30T13:42:48.000Z</time>
      </trkpt>
      <trkpt lat="28.195333333333334" lon="-16.509816666666666">
        <ele>1016</ele>
        <time>2024-03-30T13:42:49.000Z</time>
      </trkpt>
      <trkpt lat="28.195283333333332" lon="-16.509766666666668">
        <ele>1015</ele>
        <time>2024-03-30T13:42:50.000Z</time>
      </trkpt>
      <trkpt lat="28.195216666666667" lon="-16.509733333333333">
        <ele>1015</ele>
        <time>2024-03-30T13:42:51.000Z</time>
      </trkpt>
      <trkpt lat="28.195183333333333" lon="-16.5097">
        <ele>1013</ele>
        <time>2024-03-30T13:42:52.000Z</time>
      </trkpt>
      <trkpt lat="28.19515" lon="-16.509633333333333">
        <ele>1010</ele>
        <time>2024-03-30T13:42:53.000Z</time>
      </trkpt>
      <trkpt lat="28.195133333333334" lon="-16.509566666666668">
        <ele>1006</ele>
        <time>2024-03-30T13:42:54.000Z</time>
      </trkpt>
      <trkpt lat="28.195116666666667" lon="-16.509483333333332">
        <ele>1003</ele>
        <time>2024-03-30T13:42:55.000Z</time>
      </trkpt>
      <trkpt lat="28.195083333333333" lon="-16.5094">
        <ele>1001</ele>
        <time>2024-03-30T13:42:56.000Z</time>
      </trkpt>
      <trkpt lat="28.195016666666668" lon="-16.509316666666667">
        <ele>1003</ele>
        <time>2024-03-30T13:42:57.000Z</time>
      </trkpt>
      <trkpt lat="28.195" lon="-16.509266666666665">
        <ele>1008</ele>
        <time>2024-03-30T13:42:58.000Z</time>
      </trkpt>
      <trkpt lat="28.194983333333333" lon="-16.509216666666667">
        <ele>1012</ele>
        <time>2024-03-30T13:42:59.000Z</time>
      </trkpt>
      <trkpt lat="28.195016666666668" lon="-16.509166666666665">
        <ele>1014</ele>
        <time>2024-03-30T13:43:00.000Z</time>
      </trkpt>
      <trkpt lat="28.195066666666666" lon="-16.509133333333335">
        <ele>1015</ele>
        <time>2024-03-30T13:43:01.000Z</time>
      </trkpt>
      <trkpt lat="28.195133333333334" lon="-16.509083333333333">
        <ele>1013</ele>
        <time>2024-03-30T13:43:02.000Z</time>
      </trkpt>
      <trkpt lat="28.195216666666667" lon="-16.50905">
        <ele>1012</ele>
        <time>2024-03-30T13:43:03.000Z</time>
      </trkpt>
      <trkpt lat="28.195333333333334" lon="-16.509066666666666">
        <ele>1012</ele>
        <time>2024-03-30T13:43:04.000Z</time>
      </trkpt>
      <trkpt lat="28.19546666666667" lon="-16.509166666666665">
        <ele>1013</ele>
        <time>2024-03-30T13:43:05.000Z</time>
      </trkpt>
      <trkpt lat="28.195533333333334" lon="-16.5093">
        <ele>1013</ele>
        <time>2024-03-30T13:43:06.000Z</time>
      </trkpt>
      <trkpt lat="28.195516666666666" lon="-16.509433333333334">
        <ele>1011</ele>
        <time>2024-03-30T13:43:07.000Z</time>
      </trkpt>
      <trkpt lat="28.19545" lon="-16.509533333333334">
        <ele>1011</ele>
        <time>2024-03-30T13:43:08.000Z</time>
      </trkpt>
      <trkpt lat="28.195316666666667" lon="-16.509566666666668">
        <ele>1010</ele>
        <time>2024-03-30T13:43:09.000Z</time>
      </trkpt>
      <trkpt lat="28.195216666666667" lon="-16.50955">
        <ele>1009</ele>
        <time>2024-03-30T13:43:10.000Z</time>
      </trkpt>
      <trkpt lat="28.195166666666665" lon="-16.509483333333332">
        <ele>1012</ele>
        <time>2024-03-30T13:43:11.000Z</time>
      </trkpt>
      <trkpt lat="28.195166666666665" lon="-16.509416666666667">
        <ele>1015</ele>
        <time>2024-03-30T13:43:12.000Z</time>
      </trkpt>
      <trkpt lat="28.1952" lon="-16.509366666666665">
        <ele>1016</ele>
        <time>2024-03-30T13:43:13.000Z</time>
      </trkpt>
      <trkpt lat="28.195216666666667" lon="-16.50935">
        <ele>1017</ele>
        <time>2024-03-30T13:43:14.000Z</time>
      </trkpt>
      <trkpt lat="28.195233333333334" lon="-16.509316666666667">
        <ele>1017</ele>
        <time>2024-03-30T13:43:15.000Z</time>
      </trkpt>
      <trkpt lat="28.195216666666667" lon="-16.509266666666665">
        <ele>1019</ele>
        <time>2024-03-30T13:43:16.000Z</time>
      </trkpt>
      <trkpt lat="28.19525" lon="-16.5092">
        <ele>1019</ele>
        <time>2024-03-30T13:43:17.000Z</time>
      </trkpt>
      <trkpt lat="28.1953" lon="-16.509116666666667">
        <ele>1021</ele>
        <time>2024-03-30T13:43:18.000Z</time>
      </trkpt>
      <trkpt lat="28.195366666666665" lon="-16.50905">
        <ele>1021</ele>
        <time>2024-03-30T13:43:19.000Z</time>
      </trkpt>
      <trkpt lat="28.195433333333334" lon="-16.509">
        <ele>1022</ele>
        <time>2024-03-30T13:43:20.000Z</time>
      </trkpt>
      <trkpt lat="28.19555" lon="-16.509016666666668">
        <ele>1021</ele>
        <time>2024-03-30T13:43:21.000Z</time>
      </trkpt>
      <trkpt lat="28.195683333333335" lon="-16.509083333333333">
        <ele>1020</ele>
        <time>2024-03-30T13:43:22.000Z</time>
      </trkpt>
      <trkpt lat="28.195766666666668" lon="-16.5092">
        <ele>1021</ele>
        <time>2024-03-30T13:43:23.000Z</time>
      </trkpt>
      <trkpt lat="28.195816666666666" lon="-16.509316666666667">
        <ele>1021</ele>
        <time>2024-03-30T13:43:24.000Z</time>
      </trkpt>
      <trkpt lat="28.195816666666666" lon="-16.50945">
        <ele>1022</ele>
        <time>2024-03-30T13:43:25.000Z</time>
      </trkpt>
      <trkpt lat="28.195766666666668" lon="-16.509533333333334">
        <ele>1022</ele>
        <time>2024-03-30T13:43:26.000Z</time>
      </trkpt>
      <trkpt lat="28.195683333333335" lon="-16.509566666666668">
        <ele>1022</ele>
        <time>2024-03-30T13:43:27.000Z</time>
      </trkpt>
      <trkpt lat="28.1956" lon="-16.50955">
        <ele>1021</ele>
        <time>2024-03-30T13:43:28.000Z</time>
      </trkpt>
      <trkpt lat="28.19555" lon="-16.5095">
        <ele>1022</ele>
        <time>2024-03-30T13:43:29.000Z</time>
      </trkpt>
      <trkpt lat="28.195533333333334" lon="-16.509433333333334">
        <ele>1023</ele>
        <time>2024-03-30T13:43:30.000Z</time>
      </trkpt>
      <trkpt lat="28.195516666666666" lon="-16.509383333333332">
        <ele>1023</ele>
        <time>2024-03-30T13:43:31.000Z</time>
      </trkpt>
      <trkpt lat="28.195516666666666" lon="-16.50935">
        <ele>1024</ele>
        <time>2024-03-30T13:43:32.000Z</time>
      </trkpt>
      <trkpt lat="28.195533333333334" lon="-16.5093">
        <ele>1024</ele>
        <time>2024-03-30T13:43:33.000Z</time>
      </trkpt>
      <trkpt lat="28.195566666666668" lon="-16.509233333333334">
        <ele>1024</ele>
        <time>2024-03-30T13:43:34.000Z</time>
      </trkpt>
      <trkpt lat="28.19558333333333" lon="-16.509166666666665">
        <ele>1025</ele>
        <time>2024-03-30T13:43:35.000Z</time>
      </trkpt>
      <trkpt lat="28.195633333333333" lon="-16.5091">
        <ele>1026</ele>
        <time>2024-03-30T13:43:36.000Z</time>
      </trkpt>
      <trkpt lat="28.195666666666668" lon="-16.509033333333335">
        <ele>1027</ele>
        <time>2024-03-30T13:43:37.000Z</time>
      </trkpt>
      <trkpt lat="28.1957" lon="-16.508983333333333">
        <ele>1028</ele>
        <time>2024-03-30T13:43:38.000Z</time>
      </trkpt>
      <trkpt lat="28.195733333333333" lon="-16.508916666666668">
        <ele>1027</ele>
        <time>2024-03-30T13:43:39.000Z</time>
      </trkpt>
      <trkpt lat="28.19575" lon="-16.50883333333333">
        <ele>1026</ele>
        <time>2024-03-30T13:43:40.000Z</time>
      </trkpt>
      <trkpt lat="28.195783333333335" lon="-16.508766666666666">
        <ele>1024</ele>
        <time>2024-03-30T13:43:41.000Z</time>
      </trkpt>
      <trkpt lat="28.195833333333333" lon="-16.508666666666667">
        <ele>1022</ele>
        <time>2024-03-30T13:43:42.000Z</time>
      </trkpt>
      <trkpt lat="28.195866666666667" lon="-16.508566666666667">
        <ele>1022</ele>
        <time>2024-03-30T13:43:43.000Z</time>
      </trkpt>
      <trkpt lat="28.1959" lon="-16.508466666666667">
        <ele>1023</ele>
        <time>2024-03-30T13:43:44.000Z</time>
      </trkpt>
      <trkpt lat="28.195916666666665" lon="-16.508383333333335">
        <ele>1028</ele>
        <time>2024-03-30T13:43:45.000Z</time>
      </trkpt>
      <trkpt lat="28.195916666666665" lon="-16.508333333333333">
        <ele>1032</ele>
        <time>2024-03-30T13:43:46.000Z</time>
      </trkpt>
      <trkpt lat="28.195916666666665" lon="-16.5083">
        <ele>1035</ele>
        <time>2024-03-30T13:43:47.000Z</time>
      </trkpt>
      <trkpt lat="28.1959" lon="-16.5083">
        <ele>1036</ele>
        <time>2024-03-30T13:43:48.000Z</time>
      </trkpt>
      <trkpt lat="28.1959" lon="-16.508283333333335">
        <ele>1036</ele>
        <time>2024-03-30T13:43:49.000Z</time>
      </trkpt>
      <trkpt lat="28.195916666666665" lon="-16.50825">
        <ele>1035</ele>
        <time>2024-03-30T13:43:50.000Z</time>
      </trkpt>
      <trkpt lat="28.19595" lon="-16.5082">
        <ele>1034</ele>
        <time>2024-03-30T13:43:51.000Z</time>
      </trkpt>
      <trkpt lat="28.195966666666667" lon="-16.50815">
        <ele>1034</ele>
        <time>2024-03-30T13:43:52.000Z</time>
      </trkpt>
      <trkpt lat="28.195983333333334" lon="-16.5081">
        <ele>1035</ele>
        <time>2024-03-30T13:43:53.000Z</time>
      </trkpt>
      <trkpt lat="28.196" lon="-16.508066666666668">
        <ele>1036</ele>
        <time>2024-03-30T13:43:54.000Z</time>
      </trkpt>
      <trkpt lat="28.196016666666665" lon="-16.50805">
        <ele>1035</ele>
        <time>2024-03-30T13:43:55.000Z</time>
      </trkpt>
      <trkpt lat="28.196016666666665" lon="-16.508033333333334">
        <ele>1033</ele>
        <time>2024-03-30T13:43:56.000Z</time>
      </trkpt>
      <trkpt lat="28.19605" lon="-16.50796666666667">
        <ele>1029</ele>
        <time>2024-03-30T13:43:57.000Z</time>
      </trkpt>
      <trkpt lat="28.196066666666667" lon="-16.5079">
        <ele>1026</ele>
        <time>2024-03-30T13:43:58.000Z</time>
      </trkpt>
      <trkpt lat="28.196083333333334" lon="-16.507833333333334">
        <ele>1026</ele>
        <time>2024-03-30T13:43:59.000Z</time>
      </trkpt>
      <trkpt lat="28.196083333333334" lon="-16.507783333333332">
        <ele>1026</ele>
        <time>2024-03-30T13:44:00.000Z</time>
      </trkpt>
      <trkpt lat="28.196066666666667" lon="-16.507733333333334">
        <ele>1026</ele>
        <time>2024-03-30T13:44:01.000Z</time>
      </trkpt>
      <trkpt lat="28.196033333333332" lon="-16.5077">
        <ele>1024</ele>
        <time>2024-03-30T13:44:02.000Z</time>
      </trkpt>
      <trkpt lat="28.196016666666665" lon="-16.507633333333334">
        <ele>1021</ele>
        <time>2024-03-30T13:44:03.000Z</time>
      </trkpt>
      <trkpt lat="28.196016666666665" lon="-16.507566666666666">
        <ele>1017</ele>
        <time>2024-03-30T13:44:04.000Z</time>
      </trkpt>
      <trkpt lat="28.196033333333332" lon="-16.507466666666666">
        <ele>1014</ele>
        <time>2024-03-30T13:44:05.000Z</time>
      </trkpt>
      <trkpt lat="28.196016666666665" lon="-16.507383333333333">
        <ele>1013</ele>
        <time>2024-03-30T13:44:06.000Z</time>
      </trkpt>
      <trkpt lat="28.196016666666665" lon="-16.507316666666668">
        <ele>1013</ele>
        <time>2024-03-30T13:44:07.000Z</time>
      </trkpt>
      <trkpt lat="28.195983333333334" lon="-16.507283333333334">
        <ele>1013</ele>
        <time>2024-03-30T13:44:08.000Z</time>
      </trkpt>
      <trkpt lat="28.195983333333334" lon="-16.507233333333332">
        <ele>1011</ele>
        <time>2024-03-30T13:44:09.000Z</time>
      </trkpt>
      <trkpt lat="28.195983333333334" lon="-16.507166666666667">
        <ele>1007</ele>
        <time>2024-03-30T13:44:10.000Z</time>
      </trkpt>
      <trkpt lat="28.195983333333334" lon="-16.5071">
        <ele>1004</ele>
        <time>2024-03-30T13:44:11.000Z</time>
      </trkpt>
      <trkpt lat="28.195983333333334" lon="-16.507016666666665">
        <ele>1002</ele>
        <time>2024-03-30T13:44:12.000Z</time>
      </trkpt>
      <trkpt lat="28.196" lon="-16.506933333333333">
        <ele>1004</ele>
        <time>2024-03-30T13:44:13.000Z</time>
      </trkpt>
      <trkpt lat="28.196" lon="-16.506883333333334">
        <ele>1007</ele>
        <time>2024-03-30T13:44:14.000Z</time>
      </trkpt>
      <trkpt lat="28.196" lon="-16.506866666666667">
        <ele>1009</ele>
        <time>2024-03-30T13:44:15.000Z</time>
      </trkpt>
      <trkpt lat="28.196016666666665" lon="-16.506833333333333">
        <ele>1008</ele>
        <time>2024-03-30T13:44:16.000Z</time>
      </trkpt>
      <trkpt lat="28.196033333333332" lon="-16.506766666666667">
        <ele>1006</ele>
        <time>2024-03-30T13:44:17.000Z</time>
      </trkpt>
      <trkpt lat="28.19605" lon="-16.506683333333335">
        <ele>1006</ele>
        <time>2024-03-30T13:44:18.000Z</time>
      </trkpt>
      <trkpt lat="28.1961" lon="-16.5066">
        <ele>1008</ele>
        <time>2024-03-30T13:44:19.000Z</time>
      </trkpt>
      <trkpt lat="28.196133333333332" lon="-16.50655">
        <ele>1013</ele>
        <time>2024-03-30T13:44:20.000Z</time>
      </trkpt>
      <trkpt lat="28.196133333333332" lon="-16.506516666666666">
        <ele>1018</ele>
        <time>2024-03-30T13:44:21.000Z</time>
      </trkpt>
      <trkpt lat="28.196133333333332" lon="-16.506516666666666">
        <ele>1020</ele>
        <time>2024-03-30T13:44:22.000Z</time>
      </trkpt>
      <trkpt lat="28.196116666666665" lon="-16.5065">
        <ele>1018</ele>
        <time>2024-03-30T13:44:23.000Z</time>
      </trkpt>
      <trkpt lat="28.196133333333332" lon="-16.506483333333332">
        <ele>1014</ele>
        <time>2024-03-30T13:44:24.000Z</time>
      </trkpt>
      <trkpt lat="28.196166666666667" lon="-16.506416666666667">
        <ele>1008</ele>
        <time>2024-03-30T13:44:25.000Z</time>
      </trkpt>
      <trkpt lat="28.196183333333334" lon="-16.50635">
        <ele>1005</ele>
        <time>2024-03-30T13:44:26.000Z</time>
      </trkpt>
      <trkpt lat="28.196183333333334" lon="-16.506266666666665">
        <ele>1006</ele>
        <time>2024-03-30T13:44:27.000Z</time>
      </trkpt>
      <trkpt lat="28.196183333333334" lon="-16.5062">
        <ele>1006</ele>
        <time>2024-03-30T13:44:28.000Z</time>
      </trkpt>
      <trkpt lat="28.196183333333334" lon="-16.506166666666665">
        <ele>1007</ele>
        <time>2024-03-30T13:44:29.000Z</time>
      </trkpt>
      <trkpt lat="28.196183333333334" lon="-16.506116666666667">
        <ele>1006</ele>
        <time>2024-03-30T13:44:30.000Z</time>
      </trkpt>
      <trkpt lat="28.196183333333334" lon="-16.506083333333333">
        <ele>1004</ele>
        <time>2024-03-30T13:44:31.000Z</time>
      </trkpt>
      <trkpt lat="28.196183333333334" lon="-16.506033333333335">
        <ele>1002</ele>
        <time>2024-03-30T13:44:32.000Z</time>
      </trkpt>
      <trkpt lat="28.196166666666667" lon="-16.505966666666666">
        <ele>1001</ele>
        <time>2024-03-30T13:44:33.000Z</time>
      </trkpt>
      <trkpt lat="28.196166666666667" lon="-16.505916666666668">
        <ele>1001</ele>
        <time>2024-03-30T13:44:34.000Z</time>
      </trkpt>
      <trkpt lat="28.196183333333334" lon="-16.505866666666666">
        <ele>1000</ele>
        <time>2024-03-30T13:44:35.000Z</time>
      </trkpt>
      <trkpt lat="28.1962" lon="-16.505833333333335">
        <ele>999</ele>
        <time>2024-03-30T13:44:36.000Z</time>
      </trkpt>
      <trkpt lat="28.19621666666667" lon="-16.505783333333333">
        <ele>998</ele>
        <time>2024-03-30T13:44:37.000Z</time>
      </trkpt>
      <trkpt lat="28.196233333333332" lon="-16.50575">
        <ele>997</ele>
        <time>2024-03-30T13:44:38.000Z</time>
      </trkpt>
      <trkpt lat="28.19625" lon="-16.505683333333334">
        <ele>996</ele>
        <time>2024-03-30T13:44:39.000Z</time>
      </trkpt>
      <trkpt lat="28.19625" lon="-16.505633333333332">
        <ele>995</ele>
        <time>2024-03-30T13:44:40.000Z</time>
      </trkpt>
      <trkpt lat="28.196266666666666" lon="-16.505583333333334">
        <ele>995</ele>
        <time>2024-03-30T13:44:41.000Z</time>
      </trkpt>
      <trkpt lat="28.196266666666666" lon="-16.50555">
        <ele>994</ele>
        <time>2024-03-30T13:44:42.000Z</time>
      </trkpt>
      <trkpt lat="28.196283333333334" lon="-16.5055">
        <ele>992</ele>
        <time>2024-03-30T13:44:43.000Z</time>
      </trkpt>
      <trkpt lat="28.196283333333334" lon="-16.50545">
        <ele>989</ele>
        <time>2024-03-30T13:44:44.000Z</time>
      </trkpt>
      <trkpt lat="28.196283333333334" lon="-16.5054">
        <ele>987</ele>
        <time>2024-03-30T13:44:45.000Z</time>
      </trkpt>
      <trkpt lat="28.1963" lon="-16.505333333333333">
        <ele>985</ele>
        <time>2024-03-30T13:44:46.000Z</time>
      </trkpt>
      <trkpt lat="28.1963" lon="-16.505283333333335">
        <ele>984</ele>
        <time>2024-03-30T13:44:47.000Z</time>
      </trkpt>
      <trkpt lat="28.196283333333334" lon="-16.505233333333333">
        <ele>985</ele>
        <time>2024-03-30T13:44:48.000Z</time>
      </trkpt>
      <trkpt lat="28.19625" lon="-16.5052">
        <ele>986</ele>
        <time>2024-03-30T13:44:49.000Z</time>
      </trkpt>
      <trkpt lat="28.19625" lon="-16.505166666666668">
        <ele>986</ele>
        <time>2024-03-30T13:44:50.000Z</time>
      </trkpt>
      <trkpt lat="28.196266666666666" lon="-16.505116666666666">
        <ele>984</ele>
        <time>2024-03-30T13:44:51.000Z</time>
      </trkpt>
      <trkpt lat="28.196283333333334" lon="-16.50505">
        <ele>982</ele>
        <time>2024-03-30T13:44:52.000Z</time>
      </trkpt>
      <trkpt lat="28.1963" lon="-16.504983333333332">
        <ele>983</ele>
        <time>2024-03-30T13:44:53.000Z</time>
      </trkpt>
      <trkpt lat="28.196316666666668" lon="-16.504933333333334">
        <ele>984</ele>
        <time>2024-03-30T13:44:54.000Z</time>
      </trkpt>
      <trkpt lat="28.19633333333333" lon="-16.5049">
        <ele>984</ele>
        <time>2024-03-30T13:44:55.000Z</time>
      </trkpt>
      <trkpt lat="28.196383333333333" lon="-16.50486666666667">
        <ele>985</ele>
        <time>2024-03-30T13:44:56.000Z</time>
      </trkpt>
      <trkpt lat="28.196416666666668" lon="-16.504816666666667">
        <ele>984</ele>
        <time>2024-03-30T13:44:57.000Z</time>
      </trkpt>
      <trkpt lat="28.19645" lon="-16.504766666666665">
        <ele>983</ele>
        <time>2024-03-30T13:44:58.000Z</time>
      </trkpt>
      <trkpt lat="28.196483333333333" lon="-16.504716666666667">
        <ele>982</ele>
        <time>2024-03-30T13:44:59.000Z</time>
      </trkpt>
      <trkpt lat="28.196533333333335" lon="-16.50465">
        <ele>982</ele>
        <time>2024-03-30T13:45:00.000Z</time>
      </trkpt>
      <trkpt lat="28.196583333333333" lon="-16.504583333333333">
        <ele>982</ele>
        <time>2024-03-30T13:45:01.000Z</time>
      </trkpt>
      <trkpt lat="28.196616666666667" lon="-16.504533333333335">
        <ele>981</ele>
        <time>2024-03-30T13:45:02.000Z</time>
      </trkpt>
      <trkpt lat="28.196649999999998" lon="-16.5045">
        <ele>981</ele>
        <time>2024-03-30T13:45:03.000Z</time>
      </trkpt>
      <trkpt lat="28.196666666666665" lon="-16.504466666666666">
        <ele>978</ele>
        <time>2024-03-30T13:45:04.000Z</time>
      </trkpt>
      <trkpt lat="28.196683333333333" lon="-16.504416666666668">
        <ele>974</ele>
        <time>2024-03-30T13:45:05.000Z</time>
      </trkpt>
      <trkpt lat="28.1967" lon="-16.504333333333335">
        <ele>971</ele>
        <time>2024-03-30T13:45:06.000Z</time>
      </trkpt>
      <trkpt lat="28.196716666666667" lon="-16.50425">
        <ele>968</ele>
        <time>2024-03-30T13:45:07.000Z</time>
      </trkpt>
      <trkpt lat="28.196716666666667" lon="-16.504166666666666">
        <ele>967</ele>
        <time>2024-03-30T13:45:08.000Z</time>
      </trkpt>
      <trkpt lat="28.196716666666667" lon="-16.5041">
        <ele>967</ele>
        <time>2024-03-30T13:45:09.000Z</time>
      </trkpt>
      <trkpt lat="28.1967" lon="-16.50405">
        <ele>967</ele>
        <time>2024-03-30T13:45:10.000Z</time>
      </trkpt>
      <trkpt lat="28.1967" lon="-16.504">
        <ele>966</ele>
        <time>2024-03-30T13:45:11.000Z</time>
      </trkpt>
      <trkpt lat="28.1967" lon="-16.503933333333332">
        <ele>963</ele>
        <time>2024-03-30T13:45:12.000Z</time>
      </trkpt>
      <trkpt lat="28.1967" lon="-16.503866666666667">
        <ele>960</ele>
        <time>2024-03-30T13:45:13.000Z</time>
      </trkpt>
      <trkpt lat="28.196666666666665" lon="-16.5038">
        <ele>957</ele>
        <time>2024-03-30T13:45:14.000Z</time>
      </trkpt>
      <trkpt lat="28.196649999999998" lon="-16.503716666666666">
        <ele>957</ele>
        <time>2024-03-30T13:45:15.000Z</time>
      </trkpt>
      <trkpt lat="28.196649999999998" lon="-16.50365">
        <ele>957</ele>
        <time>2024-03-30T13:45:16.000Z</time>
      </trkpt>
      <trkpt lat="28.196649999999998" lon="-16.5036">
        <ele>956</ele>
        <time>2024-03-30T13:45:17.000Z</time>
      </trkpt>
      <trkpt lat="28.196649999999998" lon="-16.50355">
        <ele>955</ele>
        <time>2024-03-30T13:45:18.000Z</time>
      </trkpt>
      <trkpt lat="28.196666666666665" lon="-16.50348333333333">
        <ele>952</ele>
        <time>2024-03-30T13:45:19.000Z</time>
      </trkpt>
      <trkpt lat="28.196683333333333" lon="-16.503416666666666">
        <ele>951</ele>
        <time>2024-03-30T13:45:20.000Z</time>
      </trkpt>
      <trkpt lat="28.196683333333333" lon="-16.50335">
        <ele>951</ele>
        <time>2024-03-30T13:45:21.000Z</time>
      </trkpt>
      <trkpt lat="28.1967" lon="-16.503283333333332">
        <ele>951</ele>
        <time>2024-03-30T13:45:22.000Z</time>
      </trkpt>
      <trkpt lat="28.196716666666667" lon="-16.503216666666667">
        <ele>950</ele>
        <time>2024-03-30T13:45:23.000Z</time>
      </trkpt>
      <trkpt lat="28.196716666666667" lon="-16.503166666666665">
        <ele>949</ele>
        <time>2024-03-30T13:45:24.000Z</time>
      </trkpt>
      <trkpt lat="28.196733333333334" lon="-16.5031">
        <ele>947</ele>
        <time>2024-03-30T13:45:25.000Z</time>
      </trkpt>
      <trkpt lat="28.19675" lon="-16.503">
        <ele>946</ele>
        <time>2024-03-30T13:45:26.000Z</time>
      </trkpt>
      <trkpt lat="28.196766666666665" lon="-16.5029">
        <ele>945</ele>
        <time>2024-03-30T13:45:27.000Z</time>
      </trkpt>
      <trkpt lat="28.196783333333332" lon="-16.502816666666668">
        <ele>946</ele>
        <time>2024-03-30T13:45:28.000Z</time>
      </trkpt>
      <trkpt lat="28.196783333333332" lon="-16.50275">
        <ele>948</ele>
        <time>2024-03-30T13:45:29.000Z</time>
      </trkpt>
      <trkpt lat="28.1968" lon="-16.5027">
        <ele>949</ele>
        <time>2024-03-30T13:45:30.000Z</time>
      </trkpt>
      <trkpt lat="28.196816666666667" lon="-16.50265">
        <ele>947</ele>
        <time>2024-03-30T13:45:31.000Z</time>
      </trkpt>
      <trkpt lat="28.19685" lon="-16.5026">
        <ele>943</ele>
        <time>2024-03-30T13:45:32.000Z</time>
      </trkpt>
      <trkpt lat="28.196866666666665" lon="-16.50255">
        <ele>939</ele>
        <time>2024-03-30T13:45:33.000Z</time>
      </trkpt>
      <trkpt lat="28.196866666666665" lon="-16.50245">
        <ele>934</ele>
        <time>2024-03-30T13:45:34.000Z</time>
      </trkpt>
      <trkpt lat="28.196883333333332" lon="-16.50235">
        <ele>931</ele>
        <time>2024-03-30T13:45:35.000Z</time>
      </trkpt>
      <trkpt lat="28.1969" lon="-16.502266666666667">
        <ele>931</ele>
        <time>2024-03-30T13:45:36.000Z</time>
      </trkpt>
      <trkpt lat="28.196916666666667" lon="-16.502216666666666">
        <ele>932</ele>
        <time>2024-03-30T13:45:37.000Z</time>
      </trkpt>
      <trkpt lat="28.196916666666667" lon="-16.502166666666668">
        <ele>931</ele>
        <time>2024-03-30T13:45:38.000Z</time>
      </trkpt>
      <trkpt lat="28.1969" lon="-16.502116666666666">
        <ele>930</ele>
        <time>2024-03-30T13:45:39.000Z</time>
      </trkpt>
      <trkpt lat="28.1969" lon="-16.50205">
        <ele>925</ele>
        <time>2024-03-30T13:45:40.000Z</time>
      </trkpt>
      <trkpt lat="28.1969" lon="-16.50195">
        <ele>920</ele>
        <time>2024-03-30T13:45:41.000Z</time>
      </trkpt>
      <trkpt lat="28.1969" lon="-16.501833333333334">
        <ele>919</ele>
        <time>2024-03-30T13:45:42.000Z</time>
      </trkpt>
      <trkpt lat="28.1969" lon="-16.501733333333334">
        <ele>919</ele>
        <time>2024-03-30T13:45:43.000Z</time>
      </trkpt>
      <trkpt lat="28.196883333333332" lon="-16.50165">
        <ele>919</ele>
        <time>2024-03-30T13:45:44.000Z</time>
      </trkpt>
      <trkpt lat="28.19685" lon="-16.5016">
        <ele>918</ele>
        <time>2024-03-30T13:45:45.000Z</time>
      </trkpt>
      <trkpt lat="28.1968" lon="-16.50155">
        <ele>915</ele>
        <time>2024-03-30T13:45:46.000Z</time>
      </trkpt>
      <trkpt lat="28.196766666666665" lon="-16.501466666666666">
        <ele>911</ele>
        <time>2024-03-30T13:45:47.000Z</time>
      </trkpt>
      <trkpt lat="28.196733333333334" lon="-16.501366666666666">
        <ele>908</ele>
        <time>2024-03-30T13:45:48.000Z</time>
      </trkpt>
      <trkpt lat="28.1967" lon="-16.501266666666666">
        <ele>906</ele>
        <time>2024-03-30T13:45:49.000Z</time>
      </trkpt>
      <trkpt lat="28.196666666666665" lon="-16.501166666666666">
        <ele>907</ele>
        <time>2024-03-30T13:45:50.000Z</time>
      </trkpt>
      <trkpt lat="28.196649999999998" lon="-16.501083333333334">
        <ele>909</ele>
        <time>2024-03-30T13:45:51.000Z</time>
      </trkpt>
      <trkpt lat="28.196633333333335" lon="-16.501016666666665">
        <ele>909</ele>
        <time>2024-03-30T13:45:52.000Z</time>
      </trkpt>
      <trkpt lat="28.196649999999998" lon="-16.50095">
        <ele>909</ele>
        <time>2024-03-30T13:45:53.000Z</time>
      </trkpt>
      <trkpt lat="28.196666666666665" lon="-16.500883333333334">
        <ele>908</ele>
        <time>2024-03-30T13:45:54.000Z</time>
      </trkpt>
      <trkpt lat="28.196683333333333" lon="-16.500816666666665">
        <ele>907</ele>
        <time>2024-03-30T13:45:55.000Z</time>
      </trkpt>
      <trkpt lat="28.196716666666667" lon="-16.500733333333333">
        <ele>908</ele>
        <time>2024-03-30T13:45:56.000Z</time>
      </trkpt>
      <trkpt lat="28.19675" lon="-16.500666666666667">
        <ele>908</ele>
        <time>2024-03-30T13:45:57.000Z</time>
      </trkpt>
      <trkpt lat="28.196783333333332" lon="-16.5006">
        <ele>908</ele>
        <time>2024-03-30T13:45:58.000Z</time>
      </trkpt>
      <trkpt lat="28.1968" lon="-16.500533333333333">
        <ele>906</ele>
        <time>2024-03-30T13:45:59.000Z</time>
      </trkpt>
      <trkpt lat="28.196816666666667" lon="-16.500466666666668">
        <ele>903</ele>
        <time>2024-03-30T13:46:00.000Z</time>
      </trkpt>
      <trkpt lat="28.196833333333334" lon="-16.5004">
        <ele>900</ele>
        <time>2024-03-30T13:46:01.000Z</time>
      </trkpt>
      <trkpt lat="28.196866666666665" lon="-16.5003">
        <ele>897</ele>
        <time>2024-03-30T13:46:02.000Z</time>
      </trkpt>
      <trkpt lat="28.1969" lon="-16.500216666666667">
        <ele>896</ele>
        <time>2024-03-30T13:46:03.000Z</time>
      </trkpt>
      <trkpt lat="28.19695" lon="-16.50015">
        <ele>897</ele>
        <time>2024-03-30T13:46:04.000Z</time>
      </trkpt>
      <trkpt lat="28.196983333333332" lon="-16.5001">
        <ele>896</ele>
        <time>2024-03-30T13:46:05.000Z</time>
      </trkpt>
      <trkpt lat="28.197016666666666" lon="-16.500033333333334">
        <ele>895</ele>
        <time>2024-03-30T13:46:06.000Z</time>
      </trkpt>
      <trkpt lat="28.19705" lon="-16.499966666666666">
        <ele>894</ele>
        <time>2024-03-30T13:46:07.000Z</time>
      </trkpt>
      <trkpt lat="28.19708333333333" lon="-16.4999">
        <ele>892</ele>
        <time>2024-03-30T13:46:08.000Z</time>
      </trkpt>
      <trkpt lat="28.197133333333333" lon="-16.499816666666668">
        <ele>891</ele>
        <time>2024-03-30T13:46:09.000Z</time>
      </trkpt>
      <trkpt lat="28.197183333333335" lon="-16.49975">
        <ele>890</ele>
        <time>2024-03-30T13:46:10.000Z</time>
      </trkpt>
      <trkpt lat="28.19725" lon="-16.499666666666666">
        <ele>890</ele>
        <time>2024-03-30T13:46:11.000Z</time>
      </trkpt>
      <trkpt lat="28.1973" lon="-16.4996">
        <ele>890</ele>
        <time>2024-03-30T13:46:12.000Z</time>
      </trkpt>
      <trkpt lat="28.197366666666667" lon="-16.499533333333332">
        <ele>891</ele>
        <time>2024-03-30T13:46:13.000Z</time>
      </trkpt>
      <trkpt lat="28.197416666666665" lon="-16.499483333333334">
        <ele>893</ele>
        <time>2024-03-30T13:46:14.000Z</time>
      </trkpt>
      <trkpt lat="28.197433333333333" lon="-16.499433333333332">
        <ele>895</ele>
        <time>2024-03-30T13:46:15.000Z</time>
      </trkpt>
      <trkpt lat="28.19745" lon="-16.499383333333334">
        <ele>895</ele>
        <time>2024-03-30T13:46:16.000Z</time>
      </trkpt>
      <trkpt lat="28.19745" lon="-16.499333333333333">
        <ele>894</ele>
        <time>2024-03-30T13:46:17.000Z</time>
      </trkpt>
      <trkpt lat="28.19745" lon="-16.499283333333334">
        <ele>893</ele>
        <time>2024-03-30T13:46:18.000Z</time>
      </trkpt>
      <trkpt lat="28.19745" lon="-16.499216666666666">
        <ele>891</ele>
        <time>2024-03-30T13:46:19.000Z</time>
      </trkpt>
      <trkpt lat="28.19745" lon="-16.499133333333333">
        <ele>891</ele>
        <time>2024-03-30T13:46:20.000Z</time>
      </trkpt>
      <trkpt lat="28.197466666666667" lon="-16.499033333333333">
        <ele>892</ele>
        <time>2024-03-30T13:46:21.000Z</time>
      </trkpt>
      <trkpt lat="28.1975" lon="-16.498983333333335">
        <ele>895</ele>
        <time>2024-03-30T13:46:22.000Z</time>
      </trkpt>
      <trkpt lat="28.19755" lon="-16.49895">
        <ele>899</ele>
        <time>2024-03-30T13:46:23.000Z</time>
      </trkpt>
      <trkpt lat="28.197583333333334" lon="-16.49895">
        <ele>902</ele>
        <time>2024-03-30T13:46:24.000Z</time>
      </trkpt>
      <trkpt lat="28.197616666666665" lon="-16.49895">
        <ele>903</ele>
        <time>2024-03-30T13:46:25.000Z</time>
      </trkpt>
      <trkpt lat="28.197633333333332" lon="-16.498966666666668">
        <ele>903</ele>
        <time>2024-03-30T13:46:26.000Z</time>
      </trkpt>
      <trkpt lat="28.19765" lon="-16.49895">
        <ele>903</ele>
        <time>2024-03-30T13:46:27.000Z</time>
      </trkpt>
      <trkpt lat="28.1977" lon="-16.498916666666666">
        <ele>902</ele>
        <time>2024-03-30T13:46:28.000Z</time>
      </trkpt>
      <trkpt lat="28.19775" lon="-16.4989">
        <ele>902</ele>
        <time>2024-03-30T13:46:29.000Z</time>
      </trkpt>
      <trkpt lat="28.197783333333334" lon="-16.49885">
        <ele>902</ele>
        <time>2024-03-30T13:46:30.000Z</time>
      </trkpt>
      <trkpt lat="28.1978" lon="-16.4988">
        <ele>901</ele>
        <time>2024-03-30T13:46:31.000Z</time>
      </trkpt>
      <trkpt lat="28.1978" lon="-16.49875">
        <ele>902</ele>
        <time>2024-03-30T13:46:32.000Z</time>
      </trkpt>
      <trkpt lat="28.1978" lon="-16.498716666666667">
        <ele>903</ele>
        <time>2024-03-30T13:46:33.000Z</time>
      </trkpt>
      <trkpt lat="28.197816666666668" lon="-16.498683333333332">
        <ele>903</ele>
        <time>2024-03-30T13:46:34.000Z</time>
      </trkpt>
      <trkpt lat="28.19785" lon="-16.49865">
        <ele>903</ele>
        <time>2024-03-30T13:46:35.000Z</time>
      </trkpt>
      <trkpt lat="28.197883333333333" lon="-16.4986">
        <ele>903</ele>
        <time>2024-03-30T13:46:36.000Z</time>
      </trkpt>
      <trkpt lat="28.197916666666668" lon="-16.498533333333334">
        <ele>903</ele>
        <time>2024-03-30T13:46:37.000Z</time>
      </trkpt>
      <trkpt lat="28.197933333333335" lon="-16.498466666666666">
        <ele>904</ele>
        <time>2024-03-30T13:46:38.000Z</time>
      </trkpt>
      <trkpt lat="28.197933333333335" lon="-16.498416666666667">
        <ele>906</ele>
        <time>2024-03-30T13:46:39.000Z</time>
      </trkpt>
      <trkpt lat="28.19795" lon="-16.498366666666666">
        <ele>909</ele>
        <time>2024-03-30T13:46:40.000Z</time>
      </trkpt>
      <trkpt lat="28.19795" lon="-16.498333333333335">
        <ele>911</ele>
        <time>2024-03-30T13:46:41.000Z</time>
      </trkpt>
      <trkpt lat="28.197983333333333" lon="-16.4983">
        <ele>912</ele>
        <time>2024-03-30T13:46:42.000Z</time>
      </trkpt>
      <trkpt lat="28.198016666666668" lon="-16.4983">
        <ele>911</ele>
        <time>2024-03-30T13:46:43.000Z</time>
      </trkpt>
      <trkpt lat="28.198083333333333" lon="-16.498333333333335">
        <ele>911</ele>
        <time>2024-03-30T13:46:44.000Z</time>
      </trkpt>
      <trkpt lat="28.19815" lon="-16.49845">
        <ele>910</ele>
        <time>2024-03-30T13:46:45.000Z</time>
      </trkpt>
      <trkpt lat="28.198183333333333" lon="-16.498616666666667">
        <ele>911</ele>
        <time>2024-03-30T13:46:46.000Z</time>
      </trkpt>
      <trkpt lat="28.19815" lon="-16.498783333333332">
        <ele>911</ele>
        <time>2024-03-30T13:46:47.000Z</time>
      </trkpt>
      <trkpt lat="28.19805" lon="-16.498883333333332">
        <ele>913</ele>
        <time>2024-03-30T13:46:48.000Z</time>
      </trkpt>
      <trkpt lat="28.19795" lon="-16.498933333333333">
        <ele>915</ele>
        <time>2024-03-30T13:46:49.000Z</time>
      </trkpt>
      <trkpt lat="28.197866666666666" lon="-16.498933333333333">
        <ele>913</ele>
        <time>2024-03-30T13:46:50.000Z</time>
      </trkpt>
      <trkpt lat="28.1978" lon="-16.498916666666666">
        <ele>913</ele>
        <time>2024-03-30T13:46:51.000Z</time>
      </trkpt>
      <trkpt lat="28.197766666666666" lon="-16.498883333333332">
        <ele>912</ele>
        <time>2024-03-30T13:46:52.000Z</time>
      </trkpt>
      <trkpt lat="28.19775" lon="-16.498833333333334">
        <ele>914</ele>
        <time>2024-03-30T13:46:53.000Z</time>
      </trkpt>
      <trkpt lat="28.197733333333332" lon="-16.498783333333332">
        <ele>917</ele>
        <time>2024-03-30T13:46:54.000Z</time>
      </trkpt>
      <trkpt lat="28.19771666666667" lon="-16.498733333333334">
        <ele>919</ele>
        <time>2024-03-30T13:46:55.000Z</time>
      </trkpt>
      <trkpt lat="28.197683333333334" lon="-16.498683333333332">
        <ele>921</ele>
        <time>2024-03-30T13:46:56.000Z</time>
      </trkpt>
      <trkpt lat="28.19765" lon="-16.49865">
        <ele>923</ele>
        <time>2024-03-30T13:46:57.000Z</time>
      </trkpt>
      <trkpt lat="28.19765" lon="-16.4986">
        <ele>922</ele>
        <time>2024-03-30T13:46:58.000Z</time>
      </trkpt>
      <trkpt lat="28.197683333333334" lon="-16.49855">
        <ele>922</ele>
        <time>2024-03-30T13:46:59.000Z</time>
      </trkpt>
      <trkpt lat="28.19775" lon="-16.49855">
        <ele>922</ele>
        <time>2024-03-30T13:47:00.000Z</time>
      </trkpt>
      <trkpt lat="28.19785" lon="-16.498616666666667">
        <ele>920</ele>
        <time>2024-03-30T13:47:01.000Z</time>
      </trkpt>
      <trkpt lat="28.197883333333333" lon="-16.49875">
        <ele>919</ele>
        <time>2024-03-30T13:47:02.000Z</time>
      </trkpt>
      <trkpt lat="28.197883333333333" lon="-16.4989">
        <ele>918</ele>
        <time>2024-03-30T13:47:03.000Z</time>
      </trkpt>
      <trkpt lat="28.197816666666668" lon="-16.499016666666666">
        <ele>916</ele>
        <time>2024-03-30T13:47:04.000Z</time>
      </trkpt>
      <trkpt lat="28.197683333333334" lon="-16.499083333333335">
        <ele>916</ele>
        <time>2024-03-30T13:47:05.000Z</time>
      </trkpt>
      <trkpt lat="28.19755" lon="-16.499033333333333">
        <ele>914</ele>
        <time>2024-03-30T13:47:06.000Z</time>
      </trkpt>
      <trkpt lat="28.197533333333332" lon="-16.498983333333335">
        <ele>916</ele>
        <time>2024-03-30T13:47:07.000Z</time>
      </trkpt>
      <trkpt lat="28.19755" lon="-16.4989">
        <ele>920</ele>
        <time>2024-03-30T13:47:08.000Z</time>
      </trkpt>
      <trkpt lat="28.197566666666667" lon="-16.49885">
        <ele>925</ele>
        <time>2024-03-30T13:47:09.000Z</time>
      </trkpt>
      <trkpt lat="28.197566666666667" lon="-16.498816666666666">
        <ele>929</ele>
        <time>2024-03-30T13:47:10.000Z</time>
      </trkpt>
      <trkpt lat="28.19755" lon="-16.498783333333332">
        <ele>930</ele>
        <time>2024-03-30T13:47:11.000Z</time>
      </trkpt>
      <trkpt lat="28.197516666666665" lon="-16.498733333333334">
        <ele>931</ele>
        <time>2024-03-30T13:47:12.000Z</time>
      </trkpt>
      <trkpt lat="28.197483333333334" lon="-16.498666666666665">
        <ele>931</ele>
        <time>2024-03-30T13:47:13.000Z</time>
      </trkpt>
      <trkpt lat="28.197483333333334" lon="-16.4986">
        <ele>932</ele>
        <time>2024-03-30T13:47:14.000Z</time>
      </trkpt>
      <trkpt lat="28.197483333333334" lon="-16.498533333333334">
        <ele>934</ele>
        <time>2024-03-30T13:47:15.000Z</time>
      </trkpt>
      <trkpt lat="28.197516666666665" lon="-16.4985">
        <ele>936</ele>
        <time>2024-03-30T13:47:16.000Z</time>
      </trkpt>
      <trkpt lat="28.197566666666667" lon="-16.498466666666666">
        <ele>938</ele>
        <time>2024-03-30T13:47:17.000Z</time>
      </trkpt>
      <trkpt lat="28.197616666666665" lon="-16.49845">
        <ele>941</ele>
        <time>2024-03-30T13:47:18.000Z</time>
      </trkpt>
      <trkpt lat="28.197666666666667" lon="-16.498466666666666">
        <ele>943</ele>
        <time>2024-03-30T13:47:19.000Z</time>
      </trkpt>
      <trkpt lat="28.19771666666667" lon="-16.49855">
        <ele>943</ele>
        <time>2024-03-30T13:47:20.000Z</time>
      </trkpt>
      <trkpt lat="28.19775" lon="-16.498683333333332">
        <ele>942</ele>
        <time>2024-03-30T13:47:21.000Z</time>
      </trkpt>
      <trkpt lat="28.19775" lon="-16.49885">
        <ele>942</ele>
        <time>2024-03-30T13:47:22.000Z</time>
      </trkpt>
      <trkpt lat="28.197683333333334" lon="-16.498983333333335">
        <ele>944</ele>
        <time>2024-03-30T13:47:23.000Z</time>
      </trkpt>
      <trkpt lat="28.19755" lon="-16.499066666666668">
        <ele>944</ele>
        <time>2024-03-30T13:47:24.000Z</time>
      </trkpt>
      <trkpt lat="28.197416666666665" lon="-16.49905">
        <ele>942</ele>
        <time>2024-03-30T13:47:25.000Z</time>
      </trkpt>
      <trkpt lat="28.197366666666667" lon="-16.498983333333335">
        <ele>942</ele>
        <time>2024-03-30T13:47:26.000Z</time>
      </trkpt>
      <trkpt lat="28.197366666666667" lon="-16.498883333333332">
        <ele>946</ele>
        <time>2024-03-30T13:47:27.000Z</time>
      </trkpt>
      <trkpt lat="28.197416666666665" lon="-16.498816666666666">
        <ele>951</ele>
        <time>2024-03-30T13:47:28.000Z</time>
      </trkpt>
      <trkpt lat="28.19745" lon="-16.498783333333332">
        <ele>957</ele>
        <time>2024-03-30T13:47:29.000Z</time>
      </trkpt>
      <trkpt lat="28.197433333333333" lon="-16.4988">
        <ele>960</ele>
        <time>2024-03-30T13:47:30.000Z</time>
      </trkpt>
      <trkpt lat="28.1974" lon="-16.498783333333332">
        <ele>961</ele>
        <time>2024-03-30T13:47:31.000Z</time>
      </trkpt>
      <trkpt lat="28.197383333333335" lon="-16.498733333333334">
        <ele>961</ele>
        <time>2024-03-30T13:47:32.000Z</time>
      </trkpt>
      <trkpt lat="28.197383333333335" lon="-16.498666666666665">
        <ele>961</ele>
        <time>2024-03-30T13:47:33.000Z</time>
      </trkpt>
      <trkpt lat="28.1974" lon="-16.4986">
        <ele>961</ele>
        <time>2024-03-30T13:47:34.000Z</time>
      </trkpt>
      <trkpt lat="28.197433333333333" lon="-16.498533333333334">
        <ele>962</ele>
        <time>2024-03-30T13:47:35.000Z</time>
      </trkpt>
      <trkpt lat="28.197466666666667" lon="-16.498483333333333">
        <ele>963</ele>
        <time>2024-03-30T13:47:36.000Z</time>
      </trkpt>
      <trkpt lat="28.197516666666665" lon="-16.498466666666666">
        <ele>964</ele>
        <time>2024-03-30T13:47:37.000Z</time>
      </trkpt>
      <trkpt lat="28.19755" lon="-16.498483333333333">
        <ele>963</ele>
        <time>2024-03-30T13:47:38.000Z</time>
      </trkpt>
      <trkpt lat="28.1976" lon="-16.49855">
        <ele>962</ele>
        <time>2024-03-30T13:47:39.000Z</time>
      </trkpt>
      <trkpt lat="28.19765" lon="-16.498666666666665">
        <ele>960</ele>
        <time>2024-03-30T13:47:40.000Z</time>
      </trkpt>
      <trkpt lat="28.197683333333334" lon="-16.4988">
        <ele>959</ele>
        <time>2024-03-30T13:47:41.000Z</time>
      </trkpt>
      <trkpt lat="28.197683333333334" lon="-16.49895">
        <ele>960</ele>
        <time>2024-03-30T13:47:42.000Z</time>
      </trkpt>
      <trkpt lat="28.197616666666665" lon="-16.499066666666668">
        <ele>960</ele>
        <time>2024-03-30T13:47:43.000Z</time>
      </trkpt>
      <trkpt lat="28.1975" lon="-16.499133333333333">
        <ele>961</ele>
        <time>2024-03-30T13:47:44.000Z</time>
      </trkpt>
      <trkpt lat="28.197383333333335" lon="-16.499133333333333">
        <ele>960</ele>
        <time>2024-03-30T13:47:45.000Z</time>
      </trkpt>
      <trkpt lat="28.197266666666668" lon="-16.4991">
        <ele>959</ele>
        <time>2024-03-30T13:47:46.000Z</time>
      </trkpt>
      <trkpt lat="28.197216666666666" lon="-16.499033333333333">
        <ele>960</ele>
        <time>2024-03-30T13:47:47.000Z</time>
      </trkpt>
      <trkpt lat="28.197216666666666" lon="-16.498966666666668">
        <ele>962</ele>
        <time>2024-03-30T13:47:48.000Z</time>
      </trkpt>
      <trkpt lat="28.197216666666666" lon="-16.498916666666666">
        <ele>964</ele>
        <time>2024-03-30T13:47:49.000Z</time>
      </trkpt>
      <trkpt lat="28.197216666666666" lon="-16.498883333333332">
        <ele>965</ele>
        <time>2024-03-30T13:47:50.000Z</time>
      </trkpt>
      <trkpt lat="28.197216666666666" lon="-16.49885">
        <ele>965</ele>
        <time>2024-03-30T13:47:51.000Z</time>
      </trkpt>
      <trkpt lat="28.197233333333333" lon="-16.4988">
        <ele>963</ele>
        <time>2024-03-30T13:47:52.000Z</time>
      </trkpt>
      <trkpt lat="28.197266666666668" lon="-16.498733333333334">
        <ele>963</ele>
        <time>2024-03-30T13:47:53.000Z</time>
      </trkpt>
      <trkpt lat="28.197316666666666" lon="-16.498683333333332">
        <ele>962</ele>
        <time>2024-03-30T13:47:54.000Z</time>
      </trkpt>
      <trkpt lat="28.19735" lon="-16.498633333333334">
        <ele>961</ele>
        <time>2024-03-30T13:47:55.000Z</time>
      </trkpt>
      <trkpt lat="28.197383333333335" lon="-16.498583333333332">
        <ele>960</ele>
        <time>2024-03-30T13:47:56.000Z</time>
      </trkpt>
      <trkpt lat="28.197416666666665" lon="-16.498533333333334">
        <ele>957</ele>
        <time>2024-03-30T13:47:57.000Z</time>
      </trkpt>
      <trkpt lat="28.197466666666667" lon="-16.498466666666666">
        <ele>953</ele>
        <time>2024-03-30T13:47:58.000Z</time>
      </trkpt>
      <trkpt lat="28.197516666666665" lon="-16.498383333333333">
        <ele>950</ele>
        <time>2024-03-30T13:47:59.000Z</time>
      </trkpt>
      <trkpt lat="28.197566666666667" lon="-16.4983">
        <ele>949</ele>
        <time>2024-03-30T13:48:00.000Z</time>
      </trkpt>
      <trkpt lat="28.197616666666665" lon="-16.4982">
        <ele>949</ele>
        <time>2024-03-30T13:48:01.000Z</time>
      </trkpt>
      <trkpt lat="28.197633333333332" lon="-16.49813333333333">
        <ele>951</ele>
        <time>2024-03-30T13:48:02.000Z</time>
      </trkpt>
      <trkpt lat="28.19765" lon="-16.4981">
        <ele>952</ele>
        <time>2024-03-30T13:48:03.000Z</time>
      </trkpt>
      <trkpt lat="28.19765" lon="-16.49805">
        <ele>951</ele>
        <time>2024-03-30T13:48:04.000Z</time>
      </trkpt>
      <trkpt lat="28.197666666666667" lon="-16.49801666666667">
        <ele>948</ele>
        <time>2024-03-30T13:48:05.000Z</time>
      </trkpt>
      <trkpt lat="28.1977" lon="-16.49795">
        <ele>944</ele>
        <time>2024-03-30T13:48:06.000Z</time>
      </trkpt>
      <trkpt lat="28.197733333333332" lon="-16.497866666666667">
        <ele>940</ele>
        <time>2024-03-30T13:48:07.000Z</time>
      </trkpt>
      <trkpt lat="28.197766666666666" lon="-16.497783333333334">
        <ele>938</ele>
        <time>2024-03-30T13:48:08.000Z</time>
      </trkpt>
      <trkpt lat="28.197783333333334" lon="-16.4977">
        <ele>938</ele>
        <time>2024-03-30T13:48:09.000Z</time>
      </trkpt>
      <trkpt lat="28.1978" lon="-16.49765">
        <ele>938</ele>
        <time>2024-03-30T13:48:10.000Z</time>
      </trkpt>
      <trkpt lat="28.197816666666668" lon="-16.4976">
        <ele>938</ele>
        <time>2024-03-30T13:48:11.000Z</time>
      </trkpt>
      <trkpt lat="28.197816666666668" lon="-16.497566666666668">
        <ele>937</ele>
        <time>2024-03-30T13:48:12.000Z</time>
      </trkpt>
      <trkpt lat="28.19783333333333" lon="-16.497516666666666">
        <ele>936</ele>
        <time>2024-03-30T13:48:13.000Z</time>
      </trkpt>
      <trkpt lat="28.19785" lon="-16.49745">
        <ele>934</ele>
        <time>2024-03-30T13:48:14.000Z</time>
      </trkpt>
      <trkpt lat="28.197866666666666" lon="-16.4974">
        <ele>933</ele>
        <time>2024-03-30T13:48:15.000Z</time>
      </trkpt>
      <trkpt lat="28.197866666666666" lon="-16.497333333333334">
        <ele>931</ele>
        <time>2024-03-30T13:48:16.000Z</time>
      </trkpt>
      <trkpt lat="28.197883333333333" lon="-16.49726666666667">
        <ele>929</ele>
        <time>2024-03-30T13:48:17.000Z</time>
      </trkpt>
      <trkpt lat="28.1979" lon="-16.497183333333332">
        <ele>928</ele>
        <time>2024-03-30T13:48:18.000Z</time>
      </trkpt>
      <trkpt lat="28.1979" lon="-16.4971">
        <ele>928</ele>
        <time>2024-03-30T13:48:19.000Z</time>
      </trkpt>
      <trkpt lat="28.1979" lon="-16.497033333333334">
        <ele>931</ele>
        <time>2024-03-30T13:48:20.000Z</time>
      </trkpt>
      <trkpt lat="28.1979" lon="-16.496966666666665">
        <ele>933</ele>
        <time>2024-03-30T13:48:21.000Z</time>
      </trkpt>
      <trkpt lat="28.1979" lon="-16.496933333333335">
        <ele>933</ele>
        <time>2024-03-30T13:48:22.000Z</time>
      </trkpt>
      <trkpt lat="28.197916666666668" lon="-16.496883333333333">
        <ele>932</ele>
        <time>2024-03-30T13:48:23.000Z</time>
      </trkpt>
      <trkpt lat="28.197916666666668" lon="-16.496833333333335">
        <ele>930</ele>
        <time>2024-03-30T13:48:24.000Z</time>
      </trkpt>
      <trkpt lat="28.197933333333335" lon="-16.49675">
        <ele>927</ele>
        <time>2024-03-30T13:48:25.000Z</time>
      </trkpt>
      <trkpt lat="28.19795" lon="-16.496666666666666">
        <ele>926</ele>
        <time>2024-03-30T13:48:26.000Z</time>
      </trkpt>
      <trkpt lat="28.197966666666666" lon="-16.496566666666666">
        <ele>926</ele>
        <time>2024-03-30T13:48:27.000Z</time>
      </trkpt>
      <trkpt lat="28.197983333333333" lon="-16.496483333333334">
        <ele>928</ele>
        <time>2024-03-30T13:48:28.000Z</time>
      </trkpt>
      <trkpt lat="28.198" lon="-16.496416666666665">
        <ele>931</ele>
        <time>2024-03-30T13:48:29.000Z</time>
      </trkpt>
      <trkpt lat="28.198016666666668" lon="-16.496366666666667">
        <ele>932</ele>
        <time>2024-03-30T13:48:30.000Z</time>
      </trkpt>
      <trkpt lat="28.198033333333335" lon="-16.496333333333332">
        <ele>931</ele>
        <time>2024-03-30T13:48:31.000Z</time>
      </trkpt>
      <trkpt lat="28.198066666666666" lon="-16.496266666666667">
        <ele>928</ele>
        <time>2024-03-30T13:48:32.000Z</time>
      </trkpt>
      <trkpt lat="28.1981" lon="-16.496183333333335">
        <ele>927</ele>
        <time>2024-03-30T13:48:33.000Z</time>
      </trkpt>
      <trkpt lat="28.19815" lon="-16.496083333333335">
        <ele>928</ele>
        <time>2024-03-30T13:48:34.000Z</time>
      </trkpt>
      <trkpt lat="28.198183333333333" lon="-16.496">
        <ele>931</ele>
        <time>2024-03-30T13:48:35.000Z</time>
      </trkpt>
      <trkpt lat="28.198233333333334" lon="-16.495933333333333">
        <ele>934</ele>
        <time>2024-03-30T13:48:36.000Z</time>
      </trkpt>
      <trkpt lat="28.19825" lon="-16.495866666666668">
        <ele>936</ele>
        <time>2024-03-30T13:48:37.000Z</time>
      </trkpt>
      <trkpt lat="28.198266666666665" lon="-16.4958">
        <ele>936</ele>
        <time>2024-03-30T13:48:38.000Z</time>
      </trkpt>
      <trkpt lat="28.198266666666665" lon="-16.495733333333334">
        <ele>935</ele>
        <time>2024-03-30T13:48:39.000Z</time>
      </trkpt>
      <trkpt lat="28.198283333333332" lon="-16.495666666666665">
        <ele>934</ele>
        <time>2024-03-30T13:48:40.000Z</time>
      </trkpt>
      <trkpt lat="28.1983" lon="-16.495583333333332">
        <ele>934</ele>
        <time>2024-03-30T13:48:41.000Z</time>
      </trkpt>
      <trkpt lat="28.198333333333334" lon="-16.4955">
        <ele>936</ele>
        <time>2024-03-30T13:48:42.000Z</time>
      </trkpt>
      <trkpt lat="28.19835" lon="-16.495433333333335">
        <ele>938</ele>
        <time>2024-03-30T13:48:43.000Z</time>
      </trkpt>
      <trkpt lat="28.198383333333332" lon="-16.495383333333333">
        <ele>940</ele>
        <time>2024-03-30T13:48:44.000Z</time>
      </trkpt>
      <trkpt lat="28.198416666666667" lon="-16.49535">
        <ele>941</ele>
        <time>2024-03-30T13:48:45.000Z</time>
      </trkpt>
      <trkpt lat="28.198433333333334" lon="-16.495316666666668">
        <ele>942</ele>
        <time>2024-03-30T13:48:46.000Z</time>
      </trkpt>
      <trkpt lat="28.198433333333334" lon="-16.495266666666666">
        <ele>943</ele>
        <time>2024-03-30T13:48:47.000Z</time>
      </trkpt>
      <trkpt lat="28.198416666666667" lon="-16.495216666666668">
        <ele>943</ele>
        <time>2024-03-30T13:48:48.000Z</time>
      </trkpt>
      <trkpt lat="28.198366666666665" lon="-16.495166666666666">
        <ele>944</ele>
        <time>2024-03-30T13:48:49.000Z</time>
      </trkpt>
      <trkpt lat="28.1983" lon="-16.49515">
        <ele>944</ele>
        <time>2024-03-30T13:48:50.000Z</time>
      </trkpt>
      <trkpt lat="28.1982" lon="-16.495183333333333">
        <ele>943</ele>
        <time>2024-03-30T13:48:51.000Z</time>
      </trkpt>
      <trkpt lat="28.1981" lon="-16.495266666666666">
        <ele>942</ele>
        <time>2024-03-30T13:48:52.000Z</time>
      </trkpt>
      <trkpt lat="28.19805" lon="-16.495433333333335">
        <ele>941</ele>
        <time>2024-03-30T13:48:53.000Z</time>
      </trkpt>
      <trkpt lat="28.198066666666666" lon="-16.4956">
        <ele>941</ele>
        <time>2024-03-30T13:48:54.000Z</time>
      </trkpt>
      <trkpt lat="28.198133333333335" lon="-16.495733333333334">
        <ele>940</ele>
        <time>2024-03-30T13:48:55.000Z</time>
      </trkpt>
      <trkpt lat="28.198233333333334" lon="-16.495816666666666">
        <ele>940</ele>
        <time>2024-03-30T13:48:56.000Z</time>
      </trkpt>
      <trkpt lat="28.198333333333334" lon="-16.49585">
        <ele>940</ele>
        <time>2024-03-30T13:48:57.000Z</time>
      </trkpt>
      <trkpt lat="28.198416666666667" lon="-16.495833333333334">
        <ele>942</ele>
        <time>2024-03-30T13:48:58.000Z</time>
      </trkpt>
      <trkpt lat="28.198483333333332" lon="-16.495783333333332">
        <ele>944</ele>
        <time>2024-03-30T13:48:59.000Z</time>
      </trkpt>
      <trkpt lat="28.198533333333334" lon="-16.49575">
        <ele>945</ele>
        <time>2024-03-30T13:49:00.000Z</time>
      </trkpt>
      <trkpt lat="28.198583333333332" lon="-16.4957">
        <ele>947</ele>
        <time>2024-03-30T13:49:01.000Z</time>
      </trkpt>
      <trkpt lat="28.1986" lon="-16.49565">
        <ele>949</ele>
        <time>2024-03-30T13:49:02.000Z</time>
      </trkpt>
      <trkpt lat="28.198633333333333" lon="-16.4956">
        <ele>953</ele>
        <time>2024-03-30T13:49:03.000Z</time>
      </trkpt>
      <trkpt lat="28.198666666666668" lon="-16.495566666666665">
        <ele>956</ele>
        <time>2024-03-30T13:49:04.000Z</time>
      </trkpt>
      <trkpt lat="28.198666666666668" lon="-16.495516666666667">
        <ele>958</ele>
        <time>2024-03-30T13:49:05.000Z</time>
      </trkpt>
      <trkpt lat="28.198616666666666" lon="-16.495466666666665">
        <ele>957</ele>
        <time>2024-03-30T13:49:06.000Z</time>
      </trkpt>
      <trkpt lat="28.1985" lon="-16.495416666666667">
        <ele>957</ele>
        <time>2024-03-30T13:49:07.000Z</time>
      </trkpt>
      <trkpt lat="28.1984" lon="-16.495383333333333">
        <ele>959</ele>
        <time>2024-03-30T13:49:08.000Z</time>
      </trkpt>
      <trkpt lat="28.198283333333332" lon="-16.4954">
        <ele>960</ele>
        <time>2024-03-30T13:49:09.000Z</time>
      </trkpt>
      <trkpt lat="28.198216666666667" lon="-16.495533333333334">
        <ele>961</ele>
        <time>2024-03-30T13:49:10.000Z</time>
      </trkpt>
      <trkpt lat="28.19815" lon="-16.4957">
        <ele>960</ele>
        <time>2024-03-30T13:49:11.000Z</time>
      </trkpt>
      <trkpt lat="28.19815" lon="-16.49585">
        <ele>963</ele>
        <time>2024-03-30T13:49:12.000Z</time>
      </trkpt>
      <trkpt lat="28.1982" lon="-16.495983333333335">
        <ele>963</ele>
        <time>2024-03-30T13:49:13.000Z</time>
      </trkpt>
      <trkpt lat="28.198266666666665" lon="-16.4961">
        <ele>964</ele>
        <time>2024-03-30T13:49:14.000Z</time>
      </trkpt>
      <trkpt lat="28.198333333333334" lon="-16.496183333333335">
        <ele>964</ele>
        <time>2024-03-30T13:49:15.000Z</time>
      </trkpt>
      <trkpt lat="28.198416666666667" lon="-16.49625">
        <ele>964</ele>
        <time>2024-03-30T13:49:16.000Z</time>
      </trkpt>
      <trkpt lat="28.198533333333334" lon="-16.496266666666667">
        <ele>964</ele>
        <time>2024-03-30T13:49:17.000Z</time>
      </trkpt>
      <trkpt lat="28.1986" lon="-16.496233333333333">
        <ele>965</ele>
        <time>2024-03-30T13:49:18.000Z</time>
      </trkpt>
      <trkpt lat="28.198666666666668" lon="-16.496166666666667">
        <ele>965</ele>
        <time>2024-03-30T13:49:19.000Z</time>
      </trkpt>
      <trkpt lat="28.1987" lon="-16.4961">
        <ele>969</ele>
        <time>2024-03-30T13:49:20.000Z</time>
      </trkpt>
      <trkpt lat="28.198716666666666" lon="-16.496083333333335">
        <ele>972</ele>
        <time>2024-03-30T13:49:21.000Z</time>
      </trkpt>
      <trkpt lat="28.19875" lon="-16.496083333333335">
        <ele>972</ele>
        <time>2024-03-30T13:49:22.000Z</time>
      </trkpt>
      <trkpt lat="28.1988" lon="-16.496083333333335">
        <ele>972</ele>
        <time>2024-03-30T13:49:23.000Z</time>
      </trkpt>
      <trkpt lat="28.198833333333333" lon="-16.496066666666668">
        <ele>973</ele>
        <time>2024-03-30T13:49:24.000Z</time>
      </trkpt>
      <trkpt lat="28.198866666666667" lon="-16.496033333333333">
        <ele>973</ele>
        <time>2024-03-30T13:49:25.000Z</time>
      </trkpt>
      <trkpt lat="28.198883333333335" lon="-16.495983333333335">
        <ele>973</ele>
        <time>2024-03-30T13:49:26.000Z</time>
      </trkpt>
      <trkpt lat="28.198916666666666" lon="-16.49595">
        <ele>974</ele>
        <time>2024-03-30T13:49:27.000Z</time>
      </trkpt>
      <trkpt lat="28.19895" lon="-16.4959">
        <ele>974</ele>
        <time>2024-03-30T13:49:28.000Z</time>
      </trkpt>
      <trkpt lat="28.198983333333334" lon="-16.49585">
        <ele>974</ele>
        <time>2024-03-30T13:49:29.000Z</time>
      </trkpt>
      <trkpt lat="28.199" lon="-16.495783333333332">
        <ele>975</ele>
        <time>2024-03-30T13:49:30.000Z</time>
      </trkpt>
      <trkpt lat="28.198983333333334" lon="-16.495716666666667">
        <ele>975</ele>
        <time>2024-03-30T13:49:31.000Z</time>
      </trkpt>
      <trkpt lat="28.198966666666667" lon="-16.495633333333334">
        <ele>976</ele>
        <time>2024-03-30T13:49:32.000Z</time>
      </trkpt>
      <trkpt lat="28.198966666666667" lon="-16.495566666666665">
        <ele>977</ele>
        <time>2024-03-30T13:49:33.000Z</time>
      </trkpt>
      <trkpt lat="28.199" lon="-16.495483333333333">
        <ele>978</ele>
        <time>2024-03-30T13:49:34.000Z</time>
      </trkpt>
      <trkpt lat="28.199016666666665" lon="-16.495416666666667">
        <ele>980</ele>
        <time>2024-03-30T13:49:35.000Z</time>
      </trkpt>
      <trkpt lat="28.19905" lon="-16.49535">
        <ele>981</ele>
        <time>2024-03-30T13:49:36.000Z</time>
      </trkpt>
      <trkpt lat="28.199066666666667" lon="-16.495283333333333">
        <ele>980</ele>
        <time>2024-03-30T13:49:37.000Z</time>
      </trkpt>
      <trkpt lat="28.199083333333334" lon="-16.4952">
        <ele>979</ele>
        <time>2024-03-30T13:49:38.000Z</time>
      </trkpt>
      <trkpt lat="28.1991" lon="-16.495116666666668">
        <ele>978</ele>
        <time>2024-03-30T13:49:39.000Z</time>
      </trkpt>
      <trkpt lat="28.199133333333332" lon="-16.495016666666668">
        <ele>977</ele>
        <time>2024-03-30T13:49:40.000Z</time>
      </trkpt>
      <trkpt lat="28.19915" lon="-16.49491666666667">
        <ele>976</ele>
        <time>2024-03-30T13:49:41.000Z</time>
      </trkpt>
      <trkpt lat="28.199166666666667" lon="-16.494816666666665">
        <ele>977</ele>
        <time>2024-03-30T13:49:42.000Z</time>
      </trkpt>
      <trkpt lat="28.199183333333334" lon="-16.494733333333333">
        <ele>978</ele>
        <time>2024-03-30T13:49:43.000Z</time>
      </trkpt>
      <trkpt lat="28.199183333333334" lon="-16.49465">
        <ele>978</ele>
        <time>2024-03-30T13:49:44.000Z</time>
      </trkpt>
      <trkpt lat="28.199183333333334" lon="-16.494583333333335">
        <ele>977</ele>
        <time>2024-03-30T13:49:45.000Z</time>
      </trkpt>
      <trkpt lat="28.1992" lon="-16.494516666666666">
        <ele>975</ele>
        <time>2024-03-30T13:49:46.000Z</time>
      </trkpt>
      <trkpt lat="28.199233333333332" lon="-16.494433333333333">
        <ele>972</ele>
        <time>2024-03-30T13:49:47.000Z</time>
      </trkpt>
      <trkpt lat="28.19925" lon="-16.49435">
        <ele>971</ele>
        <time>2024-03-30T13:49:48.000Z</time>
      </trkpt>
      <trkpt lat="28.199266666666666" lon="-16.494266666666668">
        <ele>970</ele>
        <time>2024-03-30T13:49:49.000Z</time>
      </trkpt>
      <trkpt lat="28.199283333333334" lon="-16.4942">
        <ele>971</ele>
        <time>2024-03-30T13:49:50.000Z</time>
      </trkpt>
      <trkpt lat="28.199283333333334" lon="-16.49415">
        <ele>971</ele>
        <time>2024-03-30T13:49:51.000Z</time>
      </trkpt>
      <trkpt lat="28.1993" lon="-16.494083333333332">
        <ele>971</ele>
        <time>2024-03-30T13:49:52.000Z</time>
      </trkpt>
      <trkpt lat="28.199333333333332" lon="-16.494016666666667">
        <ele>970</ele>
        <time>2024-03-30T13:49:53.000Z</time>
      </trkpt>
      <trkpt lat="28.19935" lon="-16.493966666666665">
        <ele>969</ele>
        <time>2024-03-30T13:49:54.000Z</time>
      </trkpt>
      <trkpt lat="28.199366666666666" lon="-16.493883333333333">
        <ele>968</ele>
        <time>2024-03-30T13:49:55.000Z</time>
      </trkpt>
      <trkpt lat="28.199366666666666" lon="-16.493816666666667">
        <ele>967</ele>
        <time>2024-03-30T13:49:56.000Z</time>
      </trkpt>
      <trkpt lat="28.1994" lon="-16.493733333333335">
        <ele>965</ele>
        <time>2024-03-30T13:49:57.000Z</time>
      </trkpt>
      <trkpt lat="28.19943333333333" lon="-16.493666666666666">
        <ele>964</ele>
        <time>2024-03-30T13:49:58.000Z</time>
      </trkpt>
      <trkpt lat="28.199483333333333" lon="-16.493583333333333">
        <ele>962</ele>
        <time>2024-03-30T13:49:59.000Z</time>
      </trkpt>
      <trkpt lat="28.199516666666668" lon="-16.4935">
        <ele>961</ele>
        <time>2024-03-30T13:50:00.000Z</time>
      </trkpt>
      <trkpt lat="28.199533333333335" lon="-16.4934">
        <ele>962</ele>
        <time>2024-03-30T13:50:01.000Z</time>
      </trkpt>
      <trkpt lat="28.199516666666668" lon="-16.493316666666665">
        <ele>964</ele>
        <time>2024-03-30T13:50:02.000Z</time>
      </trkpt>
      <trkpt lat="28.1995" lon="-16.493266666666667">
        <ele>967</ele>
        <time>2024-03-30T13:50:03.000Z</time>
      </trkpt>
      <trkpt lat="28.199466666666666" lon="-16.493233333333333">
        <ele>967</ele>
        <time>2024-03-30T13:50:04.000Z</time>
      </trkpt>
      <trkpt lat="28.19945" lon="-16.493216666666665">
        <ele>967</ele>
        <time>2024-03-30T13:50:05.000Z</time>
      </trkpt>
      <trkpt lat="28.19943333333333" lon="-16.493166666666667">
        <ele>967</ele>
        <time>2024-03-30T13:50:06.000Z</time>
      </trkpt>
      <trkpt lat="28.19945" lon="-16.4931">
        <ele>964</ele>
        <time>2024-03-30T13:50:07.000Z</time>
      </trkpt>
      <trkpt lat="28.199466666666666" lon="-16.493016666666666">
        <ele>964</ele>
        <time>2024-03-30T13:50:08.000Z</time>
      </trkpt>
      <trkpt lat="28.199516666666668" lon="-16.49295">
        <ele>965</ele>
        <time>2024-03-30T13:50:09.000Z</time>
      </trkpt>
      <trkpt lat="28.19955" lon="-16.4929">
        <ele>966</ele>
        <time>2024-03-30T13:50:10.000Z</time>
      </trkpt>
      <trkpt lat="28.199583333333333" lon="-16.49285">
        <ele>966</ele>
        <time>2024-03-30T13:50:11.000Z</time>
      </trkpt>
      <trkpt lat="28.199616666666667" lon="-16.492816666666666">
        <ele>964</ele>
        <time>2024-03-30T13:50:12.000Z</time>
      </trkpt>
      <trkpt lat="28.19965" lon="-16.49275">
        <ele>961</ele>
        <time>2024-03-30T13:50:13.000Z</time>
      </trkpt>
      <trkpt lat="28.1997" lon="-16.492683333333332">
        <ele>958</ele>
        <time>2024-03-30T13:50:14.000Z</time>
      </trkpt>
      <trkpt lat="28.19975" lon="-16.492583333333332">
        <ele>957</ele>
        <time>2024-03-30T13:50:15.000Z</time>
      </trkpt>
      <trkpt lat="28.1998" lon="-16.492483333333332">
        <ele>956</ele>
        <time>2024-03-30T13:50:16.000Z</time>
      </trkpt>
      <trkpt lat="28.19985" lon="-16.4924">
        <ele>957</ele>
        <time>2024-03-30T13:50:17.000Z</time>
      </trkpt>
      <trkpt lat="28.199883333333332" lon="-16.492333333333335">
        <ele>957</ele>
        <time>2024-03-30T13:50:18.000Z</time>
      </trkpt>
      <trkpt lat="28.199933333333334" lon="-16.492266666666666">
        <ele>957</ele>
        <time>2024-03-30T13:50:19.000Z</time>
      </trkpt>
      <trkpt lat="28.19996666666667" lon="-16.4922">
        <ele>955</ele>
        <time>2024-03-30T13:50:20.000Z</time>
      </trkpt>
      <trkpt lat="28.200016666666667" lon="-16.492116666666668">
        <ele>953</ele>
        <time>2024-03-30T13:50:21.000Z</time>
      </trkpt>
      <trkpt lat="28.20005" lon="-16.492016666666668">
        <ele>952</ele>
        <time>2024-03-30T13:50:22.000Z</time>
      </trkpt>
      <trkpt lat="28.2001" lon="-16.491933333333332">
        <ele>951</ele>
        <time>2024-03-30T13:50:23.000Z</time>
      </trkpt>
      <trkpt lat="28.20015" lon="-16.491866666666667">
        <ele>952</ele>
        <time>2024-03-30T13:50:24.000Z</time>
      </trkpt>
      <trkpt lat="28.20018333333333" lon="-16.4918">
        <ele>952</ele>
        <time>2024-03-30T13:50:25.000Z</time>
      </trkpt>
      <trkpt lat="28.200216666666666" lon="-16.49175">
        <ele>951</ele>
        <time>2024-03-30T13:50:26.000Z</time>
      </trkpt>
      <trkpt lat="28.200266666666668" lon="-16.4917">
        <ele>948</ele>
        <time>2024-03-30T13:50:27.000Z</time>
      </trkpt>
      <trkpt lat="28.200333333333333" lon="-16.491633333333333">
        <ele>945</ele>
        <time>2024-03-30T13:50:28.000Z</time>
      </trkpt>
      <trkpt lat="28.200383333333335" lon="-16.491566666666667">
        <ele>943</ele>
        <time>2024-03-30T13:50:29.000Z</time>
      </trkpt>
      <trkpt lat="28.2004" lon="-16.4915">
        <ele>942</ele>
        <time>2024-03-30T13:50:30.000Z</time>
      </trkpt>
      <trkpt lat="28.200416666666666" lon="-16.491416666666666">
        <ele>941</ele>
        <time>2024-03-30T13:50:31.000Z</time>
      </trkpt>
      <trkpt lat="28.200416666666666" lon="-16.491366666666668">
        <ele>939</ele>
        <time>2024-03-30T13:50:32.000Z</time>
      </trkpt>
      <trkpt lat="28.20045" lon="-16.4913">
        <ele>936</ele>
        <time>2024-03-30T13:50:33.000Z</time>
      </trkpt>
      <trkpt lat="28.200483333333334" lon="-16.49125">
        <ele>932</ele>
        <time>2024-03-30T13:50:34.000Z</time>
      </trkpt>
      <trkpt lat="28.200533333333333" lon="-16.491183333333332">
        <ele>930</ele>
        <time>2024-03-30T13:50:35.000Z</time>
      </trkpt>
      <trkpt lat="28.200583333333334" lon="-16.491116666666667">
        <ele>928</ele>
        <time>2024-03-30T13:50:36.000Z</time>
      </trkpt>
      <trkpt lat="28.200633333333332" lon="-16.491066666666665">
        <ele>927</ele>
        <time>2024-03-30T13:50:37.000Z</time>
      </trkpt>
      <trkpt lat="28.20065" lon="-16.491016666666667">
        <ele>925</ele>
        <time>2024-03-30T13:50:38.000Z</time>
      </trkpt>
      <trkpt lat="28.200666666666667" lon="-16.49095">
        <ele>922</ele>
        <time>2024-03-30T13:50:39.000Z</time>
      </trkpt>
      <trkpt lat="28.200666666666667" lon="-16.490883333333333">
        <ele>918</ele>
        <time>2024-03-30T13:50:40.000Z</time>
      </trkpt>
      <trkpt lat="28.2007" lon="-16.4908">
        <ele>915</ele>
        <time>2024-03-30T13:50:41.000Z</time>
      </trkpt>
      <trkpt lat="28.200733333333332" lon="-16.490716666666668">
        <ele>913</ele>
        <time>2024-03-30T13:50:42.000Z</time>
      </trkpt>
      <trkpt lat="28.200766666666667" lon="-16.490633333333335">
        <ele>912</ele>
        <time>2024-03-30T13:50:43.000Z</time>
      </trkpt>
      <trkpt lat="28.200783333333334" lon="-16.490566666666666">
        <ele>912</ele>
        <time>2024-03-30T13:50:44.000Z</time>
      </trkpt>
      <trkpt lat="28.200816666666668" lon="-16.490516666666668">
        <ele>911</ele>
        <time>2024-03-30T13:50:45.000Z</time>
      </trkpt>
      <trkpt lat="28.200833333333332" lon="-16.490466666666666">
        <ele>909</ele>
        <time>2024-03-30T13:50:46.000Z</time>
      </trkpt>
      <trkpt lat="28.20085" lon="-16.4904">
        <ele>904</ele>
        <time>2024-03-30T13:50:47.000Z</time>
      </trkpt>
      <trkpt lat="28.200883333333334" lon="-16.490316666666665">
        <ele>898</ele>
        <time>2024-03-30T13:50:48.000Z</time>
      </trkpt>
      <trkpt lat="28.2009" lon="-16.490216666666665">
        <ele>895</ele>
        <time>2024-03-30T13:50:49.000Z</time>
      </trkpt>
      <trkpt lat="28.20093333333333" lon="-16.490133333333333">
        <ele>893</ele>
        <time>2024-03-30T13:50:50.000Z</time>
      </trkpt>
      <trkpt lat="28.200983333333333" lon="-16.49005">
        <ele>893</ele>
        <time>2024-03-30T13:50:51.000Z</time>
      </trkpt>
      <trkpt lat="28.201033333333335" lon="-16.49">
        <ele>893</ele>
        <time>2024-03-30T13:50:52.000Z</time>
      </trkpt>
      <trkpt lat="28.20105" lon="-16.48995">
        <ele>892</ele>
        <time>2024-03-30T13:50:53.000Z</time>
      </trkpt>
      <trkpt lat="28.20105" lon="-16.489866666666668">
        <ele>889</ele>
        <time>2024-03-30T13:50:54.000Z</time>
      </trkpt>
      <trkpt lat="28.20105" lon="-16.48978333333333">
        <ele>884</ele>
        <time>2024-03-30T13:50:55.000Z</time>
      </trkpt>
      <trkpt lat="28.201066666666666" lon="-16.489683333333332">
        <ele>882</ele>
        <time>2024-03-30T13:50:56.000Z</time>
      </trkpt>
      <trkpt lat="28.201083333333333" lon="-16.4896">
        <ele>883</ele>
        <time>2024-03-30T13:50:57.000Z</time>
      </trkpt>
      <trkpt lat="28.201083333333333" lon="-16.489566666666665">
        <ele>885</ele>
        <time>2024-03-30T13:50:58.000Z</time>
      </trkpt>
      <trkpt lat="28.201116666666667" lon="-16.48955">
        <ele>887</ele>
        <time>2024-03-30T13:50:59.000Z</time>
      </trkpt>
      <trkpt lat="28.201133333333335" lon="-16.48955">
        <ele>887</ele>
        <time>2024-03-30T13:51:00.000Z</time>
      </trkpt>
      <trkpt lat="28.201166666666666" lon="-16.4895">
        <ele>884</ele>
        <time>2024-03-30T13:51:01.000Z</time>
      </trkpt>
      <trkpt lat="28.2012" lon="-16.489433333333334">
        <ele>880</ele>
        <time>2024-03-30T13:51:02.000Z</time>
      </trkpt>
      <trkpt lat="28.201216666666667" lon="-16.489333333333335">
        <ele>878</ele>
        <time>2024-03-30T13:51:03.000Z</time>
      </trkpt>
      <trkpt lat="28.201233333333334" lon="-16.489233333333335">
        <ele>881</ele>
        <time>2024-03-30T13:51:04.000Z</time>
      </trkpt>
      <trkpt lat="28.201266666666665" lon="-16.489166666666666">
        <ele>886</ele>
        <time>2024-03-30T13:51:05.000Z</time>
      </trkpt>
      <trkpt lat="28.201283333333333" lon="-16.489116666666668">
        <ele>891</ele>
        <time>2024-03-30T13:51:06.000Z</time>
      </trkpt>
      <trkpt lat="28.201283333333333" lon="-16.4891">
        <ele>893</ele>
        <time>2024-03-30T13:51:07.000Z</time>
      </trkpt>
      <trkpt lat="28.2013" lon="-16.489083333333333">
        <ele>892</ele>
        <time>2024-03-30T13:51:08.000Z</time>
      </trkpt>
      <trkpt lat="28.201316666666667" lon="-16.489066666666666">
        <ele>889</ele>
        <time>2024-03-30T13:51:09.000Z</time>
      </trkpt>
      <trkpt lat="28.201333333333334" lon="-16.489">
        <ele>885</ele>
        <time>2024-03-30T13:51:10.000Z</time>
      </trkpt>
      <trkpt lat="28.201366666666665" lon="-16.488916666666668">
        <ele>883</ele>
        <time>2024-03-30T13:51:11.000Z</time>
      </trkpt>
      <trkpt lat="28.2014" lon="-16.488816666666665">
        <ele>883</ele>
        <time>2024-03-30T13:51:12.000Z</time>
      </trkpt>
      <trkpt lat="28.201433333333334" lon="-16.488733333333332">
        <ele>887</ele>
        <time>2024-03-30T13:51:13.000Z</time>
      </trkpt>
      <trkpt lat="28.20145" lon="-16.4887">
        <ele>890</ele>
        <time>2024-03-30T13:51:14.000Z</time>
      </trkpt>
      <trkpt lat="28.20145" lon="-16.488666666666667">
        <ele>891</ele>
        <time>2024-03-30T13:51:15.000Z</time>
      </trkpt>
      <trkpt lat="28.20145" lon="-16.48865">
        <ele>889</ele>
        <time>2024-03-30T13:51:16.000Z</time>
      </trkpt>
      <trkpt lat="28.20145" lon="-16.4886">
        <ele>886</ele>
        <time>2024-03-30T13:51:17.000Z</time>
      </trkpt>
      <trkpt lat="28.201466666666665" lon="-16.488516666666666">
        <ele>881</ele>
        <time>2024-03-30T13:51:18.000Z</time>
      </trkpt>
      <trkpt lat="28.2015" lon="-16.488416666666666">
        <ele>878</ele>
        <time>2024-03-30T13:51:19.000Z</time>
      </trkpt>
      <trkpt lat="28.201533333333334" lon="-16.488316666666666">
        <ele>877</ele>
        <time>2024-03-30T13:51:20.000Z</time>
      </trkpt>
      <trkpt lat="28.20155" lon="-16.488233333333334">
        <ele>877</ele>
        <time>2024-03-30T13:51:21.000Z</time>
      </trkpt>
      <trkpt lat="28.20155" lon="-16.488183333333332">
        <ele>877</ele>
        <time>2024-03-30T13:51:22.000Z</time>
      </trkpt>
      <trkpt lat="28.20155" lon="-16.488116666666667">
        <ele>876</ele>
        <time>2024-03-30T13:51:23.000Z</time>
      </trkpt>
      <trkpt lat="28.20155" lon="-16.48806666666667">
        <ele>873</ele>
        <time>2024-03-30T13:51:24.000Z</time>
      </trkpt>
      <trkpt lat="28.20155" lon="-16.487983333333332">
        <ele>870</ele>
        <time>2024-03-30T13:51:25.000Z</time>
      </trkpt>
      <trkpt lat="28.20155" lon="-16.4879">
        <ele>867</ele>
        <time>2024-03-30T13:51:26.000Z</time>
      </trkpt>
      <trkpt lat="28.201583333333332" lon="-16.487816666666667">
        <ele>865</ele>
        <time>2024-03-30T13:51:27.000Z</time>
      </trkpt>
      <trkpt lat="28.20165" lon="-16.48775">
        <ele>864</ele>
        <time>2024-03-30T13:51:28.000Z</time>
      </trkpt>
      <trkpt lat="28.2017" lon="-16.487683333333333">
        <ele>864</ele>
        <time>2024-03-30T13:51:29.000Z</time>
      </trkpt>
      <trkpt lat="28.20175" lon="-16.487616666666668">
        <ele>863</ele>
        <time>2024-03-30T13:51:30.000Z</time>
      </trkpt>
      <trkpt lat="28.201783333333335" lon="-16.48755">
        <ele>862</ele>
        <time>2024-03-30T13:51:31.000Z</time>
      </trkpt>
      <trkpt lat="28.201816666666666" lon="-16.487466666666666">
        <ele>860</ele>
        <time>2024-03-30T13:51:32.000Z</time>
      </trkpt>
      <trkpt lat="28.201833333333333" lon="-16.487416666666668">
        <ele>858</ele>
        <time>2024-03-30T13:51:33.000Z</time>
      </trkpt>
      <trkpt lat="28.201866666666668" lon="-16.487333333333332">
        <ele>855</ele>
        <time>2024-03-30T13:51:34.000Z</time>
      </trkpt>
      <trkpt lat="28.201916666666666" lon="-16.487266666666667">
        <ele>853</ele>
        <time>2024-03-30T13:51:35.000Z</time>
      </trkpt>
      <trkpt lat="28.201966666666667" lon="-16.487166666666667">
        <ele>852</ele>
        <time>2024-03-30T13:51:36.000Z</time>
      </trkpt>
      <trkpt lat="28.202" lon="-16.487083333333334">
        <ele>851</ele>
        <time>2024-03-30T13:51:37.000Z</time>
      </trkpt>
      <trkpt lat="28.202033333333333" lon="-16.487016666666666">
        <ele>851</ele>
        <time>2024-03-30T13:51:38.000Z</time>
      </trkpt>
      <trkpt lat="28.202066666666667" lon="-16.48695">
        <ele>851</ele>
        <time>2024-03-30T13:51:39.000Z</time>
      </trkpt>
      <trkpt lat="28.202083333333334" lon="-16.486883333333335">
        <ele>849</ele>
        <time>2024-03-30T13:51:40.000Z</time>
      </trkpt>
      <trkpt lat="28.202133333333332" lon="-16.486816666666666">
        <ele>847</ele>
        <time>2024-03-30T13:51:41.000Z</time>
      </trkpt>
      <trkpt lat="28.202166666666667" lon="-16.48675">
        <ele>844</ele>
        <time>2024-03-30T13:51:42.000Z</time>
      </trkpt>
      <trkpt lat="28.2022" lon="-16.486666666666668">
        <ele>841</ele>
        <time>2024-03-30T13:51:43.000Z</time>
      </trkpt>
      <trkpt lat="28.202233333333332" lon="-16.48656666666667">
        <ele>840</ele>
        <time>2024-03-30T13:51:44.000Z</time>
      </trkpt>
      <trkpt lat="28.20225" lon="-16.486466666666665">
        <ele>840</ele>
        <time>2024-03-30T13:51:45.000Z</time>
      </trkpt>
      <trkpt lat="28.20225" lon="-16.4864">
        <ele>840</ele>
        <time>2024-03-30T13:51:46.000Z</time>
      </trkpt>
      <trkpt lat="28.202266666666667" lon="-16.48635">
        <ele>840</ele>
        <time>2024-03-30T13:51:47.000Z</time>
      </trkpt>
      <trkpt lat="28.202283333333334" lon="-16.486283333333333">
        <ele>839</ele>
        <time>2024-03-30T13:51:48.000Z</time>
      </trkpt>
      <trkpt lat="28.20231666666667" lon="-16.486233333333335">
        <ele>838</ele>
        <time>2024-03-30T13:51:49.000Z</time>
      </trkpt>
      <trkpt lat="28.20235" lon="-16.48615">
        <ele>837</ele>
        <time>2024-03-30T13:51:50.000Z</time>
      </trkpt>
      <trkpt lat="28.2024" lon="-16.486083333333333">
        <ele>836</ele>
        <time>2024-03-30T13:51:51.000Z</time>
      </trkpt>
      <trkpt lat="28.20245" lon="-16.486">
        <ele>837</ele>
        <time>2024-03-30T13:51:52.000Z</time>
      </trkpt>
      <trkpt lat="28.2025" lon="-16.485916666666668">
        <ele>840</ele>
        <time>2024-03-30T13:51:53.000Z</time>
      </trkpt>
      <trkpt lat="28.202533333333335" lon="-16.48585">
        <ele>844</ele>
        <time>2024-03-30T13:51:54.000Z</time>
      </trkpt>
      <trkpt lat="28.20255" lon="-16.4858">
        <ele>846</ele>
        <time>2024-03-30T13:51:55.000Z</time>
      </trkpt>
      <trkpt lat="28.202566666666666" lon="-16.485766666666667">
        <ele>847</ele>
        <time>2024-03-30T13:51:56.000Z</time>
      </trkpt>
      <trkpt lat="28.202583333333333" lon="-16.485733333333332">
        <ele>847</ele>
        <time>2024-03-30T13:51:57.000Z</time>
      </trkpt>
      <trkpt lat="28.2026" lon="-16.4857">
        <ele>846</ele>
        <time>2024-03-30T13:51:58.000Z</time>
      </trkpt>
      <trkpt lat="28.202616666666668" lon="-16.485633333333332">
        <ele>844</ele>
        <time>2024-03-30T13:51:59.000Z</time>
      </trkpt>
      <trkpt lat="28.202666666666666" lon="-16.48555">
        <ele>844</ele>
        <time>2024-03-30T13:52:00.000Z</time>
      </trkpt>
      <trkpt lat="28.2027" lon="-16.485466666666667">
        <ele>845</ele>
        <time>2024-03-30T13:52:01.000Z</time>
      </trkpt>
      <trkpt lat="28.202733333333335" lon="-16.485416666666666">
        <ele>846</ele>
        <time>2024-03-30T13:52:02.000Z</time>
      </trkpt>
      <trkpt lat="28.202716666666667" lon="-16.48535">
        <ele>847</ele>
        <time>2024-03-30T13:52:03.000Z</time>
      </trkpt>
      <trkpt lat="28.202683333333333" lon="-16.485283333333335">
        <ele>847</ele>
        <time>2024-03-30T13:52:04.000Z</time>
      </trkpt>
      <trkpt lat="28.2026" lon="-16.485233333333333">
        <ele>847</ele>
        <time>2024-03-30T13:52:05.000Z</time>
      </trkpt>
      <trkpt lat="28.202466666666666" lon="-16.4853">
        <ele>846</ele>
        <time>2024-03-30T13:52:06.000Z</time>
      </trkpt>
      <trkpt lat="28.202383333333334" lon="-16.485416666666666">
        <ele>845</ele>
        <time>2024-03-30T13:52:07.000Z</time>
      </trkpt>
      <trkpt lat="28.202333333333332" lon="-16.485583333333334">
        <ele>846</ele>
        <time>2024-03-30T13:52:08.000Z</time>
      </trkpt>
      <trkpt lat="28.20235" lon="-16.4857">
        <ele>848</ele>
        <time>2024-03-30T13:52:09.000Z</time>
      </trkpt>
      <trkpt lat="28.2024" lon="-16.4858">
        <ele>849</ele>
        <time>2024-03-30T13:52:10.000Z</time>
      </trkpt>
      <trkpt lat="28.202466666666666" lon="-16.485883333333334">
        <ele>849</ele>
        <time>2024-03-30T13:52:11.000Z</time>
      </trkpt>
      <trkpt lat="28.20255" lon="-16.48593333333333">
        <ele>849</ele>
        <time>2024-03-30T13:52:12.000Z</time>
      </trkpt>
      <trkpt lat="28.20265" lon="-16.48595">
        <ele>850</ele>
        <time>2024-03-30T13:52:13.000Z</time>
      </trkpt>
      <trkpt lat="28.202733333333335" lon="-16.48593333333333">
        <ele>851</ele>
        <time>2024-03-30T13:52:14.000Z</time>
      </trkpt>
      <trkpt lat="28.202816666666667" lon="-16.485916666666668">
        <ele>853</ele>
        <time>2024-03-30T13:52:15.000Z</time>
      </trkpt>
      <trkpt lat="28.202916666666667" lon="-16.4859">
        <ele>854</ele>
        <time>2024-03-30T13:52:16.000Z</time>
      </trkpt>
      <trkpt lat="28.202983333333332" lon="-16.485866666666666">
        <ele>858</ele>
        <time>2024-03-30T13:52:17.000Z</time>
      </trkpt>
      <trkpt lat="28.20305" lon="-16.48585">
        <ele>861</ele>
        <time>2024-03-30T13:52:18.000Z</time>
      </trkpt>
      <trkpt lat="28.203083333333332" lon="-16.4858">
        <ele>864</ele>
        <time>2024-03-30T13:52:19.000Z</time>
      </trkpt>
      <trkpt lat="28.20306666666667" lon="-16.485766666666667">
        <ele>865</ele>
        <time>2024-03-30T13:52:20.000Z</time>
      </trkpt>
      <trkpt lat="28.203033333333334" lon="-16.485733333333332">
        <ele>865</ele>
        <time>2024-03-30T13:52:21.000Z</time>
      </trkpt>
      <trkpt lat="28.202966666666665" lon="-16.4857">
        <ele>865</ele>
        <time>2024-03-30T13:52:22.000Z</time>
      </trkpt>
      <trkpt lat="28.202883333333332" lon="-16.485683333333334">
        <ele>865</ele>
        <time>2024-03-30T13:52:23.000Z</time>
      </trkpt>
      <trkpt lat="28.202783333333333" lon="-16.4857">
        <ele>865</ele>
        <time>2024-03-30T13:52:24.000Z</time>
      </trkpt>
      <trkpt lat="28.202683333333333" lon="-16.485766666666667">
        <ele>865</ele>
        <time>2024-03-30T13:52:25.000Z</time>
      </trkpt>
      <trkpt lat="28.202583333333333" lon="-16.485916666666668">
        <ele>864</ele>
        <time>2024-03-30T13:52:26.000Z</time>
      </trkpt>
      <trkpt lat="28.2026" lon="-16.486066666666666">
        <ele>864</ele>
        <time>2024-03-30T13:52:27.000Z</time>
      </trkpt>
      <trkpt lat="28.20265" lon="-16.48625">
        <ele>864</ele>
        <time>2024-03-30T13:52:28.000Z</time>
      </trkpt>
      <trkpt lat="28.202733333333335" lon="-16.486366666666665">
        <ele>866</ele>
        <time>2024-03-30T13:52:29.000Z</time>
      </trkpt>
      <trkpt lat="28.202833333333334" lon="-16.486416666666667">
        <ele>866</ele>
        <time>2024-03-30T13:52:30.000Z</time>
      </trkpt>
      <trkpt lat="28.202933333333334" lon="-16.4864">
        <ele>867</ele>
        <time>2024-03-30T13:52:31.000Z</time>
      </trkpt>
      <trkpt lat="28.203" lon="-16.48635">
        <ele>874</ele>
        <time>2024-03-30T13:52:32.000Z</time>
      </trkpt>
      <trkpt lat="28.20305" lon="-16.486316666666667">
        <ele>876</ele>
        <time>2024-03-30T13:52:33.000Z</time>
      </trkpt>
      <trkpt lat="28.2031" lon="-16.4863">
        <ele>879</ele>
        <time>2024-03-30T13:52:34.000Z</time>
      </trkpt>
      <trkpt lat="28.203133333333334" lon="-16.486283333333333">
        <ele>881</ele>
        <time>2024-03-30T13:52:35.000Z</time>
      </trkpt>
      <trkpt lat="28.203166666666668" lon="-16.486266666666666">
        <ele>881</ele>
        <time>2024-03-30T13:52:36.000Z</time>
      </trkpt>
      <trkpt lat="28.203166666666668" lon="-16.486233333333335">
        <ele>882</ele>
        <time>2024-03-30T13:52:37.000Z</time>
      </trkpt>
      <trkpt lat="28.203116666666666" lon="-16.486183333333333">
        <ele>882</ele>
        <time>2024-03-30T13:52:38.000Z</time>
      </trkpt>
      <trkpt lat="28.202983333333332" lon="-16.486133333333335">
        <ele>882</ele>
        <time>2024-03-30T13:52:39.000Z</time>
      </trkpt>
      <trkpt lat="28.202866666666665" lon="-16.48615">
        <ele>883</ele>
        <time>2024-03-30T13:52:40.000Z</time>
      </trkpt>
      <trkpt lat="28.202783333333333" lon="-16.486216666666667">
        <ele>886</ele>
        <time>2024-03-30T13:52:41.000Z</time>
      </trkpt>
      <trkpt lat="28.202716666666667" lon="-16.4863">
        <ele>887</ele>
        <time>2024-03-30T13:52:42.000Z</time>
      </trkpt>
      <trkpt lat="28.202666666666666" lon="-16.486416666666667">
        <ele>888</ele>
        <time>2024-03-30T13:52:43.000Z</time>
      </trkpt>
      <trkpt lat="28.20265" lon="-16.48656666666667">
        <ele>888</ele>
        <time>2024-03-30T13:52:44.000Z</time>
      </trkpt>
      <trkpt lat="28.202666666666666" lon="-16.48675">
        <ele>889</ele>
        <time>2024-03-30T13:52:45.000Z</time>
      </trkpt>
      <trkpt lat="28.202716666666667" lon="-16.486866666666668">
        <ele>892</ele>
        <time>2024-03-30T13:52:46.000Z</time>
      </trkpt>
      <trkpt lat="28.2028" lon="-16.486966666666667">
        <ele>894</ele>
        <time>2024-03-30T13:52:47.000Z</time>
      </trkpt>
      <trkpt lat="28.202916666666667" lon="-16.487">
        <ele>895</ele>
        <time>2024-03-30T13:52:48.000Z</time>
      </trkpt>
      <trkpt lat="28.203016666666667" lon="-16.487">
        <ele>898</ele>
        <time>2024-03-30T13:52:49.000Z</time>
      </trkpt>
      <trkpt lat="28.203083333333332" lon="-16.486983333333335">
        <ele>898</ele>
        <time>2024-03-30T13:52:50.000Z</time>
      </trkpt>
      <trkpt lat="28.203116666666666" lon="-16.486966666666667">
        <ele>898</ele>
        <time>2024-03-30T13:52:51.000Z</time>
      </trkpt>
      <trkpt lat="28.203116666666666" lon="-16.486916666666666">
        <ele>899</ele>
        <time>2024-03-30T13:52:52.000Z</time>
      </trkpt>
      <trkpt lat="28.2031" lon="-16.486866666666668">
        <ele>900</ele>
        <time>2024-03-30T13:52:53.000Z</time>
      </trkpt>
      <trkpt lat="28.20305" lon="-16.4868">
        <ele>902</ele>
        <time>2024-03-30T13:52:54.000Z</time>
      </trkpt>
      <trkpt lat="28.203" lon="-16.486766666666668">
        <ele>904</ele>
        <time>2024-03-30T13:52:55.000Z</time>
      </trkpt>
      <trkpt lat="28.202933333333334" lon="-16.486766666666668">
        <ele>905</ele>
        <time>2024-03-30T13:52:56.000Z</time>
      </trkpt>
      <trkpt lat="28.202833333333334" lon="-16.4868">
        <ele>905</ele>
        <time>2024-03-30T13:52:57.000Z</time>
      </trkpt>
      <trkpt lat="28.20275" lon="-16.486883333333335">
        <ele>905</ele>
        <time>2024-03-30T13:52:58.000Z</time>
      </trkpt>
      <trkpt lat="28.202683333333333" lon="-16.487033333333333">
        <ele>904</ele>
        <time>2024-03-30T13:52:59.000Z</time>
      </trkpt>
      <trkpt lat="28.20265" lon="-16.4872">
        <ele>906</ele>
        <time>2024-03-30T13:53:00.000Z</time>
      </trkpt>
      <trkpt lat="28.202666666666666" lon="-16.48735">
        <ele>907</ele>
        <time>2024-03-30T13:53:01.000Z</time>
      </trkpt>
      <trkpt lat="28.202716666666667" lon="-16.48745">
        <ele>911</ele>
        <time>2024-03-30T13:53:02.000Z</time>
      </trkpt>
      <trkpt lat="28.202766666666665" lon="-16.48753333333333">
        <ele>914</ele>
        <time>2024-03-30T13:53:03.000Z</time>
      </trkpt>
      <trkpt lat="28.20285" lon="-16.487583333333333">
        <ele>916</ele>
        <time>2024-03-30T13:53:04.000Z</time>
      </trkpt>
      <trkpt lat="28.202933333333334" lon="-16.487583333333333">
        <ele>917</ele>
        <time>2024-03-30T13:53:05.000Z</time>
      </trkpt>
      <trkpt lat="28.203" lon="-16.487583333333333">
        <ele>917</ele>
        <time>2024-03-30T13:53:06.000Z</time>
      </trkpt>
      <trkpt lat="28.20305" lon="-16.48755">
        <ele>917</ele>
        <time>2024-03-30T13:53:07.000Z</time>
      </trkpt>
      <trkpt lat="28.203083333333332" lon="-16.4875">
        <ele>918</ele>
        <time>2024-03-30T13:53:08.000Z</time>
      </trkpt>
      <trkpt lat="28.203116666666666" lon="-16.487466666666666">
        <ele>919</ele>
        <time>2024-03-30T13:53:09.000Z</time>
      </trkpt>
      <trkpt lat="28.203133333333334" lon="-16.487416666666668">
        <ele>919</ele>
        <time>2024-03-30T13:53:10.000Z</time>
      </trkpt>
      <trkpt lat="28.203166666666668" lon="-16.487383333333334">
        <ele>920</ele>
        <time>2024-03-30T13:53:11.000Z</time>
      </trkpt>
      <trkpt lat="28.203166666666668" lon="-16.487333333333332">
        <ele>920</ele>
        <time>2024-03-30T13:53:12.000Z</time>
      </trkpt>
      <trkpt lat="28.203133333333334" lon="-16.487283333333334">
        <ele>919</ele>
        <time>2024-03-30T13:53:13.000Z</time>
      </trkpt>
      <trkpt lat="28.20305" lon="-16.487266666666667">
        <ele>917</ele>
        <time>2024-03-30T13:53:14.000Z</time>
      </trkpt>
      <trkpt lat="28.202933333333334" lon="-16.48731666666667">
        <ele>912</ele>
        <time>2024-03-30T13:53:15.000Z</time>
      </trkpt>
      <trkpt lat="28.202816666666667" lon="-16.487433333333332">
        <ele>910</ele>
        <time>2024-03-30T13:53:16.000Z</time>
      </trkpt>
      <trkpt lat="28.202766666666665" lon="-16.487583333333333">
        <ele>911</ele>
        <time>2024-03-30T13:53:17.000Z</time>
      </trkpt>
      <trkpt lat="28.20275" lon="-16.487733333333335">
        <ele>913</ele>
        <time>2024-03-30T13:53:18.000Z</time>
      </trkpt>
      <trkpt lat="28.202766666666665" lon="-16.487866666666665">
        <ele>914</ele>
        <time>2024-03-30T13:53:19.000Z</time>
      </trkpt>
      <trkpt lat="28.202816666666667" lon="-16.487983333333332">
        <ele>916</ele>
        <time>2024-03-30T13:53:20.000Z</time>
      </trkpt>
      <trkpt lat="28.202883333333332" lon="-16.488083333333332">
        <ele>917</ele>
        <time>2024-03-30T13:53:21.000Z</time>
      </trkpt>
      <trkpt lat="28.202966666666665" lon="-16.488133333333334">
        <ele>917</ele>
        <time>2024-03-30T13:53:22.000Z</time>
      </trkpt>
      <trkpt lat="28.20305" lon="-16.488183333333332">
        <ele>918</ele>
        <time>2024-03-30T13:53:23.000Z</time>
      </trkpt>
      <trkpt lat="28.203133333333334" lon="-16.488183333333332">
        <ele>919</ele>
        <time>2024-03-30T13:53:24.000Z</time>
      </trkpt>
      <trkpt lat="28.203216666666666" lon="-16.4882">
        <ele>919</ele>
        <time>2024-03-30T13:53:25.000Z</time>
      </trkpt>
      <trkpt lat="28.2033" lon="-16.4882">
        <ele>919</ele>
        <time>2024-03-30T13:53:26.000Z</time>
      </trkpt>
      <trkpt lat="28.203366666666668" lon="-16.4882">
        <ele>919</ele>
        <time>2024-03-30T13:53:27.000Z</time>
      </trkpt>
      <trkpt lat="28.203433333333333" lon="-16.488183333333332">
        <ele>918</ele>
        <time>2024-03-30T13:53:28.000Z</time>
      </trkpt>
      <trkpt lat="28.203483333333335" lon="-16.48815">
        <ele>916</ele>
        <time>2024-03-30T13:53:29.000Z</time>
      </trkpt>
      <trkpt lat="28.203533333333333" lon="-16.4881">
        <ele>916</ele>
        <time>2024-03-30T13:53:30.000Z</time>
      </trkpt>
      <trkpt lat="28.203583333333334" lon="-16.488033333333334">
        <ele>915</ele>
        <time>2024-03-30T13:53:31.000Z</time>
      </trkpt>
      <trkpt lat="28.2036" lon="-16.487983333333332">
        <ele>915</ele>
        <time>2024-03-30T13:53:32.000Z</time>
      </trkpt>
      <trkpt lat="28.203633333333332" lon="-16.487933333333334">
        <ele>916</ele>
        <time>2024-03-30T13:53:33.000Z</time>
      </trkpt>
      <trkpt lat="28.20365" lon="-16.4879">
        <ele>915</ele>
        <time>2024-03-30T13:53:34.000Z</time>
      </trkpt>
      <trkpt lat="28.203683333333334" lon="-16.487866666666665">
        <ele>912</ele>
        <time>2024-03-30T13:53:35.000Z</time>
      </trkpt>
      <trkpt lat="28.203716666666665" lon="-16.4878">
        <ele>908</ele>
        <time>2024-03-30T13:53:36.000Z</time>
      </trkpt>
      <trkpt lat="28.20375" lon="-16.487716666666667">
        <ele>903</ele>
        <time>2024-03-30T13:53:37.000Z</time>
      </trkpt>
      <trkpt lat="28.2038" lon="-16.487616666666668">
        <ele>901</ele>
        <time>2024-03-30T13:53:38.000Z</time>
      </trkpt>
      <trkpt lat="28.203833333333332" lon="-16.487516666666668">
        <ele>901</ele>
        <time>2024-03-30T13:53:39.000Z</time>
      </trkpt>
      <trkpt lat="28.203883333333334" lon="-16.487433333333332">
        <ele>902</ele>
        <time>2024-03-30T13:53:40.000Z</time>
      </trkpt>
      <trkpt lat="28.203916666666668" lon="-16.487383333333334">
        <ele>903</ele>
        <time>2024-03-30T13:53:41.000Z</time>
      </trkpt>
      <trkpt lat="28.20393333333333" lon="-16.48735">
        <ele>901</ele>
        <time>2024-03-30T13:53:42.000Z</time>
      </trkpt>
      <trkpt lat="28.20395" lon="-16.487283333333334">
        <ele>897</ele>
        <time>2024-03-30T13:53:43.000Z</time>
      </trkpt>
      <trkpt lat="28.203983333333333" lon="-16.487216666666665">
        <ele>892</ele>
        <time>2024-03-30T13:53:44.000Z</time>
      </trkpt>
      <trkpt lat="28.204016666666668" lon="-16.487133333333333">
        <ele>889</ele>
        <time>2024-03-30T13:53:45.000Z</time>
      </trkpt>
      <trkpt lat="28.204066666666666" lon="-16.487033333333333">
        <ele>888</ele>
        <time>2024-03-30T13:53:46.000Z</time>
      </trkpt>
      <trkpt lat="28.2041" lon="-16.486966666666667">
        <ele>888</ele>
        <time>2024-03-30T13:53:47.000Z</time>
      </trkpt>
      <trkpt lat="28.20415" lon="-16.4869">
        <ele>889</ele>
        <time>2024-03-30T13:53:48.000Z</time>
      </trkpt>
      <trkpt lat="28.204183333333333" lon="-16.48685">
        <ele>889</ele>
        <time>2024-03-30T13:53:49.000Z</time>
      </trkpt>
      <trkpt lat="28.204233333333335" lon="-16.486816666666666">
        <ele>887</ele>
        <time>2024-03-30T13:53:50.000Z</time>
      </trkpt>
      <trkpt lat="28.2043" lon="-16.486766666666668">
        <ele>884</ele>
        <time>2024-03-30T13:53:51.000Z</time>
      </trkpt>
      <trkpt lat="28.20435" lon="-16.4867">
        <ele>882</ele>
        <time>2024-03-30T13:53:52.000Z</time>
      </trkpt>
      <trkpt lat="28.204416666666667" lon="-16.486616666666666">
        <ele>881</ele>
        <time>2024-03-30T13:53:53.000Z</time>
      </trkpt>
      <trkpt lat="28.204483333333332" lon="-16.48655">
        <ele>880</ele>
        <time>2024-03-30T13:53:54.000Z</time>
      </trkpt>
      <trkpt lat="28.20455" lon="-16.4865">
        <ele>881</ele>
        <time>2024-03-30T13:53:55.000Z</time>
      </trkpt>
      <trkpt lat="28.2046" lon="-16.486466666666665">
        <ele>882</ele>
        <time>2024-03-30T13:53:56.000Z</time>
      </trkpt>
      <trkpt lat="28.204666666666668" lon="-16.486433333333334">
        <ele>881</ele>
        <time>2024-03-30T13:53:57.000Z</time>
      </trkpt>
      <trkpt lat="28.204716666666666" lon="-16.486416666666667">
        <ele>879</ele>
        <time>2024-03-30T13:53:58.000Z</time>
      </trkpt>
      <trkpt lat="28.204766666666668" lon="-16.486366666666665">
        <ele>876</ele>
        <time>2024-03-30T13:53:59.000Z</time>
      </trkpt>
      <trkpt lat="28.204833333333333" lon="-16.4863">
        <ele>873</ele>
        <time>2024-03-30T13:54:00.000Z</time>
      </trkpt>
      <trkpt lat="28.204883333333335" lon="-16.486216666666667">
        <ele>872</ele>
        <time>2024-03-30T13:54:01.000Z</time>
      </trkpt>
      <trkpt lat="28.204933333333333" lon="-16.48615">
        <ele>873</ele>
        <time>2024-03-30T13:54:02.000Z</time>
      </trkpt>
      <trkpt lat="28.204966666666667" lon="-16.4861">
        <ele>875</ele>
        <time>2024-03-30T13:54:03.000Z</time>
      </trkpt>
      <trkpt lat="28.205" lon="-16.48605">
        <ele>875</ele>
        <time>2024-03-30T13:54:04.000Z</time>
      </trkpt>
      <trkpt lat="28.205033333333333" lon="-16.48603333333333">
        <ele>875</ele>
        <time>2024-03-30T13:54:05.000Z</time>
      </trkpt>
      <trkpt lat="28.205083333333334" lon="-16.485983333333333">
        <ele>873</ele>
        <time>2024-03-30T13:54:06.000Z</time>
      </trkpt>
      <trkpt lat="28.205116666666665" lon="-16.48593333333333">
        <ele>870</ele>
        <time>2024-03-30T13:54:07.000Z</time>
      </trkpt>
      <trkpt lat="28.20515" lon="-16.485866666666666">
        <ele>868</ele>
        <time>2024-03-30T13:54:08.000Z</time>
      </trkpt>
      <trkpt lat="28.205166666666667" lon="-16.485783333333334">
        <ele>868</ele>
        <time>2024-03-30T13:54:09.000Z</time>
      </trkpt>
      <trkpt lat="28.2052" lon="-16.485716666666665">
        <ele>869</ele>
        <time>2024-03-30T13:54:10.000Z</time>
      </trkpt>
      <trkpt lat="28.2052" lon="-16.485666666666667">
        <ele>870</ele>
        <time>2024-03-30T13:54:11.000Z</time>
      </trkpt>
      <trkpt lat="28.205216666666665" lon="-16.485616666666665">
        <ele>871</ele>
        <time>2024-03-30T13:54:12.000Z</time>
      </trkpt>
      <trkpt lat="28.205233333333332" lon="-16.485566666666667">
        <ele>870</ele>
        <time>2024-03-30T13:54:13.000Z</time>
      </trkpt>
      <trkpt lat="28.20525" lon="-16.4855">
        <ele>870</ele>
        <time>2024-03-30T13:54:14.000Z</time>
      </trkpt>
      <trkpt lat="28.20525" lon="-16.485433333333333">
        <ele>869</ele>
        <time>2024-03-30T13:54:15.000Z</time>
      </trkpt>
      <trkpt lat="28.205266666666667" lon="-16.48535">
        <ele>869</ele>
        <time>2024-03-30T13:54:16.000Z</time>
      </trkpt>
      <trkpt lat="28.2053" lon="-16.485266666666668">
        <ele>869</ele>
        <time>2024-03-30T13:54:17.000Z</time>
      </trkpt>
      <trkpt lat="28.205333333333332" lon="-16.485216666666666">
        <ele>869</ele>
        <time>2024-03-30T13:54:18.000Z</time>
      </trkpt>
      <trkpt lat="28.205366666666666" lon="-16.485166666666668">
        <ele>869</ele>
        <time>2024-03-30T13:54:19.000Z</time>
      </trkpt>
      <trkpt lat="28.2054" lon="-16.485116666666666">
        <ele>870</ele>
        <time>2024-03-30T13:54:20.000Z</time>
      </trkpt>
      <trkpt lat="28.205433333333332" lon="-16.48506666666667">
        <ele>869</ele>
        <time>2024-03-30T13:54:21.000Z</time>
      </trkpt>
      <trkpt lat="28.20545" lon="-16.485">
        <ele>867</ele>
        <time>2024-03-30T13:54:22.000Z</time>
      </trkpt>
      <trkpt lat="28.205483333333333" lon="-16.48495">
        <ele>865</ele>
        <time>2024-03-30T13:54:23.000Z</time>
      </trkpt>
      <trkpt lat="28.2055" lon="-16.484883333333332">
        <ele>864</ele>
        <time>2024-03-30T13:54:24.000Z</time>
      </trkpt>
      <trkpt lat="28.205516666666668" lon="-16.484816666666667">
        <ele>863</ele>
        <time>2024-03-30T13:54:25.000Z</time>
      </trkpt>
      <trkpt lat="28.20555" lon="-16.48475">
        <ele>861</ele>
        <time>2024-03-30T13:54:26.000Z</time>
      </trkpt>
      <trkpt lat="28.205566666666666" lon="-16.484683333333333">
        <ele>860</ele>
        <time>2024-03-30T13:54:27.000Z</time>
      </trkpt>
      <trkpt lat="28.2056" lon="-16.484616666666668">
        <ele>858</ele>
        <time>2024-03-30T13:54:28.000Z</time>
      </trkpt>
      <trkpt lat="28.205616666666668" lon="-16.48455">
        <ele>856</ele>
        <time>2024-03-30T13:54:29.000Z</time>
      </trkpt>
      <trkpt lat="28.20565" lon="-16.484483333333333">
        <ele>854</ele>
        <time>2024-03-30T13:54:30.000Z</time>
      </trkpt>
      <trkpt lat="28.205683333333333" lon="-16.484416666666668">
        <ele>851</ele>
        <time>2024-03-30T13:54:31.000Z</time>
      </trkpt>
      <trkpt lat="28.2057" lon="-16.484333333333332">
        <ele>850</ele>
        <time>2024-03-30T13:54:32.000Z</time>
      </trkpt>
      <trkpt lat="28.205716666666667" lon="-16.484233333333332">
        <ele>850</ele>
        <time>2024-03-30T13:54:33.000Z</time>
      </trkpt>
      <trkpt lat="28.205733333333335" lon="-16.484166666666667">
        <ele>850</ele>
        <time>2024-03-30T13:54:34.000Z</time>
      </trkpt>
      <trkpt lat="28.20575" lon="-16.484083333333334">
        <ele>849</ele>
        <time>2024-03-30T13:54:35.000Z</time>
      </trkpt>
      <trkpt lat="28.205783333333333" lon="-16.484016666666665">
        <ele>848</ele>
        <time>2024-03-30T13:54:36.000Z</time>
      </trkpt>
      <trkpt lat="28.205816666666667" lon="-16.483966666666667">
        <ele>848</ele>
        <time>2024-03-30T13:54:37.000Z</time>
      </trkpt>
      <trkpt lat="28.205866666666665" lon="-16.4839">
        <ele>849</ele>
        <time>2024-03-30T13:54:38.000Z</time>
      </trkpt>
      <trkpt lat="28.205916666666667" lon="-16.483833333333333">
        <ele>850</ele>
        <time>2024-03-30T13:54:39.000Z</time>
      </trkpt>
      <trkpt lat="28.20595" lon="-16.483783333333335">
        <ele>852</ele>
        <time>2024-03-30T13:54:40.000Z</time>
      </trkpt>
      <trkpt lat="28.205966666666665" lon="-16.48375">
        <ele>853</ele>
        <time>2024-03-30T13:54:41.000Z</time>
      </trkpt>
      <trkpt lat="28.205983333333332" lon="-16.483716666666666">
        <ele>854</ele>
        <time>2024-03-30T13:54:42.000Z</time>
      </trkpt>
      <trkpt lat="28.206" lon="-16.48368333333333">
        <ele>852</ele>
        <time>2024-03-30T13:54:43.000Z</time>
      </trkpt>
      <trkpt lat="28.206016666666667" lon="-16.483633333333334">
        <ele>850</ele>
        <time>2024-03-30T13:54:44.000Z</time>
      </trkpt>
      <trkpt lat="28.206033333333334" lon="-16.48356666666667">
        <ele>848</ele>
        <time>2024-03-30T13:54:45.000Z</time>
      </trkpt>
      <trkpt lat="28.20605" lon="-16.4835">
        <ele>847</ele>
        <time>2024-03-30T13:54:46.000Z</time>
      </trkpt>
      <trkpt lat="28.20606666666667" lon="-16.483416666666667">
        <ele>848</ele>
        <time>2024-03-30T13:54:47.000Z</time>
      </trkpt>
      <trkpt lat="28.20606666666667" lon="-16.48335">
        <ele>852</ele>
        <time>2024-03-30T13:54:48.000Z</time>
      </trkpt>
      <trkpt lat="28.20606666666667" lon="-16.4833">
        <ele>856</ele>
        <time>2024-03-30T13:54:49.000Z</time>
      </trkpt>
      <trkpt lat="28.20605" lon="-16.483283333333333">
        <ele>857</ele>
        <time>2024-03-30T13:54:50.000Z</time>
      </trkpt>
      <trkpt lat="28.206016666666667" lon="-16.483266666666665">
        <ele>856</ele>
        <time>2024-03-30T13:54:51.000Z</time>
      </trkpt>
      <trkpt lat="28.206" lon="-16.48325">
        <ele>854</ele>
        <time>2024-03-30T13:54:52.000Z</time>
      </trkpt>
      <trkpt lat="28.205983333333332" lon="-16.483183333333333">
        <ele>849</ele>
        <time>2024-03-30T13:54:53.000Z</time>
      </trkpt>
      <trkpt lat="28.206" lon="-16.4831">
        <ele>845</ele>
        <time>2024-03-30T13:54:54.000Z</time>
      </trkpt>
      <trkpt lat="28.206033333333334" lon="-16.483016666666668">
        <ele>844</ele>
        <time>2024-03-30T13:54:55.000Z</time>
      </trkpt>
      <trkpt lat="28.20606666666667" lon="-16.48295">
        <ele>845</ele>
        <time>2024-03-30T13:54:56.000Z</time>
      </trkpt>
      <trkpt lat="28.206083333333332" lon="-16.482916666666668">
        <ele>845</ele>
        <time>2024-03-30T13:54:57.000Z</time>
      </trkpt>
      <trkpt lat="28.20606666666667" lon="-16.482866666666666">
        <ele>845</ele>
        <time>2024-03-30T13:54:58.000Z</time>
      </trkpt>
      <trkpt lat="28.20606666666667" lon="-16.482833333333332">
        <ele>844</ele>
        <time>2024-03-30T13:54:59.000Z</time>
      </trkpt>
      <trkpt lat="28.20606666666667" lon="-16.482783333333334">
        <ele>842</ele>
        <time>2024-03-30T13:55:00.000Z</time>
      </trkpt>
      <trkpt lat="28.2061" lon="-16.4827">
        <ele>837</ele>
        <time>2024-03-30T13:55:01.000Z</time>
      </trkpt>
      <trkpt lat="28.206116666666667" lon="-16.4826">
        <ele>834</ele>
        <time>2024-03-30T13:55:02.000Z</time>
      </trkpt>
      <trkpt lat="28.206133333333334" lon="-16.482516666666665">
        <ele>834</ele>
        <time>2024-03-30T13:55:03.000Z</time>
      </trkpt>
      <trkpt lat="28.20615" lon="-16.48245">
        <ele>834</ele>
        <time>2024-03-30T13:55:04.000Z</time>
      </trkpt>
      <trkpt lat="28.206166666666668" lon="-16.4824">
        <ele>834</ele>
        <time>2024-03-30T13:55:05.000Z</time>
      </trkpt>
      <trkpt lat="28.2062" lon="-16.482366666666667">
        <ele>833</ele>
        <time>2024-03-30T13:55:06.000Z</time>
      </trkpt>
      <trkpt lat="28.206216666666666" lon="-16.4823">
        <ele>832</ele>
        <time>2024-03-30T13:55:07.000Z</time>
      </trkpt>
      <trkpt lat="28.206233333333333" lon="-16.482216666666666">
        <ele>830</ele>
        <time>2024-03-30T13:55:08.000Z</time>
      </trkpt>
      <trkpt lat="28.20625" lon="-16.482116666666666">
        <ele>830</ele>
        <time>2024-03-30T13:55:09.000Z</time>
      </trkpt>
      <trkpt lat="28.20628333333333" lon="-16.482016666666667">
        <ele>831</ele>
        <time>2024-03-30T13:55:10.000Z</time>
      </trkpt>
      <trkpt lat="28.206316666666666" lon="-16.481916666666667">
        <ele>834</ele>
        <time>2024-03-30T13:55:11.000Z</time>
      </trkpt>
      <trkpt lat="28.20635" lon="-16.48185">
        <ele>837</ele>
        <time>2024-03-30T13:55:12.000Z</time>
      </trkpt>
      <trkpt lat="28.206383333333335" lon="-16.481816666666667">
        <ele>838</ele>
        <time>2024-03-30T13:55:13.000Z</time>
      </trkpt>
      <trkpt lat="28.206416666666666" lon="-16.481766666666665">
        <ele>838</ele>
        <time>2024-03-30T13:55:14.000Z</time>
      </trkpt>
      <trkpt lat="28.20645" lon="-16.481716666666667">
        <ele>838</ele>
        <time>2024-03-30T13:55:15.000Z</time>
      </trkpt>
      <trkpt lat="28.206483333333335" lon="-16.481683333333333">
        <ele>839</ele>
        <time>2024-03-30T13:55:16.000Z</time>
      </trkpt>
      <trkpt lat="28.206533333333333" lon="-16.481633333333335">
        <ele>840</ele>
        <time>2024-03-30T13:55:17.000Z</time>
      </trkpt>
      <trkpt lat="28.20655" lon="-16.4816">
        <ele>841</ele>
        <time>2024-03-30T13:55:18.000Z</time>
      </trkpt>
      <trkpt lat="28.206533333333333" lon="-16.481566666666666">
        <ele>841</ele>
        <time>2024-03-30T13:55:19.000Z</time>
      </trkpt>
      <trkpt lat="28.2065" lon="-16.481533333333335">
        <ele>841</ele>
        <time>2024-03-30T13:55:20.000Z</time>
      </trkpt>
      <trkpt lat="28.2064" lon="-16.481516666666668">
        <ele>839</ele>
        <time>2024-03-30T13:55:21.000Z</time>
      </trkpt>
      <trkpt lat="28.20628333333333" lon="-16.481566666666666">
        <ele>838</ele>
        <time>2024-03-30T13:55:22.000Z</time>
      </trkpt>
      <trkpt lat="28.206166666666668" lon="-16.481683333333333">
        <ele>835</ele>
        <time>2024-03-30T13:55:23.000Z</time>
      </trkpt>
      <trkpt lat="28.206116666666667" lon="-16.481866666666665">
        <ele>833</ele>
        <time>2024-03-30T13:55:24.000Z</time>
      </trkpt>
      <trkpt lat="28.206116666666667" lon="-16.482016666666667">
        <ele>832</ele>
        <time>2024-03-30T13:55:25.000Z</time>
      </trkpt>
      <trkpt lat="28.206166666666668" lon="-16.482116666666666">
        <ele>832</ele>
        <time>2024-03-30T13:55:26.000Z</time>
      </trkpt>
      <trkpt lat="28.206216666666666" lon="-16.4822">
        <ele>832</ele>
        <time>2024-03-30T13:55:27.000Z</time>
      </trkpt>
      <trkpt lat="28.20628333333333" lon="-16.482233333333333">
        <ele>831</ele>
        <time>2024-03-30T13:55:28.000Z</time>
      </trkpt>
      <trkpt lat="28.20635" lon="-16.48225">
        <ele>831</ele>
        <time>2024-03-30T13:55:29.000Z</time>
      </trkpt>
      <trkpt lat="28.2064" lon="-16.48225">
        <ele>831</ele>
        <time>2024-03-30T13:55:30.000Z</time>
      </trkpt>
      <trkpt lat="28.206466666666667" lon="-16.482216666666666">
        <ele>830</ele>
        <time>2024-03-30T13:55:31.000Z</time>
      </trkpt>
      <trkpt lat="28.206516666666666" lon="-16.48218333333333">
        <ele>830</ele>
        <time>2024-03-30T13:55:32.000Z</time>
      </trkpt>
      <trkpt lat="28.206566666666667" lon="-16.48215">
        <ele>830</ele>
        <time>2024-03-30T13:55:33.000Z</time>
      </trkpt>
      <trkpt lat="28.206616666666665" lon="-16.4821">
        <ele>831</ele>
        <time>2024-03-30T13:55:34.000Z</time>
      </trkpt>
      <trkpt lat="28.20665" lon="-16.48205">
        <ele>830</ele>
        <time>2024-03-30T13:55:35.000Z</time>
      </trkpt>
      <trkpt lat="28.20665" lon="-16.482">
        <ele>830</ele>
        <time>2024-03-30T13:55:36.000Z</time>
      </trkpt>
      <trkpt lat="28.206616666666665" lon="-16.48195">
        <ele>830</ele>
        <time>2024-03-30T13:55:37.000Z</time>
      </trkpt>
      <trkpt lat="28.2066" lon="-16.481916666666667">
        <ele>830</ele>
        <time>2024-03-30T13:55:38.000Z</time>
      </trkpt>
      <trkpt lat="28.206583333333334" lon="-16.481866666666665">
        <ele>830</ele>
        <time>2024-03-30T13:55:39.000Z</time>
      </trkpt>
      <trkpt lat="28.206583333333334" lon="-16.481816666666667">
        <ele>828</ele>
        <time>2024-03-30T13:55:40.000Z</time>
      </trkpt>
      <trkpt lat="28.2066" lon="-16.48175">
        <ele>826</ele>
        <time>2024-03-30T13:55:41.000Z</time>
      </trkpt>
      <trkpt lat="28.206633333333333" lon="-16.481666666666666">
        <ele>827</ele>
        <time>2024-03-30T13:55:42.000Z</time>
      </trkpt>
      <trkpt lat="28.206666666666667" lon="-16.4816">
        <ele>828</ele>
        <time>2024-03-30T13:55:43.000Z</time>
      </trkpt>
      <trkpt lat="28.206716666666665" lon="-16.48155">
        <ele>829</ele>
        <time>2024-03-30T13:55:44.000Z</time>
      </trkpt>
      <trkpt lat="28.20675" lon="-16.481516666666668">
        <ele>828</ele>
        <time>2024-03-30T13:55:45.000Z</time>
      </trkpt>
      <trkpt lat="28.206783333333334" lon="-16.481483333333333">
        <ele>826</ele>
        <time>2024-03-30T13:55:46.000Z</time>
      </trkpt>
      <trkpt lat="28.206833333333332" lon="-16.481416666666668">
        <ele>824</ele>
        <time>2024-03-30T13:55:47.000Z</time>
      </trkpt>
      <trkpt lat="28.20685" lon="-16.48135">
        <ele>823</ele>
        <time>2024-03-30T13:55:48.000Z</time>
      </trkpt>
      <trkpt lat="28.206883333333334" lon="-16.481266666666667">
        <ele>824</ele>
        <time>2024-03-30T13:55:49.000Z</time>
      </trkpt>
      <trkpt lat="28.206883333333334" lon="-16.4812">
        <ele>824</ele>
        <time>2024-03-30T13:55:50.000Z</time>
      </trkpt>
      <trkpt lat="28.2069" lon="-16.48115">
        <ele>824</ele>
        <time>2024-03-30T13:55:51.000Z</time>
      </trkpt>
      <trkpt lat="28.2069" lon="-16.4811">
        <ele>823</ele>
        <time>2024-03-30T13:55:52.000Z</time>
      </trkpt>
      <trkpt lat="28.206933333333332" lon="-16.481033333333333">
        <ele>822</ele>
        <time>2024-03-30T13:55:53.000Z</time>
      </trkpt>
      <trkpt lat="28.207" lon="-16.48095">
        <ele>822</ele>
        <time>2024-03-30T13:55:54.000Z</time>
      </trkpt>
      <trkpt lat="28.207083333333333" lon="-16.480883333333335">
        <ele>822</ele>
        <time>2024-03-30T13:55:55.000Z</time>
      </trkpt>
      <trkpt lat="28.207166666666666" lon="-16.480816666666666">
        <ele>823</ele>
        <time>2024-03-30T13:55:56.000Z</time>
      </trkpt>
      <trkpt lat="28.2072" lon="-16.48075">
        <ele>823</ele>
        <time>2024-03-30T13:55:57.000Z</time>
      </trkpt>
      <trkpt lat="28.207183333333333" lon="-16.4807">
        <ele>825</ele>
        <time>2024-03-30T13:55:58.000Z</time>
      </trkpt>
      <trkpt lat="28.2072" lon="-16.480666666666668">
        <ele>829</ele>
        <time>2024-03-30T13:55:59.000Z</time>
      </trkpt>
      <trkpt lat="28.207233333333335" lon="-16.480633333333333">
        <ele>832</ele>
        <time>2024-03-30T13:56:00.000Z</time>
      </trkpt>
      <trkpt lat="28.207266666666666" lon="-16.480616666666666">
        <ele>832</ele>
        <time>2024-03-30T13:56:01.000Z</time>
      </trkpt>
      <trkpt lat="28.207283333333333" lon="-16.4806">
        <ele>832</ele>
        <time>2024-03-30T13:56:02.000Z</time>
      </trkpt>
      <trkpt lat="28.2073" lon="-16.48055">
        <ele>830</ele>
        <time>2024-03-30T13:56:03.000Z</time>
      </trkpt>
      <trkpt lat="28.207316666666667" lon="-16.4805">
        <ele>828</ele>
        <time>2024-03-30T13:56:04.000Z</time>
      </trkpt>
      <trkpt lat="28.20735" lon="-16.480433333333334">
        <ele>827</ele>
        <time>2024-03-30T13:56:05.000Z</time>
      </trkpt>
      <trkpt lat="28.2074" lon="-16.480383333333332">
        <ele>827</ele>
        <time>2024-03-30T13:56:06.000Z</time>
      </trkpt>
      <trkpt lat="28.207433333333334" lon="-16.480316666666667">
        <ele>828</ele>
        <time>2024-03-30T13:56:07.000Z</time>
      </trkpt>
      <trkpt lat="28.207466666666665" lon="-16.480266666666665">
        <ele>828</ele>
        <time>2024-03-30T13:56:08.000Z</time>
      </trkpt>
      <trkpt lat="28.207466666666665" lon="-16.4802">
        <ele>828</ele>
        <time>2024-03-30T13:56:09.000Z</time>
      </trkpt>
      <trkpt lat="28.207483333333332" lon="-16.48015">
        <ele>829</ele>
        <time>2024-03-30T13:56:10.000Z</time>
      </trkpt>
      <trkpt lat="28.2075" lon="-16.4801">
        <ele>828</ele>
        <time>2024-03-30T13:56:11.000Z</time>
      </trkpt>
      <trkpt lat="28.207516666666667" lon="-16.48005">
        <ele>828</ele>
        <time>2024-03-30T13:56:12.000Z</time>
      </trkpt>
      <trkpt lat="28.20755" lon="-16.480016666666668">
        <ele>827</ele>
        <time>2024-03-30T13:56:13.000Z</time>
      </trkpt>
      <trkpt lat="28.207583333333332" lon="-16.479966666666666">
        <ele>826</ele>
        <time>2024-03-30T13:56:14.000Z</time>
      </trkpt>
      <trkpt lat="28.207616666666667" lon="-16.479916666666668">
        <ele>825</ele>
        <time>2024-03-30T13:56:15.000Z</time>
      </trkpt>
      <trkpt lat="28.20765" lon="-16.479866666666666">
        <ele>825</ele>
        <time>2024-03-30T13:56:16.000Z</time>
      </trkpt>
      <trkpt lat="28.207683333333332" lon="-16.4798">
        <ele>825</ele>
        <time>2024-03-30T13:56:17.000Z</time>
      </trkpt>
      <trkpt lat="28.207716666666666" lon="-16.47975">
        <ele>825</ele>
        <time>2024-03-30T13:56:18.000Z</time>
      </trkpt>
      <trkpt lat="28.207766666666668" lon="-16.4797">
        <ele>826</ele>
        <time>2024-03-30T13:56:19.000Z</time>
      </trkpt>
      <trkpt lat="28.207816666666666" lon="-16.47965">
        <ele>826</ele>
        <time>2024-03-30T13:56:20.000Z</time>
      </trkpt>
      <trkpt lat="28.207866666666668" lon="-16.4796">
        <ele>826</ele>
        <time>2024-03-30T13:56:21.000Z</time>
      </trkpt>
      <trkpt lat="28.207916666666666" lon="-16.47955">
        <ele>826</ele>
        <time>2024-03-30T13:56:22.000Z</time>
      </trkpt>
      <trkpt lat="28.207966666666668" lon="-16.4795">
        <ele>826</ele>
        <time>2024-03-30T13:56:23.000Z</time>
      </trkpt>
      <trkpt lat="28.208" lon="-16.47945">
        <ele>826</ele>
        <time>2024-03-30T13:56:24.000Z</time>
      </trkpt>
      <trkpt lat="28.208033333333333" lon="-16.4794">
        <ele>826</ele>
        <time>2024-03-30T13:56:25.000Z</time>
      </trkpt>
      <trkpt lat="28.208083333333335" lon="-16.47935">
        <ele>826</ele>
        <time>2024-03-30T13:56:26.000Z</time>
      </trkpt>
      <trkpt lat="28.2081" lon="-16.4793">
        <ele>826</ele>
        <time>2024-03-30T13:56:27.000Z</time>
      </trkpt>
      <trkpt lat="28.20815" lon="-16.47925">
        <ele>826</ele>
        <time>2024-03-30T13:56:28.000Z</time>
      </trkpt>
      <trkpt lat="28.208183333333334" lon="-16.479183333333335">
        <ele>825</ele>
        <time>2024-03-30T13:56:29.000Z</time>
      </trkpt>
      <trkpt lat="28.20825" lon="-16.479116666666666">
        <ele>827</ele>
        <time>2024-03-30T13:56:30.000Z</time>
      </trkpt>
      <trkpt lat="28.2083" lon="-16.479066666666668">
        <ele>829</ele>
        <time>2024-03-30T13:56:31.000Z</time>
      </trkpt>
      <trkpt lat="28.20835" lon="-16.479033333333334">
        <ele>831</ele>
        <time>2024-03-30T13:56:32.000Z</time>
      </trkpt>
      <trkpt lat="28.2084" lon="-16.479">
        <ele>832</ele>
        <time>2024-03-30T13:56:33.000Z</time>
      </trkpt>
      <trkpt lat="28.20845" lon="-16.478983333333332">
        <ele>831</ele>
        <time>2024-03-30T13:56:34.000Z</time>
      </trkpt>
      <trkpt lat="28.2085" lon="-16.47895">
        <ele>829</ele>
        <time>2024-03-30T13:56:35.000Z</time>
      </trkpt>
      <trkpt lat="28.20855" lon="-16.478883333333332">
        <ele>828</ele>
        <time>2024-03-30T13:56:36.000Z</time>
      </trkpt>
      <trkpt lat="28.2086" lon="-16.478833333333334">
        <ele>827</ele>
        <time>2024-03-30T13:56:37.000Z</time>
      </trkpt>
      <trkpt lat="28.20865" lon="-16.478783333333332">
        <ele>826</ele>
        <time>2024-03-30T13:56:38.000Z</time>
      </trkpt>
      <trkpt lat="28.2087" lon="-16.478733333333334">
        <ele>826</ele>
        <time>2024-03-30T13:56:39.000Z</time>
      </trkpt>
      <trkpt lat="28.208733333333335" lon="-16.478683333333333">
        <ele>827</ele>
        <time>2024-03-30T13:56:40.000Z</time>
      </trkpt>
      <trkpt lat="28.208766666666666" lon="-16.478633333333335">
        <ele>827</ele>
        <time>2024-03-30T13:56:41.000Z</time>
      </trkpt>
      <trkpt lat="28.2088" lon="-16.4786">
        <ele>828</ele>
        <time>2024-03-30T13:56:42.000Z</time>
      </trkpt>
      <trkpt lat="28.208833333333335" lon="-16.478566666666666">
        <ele>829</ele>
        <time>2024-03-30T13:56:43.000Z</time>
      </trkpt>
      <trkpt lat="28.20885" lon="-16.478533333333335">
        <ele>828</ele>
        <time>2024-03-30T13:56:44.000Z</time>
      </trkpt>
      <trkpt lat="28.208883333333333" lon="-16.478483333333333">
        <ele>828</ele>
        <time>2024-03-30T13:56:45.000Z</time>
      </trkpt>
      <trkpt lat="28.208916666666667" lon="-16.47845">
        <ele>828</ele>
        <time>2024-03-30T13:56:46.000Z</time>
      </trkpt>
      <trkpt lat="28.208966666666665" lon="-16.4784">
        <ele>828</ele>
        <time>2024-03-30T13:56:47.000Z</time>
      </trkpt>
      <trkpt lat="28.209" lon="-16.478366666666666">
        <ele>828</ele>
        <time>2024-03-30T13:56:48.000Z</time>
      </trkpt>
      <trkpt lat="28.209033333333334" lon="-16.478316666666668">
        <ele>828</ele>
        <time>2024-03-30T13:56:49.000Z</time>
      </trkpt>
      <trkpt lat="28.209083333333332" lon="-16.478283333333334">
        <ele>828</ele>
        <time>2024-03-30T13:56:50.000Z</time>
      </trkpt>
      <trkpt lat="28.209116666666667" lon="-16.478266666666666">
        <ele>828</ele>
        <time>2024-03-30T13:56:51.000Z</time>
      </trkpt>
      <trkpt lat="28.209183333333332" lon="-16.478233333333332">
        <ele>827</ele>
        <time>2024-03-30T13:56:52.000Z</time>
      </trkpt>
      <trkpt lat="28.20925" lon="-16.4782">
        <ele>826</ele>
        <time>2024-03-30T13:56:53.000Z</time>
      </trkpt>
      <trkpt lat="28.209316666666666" lon="-16.47815">
        <ele>826</ele>
        <time>2024-03-30T13:56:54.000Z</time>
      </trkpt>
      <trkpt lat="28.209383333333335" lon="-16.478083333333334">
        <ele>826</ele>
        <time>2024-03-30T13:56:55.000Z</time>
      </trkpt>
      <trkpt lat="28.20945" lon="-16.478033333333332">
        <ele>826</ele>
        <time>2024-03-30T13:56:56.000Z</time>
      </trkpt>
      <trkpt lat="28.2095" lon="-16.478">
        <ele>826</ele>
        <time>2024-03-30T13:56:57.000Z</time>
      </trkpt>
      <trkpt lat="28.20955" lon="-16.47795">
        <ele>826</ele>
        <time>2024-03-30T13:56:58.000Z</time>
      </trkpt>
      <trkpt lat="28.209600000000002" lon="-16.477883333333335">
        <ele>826</ele>
        <time>2024-03-30T13:56:59.000Z</time>
      </trkpt>
      <trkpt lat="28.20965" lon="-16.477816666666666">
        <ele>825</ele>
        <time>2024-03-30T13:57:00.000Z</time>
      </trkpt>
      <trkpt lat="28.2097" lon="-16.477733333333333">
        <ele>825</ele>
        <time>2024-03-30T13:57:01.000Z</time>
      </trkpt>
      <trkpt lat="28.209733333333332" lon="-16.477666666666668">
        <ele>827</ele>
        <time>2024-03-30T13:57:02.000Z</time>
      </trkpt>
      <trkpt lat="28.209783333333334" lon="-16.47758333333333">
        <ele>831</ele>
        <time>2024-03-30T13:57:03.000Z</time>
      </trkpt>
      <trkpt lat="28.209816666666665" lon="-16.477533333333334">
        <ele>836</ele>
        <time>2024-03-30T13:57:04.000Z</time>
      </trkpt>
      <trkpt lat="28.20985" lon="-16.477516666666666">
        <ele>841</ele>
        <time>2024-03-30T13:57:05.000Z</time>
      </trkpt>
      <trkpt lat="28.209866666666667" lon="-16.477533333333334">
        <ele>843</ele>
        <time>2024-03-30T13:57:06.000Z</time>
      </trkpt>
      <trkpt lat="28.209883333333334" lon="-16.47755">
        <ele>842</ele>
        <time>2024-03-30T13:57:07.000Z</time>
      </trkpt>
      <trkpt lat="28.20991666666667" lon="-16.477566666666668">
        <ele>839</ele>
        <time>2024-03-30T13:57:08.000Z</time>
      </trkpt>
      <trkpt lat="28.20995" lon="-16.477566666666668">
        <ele>837</ele>
        <time>2024-03-30T13:57:09.000Z</time>
      </trkpt>
      <trkpt lat="28.21003333333333" lon="-16.477533333333334">
        <ele>834</ele>
        <time>2024-03-30T13:57:10.000Z</time>
      </trkpt>
      <trkpt lat="28.210116666666668" lon="-16.4775">
        <ele>834</ele>
        <time>2024-03-30T13:57:11.000Z</time>
      </trkpt>
      <trkpt lat="28.210183333333333" lon="-16.477483333333332">
        <ele>835</ele>
        <time>2024-03-30T13:57:12.000Z</time>
      </trkpt>
      <trkpt lat="28.210216666666668" lon="-16.47746666666667">
        <ele>836</ele>
        <time>2024-03-30T13:57:13.000Z</time>
      </trkpt>
      <trkpt lat="28.21025" lon="-16.477433333333334">
        <ele>835</ele>
        <time>2024-03-30T13:57:14.000Z</time>
      </trkpt>
      <trkpt lat="28.21025" lon="-16.477383333333332">
        <ele>834</ele>
        <time>2024-03-30T13:57:15.000Z</time>
      </trkpt>
      <trkpt lat="28.210266666666666" lon="-16.477333333333334">
        <ele>833</ele>
        <time>2024-03-30T13:57:16.000Z</time>
      </trkpt>
      <trkpt lat="28.2103" lon="-16.477283333333332">
        <ele>831</ele>
        <time>2024-03-30T13:57:17.000Z</time>
      </trkpt>
      <trkpt lat="28.210316666666667" lon="-16.47725">
        <ele>828</ele>
        <time>2024-03-30T13:57:18.000Z</time>
      </trkpt>
      <trkpt lat="28.21035" lon="-16.477183333333333">
        <ele>825</ele>
        <time>2024-03-30T13:57:19.000Z</time>
      </trkpt>
      <trkpt lat="28.210366666666665" lon="-16.4771">
        <ele>824</ele>
        <time>2024-03-30T13:57:20.000Z</time>
      </trkpt>
      <trkpt lat="28.2104" lon="-16.477016666666668">
        <ele>822</ele>
        <time>2024-03-30T13:57:21.000Z</time>
      </trkpt>
      <trkpt lat="28.210416666666667" lon="-16.476933333333335">
        <ele>823</ele>
        <time>2024-03-30T13:57:22.000Z</time>
      </trkpt>
      <trkpt lat="28.21045" lon="-16.4769">
        <ele>823</ele>
        <time>2024-03-30T13:57:23.000Z</time>
      </trkpt>
      <trkpt lat="28.210466666666665" lon="-16.47685">
        <ele>821</ele>
        <time>2024-03-30T13:57:24.000Z</time>
      </trkpt>
      <trkpt lat="28.2105" lon="-16.476783333333334">
        <ele>819</ele>
        <time>2024-03-30T13:57:25.000Z</time>
      </trkpt>
      <trkpt lat="28.210516666666667" lon="-16.476666666666667">
        <ele>819</ele>
        <time>2024-03-30T13:57:26.000Z</time>
      </trkpt>
      <trkpt lat="28.21055" lon="-16.47655">
        <ele>820</ele>
        <time>2024-03-30T13:57:27.000Z</time>
      </trkpt>
      <trkpt lat="28.210566666666665" lon="-16.4765">
        <ele>823</ele>
        <time>2024-03-30T13:57:28.000Z</time>
      </trkpt>
      <trkpt lat="28.210566666666665" lon="-16.4765">
        <ele>825</ele>
        <time>2024-03-30T13:57:29.000Z</time>
      </trkpt>
      <trkpt lat="28.210583333333332" lon="-16.476533333333332">
        <ele>824</ele>
        <time>2024-03-30T13:57:30.000Z</time>
      </trkpt>
      <trkpt lat="28.2106" lon="-16.4766">
        <ele>820</ele>
        <time>2024-03-30T13:57:31.000Z</time>
      </trkpt>
      <trkpt lat="28.21066666666667" lon="-16.47665">
        <ele>818</ele>
        <time>2024-03-30T13:57:32.000Z</time>
      </trkpt>
      <trkpt lat="28.21075" lon="-16.476683333333334">
        <ele>815</ele>
        <time>2024-03-30T13:57:33.000Z</time>
      </trkpt>
      <trkpt lat="28.21085" lon="-16.476683333333334">
        <ele>815</ele>
        <time>2024-03-30T13:57:34.000Z</time>
      </trkpt>
      <trkpt lat="28.210916666666666" lon="-16.476683333333334">
        <ele>817</ele>
        <time>2024-03-30T13:57:35.000Z</time>
      </trkpt>
      <trkpt lat="28.210983333333335" lon="-16.476683333333334">
        <ele>819</ele>
        <time>2024-03-30T13:57:36.000Z</time>
      </trkpt>
      <trkpt lat="28.211016666666666" lon="-16.4767">
        <ele>819</ele>
        <time>2024-03-30T13:57:37.000Z</time>
      </trkpt>
      <trkpt lat="28.211066666666667" lon="-16.47671666666667">
        <ele>817</ele>
        <time>2024-03-30T13:57:38.000Z</time>
      </trkpt>
      <trkpt lat="28.2111" lon="-16.4767">
        <ele>814</ele>
        <time>2024-03-30T13:57:39.000Z</time>
      </trkpt>
      <trkpt lat="28.211166666666667" lon="-16.47665">
        <ele>812</ele>
        <time>2024-03-30T13:57:40.000Z</time>
      </trkpt>
      <trkpt lat="28.211216666666665" lon="-16.4766">
        <ele>811</ele>
        <time>2024-03-30T13:57:41.000Z</time>
      </trkpt>
      <trkpt lat="28.21125" lon="-16.476533333333332">
        <ele>812</ele>
        <time>2024-03-30T13:57:42.000Z</time>
      </trkpt>
      <trkpt lat="28.211283333333334" lon="-16.476483333333334">
        <ele>812</ele>
        <time>2024-03-30T13:57:43.000Z</time>
      </trkpt>
      <trkpt lat="28.211283333333334" lon="-16.476433333333333">
        <ele>812</ele>
        <time>2024-03-30T13:57:44.000Z</time>
      </trkpt>
      <trkpt lat="28.211283333333334" lon="-16.4764">
        <ele>812</ele>
        <time>2024-03-30T13:57:45.000Z</time>
      </trkpt>
      <trkpt lat="28.211316666666665" lon="-16.47635">
        <ele>809</ele>
        <time>2024-03-30T13:57:46.000Z</time>
      </trkpt>
      <trkpt lat="28.211333333333332" lon="-16.476266666666668">
        <ele>806</ele>
        <time>2024-03-30T13:57:47.000Z</time>
      </trkpt>
      <trkpt lat="28.211366666666667" lon="-16.476166666666668">
        <ele>804</ele>
        <time>2024-03-30T13:57:48.000Z</time>
      </trkpt>
      <trkpt lat="28.2114" lon="-16.476066666666668">
        <ele>805</ele>
        <time>2024-03-30T13:57:49.000Z</time>
      </trkpt>
      <trkpt lat="28.21141666666667" lon="-16.476">
        <ele>807</ele>
        <time>2024-03-30T13:57:50.000Z</time>
      </trkpt>
      <trkpt lat="28.211433333333332" lon="-16.47595">
        <ele>808</ele>
        <time>2024-03-30T13:57:51.000Z</time>
      </trkpt>
      <trkpt lat="28.211433333333332" lon="-16.475916666666667">
        <ele>807</ele>
        <time>2024-03-30T13:57:52.000Z</time>
      </trkpt>
      <trkpt lat="28.21145" lon="-16.47586666666667">
        <ele>804</ele>
        <time>2024-03-30T13:57:53.000Z</time>
      </trkpt>
      <trkpt lat="28.2115" lon="-16.475766666666665">
        <ele>801</ele>
        <time>2024-03-30T13:57:54.000Z</time>
      </trkpt>
      <trkpt lat="28.211566666666666" lon="-16.47565">
        <ele>800</ele>
        <time>2024-03-30T13:57:55.000Z</time>
      </trkpt>
      <trkpt lat="28.21163333333333" lon="-16.475566666666666">
        <ele>804</ele>
        <time>2024-03-30T13:57:56.000Z</time>
      </trkpt>
      <trkpt lat="28.2117" lon="-16.4755">
        <ele>809</ele>
        <time>2024-03-30T13:57:57.000Z</time>
      </trkpt>
      <trkpt lat="28.21175" lon="-16.47545">
        <ele>813</ele>
        <time>2024-03-30T13:57:58.000Z</time>
      </trkpt>
      <trkpt lat="28.211783333333333" lon="-16.475416666666668">
        <ele>815</ele>
        <time>2024-03-30T13:57:59.000Z</time>
      </trkpt>
      <trkpt lat="28.2118" lon="-16.475383333333333">
        <ele>816</ele>
        <time>2024-03-30T13:58:00.000Z</time>
      </trkpt>
      <trkpt lat="28.211816666666667" lon="-16.47533333333333">
        <ele>817</ele>
        <time>2024-03-30T13:58:01.000Z</time>
      </trkpt>
      <trkpt lat="28.211866666666666" lon="-16.475283333333334">
        <ele>818</ele>
        <time>2024-03-30T13:58:02.000Z</time>
      </trkpt>
      <trkpt lat="28.211933333333334" lon="-16.475283333333334">
        <ele>820</ele>
        <time>2024-03-30T13:58:03.000Z</time>
      </trkpt>
      <trkpt lat="28.21205" lon="-16.47535">
        <ele>820</ele>
        <time>2024-03-30T13:58:04.000Z</time>
      </trkpt>
      <trkpt lat="28.212116666666667" lon="-16.475483333333333">
        <ele>818</ele>
        <time>2024-03-30T13:58:05.000Z</time>
      </trkpt>
      <trkpt lat="28.212116666666667" lon="-16.475666666666665">
        <ele>818</ele>
        <time>2024-03-30T13:58:06.000Z</time>
      </trkpt>
      <trkpt lat="28.21205" lon="-16.4758">
        <ele>819</ele>
        <time>2024-03-30T13:58:07.000Z</time>
      </trkpt>
      <trkpt lat="28.21195" lon="-16.4759">
        <ele>819</ele>
        <time>2024-03-30T13:58:08.000Z</time>
      </trkpt>
      <trkpt lat="28.21185" lon="-16.475933333333334">
        <ele>818</ele>
        <time>2024-03-30T13:58:09.000Z</time>
      </trkpt>
      <trkpt lat="28.211766666666666" lon="-16.475916666666667">
        <ele>818</ele>
        <time>2024-03-30T13:58:10.000Z</time>
      </trkpt>
      <trkpt lat="28.211716666666668" lon="-16.47585">
        <ele>819</ele>
        <time>2024-03-30T13:58:11.000Z</time>
      </trkpt>
      <trkpt lat="28.211683333333333" lon="-16.4758">
        <ele>822</ele>
        <time>2024-03-30T13:58:12.000Z</time>
      </trkpt>
      <trkpt lat="28.21165" lon="-16.475733333333334">
        <ele>826</ele>
        <time>2024-03-30T13:58:13.000Z</time>
      </trkpt>
      <trkpt lat="28.21163333333333" lon="-16.475683333333333">
        <ele>829</ele>
        <time>2024-03-30T13:58:14.000Z</time>
      </trkpt>
      <trkpt lat="28.21163333333333" lon="-16.47565">
        <ele>832</ele>
        <time>2024-03-30T13:58:15.000Z</time>
      </trkpt>
      <trkpt lat="28.21165" lon="-16.475616666666667">
        <ele>834</ele>
        <time>2024-03-30T13:58:16.000Z</time>
      </trkpt>
      <trkpt lat="28.211683333333333" lon="-16.4756">
        <ele>836</ele>
        <time>2024-03-30T13:58:17.000Z</time>
      </trkpt>
      <trkpt lat="28.211733333333335" lon="-16.475566666666666">
        <ele>838</ele>
        <time>2024-03-30T13:58:18.000Z</time>
      </trkpt>
      <trkpt lat="28.211783333333333" lon="-16.475583333333333">
        <ele>840</ele>
        <time>2024-03-30T13:58:19.000Z</time>
      </trkpt>
      <trkpt lat="28.211866666666666" lon="-16.475633333333334">
        <ele>840</ele>
        <time>2024-03-30T13:58:20.000Z</time>
      </trkpt>
      <trkpt lat="28.21195" lon="-16.47575">
        <ele>839</ele>
        <time>2024-03-30T13:58:21.000Z</time>
      </trkpt>
      <trkpt lat="28.212016666666667" lon="-16.47586666666667">
        <ele>839</ele>
        <time>2024-03-30T13:58:22.000Z</time>
      </trkpt>
      <trkpt lat="28.21205" lon="-16.476">
        <ele>841</ele>
        <time>2024-03-30T13:58:23.000Z</time>
      </trkpt>
      <trkpt lat="28.212033333333334" lon="-16.476133333333333">
        <ele>843</ele>
        <time>2024-03-30T13:58:24.000Z</time>
      </trkpt>
      <trkpt lat="28.21195" lon="-16.476216666666666">
        <ele>844</ele>
        <time>2024-03-30T13:58:25.000Z</time>
      </trkpt>
      <trkpt lat="28.21185" lon="-16.476266666666668">
        <ele>844</ele>
        <time>2024-03-30T13:58:26.000Z</time>
      </trkpt>
      <trkpt lat="28.211766666666666" lon="-16.476233333333333">
        <ele>844</ele>
        <time>2024-03-30T13:58:27.000Z</time>
      </trkpt>
      <trkpt lat="28.211716666666668" lon="-16.476183333333335">
        <ele>845</ele>
        <time>2024-03-30T13:58:28.000Z</time>
      </trkpt>
      <trkpt lat="28.211716666666668" lon="-16.476116666666666">
        <ele>847</ele>
        <time>2024-03-30T13:58:29.000Z</time>
      </trkpt>
      <trkpt lat="28.21175" lon="-16.47605">
        <ele>850</ele>
        <time>2024-03-30T13:58:30.000Z</time>
      </trkpt>
      <trkpt lat="28.211783333333333" lon="-16.476016666666666">
        <ele>853</ele>
        <time>2024-03-30T13:58:31.000Z</time>
      </trkpt>
      <trkpt lat="28.211816666666667" lon="-16.476">
        <ele>855</ele>
        <time>2024-03-30T13:58:32.000Z</time>
      </trkpt>
      <trkpt lat="28.21185" lon="-16.475966666666668">
        <ele>858</ele>
        <time>2024-03-30T13:58:33.000Z</time>
      </trkpt>
      <trkpt lat="28.211883333333333" lon="-16.47595">
        <ele>861</ele>
        <time>2024-03-30T13:58:34.000Z</time>
      </trkpt>
      <trkpt lat="28.21195" lon="-16.47595">
        <ele>863</ele>
        <time>2024-03-30T13:58:35.000Z</time>
      </trkpt>
      <trkpt lat="28.21205" lon="-16.476033333333334">
        <ele>865</ele>
        <time>2024-03-30T13:58:36.000Z</time>
      </trkpt>
      <trkpt lat="28.2121" lon="-16.47615">
        <ele>864</ele>
        <time>2024-03-30T13:58:37.000Z</time>
      </trkpt>
      <trkpt lat="28.212116666666667" lon="-16.4763">
        <ele>862</ele>
        <time>2024-03-30T13:58:38.000Z</time>
      </trkpt>
      <trkpt lat="28.212066666666665" lon="-16.47645">
        <ele>863</ele>
        <time>2024-03-30T13:58:39.000Z</time>
      </trkpt>
      <trkpt lat="28.211983333333333" lon="-16.476566666666667">
        <ele>866</ele>
        <time>2024-03-30T13:58:40.000Z</time>
      </trkpt>
      <trkpt lat="28.211883333333333" lon="-16.4766">
        <ele>869</ele>
        <time>2024-03-30T13:58:41.000Z</time>
      </trkpt>
      <trkpt lat="28.211816666666667" lon="-16.476583333333334">
        <ele>869</ele>
        <time>2024-03-30T13:58:42.000Z</time>
      </trkpt>
      <trkpt lat="28.2118" lon="-16.4765">
        <ele>870</ele>
        <time>2024-03-30T13:58:43.000Z</time>
      </trkpt>
      <trkpt lat="28.21185" lon="-16.476416666666665">
        <ele>871</ele>
        <time>2024-03-30T13:58:44.000Z</time>
      </trkpt>
      <trkpt lat="28.2119" lon="-16.476383333333334">
        <ele>874</ele>
        <time>2024-03-30T13:58:45.000Z</time>
      </trkpt>
      <trkpt lat="28.21195" lon="-16.47635">
        <ele>878</ele>
        <time>2024-03-30T13:58:46.000Z</time>
      </trkpt>
      <trkpt lat="28.212" lon="-16.476316666666666">
        <ele>882</ele>
        <time>2024-03-30T13:58:47.000Z</time>
      </trkpt>
      <trkpt lat="28.21205" lon="-16.4763">
        <ele>885</ele>
        <time>2024-03-30T13:58:48.000Z</time>
      </trkpt>
      <trkpt lat="28.2121" lon="-16.476316666666666">
        <ele>885</ele>
        <time>2024-03-30T13:58:49.000Z</time>
      </trkpt>
      <trkpt lat="28.21216666666667" lon="-16.476383333333334">
        <ele>882</ele>
        <time>2024-03-30T13:58:50.000Z</time>
      </trkpt>
      <trkpt lat="28.212216666666666" lon="-16.476466666666667">
        <ele>879</ele>
        <time>2024-03-30T13:58:51.000Z</time>
      </trkpt>
      <trkpt lat="28.21225" lon="-16.476583333333334">
        <ele>877</ele>
        <time>2024-03-30T13:58:52.000Z</time>
      </trkpt>
      <trkpt lat="28.21225" lon="-16.47671666666667">
        <ele>876</ele>
        <time>2024-03-30T13:58:53.000Z</time>
      </trkpt>
      <trkpt lat="28.212216666666666" lon="-16.47683333333333">
        <ele>875</ele>
        <time>2024-03-30T13:58:54.000Z</time>
      </trkpt>
      <trkpt lat="28.212133333333334" lon="-16.476933333333335">
        <ele>874</ele>
        <time>2024-03-30T13:58:55.000Z</time>
      </trkpt>
      <trkpt lat="28.212033333333334" lon="-16.477">
        <ele>873</ele>
        <time>2024-03-30T13:58:56.000Z</time>
      </trkpt>
      <trkpt lat="28.211933333333334" lon="-16.477016666666668">
        <ele>874</ele>
        <time>2024-03-30T13:58:57.000Z</time>
      </trkpt>
      <trkpt lat="28.21185" lon="-16.477">
        <ele>875</ele>
        <time>2024-03-30T13:58:58.000Z</time>
      </trkpt>
      <trkpt lat="28.211816666666667" lon="-16.47695">
        <ele>877</ele>
        <time>2024-03-30T13:58:59.000Z</time>
      </trkpt>
      <trkpt lat="28.211783333333333" lon="-16.476883333333333">
        <ele>880</ele>
        <time>2024-03-30T13:59:00.000Z</time>
      </trkpt>
      <trkpt lat="28.2118" lon="-16.47683333333333">
        <ele>882</ele>
        <time>2024-03-30T13:59:01.000Z</time>
      </trkpt>
      <trkpt lat="28.211833333333335" lon="-16.476816666666668">
        <ele>884</ele>
        <time>2024-03-30T13:59:02.000Z</time>
      </trkpt>
      <trkpt lat="28.211866666666666" lon="-16.476816666666668">
        <ele>885</ele>
        <time>2024-03-30T13:59:03.000Z</time>
      </trkpt>
      <trkpt lat="28.2119" lon="-16.47683333333333">
        <ele>883</ele>
        <time>2024-03-30T13:59:04.000Z</time>
      </trkpt>
      <trkpt lat="28.211933333333334" lon="-16.47685">
        <ele>882</ele>
        <time>2024-03-30T13:59:05.000Z</time>
      </trkpt>
      <trkpt lat="28.211983333333333" lon="-16.476866666666666">
        <ele>878</ele>
        <time>2024-03-30T13:59:06.000Z</time>
      </trkpt>
      <trkpt lat="28.212066666666665" lon="-16.47695">
        <ele>875</ele>
        <time>2024-03-30T13:59:07.000Z</time>
      </trkpt>
      <trkpt lat="28.21215" lon="-16.4771">
        <ele>872</ele>
        <time>2024-03-30T13:59:08.000Z</time>
      </trkpt>
      <trkpt lat="28.21216666666667" lon="-16.477266666666665">
        <ele>870</ele>
        <time>2024-03-30T13:59:09.000Z</time>
      </trkpt>
      <trkpt lat="28.212133333333334" lon="-16.477416666666667">
        <ele>871</ele>
        <time>2024-03-30T13:59:10.000Z</time>
      </trkpt>
      <trkpt lat="28.212083333333332" lon="-16.47755">
        <ele>872</ele>
        <time>2024-03-30T13:59:11.000Z</time>
      </trkpt>
      <trkpt lat="28.212" lon="-16.477633333333333">
        <ele>873</ele>
        <time>2024-03-30T13:59:12.000Z</time>
      </trkpt>
      <trkpt lat="28.211883333333333" lon="-16.4777">
        <ele>873</ele>
        <time>2024-03-30T13:59:13.000Z</time>
      </trkpt>
      <trkpt lat="28.211783333333333" lon="-16.477716666666666">
        <ele>874</ele>
        <time>2024-03-30T13:59:14.000Z</time>
      </trkpt>
      <trkpt lat="28.211683333333333" lon="-16.47775">
        <ele>877</ele>
        <time>2024-03-30T13:59:15.000Z</time>
      </trkpt>
      <trkpt lat="28.2116" lon="-16.477783333333335">
        <ele>880</ele>
        <time>2024-03-30T13:59:16.000Z</time>
      </trkpt>
      <trkpt lat="28.211533333333332" lon="-16.477816666666666">
        <ele>883</ele>
        <time>2024-03-30T13:59:17.000Z</time>
      </trkpt>
      <trkpt lat="28.21145" lon="-16.477816666666666">
        <ele>884</ele>
        <time>2024-03-30T13:59:18.000Z</time>
      </trkpt>
      <trkpt lat="28.2114" lon="-16.477783333333335">
        <ele>884</ele>
        <time>2024-03-30T13:59:19.000Z</time>
      </trkpt>
      <trkpt lat="28.211366666666667" lon="-16.47775">
        <ele>884</ele>
        <time>2024-03-30T13:59:20.000Z</time>
      </trkpt>
      <trkpt lat="28.211366666666667" lon="-16.4777">
        <ele>885</ele>
        <time>2024-03-30T13:59:21.000Z</time>
      </trkpt>
      <trkpt lat="28.211383333333334" lon="-16.477666666666668">
        <ele>886</ele>
        <time>2024-03-30T13:59:22.000Z</time>
      </trkpt>
      <trkpt lat="28.21141666666667" lon="-16.477633333333333">
        <ele>886</ele>
        <time>2024-03-30T13:59:23.000Z</time>
      </trkpt>
      <trkpt lat="28.211466666666666" lon="-16.477616666666666">
        <ele>886</ele>
        <time>2024-03-30T13:59:24.000Z</time>
      </trkpt>
      <trkpt lat="28.211516666666668" lon="-16.4776">
        <ele>886</ele>
        <time>2024-03-30T13:59:25.000Z</time>
      </trkpt>
      <trkpt lat="28.21155" lon="-16.47758333333333">
        <ele>886</ele>
        <time>2024-03-30T13:59:26.000Z</time>
      </trkpt>
      <trkpt lat="28.211583333333333" lon="-16.477533333333334">
        <ele>885</ele>
        <time>2024-03-30T13:59:27.000Z</time>
      </trkpt>
      <trkpt lat="28.211616666666668" lon="-16.4775">
        <ele>885</ele>
        <time>2024-03-30T13:59:28.000Z</time>
      </trkpt>
      <trkpt lat="28.21163333333333" lon="-16.47745">
        <ele>885</ele>
        <time>2024-03-30T13:59:29.000Z</time>
      </trkpt>
      <trkpt lat="28.21165" lon="-16.477416666666667">
        <ele>885</ele>
        <time>2024-03-30T13:59:30.000Z</time>
      </trkpt>
      <trkpt lat="28.21165" lon="-16.477383333333332">
        <ele>885</ele>
        <time>2024-03-30T13:59:31.000Z</time>
      </trkpt>
      <trkpt lat="28.21165" lon="-16.47735">
        <ele>884</ele>
        <time>2024-03-30T13:59:32.000Z</time>
      </trkpt>
      <trkpt lat="28.211666666666666" lon="-16.4773">
        <ele>883</ele>
        <time>2024-03-30T13:59:33.000Z</time>
      </trkpt>
      <trkpt lat="28.2117" lon="-16.47725">
        <ele>882</ele>
        <time>2024-03-30T13:59:34.000Z</time>
      </trkpt>
      <trkpt lat="28.211716666666668" lon="-16.4772">
        <ele>881</ele>
        <time>2024-03-30T13:59:35.000Z</time>
      </trkpt>
      <trkpt lat="28.211716666666668" lon="-16.47715">
        <ele>881</ele>
        <time>2024-03-30T13:59:36.000Z</time>
      </trkpt>
      <trkpt lat="28.21175" lon="-16.4771">
        <ele>881</ele>
        <time>2024-03-30T13:59:37.000Z</time>
      </trkpt>
      <trkpt lat="28.211783333333333" lon="-16.477066666666666">
        <ele>880</ele>
        <time>2024-03-30T13:59:38.000Z</time>
      </trkpt>
      <trkpt lat="28.211833333333335" lon="-16.477033333333335">
        <ele>878</ele>
        <time>2024-03-30T13:59:39.000Z</time>
      </trkpt>
      <trkpt lat="28.211866666666666" lon="-16.477">
        <ele>877</ele>
        <time>2024-03-30T13:59:40.000Z</time>
      </trkpt>
      <trkpt lat="28.2119" lon="-16.47695">
        <ele>874</ele>
        <time>2024-03-30T13:59:41.000Z</time>
      </trkpt>
      <trkpt lat="28.211933333333334" lon="-16.4769">
        <ele>872</ele>
        <time>2024-03-30T13:59:42.000Z</time>
      </trkpt>
      <trkpt lat="28.211966666666665" lon="-16.47683333333333">
        <ele>869</ele>
        <time>2024-03-30T13:59:43.000Z</time>
      </trkpt>
      <trkpt lat="28.212016666666667" lon="-16.47675">
        <ele>868</ele>
        <time>2024-03-30T13:59:44.000Z</time>
      </trkpt>
      <trkpt lat="28.212066666666665" lon="-16.476683333333334">
        <ele>869</ele>
        <time>2024-03-30T13:59:45.000Z</time>
      </trkpt>
      <trkpt lat="28.212116666666667" lon="-16.476616666666665">
        <ele>870</ele>
        <time>2024-03-30T13:59:46.000Z</time>
      </trkpt>
      <trkpt lat="28.212133333333334" lon="-16.47655">
        <ele>871</ele>
        <time>2024-03-30T13:59:47.000Z</time>
      </trkpt>
      <trkpt lat="28.21216666666667" lon="-16.476516666666665">
        <ele>872</ele>
        <time>2024-03-30T13:59:48.000Z</time>
      </trkpt>
      <trkpt lat="28.212183333333332" lon="-16.4765">
        <ele>871</ele>
        <time>2024-03-30T13:59:49.000Z</time>
      </trkpt>
      <trkpt lat="28.212216666666666" lon="-16.47645">
        <ele>869</ele>
        <time>2024-03-30T13:59:50.000Z</time>
      </trkpt>
      <trkpt lat="28.212266666666668" lon="-16.476383333333334">
        <ele>867</ele>
        <time>2024-03-30T13:59:51.000Z</time>
      </trkpt>
      <trkpt lat="28.2123" lon="-16.476316666666666">
        <ele>866</ele>
        <time>2024-03-30T13:59:52.000Z</time>
      </trkpt>
      <trkpt lat="28.212333333333333" lon="-16.476233333333333">
        <ele>869</ele>
        <time>2024-03-30T13:59:53.000Z</time>
      </trkpt>
      <trkpt lat="28.212366666666668" lon="-16.476166666666668">
        <ele>872</ele>
        <time>2024-03-30T13:59:54.000Z</time>
      </trkpt>
      <trkpt lat="28.2124" lon="-16.476133333333333">
        <ele>875</ele>
        <time>2024-03-30T13:59:55.000Z</time>
      </trkpt>
      <trkpt lat="28.212433333333333" lon="-16.4761">
        <ele>876</ele>
        <time>2024-03-30T13:59:56.000Z</time>
      </trkpt>
      <trkpt lat="28.212483333333335" lon="-16.47605">
        <ele>875</ele>
        <time>2024-03-30T13:59:57.000Z</time>
      </trkpt>
      <trkpt lat="28.212533333333333" lon="-16.476">
        <ele>875</ele>
        <time>2024-03-30T13:59:58.000Z</time>
      </trkpt>
      <trkpt lat="28.212583333333335" lon="-16.475933333333334">
        <ele>876</ele>
        <time>2024-03-30T13:59:59.000Z</time>
      </trkpt>
      <trkpt lat="28.212616666666666" lon="-16.47586666666667">
        <ele>877</ele>
        <time>2024-03-30T14:00:00.000Z</time>
      </trkpt>
      <trkpt lat="28.212666666666667" lon="-16.4758">
        <ele>878</ele>
        <time>2024-03-30T14:00:01.000Z</time>
      </trkpt>
      <trkpt lat="28.2127" lon="-16.47575">
        <ele>879</ele>
        <time>2024-03-30T14:00:02.000Z</time>
      </trkpt>
      <trkpt lat="28.212733333333333" lon="-16.4757">
        <ele>878</ele>
        <time>2024-03-30T14:00:03.000Z</time>
      </trkpt>
      <trkpt lat="28.212766666666667" lon="-16.47565">
        <ele>877</ele>
        <time>2024-03-30T14:00:04.000Z</time>
      </trkpt>
      <trkpt lat="28.2128" lon="-16.475583333333333">
        <ele>876</ele>
        <time>2024-03-30T14:00:05.000Z</time>
      </trkpt>
      <trkpt lat="28.21285" lon="-16.475516666666667">
        <ele>876</ele>
        <time>2024-03-30T14:00:06.000Z</time>
      </trkpt>
      <trkpt lat="28.2129" lon="-16.47545">
        <ele>876</ele>
        <time>2024-03-30T14:00:07.000Z</time>
      </trkpt>
      <trkpt lat="28.212933333333332" lon="-16.475383333333333">
        <ele>877</ele>
        <time>2024-03-30T14:00:08.000Z</time>
      </trkpt>
      <trkpt lat="28.212966666666667" lon="-16.47533333333333">
        <ele>879</ele>
        <time>2024-03-30T14:00:09.000Z</time>
      </trkpt>
      <trkpt lat="28.213016666666668" lon="-16.475283333333334">
        <ele>880</ele>
        <time>2024-03-30T14:00:10.000Z</time>
      </trkpt>
      <trkpt lat="28.21305" lon="-16.47525">
        <ele>880</ele>
        <time>2024-03-30T14:00:11.000Z</time>
      </trkpt>
      <trkpt lat="28.213083333333334" lon="-16.475216666666668">
        <ele>879</ele>
        <time>2024-03-30T14:00:12.000Z</time>
      </trkpt>
      <trkpt lat="28.21313333333333" lon="-16.475166666666667">
        <ele>877</ele>
        <time>2024-03-30T14:00:13.000Z</time>
      </trkpt>
      <trkpt lat="28.213183333333333" lon="-16.4751">
        <ele>875</ele>
        <time>2024-03-30T14:00:14.000Z</time>
      </trkpt>
      <trkpt lat="28.213233333333335" lon="-16.47505">
        <ele>875</ele>
        <time>2024-03-30T14:00:15.000Z</time>
      </trkpt>
      <trkpt lat="28.213316666666667" lon="-16.475">
        <ele>874</ele>
        <time>2024-03-30T14:00:16.000Z</time>
      </trkpt>
      <trkpt lat="28.213366666666666" lon="-16.474966666666667">
        <ele>874</ele>
        <time>2024-03-30T14:00:17.000Z</time>
      </trkpt>
      <trkpt lat="28.213433333333334" lon="-16.474933333333333">
        <ele>873</ele>
        <time>2024-03-30T14:00:18.000Z</time>
      </trkpt>
      <trkpt lat="28.213466666666665" lon="-16.474883333333334">
        <ele>872</ele>
        <time>2024-03-30T14:00:19.000Z</time>
      </trkpt>
      <trkpt lat="28.213516666666667" lon="-16.474833333333333">
        <ele>870</ele>
        <time>2024-03-30T14:00:20.000Z</time>
      </trkpt>
      <trkpt lat="28.21355" lon="-16.4748">
        <ele>869</ele>
        <time>2024-03-30T14:00:21.000Z</time>
      </trkpt>
      <trkpt lat="28.2136" lon="-16.47475">
        <ele>866</ele>
        <time>2024-03-30T14:00:22.000Z</time>
      </trkpt>
      <trkpt lat="28.21365" lon="-16.4747">
        <ele>864</ele>
        <time>2024-03-30T14:00:23.000Z</time>
      </trkpt>
      <trkpt lat="28.21366666666667" lon="-16.47465">
        <ele>861</ele>
        <time>2024-03-30T14:00:24.000Z</time>
      </trkpt>
      <trkpt lat="28.21365" lon="-16.474566666666668">
        <ele>858</ele>
        <time>2024-03-30T14:00:25.000Z</time>
      </trkpt>
      <trkpt lat="28.213633333333334" lon="-16.474483333333332">
        <ele>856</ele>
        <time>2024-03-30T14:00:26.000Z</time>
      </trkpt>
      <trkpt lat="28.213616666666667" lon="-16.474416666666666">
        <ele>857</ele>
        <time>2024-03-30T14:00:27.000Z</time>
      </trkpt>
      <trkpt lat="28.213633333333334" lon="-16.47436666666667">
        <ele>859</ele>
        <time>2024-03-30T14:00:28.000Z</time>
      </trkpt>
      <trkpt lat="28.21365" lon="-16.474333333333334">
        <ele>859</ele>
        <time>2024-03-30T14:00:29.000Z</time>
      </trkpt>
      <trkpt lat="28.213683333333332" lon="-16.4743">
        <ele>859</ele>
        <time>2024-03-30T14:00:30.000Z</time>
      </trkpt>
      <trkpt lat="28.2137" lon="-16.474266666666665">
        <ele>857</ele>
        <time>2024-03-30T14:00:31.000Z</time>
      </trkpt>
      <trkpt lat="28.213733333333334" lon="-16.4742">
        <ele>855</ele>
        <time>2024-03-30T14:00:32.000Z</time>
      </trkpt>
      <trkpt lat="28.213783333333332" lon="-16.47415">
        <ele>854</ele>
        <time>2024-03-30T14:00:33.000Z</time>
      </trkpt>
      <trkpt lat="28.213816666666666" lon="-16.474083333333333">
        <ele>853</ele>
        <time>2024-03-30T14:00:34.000Z</time>
      </trkpt>
      <trkpt lat="28.21385" lon="-16.47405">
        <ele>853</ele>
        <time>2024-03-30T14:00:35.000Z</time>
      </trkpt>
      <trkpt lat="28.21388333333333" lon="-16.474">
        <ele>853</ele>
        <time>2024-03-30T14:00:36.000Z</time>
      </trkpt>
      <trkpt lat="28.2139" lon="-16.473966666666666">
        <ele>853</ele>
        <time>2024-03-30T14:00:37.000Z</time>
      </trkpt>
      <trkpt lat="28.213933333333333" lon="-16.473933333333335">
        <ele>851</ele>
        <time>2024-03-30T14:00:38.000Z</time>
      </trkpt>
      <trkpt lat="28.21395" lon="-16.473883333333333">
        <ele>848</ele>
        <time>2024-03-30T14:00:39.000Z</time>
      </trkpt>
      <trkpt lat="28.214" lon="-16.473816666666668">
        <ele>847</ele>
        <time>2024-03-30T14:00:40.000Z</time>
      </trkpt>
      <trkpt lat="28.214033333333333" lon="-16.473766666666666">
        <ele>847</ele>
        <time>2024-03-30T14:00:41.000Z</time>
      </trkpt>
      <trkpt lat="28.214066666666668" lon="-16.473716666666668">
        <ele>847</ele>
        <time>2024-03-30T14:00:42.000Z</time>
      </trkpt>
      <trkpt lat="28.2141" lon="-16.473683333333334">
        <ele>848</ele>
        <time>2024-03-30T14:00:43.000Z</time>
      </trkpt>
      <trkpt lat="28.21415" lon="-16.473666666666666">
        <ele>847</ele>
        <time>2024-03-30T14:00:44.000Z</time>
      </trkpt>
      <trkpt lat="28.2142" lon="-16.473633333333332">
        <ele>845</ele>
        <time>2024-03-30T14:00:45.000Z</time>
      </trkpt>
      <trkpt lat="28.214233333333333" lon="-16.473583333333334">
        <ele>842</ele>
        <time>2024-03-30T14:00:46.000Z</time>
      </trkpt>
      <trkpt lat="28.214283333333334" lon="-16.473516666666665">
        <ele>841</ele>
        <time>2024-03-30T14:00:47.000Z</time>
      </trkpt>
      <trkpt lat="28.2143" lon="-16.473466666666667">
        <ele>841</ele>
        <time>2024-03-30T14:00:48.000Z</time>
      </trkpt>
      <trkpt lat="28.214316666666665" lon="-16.473416666666665">
        <ele>841</ele>
        <time>2024-03-30T14:00:49.000Z</time>
      </trkpt>
      <trkpt lat="28.214333333333332" lon="-16.473366666666667">
        <ele>840</ele>
        <time>2024-03-30T14:00:50.000Z</time>
      </trkpt>
      <trkpt lat="28.214333333333332" lon="-16.473316666666665">
        <ele>838</ele>
        <time>2024-03-30T14:00:51.000Z</time>
      </trkpt>
      <trkpt lat="28.214333333333332" lon="-16.473266666666667">
        <ele>836</ele>
        <time>2024-03-30T14:00:52.000Z</time>
      </trkpt>
      <trkpt lat="28.21435" lon="-16.4732">
        <ele>835</ele>
        <time>2024-03-30T14:00:53.000Z</time>
      </trkpt>
      <trkpt lat="28.214366666666667" lon="-16.47315">
        <ele>833</ele>
        <time>2024-03-30T14:00:54.000Z</time>
      </trkpt>
      <trkpt lat="28.214416666666665" lon="-16.4731">
        <ele>832</ele>
        <time>2024-03-30T14:00:55.000Z</time>
      </trkpt>
      <trkpt lat="28.214483333333334" lon="-16.47305">
        <ele>832</ele>
        <time>2024-03-30T14:00:56.000Z</time>
      </trkpt>
      <trkpt lat="28.214533333333332" lon="-16.473016666666666">
        <ele>832</ele>
        <time>2024-03-30T14:00:57.000Z</time>
      </trkpt>
      <trkpt lat="28.21455" lon="-16.47298333333333">
        <ele>831</ele>
        <time>2024-03-30T14:00:58.000Z</time>
      </trkpt>
      <trkpt lat="28.214583333333334" lon="-16.47295">
        <ele>829</ele>
        <time>2024-03-30T14:00:59.000Z</time>
      </trkpt>
      <trkpt lat="28.214616666666668" lon="-16.4729">
        <ele>827</ele>
        <time>2024-03-30T14:01:00.000Z</time>
      </trkpt>
      <trkpt lat="28.21463333333333" lon="-16.472833333333334">
        <ele>825</ele>
        <time>2024-03-30T14:01:01.000Z</time>
      </trkpt>
      <trkpt lat="28.21465" lon="-16.472766666666665">
        <ele>824</ele>
        <time>2024-03-30T14:01:02.000Z</time>
      </trkpt>
      <trkpt lat="28.214666666666666" lon="-16.4727">
        <ele>823</ele>
        <time>2024-03-30T14:01:03.000Z</time>
      </trkpt>
      <trkpt lat="28.214666666666666" lon="-16.472633333333334">
        <ele>822</ele>
        <time>2024-03-30T14:01:04.000Z</time>
      </trkpt>
      <trkpt lat="28.214666666666666" lon="-16.472566666666665">
        <ele>820</ele>
        <time>2024-03-30T14:01:05.000Z</time>
      </trkpt>
      <trkpt lat="28.214683333333333" lon="-16.4725">
        <ele>818</ele>
        <time>2024-03-30T14:01:06.000Z</time>
      </trkpt>
      <trkpt lat="28.214716666666668" lon="-16.47245">
        <ele>817</ele>
        <time>2024-03-30T14:01:07.000Z</time>
      </trkpt>
      <trkpt lat="28.21475" lon="-16.472383333333333">
        <ele>815</ele>
        <time>2024-03-30T14:01:08.000Z</time>
      </trkpt>
      <trkpt lat="28.214783333333333" lon="-16.472316666666668">
        <ele>814</ele>
        <time>2024-03-30T14:01:09.000Z</time>
      </trkpt>
      <trkpt lat="28.214816666666668" lon="-16.47223333333333">
        <ele>813</ele>
        <time>2024-03-30T14:01:10.000Z</time>
      </trkpt>
      <trkpt lat="28.214833333333335" lon="-16.472166666666666">
        <ele>812</ele>
        <time>2024-03-30T14:01:11.000Z</time>
      </trkpt>
      <trkpt lat="28.21485" lon="-16.472083333333334">
        <ele>811</ele>
        <time>2024-03-30T14:01:12.000Z</time>
      </trkpt>
      <trkpt lat="28.214866666666666" lon="-16.472016666666665">
        <ele>810</ele>
        <time>2024-03-30T14:01:13.000Z</time>
      </trkpt>
      <trkpt lat="28.2149" lon="-16.47195">
        <ele>810</ele>
        <time>2024-03-30T14:01:14.000Z</time>
      </trkpt>
      <trkpt lat="28.214933333333335" lon="-16.4719">
        <ele>809</ele>
        <time>2024-03-30T14:01:15.000Z</time>
      </trkpt>
      <trkpt lat="28.214966666666665" lon="-16.471833333333333">
        <ele>808</ele>
        <time>2024-03-30T14:01:16.000Z</time>
      </trkpt>
      <trkpt lat="28.215" lon="-16.4718">
        <ele>807</ele>
        <time>2024-03-30T14:01:17.000Z</time>
      </trkpt>
      <trkpt lat="28.215016666666667" lon="-16.47175">
        <ele>805</ele>
        <time>2024-03-30T14:01:18.000Z</time>
      </trkpt>
      <trkpt lat="28.215033333333334" lon="-16.4717">
        <ele>803</ele>
        <time>2024-03-30T14:01:19.000Z</time>
      </trkpt>
      <trkpt lat="28.21505" lon="-16.47165">
        <ele>799</ele>
        <time>2024-03-30T14:01:20.000Z</time>
      </trkpt>
      <trkpt lat="28.215083333333332" lon="-16.471583333333335">
        <ele>796</ele>
        <time>2024-03-30T14:01:21.000Z</time>
      </trkpt>
      <trkpt lat="28.2151" lon="-16.471516666666666">
        <ele>793</ele>
        <time>2024-03-30T14:01:22.000Z</time>
      </trkpt>
      <trkpt lat="28.21515" lon="-16.47145">
        <ele>791</ele>
        <time>2024-03-30T14:01:23.000Z</time>
      </trkpt>
      <trkpt lat="28.215183333333332" lon="-16.4714">
        <ele>790</ele>
        <time>2024-03-30T14:01:24.000Z</time>
      </trkpt>
      <trkpt lat="28.2152" lon="-16.471333333333334">
        <ele>788</ele>
        <time>2024-03-30T14:01:25.000Z</time>
      </trkpt>
      <trkpt lat="28.2152" lon="-16.471266666666665">
        <ele>786</ele>
        <time>2024-03-30T14:01:26.000Z</time>
      </trkpt>
      <trkpt lat="28.2152" lon="-16.4712">
        <ele>783</ele>
        <time>2024-03-30T14:01:27.000Z</time>
      </trkpt>
      <trkpt lat="28.2152" lon="-16.471133333333334">
        <ele>781</ele>
        <time>2024-03-30T14:01:28.000Z</time>
      </trkpt>
      <trkpt lat="28.2152" lon="-16.471066666666665">
        <ele>778</ele>
        <time>2024-03-30T14:01:29.000Z</time>
      </trkpt>
      <trkpt lat="28.2152" lon="-16.470983333333333">
        <ele>776</ele>
        <time>2024-03-30T14:01:30.000Z</time>
      </trkpt>
      <trkpt lat="28.2152" lon="-16.470916666666668">
        <ele>775</ele>
        <time>2024-03-30T14:01:31.000Z</time>
      </trkpt>
      <trkpt lat="28.215216666666667" lon="-16.47085">
        <ele>775</ele>
        <time>2024-03-30T14:01:32.000Z</time>
      </trkpt>
      <trkpt lat="28.215233333333334" lon="-16.4708">
        <ele>775</ele>
        <time>2024-03-30T14:01:33.000Z</time>
      </trkpt>
      <trkpt lat="28.21526666666667" lon="-16.47075">
        <ele>775</ele>
        <time>2024-03-30T14:01:34.000Z</time>
      </trkpt>
      <trkpt lat="28.215283333333332" lon="-16.4707">
        <ele>774</ele>
        <time>2024-03-30T14:01:35.000Z</time>
      </trkpt>
      <trkpt lat="28.2153" lon="-16.470633333333332">
        <ele>773</ele>
        <time>2024-03-30T14:01:36.000Z</time>
      </trkpt>
      <trkpt lat="28.2153" lon="-16.47055">
        <ele>773</ele>
        <time>2024-03-30T14:01:37.000Z</time>
      </trkpt>
      <trkpt lat="28.215316666666666" lon="-16.470483333333334">
        <ele>775</ele>
        <time>2024-03-30T14:01:38.000Z</time>
      </trkpt>
      <trkpt lat="28.21535" lon="-16.470416666666665">
        <ele>775</ele>
        <time>2024-03-30T14:01:39.000Z</time>
      </trkpt>
      <trkpt lat="28.21538333333333" lon="-16.470383333333334">
        <ele>775</ele>
        <time>2024-03-30T14:01:40.000Z</time>
      </trkpt>
      <trkpt lat="28.215416666666666" lon="-16.47035">
        <ele>774</ele>
        <time>2024-03-30T14:01:41.000Z</time>
      </trkpt>
      <trkpt lat="28.21545" lon="-16.470316666666665">
        <ele>770</ele>
        <time>2024-03-30T14:01:42.000Z</time>
      </trkpt>
      <trkpt lat="28.2155" lon="-16.47025">
        <ele>765</ele>
        <time>2024-03-30T14:01:43.000Z</time>
      </trkpt>
      <trkpt lat="28.21555" lon="-16.470183333333335">
        <ele>761</ele>
        <time>2024-03-30T14:01:44.000Z</time>
      </trkpt>
      <trkpt lat="28.2156" lon="-16.470083333333335">
        <ele>758</ele>
        <time>2024-03-30T14:01:45.000Z</time>
      </trkpt>
      <trkpt lat="28.21565" lon="-16.47">
        <ele>758</ele>
        <time>2024-03-30T14:01:46.000Z</time>
      </trkpt>
      <trkpt lat="28.2157" lon="-16.469933333333334">
        <ele>759</ele>
        <time>2024-03-30T14:01:47.000Z</time>
      </trkpt>
      <trkpt lat="28.21575" lon="-16.469883333333332">
        <ele>759</ele>
        <time>2024-03-30T14:01:48.000Z</time>
      </trkpt>
      <trkpt lat="28.2158" lon="-16.46985">
        <ele>756</ele>
        <time>2024-03-30T14:01:49.000Z</time>
      </trkpt>
      <trkpt lat="28.21585" lon="-16.469783333333332">
        <ele>751</ele>
        <time>2024-03-30T14:01:50.000Z</time>
      </trkpt>
      <trkpt lat="28.215866666666667" lon="-16.469683333333332">
        <ele>746</ele>
        <time>2024-03-30T14:01:51.000Z</time>
      </trkpt>
      <trkpt lat="28.215883333333334" lon="-16.469566666666665">
        <ele>743</ele>
        <time>2024-03-30T14:01:52.000Z</time>
      </trkpt>
      <trkpt lat="28.215883333333334" lon="-16.469483333333333">
        <ele>747</ele>
        <time>2024-03-30T14:01:53.000Z</time>
      </trkpt>
      <trkpt lat="28.215883333333334" lon="-16.469433333333335">
        <ele>753</ele>
        <time>2024-03-30T14:01:54.000Z</time>
      </trkpt>
      <trkpt lat="28.215883333333334" lon="-16.469416666666667">
        <ele>757</ele>
        <time>2024-03-30T14:01:55.000Z</time>
      </trkpt>
      <trkpt lat="28.215883333333334" lon="-16.4694">
        <ele>755</ele>
        <time>2024-03-30T14:01:56.000Z</time>
      </trkpt>
      <trkpt lat="28.2159" lon="-16.469366666666666">
        <ele>750</ele>
        <time>2024-03-30T14:01:57.000Z</time>
      </trkpt>
      <trkpt lat="28.215933333333332" lon="-16.469283333333333">
        <ele>742</ele>
        <time>2024-03-30T14:01:58.000Z</time>
      </trkpt>
      <trkpt lat="28.21595" lon="-16.469183333333334">
        <ele>739</ele>
        <time>2024-03-30T14:01:59.000Z</time>
      </trkpt>
      <trkpt lat="28.215966666666667" lon="-16.4691">
        <ele>738</ele>
        <time>2024-03-30T14:02:00.000Z</time>
      </trkpt>
      <trkpt lat="28.215966666666667" lon="-16.469033333333332">
        <ele>739</ele>
        <time>2024-03-30T14:02:01.000Z</time>
      </trkpt>
      <trkpt lat="28.215966666666667" lon="-16.468983333333334">
        <ele>738</ele>
        <time>2024-03-30T14:02:02.000Z</time>
      </trkpt>
      <trkpt lat="28.215966666666667" lon="-16.468933333333332">
        <ele>736</ele>
        <time>2024-03-30T14:02:03.000Z</time>
      </trkpt>
      <trkpt lat="28.215983333333334" lon="-16.4689">
        <ele>733</ele>
        <time>2024-03-30T14:02:04.000Z</time>
      </trkpt>
      <trkpt lat="28.216" lon="-16.468833333333333">
        <ele>730</ele>
        <time>2024-03-30T14:02:05.000Z</time>
      </trkpt>
      <trkpt lat="28.21601666666667" lon="-16.468766666666667">
        <ele>727</ele>
        <time>2024-03-30T14:02:06.000Z</time>
      </trkpt>
      <trkpt lat="28.21605" lon="-16.468666666666667">
        <ele>725</ele>
        <time>2024-03-30T14:02:07.000Z</time>
      </trkpt>
      <trkpt lat="28.216066666666666" lon="-16.468566666666668">
        <ele>725</ele>
        <time>2024-03-30T14:02:08.000Z</time>
      </trkpt>
      <trkpt lat="28.216083333333334" lon="-16.4685">
        <ele>725</ele>
        <time>2024-03-30T14:02:09.000Z</time>
      </trkpt>
      <trkpt lat="28.216066666666666" lon="-16.468433333333333">
        <ele>725</ele>
        <time>2024-03-30T14:02:10.000Z</time>
      </trkpt>
      <trkpt lat="28.216066666666666" lon="-16.468383333333332">
        <ele>724</ele>
        <time>2024-03-30T14:02:11.000Z</time>
      </trkpt>
      <trkpt lat="28.21605" lon="-16.4683">
        <ele>723</ele>
        <time>2024-03-30T14:02:12.000Z</time>
      </trkpt>
      <trkpt lat="28.21605" lon="-16.468216666666667">
        <ele>721</ele>
        <time>2024-03-30T14:02:13.000Z</time>
      </trkpt>
      <trkpt lat="28.21605" lon="-16.468133333333334">
        <ele>720</ele>
        <time>2024-03-30T14:02:14.000Z</time>
      </trkpt>
      <trkpt lat="28.216066666666666" lon="-16.46805">
        <ele>719</ele>
        <time>2024-03-30T14:02:15.000Z</time>
      </trkpt>
      <trkpt lat="28.216083333333334" lon="-16.467966666666666">
        <ele>719</ele>
        <time>2024-03-30T14:02:16.000Z</time>
      </trkpt>
      <trkpt lat="28.216116666666668" lon="-16.4679">
        <ele>719</ele>
        <time>2024-03-30T14:02:17.000Z</time>
      </trkpt>
      <trkpt lat="28.216166666666666" lon="-16.467833333333335">
        <ele>721</ele>
        <time>2024-03-30T14:02:18.000Z</time>
      </trkpt>
      <trkpt lat="28.216233333333335" lon="-16.4678">
        <ele>723</ele>
        <time>2024-03-30T14:02:19.000Z</time>
      </trkpt>
      <trkpt lat="28.216266666666666" lon="-16.467766666666666">
        <ele>725</ele>
        <time>2024-03-30T14:02:20.000Z</time>
      </trkpt>
      <trkpt lat="28.216283333333333" lon="-16.46775">
        <ele>726</ele>
        <time>2024-03-30T14:02:21.000Z</time>
      </trkpt>
      <trkpt lat="28.2163" lon="-16.467716666666668">
        <ele>727</ele>
        <time>2024-03-30T14:02:22.000Z</time>
      </trkpt>
      <trkpt lat="28.21635" lon="-16.4677">
        <ele>728</ele>
        <time>2024-03-30T14:02:23.000Z</time>
      </trkpt>
      <trkpt lat="28.216416666666667" lon="-16.4677">
        <ele>728</ele>
        <time>2024-03-30T14:02:24.000Z</time>
      </trkpt>
      <trkpt lat="28.216466666666665" lon="-16.467666666666666">
        <ele>728</ele>
        <time>2024-03-30T14:02:25.000Z</time>
      </trkpt>
      <trkpt lat="28.216516666666667" lon="-16.467633333333332">
        <ele>729</ele>
        <time>2024-03-30T14:02:26.000Z</time>
      </trkpt>
      <trkpt lat="28.216516666666667" lon="-16.467583333333334">
        <ele>731</ele>
        <time>2024-03-30T14:02:27.000Z</time>
      </trkpt>
      <trkpt lat="28.2165" lon="-16.46755">
        <ele>733</ele>
        <time>2024-03-30T14:02:28.000Z</time>
      </trkpt>
      <trkpt lat="28.216466666666665" lon="-16.467533333333332">
        <ele>736</ele>
        <time>2024-03-30T14:02:29.000Z</time>
      </trkpt>
      <trkpt lat="28.21645" lon="-16.4675">
        <ele>739</ele>
        <time>2024-03-30T14:02:30.000Z</time>
      </trkpt>
      <trkpt lat="28.21645" lon="-16.467483333333334">
        <ele>740</ele>
        <time>2024-03-30T14:02:31.000Z</time>
      </trkpt>
      <trkpt lat="28.216483333333333" lon="-16.467466666666667">
        <ele>740</ele>
        <time>2024-03-30T14:02:32.000Z</time>
      </trkpt>
      <trkpt lat="28.21655" lon="-16.467466666666667">
        <ele>739</ele>
        <time>2024-03-30T14:02:33.000Z</time>
      </trkpt>
      <trkpt lat="28.216616666666667" lon="-16.46745">
        <ele>738</ele>
        <time>2024-03-30T14:02:34.000Z</time>
      </trkpt>
      <trkpt lat="28.2167" lon="-16.467466666666667">
        <ele>738</ele>
        <time>2024-03-30T14:02:35.000Z</time>
      </trkpt>
      <trkpt lat="28.216783333333332" lon="-16.46745">
        <ele>738</ele>
        <time>2024-03-30T14:02:36.000Z</time>
      </trkpt>
      <trkpt lat="28.216833333333334" lon="-16.467416666666665">
        <ele>738</ele>
        <time>2024-03-30T14:02:37.000Z</time>
      </trkpt>
      <trkpt lat="28.21685" lon="-16.467383333333334">
        <ele>738</ele>
        <time>2024-03-30T14:02:38.000Z</time>
      </trkpt>
      <trkpt lat="28.216866666666668" lon="-16.467333333333332">
        <ele>737</ele>
        <time>2024-03-30T14:02:39.000Z</time>
      </trkpt>
      <trkpt lat="28.216866666666668" lon="-16.467283333333334">
        <ele>736</ele>
        <time>2024-03-30T14:02:40.000Z</time>
      </trkpt>
      <trkpt lat="28.216866666666668" lon="-16.467233333333333">
        <ele>734</ele>
        <time>2024-03-30T14:02:41.000Z</time>
      </trkpt>
      <trkpt lat="28.21688333333333" lon="-16.467166666666667">
        <ele>733</ele>
        <time>2024-03-30T14:02:42.000Z</time>
      </trkpt>
      <trkpt lat="28.2169" lon="-16.4671">
        <ele>731</ele>
        <time>2024-03-30T14:02:43.000Z</time>
      </trkpt>
      <trkpt lat="28.216916666666666" lon="-16.467033333333333">
        <ele>729</ele>
        <time>2024-03-30T14:02:44.000Z</time>
      </trkpt>
      <trkpt lat="28.216916666666666" lon="-16.46695">
        <ele>728</ele>
        <time>2024-03-30T14:02:45.000Z</time>
      </trkpt>
      <trkpt lat="28.216916666666666" lon="-16.46688333333333">
        <ele>728</ele>
        <time>2024-03-30T14:02:46.000Z</time>
      </trkpt>
      <trkpt lat="28.216933333333333" lon="-16.466833333333334">
        <ele>728</ele>
        <time>2024-03-30T14:02:47.000Z</time>
      </trkpt>
      <trkpt lat="28.21695" lon="-16.466783333333332">
        <ele>727</ele>
        <time>2024-03-30T14:02:48.000Z</time>
      </trkpt>
      <trkpt lat="28.21695" lon="-16.466716666666667">
        <ele>725</ele>
        <time>2024-03-30T14:02:49.000Z</time>
      </trkpt>
      <trkpt lat="28.21695" lon="-16.46665">
        <ele>723</ele>
        <time>2024-03-30T14:02:50.000Z</time>
      </trkpt>
      <trkpt lat="28.216966666666668" lon="-16.466583333333332">
        <ele>722</ele>
        <time>2024-03-30T14:02:51.000Z</time>
      </trkpt>
      <trkpt lat="28.216983333333335" lon="-16.466516666666667">
        <ele>721</ele>
        <time>2024-03-30T14:02:52.000Z</time>
      </trkpt>
      <trkpt lat="28.217" lon="-16.46645">
        <ele>721</ele>
        <time>2024-03-30T14:02:53.000Z</time>
      </trkpt>
      <trkpt lat="28.217016666666666" lon="-16.4664">
        <ele>721</ele>
        <time>2024-03-30T14:02:54.000Z</time>
      </trkpt>
      <trkpt lat="28.217033333333333" lon="-16.46635">
        <ele>721</ele>
        <time>2024-03-30T14:02:55.000Z</time>
      </trkpt>
      <trkpt lat="28.21705" lon="-16.4663">
        <ele>721</ele>
        <time>2024-03-30T14:02:56.000Z</time>
      </trkpt>
      <trkpt lat="28.217083333333335" lon="-16.46625">
        <ele>720</ele>
        <time>2024-03-30T14:02:57.000Z</time>
      </trkpt>
      <trkpt lat="28.217116666666666" lon="-16.4662">
        <ele>719</ele>
        <time>2024-03-30T14:02:58.000Z</time>
      </trkpt>
      <trkpt lat="28.21715" lon="-16.46613333333333">
        <ele>719</ele>
        <time>2024-03-30T14:02:59.000Z</time>
      </trkpt>
      <trkpt lat="28.217166666666667" lon="-16.466066666666666">
        <ele>719</ele>
        <time>2024-03-30T14:03:00.000Z</time>
      </trkpt>
      <trkpt lat="28.217166666666667" lon="-16.46601666666667">
        <ele>719</ele>
        <time>2024-03-30T14:03:01.000Z</time>
      </trkpt>
      <trkpt lat="28.217183333333335" lon="-16.465966666666667">
        <ele>718</ele>
        <time>2024-03-30T14:03:02.000Z</time>
      </trkpt>
      <trkpt lat="28.2172" lon="-16.465916666666665">
        <ele>716</ele>
        <time>2024-03-30T14:03:03.000Z</time>
      </trkpt>
      <trkpt lat="28.217233333333333" lon="-16.465866666666667">
        <ele>712</ele>
        <time>2024-03-30T14:03:04.000Z</time>
      </trkpt>
      <trkpt lat="28.217233333333333" lon="-16.4658">
        <ele>709</ele>
        <time>2024-03-30T14:03:05.000Z</time>
      </trkpt>
      <trkpt lat="28.217233333333333" lon="-16.465716666666665">
        <ele>707</ele>
        <time>2024-03-30T14:03:06.000Z</time>
      </trkpt>
      <trkpt lat="28.217233333333333" lon="-16.46565">
        <ele>707</ele>
        <time>2024-03-30T14:03:07.000Z</time>
      </trkpt>
      <trkpt lat="28.217233333333333" lon="-16.465583333333335">
        <ele>706</ele>
        <time>2024-03-30T14:03:08.000Z</time>
      </trkpt>
      <trkpt lat="28.217233333333333" lon="-16.465533333333333">
        <ele>705</ele>
        <time>2024-03-30T14:03:09.000Z</time>
      </trkpt>
      <trkpt lat="28.217233333333333" lon="-16.465466666666668">
        <ele>703</ele>
        <time>2024-03-30T14:03:10.000Z</time>
      </trkpt>
      <trkpt lat="28.217233333333333" lon="-16.4654">
        <ele>701</ele>
        <time>2024-03-30T14:03:11.000Z</time>
      </trkpt>
      <trkpt lat="28.217216666666666" lon="-16.465316666666666">
        <ele>699</ele>
        <time>2024-03-30T14:03:12.000Z</time>
      </trkpt>
      <trkpt lat="28.2172" lon="-16.465233333333334">
        <ele>698</ele>
        <time>2024-03-30T14:03:13.000Z</time>
      </trkpt>
      <trkpt lat="28.2172" lon="-16.465166666666665">
        <ele>698</ele>
        <time>2024-03-30T14:03:14.000Z</time>
      </trkpt>
      <trkpt lat="28.2172" lon="-16.4651">
        <ele>698</ele>
        <time>2024-03-30T14:03:15.000Z</time>
      </trkpt>
      <trkpt lat="28.2172" lon="-16.465033333333334">
        <ele>698</ele>
        <time>2024-03-30T14:03:16.000Z</time>
      </trkpt>
      <trkpt lat="28.217216666666666" lon="-16.464966666666665">
        <ele>697</ele>
        <time>2024-03-30T14:03:17.000Z</time>
      </trkpt>
      <trkpt lat="28.217216666666666" lon="-16.464916666666667">
        <ele>696</ele>
        <time>2024-03-30T14:03:18.000Z</time>
      </trkpt>
      <trkpt lat="28.217233333333333" lon="-16.46485">
        <ele>694</ele>
        <time>2024-03-30T14:03:19.000Z</time>
      </trkpt>
      <trkpt lat="28.21725" lon="-16.464783333333333">
        <ele>693</ele>
        <time>2024-03-30T14:03:20.000Z</time>
      </trkpt>
      <trkpt lat="28.217266666666667" lon="-16.464733333333335">
        <ele>693</ele>
        <time>2024-03-30T14:03:21.000Z</time>
      </trkpt>
      <trkpt lat="28.2173" lon="-16.464666666666666">
        <ele>692</ele>
        <time>2024-03-30T14:03:22.000Z</time>
      </trkpt>
      <trkpt lat="28.217316666666665" lon="-16.46463333333333">
        <ele>692</ele>
        <time>2024-03-30T14:03:23.000Z</time>
      </trkpt>
      <trkpt lat="28.21735" lon="-16.464583333333334">
        <ele>691</ele>
        <time>2024-03-30T14:03:24.000Z</time>
      </trkpt>
      <trkpt lat="28.217383333333334" lon="-16.46451666666667">
        <ele>689</ele>
        <time>2024-03-30T14:03:25.000Z</time>
      </trkpt>
      <trkpt lat="28.2174" lon="-16.46445">
        <ele>688</ele>
        <time>2024-03-30T14:03:26.000Z</time>
      </trkpt>
      <trkpt lat="28.217416666666665" lon="-16.46435">
        <ele>688</ele>
        <time>2024-03-30T14:03:27.000Z</time>
      </trkpt>
      <trkpt lat="28.21745" lon="-16.464283333333334">
        <ele>690</ele>
        <time>2024-03-30T14:03:28.000Z</time>
      </trkpt>
      <trkpt lat="28.217483333333334" lon="-16.464216666666665">
        <ele>692</ele>
        <time>2024-03-30T14:03:29.000Z</time>
      </trkpt>
      <trkpt lat="28.21751666666667" lon="-16.464166666666667">
        <ele>693</ele>
        <time>2024-03-30T14:03:30.000Z</time>
      </trkpt>
      <trkpt lat="28.217533333333332" lon="-16.464116666666666">
        <ele>691</ele>
        <time>2024-03-30T14:03:31.000Z</time>
      </trkpt>
      <trkpt lat="28.21755" lon="-16.464066666666668">
        <ele>688</ele>
        <time>2024-03-30T14:03:32.000Z</time>
      </trkpt>
      <trkpt lat="28.217566666666666" lon="-16.464">
        <ele>684</ele>
        <time>2024-03-30T14:03:33.000Z</time>
      </trkpt>
      <trkpt lat="28.2176" lon="-16.4639">
        <ele>682</ele>
        <time>2024-03-30T14:03:34.000Z</time>
      </trkpt>
      <trkpt lat="28.217633333333332" lon="-16.463816666666666">
        <ele>682</ele>
        <time>2024-03-30T14:03:35.000Z</time>
      </trkpt>
      <trkpt lat="28.217666666666666" lon="-16.46375">
        <ele>684</ele>
        <time>2024-03-30T14:03:36.000Z</time>
      </trkpt>
      <trkpt lat="28.2177" lon="-16.4637">
        <ele>684</ele>
        <time>2024-03-30T14:03:37.000Z</time>
      </trkpt>
      <trkpt lat="28.217733333333335" lon="-16.46365">
        <ele>683</ele>
        <time>2024-03-30T14:03:38.000Z</time>
      </trkpt>
      <trkpt lat="28.217783333333333" lon="-16.463583333333332">
        <ele>681</ele>
        <time>2024-03-30T14:03:39.000Z</time>
      </trkpt>
      <trkpt lat="28.217816666666668" lon="-16.463516666666667">
        <ele>678</ele>
        <time>2024-03-30T14:03:40.000Z</time>
      </trkpt>
      <trkpt lat="28.21785" lon="-16.463433333333334">
        <ele>676</ele>
        <time>2024-03-30T14:03:41.000Z</time>
      </trkpt>
      <trkpt lat="28.217883333333333" lon="-16.46335">
        <ele>676</ele>
        <time>2024-03-30T14:03:42.000Z</time>
      </trkpt>
      <trkpt lat="28.2179" lon="-16.463266666666666">
        <ele>676</ele>
        <time>2024-03-30T14:03:43.000Z</time>
      </trkpt>
      <trkpt lat="28.217916666666667" lon="-16.4632">
        <ele>676</ele>
        <time>2024-03-30T14:03:44.000Z</time>
      </trkpt>
      <trkpt lat="28.21795" lon="-16.46313333333333">
        <ele>676</ele>
        <time>2024-03-30T14:03:45.000Z</time>
      </trkpt>
      <trkpt lat="28.217966666666666" lon="-16.463066666666666">
        <ele>674</ele>
        <time>2024-03-30T14:03:46.000Z</time>
      </trkpt>
      <trkpt lat="28.217983333333333" lon="-16.462983333333334">
        <ele>672</ele>
        <time>2024-03-30T14:03:47.000Z</time>
      </trkpt>
      <trkpt lat="28.218016666666667" lon="-16.4629">
        <ele>671</ele>
        <time>2024-03-30T14:03:48.000Z</time>
      </trkpt>
      <trkpt lat="28.21805" lon="-16.462816666666665">
        <ele>671</ele>
        <time>2024-03-30T14:03:49.000Z</time>
      </trkpt>
      <trkpt lat="28.218083333333333" lon="-16.46275">
        <ele>671</ele>
        <time>2024-03-30T14:03:50.000Z</time>
      </trkpt>
      <trkpt lat="28.218116666666667" lon="-16.4627">
        <ele>670</ele>
        <time>2024-03-30T14:03:51.000Z</time>
      </trkpt>
      <trkpt lat="28.218116666666667" lon="-16.46265">
        <ele>668</ele>
        <time>2024-03-30T14:03:52.000Z</time>
      </trkpt>
      <trkpt lat="28.218133333333334" lon="-16.462583333333335">
        <ele>665</ele>
        <time>2024-03-30T14:03:53.000Z</time>
      </trkpt>
      <trkpt lat="28.218166666666665" lon="-16.462516666666666">
        <ele>662</ele>
        <time>2024-03-30T14:03:54.000Z</time>
      </trkpt>
      <trkpt lat="28.2182" lon="-16.462433333333333">
        <ele>661</ele>
        <time>2024-03-30T14:03:55.000Z</time>
      </trkpt>
      <trkpt lat="28.21826666666667" lon="-16.46235">
        <ele>661</ele>
        <time>2024-03-30T14:03:56.000Z</time>
      </trkpt>
      <trkpt lat="28.218316666666666" lon="-16.462283333333332">
        <ele>662</ele>
        <time>2024-03-30T14:03:57.000Z</time>
      </trkpt>
      <trkpt lat="28.218333333333334" lon="-16.462216666666666">
        <ele>662</ele>
        <time>2024-03-30T14:03:58.000Z</time>
      </trkpt>
      <trkpt lat="28.21835" lon="-16.46216666666667">
        <ele>661</ele>
        <time>2024-03-30T14:03:59.000Z</time>
      </trkpt>
      <trkpt lat="28.21835" lon="-16.462116666666667">
        <ele>658</ele>
        <time>2024-03-30T14:04:00.000Z</time>
      </trkpt>
      <trkpt lat="28.218383333333332" lon="-16.462033333333334">
        <ele>654</ele>
        <time>2024-03-30T14:04:01.000Z</time>
      </trkpt>
      <trkpt lat="28.218416666666666" lon="-16.46195">
        <ele>651</ele>
        <time>2024-03-30T14:04:02.000Z</time>
      </trkpt>
      <trkpt lat="28.21845" lon="-16.46185">
        <ele>649</ele>
        <time>2024-03-30T14:04:03.000Z</time>
      </trkpt>
      <trkpt lat="28.21845" lon="-16.461766666666666">
        <ele>649</ele>
        <time>2024-03-30T14:04:04.000Z</time>
      </trkpt>
      <trkpt lat="28.21845" lon="-16.4617">
        <ele>649</ele>
        <time>2024-03-30T14:04:05.000Z</time>
      </trkpt>
      <trkpt lat="28.21845" lon="-16.46163333333333">
        <ele>647</ele>
        <time>2024-03-30T14:04:06.000Z</time>
      </trkpt>
      <trkpt lat="28.21845" lon="-16.461566666666666">
        <ele>646</ele>
        <time>2024-03-30T14:04:07.000Z</time>
      </trkpt>
      <trkpt lat="28.218466666666668" lon="-16.4615">
        <ele>645</ele>
        <time>2024-03-30T14:04:08.000Z</time>
      </trkpt>
      <trkpt lat="28.2185" lon="-16.461433333333332">
        <ele>645</ele>
        <time>2024-03-30T14:04:09.000Z</time>
      </trkpt>
      <trkpt lat="28.218533333333333" lon="-16.46135">
        <ele>644</ele>
        <time>2024-03-30T14:04:10.000Z</time>
      </trkpt>
      <trkpt lat="28.218566666666668" lon="-16.461283333333334">
        <ele>643</ele>
        <time>2024-03-30T14:04:11.000Z</time>
      </trkpt>
      <trkpt lat="28.218583333333335" lon="-16.461216666666665">
        <ele>641</ele>
        <time>2024-03-30T14:04:12.000Z</time>
      </trkpt>
      <trkpt lat="28.218616666666666" lon="-16.46115">
        <ele>638</ele>
        <time>2024-03-30T14:04:13.000Z</time>
      </trkpt>
      <trkpt lat="28.21865" lon="-16.461066666666667">
        <ele>634</ele>
        <time>2024-03-30T14:04:14.000Z</time>
      </trkpt>
      <trkpt lat="28.218666666666667" lon="-16.460983333333335">
        <ele>632</ele>
        <time>2024-03-30T14:04:15.000Z</time>
      </trkpt>
      <trkpt lat="28.218683333333335" lon="-16.4609">
        <ele>630</ele>
        <time>2024-03-30T14:04:16.000Z</time>
      </trkpt>
      <trkpt lat="28.218683333333335" lon="-16.460816666666666">
        <ele>629</ele>
        <time>2024-03-30T14:04:17.000Z</time>
      </trkpt>
      <trkpt lat="28.218666666666667" lon="-16.46075">
        <ele>627</ele>
        <time>2024-03-30T14:04:18.000Z</time>
      </trkpt>
      <trkpt lat="28.218633333333333" lon="-16.46066666666667">
        <ele>626</ele>
        <time>2024-03-30T14:04:19.000Z</time>
      </trkpt>
      <trkpt lat="28.2186" lon="-16.4606">
        <ele>625</ele>
        <time>2024-03-30T14:04:20.000Z</time>
      </trkpt>
      <trkpt lat="28.218583333333335" lon="-16.460533333333334">
        <ele>624</ele>
        <time>2024-03-30T14:04:21.000Z</time>
      </trkpt>
      <trkpt lat="28.218566666666668" lon="-16.46045">
        <ele>624</ele>
        <time>2024-03-30T14:04:22.000Z</time>
      </trkpt>
      <trkpt lat="28.218566666666668" lon="-16.460366666666665">
        <ele>622</ele>
        <time>2024-03-30T14:04:23.000Z</time>
      </trkpt>
      <trkpt lat="28.218566666666668" lon="-16.4603">
        <ele>620</ele>
        <time>2024-03-30T14:04:24.000Z</time>
      </trkpt>
      <trkpt lat="28.218583333333335" lon="-16.460233333333335">
        <ele>618</ele>
        <time>2024-03-30T14:04:25.000Z</time>
      </trkpt>
      <trkpt lat="28.2186" lon="-16.46015">
        <ele>616</ele>
        <time>2024-03-30T14:04:26.000Z</time>
      </trkpt>
      <trkpt lat="28.218583333333335" lon="-16.460083333333333">
        <ele>615</ele>
        <time>2024-03-30T14:04:27.000Z</time>
      </trkpt>
      <trkpt lat="28.218583333333335" lon="-16.46">
        <ele>612</ele>
        <time>2024-03-30T14:04:28.000Z</time>
      </trkpt>
      <trkpt lat="28.218583333333335" lon="-16.45991666666667">
        <ele>611</ele>
        <time>2024-03-30T14:04:29.000Z</time>
      </trkpt>
      <trkpt lat="28.218583333333335" lon="-16.459833333333332">
        <ele>610</ele>
        <time>2024-03-30T14:04:30.000Z</time>
      </trkpt>
      <trkpt lat="28.218566666666668" lon="-16.459766666666667">
        <ele>610</ele>
        <time>2024-03-30T14:04:31.000Z</time>
      </trkpt>
      <trkpt lat="28.21855" lon="-16.4597">
        <ele>611</ele>
        <time>2024-03-30T14:04:32.000Z</time>
      </trkpt>
      <trkpt lat="28.21855" lon="-16.45965">
        <ele>610</ele>
        <time>2024-03-30T14:04:33.000Z</time>
      </trkpt>
      <trkpt lat="28.21855" lon="-16.459600000000002">
        <ele>608</ele>
        <time>2024-03-30T14:04:34.000Z</time>
      </trkpt>
      <trkpt lat="28.21855" lon="-16.459533333333333">
        <ele>606</ele>
        <time>2024-03-30T14:04:35.000Z</time>
      </trkpt>
      <trkpt lat="28.21855" lon="-16.45945">
        <ele>604</ele>
        <time>2024-03-30T14:04:36.000Z</time>
      </trkpt>
      <trkpt lat="28.21855" lon="-16.459383333333335">
        <ele>602</ele>
        <time>2024-03-30T14:04:37.000Z</time>
      </trkpt>
      <trkpt lat="28.218533333333333" lon="-16.459316666666666">
        <ele>600</ele>
        <time>2024-03-30T14:04:38.000Z</time>
      </trkpt>
      <trkpt lat="28.218533333333333" lon="-16.45925">
        <ele>599</ele>
        <time>2024-03-30T14:04:39.000Z</time>
      </trkpt>
      <trkpt lat="28.218516666666666" lon="-16.459183333333332">
        <ele>598</ele>
        <time>2024-03-30T14:04:40.000Z</time>
      </trkpt>
      <trkpt lat="28.21848333333333" lon="-16.4591">
        <ele>597</ele>
        <time>2024-03-30T14:04:41.000Z</time>
      </trkpt>
      <trkpt lat="28.218433333333333" lon="-16.45905">
        <ele>597</ele>
        <time>2024-03-30T14:04:42.000Z</time>
      </trkpt>
      <trkpt lat="28.218383333333332" lon="-16.459">
        <ele>596</ele>
        <time>2024-03-30T14:04:43.000Z</time>
      </trkpt>
      <trkpt lat="28.21835" lon="-16.45895">
        <ele>595</ele>
        <time>2024-03-30T14:04:44.000Z</time>
      </trkpt>
      <trkpt lat="28.218333333333334" lon="-16.458866666666665">
        <ele>592</ele>
        <time>2024-03-30T14:04:45.000Z</time>
      </trkpt>
      <trkpt lat="28.218316666666666" lon="-16.4588">
        <ele>591</ele>
        <time>2024-03-30T14:04:46.000Z</time>
      </trkpt>
      <trkpt lat="28.218283333333332" lon="-16.458716666666668">
        <ele>589</ele>
        <time>2024-03-30T14:04:47.000Z</time>
      </trkpt>
      <trkpt lat="28.21826666666667" lon="-16.45865">
        <ele>588</ele>
        <time>2024-03-30T14:04:48.000Z</time>
      </trkpt>
      <trkpt lat="28.218233333333334" lon="-16.4586">
        <ele>587</ele>
        <time>2024-03-30T14:04:49.000Z</time>
      </trkpt>
      <trkpt lat="28.218183333333332" lon="-16.45853333333333">
        <ele>585</ele>
        <time>2024-03-30T14:04:50.000Z</time>
      </trkpt>
      <trkpt lat="28.2181" lon="-16.458466666666666">
        <ele>583</ele>
        <time>2024-03-30T14:04:51.000Z</time>
      </trkpt>
      <trkpt lat="28.218033333333334" lon="-16.458383333333334">
        <ele>582</ele>
        <time>2024-03-30T14:04:52.000Z</time>
      </trkpt>
      <trkpt lat="28.217966666666666" lon="-16.4583">
        <ele>585</ele>
        <time>2024-03-30T14:04:53.000Z</time>
      </trkpt>
      <trkpt lat="28.21795" lon="-16.45825">
        <ele>589</ele>
        <time>2024-03-30T14:04:54.000Z</time>
      </trkpt>
      <trkpt lat="28.217933333333335" lon="-16.4582">
        <ele>591</ele>
        <time>2024-03-30T14:04:55.000Z</time>
      </trkpt>
      <trkpt lat="28.217916666666667" lon="-16.458166666666667">
        <ele>593</ele>
        <time>2024-03-30T14:04:56.000Z</time>
      </trkpt>
      <trkpt lat="28.2179" lon="-16.45815">
        <ele>591</ele>
        <time>2024-03-30T14:04:57.000Z</time>
      </trkpt>
      <trkpt lat="28.217883333333333" lon="-16.4581">
        <ele>588</ele>
        <time>2024-03-30T14:04:58.000Z</time>
      </trkpt>
      <trkpt lat="28.21785" lon="-16.458033333333333">
        <ele>585</ele>
        <time>2024-03-30T14:04:59.000Z</time>
      </trkpt>
      <trkpt lat="28.2178" lon="-16.45795">
        <ele>583</ele>
        <time>2024-03-30T14:05:00.000Z</time>
      </trkpt>
      <trkpt lat="28.217766666666666" lon="-16.457883333333335">
        <ele>584</ele>
        <time>2024-03-30T14:05:01.000Z</time>
      </trkpt>
      <trkpt lat="28.217733333333335" lon="-16.4578">
        <ele>588</ele>
        <time>2024-03-30T14:05:02.000Z</time>
      </trkpt>
      <trkpt lat="28.217716666666668" lon="-16.457733333333334">
        <ele>592</ele>
        <time>2024-03-30T14:05:03.000Z</time>
      </trkpt>
      <trkpt lat="28.217716666666668" lon="-16.4577">
        <ele>596</ele>
        <time>2024-03-30T14:05:04.000Z</time>
      </trkpt>
      <trkpt lat="28.217716666666668" lon="-16.457683333333332">
        <ele>598</ele>
        <time>2024-03-30T14:05:05.000Z</time>
      </trkpt>
      <trkpt lat="28.217716666666668" lon="-16.457666666666668">
        <ele>597</ele>
        <time>2024-03-30T14:05:06.000Z</time>
      </trkpt>
      <trkpt lat="28.2177" lon="-16.457616666666667">
        <ele>597</ele>
        <time>2024-03-30T14:05:07.000Z</time>
      </trkpt>
      <trkpt lat="28.217666666666666" lon="-16.457566666666665">
        <ele>595</ele>
        <time>2024-03-30T14:05:08.000Z</time>
      </trkpt>
      <trkpt lat="28.21765" lon="-16.4575">
        <ele>593</ele>
        <time>2024-03-30T14:05:09.000Z</time>
      </trkpt>
      <trkpt lat="28.217633333333332" lon="-16.457433333333334">
        <ele>591</ele>
        <time>2024-03-30T14:05:10.000Z</time>
      </trkpt>
      <trkpt lat="28.217633333333332" lon="-16.457366666666665">
        <ele>591</ele>
        <time>2024-03-30T14:05:11.000Z</time>
      </trkpt>
      <trkpt lat="28.21765" lon="-16.457283333333333">
        <ele>592</ele>
        <time>2024-03-30T14:05:12.000Z</time>
      </trkpt>
      <trkpt lat="28.217633333333332" lon="-16.457233333333335">
        <ele>592</ele>
        <time>2024-03-30T14:05:13.000Z</time>
      </trkpt>
      <trkpt lat="28.2176" lon="-16.4572">
        <ele>592</ele>
        <time>2024-03-30T14:05:14.000Z</time>
      </trkpt>
      <trkpt lat="28.217566666666666" lon="-16.457166666666666">
        <ele>592</ele>
        <time>2024-03-30T14:05:15.000Z</time>
      </trkpt>
      <trkpt lat="28.21755" lon="-16.457116666666668">
        <ele>591</ele>
        <time>2024-03-30T14:05:16.000Z</time>
      </trkpt>
      <trkpt lat="28.21755" lon="-16.457066666666666">
        <ele>590</ele>
        <time>2024-03-30T14:05:17.000Z</time>
      </trkpt>
      <trkpt lat="28.21755" lon="-16.457">
        <ele>588</ele>
        <time>2024-03-30T14:05:18.000Z</time>
      </trkpt>
      <trkpt lat="28.217566666666666" lon="-16.456933333333332">
        <ele>588</ele>
        <time>2024-03-30T14:05:19.000Z</time>
      </trkpt>
      <trkpt lat="28.217583333333334" lon="-16.456883333333334">
        <ele>587</ele>
        <time>2024-03-30T14:05:20.000Z</time>
      </trkpt>
      <trkpt lat="28.2176" lon="-16.45681666666667">
        <ele>587</ele>
        <time>2024-03-30T14:05:21.000Z</time>
      </trkpt>
      <trkpt lat="28.2176" lon="-16.45675">
        <ele>586</ele>
        <time>2024-03-30T14:05:22.000Z</time>
      </trkpt>
      <trkpt lat="28.2176" lon="-16.4567">
        <ele>585</ele>
        <time>2024-03-30T14:05:23.000Z</time>
      </trkpt>
      <trkpt lat="28.2176" lon="-16.456633333333333">
        <ele>583</ele>
        <time>2024-03-30T14:05:24.000Z</time>
      </trkpt>
      <trkpt lat="28.2176" lon="-16.45655">
        <ele>581</ele>
        <time>2024-03-30T14:05:25.000Z</time>
      </trkpt>
      <trkpt lat="28.217583333333334" lon="-16.456483333333335">
        <ele>580</ele>
        <time>2024-03-30T14:05:26.000Z</time>
      </trkpt>
      <trkpt lat="28.217566666666666" lon="-16.456416666666666">
        <ele>578</ele>
        <time>2024-03-30T14:05:27.000Z</time>
      </trkpt>
      <trkpt lat="28.217566666666666" lon="-16.45635">
        <ele>577</ele>
        <time>2024-03-30T14:05:28.000Z</time>
      </trkpt>
      <trkpt lat="28.217566666666666" lon="-16.45628333333333">
        <ele>576</ele>
        <time>2024-03-30T14:05:29.000Z</time>
      </trkpt>
      <trkpt lat="28.21755" lon="-16.456216666666666">
        <ele>575</ele>
        <time>2024-03-30T14:05:30.000Z</time>
      </trkpt>
      <trkpt lat="28.217533333333332" lon="-16.456166666666668">
        <ele>574</ele>
        <time>2024-03-30T14:05:31.000Z</time>
      </trkpt>
      <trkpt lat="28.21751666666667" lon="-16.4561">
        <ele>572</ele>
        <time>2024-03-30T14:05:32.000Z</time>
      </trkpt>
      <trkpt lat="28.21751666666667" lon="-16.45605">
        <ele>571</ele>
        <time>2024-03-30T14:05:33.000Z</time>
      </trkpt>
      <trkpt lat="28.2175" lon="-16.455983333333332">
        <ele>569</ele>
        <time>2024-03-30T14:05:34.000Z</time>
      </trkpt>
      <trkpt lat="28.2175" lon="-16.455933333333334">
        <ele>567</ele>
        <time>2024-03-30T14:05:35.000Z</time>
      </trkpt>
      <trkpt lat="28.2175" lon="-16.455883333333333">
        <ele>565</ele>
        <time>2024-03-30T14:05:36.000Z</time>
      </trkpt>
      <trkpt lat="28.217483333333334" lon="-16.455816666666667">
        <ele>562</ele>
        <time>2024-03-30T14:05:37.000Z</time>
      </trkpt>
      <trkpt lat="28.217466666666667" lon="-16.45575">
        <ele>561</ele>
        <time>2024-03-30T14:05:38.000Z</time>
      </trkpt>
      <trkpt lat="28.21745" lon="-16.4557">
        <ele>561</ele>
        <time>2024-03-30T14:05:39.000Z</time>
      </trkpt>
      <trkpt lat="28.217433333333332" lon="-16.455666666666666">
        <ele>559</ele>
        <time>2024-03-30T14:05:40.000Z</time>
      </trkpt>
      <trkpt lat="28.217433333333332" lon="-16.455616666666668">
        <ele>557</ele>
        <time>2024-03-30T14:05:41.000Z</time>
      </trkpt>
      <trkpt lat="28.2174" lon="-16.455583333333333">
        <ele>555</ele>
        <time>2024-03-30T14:05:42.000Z</time>
      </trkpt>
      <trkpt lat="28.217366666666667" lon="-16.455533333333335">
        <ele>553</ele>
        <time>2024-03-30T14:05:43.000Z</time>
      </trkpt>
      <trkpt lat="28.21735" lon="-16.455466666666666">
        <ele>552</ele>
        <time>2024-03-30T14:05:44.000Z</time>
      </trkpt>
      <trkpt lat="28.217333333333332" lon="-16.455416666666668">
        <ele>551</ele>
        <time>2024-03-30T14:05:45.000Z</time>
      </trkpt>
      <trkpt lat="28.217333333333332" lon="-16.455383333333334">
        <ele>551</ele>
        <time>2024-03-30T14:05:46.000Z</time>
      </trkpt>
      <trkpt lat="28.217333333333332" lon="-16.45535">
        <ele>550</ele>
        <time>2024-03-30T14:05:47.000Z</time>
      </trkpt>
      <trkpt lat="28.217316666666665" lon="-16.45531666666667">
        <ele>549</ele>
        <time>2024-03-30T14:05:48.000Z</time>
      </trkpt>
      <trkpt lat="28.2173" lon="-16.455266666666667">
        <ele>546</ele>
        <time>2024-03-30T14:05:49.000Z</time>
      </trkpt>
      <trkpt lat="28.217283333333334" lon="-16.455216666666665">
        <ele>543</ele>
        <time>2024-03-30T14:05:50.000Z</time>
      </trkpt>
      <trkpt lat="28.217266666666667" lon="-16.45515">
        <ele>540</ele>
        <time>2024-03-30T14:05:51.000Z</time>
      </trkpt>
      <trkpt lat="28.217266666666667" lon="-16.455083333333334">
        <ele>537</ele>
        <time>2024-03-30T14:05:52.000Z</time>
      </trkpt>
      <trkpt lat="28.217266666666667" lon="-16.455">
        <ele>534</ele>
        <time>2024-03-30T14:05:53.000Z</time>
      </trkpt>
      <trkpt lat="28.21725" lon="-16.4549">
        <ele>532</ele>
        <time>2024-03-30T14:05:54.000Z</time>
      </trkpt>
      <trkpt lat="28.217233333333333" lon="-16.454816666666666">
        <ele>531</ele>
        <time>2024-03-30T14:05:55.000Z</time>
      </trkpt>
      <trkpt lat="28.217216666666666" lon="-16.454733333333333">
        <ele>529</ele>
        <time>2024-03-30T14:05:56.000Z</time>
      </trkpt>
      <trkpt lat="28.217183333333335" lon="-16.454666666666668">
        <ele>528</ele>
        <time>2024-03-30T14:05:57.000Z</time>
      </trkpt>
      <trkpt lat="28.217166666666667" lon="-16.4546">
        <ele>526</ele>
        <time>2024-03-30T14:05:58.000Z</time>
      </trkpt>
      <trkpt lat="28.21715" lon="-16.454516666666667">
        <ele>525</ele>
        <time>2024-03-30T14:05:59.000Z</time>
      </trkpt>
      <trkpt lat="28.217133333333333" lon="-16.454433333333334">
        <ele>523</ele>
        <time>2024-03-30T14:06:00.000Z</time>
      </trkpt>
      <trkpt lat="28.217133333333333" lon="-16.45435">
        <ele>522</ele>
        <time>2024-03-30T14:06:01.000Z</time>
      </trkpt>
      <trkpt lat="28.217116666666666" lon="-16.454283333333333">
        <ele>523</ele>
        <time>2024-03-30T14:06:02.000Z</time>
      </trkpt>
      <trkpt lat="28.217083333333335" lon="-16.454216666666667">
        <ele>525</ele>
        <time>2024-03-30T14:06:03.000Z</time>
      </trkpt>
      <trkpt lat="28.217066666666668" lon="-16.454166666666666">
        <ele>527</ele>
        <time>2024-03-30T14:06:04.000Z</time>
      </trkpt>
      <trkpt lat="28.217033333333333" lon="-16.4541">
        <ele>528</ele>
        <time>2024-03-30T14:06:05.000Z</time>
      </trkpt>
      <trkpt lat="28.217" lon="-16.454033333333335">
        <ele>531</ele>
        <time>2024-03-30T14:06:06.000Z</time>
      </trkpt>
      <trkpt lat="28.216983333333335" lon="-16.453983333333333">
        <ele>533</ele>
        <time>2024-03-30T14:06:07.000Z</time>
      </trkpt>
      <trkpt lat="28.216966666666668" lon="-16.45393333333333">
        <ele>534</ele>
        <time>2024-03-30T14:06:08.000Z</time>
      </trkpt>
      <trkpt lat="28.21695" lon="-16.453883333333334">
        <ele>535</ele>
        <time>2024-03-30T14:06:09.000Z</time>
      </trkpt>
      <trkpt lat="28.216933333333333" lon="-16.453833333333332">
        <ele>538</ele>
        <time>2024-03-30T14:06:10.000Z</time>
      </trkpt>
      <trkpt lat="28.216933333333333" lon="-16.4538">
        <ele>542</ele>
        <time>2024-03-30T14:06:11.000Z</time>
      </trkpt>
      <trkpt lat="28.21695" lon="-16.453766666666667">
        <ele>545</ele>
        <time>2024-03-30T14:06:12.000Z</time>
      </trkpt>
      <trkpt lat="28.217" lon="-16.453783333333334">
        <ele>547</ele>
        <time>2024-03-30T14:06:13.000Z</time>
      </trkpt>
      <trkpt lat="28.2171" lon="-16.453916666666668">
        <ele>545</ele>
        <time>2024-03-30T14:06:14.000Z</time>
      </trkpt>
      <trkpt lat="28.217166666666667" lon="-16.454083333333333">
        <ele>545</ele>
        <time>2024-03-30T14:06:15.000Z</time>
      </trkpt>
      <trkpt lat="28.217133333333333" lon="-16.454233333333335">
        <ele>547</ele>
        <time>2024-03-30T14:06:16.000Z</time>
      </trkpt>
      <trkpt lat="28.21705" lon="-16.454366666666665">
        <ele>549</ele>
        <time>2024-03-30T14:06:17.000Z</time>
      </trkpt>
      <trkpt lat="28.216933333333333" lon="-16.454416666666667">
        <ele>549</ele>
        <time>2024-03-30T14:06:18.000Z</time>
      </trkpt>
      <trkpt lat="28.21685" lon="-16.454416666666667">
        <ele>549</ele>
        <time>2024-03-30T14:06:19.000Z</time>
      </trkpt>
      <trkpt lat="28.216783333333332" lon="-16.454383333333332">
        <ele>553</ele>
        <time>2024-03-30T14:06:20.000Z</time>
      </trkpt>
      <trkpt lat="28.21676666666667" lon="-16.45435">
        <ele>555</ele>
        <time>2024-03-30T14:06:21.000Z</time>
      </trkpt>
      <trkpt lat="28.21675" lon="-16.454333333333334">
        <ele>556</ele>
        <time>2024-03-30T14:06:22.000Z</time>
      </trkpt>
      <trkpt lat="28.216733333333334" lon="-16.4543">
        <ele>556</ele>
        <time>2024-03-30T14:06:23.000Z</time>
      </trkpt>
      <trkpt lat="28.216716666666667" lon="-16.454283333333333">
        <ele>557</ele>
        <time>2024-03-30T14:06:24.000Z</time>
      </trkpt>
      <trkpt lat="28.2167" lon="-16.45425">
        <ele>557</ele>
        <time>2024-03-30T14:06:25.000Z</time>
      </trkpt>
      <trkpt lat="28.216666666666665" lon="-16.454216666666667">
        <ele>558</ele>
        <time>2024-03-30T14:06:26.000Z</time>
      </trkpt>
      <trkpt lat="28.21665" lon="-16.454166666666666">
        <ele>558</ele>
        <time>2024-03-30T14:06:27.000Z</time>
      </trkpt>
      <trkpt lat="28.216633333333334" lon="-16.454133333333335">
        <ele>559</ele>
        <time>2024-03-30T14:06:28.000Z</time>
      </trkpt>
      <trkpt lat="28.216633333333334" lon="-16.4541">
        <ele>559</ele>
        <time>2024-03-30T14:06:29.000Z</time>
      </trkpt>
      <trkpt lat="28.21665" lon="-16.454083333333333">
        <ele>560</ele>
        <time>2024-03-30T14:06:30.000Z</time>
      </trkpt>
      <trkpt lat="28.216666666666665" lon="-16.454116666666668">
        <ele>558</ele>
        <time>2024-03-30T14:06:31.000Z</time>
      </trkpt>
      <trkpt lat="28.216733333333334" lon="-16.454183333333333">
        <ele>556</ele>
        <time>2024-03-30T14:06:32.000Z</time>
      </trkpt>
      <trkpt lat="28.216816666666666" lon="-16.454316666666667">
        <ele>556</ele>
        <time>2024-03-30T14:06:33.000Z</time>
      </trkpt>
      <trkpt lat="28.216833333333334" lon="-16.454433333333334">
        <ele>560</ele>
        <time>2024-03-30T14:06:34.000Z</time>
      </trkpt>
      <trkpt lat="28.2168" lon="-16.45456666666667">
        <ele>562</ele>
        <time>2024-03-30T14:06:35.000Z</time>
      </trkpt>
      <trkpt lat="28.216716666666667" lon="-16.45468333333333">
        <ele>562</ele>
        <time>2024-03-30T14:06:36.000Z</time>
      </trkpt>
      <trkpt lat="28.2166" lon="-16.454766666666668">
        <ele>561</ele>
        <time>2024-03-30T14:06:37.000Z</time>
      </trkpt>
      <trkpt lat="28.216483333333333" lon="-16.454816666666666">
        <ele>562</ele>
        <time>2024-03-30T14:06:38.000Z</time>
      </trkpt>
      <trkpt lat="28.216383333333333" lon="-16.45485">
        <ele>564</ele>
        <time>2024-03-30T14:06:39.000Z</time>
      </trkpt>
      <trkpt lat="28.216316666666668" lon="-16.45485">
        <ele>565</ele>
        <time>2024-03-30T14:06:40.000Z</time>
      </trkpt>
      <trkpt lat="28.216283333333333" lon="-16.454833333333333">
        <ele>565</ele>
        <time>2024-03-30T14:06:41.000Z</time>
      </trkpt>
      <trkpt lat="28.216266666666666" lon="-16.4548">
        <ele>564</ele>
        <time>2024-03-30T14:06:42.000Z</time>
      </trkpt>
      <trkpt lat="28.21625" lon="-16.454766666666668">
        <ele>564</ele>
        <time>2024-03-30T14:06:43.000Z</time>
      </trkpt>
      <trkpt lat="28.21625" lon="-16.454716666666666">
        <ele>563</ele>
        <time>2024-03-30T14:06:44.000Z</time>
      </trkpt>
      <trkpt lat="28.216266666666666" lon="-16.454666666666668">
        <ele>560</ele>
        <time>2024-03-30T14:06:45.000Z</time>
      </trkpt>
      <trkpt lat="28.216266666666666" lon="-16.454616666666666">
        <ele>558</ele>
        <time>2024-03-30T14:06:46.000Z</time>
      </trkpt>
      <trkpt lat="28.2163" lon="-16.454583333333332">
        <ele>557</ele>
        <time>2024-03-30T14:06:47.000Z</time>
      </trkpt>
      <trkpt lat="28.216316666666668" lon="-16.454533333333334">
        <ele>554</ele>
        <time>2024-03-30T14:06:48.000Z</time>
      </trkpt>
      <trkpt lat="28.216333333333335" lon="-16.4545">
        <ele>552</ele>
        <time>2024-03-30T14:06:49.000Z</time>
      </trkpt>
      <trkpt lat="28.21635" lon="-16.45445">
        <ele>549</ele>
        <time>2024-03-30T14:06:50.000Z</time>
      </trkpt>
      <trkpt lat="28.21635" lon="-16.4544">
        <ele>547</ele>
        <time>2024-03-30T14:06:51.000Z</time>
      </trkpt>
      <trkpt lat="28.216333333333335" lon="-16.45435">
        <ele>545</ele>
        <time>2024-03-30T14:06:52.000Z</time>
      </trkpt>
      <trkpt lat="28.216333333333335" lon="-16.454283333333333">
        <ele>543</ele>
        <time>2024-03-30T14:06:53.000Z</time>
      </trkpt>
      <trkpt lat="28.21635" lon="-16.454233333333335">
        <ele>540</ele>
        <time>2024-03-30T14:06:54.000Z</time>
      </trkpt>
      <trkpt lat="28.21635" lon="-16.454166666666666">
        <ele>537</ele>
        <time>2024-03-30T14:06:55.000Z</time>
      </trkpt>
      <trkpt lat="28.21635" lon="-16.454083333333333">
        <ele>532</ele>
        <time>2024-03-30T14:06:56.000Z</time>
      </trkpt>
      <trkpt lat="28.21635" lon="-16.453983333333333">
        <ele>527</ele>
        <time>2024-03-30T14:06:57.000Z</time>
      </trkpt>
      <trkpt lat="28.216333333333335" lon="-16.453866666666666">
        <ele>523</ele>
        <time>2024-03-30T14:06:58.000Z</time>
      </trkpt>
      <trkpt lat="28.216316666666668" lon="-16.45375">
        <ele>521</ele>
        <time>2024-03-30T14:06:59.000Z</time>
      </trkpt>
      <trkpt lat="28.216283333333333" lon="-16.453666666666667">
        <ele>521</ele>
        <time>2024-03-30T14:07:00.000Z</time>
      </trkpt>
      <trkpt lat="28.216283333333333" lon="-16.453583333333334">
        <ele>521</ele>
        <time>2024-03-30T14:07:01.000Z</time>
      </trkpt>
      <trkpt lat="28.216283333333333" lon="-16.453516666666665">
        <ele>520</ele>
        <time>2024-03-30T14:07:02.000Z</time>
      </trkpt>
      <trkpt lat="28.216283333333333" lon="-16.453433333333333">
        <ele>520</ele>
        <time>2024-03-30T14:07:03.000Z</time>
      </trkpt>
      <trkpt lat="28.2163" lon="-16.45335">
        <ele>518</ele>
        <time>2024-03-30T14:07:04.000Z</time>
      </trkpt>
      <trkpt lat="28.2163" lon="-16.45325">
        <ele>517</ele>
        <time>2024-03-30T14:07:05.000Z</time>
      </trkpt>
      <trkpt lat="28.216283333333333" lon="-16.45315">
        <ele>516</ele>
        <time>2024-03-30T14:07:06.000Z</time>
      </trkpt>
      <trkpt lat="28.216283333333333" lon="-16.45306666666667">
        <ele>517</ele>
        <time>2024-03-30T14:07:07.000Z</time>
      </trkpt>
      <trkpt lat="28.216283333333333" lon="-16.452983333333332">
        <ele>520</ele>
        <time>2024-03-30T14:07:08.000Z</time>
      </trkpt>
      <trkpt lat="28.2163" lon="-16.452916666666667">
        <ele>521</ele>
        <time>2024-03-30T14:07:09.000Z</time>
      </trkpt>
      <trkpt lat="28.216333333333335" lon="-16.45285">
        <ele>522</ele>
        <time>2024-03-30T14:07:10.000Z</time>
      </trkpt>
      <trkpt lat="28.216383333333333" lon="-16.4528">
        <ele>522</ele>
        <time>2024-03-30T14:07:11.000Z</time>
      </trkpt>
      <trkpt lat="28.216416666666667" lon="-16.45275">
        <ele>521</ele>
        <time>2024-03-30T14:07:12.000Z</time>
      </trkpt>
      <trkpt lat="28.21645" lon="-16.452683333333333">
        <ele>521</ele>
        <time>2024-03-30T14:07:13.000Z</time>
      </trkpt>
      <trkpt lat="28.216466666666665" lon="-16.4526">
        <ele>521</ele>
        <time>2024-03-30T14:07:14.000Z</time>
      </trkpt>
      <trkpt lat="28.216466666666665" lon="-16.452516666666668">
        <ele>520</ele>
        <time>2024-03-30T14:07:15.000Z</time>
      </trkpt>
      <trkpt lat="28.2165" lon="-16.45243333333333">
        <ele>522</ele>
        <time>2024-03-30T14:07:16.000Z</time>
      </trkpt>
      <trkpt lat="28.216516666666667" lon="-16.452366666666666">
        <ele>524</ele>
        <time>2024-03-30T14:07:17.000Z</time>
      </trkpt>
      <trkpt lat="28.216566666666665" lon="-16.45231666666667">
        <ele>525</ele>
        <time>2024-03-30T14:07:18.000Z</time>
      </trkpt>
      <trkpt lat="28.2166" lon="-16.452266666666667">
        <ele>525</ele>
        <time>2024-03-30T14:07:19.000Z</time>
      </trkpt>
      <trkpt lat="28.216616666666667" lon="-16.4522">
        <ele>524</ele>
        <time>2024-03-30T14:07:20.000Z</time>
      </trkpt>
      <trkpt lat="28.216633333333334" lon="-16.452116666666665">
        <ele>524</ele>
        <time>2024-03-30T14:07:21.000Z</time>
      </trkpt>
      <trkpt lat="28.21665" lon="-16.452016666666665">
        <ele>525</ele>
        <time>2024-03-30T14:07:22.000Z</time>
      </trkpt>
      <trkpt lat="28.21665" lon="-16.45195">
        <ele>528</ele>
        <time>2024-03-30T14:07:23.000Z</time>
      </trkpt>
      <trkpt lat="28.21665" lon="-16.4519">
        <ele>532</ele>
        <time>2024-03-30T14:07:24.000Z</time>
      </trkpt>
      <trkpt lat="28.21665" lon="-16.451883333333335">
        <ele>533</ele>
        <time>2024-03-30T14:07:25.000Z</time>
      </trkpt>
      <trkpt lat="28.216666666666665" lon="-16.451866666666668">
        <ele>533</ele>
        <time>2024-03-30T14:07:26.000Z</time>
      </trkpt>
      <trkpt lat="28.2167" lon="-16.451866666666668">
        <ele>531</ele>
        <time>2024-03-30T14:07:27.000Z</time>
      </trkpt>
      <trkpt lat="28.216733333333334" lon="-16.45185">
        <ele>529</ele>
        <time>2024-03-30T14:07:28.000Z</time>
      </trkpt>
      <trkpt lat="28.216783333333332" lon="-16.451783333333335">
        <ele>527</ele>
        <time>2024-03-30T14:07:29.000Z</time>
      </trkpt>
      <trkpt lat="28.21685" lon="-16.45168333333333">
        <ele>526</ele>
        <time>2024-03-30T14:07:30.000Z</time>
      </trkpt>
      <trkpt lat="28.216916666666666" lon="-16.451583333333332">
        <ele>529</ele>
        <time>2024-03-30T14:07:31.000Z</time>
      </trkpt>
      <trkpt lat="28.216916666666666" lon="-16.45155">
        <ele>532</ele>
        <time>2024-03-30T14:07:32.000Z</time>
      </trkpt>
      <trkpt lat="28.21688333333333" lon="-16.45155">
        <ele>535</ele>
        <time>2024-03-30T14:07:33.000Z</time>
      </trkpt>
      <trkpt lat="28.216866666666668" lon="-16.45155">
        <ele>536</ele>
        <time>2024-03-30T14:07:34.000Z</time>
      </trkpt>
      <trkpt lat="28.216833333333334" lon="-16.45156666666667">
        <ele>535</ele>
        <time>2024-03-30T14:07:35.000Z</time>
      </trkpt>
      <trkpt lat="28.216833333333334" lon="-16.451533333333334">
        <ele>533</ele>
        <time>2024-03-30T14:07:36.000Z</time>
      </trkpt>
      <trkpt lat="28.216833333333334" lon="-16.45145">
        <ele>533</ele>
        <time>2024-03-30T14:07:37.000Z</time>
      </trkpt>
      <trkpt lat="28.216833333333334" lon="-16.451383333333332">
        <ele>534</ele>
        <time>2024-03-30T14:07:38.000Z</time>
      </trkpt>
      <trkpt lat="28.216833333333334" lon="-16.45135">
        <ele>538</ele>
        <time>2024-03-30T14:07:39.000Z</time>
      </trkpt>
      <trkpt lat="28.21688333333333" lon="-16.451333333333334">
        <ele>540</ele>
        <time>2024-03-30T14:07:40.000Z</time>
      </trkpt>
      <trkpt lat="28.21695" lon="-16.451383333333332">
        <ele>537</ele>
        <time>2024-03-30T14:07:41.000Z</time>
      </trkpt>
      <trkpt lat="28.217033333333333" lon="-16.451483333333332">
        <ele>534</ele>
        <time>2024-03-30T14:07:42.000Z</time>
      </trkpt>
      <trkpt lat="28.217066666666668" lon="-16.45165">
        <ele>534</ele>
        <time>2024-03-30T14:07:43.000Z</time>
      </trkpt>
      <trkpt lat="28.217033333333333" lon="-16.451816666666666">
        <ele>534</ele>
        <time>2024-03-30T14:07:44.000Z</time>
      </trkpt>
      <trkpt lat="28.216933333333333" lon="-16.451933333333333">
        <ele>532</ele>
        <time>2024-03-30T14:07:45.000Z</time>
      </trkpt>
      <trkpt lat="28.2168" lon="-16.451966666666667">
        <ele>530</ele>
        <time>2024-03-30T14:07:46.000Z</time>
      </trkpt>
      <trkpt lat="28.216683333333332" lon="-16.451933333333333">
        <ele>530</ele>
        <time>2024-03-30T14:07:47.000Z</time>
      </trkpt>
      <trkpt lat="28.216633333333334" lon="-16.45185">
        <ele>531</ele>
        <time>2024-03-30T14:07:48.000Z</time>
      </trkpt>
      <trkpt lat="28.21665" lon="-16.45175">
        <ele>533</ele>
        <time>2024-03-30T14:07:49.000Z</time>
      </trkpt>
      <trkpt lat="28.216666666666665" lon="-16.45168333333333">
        <ele>536</ele>
        <time>2024-03-30T14:07:50.000Z</time>
      </trkpt>
      <trkpt lat="28.216666666666665" lon="-16.45165">
        <ele>538</ele>
        <time>2024-03-30T14:07:51.000Z</time>
      </trkpt>
      <trkpt lat="28.21665" lon="-16.4516">
        <ele>540</ele>
        <time>2024-03-30T14:07:52.000Z</time>
      </trkpt>
      <trkpt lat="28.216616666666667" lon="-16.451583333333332">
        <ele>538</ele>
        <time>2024-03-30T14:07:53.000Z</time>
      </trkpt>
      <trkpt lat="28.216616666666667" lon="-16.45155">
        <ele>536</ele>
        <time>2024-03-30T14:07:54.000Z</time>
      </trkpt>
      <trkpt lat="28.2166" lon="-16.451483333333332">
        <ele>534</ele>
        <time>2024-03-30T14:07:55.000Z</time>
      </trkpt>
      <trkpt lat="28.2166" lon="-16.451433333333334">
        <ele>532</ele>
        <time>2024-03-30T14:07:56.000Z</time>
      </trkpt>
      <trkpt lat="28.216633333333334" lon="-16.451366666666665">
        <ele>532</ele>
        <time>2024-03-30T14:07:57.000Z</time>
      </trkpt>
      <trkpt lat="28.216666666666665" lon="-16.451316666666667">
        <ele>532</ele>
        <time>2024-03-30T14:07:58.000Z</time>
      </trkpt>
      <trkpt lat="28.216716666666667" lon="-16.451266666666665">
        <ele>533</ele>
        <time>2024-03-30T14:07:59.000Z</time>
      </trkpt>
      <trkpt lat="28.21676666666667" lon="-16.451233333333334">
        <ele>534</ele>
        <time>2024-03-30T14:08:00.000Z</time>
      </trkpt>
      <trkpt lat="28.2168" lon="-16.451216666666667">
        <ele>535</ele>
        <time>2024-03-30T14:08:01.000Z</time>
      </trkpt>
      <trkpt lat="28.216833333333334" lon="-16.451216666666667">
        <ele>534</ele>
        <time>2024-03-30T14:08:02.000Z</time>
      </trkpt>
      <trkpt lat="28.216866666666668" lon="-16.451216666666667">
        <ele>533</ele>
        <time>2024-03-30T14:08:03.000Z</time>
      </trkpt>
      <trkpt lat="28.2169" lon="-16.451216666666667">
        <ele>532</ele>
        <time>2024-03-30T14:08:04.000Z</time>
      </trkpt>
      <trkpt lat="28.216933333333333" lon="-16.4512">
        <ele>530</ele>
        <time>2024-03-30T14:08:05.000Z</time>
      </trkpt>
      <trkpt lat="28.216983333333335" lon="-16.451183333333333">
        <ele>528</ele>
        <time>2024-03-30T14:08:06.000Z</time>
      </trkpt>
      <trkpt lat="28.21705" lon="-16.45115">
        <ele>529</ele>
        <time>2024-03-30T14:08:07.000Z</time>
      </trkpt>
      <trkpt lat="28.2171" lon="-16.451116666666667">
        <ele>530</ele>
        <time>2024-03-30T14:08:08.000Z</time>
      </trkpt>
      <trkpt lat="28.217133333333333" lon="-16.451083333333333">
        <ele>530</ele>
        <time>2024-03-30T14:08:09.000Z</time>
      </trkpt>
      <trkpt lat="28.21715" lon="-16.45105">
        <ele>530</ele>
        <time>2024-03-30T14:08:10.000Z</time>
      </trkpt>
      <trkpt lat="28.21715" lon="-16.451016666666668">
        <ele>529</ele>
        <time>2024-03-30T14:08:11.000Z</time>
      </trkpt>
      <trkpt lat="28.217166666666667" lon="-16.450966666666666">
        <ele>527</ele>
        <time>2024-03-30T14:08:12.000Z</time>
      </trkpt>
      <trkpt lat="28.217183333333335" lon="-16.450916666666668">
        <ele>524</ele>
        <time>2024-03-30T14:08:13.000Z</time>
      </trkpt>
      <trkpt lat="28.217216666666666" lon="-16.45085">
        <ele>521</ele>
        <time>2024-03-30T14:08:14.000Z</time>
      </trkpt>
      <trkpt lat="28.217233333333333" lon="-16.450783333333334">
        <ele>518</ele>
        <time>2024-03-30T14:08:15.000Z</time>
      </trkpt>
      <trkpt lat="28.217233333333333" lon="-16.450733333333332">
        <ele>516</ele>
        <time>2024-03-30T14:08:16.000Z</time>
      </trkpt>
      <trkpt lat="28.217216666666666" lon="-16.450683333333334">
        <ele>515</ele>
        <time>2024-03-30T14:08:17.000Z</time>
      </trkpt>
      <trkpt lat="28.2172" lon="-16.450633333333332">
        <ele>513</ele>
        <time>2024-03-30T14:08:18.000Z</time>
      </trkpt>
      <trkpt lat="28.217183333333335" lon="-16.450583333333334">
        <ele>511</ele>
        <time>2024-03-30T14:08:19.000Z</time>
      </trkpt>
      <trkpt lat="28.217166666666667" lon="-16.4505">
        <ele>508</ele>
        <time>2024-03-30T14:08:20.000Z</time>
      </trkpt>
      <trkpt lat="28.21715" lon="-16.4504">
        <ele>505</ele>
        <time>2024-03-30T14:08:21.000Z</time>
      </trkpt>
      <trkpt lat="28.217116666666666" lon="-16.4503">
        <ele>504</ele>
        <time>2024-03-30T14:08:22.000Z</time>
      </trkpt>
      <trkpt lat="28.2171" lon="-16.4502">
        <ele>507</ele>
        <time>2024-03-30T14:08:23.000Z</time>
      </trkpt>
      <trkpt lat="28.217066666666668" lon="-16.450133333333333">
        <ele>509</ele>
        <time>2024-03-30T14:08:24.000Z</time>
      </trkpt>
      <trkpt lat="28.217066666666668" lon="-16.450083333333332">
        <ele>510</ele>
        <time>2024-03-30T14:08:25.000Z</time>
      </trkpt>
      <trkpt lat="28.217083333333335" lon="-16.450033333333334">
        <ele>508</ele>
        <time>2024-03-30T14:08:26.000Z</time>
      </trkpt>
      <trkpt lat="28.217116666666666" lon="-16.449983333333332">
        <ele>505</ele>
        <time>2024-03-30T14:08:27.000Z</time>
      </trkpt>
      <trkpt lat="28.217133333333333" lon="-16.4499">
        <ele>502</ele>
        <time>2024-03-30T14:08:28.000Z</time>
      </trkpt>
      <trkpt lat="28.217133333333333" lon="-16.449816666666667">
        <ele>500</ele>
        <time>2024-03-30T14:08:29.000Z</time>
      </trkpt>
      <trkpt lat="28.217133333333333" lon="-16.449733333333334">
        <ele>500</ele>
        <time>2024-03-30T14:08:30.000Z</time>
      </trkpt>
      <trkpt lat="28.21715" lon="-16.44965">
        <ele>500</ele>
        <time>2024-03-30T14:08:31.000Z</time>
      </trkpt>
      <trkpt lat="28.21715" lon="-16.4496">
        <ele>500</ele>
        <time>2024-03-30T14:08:32.000Z</time>
      </trkpt>
      <trkpt lat="28.21715" lon="-16.449566666666666">
        <ele>500</ele>
        <time>2024-03-30T14:08:33.000Z</time>
      </trkpt>
      <trkpt lat="28.217166666666667" lon="-16.449516666666668">
        <ele>499</ele>
        <time>2024-03-30T14:08:34.000Z</time>
      </trkpt>
      <trkpt lat="28.217166666666667" lon="-16.44945">
        <ele>498</ele>
        <time>2024-03-30T14:08:35.000Z</time>
      </trkpt>
      <trkpt lat="28.217183333333335" lon="-16.449383333333333">
        <ele>496</ele>
        <time>2024-03-30T14:08:36.000Z</time>
      </trkpt>
      <trkpt lat="28.2172" lon="-16.4493">
        <ele>494</ele>
        <time>2024-03-30T14:08:37.000Z</time>
      </trkpt>
      <trkpt lat="28.2172" lon="-16.44921666666667">
        <ele>494</ele>
        <time>2024-03-30T14:08:38.000Z</time>
      </trkpt>
      <trkpt lat="28.2172" lon="-16.44915">
        <ele>494</ele>
        <time>2024-03-30T14:08:39.000Z</time>
      </trkpt>
      <trkpt lat="28.217233333333333" lon="-16.449083333333334">
        <ele>493</ele>
        <time>2024-03-30T14:08:40.000Z</time>
      </trkpt>
      <trkpt lat="28.217266666666667" lon="-16.449016666666665">
        <ele>491</ele>
        <time>2024-03-30T14:08:41.000Z</time>
      </trkpt>
      <trkpt lat="28.217316666666665" lon="-16.448966666666667">
        <ele>488</ele>
        <time>2024-03-30T14:08:42.000Z</time>
      </trkpt>
      <trkpt lat="28.217383333333334" lon="-16.448883333333335">
        <ele>486</ele>
        <time>2024-03-30T14:08:43.000Z</time>
      </trkpt>
      <trkpt lat="28.217433333333332" lon="-16.448816666666666">
        <ele>487</ele>
        <time>2024-03-30T14:08:44.000Z</time>
      </trkpt>
      <trkpt lat="28.21745" lon="-16.44875">
        <ele>489</ele>
        <time>2024-03-30T14:08:45.000Z</time>
      </trkpt>
      <trkpt lat="28.21745" lon="-16.448733333333333">
        <ele>490</ele>
        <time>2024-03-30T14:08:46.000Z</time>
      </trkpt>
      <trkpt lat="28.21745" lon="-16.4487">
        <ele>491</ele>
        <time>2024-03-30T14:08:47.000Z</time>
      </trkpt>
      <trkpt lat="28.217483333333334" lon="-16.448666666666668">
        <ele>489</ele>
        <time>2024-03-30T14:08:48.000Z</time>
      </trkpt>
      <trkpt lat="28.21751666666667" lon="-16.448616666666666">
        <ele>487</ele>
        <time>2024-03-30T14:08:49.000Z</time>
      </trkpt>
      <trkpt lat="28.2176" lon="-16.44855">
        <ele>484</ele>
        <time>2024-03-30T14:08:50.000Z</time>
      </trkpt>
      <trkpt lat="28.21765" lon="-16.4485">
        <ele>483</ele>
        <time>2024-03-30T14:08:51.000Z</time>
      </trkpt>
      <trkpt lat="28.217683333333333" lon="-16.44845">
        <ele>483</ele>
        <time>2024-03-30T14:08:52.000Z</time>
      </trkpt>
      <trkpt lat="28.2177" lon="-16.4484">
        <ele>482</ele>
        <time>2024-03-30T14:08:53.000Z</time>
      </trkpt>
      <trkpt lat="28.217716666666668" lon="-16.448366666666665">
        <ele>482</ele>
        <time>2024-03-30T14:08:54.000Z</time>
      </trkpt>
      <trkpt lat="28.2177" lon="-16.448333333333334">
        <ele>481</ele>
        <time>2024-03-30T14:08:55.000Z</time>
      </trkpt>
      <trkpt lat="28.217683333333333" lon="-16.448283333333332">
        <ele>479</ele>
        <time>2024-03-30T14:08:56.000Z</time>
      </trkpt>
      <trkpt lat="28.21765" lon="-16.448216666666667">
        <ele>476</ele>
        <time>2024-03-30T14:08:57.000Z</time>
      </trkpt>
      <trkpt lat="28.217616666666668" lon="-16.44815">
        <ele>474</ele>
        <time>2024-03-30T14:08:58.000Z</time>
      </trkpt>
      <trkpt lat="28.217566666666666" lon="-16.448066666666666">
        <ele>472</ele>
        <time>2024-03-30T14:08:59.000Z</time>
      </trkpt>
      <trkpt lat="28.21755" lon="-16.448">
        <ele>471</ele>
        <time>2024-03-30T14:09:00.000Z</time>
      </trkpt>
      <trkpt lat="28.217566666666666" lon="-16.447916666666668">
        <ele>469</ele>
        <time>2024-03-30T14:09:01.000Z</time>
      </trkpt>
      <trkpt lat="28.217566666666666" lon="-16.44783333333333">
        <ele>467</ele>
        <time>2024-03-30T14:09:02.000Z</time>
      </trkpt>
      <trkpt lat="28.217566666666666" lon="-16.447766666666666">
        <ele>465</ele>
        <time>2024-03-30T14:09:03.000Z</time>
      </trkpt>
      <trkpt lat="28.21751666666667" lon="-16.44771666666667">
        <ele>463</ele>
        <time>2024-03-30T14:09:04.000Z</time>
      </trkpt>
      <trkpt lat="28.21745" lon="-16.447666666666667">
        <ele>461</ele>
        <time>2024-03-30T14:09:05.000Z</time>
      </trkpt>
      <trkpt lat="28.217383333333334" lon="-16.447616666666665">
        <ele>459</ele>
        <time>2024-03-30T14:09:06.000Z</time>
      </trkpt>
      <trkpt lat="28.217333333333332" lon="-16.44755">
        <ele>458</ele>
        <time>2024-03-30T14:09:07.000Z</time>
      </trkpt>
      <trkpt lat="28.217283333333334" lon="-16.447483333333334">
        <ele>455</ele>
        <time>2024-03-30T14:09:08.000Z</time>
      </trkpt>
      <trkpt lat="28.217233333333333" lon="-16.447416666666665">
        <ele>453</ele>
        <time>2024-03-30T14:09:09.000Z</time>
      </trkpt>
      <trkpt lat="28.217183333333335" lon="-16.44735">
        <ele>451</ele>
        <time>2024-03-30T14:09:10.000Z</time>
      </trkpt>
      <trkpt lat="28.217133333333333" lon="-16.447283333333335">
        <ele>449</ele>
        <time>2024-03-30T14:09:11.000Z</time>
      </trkpt>
      <trkpt lat="28.2171" lon="-16.447216666666666">
        <ele>446</ele>
        <time>2024-03-30T14:09:12.000Z</time>
      </trkpt>
      <trkpt lat="28.21705" lon="-16.447133333333333">
        <ele>443</ele>
        <time>2024-03-30T14:09:13.000Z</time>
      </trkpt>
      <trkpt lat="28.217" lon="-16.44705">
        <ele>441</ele>
        <time>2024-03-30T14:09:14.000Z</time>
      </trkpt>
      <trkpt lat="28.216966666666668" lon="-16.44696666666667">
        <ele>441</ele>
        <time>2024-03-30T14:09:15.000Z</time>
      </trkpt>
      <trkpt lat="28.21695" lon="-16.4469">
        <ele>441</ele>
        <time>2024-03-30T14:09:16.000Z</time>
      </trkpt>
      <trkpt lat="28.216916666666666" lon="-16.446833333333334">
        <ele>440</ele>
        <time>2024-03-30T14:09:17.000Z</time>
      </trkpt>
      <trkpt lat="28.2169" lon="-16.446783333333332">
        <ele>437</ele>
        <time>2024-03-30T14:09:18.000Z</time>
      </trkpt>
      <trkpt lat="28.21688333333333" lon="-16.446716666666667">
        <ele>435</ele>
        <time>2024-03-30T14:09:19.000Z</time>
      </trkpt>
      <trkpt lat="28.216866666666668" lon="-16.446633333333335">
        <ele>432</ele>
        <time>2024-03-30T14:09:20.000Z</time>
      </trkpt>
      <trkpt lat="28.216833333333334" lon="-16.44655">
        <ele>430</ele>
        <time>2024-03-30T14:09:21.000Z</time>
      </trkpt>
      <trkpt lat="28.2168" lon="-16.446466666666666">
        <ele>429</ele>
        <time>2024-03-30T14:09:22.000Z</time>
      </trkpt>
      <trkpt lat="28.21676666666667" lon="-16.446383333333333">
        <ele>429</ele>
        <time>2024-03-30T14:09:23.000Z</time>
      </trkpt>
      <trkpt lat="28.216733333333334" lon="-16.446316666666668">
        <ele>429</ele>
        <time>2024-03-30T14:09:24.000Z</time>
      </trkpt>
      <trkpt lat="28.216716666666667" lon="-16.44625">
        <ele>428</ele>
        <time>2024-03-30T14:09:25.000Z</time>
      </trkpt>
      <trkpt lat="28.216683333333332" lon="-16.4462">
        <ele>426</ele>
        <time>2024-03-30T14:09:26.000Z</time>
      </trkpt>
      <trkpt lat="28.21665" lon="-16.446116666666665">
        <ele>423</ele>
        <time>2024-03-30T14:09:27.000Z</time>
      </trkpt>
      <trkpt lat="28.216616666666667" lon="-16.446033333333332">
        <ele>420</ele>
        <time>2024-03-30T14:09:28.000Z</time>
      </trkpt>
      <trkpt lat="28.216583333333332" lon="-16.44595">
        <ele>418</ele>
        <time>2024-03-30T14:09:29.000Z</time>
      </trkpt>
      <trkpt lat="28.216583333333332" lon="-16.445866666666667">
        <ele>418</ele>
        <time>2024-03-30T14:09:30.000Z</time>
      </trkpt>
      <trkpt lat="28.216566666666665" lon="-16.4458">
        <ele>418</ele>
        <time>2024-03-30T14:09:31.000Z</time>
      </trkpt>
      <trkpt lat="28.21655" lon="-16.44575">
        <ele>418</ele>
        <time>2024-03-30T14:09:32.000Z</time>
      </trkpt>
      <trkpt lat="28.216533333333334" lon="-16.445683333333335">
        <ele>417</ele>
        <time>2024-03-30T14:09:33.000Z</time>
      </trkpt>
      <trkpt lat="28.2165" lon="-16.445633333333333">
        <ele>416</ele>
        <time>2024-03-30T14:09:34.000Z</time>
      </trkpt>
      <trkpt lat="28.216466666666665" lon="-16.44555">
        <ele>414</ele>
        <time>2024-03-30T14:09:35.000Z</time>
      </trkpt>
      <trkpt lat="28.216433333333335" lon="-16.44546666666667">
        <ele>412</ele>
        <time>2024-03-30T14:09:36.000Z</time>
      </trkpt>
      <trkpt lat="28.2164" lon="-16.445383333333332">
        <ele>412</ele>
        <time>2024-03-30T14:09:37.000Z</time>
      </trkpt>
      <trkpt lat="28.21635" lon="-16.445333333333334">
        <ele>410</ele>
        <time>2024-03-30T14:09:38.000Z</time>
      </trkpt>
      <trkpt lat="28.2163" lon="-16.445283333333332">
        <ele>408</ele>
        <time>2024-03-30T14:09:39.000Z</time>
      </trkpt>
      <trkpt lat="28.216233333333335" lon="-16.445216666666667">
        <ele>406</ele>
        <time>2024-03-30T14:09:40.000Z</time>
      </trkpt>
      <trkpt lat="28.216166666666666" lon="-16.445166666666665">
        <ele>403</ele>
        <time>2024-03-30T14:09:41.000Z</time>
      </trkpt>
      <trkpt lat="28.216083333333334" lon="-16.4451">
        <ele>400</ele>
        <time>2024-03-30T14:09:42.000Z</time>
      </trkpt>
      <trkpt lat="28.216" lon="-16.445033333333335">
        <ele>398</ele>
        <time>2024-03-30T14:09:43.000Z</time>
      </trkpt>
      <trkpt lat="28.215916666666665" lon="-16.444966666666666">
        <ele>396</ele>
        <time>2024-03-30T14:09:44.000Z</time>
      </trkpt>
      <trkpt lat="28.215833333333332" lon="-16.4449">
        <ele>395</ele>
        <time>2024-03-30T14:09:45.000Z</time>
      </trkpt>
      <trkpt lat="28.21575" lon="-16.44485">
        <ele>395</ele>
        <time>2024-03-30T14:09:46.000Z</time>
      </trkpt>
      <trkpt lat="28.215683333333335" lon="-16.4448">
        <ele>396</ele>
        <time>2024-03-30T14:09:47.000Z</time>
      </trkpt>
      <trkpt lat="28.215633333333333" lon="-16.444716666666668">
        <ele>395</ele>
        <time>2024-03-30T14:09:48.000Z</time>
      </trkpt>
      <trkpt lat="28.215583333333335" lon="-16.44465">
        <ele>395</ele>
        <time>2024-03-30T14:09:49.000Z</time>
      </trkpt>
      <trkpt lat="28.21555" lon="-16.444566666666667">
        <ele>396</ele>
        <time>2024-03-30T14:09:50.000Z</time>
      </trkpt>
      <trkpt lat="28.215516666666666" lon="-16.4445">
        <ele>398</ele>
        <time>2024-03-30T14:09:51.000Z</time>
      </trkpt>
      <trkpt lat="28.215516666666666" lon="-16.44445">
        <ele>399</ele>
        <time>2024-03-30T14:09:52.000Z</time>
      </trkpt>
      <trkpt lat="28.2155" lon="-16.444416666666665">
        <ele>400</ele>
        <time>2024-03-30T14:09:53.000Z</time>
      </trkpt>
      <trkpt lat="28.215466666666668" lon="-16.444366666666667">
        <ele>399</ele>
        <time>2024-03-30T14:09:54.000Z</time>
      </trkpt>
      <trkpt lat="28.215433333333333" lon="-16.444316666666666">
        <ele>396</ele>
        <time>2024-03-30T14:09:55.000Z</time>
      </trkpt>
      <trkpt lat="28.21535" lon="-16.444266666666667">
        <ele>394</ele>
        <time>2024-03-30T14:09:56.000Z</time>
      </trkpt>
      <trkpt lat="28.21525" lon="-16.444233333333333">
        <ele>393</ele>
        <time>2024-03-30T14:09:57.000Z</time>
      </trkpt>
      <trkpt lat="28.215133333333334" lon="-16.444216666666666">
        <ele>392</ele>
        <time>2024-03-30T14:09:58.000Z</time>
      </trkpt>
      <trkpt lat="28.215016666666667" lon="-16.444233333333333">
        <ele>392</ele>
        <time>2024-03-30T14:09:59.000Z</time>
      </trkpt>
      <trkpt lat="28.2149" lon="-16.44425">
        <ele>394</ele>
        <time>2024-03-30T14:10:00.000Z</time>
      </trkpt>
      <trkpt lat="28.214783333333333" lon="-16.444283333333335">
        <ele>395</ele>
        <time>2024-03-30T14:10:01.000Z</time>
      </trkpt>
      <trkpt lat="28.214666666666666" lon="-16.4443">
        <ele>395</ele>
        <time>2024-03-30T14:10:02.000Z</time>
      </trkpt>
      <trkpt lat="28.214566666666666" lon="-16.444333333333333">
        <ele>394</ele>
        <time>2024-03-30T14:10:03.000Z</time>
      </trkpt>
      <trkpt lat="28.214466666666667" lon="-16.44435">
        <ele>393</ele>
        <time>2024-03-30T14:10:04.000Z</time>
      </trkpt>
      <trkpt lat="28.21435" lon="-16.444383333333334">
        <ele>392</ele>
        <time>2024-03-30T14:10:05.000Z</time>
      </trkpt>
      <trkpt lat="28.214233333333333" lon="-16.444416666666665">
        <ele>392</ele>
        <time>2024-03-30T14:10:06.000Z</time>
      </trkpt>
      <trkpt lat="28.214116666666666" lon="-16.444466666666667">
        <ele>393</ele>
        <time>2024-03-30T14:10:07.000Z</time>
      </trkpt>
      <trkpt lat="28.214016666666666" lon="-16.4445">
        <ele>395</ele>
        <time>2024-03-30T14:10:08.000Z</time>
      </trkpt>
      <trkpt lat="28.213933333333333" lon="-16.4445">
        <ele>398</ele>
        <time>2024-03-30T14:10:09.000Z</time>
      </trkpt>
      <trkpt lat="28.213866666666668" lon="-16.444483333333334">
        <ele>398</ele>
        <time>2024-03-30T14:10:10.000Z</time>
      </trkpt>
      <trkpt lat="28.21385" lon="-16.444433333333333">
        <ele>397</ele>
        <time>2024-03-30T14:10:11.000Z</time>
      </trkpt>
      <trkpt lat="28.21385" lon="-16.444366666666667">
        <ele>397</ele>
        <time>2024-03-30T14:10:12.000Z</time>
      </trkpt>
      <trkpt lat="28.213816666666666" lon="-16.444316666666666">
        <ele>397</ele>
        <time>2024-03-30T14:10:13.000Z</time>
      </trkpt>
      <trkpt lat="28.213783333333332" lon="-16.444266666666667">
        <ele>398</ele>
        <time>2024-03-30T14:10:14.000Z</time>
      </trkpt>
      <trkpt lat="28.213766666666668" lon="-16.444233333333333">
        <ele>398</ele>
        <time>2024-03-30T14:10:15.000Z</time>
      </trkpt>
      <trkpt lat="28.213766666666668" lon="-16.444183333333335">
        <ele>399</ele>
        <time>2024-03-30T14:10:16.000Z</time>
      </trkpt>
      <trkpt lat="28.2138" lon="-16.444166666666668">
        <ele>398</ele>
        <time>2024-03-30T14:10:17.000Z</time>
      </trkpt>
      <trkpt lat="28.213866666666668" lon="-16.444183333333335">
        <ele>398</ele>
        <time>2024-03-30T14:10:18.000Z</time>
      </trkpt>
      <trkpt lat="28.213966666666668" lon="-16.444266666666667">
        <ele>399</ele>
        <time>2024-03-30T14:10:19.000Z</time>
      </trkpt>
      <trkpt lat="28.214033333333333" lon="-16.4444">
        <ele>399</ele>
        <time>2024-03-30T14:10:20.000Z</time>
      </trkpt>
      <trkpt lat="28.21405" lon="-16.44455">
        <ele>400</ele>
        <time>2024-03-30T14:10:21.000Z</time>
      </trkpt>
      <trkpt lat="28.214" lon="-16.4447">
        <ele>400</ele>
        <time>2024-03-30T14:10:22.000Z</time>
      </trkpt>
      <trkpt lat="28.21388333333333" lon="-16.4448">
        <ele>400</ele>
        <time>2024-03-30T14:10:23.000Z</time>
      </trkpt>
      <trkpt lat="28.213733333333334" lon="-16.444866666666666">
        <ele>400</ele>
        <time>2024-03-30T14:10:24.000Z</time>
      </trkpt>
      <trkpt lat="28.213616666666667" lon="-16.444866666666666">
        <ele>403</ele>
        <time>2024-03-30T14:10:25.000Z</time>
      </trkpt>
      <trkpt lat="28.213533333333334" lon="-16.44483333333333">
        <ele>405</ele>
        <time>2024-03-30T14:10:26.000Z</time>
      </trkpt>
      <trkpt lat="28.213516666666667" lon="-16.444783333333334">
        <ele>405</ele>
        <time>2024-03-30T14:10:27.000Z</time>
      </trkpt>
      <trkpt lat="28.213533333333334" lon="-16.444733333333332">
        <ele>405</ele>
        <time>2024-03-30T14:10:28.000Z</time>
      </trkpt>
      <trkpt lat="28.213566666666665" lon="-16.4447">
        <ele>405</ele>
        <time>2024-03-30T14:10:29.000Z</time>
      </trkpt>
      <trkpt lat="28.213633333333334" lon="-16.444666666666667">
        <ele>407</ele>
        <time>2024-03-30T14:10:30.000Z</time>
      </trkpt>
      <trkpt lat="28.213683333333332" lon="-16.444666666666667">
        <ele>409</ele>
        <time>2024-03-30T14:10:31.000Z</time>
      </trkpt>
      <trkpt lat="28.21375" lon="-16.444683333333334">
        <ele>412</ele>
        <time>2024-03-30T14:10:32.000Z</time>
      </trkpt>
      <trkpt lat="28.213816666666666" lon="-16.44475">
        <ele>412</ele>
        <time>2024-03-30T14:10:33.000Z</time>
      </trkpt>
      <trkpt lat="28.21388333333333" lon="-16.444883333333333">
        <ele>410</ele>
        <time>2024-03-30T14:10:34.000Z</time>
      </trkpt>
      <trkpt lat="28.2139" lon="-16.445033333333335">
        <ele>410</ele>
        <time>2024-03-30T14:10:35.000Z</time>
      </trkpt>
      <trkpt lat="28.21388333333333" lon="-16.445183333333333">
        <ele>410</ele>
        <time>2024-03-30T14:10:36.000Z</time>
      </trkpt>
      <trkpt lat="28.21385" lon="-16.445316666666667">
        <ele>411</ele>
        <time>2024-03-30T14:10:37.000Z</time>
      </trkpt>
      <trkpt lat="28.213783333333332" lon="-16.445433333333334">
        <ele>412</ele>
        <time>2024-03-30T14:10:38.000Z</time>
      </trkpt>
      <trkpt lat="28.213716666666667" lon="-16.445516666666666">
        <ele>413</ele>
        <time>2024-03-30T14:10:39.000Z</time>
      </trkpt>
      <trkpt lat="28.213583333333332" lon="-16.44558333333333">
        <ele>413</ele>
        <time>2024-03-30T14:10:40.000Z</time>
      </trkpt>
      <trkpt lat="28.213483333333333" lon="-16.44558333333333">
        <ele>412</ele>
        <time>2024-03-30T14:10:41.000Z</time>
      </trkpt>
      <trkpt lat="28.213416666666667" lon="-16.445566666666668">
        <ele>413</ele>
        <time>2024-03-30T14:10:42.000Z</time>
      </trkpt>
      <trkpt lat="28.213383333333333" lon="-16.4455">
        <ele>413</ele>
        <time>2024-03-30T14:10:43.000Z</time>
      </trkpt>
      <trkpt lat="28.213383333333333" lon="-16.44545">
        <ele>414</ele>
        <time>2024-03-30T14:10:44.000Z</time>
      </trkpt>
      <trkpt lat="28.2134" lon="-16.4454">
        <ele>415</ele>
        <time>2024-03-30T14:10:45.000Z</time>
      </trkpt>
      <trkpt lat="28.213433333333334" lon="-16.445383333333332">
        <ele>416</ele>
        <time>2024-03-30T14:10:46.000Z</time>
      </trkpt>
      <trkpt lat="28.213483333333333" lon="-16.445366666666665">
        <ele>417</ele>
        <time>2024-03-30T14:10:47.000Z</time>
      </trkpt>
      <trkpt lat="28.213533333333334" lon="-16.44535">
        <ele>418</ele>
        <time>2024-03-30T14:10:48.000Z</time>
      </trkpt>
      <trkpt lat="28.213566666666665" lon="-16.44535">
        <ele>418</ele>
        <time>2024-03-30T14:10:49.000Z</time>
      </trkpt>
      <trkpt lat="28.2136" lon="-16.445366666666665">
        <ele>419</ele>
        <time>2024-03-30T14:10:50.000Z</time>
      </trkpt>
      <trkpt lat="28.21365" lon="-16.445416666666667">
        <ele>418</ele>
        <time>2024-03-30T14:10:51.000Z</time>
      </trkpt>
      <trkpt lat="28.213683333333332" lon="-16.445516666666666">
        <ele>414</ele>
        <time>2024-03-30T14:10:52.000Z</time>
      </trkpt>
      <trkpt lat="28.213716666666667" lon="-16.44565">
        <ele>411</ele>
        <time>2024-03-30T14:10:53.000Z</time>
      </trkpt>
      <trkpt lat="28.2137" lon="-16.4458">
        <ele>411</ele>
        <time>2024-03-30T14:10:54.000Z</time>
      </trkpt>
      <trkpt lat="28.213683333333332" lon="-16.445933333333333">
        <ele>411</ele>
        <time>2024-03-30T14:10:55.000Z</time>
      </trkpt>
      <trkpt lat="28.21365" lon="-16.446083333333334">
        <ele>412</ele>
        <time>2024-03-30T14:10:56.000Z</time>
      </trkpt>
      <trkpt lat="28.2136" lon="-16.4462">
        <ele>413</ele>
        <time>2024-03-30T14:10:57.000Z</time>
      </trkpt>
      <trkpt lat="28.213533333333334" lon="-16.446316666666668">
        <ele>415</ele>
        <time>2024-03-30T14:10:58.000Z</time>
      </trkpt>
      <trkpt lat="28.213466666666665" lon="-16.446416666666668">
        <ele>416</ele>
        <time>2024-03-30T14:10:59.000Z</time>
      </trkpt>
      <trkpt lat="28.213366666666666" lon="-16.446466666666666">
        <ele>416</ele>
        <time>2024-03-30T14:11:00.000Z</time>
      </trkpt>
      <trkpt lat="28.213266666666666" lon="-16.446483333333333">
        <ele>416</ele>
        <time>2024-03-30T14:11:01.000Z</time>
      </trkpt>
      <trkpt lat="28.2132" lon="-16.446466666666666">
        <ele>416</ele>
        <time>2024-03-30T14:11:02.000Z</time>
      </trkpt>
      <trkpt lat="28.213166666666666" lon="-16.446433333333335">
        <ele>416</ele>
        <time>2024-03-30T14:11:03.000Z</time>
      </trkpt>
      <trkpt lat="28.213166666666666" lon="-16.446383333333333">
        <ele>416</ele>
        <time>2024-03-30T14:11:04.000Z</time>
      </trkpt>
      <trkpt lat="28.2132" lon="-16.44633333333333">
        <ele>416</ele>
        <time>2024-03-30T14:11:05.000Z</time>
      </trkpt>
      <trkpt lat="28.213266666666666" lon="-16.4463">
        <ele>418</ele>
        <time>2024-03-30T14:11:06.000Z</time>
      </trkpt>
      <trkpt lat="28.213333333333335" lon="-16.4463">
        <ele>420</ele>
        <time>2024-03-30T14:11:07.000Z</time>
      </trkpt>
      <trkpt lat="28.2134" lon="-16.4463">
        <ele>422</ele>
        <time>2024-03-30T14:11:08.000Z</time>
      </trkpt>
      <trkpt lat="28.213466666666665" lon="-16.446316666666668">
        <ele>423</ele>
        <time>2024-03-30T14:11:09.000Z</time>
      </trkpt>
      <trkpt lat="28.213516666666667" lon="-16.446316666666668">
        <ele>423</ele>
        <time>2024-03-30T14:11:10.000Z</time>
      </trkpt>
      <trkpt lat="28.21355" lon="-16.4463">
        <ele>422</ele>
        <time>2024-03-30T14:11:11.000Z</time>
      </trkpt>
      <trkpt lat="28.213583333333332" lon="-16.44625">
        <ele>421</ele>
        <time>2024-03-30T14:11:12.000Z</time>
      </trkpt>
      <trkpt lat="28.213616666666667" lon="-16.4462">
        <ele>420</ele>
        <time>2024-03-30T14:11:13.000Z</time>
      </trkpt>
      <trkpt lat="28.213633333333334" lon="-16.44615">
        <ele>418</ele>
        <time>2024-03-30T14:11:14.000Z</time>
      </trkpt>
      <trkpt lat="28.21366666666667" lon="-16.4461">
        <ele>417</ele>
        <time>2024-03-30T14:11:15.000Z</time>
      </trkpt>
      <trkpt lat="28.2137" lon="-16.446066666666667">
        <ele>415</ele>
        <time>2024-03-30T14:11:16.000Z</time>
      </trkpt>
      <trkpt lat="28.213716666666667" lon="-16.446033333333332">
        <ele>413</ele>
        <time>2024-03-30T14:11:17.000Z</time>
      </trkpt>
      <trkpt lat="28.21375" lon="-16.446">
        <ele>411</ele>
        <time>2024-03-30T14:11:18.000Z</time>
      </trkpt>
      <trkpt lat="28.213766666666668" lon="-16.44595">
        <ele>408</ele>
        <time>2024-03-30T14:11:19.000Z</time>
      </trkpt>
      <trkpt lat="28.2138" lon="-16.445933333333333">
        <ele>407</ele>
        <time>2024-03-30T14:11:20.000Z</time>
      </trkpt>
      <trkpt lat="28.213833333333334" lon="-16.445933333333333">
        <ele>406</ele>
        <time>2024-03-30T14:11:21.000Z</time>
      </trkpt>
      <trkpt lat="28.21388333333333" lon="-16.445966666666667">
        <ele>405</ele>
        <time>2024-03-30T14:11:22.000Z</time>
      </trkpt>
      <trkpt lat="28.21395" lon="-16.446066666666667">
        <ele>402</ele>
        <time>2024-03-30T14:11:23.000Z</time>
      </trkpt>
      <trkpt lat="28.213983333333335" lon="-16.4462">
        <ele>398</ele>
        <time>2024-03-30T14:11:24.000Z</time>
      </trkpt>
      <trkpt lat="28.213983333333335" lon="-16.44633333333333">
        <ele>396</ele>
        <time>2024-03-30T14:11:25.000Z</time>
      </trkpt>
      <trkpt lat="28.213933333333333" lon="-16.446483333333333">
        <ele>394</ele>
        <time>2024-03-30T14:11:26.000Z</time>
      </trkpt>
      <trkpt lat="28.21388333333333" lon="-16.4466">
        <ele>394</ele>
        <time>2024-03-30T14:11:27.000Z</time>
      </trkpt>
      <trkpt lat="28.213866666666668" lon="-16.446716666666667">
        <ele>393</ele>
        <time>2024-03-30T14:11:28.000Z</time>
      </trkpt>
      <trkpt lat="28.213866666666668" lon="-16.446816666666667">
        <ele>391</ele>
        <time>2024-03-30T14:11:29.000Z</time>
      </trkpt>
      <trkpt lat="28.21388333333333" lon="-16.44695">
        <ele>389</ele>
        <time>2024-03-30T14:11:30.000Z</time>
      </trkpt>
      <trkpt lat="28.213933333333333" lon="-16.447066666666668">
        <ele>387</ele>
        <time>2024-03-30T14:11:31.000Z</time>
      </trkpt>
      <trkpt lat="28.213966666666668" lon="-16.447166666666668">
        <ele>386</ele>
        <time>2024-03-30T14:11:32.000Z</time>
      </trkpt>
      <trkpt lat="28.21405" lon="-16.447266666666668">
        <ele>386</ele>
        <time>2024-03-30T14:11:33.000Z</time>
      </trkpt>
      <trkpt lat="28.214116666666666" lon="-16.447316666666666">
        <ele>385</ele>
        <time>2024-03-30T14:11:34.000Z</time>
      </trkpt>
      <trkpt lat="28.2142" lon="-16.447333333333333">
        <ele>383</ele>
        <time>2024-03-30T14:11:35.000Z</time>
      </trkpt>
      <trkpt lat="28.21425" lon="-16.447316666666666">
        <ele>382</ele>
        <time>2024-03-30T14:11:36.000Z</time>
      </trkpt>
      <trkpt lat="28.2143" lon="-16.447266666666668">
        <ele>381</ele>
        <time>2024-03-30T14:11:37.000Z</time>
      </trkpt>
      <trkpt lat="28.214316666666665" lon="-16.447216666666666">
        <ele>379</ele>
        <time>2024-03-30T14:11:38.000Z</time>
      </trkpt>
      <trkpt lat="28.214333333333332" lon="-16.447166666666668">
        <ele>380</ele>
        <time>2024-03-30T14:11:39.000Z</time>
      </trkpt>
      <trkpt lat="28.214333333333332" lon="-16.447116666666666">
        <ele>380</ele>
        <time>2024-03-30T14:11:40.000Z</time>
      </trkpt>
      <trkpt lat="28.214316666666665" lon="-16.44708333333333">
        <ele>381</ele>
        <time>2024-03-30T14:11:41.000Z</time>
      </trkpt>
      <trkpt lat="28.214333333333332" lon="-16.44705">
        <ele>381</ele>
        <time>2024-03-30T14:11:42.000Z</time>
      </trkpt>
      <trkpt lat="28.214333333333332" lon="-16.447033333333334">
        <ele>381</ele>
        <time>2024-03-30T14:11:43.000Z</time>
      </trkpt>
      <trkpt lat="28.214333333333332" lon="-16.447">
        <ele>381</ele>
        <time>2024-03-30T14:11:44.000Z</time>
      </trkpt>
      <trkpt lat="28.21435" lon="-16.44696666666667">
        <ele>380</ele>
        <time>2024-03-30T14:11:45.000Z</time>
      </trkpt>
      <trkpt lat="28.21435" lon="-16.446933333333334">
        <ele>380</ele>
        <time>2024-03-30T14:11:46.000Z</time>
      </trkpt>
      <trkpt lat="28.21435" lon="-16.446883333333332">
        <ele>380</ele>
        <time>2024-03-30T14:11:47.000Z</time>
      </trkpt>
      <trkpt lat="28.214333333333332" lon="-16.44685">
        <ele>380</ele>
        <time>2024-03-30T14:11:48.000Z</time>
      </trkpt>
      <trkpt lat="28.2143" lon="-16.446833333333334">
        <ele>379</ele>
        <time>2024-03-30T14:11:49.000Z</time>
      </trkpt>
      <trkpt lat="28.2143" lon="-16.446816666666667">
        <ele>379</ele>
        <time>2024-03-30T14:11:50.000Z</time>
      </trkpt>
      <trkpt lat="28.214283333333334" lon="-16.446783333333332">
        <ele>378</ele>
        <time>2024-03-30T14:11:51.000Z</time>
      </trkpt>
      <trkpt lat="28.214283333333334" lon="-16.446766666666665">
        <ele>377</ele>
        <time>2024-03-30T14:11:52.000Z</time>
      </trkpt>
      <trkpt lat="28.214266666666667" lon="-16.446766666666665">
        <ele>377</ele>
        <time>2024-03-30T14:11:53.000Z</time>
      </trkpt>
      <trkpt lat="28.214266666666667" lon="-16.446766666666665">
        <ele>376</ele>
        <time>2024-03-30T14:11:55.000Z</time>
      </trkpt>
      <trkpt lat="28.214266666666667" lon="-16.446766666666665">
        <ele>376</ele>
        <time>2024-03-30T14:11:56.000Z</time>
      </trkpt>
      <trkpt lat="28.214266666666667" lon="-16.446783333333332">
        <ele>377</ele>
        <time>2024-03-30T14:11:57.000Z</time>
      </trkpt>
      <trkpt lat="28.21425" lon="-16.4468">
        <ele>377</ele>
        <time>2024-03-30T14:11:58.000Z</time>
      </trkpt>
    </trkseg>
  </trk>
</gpx>